<?xml version="1.0" encoding="UTF-8" standalone="no" ?>
<gpx xmlns="http://www.topografix.com/GPX/1/1" xmlns:xsi="http://www.w3.org/2001/XMLSchema-instance" xsi:schemaLocation="http://www.topografix.com/GPX/1/1 http://www.topografix.com/GPX/1/1/gpx.xsd" version="1.1" creator="VisuGPX - https://www.visugpx.com">
  <metadata>
    <name>Grenoble/Privas J2</name>
  </metadata>
  <trk>
    <name><![CDATA[08/07/2019 06:11:11]]></name>
    <trkseg>
      <trkpt lat="44.88837" lon="5.27719">
        <ele>1328.5999755859</ele>
        <time>2019-07-08T04:11:11Z</time>
      </trkpt>
      <trkpt lat="44.88837" lon="5.27719">
        <ele>1328.5999755859</ele>
        <time>2019-07-08T04:11:14Z</time>
      </trkpt>
      <trkpt lat="44.88837" lon="5.27719">
        <ele>1328.8000488281</ele>
        <time>2019-07-08T04:11:15Z</time>
      </trkpt>
      <trkpt lat="44.88836" lon="5.27719">
        <ele>1328.8000488281</ele>
        <time>2019-07-08T04:11:19Z</time>
      </trkpt>
      <trkpt lat="44.88827" lon="5.27719">
        <ele>1328.8000488281</ele>
        <time>2019-07-08T04:11:22Z</time>
      </trkpt>
      <trkpt lat="44.88807" lon="5.27718">
        <ele>1328.8000488281</ele>
        <time>2019-07-08T04:11:28Z</time>
      </trkpt>
      <trkpt lat="44.88802" lon="5.27721">
        <ele>1328.8000488281</ele>
        <time>2019-07-08T04:11:32Z</time>
      </trkpt>
      <trkpt lat="44.88793" lon="5.27728">
        <ele>1328.8000488281</ele>
        <time>2019-07-08T04:11:38Z</time>
      </trkpt>
      <trkpt lat="44.88783" lon="5.27735">
        <ele>1328.8000488281</ele>
        <time>2019-07-08T04:11:45Z</time>
      </trkpt>
      <trkpt lat="44.88771" lon="5.27739">
        <ele>1328.8000488281</ele>
        <time>2019-07-08T04:11:52Z</time>
      </trkpt>
      <trkpt lat="44.88763" lon="5.2774">
        <ele>1328.8000488281</ele>
        <time>2019-07-08T04:11:58Z</time>
      </trkpt>
      <trkpt lat="44.88762" lon="5.2774">
        <ele>1328.8000488281</ele>
        <time>2019-07-08T04:12:06Z</time>
      </trkpt>
      <trkpt lat="44.88762" lon="5.2774">
        <ele>1328.8000488281</ele>
        <time>2019-07-08T04:12:20Z</time>
      </trkpt>
      <trkpt lat="44.88761" lon="5.27739">
        <ele>1328.8000488281</ele>
        <time>2019-07-08T04:12:28Z</time>
      </trkpt>
      <trkpt lat="44.88758" lon="5.27738">
        <ele>1328.8000488281</ele>
        <time>2019-07-08T04:12:33Z</time>
      </trkpt>
      <trkpt lat="44.88758" lon="5.27738">
        <ele>1328.8000488281</ele>
        <time>2019-07-08T04:12:44Z</time>
      </trkpt>
      <trkpt lat="44.88758" lon="5.27738">
        <ele>1328.8000488281</ele>
        <time>2019-07-08T04:12:57Z</time>
      </trkpt>
      <trkpt lat="44.88758" lon="5.27738">
        <ele>1328.8000488281</ele>
        <time>2019-07-08T04:13:12Z</time>
      </trkpt>
      <trkpt lat="44.88758" lon="5.27738">
        <ele>1328.8000488281</ele>
        <time>2019-07-08T04:13:25Z</time>
      </trkpt>
      <trkpt lat="44.88758" lon="5.27738">
        <ele>1328.8000488281</ele>
        <time>2019-07-08T04:13:40Z</time>
      </trkpt>
      <trkpt lat="44.88758" lon="5.27738">
        <ele>1328.8000488281</ele>
        <time>2019-07-08T04:13:58Z</time>
      </trkpt>
      <trkpt lat="44.88758" lon="5.27738">
        <ele>1328.8000488281</ele>
        <time>2019-07-08T04:14:15Z</time>
      </trkpt>
      <trkpt lat="44.88758" lon="5.27738">
        <ele>1328.8000488281</ele>
        <time>2019-07-08T04:14:31Z</time>
      </trkpt>
      <trkpt lat="44.88758" lon="5.27738">
        <ele>1328.8000488281</ele>
        <time>2019-07-08T04:14:44Z</time>
      </trkpt>
      <trkpt lat="44.88758" lon="5.27738">
        <ele>1328.8000488281</ele>
        <time>2019-07-08T04:15:01Z</time>
      </trkpt>
      <trkpt lat="44.88758" lon="5.27739">
        <ele>1328.8000488281</ele>
        <time>2019-07-08T04:15:17Z</time>
      </trkpt>
      <trkpt lat="44.88758" lon="5.27739">
        <ele>1328.8000488281</ele>
        <time>2019-07-08T04:15:35Z</time>
      </trkpt>
      <trkpt lat="44.88758" lon="5.27738">
        <ele>1328.8000488281</ele>
        <time>2019-07-08T04:15:51Z</time>
      </trkpt>
      <trkpt lat="44.88758" lon="5.27738">
        <ele>1328.8000488281</ele>
        <time>2019-07-08T04:16:07Z</time>
      </trkpt>
      <trkpt lat="44.88758" lon="5.27738">
        <ele>1329.1999511719</ele>
        <time>2019-07-08T04:16:09Z</time>
      </trkpt>
      <trkpt lat="44.88758" lon="5.27738">
        <ele>1329.5999755859</ele>
        <time>2019-07-08T04:16:10Z</time>
      </trkpt>
      <trkpt lat="44.88758" lon="5.27738">
        <ele>1330</ele>
        <time>2019-07-08T04:16:11Z</time>
      </trkpt>
      <trkpt lat="44.88758" lon="5.27738">
        <ele>1330.4000244141</ele>
        <time>2019-07-08T04:16:12Z</time>
      </trkpt>
      <trkpt lat="44.88758" lon="5.27738">
        <ele>1330.8000488281</ele>
        <time>2019-07-08T04:16:13Z</time>
      </trkpt>
      <trkpt lat="44.88758" lon="5.27738">
        <ele>1330.8000488281</ele>
        <time>2019-07-08T04:16:23Z</time>
      </trkpt>
      <trkpt lat="44.88757" lon="5.27738">
        <ele>1330.8000488281</ele>
        <time>2019-07-08T04:16:41Z</time>
      </trkpt>
      <trkpt lat="44.88757" lon="5.27738">
        <ele>1330.8000488281</ele>
        <time>2019-07-08T04:16:58Z</time>
      </trkpt>
      <trkpt lat="44.88757" lon="5.27738">
        <ele>1330.8000488281</ele>
        <time>2019-07-08T04:17:09Z</time>
      </trkpt>
      <trkpt lat="44.88757" lon="5.27738">
        <ele>1330.8000488281</ele>
        <time>2019-07-08T04:17:22Z</time>
      </trkpt>
      <trkpt lat="44.88757" lon="5.27738">
        <ele>1330.8000488281</ele>
        <time>2019-07-08T04:17:36Z</time>
      </trkpt>
      <trkpt lat="44.88757" lon="5.27738">
        <ele>1330.8000488281</ele>
        <time>2019-07-08T04:17:50Z</time>
      </trkpt>
      <trkpt lat="44.88757" lon="5.27739">
        <ele>1330.8000488281</ele>
        <time>2019-07-08T04:18:05Z</time>
      </trkpt>
      <trkpt lat="44.88757" lon="5.27739">
        <ele>1330.8000488281</ele>
        <time>2019-07-08T04:18:21Z</time>
      </trkpt>
      <trkpt lat="44.88758" lon="5.27739">
        <ele>1330.8000488281</ele>
        <time>2019-07-08T04:18:36Z</time>
      </trkpt>
      <trkpt lat="44.88758" lon="5.27739">
        <ele>1330.8000488281</ele>
        <time>2019-07-08T04:18:50Z</time>
      </trkpt>
      <trkpt lat="44.88757" lon="5.27739">
        <ele>1330.8000488281</ele>
        <time>2019-07-08T04:18:59Z</time>
      </trkpt>
      <trkpt lat="44.88757" lon="5.2774">
        <ele>1330.8000488281</ele>
        <time>2019-07-08T04:19:01Z</time>
      </trkpt>
      <trkpt lat="44.88757" lon="5.2774">
        <ele>1330.8000488281</ele>
        <time>2019-07-08T04:19:13Z</time>
      </trkpt>
      <trkpt lat="44.88755" lon="5.2774">
        <ele>1330.8000488281</ele>
        <time>2019-07-08T04:19:24Z</time>
      </trkpt>
      <trkpt lat="44.88753" lon="5.2774">
        <ele>1330.8000488281</ele>
        <time>2019-07-08T04:19:27Z</time>
      </trkpt>
      <trkpt lat="44.88743" lon="5.27742">
        <ele>1330.8000488281</ele>
        <time>2019-07-08T04:19:33Z</time>
      </trkpt>
      <trkpt lat="44.88732" lon="5.27741">
        <ele>1330.8000488281</ele>
        <time>2019-07-08T04:19:38Z</time>
      </trkpt>
      <trkpt lat="44.88717" lon="5.27739">
        <ele>1331.1999511719</ele>
        <time>2019-07-08T04:19:45Z</time>
      </trkpt>
      <trkpt lat="44.88715" lon="5.27739">
        <ele>1331.5999755859</ele>
        <time>2019-07-08T04:19:46Z</time>
      </trkpt>
      <trkpt lat="44.88713" lon="5.27739">
        <ele>1332</ele>
        <time>2019-07-08T04:19:47Z</time>
      </trkpt>
      <trkpt lat="44.88711" lon="5.27739">
        <ele>1333</ele>
        <time>2019-07-08T04:19:48Z</time>
      </trkpt>
      <trkpt lat="44.88703" lon="5.27737">
        <ele>1333</ele>
        <time>2019-07-08T04:19:52Z</time>
      </trkpt>
      <trkpt lat="44.88692" lon="5.27735">
        <ele>1333</ele>
        <time>2019-07-08T04:19:58Z</time>
      </trkpt>
      <trkpt lat="44.88682" lon="5.27732">
        <ele>1333.4000244141</ele>
        <time>2019-07-08T04:20:03Z</time>
      </trkpt>
      <trkpt lat="44.8868" lon="5.27732">
        <ele>1333.8000488281</ele>
        <time>2019-07-08T04:20:04Z</time>
      </trkpt>
      <trkpt lat="44.88678" lon="5.27732">
        <ele>1334.1999511719</ele>
        <time>2019-07-08T04:20:05Z</time>
      </trkpt>
      <trkpt lat="44.88677" lon="5.27731">
        <ele>1334.5999755859</ele>
        <time>2019-07-08T04:20:06Z</time>
      </trkpt>
      <trkpt lat="44.88675" lon="5.27731">
        <ele>1335</ele>
        <time>2019-07-08T04:20:07Z</time>
      </trkpt>
      <trkpt lat="44.88664" lon="5.2773">
        <ele>1335</ele>
        <time>2019-07-08T04:20:12Z</time>
      </trkpt>
      <trkpt lat="44.88653" lon="5.27729">
        <ele>1335</ele>
        <time>2019-07-08T04:20:18Z</time>
      </trkpt>
      <trkpt lat="44.88641" lon="5.27726">
        <ele>1335</ele>
        <time>2019-07-08T04:20:25Z</time>
      </trkpt>
      <trkpt lat="44.88639" lon="5.27725">
        <ele>1335.4000244141</ele>
        <time>2019-07-08T04:20:26Z</time>
      </trkpt>
      <trkpt lat="44.88637" lon="5.27725">
        <ele>1335.8000488281</ele>
        <time>2019-07-08T04:20:27Z</time>
      </trkpt>
      <trkpt lat="44.88636" lon="5.27724">
        <ele>1336.1999511719</ele>
        <time>2019-07-08T04:20:28Z</time>
      </trkpt>
      <trkpt lat="44.88634" lon="5.27723">
        <ele>1336.5999755859</ele>
        <time>2019-07-08T04:20:29Z</time>
      </trkpt>
      <trkpt lat="44.88632" lon="5.27723">
        <ele>1337</ele>
        <time>2019-07-08T04:20:30Z</time>
      </trkpt>
      <trkpt lat="44.88631" lon="5.27722">
        <ele>1337</ele>
        <time>2019-07-08T04:20:31Z</time>
      </trkpt>
      <trkpt lat="44.88619" lon="5.27715">
        <ele>1337</ele>
        <time>2019-07-08T04:20:38Z</time>
      </trkpt>
      <trkpt lat="44.88605" lon="5.27711">
        <ele>1337</ele>
        <time>2019-07-08T04:20:46Z</time>
      </trkpt>
      <trkpt lat="44.88603" lon="5.2771">
        <ele>1337.4000244141</ele>
        <time>2019-07-08T04:20:47Z</time>
      </trkpt>
      <trkpt lat="44.88602" lon="5.2771">
        <ele>1337.8000488281</ele>
        <time>2019-07-08T04:20:48Z</time>
      </trkpt>
      <trkpt lat="44.886" lon="5.2771">
        <ele>1338.1999511719</ele>
        <time>2019-07-08T04:20:49Z</time>
      </trkpt>
      <trkpt lat="44.88598" lon="5.2771">
        <ele>1338.5999755859</ele>
        <time>2019-07-08T04:20:50Z</time>
      </trkpt>
      <trkpt lat="44.88597" lon="5.2771">
        <ele>1339.1999511719</ele>
        <time>2019-07-08T04:20:51Z</time>
      </trkpt>
      <trkpt lat="44.88594" lon="5.2771">
        <ele>1339.1999511719</ele>
        <time>2019-07-08T04:20:53Z</time>
      </trkpt>
      <trkpt lat="44.88582" lon="5.27714">
        <ele>1339.1999511719</ele>
        <time>2019-07-08T04:21:00Z</time>
      </trkpt>
      <trkpt lat="44.88578" lon="5.27718">
        <ele>1339.5999755859</ele>
        <time>2019-07-08T04:21:03Z</time>
      </trkpt>
      <trkpt lat="44.88576" lon="5.27719">
        <ele>1340</ele>
        <time>2019-07-08T04:21:04Z</time>
      </trkpt>
      <trkpt lat="44.88575" lon="5.27719">
        <ele>1340.4000244141</ele>
        <time>2019-07-08T04:21:05Z</time>
      </trkpt>
      <trkpt lat="44.88574" lon="5.27719">
        <ele>1340.8000488281</ele>
        <time>2019-07-08T04:21:06Z</time>
      </trkpt>
      <trkpt lat="44.88574" lon="5.27719">
        <ele>1341.1999511719</ele>
        <time>2019-07-08T04:21:07Z</time>
      </trkpt>
      <trkpt lat="44.88574" lon="5.27719">
        <ele>1341.1999511719</ele>
        <time>2019-07-08T04:21:11Z</time>
      </trkpt>
      <trkpt lat="44.88573" lon="5.2772">
        <ele>1341.1999511719</ele>
        <time>2019-07-08T04:21:19Z</time>
      </trkpt>
      <trkpt lat="44.88571" lon="5.27719">
        <ele>1341.1999511719</ele>
        <time>2019-07-08T04:21:25Z</time>
      </trkpt>
      <trkpt lat="44.8857" lon="5.2772">
        <ele>1341.1999511719</ele>
        <time>2019-07-08T04:21:30Z</time>
      </trkpt>
      <trkpt lat="44.8857" lon="5.27719">
        <ele>1341.1999511719</ele>
        <time>2019-07-08T04:21:36Z</time>
      </trkpt>
      <trkpt lat="44.88566" lon="5.27715">
        <ele>1341.1999511719</ele>
        <time>2019-07-08T04:21:45Z</time>
      </trkpt>
      <trkpt lat="44.88558" lon="5.27706">
        <ele>1341.1999511719</ele>
        <time>2019-07-08T04:21:50Z</time>
      </trkpt>
      <trkpt lat="44.88552" lon="5.27701">
        <ele>1341.1999511719</ele>
        <time>2019-07-08T04:21:55Z</time>
      </trkpt>
      <trkpt lat="44.88542" lon="5.2769">
        <ele>1341.1999511719</ele>
        <time>2019-07-08T04:22:02Z</time>
      </trkpt>
      <trkpt lat="44.88533" lon="5.27681">
        <ele>1341.1999511719</ele>
        <time>2019-07-08T04:22:08Z</time>
      </trkpt>
      <trkpt lat="44.8852" lon="5.2767">
        <ele>1341.1999511719</ele>
        <time>2019-07-08T04:22:15Z</time>
      </trkpt>
      <trkpt lat="44.88503" lon="5.27653">
        <ele>1341.1999511719</ele>
        <time>2019-07-08T04:22:24Z</time>
      </trkpt>
      <trkpt lat="44.88496" lon="5.27645">
        <ele>1341.5999755859</ele>
        <time>2019-07-08T04:22:28Z</time>
      </trkpt>
      <trkpt lat="44.88494" lon="5.27643">
        <ele>1342</ele>
        <time>2019-07-08T04:22:29Z</time>
      </trkpt>
      <trkpt lat="44.88492" lon="5.27642">
        <ele>1342.4000244141</ele>
        <time>2019-07-08T04:22:30Z</time>
      </trkpt>
      <trkpt lat="44.8849" lon="5.2764">
        <ele>1342.8000488281</ele>
        <time>2019-07-08T04:22:31Z</time>
      </trkpt>
      <trkpt lat="44.88489" lon="5.27638">
        <ele>1343.1999511719</ele>
        <time>2019-07-08T04:22:32Z</time>
      </trkpt>
      <trkpt lat="44.88479" lon="5.27628">
        <ele>1343.1999511719</ele>
        <time>2019-07-08T04:22:38Z</time>
      </trkpt>
      <trkpt lat="44.88477" lon="5.27626">
        <ele>1343.1999511719</ele>
        <time>2019-07-08T04:22:42Z</time>
      </trkpt>
      <trkpt lat="44.88477" lon="5.27626">
        <ele>1343.1999511719</ele>
        <time>2019-07-08T04:22:53Z</time>
      </trkpt>
      <trkpt lat="44.88477" lon="5.27626">
        <ele>1343.1999511719</ele>
        <time>2019-07-08T04:23:12Z</time>
      </trkpt>
      <trkpt lat="44.88477" lon="5.27626">
        <ele>1343.1999511719</ele>
        <time>2019-07-08T04:23:30Z</time>
      </trkpt>
      <trkpt lat="44.88477" lon="5.27626">
        <ele>1343.1999511719</ele>
        <time>2019-07-08T04:23:49Z</time>
      </trkpt>
      <trkpt lat="44.88477" lon="5.27626">
        <ele>1343.1999511719</ele>
        <time>2019-07-08T04:24:09Z</time>
      </trkpt>
      <trkpt lat="44.88477" lon="5.27626">
        <ele>1343.1999511719</ele>
        <time>2019-07-08T04:24:28Z</time>
      </trkpt>
      <trkpt lat="44.88477" lon="5.27626">
        <ele>1343.1999511719</ele>
        <time>2019-07-08T04:24:46Z</time>
      </trkpt>
      <trkpt lat="44.88477" lon="5.27626">
        <ele>1343.1999511719</ele>
        <time>2019-07-08T04:25:02Z</time>
      </trkpt>
      <trkpt lat="44.88476" lon="5.27625">
        <ele>1343.1999511719</ele>
        <time>2019-07-08T04:25:15Z</time>
      </trkpt>
      <trkpt lat="44.88476" lon="5.27624">
        <ele>1343.1999511719</ele>
        <time>2019-07-08T04:25:16Z</time>
      </trkpt>
      <trkpt lat="44.88469" lon="5.27618">
        <ele>1343.1999511719</ele>
        <time>2019-07-08T04:25:20Z</time>
      </trkpt>
      <trkpt lat="44.88454" lon="5.27604">
        <ele>1343.1999511719</ele>
        <time>2019-07-08T04:25:26Z</time>
      </trkpt>
      <trkpt lat="44.8844" lon="5.27597">
        <ele>1343.1999511719</ele>
        <time>2019-07-08T04:25:31Z</time>
      </trkpt>
      <trkpt lat="44.88418" lon="5.27588">
        <ele>1343.1999511719</ele>
        <time>2019-07-08T04:25:38Z</time>
      </trkpt>
      <trkpt lat="44.88402" lon="5.27583">
        <ele>1343.1999511719</ele>
        <time>2019-07-08T04:25:44Z</time>
      </trkpt>
      <trkpt lat="44.88378" lon="5.27575">
        <ele>1343.1999511719</ele>
        <time>2019-07-08T04:25:53Z</time>
      </trkpt>
      <trkpt lat="44.88362" lon="5.2757">
        <ele>1343.1999511719</ele>
        <time>2019-07-08T04:25:59Z</time>
      </trkpt>
      <trkpt lat="44.88356" lon="5.27568">
        <ele>1343.5999755859</ele>
        <time>2019-07-08T04:26:02Z</time>
      </trkpt>
      <trkpt lat="44.88353" lon="5.27567">
        <ele>1344</ele>
        <time>2019-07-08T04:26:03Z</time>
      </trkpt>
      <trkpt lat="44.88351" lon="5.27567">
        <ele>1344.4000244141</ele>
        <time>2019-07-08T04:26:04Z</time>
      </trkpt>
      <trkpt lat="44.88348" lon="5.27566">
        <ele>1345</ele>
        <time>2019-07-08T04:26:05Z</time>
      </trkpt>
      <trkpt lat="44.88346" lon="5.27565">
        <ele>1345.4000244141</ele>
        <time>2019-07-08T04:26:06Z</time>
      </trkpt>
      <trkpt lat="44.88334" lon="5.27562">
        <ele>1345.4000244141</ele>
        <time>2019-07-08T04:26:11Z</time>
      </trkpt>
      <trkpt lat="44.88316" lon="5.27559">
        <ele>1345.4000244141</ele>
        <time>2019-07-08T04:26:19Z</time>
      </trkpt>
      <trkpt lat="44.88309" lon="5.27557">
        <ele>1345.4000244141</ele>
        <time>2019-07-08T04:26:23Z</time>
      </trkpt>
      <trkpt lat="44.88307" lon="5.27556">
        <ele>1345.4000244141</ele>
        <time>2019-07-08T04:26:24Z</time>
      </trkpt>
      <trkpt lat="44.883" lon="5.27555">
        <ele>1345.4000244141</ele>
        <time>2019-07-08T04:26:29Z</time>
      </trkpt>
      <trkpt lat="44.883" lon="5.27556">
        <ele>1345.4000244141</ele>
        <time>2019-07-08T04:26:39Z</time>
      </trkpt>
      <trkpt lat="44.88291" lon="5.27555">
        <ele>1345.4000244141</ele>
        <time>2019-07-08T04:26:44Z</time>
      </trkpt>
      <trkpt lat="44.88279" lon="5.27548">
        <ele>1345.4000244141</ele>
        <time>2019-07-08T04:26:49Z</time>
      </trkpt>
      <trkpt lat="44.88269" lon="5.27543">
        <ele>1345</ele>
        <time>2019-07-08T04:26:53Z</time>
      </trkpt>
      <trkpt lat="44.88266" lon="5.27541">
        <ele>1344.5999755859</ele>
        <time>2019-07-08T04:26:54Z</time>
      </trkpt>
      <trkpt lat="44.88264" lon="5.27538">
        <ele>1344</ele>
        <time>2019-07-08T04:26:55Z</time>
      </trkpt>
      <trkpt lat="44.88262" lon="5.27536">
        <ele>1343.5999755859</ele>
        <time>2019-07-08T04:26:56Z</time>
      </trkpt>
      <trkpt lat="44.88259" lon="5.27533">
        <ele>1343.1999511719</ele>
        <time>2019-07-08T04:26:57Z</time>
      </trkpt>
      <trkpt lat="44.88255" lon="5.27532">
        <ele>1343.1999511719</ele>
        <time>2019-07-08T04:26:58Z</time>
      </trkpt>
      <trkpt lat="44.88251" lon="5.27531">
        <ele>1342.8000488281</ele>
        <time>2019-07-08T04:26:59Z</time>
      </trkpt>
      <trkpt lat="44.88247" lon="5.27529">
        <ele>1342.4000244141</ele>
        <time>2019-07-08T04:27:00Z</time>
      </trkpt>
      <trkpt lat="44.88245" lon="5.27528">
        <ele>1342</ele>
        <time>2019-07-08T04:27:01Z</time>
      </trkpt>
      <trkpt lat="44.88242" lon="5.27525">
        <ele>1341.5999755859</ele>
        <time>2019-07-08T04:27:02Z</time>
      </trkpt>
      <trkpt lat="44.88239" lon="5.27523">
        <ele>1341.1999511719</ele>
        <time>2019-07-08T04:27:03Z</time>
      </trkpt>
      <trkpt lat="44.88231" lon="5.27519">
        <ele>1341.1999511719</ele>
        <time>2019-07-08T04:27:06Z</time>
      </trkpt>
      <trkpt lat="44.88226" lon="5.27516">
        <ele>1340.8000488281</ele>
        <time>2019-07-08T04:27:08Z</time>
      </trkpt>
      <trkpt lat="44.88223" lon="5.27514">
        <ele>1340.1999511719</ele>
        <time>2019-07-08T04:27:09Z</time>
      </trkpt>
      <trkpt lat="44.88218" lon="5.27513">
        <ele>1339.8000488281</ele>
        <time>2019-07-08T04:27:10Z</time>
      </trkpt>
      <trkpt lat="44.88214" lon="5.27512">
        <ele>1339.4000244141</ele>
        <time>2019-07-08T04:27:11Z</time>
      </trkpt>
      <trkpt lat="44.88209" lon="5.27511">
        <ele>1338.8000488281</ele>
        <time>2019-07-08T04:27:12Z</time>
      </trkpt>
      <trkpt lat="44.88205" lon="5.27511">
        <ele>1338.8000488281</ele>
        <time>2019-07-08T04:27:13Z</time>
      </trkpt>
      <trkpt lat="44.88201" lon="5.27512">
        <ele>1338.8000488281</ele>
        <time>2019-07-08T04:27:14Z</time>
      </trkpt>
      <trkpt lat="44.88194" lon="5.27511">
        <ele>1338.8000488281</ele>
        <time>2019-07-08T04:27:17Z</time>
      </trkpt>
      <trkpt lat="44.88192" lon="5.2751">
        <ele>1338.8000488281</ele>
        <time>2019-07-08T04:27:18Z</time>
      </trkpt>
      <trkpt lat="44.88188" lon="5.27509">
        <ele>1338.4000244141</ele>
        <time>2019-07-08T04:27:20Z</time>
      </trkpt>
      <trkpt lat="44.88186" lon="5.27507">
        <ele>1338</ele>
        <time>2019-07-08T04:27:21Z</time>
      </trkpt>
      <trkpt lat="44.88184" lon="5.27506">
        <ele>1337.5999755859</ele>
        <time>2019-07-08T04:27:22Z</time>
      </trkpt>
      <trkpt lat="44.88181" lon="5.27506">
        <ele>1337.1999511719</ele>
        <time>2019-07-08T04:27:23Z</time>
      </trkpt>
      <trkpt lat="44.88178" lon="5.27505">
        <ele>1336.8000488281</ele>
        <time>2019-07-08T04:27:24Z</time>
      </trkpt>
      <trkpt lat="44.88162" lon="5.27502">
        <ele>1336.8000488281</ele>
        <time>2019-07-08T04:27:31Z</time>
      </trkpt>
      <trkpt lat="44.88149" lon="5.275">
        <ele>1336.8000488281</ele>
        <time>2019-07-08T04:27:36Z</time>
      </trkpt>
      <trkpt lat="44.88124" lon="5.27498">
        <ele>1336.8000488281</ele>
        <time>2019-07-08T04:27:43Z</time>
      </trkpt>
      <trkpt lat="44.88116" lon="5.27499">
        <ele>1336.4000244141</ele>
        <time>2019-07-08T04:27:45Z</time>
      </trkpt>
      <trkpt lat="44.88111" lon="5.27499">
        <ele>1336</ele>
        <time>2019-07-08T04:27:46Z</time>
      </trkpt>
      <trkpt lat="44.88107" lon="5.27501">
        <ele>1335.5999755859</ele>
        <time>2019-07-08T04:27:47Z</time>
      </trkpt>
      <trkpt lat="44.88102" lon="5.27501">
        <ele>1335.1999511719</ele>
        <time>2019-07-08T04:27:48Z</time>
      </trkpt>
      <trkpt lat="44.88098" lon="5.27501">
        <ele>1334.5999755859</ele>
        <time>2019-07-08T04:27:49Z</time>
      </trkpt>
      <trkpt lat="44.88084" lon="5.27506">
        <ele>1334.5999755859</ele>
        <time>2019-07-08T04:27:52Z</time>
      </trkpt>
      <trkpt lat="44.88075" lon="5.27508">
        <ele>1334.5999755859</ele>
        <time>2019-07-08T04:27:54Z</time>
      </trkpt>
      <trkpt lat="44.88065" lon="5.2751">
        <ele>1334.1999511719</ele>
        <time>2019-07-08T04:27:56Z</time>
      </trkpt>
      <trkpt lat="44.8806" lon="5.2751">
        <ele>1333.8000488281</ele>
        <time>2019-07-08T04:27:57Z</time>
      </trkpt>
      <trkpt lat="44.88056" lon="5.27509">
        <ele>1333.4000244141</ele>
        <time>2019-07-08T04:27:58Z</time>
      </trkpt>
      <trkpt lat="44.88051" lon="5.27508">
        <ele>1332.8000488281</ele>
        <time>2019-07-08T04:27:59Z</time>
      </trkpt>
      <trkpt lat="44.88047" lon="5.27508">
        <ele>1332.4000244141</ele>
        <time>2019-07-08T04:28:00Z</time>
      </trkpt>
      <trkpt lat="44.88043" lon="5.27506">
        <ele>1332.4000244141</ele>
        <time>2019-07-08T04:28:01Z</time>
      </trkpt>
      <trkpt lat="44.88036" lon="5.27502">
        <ele>1332.4000244141</ele>
        <time>2019-07-08T04:28:03Z</time>
      </trkpt>
      <trkpt lat="44.88024" lon="5.27488">
        <ele>1332.4000244141</ele>
        <time>2019-07-08T04:28:08Z</time>
      </trkpt>
      <trkpt lat="44.88013" lon="5.27476">
        <ele>1332.4000244141</ele>
        <time>2019-07-08T04:28:13Z</time>
      </trkpt>
      <trkpt lat="44.88003" lon="5.27465">
        <ele>1332</ele>
        <time>2019-07-08T04:28:17Z</time>
      </trkpt>
      <trkpt lat="44.88" lon="5.27462">
        <ele>1331.5999755859</ele>
        <time>2019-07-08T04:28:18Z</time>
      </trkpt>
      <trkpt lat="44.87996" lon="5.2746">
        <ele>1331.1999511719</ele>
        <time>2019-07-08T04:28:19Z</time>
      </trkpt>
      <trkpt lat="44.87993" lon="5.27458">
        <ele>1330.8000488281</ele>
        <time>2019-07-08T04:28:20Z</time>
      </trkpt>
      <trkpt lat="44.8799" lon="5.27455">
        <ele>1330.4000244141</ele>
        <time>2019-07-08T04:28:21Z</time>
      </trkpt>
      <trkpt lat="44.87976" lon="5.27448">
        <ele>1330.4000244141</ele>
        <time>2019-07-08T04:28:26Z</time>
      </trkpt>
      <trkpt lat="44.87967" lon="5.27442">
        <ele>1330.4000244141</ele>
        <time>2019-07-08T04:28:30Z</time>
      </trkpt>
      <trkpt lat="44.87954" lon="5.27441">
        <ele>1330.4000244141</ele>
        <time>2019-07-08T04:28:36Z</time>
      </trkpt>
      <trkpt lat="44.87944" lon="5.2744">
        <ele>1330</ele>
        <time>2019-07-08T04:28:40Z</time>
      </trkpt>
      <trkpt lat="44.87941" lon="5.27439">
        <ele>1329.1999511719</ele>
        <time>2019-07-08T04:28:41Z</time>
      </trkpt>
      <trkpt lat="44.87939" lon="5.27437">
        <ele>1328.8000488281</ele>
        <time>2019-07-08T04:28:42Z</time>
      </trkpt>
      <trkpt lat="44.87937" lon="5.27438">
        <ele>1328.1999511719</ele>
        <time>2019-07-08T04:28:43Z</time>
      </trkpt>
      <trkpt lat="44.87929" lon="5.27434">
        <ele>1328.1999511719</ele>
        <time>2019-07-08T04:28:46Z</time>
      </trkpt>
      <trkpt lat="44.8792" lon="5.27428">
        <ele>1328.1999511719</ele>
        <time>2019-07-08T04:28:51Z</time>
      </trkpt>
      <trkpt lat="44.87913" lon="5.27423">
        <ele>1328.1999511719</ele>
        <time>2019-07-08T04:28:55Z</time>
      </trkpt>
      <trkpt lat="44.8791" lon="5.27422">
        <ele>1328.1999511719</ele>
        <time>2019-07-08T04:28:56Z</time>
      </trkpt>
      <trkpt lat="44.87899" lon="5.27411">
        <ele>1328.1999511719</ele>
        <time>2019-07-08T04:29:01Z</time>
      </trkpt>
      <trkpt lat="44.87885" lon="5.27394">
        <ele>1328.1999511719</ele>
        <time>2019-07-08T04:29:07Z</time>
      </trkpt>
      <trkpt lat="44.87872" lon="5.27379">
        <ele>1328.1999511719</ele>
        <time>2019-07-08T04:29:14Z</time>
      </trkpt>
      <trkpt lat="44.87863" lon="5.2737">
        <ele>1328.1999511719</ele>
        <time>2019-07-08T04:29:19Z</time>
      </trkpt>
      <trkpt lat="44.87851" lon="5.2736">
        <ele>1328.1999511719</ele>
        <time>2019-07-08T04:29:24Z</time>
      </trkpt>
      <trkpt lat="44.87837" lon="5.27351">
        <ele>1328.1999511719</ele>
        <time>2019-07-08T04:29:30Z</time>
      </trkpt>
      <trkpt lat="44.87824" lon="5.27343">
        <ele>1328.1999511719</ele>
        <time>2019-07-08T04:29:36Z</time>
      </trkpt>
      <trkpt lat="44.8781" lon="5.27332">
        <ele>1328.1999511719</ele>
        <time>2019-07-08T04:29:40Z</time>
      </trkpt>
      <trkpt lat="44.87803" lon="5.27323">
        <ele>1328.1999511719</ele>
        <time>2019-07-08T04:29:44Z</time>
      </trkpt>
      <trkpt lat="44.87795" lon="5.27316">
        <ele>1328.1999511719</ele>
        <time>2019-07-08T04:29:50Z</time>
      </trkpt>
      <trkpt lat="44.87794" lon="5.27315">
        <ele>1328.1999511719</ele>
        <time>2019-07-08T04:29:51Z</time>
      </trkpt>
      <trkpt lat="44.87785" lon="5.27309">
        <ele>1328.1999511719</ele>
        <time>2019-07-08T04:29:58Z</time>
      </trkpt>
      <trkpt lat="44.87784" lon="5.2731">
        <ele>1328.1999511719</ele>
        <time>2019-07-08T04:30:02Z</time>
      </trkpt>
      <trkpt lat="44.87783" lon="5.27309">
        <ele>1328.1999511719</ele>
        <time>2019-07-08T04:30:03Z</time>
      </trkpt>
      <trkpt lat="44.87783" lon="5.27309">
        <ele>1328.1999511719</ele>
        <time>2019-07-08T04:30:05Z</time>
      </trkpt>
      <trkpt lat="44.87778" lon="5.27304">
        <ele>1328.1999511719</ele>
        <time>2019-07-08T04:30:10Z</time>
      </trkpt>
      <trkpt lat="44.87777" lon="5.27304">
        <ele>1328.1999511719</ele>
        <time>2019-07-08T04:30:11Z</time>
      </trkpt>
      <trkpt lat="44.87771" lon="5.273">
        <ele>1328.1999511719</ele>
        <time>2019-07-08T04:30:16Z</time>
      </trkpt>
      <trkpt lat="44.8776" lon="5.27294">
        <ele>1328.1999511719</ele>
        <time>2019-07-08T04:30:22Z</time>
      </trkpt>
      <trkpt lat="44.87749" lon="5.27286">
        <ele>1328.1999511719</ele>
        <time>2019-07-08T04:30:28Z</time>
      </trkpt>
      <trkpt lat="44.87734" lon="5.27275">
        <ele>1328.1999511719</ele>
        <time>2019-07-08T04:30:35Z</time>
      </trkpt>
      <trkpt lat="44.87723" lon="5.27266">
        <ele>1328.1999511719</ele>
        <time>2019-07-08T04:30:41Z</time>
      </trkpt>
      <trkpt lat="44.87719" lon="5.27262">
        <ele>1328.1999511719</ele>
        <time>2019-07-08T04:30:43Z</time>
      </trkpt>
      <trkpt lat="44.87713" lon="5.27257">
        <ele>1328.1999511719</ele>
        <time>2019-07-08T04:30:46Z</time>
      </trkpt>
      <trkpt lat="44.87708" lon="5.27253">
        <ele>1328.1999511719</ele>
        <time>2019-07-08T04:30:51Z</time>
      </trkpt>
      <trkpt lat="44.87698" lon="5.27246">
        <ele>1328.1999511719</ele>
        <time>2019-07-08T04:30:56Z</time>
      </trkpt>
      <trkpt lat="44.87694" lon="5.27243">
        <ele>1328.8000488281</ele>
        <time>2019-07-08T04:30:58Z</time>
      </trkpt>
      <trkpt lat="44.87693" lon="5.27242">
        <ele>1329.1999511719</ele>
        <time>2019-07-08T04:30:59Z</time>
      </trkpt>
      <trkpt lat="44.87691" lon="5.2724">
        <ele>1329.5999755859</ele>
        <time>2019-07-08T04:31:00Z</time>
      </trkpt>
      <trkpt lat="44.87689" lon="5.27238">
        <ele>1330</ele>
        <time>2019-07-08T04:31:01Z</time>
      </trkpt>
      <trkpt lat="44.87687" lon="5.27237">
        <ele>1330.4000244141</ele>
        <time>2019-07-08T04:31:02Z</time>
      </trkpt>
      <trkpt lat="44.87675" lon="5.27228">
        <ele>1330.4000244141</ele>
        <time>2019-07-08T04:31:08Z</time>
      </trkpt>
      <trkpt lat="44.87672" lon="5.27224">
        <ele>1330.8000488281</ele>
        <time>2019-07-08T04:31:10Z</time>
      </trkpt>
      <trkpt lat="44.8767" lon="5.27223">
        <ele>1331.1999511719</ele>
        <time>2019-07-08T04:31:11Z</time>
      </trkpt>
      <trkpt lat="44.87668" lon="5.27222">
        <ele>1331.5999755859</ele>
        <time>2019-07-08T04:31:12Z</time>
      </trkpt>
      <trkpt lat="44.87666" lon="5.27221">
        <ele>1332</ele>
        <time>2019-07-08T04:31:13Z</time>
      </trkpt>
      <trkpt lat="44.87664" lon="5.2722">
        <ele>1332.4000244141</ele>
        <time>2019-07-08T04:31:14Z</time>
      </trkpt>
      <trkpt lat="44.87655" lon="5.27214">
        <ele>1332.4000244141</ele>
        <time>2019-07-08T04:31:20Z</time>
      </trkpt>
      <trkpt lat="44.87647" lon="5.27208">
        <ele>1332.4000244141</ele>
        <time>2019-07-08T04:31:25Z</time>
      </trkpt>
      <trkpt lat="44.87637" lon="5.27203">
        <ele>1332.4000244141</ele>
        <time>2019-07-08T04:31:30Z</time>
      </trkpt>
      <trkpt lat="44.8763" lon="5.27197">
        <ele>1332.4000244141</ele>
        <time>2019-07-08T04:31:34Z</time>
      </trkpt>
      <trkpt lat="44.87626" lon="5.27193">
        <ele>1332.4000244141</ele>
        <time>2019-07-08T04:31:36Z</time>
      </trkpt>
      <trkpt lat="44.87613" lon="5.27183">
        <ele>1332.4000244141</ele>
        <time>2019-07-08T04:31:43Z</time>
      </trkpt>
      <trkpt lat="44.87601" lon="5.27177">
        <ele>1332.4000244141</ele>
        <time>2019-07-08T04:31:47Z</time>
      </trkpt>
      <trkpt lat="44.87589" lon="5.27169">
        <ele>1332.4000244141</ele>
        <time>2019-07-08T04:31:52Z</time>
      </trkpt>
      <trkpt lat="44.87577" lon="5.2716">
        <ele>1332.4000244141</ele>
        <time>2019-07-08T04:31:58Z</time>
      </trkpt>
      <trkpt lat="44.87562" lon="5.27151">
        <ele>1332.4000244141</ele>
        <time>2019-07-08T04:32:05Z</time>
      </trkpt>
      <trkpt lat="44.8755" lon="5.27144">
        <ele>1332.4000244141</ele>
        <time>2019-07-08T04:32:10Z</time>
      </trkpt>
      <trkpt lat="44.87532" lon="5.27135">
        <ele>1332.4000244141</ele>
        <time>2019-07-08T04:32:17Z</time>
      </trkpt>
      <trkpt lat="44.87515" lon="5.27128">
        <ele>1332.4000244141</ele>
        <time>2019-07-08T04:32:23Z</time>
      </trkpt>
      <trkpt lat="44.87491" lon="5.2712">
        <ele>1332.4000244141</ele>
        <time>2019-07-08T04:32:31Z</time>
      </trkpt>
      <trkpt lat="44.8748" lon="5.27115">
        <ele>1332</ele>
        <time>2019-07-08T04:32:34Z</time>
      </trkpt>
      <trkpt lat="44.87475" lon="5.27112">
        <ele>1331.5999755859</ele>
        <time>2019-07-08T04:32:35Z</time>
      </trkpt>
      <trkpt lat="44.8747" lon="5.27109">
        <ele>1331.1999511719</ele>
        <time>2019-07-08T04:32:36Z</time>
      </trkpt>
      <trkpt lat="44.87465" lon="5.27105">
        <ele>1330.8000488281</ele>
        <time>2019-07-08T04:32:37Z</time>
      </trkpt>
      <trkpt lat="44.87459" lon="5.27102">
        <ele>1330.1999511719</ele>
        <time>2019-07-08T04:32:38Z</time>
      </trkpt>
      <trkpt lat="44.87449" lon="5.27094">
        <ele>1329.8000488281</ele>
        <time>2019-07-08T04:32:40Z</time>
      </trkpt>
      <trkpt lat="44.87444" lon="5.27089">
        <ele>1329.4000244141</ele>
        <time>2019-07-08T04:32:41Z</time>
      </trkpt>
      <trkpt lat="44.87441" lon="5.27084">
        <ele>1329</ele>
        <time>2019-07-08T04:32:42Z</time>
      </trkpt>
      <trkpt lat="44.87438" lon="5.27079">
        <ele>1328.5999755859</ele>
        <time>2019-07-08T04:32:43Z</time>
      </trkpt>
      <trkpt lat="44.87435" lon="5.27074">
        <ele>1328.1999511719</ele>
        <time>2019-07-08T04:32:44Z</time>
      </trkpt>
      <trkpt lat="44.87432" lon="5.2707">
        <ele>1328.1999511719</ele>
        <time>2019-07-08T04:32:45Z</time>
      </trkpt>
      <trkpt lat="44.87416" lon="5.2704">
        <ele>1328.1999511719</ele>
        <time>2019-07-08T04:32:52Z</time>
      </trkpt>
      <trkpt lat="44.87403" lon="5.27014">
        <ele>1328.1999511719</ele>
        <time>2019-07-08T04:32:58Z</time>
      </trkpt>
      <trkpt lat="44.87394" lon="5.26995">
        <ele>1328.1999511719</ele>
        <time>2019-07-08T04:33:03Z</time>
      </trkpt>
      <trkpt lat="44.87381" lon="5.26981">
        <ele>1328.1999511719</ele>
        <time>2019-07-08T04:33:08Z</time>
      </trkpt>
      <trkpt lat="44.87375" lon="5.26974">
        <ele>1327.8000488281</ele>
        <time>2019-07-08T04:33:10Z</time>
      </trkpt>
      <trkpt lat="44.87372" lon="5.26971">
        <ele>1327.1999511719</ele>
        <time>2019-07-08T04:33:11Z</time>
      </trkpt>
      <trkpt lat="44.87369" lon="5.26969">
        <ele>1326.8000488281</ele>
        <time>2019-07-08T04:33:12Z</time>
      </trkpt>
      <trkpt lat="44.87367" lon="5.26967">
        <ele>1326.4000244141</ele>
        <time>2019-07-08T04:33:13Z</time>
      </trkpt>
      <trkpt lat="44.87364" lon="5.26964">
        <ele>1326</ele>
        <time>2019-07-08T04:33:14Z</time>
      </trkpt>
      <trkpt lat="44.87355" lon="5.26956">
        <ele>1326</ele>
        <time>2019-07-08T04:33:18Z</time>
      </trkpt>
      <trkpt lat="44.8735" lon="5.26951">
        <ele>1326</ele>
        <time>2019-07-08T04:33:20Z</time>
      </trkpt>
      <trkpt lat="44.87349" lon="5.2695">
        <ele>1325.5999755859</ele>
        <time>2019-07-08T04:33:22Z</time>
      </trkpt>
      <trkpt lat="44.87349" lon="5.2695">
        <ele>1325.1999511719</ele>
        <time>2019-07-08T04:33:23Z</time>
      </trkpt>
      <trkpt lat="44.87349" lon="5.26951">
        <ele>1324.8000488281</ele>
        <time>2019-07-08T04:33:24Z</time>
      </trkpt>
      <trkpt lat="44.87349" lon="5.26951">
        <ele>1324.1999511719</ele>
        <time>2019-07-08T04:33:25Z</time>
      </trkpt>
      <trkpt lat="44.87349" lon="5.26951">
        <ele>1323.8000488281</ele>
        <time>2019-07-08T04:33:26Z</time>
      </trkpt>
      <trkpt lat="44.87349" lon="5.26951">
        <ele>1323.8000488281</ele>
        <time>2019-07-08T04:33:28Z</time>
      </trkpt>
      <trkpt lat="44.87349" lon="5.26951">
        <ele>1323.8000488281</ele>
        <time>2019-07-08T04:33:40Z</time>
      </trkpt>
      <trkpt lat="44.87349" lon="5.26951">
        <ele>1323.8000488281</ele>
        <time>2019-07-08T04:33:53Z</time>
      </trkpt>
      <trkpt lat="44.87349" lon="5.26951">
        <ele>1323.8000488281</ele>
        <time>2019-07-08T04:34:11Z</time>
      </trkpt>
      <trkpt lat="44.87349" lon="5.26951">
        <ele>1323.8000488281</ele>
        <time>2019-07-08T04:34:26Z</time>
      </trkpt>
      <trkpt lat="44.87349" lon="5.26951">
        <ele>1323.8000488281</ele>
        <time>2019-07-08T04:34:43Z</time>
      </trkpt>
      <trkpt lat="44.87348" lon="5.2695">
        <ele>1323.8000488281</ele>
        <time>2019-07-08T04:34:50Z</time>
      </trkpt>
      <trkpt lat="44.87344" lon="5.26945">
        <ele>1323.8000488281</ele>
        <time>2019-07-08T04:34:52Z</time>
      </trkpt>
      <trkpt lat="44.87333" lon="5.2693">
        <ele>1323.8000488281</ele>
        <time>2019-07-08T04:34:58Z</time>
      </trkpt>
      <trkpt lat="44.87325" lon="5.26913">
        <ele>1323.8000488281</ele>
        <time>2019-07-08T04:35:05Z</time>
      </trkpt>
      <trkpt lat="44.87323" lon="5.26903">
        <ele>1323.8000488281</ele>
        <time>2019-07-08T04:35:10Z</time>
      </trkpt>
      <trkpt lat="44.87322" lon="5.26898">
        <ele>1323.8000488281</ele>
        <time>2019-07-08T04:35:13Z</time>
      </trkpt>
      <trkpt lat="44.8732" lon="5.26893">
        <ele>1323.8000488281</ele>
        <time>2019-07-08T04:35:16Z</time>
      </trkpt>
      <trkpt lat="44.87318" lon="5.26874">
        <ele>1323.8000488281</ele>
        <time>2019-07-08T04:35:25Z</time>
      </trkpt>
      <trkpt lat="44.87317" lon="5.26858">
        <ele>1323.8000488281</ele>
        <time>2019-07-08T04:35:31Z</time>
      </trkpt>
      <trkpt lat="44.87314" lon="5.26839">
        <ele>1323.8000488281</ele>
        <time>2019-07-08T04:35:38Z</time>
      </trkpt>
      <trkpt lat="44.8731" lon="5.2683">
        <ele>1323.8000488281</ele>
        <time>2019-07-08T04:35:43Z</time>
      </trkpt>
      <trkpt lat="44.87306" lon="5.26818">
        <ele>1323.8000488281</ele>
        <time>2019-07-08T04:35:49Z</time>
      </trkpt>
      <trkpt lat="44.87305" lon="5.26814">
        <ele>1323.8000488281</ele>
        <time>2019-07-08T04:35:52Z</time>
      </trkpt>
      <trkpt lat="44.87304" lon="5.26814">
        <ele>1323.8000488281</ele>
        <time>2019-07-08T04:35:54Z</time>
      </trkpt>
      <trkpt lat="44.87304" lon="5.26813">
        <ele>1323.8000488281</ele>
        <time>2019-07-08T04:36:06Z</time>
      </trkpt>
      <trkpt lat="44.87304" lon="5.26811">
        <ele>1323.8000488281</ele>
        <time>2019-07-08T04:36:07Z</time>
      </trkpt>
      <trkpt lat="44.87301" lon="5.26807">
        <ele>1323.8000488281</ele>
        <time>2019-07-08T04:36:10Z</time>
      </trkpt>
      <trkpt lat="44.873" lon="5.26804">
        <ele>1323.8000488281</ele>
        <time>2019-07-08T04:36:11Z</time>
      </trkpt>
      <trkpt lat="44.87298" lon="5.26795">
        <ele>1323.8000488281</ele>
        <time>2019-07-08T04:36:17Z</time>
      </trkpt>
      <trkpt lat="44.87297" lon="5.26795">
        <ele>1323.8000488281</ele>
        <time>2019-07-08T04:36:22Z</time>
      </trkpt>
      <trkpt lat="44.87301" lon="5.26787">
        <ele>1323.8000488281</ele>
        <time>2019-07-08T04:36:26Z</time>
      </trkpt>
      <trkpt lat="44.87308" lon="5.26781">
        <ele>1323.8000488281</ele>
        <time>2019-07-08T04:36:31Z</time>
      </trkpt>
      <trkpt lat="44.87311" lon="5.26776">
        <ele>1323.8000488281</ele>
        <time>2019-07-08T04:36:33Z</time>
      </trkpt>
      <trkpt lat="44.87312" lon="5.2677">
        <ele>1323.8000488281</ele>
        <time>2019-07-08T04:36:35Z</time>
      </trkpt>
      <trkpt lat="44.87313" lon="5.26766">
        <ele>1323.4000244141</ele>
        <time>2019-07-08T04:36:36Z</time>
      </trkpt>
      <trkpt lat="44.87313" lon="5.26763">
        <ele>1323</ele>
        <time>2019-07-08T04:36:37Z</time>
      </trkpt>
      <trkpt lat="44.87313" lon="5.26761">
        <ele>1322.5999755859</ele>
        <time>2019-07-08T04:36:38Z</time>
      </trkpt>
      <trkpt lat="44.87313" lon="5.26759">
        <ele>1322.1999511719</ele>
        <time>2019-07-08T04:36:39Z</time>
      </trkpt>
      <trkpt lat="44.87313" lon="5.26756">
        <ele>1321.8000488281</ele>
        <time>2019-07-08T04:36:40Z</time>
      </trkpt>
      <trkpt lat="44.87314" lon="5.26753">
        <ele>1321.8000488281</ele>
        <time>2019-07-08T04:36:41Z</time>
      </trkpt>
      <trkpt lat="44.87317" lon="5.26739">
        <ele>1321.8000488281</ele>
        <time>2019-07-08T04:36:47Z</time>
      </trkpt>
      <trkpt lat="44.87317" lon="5.26727">
        <ele>1321.8000488281</ele>
        <time>2019-07-08T04:36:53Z</time>
      </trkpt>
      <trkpt lat="44.87318" lon="5.26718">
        <ele>1321.8000488281</ele>
        <time>2019-07-08T04:36:58Z</time>
      </trkpt>
      <trkpt lat="44.87318" lon="5.26714">
        <ele>1321.8000488281</ele>
        <time>2019-07-08T04:37:02Z</time>
      </trkpt>
      <trkpt lat="44.87321" lon="5.26709">
        <ele>1321.8000488281</ele>
        <time>2019-07-08T04:37:07Z</time>
      </trkpt>
      <trkpt lat="44.87322" lon="5.26699">
        <ele>1321.8000488281</ele>
        <time>2019-07-08T04:37:14Z</time>
      </trkpt>
      <trkpt lat="44.87325" lon="5.26691">
        <ele>1322.1999511719</ele>
        <time>2019-07-08T04:37:20Z</time>
      </trkpt>
      <trkpt lat="44.87325" lon="5.2669">
        <ele>1322.5999755859</ele>
        <time>2019-07-08T04:37:21Z</time>
      </trkpt>
      <trkpt lat="44.87326" lon="5.26689">
        <ele>1323</ele>
        <time>2019-07-08T04:37:22Z</time>
      </trkpt>
      <trkpt lat="44.87327" lon="5.26688">
        <ele>1323.4000244141</ele>
        <time>2019-07-08T04:37:23Z</time>
      </trkpt>
      <trkpt lat="44.87327" lon="5.26687">
        <ele>1323.8000488281</ele>
        <time>2019-07-08T04:37:24Z</time>
      </trkpt>
      <trkpt lat="44.87328" lon="5.26686">
        <ele>1323.8000488281</ele>
        <time>2019-07-08T04:37:25Z</time>
      </trkpt>
      <trkpt lat="44.87329" lon="5.26684">
        <ele>1323.8000488281</ele>
        <time>2019-07-08T04:37:27Z</time>
      </trkpt>
      <trkpt lat="44.87329" lon="5.26682">
        <ele>1323.8000488281</ele>
        <time>2019-07-08T04:37:28Z</time>
      </trkpt>
      <trkpt lat="44.87331" lon="5.26674">
        <ele>1323.8000488281</ele>
        <time>2019-07-08T04:37:36Z</time>
      </trkpt>
      <trkpt lat="44.87331" lon="5.26671">
        <ele>1324.1999511719</ele>
        <time>2019-07-08T04:37:38Z</time>
      </trkpt>
      <trkpt lat="44.87331" lon="5.2667">
        <ele>1324.5999755859</ele>
        <time>2019-07-08T04:37:39Z</time>
      </trkpt>
      <trkpt lat="44.87331" lon="5.26669">
        <ele>1325</ele>
        <time>2019-07-08T04:37:40Z</time>
      </trkpt>
      <trkpt lat="44.8733" lon="5.26668">
        <ele>1325.4000244141</ele>
        <time>2019-07-08T04:37:41Z</time>
      </trkpt>
      <trkpt lat="44.8733" lon="5.26667">
        <ele>1326</ele>
        <time>2019-07-08T04:37:42Z</time>
      </trkpt>
      <trkpt lat="44.87329" lon="5.26666">
        <ele>1326</ele>
        <time>2019-07-08T04:37:43Z</time>
      </trkpt>
      <trkpt lat="44.87329" lon="5.26665">
        <ele>1326</ele>
        <time>2019-07-08T04:37:44Z</time>
      </trkpt>
      <trkpt lat="44.87327" lon="5.26659">
        <ele>1326</ele>
        <time>2019-07-08T04:37:50Z</time>
      </trkpt>
      <trkpt lat="44.87328" lon="5.26655">
        <ele>1326.4000244141</ele>
        <time>2019-07-08T04:37:54Z</time>
      </trkpt>
      <trkpt lat="44.87328" lon="5.26654">
        <ele>1326.8000488281</ele>
        <time>2019-07-08T04:37:55Z</time>
      </trkpt>
      <trkpt lat="44.87327" lon="5.26653">
        <ele>1327.1999511719</ele>
        <time>2019-07-08T04:37:56Z</time>
      </trkpt>
      <trkpt lat="44.87327" lon="5.26652">
        <ele>1327.5999755859</ele>
        <time>2019-07-08T04:37:57Z</time>
      </trkpt>
      <trkpt lat="44.87327" lon="5.26651">
        <ele>1328</ele>
        <time>2019-07-08T04:37:58Z</time>
      </trkpt>
      <trkpt lat="44.87327" lon="5.2665">
        <ele>1328</ele>
        <time>2019-07-08T04:38:04Z</time>
      </trkpt>
      <trkpt lat="44.87327" lon="5.26649">
        <ele>1328</ele>
        <time>2019-07-08T04:38:18Z</time>
      </trkpt>
      <trkpt lat="44.87328" lon="5.26641">
        <ele>1328.4000244141</ele>
        <time>2019-07-08T04:38:24Z</time>
      </trkpt>
      <trkpt lat="44.87328" lon="5.2664">
        <ele>1328.8000488281</ele>
        <time>2019-07-08T04:38:25Z</time>
      </trkpt>
      <trkpt lat="44.87327" lon="5.26638">
        <ele>1329.1999511719</ele>
        <time>2019-07-08T04:38:26Z</time>
      </trkpt>
      <trkpt lat="44.87328" lon="5.26637">
        <ele>1329.5999755859</ele>
        <time>2019-07-08T04:38:27Z</time>
      </trkpt>
      <trkpt lat="44.87328" lon="5.26636">
        <ele>1330</ele>
        <time>2019-07-08T04:38:28Z</time>
      </trkpt>
      <trkpt lat="44.87329" lon="5.2663">
        <ele>1330</ele>
        <time>2019-07-08T04:38:34Z</time>
      </trkpt>
      <trkpt lat="44.87329" lon="5.26628">
        <ele>1330.4000244141</ele>
        <time>2019-07-08T04:38:36Z</time>
      </trkpt>
      <trkpt lat="44.87329" lon="5.26627">
        <ele>1330.8000488281</ele>
        <time>2019-07-08T04:38:37Z</time>
      </trkpt>
      <trkpt lat="44.87329" lon="5.26626">
        <ele>1331.1999511719</ele>
        <time>2019-07-08T04:38:38Z</time>
      </trkpt>
      <trkpt lat="44.87329" lon="5.26624">
        <ele>1331.5999755859</ele>
        <time>2019-07-08T04:38:39Z</time>
      </trkpt>
      <trkpt lat="44.8733" lon="5.26623">
        <ele>1332</ele>
        <time>2019-07-08T04:38:40Z</time>
      </trkpt>
      <trkpt lat="44.8733" lon="5.26622">
        <ele>1332</ele>
        <time>2019-07-08T04:38:41Z</time>
      </trkpt>
      <trkpt lat="44.87332" lon="5.26614">
        <ele>1332</ele>
        <time>2019-07-08T04:38:49Z</time>
      </trkpt>
      <trkpt lat="44.87333" lon="5.26613">
        <ele>1332.4000244141</ele>
        <time>2019-07-08T04:38:50Z</time>
      </trkpt>
      <trkpt lat="44.87333" lon="5.26611">
        <ele>1333</ele>
        <time>2019-07-08T04:38:51Z</time>
      </trkpt>
      <trkpt lat="44.87333" lon="5.2661">
        <ele>1333.4000244141</ele>
        <time>2019-07-08T04:38:52Z</time>
      </trkpt>
      <trkpt lat="44.87334" lon="5.26609">
        <ele>1333.8000488281</ele>
        <time>2019-07-08T04:38:53Z</time>
      </trkpt>
      <trkpt lat="44.87334" lon="5.26608">
        <ele>1334.1999511719</ele>
        <time>2019-07-08T04:38:54Z</time>
      </trkpt>
      <trkpt lat="44.87334" lon="5.26606">
        <ele>1334.1999511719</ele>
        <time>2019-07-08T04:38:56Z</time>
      </trkpt>
      <trkpt lat="44.87334" lon="5.26599">
        <ele>1334.1999511719</ele>
        <time>2019-07-08T04:39:03Z</time>
      </trkpt>
      <trkpt lat="44.87334" lon="5.26595">
        <ele>1334.5999755859</ele>
        <time>2019-07-08T04:39:07Z</time>
      </trkpt>
      <trkpt lat="44.87334" lon="5.26593">
        <ele>1335</ele>
        <time>2019-07-08T04:39:08Z</time>
      </trkpt>
      <trkpt lat="44.87334" lon="5.26593">
        <ele>1335.4000244141</ele>
        <time>2019-07-08T04:39:09Z</time>
      </trkpt>
      <trkpt lat="44.87333" lon="5.26592">
        <ele>1335.8000488281</ele>
        <time>2019-07-08T04:39:10Z</time>
      </trkpt>
      <trkpt lat="44.87334" lon="5.26591">
        <ele>1336.4000244141</ele>
        <time>2019-07-08T04:39:11Z</time>
      </trkpt>
      <trkpt lat="44.87333" lon="5.26584">
        <ele>1336.4000244141</ele>
        <time>2019-07-08T04:39:18Z</time>
      </trkpt>
      <trkpt lat="44.87332" lon="5.2658">
        <ele>1336.8000488281</ele>
        <time>2019-07-08T04:39:22Z</time>
      </trkpt>
      <trkpt lat="44.87332" lon="5.2658">
        <ele>1337.1999511719</ele>
        <time>2019-07-08T04:39:23Z</time>
      </trkpt>
      <trkpt lat="44.87332" lon="5.26579">
        <ele>1337.5999755859</ele>
        <time>2019-07-08T04:39:24Z</time>
      </trkpt>
      <trkpt lat="44.87332" lon="5.26578">
        <ele>1338</ele>
        <time>2019-07-08T04:39:25Z</time>
      </trkpt>
      <trkpt lat="44.87331" lon="5.26577">
        <ele>1338.4000244141</ele>
        <time>2019-07-08T04:39:26Z</time>
      </trkpt>
      <trkpt lat="44.87331" lon="5.26573">
        <ele>1338.8000488281</ele>
        <time>2019-07-08T04:39:33Z</time>
      </trkpt>
      <trkpt lat="44.87331" lon="5.26573">
        <ele>1339.1999511719</ele>
        <time>2019-07-08T04:39:34Z</time>
      </trkpt>
      <trkpt lat="44.8733" lon="5.26571">
        <ele>1339.5999755859</ele>
        <time>2019-07-08T04:39:35Z</time>
      </trkpt>
      <trkpt lat="44.8733" lon="5.2657">
        <ele>1340.4000244141</ele>
        <time>2019-07-08T04:39:36Z</time>
      </trkpt>
      <trkpt lat="44.87329" lon="5.26565">
        <ele>1340.8000488281</ele>
        <time>2019-07-08T04:39:42Z</time>
      </trkpt>
      <trkpt lat="44.87329" lon="5.26565">
        <ele>1341.1999511719</ele>
        <time>2019-07-08T04:39:43Z</time>
      </trkpt>
      <trkpt lat="44.87329" lon="5.26564">
        <ele>1341.5999755859</ele>
        <time>2019-07-08T04:39:44Z</time>
      </trkpt>
      <trkpt lat="44.87329" lon="5.26563">
        <ele>1342</ele>
        <time>2019-07-08T04:39:45Z</time>
      </trkpt>
      <trkpt lat="44.87329" lon="5.26562">
        <ele>1342.4000244141</ele>
        <time>2019-07-08T04:39:46Z</time>
      </trkpt>
      <trkpt lat="44.87328" lon="5.26558">
        <ele>1342.4000244141</ele>
        <time>2019-07-08T04:39:50Z</time>
      </trkpt>
      <trkpt lat="44.87326" lon="5.26552">
        <ele>1342.4000244141</ele>
        <time>2019-07-08T04:39:57Z</time>
      </trkpt>
      <trkpt lat="44.87325" lon="5.26551">
        <ele>1342.8000488281</ele>
        <time>2019-07-08T04:39:58Z</time>
      </trkpt>
      <trkpt lat="44.87325" lon="5.2655">
        <ele>1343.1999511719</ele>
        <time>2019-07-08T04:39:59Z</time>
      </trkpt>
      <trkpt lat="44.87325" lon="5.26549">
        <ele>1343.8000488281</ele>
        <time>2019-07-08T04:40:00Z</time>
      </trkpt>
      <trkpt lat="44.87325" lon="5.26548">
        <ele>1344.5999755859</ele>
        <time>2019-07-08T04:40:01Z</time>
      </trkpt>
      <trkpt lat="44.87324" lon="5.26545">
        <ele>1344.5999755859</ele>
        <time>2019-07-08T04:40:04Z</time>
      </trkpt>
      <trkpt lat="44.87323" lon="5.26538">
        <ele>1344.5999755859</ele>
        <time>2019-07-08T04:40:10Z</time>
      </trkpt>
      <trkpt lat="44.8732" lon="5.2653">
        <ele>1345</ele>
        <time>2019-07-08T04:40:17Z</time>
      </trkpt>
      <trkpt lat="44.87319" lon="5.26528">
        <ele>1345.4000244141</ele>
        <time>2019-07-08T04:40:18Z</time>
      </trkpt>
      <trkpt lat="44.87318" lon="5.26528">
        <ele>1345.8000488281</ele>
        <time>2019-07-08T04:40:19Z</time>
      </trkpt>
      <trkpt lat="44.87318" lon="5.26526">
        <ele>1346.1999511719</ele>
        <time>2019-07-08T04:40:20Z</time>
      </trkpt>
      <trkpt lat="44.87317" lon="5.26525">
        <ele>1346.5999755859</ele>
        <time>2019-07-08T04:40:21Z</time>
      </trkpt>
      <trkpt lat="44.87314" lon="5.2652">
        <ele>1346.5999755859</ele>
        <time>2019-07-08T04:40:26Z</time>
      </trkpt>
      <trkpt lat="44.87313" lon="5.26518">
        <ele>1346.5999755859</ele>
        <time>2019-07-08T04:40:29Z</time>
      </trkpt>
      <trkpt lat="44.87311" lon="5.26514">
        <ele>1346.5999755859</ele>
        <time>2019-07-08T04:40:33Z</time>
      </trkpt>
      <trkpt lat="44.8731" lon="5.26513">
        <ele>1346.5999755859</ele>
        <time>2019-07-08T04:40:34Z</time>
      </trkpt>
      <trkpt lat="44.87308" lon="5.26507">
        <ele>1347</ele>
        <time>2019-07-08T04:40:39Z</time>
      </trkpt>
      <trkpt lat="44.87307" lon="5.26506">
        <ele>1347.4000244141</ele>
        <time>2019-07-08T04:40:40Z</time>
      </trkpt>
      <trkpt lat="44.87306" lon="5.26506">
        <ele>1347.8000488281</ele>
        <time>2019-07-08T04:40:41Z</time>
      </trkpt>
      <trkpt lat="44.87306" lon="5.26505">
        <ele>1348.1999511719</ele>
        <time>2019-07-08T04:40:42Z</time>
      </trkpt>
      <trkpt lat="44.87305" lon="5.26504">
        <ele>1348.5999755859</ele>
        <time>2019-07-08T04:40:43Z</time>
      </trkpt>
      <trkpt lat="44.87303" lon="5.26499">
        <ele>1348.5999755859</ele>
        <time>2019-07-08T04:40:48Z</time>
      </trkpt>
      <trkpt lat="44.87302" lon="5.26497">
        <ele>1348.5999755859</ele>
        <time>2019-07-08T04:40:50Z</time>
      </trkpt>
      <trkpt lat="44.87299" lon="5.26488">
        <ele>1349</ele>
        <time>2019-07-08T04:40:57Z</time>
      </trkpt>
      <trkpt lat="44.87298" lon="5.26487">
        <ele>1349.4000244141</ele>
        <time>2019-07-08T04:40:58Z</time>
      </trkpt>
      <trkpt lat="44.87298" lon="5.26486">
        <ele>1349.8000488281</ele>
        <time>2019-07-08T04:40:59Z</time>
      </trkpt>
      <trkpt lat="44.87297" lon="5.26486">
        <ele>1350.1999511719</ele>
        <time>2019-07-08T04:41:00Z</time>
      </trkpt>
      <trkpt lat="44.87297" lon="5.26487">
        <ele>1350.5999755859</ele>
        <time>2019-07-08T04:41:01Z</time>
      </trkpt>
      <trkpt lat="44.87297" lon="5.26487">
        <ele>1350.5999755859</ele>
        <time>2019-07-08T04:41:03Z</time>
      </trkpt>
      <trkpt lat="44.87297" lon="5.26487">
        <ele>1350.5999755859</ele>
        <time>2019-07-08T04:41:19Z</time>
      </trkpt>
      <trkpt lat="44.87297" lon="5.26487">
        <ele>1350.5999755859</ele>
        <time>2019-07-08T04:41:33Z</time>
      </trkpt>
      <trkpt lat="44.87297" lon="5.26487">
        <ele>1350.5999755859</ele>
        <time>2019-07-08T04:41:48Z</time>
      </trkpt>
      <trkpt lat="44.87297" lon="5.26487">
        <ele>1350.5999755859</ele>
        <time>2019-07-08T04:42:00Z</time>
      </trkpt>
      <trkpt lat="44.87297" lon="5.26486">
        <ele>1350.5999755859</ele>
        <time>2019-07-08T04:42:21Z</time>
      </trkpt>
      <trkpt lat="44.87297" lon="5.26486">
        <ele>1350.5999755859</ele>
        <time>2019-07-08T04:42:42Z</time>
      </trkpt>
      <trkpt lat="44.87295" lon="5.26483">
        <ele>1350.5999755859</ele>
        <time>2019-07-08T04:42:54Z</time>
      </trkpt>
      <trkpt lat="44.87293" lon="5.2648">
        <ele>1350.5999755859</ele>
        <time>2019-07-08T04:42:59Z</time>
      </trkpt>
      <trkpt lat="44.87285" lon="5.26467">
        <ele>1350.5999755859</ele>
        <time>2019-07-08T04:43:08Z</time>
      </trkpt>
      <trkpt lat="44.87279" lon="5.26456">
        <ele>1351.1999511719</ele>
        <time>2019-07-08T04:43:15Z</time>
      </trkpt>
      <trkpt lat="44.87278" lon="5.26455">
        <ele>1351.5999755859</ele>
        <time>2019-07-08T04:43:16Z</time>
      </trkpt>
      <trkpt lat="44.87277" lon="5.26453">
        <ele>1352</ele>
        <time>2019-07-08T04:43:17Z</time>
      </trkpt>
      <trkpt lat="44.87276" lon="5.26452">
        <ele>1352.4000244141</ele>
        <time>2019-07-08T04:43:18Z</time>
      </trkpt>
      <trkpt lat="44.87275" lon="5.2645">
        <ele>1352.8000488281</ele>
        <time>2019-07-08T04:43:19Z</time>
      </trkpt>
      <trkpt lat="44.87271" lon="5.26442">
        <ele>1352.8000488281</ele>
        <time>2019-07-08T04:43:24Z</time>
      </trkpt>
      <trkpt lat="44.87265" lon="5.26428">
        <ele>1352.8000488281</ele>
        <time>2019-07-08T04:43:33Z</time>
      </trkpt>
      <trkpt lat="44.8726" lon="5.26419">
        <ele>1353.1999511719</ele>
        <time>2019-07-08T04:43:39Z</time>
      </trkpt>
      <trkpt lat="44.8726" lon="5.26417">
        <ele>1353.5999755859</ele>
        <time>2019-07-08T04:43:40Z</time>
      </trkpt>
      <trkpt lat="44.87259" lon="5.26416">
        <ele>1354</ele>
        <time>2019-07-08T04:43:41Z</time>
      </trkpt>
      <trkpt lat="44.87258" lon="5.26414">
        <ele>1354.4000244141</ele>
        <time>2019-07-08T04:43:42Z</time>
      </trkpt>
      <trkpt lat="44.87257" lon="5.26412">
        <ele>1354.8000488281</ele>
        <time>2019-07-08T04:43:43Z</time>
      </trkpt>
      <trkpt lat="44.87252" lon="5.26401">
        <ele>1354.8000488281</ele>
        <time>2019-07-08T04:43:50Z</time>
      </trkpt>
      <trkpt lat="44.8725" lon="5.26395">
        <ele>1355.1999511719</ele>
        <time>2019-07-08T04:43:54Z</time>
      </trkpt>
      <trkpt lat="44.87249" lon="5.26393">
        <ele>1355.5999755859</ele>
        <time>2019-07-08T04:43:55Z</time>
      </trkpt>
      <trkpt lat="44.87249" lon="5.26392">
        <ele>1356</ele>
        <time>2019-07-08T04:43:56Z</time>
      </trkpt>
      <trkpt lat="44.87248" lon="5.2639">
        <ele>1356.4000244141</ele>
        <time>2019-07-08T04:43:57Z</time>
      </trkpt>
      <trkpt lat="44.87248" lon="5.26388">
        <ele>1356.8000488281</ele>
        <time>2019-07-08T04:43:58Z</time>
      </trkpt>
      <trkpt lat="44.87247" lon="5.26385">
        <ele>1356.8000488281</ele>
        <time>2019-07-08T04:44:00Z</time>
      </trkpt>
      <trkpt lat="44.87246" lon="5.26378">
        <ele>1357.4000244141</ele>
        <time>2019-07-08T04:44:04Z</time>
      </trkpt>
      <trkpt lat="44.87246" lon="5.26376">
        <ele>1357.8000488281</ele>
        <time>2019-07-08T04:44:05Z</time>
      </trkpt>
      <trkpt lat="44.87246" lon="5.26375">
        <ele>1358.1999511719</ele>
        <time>2019-07-08T04:44:06Z</time>
      </trkpt>
      <trkpt lat="44.87247" lon="5.26373">
        <ele>1358.5999755859</ele>
        <time>2019-07-08T04:44:07Z</time>
      </trkpt>
      <trkpt lat="44.87247" lon="5.26371">
        <ele>1359</ele>
        <time>2019-07-08T04:44:08Z</time>
      </trkpt>
      <trkpt lat="44.87247" lon="5.2637">
        <ele>1359</ele>
        <time>2019-07-08T04:44:09Z</time>
      </trkpt>
      <trkpt lat="44.87245" lon="5.26364">
        <ele>1359</ele>
        <time>2019-07-08T04:44:13Z</time>
      </trkpt>
      <trkpt lat="44.87243" lon="5.26362">
        <ele>1359</ele>
        <time>2019-07-08T04:44:15Z</time>
      </trkpt>
      <trkpt lat="44.87241" lon="5.2636">
        <ele>1359.4000244141</ele>
        <time>2019-07-08T04:44:17Z</time>
      </trkpt>
      <trkpt lat="44.87239" lon="5.2636">
        <ele>1359.8000488281</ele>
        <time>2019-07-08T04:44:18Z</time>
      </trkpt>
      <trkpt lat="44.87238" lon="5.26359">
        <ele>1360.1999511719</ele>
        <time>2019-07-08T04:44:19Z</time>
      </trkpt>
      <trkpt lat="44.87238" lon="5.26358">
        <ele>1360.5999755859</ele>
        <time>2019-07-08T04:44:20Z</time>
      </trkpt>
      <trkpt lat="44.87237" lon="5.26358">
        <ele>1361.1999511719</ele>
        <time>2019-07-08T04:44:21Z</time>
      </trkpt>
      <trkpt lat="44.8723" lon="5.26353">
        <ele>1361.1999511719</ele>
        <time>2019-07-08T04:44:27Z</time>
      </trkpt>
      <trkpt lat="44.87229" lon="5.26352">
        <ele>1361.1999511719</ele>
        <time>2019-07-08T04:44:28Z</time>
      </trkpt>
      <trkpt lat="44.87227" lon="5.26346">
        <ele>1361.1999511719</ele>
        <time>2019-07-08T04:44:33Z</time>
      </trkpt>
      <trkpt lat="44.87226" lon="5.26344">
        <ele>1361.5999755859</ele>
        <time>2019-07-08T04:44:34Z</time>
      </trkpt>
      <trkpt lat="44.87226" lon="5.26343">
        <ele>1362</ele>
        <time>2019-07-08T04:44:35Z</time>
      </trkpt>
      <trkpt lat="44.87225" lon="5.26341">
        <ele>1362.4000244141</ele>
        <time>2019-07-08T04:44:36Z</time>
      </trkpt>
      <trkpt lat="44.87225" lon="5.2634">
        <ele>1362.8000488281</ele>
        <time>2019-07-08T04:44:37Z</time>
      </trkpt>
      <trkpt lat="44.87225" lon="5.26339">
        <ele>1363.1999511719</ele>
        <time>2019-07-08T04:44:38Z</time>
      </trkpt>
      <trkpt lat="44.87223" lon="5.26336">
        <ele>1363.1999511719</ele>
        <time>2019-07-08T04:44:40Z</time>
      </trkpt>
      <trkpt lat="44.87222" lon="5.26334">
        <ele>1363.1999511719</ele>
        <time>2019-07-08T04:44:42Z</time>
      </trkpt>
      <trkpt lat="44.87221" lon="5.26329">
        <ele>1363.1999511719</ele>
        <time>2019-07-08T04:44:46Z</time>
      </trkpt>
      <trkpt lat="44.87217" lon="5.26327">
        <ele>1363.1999511719</ele>
        <time>2019-07-08T04:44:50Z</time>
      </trkpt>
      <trkpt lat="44.87215" lon="5.26328">
        <ele>1363.1999511719</ele>
        <time>2019-07-08T04:44:52Z</time>
      </trkpt>
      <trkpt lat="44.87215" lon="5.26327">
        <ele>1363.1999511719</ele>
        <time>2019-07-08T04:44:59Z</time>
      </trkpt>
      <trkpt lat="44.87215" lon="5.26327">
        <ele>1363.1999511719</ele>
        <time>2019-07-08T04:45:14Z</time>
      </trkpt>
      <trkpt lat="44.87215" lon="5.26327">
        <ele>1363.1999511719</ele>
        <time>2019-07-08T04:45:28Z</time>
      </trkpt>
      <trkpt lat="44.87215" lon="5.26327">
        <ele>1363.1999511719</ele>
        <time>2019-07-08T04:45:47Z</time>
      </trkpt>
      <trkpt lat="44.87215" lon="5.26327">
        <ele>1363.1999511719</ele>
        <time>2019-07-08T04:46:07Z</time>
      </trkpt>
      <trkpt lat="44.87215" lon="5.26327">
        <ele>1363.1999511719</ele>
        <time>2019-07-08T04:46:24Z</time>
      </trkpt>
      <trkpt lat="44.87215" lon="5.26327">
        <ele>1363.1999511719</ele>
        <time>2019-07-08T04:46:44Z</time>
      </trkpt>
      <trkpt lat="44.87215" lon="5.26327">
        <ele>1363.1999511719</ele>
        <time>2019-07-08T04:47:06Z</time>
      </trkpt>
      <trkpt lat="44.87215" lon="5.26327">
        <ele>1363.1999511719</ele>
        <time>2019-07-08T04:47:27Z</time>
      </trkpt>
      <trkpt lat="44.87215" lon="5.26327">
        <ele>1363.1999511719</ele>
        <time>2019-07-08T04:47:30Z</time>
      </trkpt>
      <trkpt lat="44.87213" lon="5.26326">
        <ele>1363.1999511719</ele>
        <time>2019-07-08T04:47:31Z</time>
      </trkpt>
      <trkpt lat="44.8721" lon="5.26326">
        <ele>1363.1999511719</ele>
        <time>2019-07-08T04:47:34Z</time>
      </trkpt>
      <trkpt lat="44.87206" lon="5.26325">
        <ele>1363.1999511719</ele>
        <time>2019-07-08T04:47:37Z</time>
      </trkpt>
      <trkpt lat="44.87204" lon="5.26325">
        <ele>1363.1999511719</ele>
        <time>2019-07-08T04:47:39Z</time>
      </trkpt>
      <trkpt lat="44.872" lon="5.26323">
        <ele>1363.1999511719</ele>
        <time>2019-07-08T04:47:42Z</time>
      </trkpt>
      <trkpt lat="44.87196" lon="5.26323">
        <ele>1363.1999511719</ele>
        <time>2019-07-08T04:47:45Z</time>
      </trkpt>
      <trkpt lat="44.87191" lon="5.26323">
        <ele>1363.1999511719</ele>
        <time>2019-07-08T04:47:48Z</time>
      </trkpt>
      <trkpt lat="44.87184" lon="5.26317">
        <ele>1363.1999511719</ele>
        <time>2019-07-08T04:47:54Z</time>
      </trkpt>
      <trkpt lat="44.87176" lon="5.26315">
        <ele>1363.1999511719</ele>
        <time>2019-07-08T04:48:00Z</time>
      </trkpt>
      <trkpt lat="44.87173" lon="5.26314">
        <ele>1363.1999511719</ele>
        <time>2019-07-08T04:48:02Z</time>
      </trkpt>
      <trkpt lat="44.8717" lon="5.26313">
        <ele>1363.1999511719</ele>
        <time>2019-07-08T04:48:08Z</time>
      </trkpt>
      <trkpt lat="44.87167" lon="5.26308">
        <ele>1363.1999511719</ele>
        <time>2019-07-08T04:48:13Z</time>
      </trkpt>
      <trkpt lat="44.87159" lon="5.26301">
        <ele>1363.1999511719</ele>
        <time>2019-07-08T04:48:19Z</time>
      </trkpt>
      <trkpt lat="44.87145" lon="5.26298">
        <ele>1363.1999511719</ele>
        <time>2019-07-08T04:48:26Z</time>
      </trkpt>
      <trkpt lat="44.87133" lon="5.26291">
        <ele>1363.1999511719</ele>
        <time>2019-07-08T04:48:32Z</time>
      </trkpt>
      <trkpt lat="44.87117" lon="5.26284">
        <ele>1363.1999511719</ele>
        <time>2019-07-08T04:48:38Z</time>
      </trkpt>
      <trkpt lat="44.871" lon="5.26275">
        <ele>1363.1999511719</ele>
        <time>2019-07-08T04:48:45Z</time>
      </trkpt>
      <trkpt lat="44.87095" lon="5.26273">
        <ele>1362.8000488281</ele>
        <time>2019-07-08T04:48:48Z</time>
      </trkpt>
      <trkpt lat="44.87093" lon="5.26272">
        <ele>1362.4000244141</ele>
        <time>2019-07-08T04:48:49Z</time>
      </trkpt>
      <trkpt lat="44.8709" lon="5.26271">
        <ele>1362</ele>
        <time>2019-07-08T04:48:50Z</time>
      </trkpt>
      <trkpt lat="44.87088" lon="5.2627">
        <ele>1361.5999755859</ele>
        <time>2019-07-08T04:48:51Z</time>
      </trkpt>
      <trkpt lat="44.87086" lon="5.2627">
        <ele>1361.1999511719</ele>
        <time>2019-07-08T04:48:52Z</time>
      </trkpt>
      <trkpt lat="44.87081" lon="5.26272">
        <ele>1361.1999511719</ele>
        <time>2019-07-08T04:48:55Z</time>
      </trkpt>
      <trkpt lat="44.87065" lon="5.26273">
        <ele>1361.1999511719</ele>
        <time>2019-07-08T04:49:03Z</time>
      </trkpt>
      <trkpt lat="44.87054" lon="5.26275">
        <ele>1361.1999511719</ele>
        <time>2019-07-08T04:49:09Z</time>
      </trkpt>
      <trkpt lat="44.87039" lon="5.26273">
        <ele>1361.1999511719</ele>
        <time>2019-07-08T04:49:17Z</time>
      </trkpt>
      <trkpt lat="44.87025" lon="5.2627">
        <ele>1361.1999511719</ele>
        <time>2019-07-08T04:49:24Z</time>
      </trkpt>
      <trkpt lat="44.87014" lon="5.2627">
        <ele>1361.1999511719</ele>
        <time>2019-07-08T04:49:30Z</time>
      </trkpt>
      <trkpt lat="44.87" lon="5.26268">
        <ele>1361.1999511719</ele>
        <time>2019-07-08T04:49:37Z</time>
      </trkpt>
      <trkpt lat="44.86987" lon="5.26268">
        <ele>1361.5999755859</ele>
        <time>2019-07-08T04:49:44Z</time>
      </trkpt>
      <trkpt lat="44.86985" lon="5.26267">
        <ele>1362</ele>
        <time>2019-07-08T04:49:45Z</time>
      </trkpt>
      <trkpt lat="44.86984" lon="5.26267">
        <ele>1362.4000244141</ele>
        <time>2019-07-08T04:49:46Z</time>
      </trkpt>
      <trkpt lat="44.86982" lon="5.26266">
        <ele>1362.8000488281</ele>
        <time>2019-07-08T04:49:47Z</time>
      </trkpt>
      <trkpt lat="44.86981" lon="5.26266">
        <ele>1363.1999511719</ele>
        <time>2019-07-08T04:49:48Z</time>
      </trkpt>
      <trkpt lat="44.86978" lon="5.26266">
        <ele>1363.1999511719</ele>
        <time>2019-07-08T04:49:50Z</time>
      </trkpt>
      <trkpt lat="44.86968" lon="5.26266">
        <ele>1363.1999511719</ele>
        <time>2019-07-08T04:49:56Z</time>
      </trkpt>
      <trkpt lat="44.86957" lon="5.26265">
        <ele>1363.1999511719</ele>
        <time>2019-07-08T04:50:03Z</time>
      </trkpt>
      <trkpt lat="44.86947" lon="5.2626">
        <ele>1363.1999511719</ele>
        <time>2019-07-08T04:50:09Z</time>
      </trkpt>
      <trkpt lat="44.8694" lon="5.26259">
        <ele>1363.1999511719</ele>
        <time>2019-07-08T04:50:15Z</time>
      </trkpt>
      <trkpt lat="44.86937" lon="5.26257">
        <ele>1363.1999511719</ele>
        <time>2019-07-08T04:50:20Z</time>
      </trkpt>
      <trkpt lat="44.86932" lon="5.26256">
        <ele>1363.1999511719</ele>
        <time>2019-07-08T04:50:24Z</time>
      </trkpt>
      <trkpt lat="44.86923" lon="5.26254">
        <ele>1363.1999511719</ele>
        <time>2019-07-08T04:50:30Z</time>
      </trkpt>
      <trkpt lat="44.86919" lon="5.26252">
        <ele>1363.1999511719</ele>
        <time>2019-07-08T04:50:35Z</time>
      </trkpt>
      <trkpt lat="44.86919" lon="5.26252">
        <ele>1363.1999511719</ele>
        <time>2019-07-08T04:50:44Z</time>
      </trkpt>
      <trkpt lat="44.86914" lon="5.26252">
        <ele>1363.1999511719</ele>
        <time>2019-07-08T04:50:48Z</time>
      </trkpt>
      <trkpt lat="44.86908" lon="5.2625">
        <ele>1363.5999755859</ele>
        <time>2019-07-08T04:50:52Z</time>
      </trkpt>
      <trkpt lat="44.86906" lon="5.26249">
        <ele>1364</ele>
        <time>2019-07-08T04:50:53Z</time>
      </trkpt>
      <trkpt lat="44.86905" lon="5.26249">
        <ele>1364.4000244141</ele>
        <time>2019-07-08T04:50:54Z</time>
      </trkpt>
      <trkpt lat="44.86903" lon="5.26249">
        <ele>1364.8000488281</ele>
        <time>2019-07-08T04:50:55Z</time>
      </trkpt>
      <trkpt lat="44.86901" lon="5.26248">
        <ele>1365.1999511719</ele>
        <time>2019-07-08T04:50:56Z</time>
      </trkpt>
      <trkpt lat="44.86892" lon="5.26247">
        <ele>1365.1999511719</ele>
        <time>2019-07-08T04:51:02Z</time>
      </trkpt>
      <trkpt lat="44.86883" lon="5.26244">
        <ele>1365.1999511719</ele>
        <time>2019-07-08T04:51:08Z</time>
      </trkpt>
      <trkpt lat="44.86871" lon="5.2624">
        <ele>1365.1999511719</ele>
        <time>2019-07-08T04:51:14Z</time>
      </trkpt>
      <trkpt lat="44.86866" lon="5.26239">
        <ele>1365.1999511719</ele>
        <time>2019-07-08T04:51:19Z</time>
      </trkpt>
      <trkpt lat="44.86866" lon="5.26239">
        <ele>1365.8000488281</ele>
        <time>2019-07-08T04:51:23Z</time>
      </trkpt>
      <trkpt lat="44.86866" lon="5.26239">
        <ele>1366.1999511719</ele>
        <time>2019-07-08T04:51:24Z</time>
      </trkpt>
      <trkpt lat="44.86866" lon="5.26239">
        <ele>1366.5999755859</ele>
        <time>2019-07-08T04:51:25Z</time>
      </trkpt>
      <trkpt lat="44.86866" lon="5.26239">
        <ele>1367</ele>
        <time>2019-07-08T04:51:26Z</time>
      </trkpt>
      <trkpt lat="44.86866" lon="5.26239">
        <ele>1367.4000244141</ele>
        <time>2019-07-08T04:51:27Z</time>
      </trkpt>
      <trkpt lat="44.86866" lon="5.26239">
        <ele>1367.4000244141</ele>
        <time>2019-07-08T04:51:30Z</time>
      </trkpt>
      <trkpt lat="44.86868" lon="5.2624">
        <ele>1367.4000244141</ele>
        <time>2019-07-08T04:51:37Z</time>
      </trkpt>
      <trkpt lat="44.86868" lon="5.2624">
        <ele>1367.4000244141</ele>
        <time>2019-07-08T04:51:41Z</time>
      </trkpt>
      <trkpt lat="44.86868" lon="5.2624">
        <ele>1367.4000244141</ele>
        <time>2019-07-08T04:51:54Z</time>
      </trkpt>
      <trkpt lat="44.86868" lon="5.2624">
        <ele>1367.4000244141</ele>
        <time>2019-07-08T04:52:04Z</time>
      </trkpt>
      <trkpt lat="44.86868" lon="5.26239">
        <ele>1367.4000244141</ele>
        <time>2019-07-08T04:52:05Z</time>
      </trkpt>
      <trkpt lat="44.86868" lon="5.26237">
        <ele>1367.4000244141</ele>
        <time>2019-07-08T04:52:11Z</time>
      </trkpt>
      <trkpt lat="44.86867" lon="5.26237">
        <ele>1367.4000244141</ele>
        <time>2019-07-08T04:52:17Z</time>
      </trkpt>
      <trkpt lat="44.86868" lon="5.26236">
        <ele>1367.4000244141</ele>
        <time>2019-07-08T04:52:31Z</time>
      </trkpt>
      <trkpt lat="44.8687" lon="5.26232">
        <ele>1367.4000244141</ele>
        <time>2019-07-08T04:52:37Z</time>
      </trkpt>
      <trkpt lat="44.8687" lon="5.26232">
        <ele>1367.4000244141</ele>
        <time>2019-07-08T04:52:49Z</time>
      </trkpt>
      <trkpt lat="44.8687" lon="5.26232">
        <ele>1367.4000244141</ele>
        <time>2019-07-08T04:53:05Z</time>
      </trkpt>
      <trkpt lat="44.8687" lon="5.26231">
        <ele>1367.4000244141</ele>
        <time>2019-07-08T04:53:12Z</time>
      </trkpt>
      <trkpt lat="44.8687" lon="5.2623">
        <ele>1367.4000244141</ele>
        <time>2019-07-08T04:53:19Z</time>
      </trkpt>
      <trkpt lat="44.8687" lon="5.2623">
        <ele>1367.4000244141</ele>
        <time>2019-07-08T04:53:25Z</time>
      </trkpt>
      <trkpt lat="44.8687" lon="5.26224">
        <ele>1367</ele>
        <time>2019-07-08T04:53:27Z</time>
      </trkpt>
      <trkpt lat="44.8687" lon="5.26221">
        <ele>1366.5999755859</ele>
        <time>2019-07-08T04:53:28Z</time>
      </trkpt>
      <trkpt lat="44.8687" lon="5.26217">
        <ele>1366.1999511719</ele>
        <time>2019-07-08T04:53:29Z</time>
      </trkpt>
      <trkpt lat="44.8687" lon="5.26213">
        <ele>1365.8000488281</ele>
        <time>2019-07-08T04:53:30Z</time>
      </trkpt>
      <trkpt lat="44.8687" lon="5.26209">
        <ele>1365.4000244141</ele>
        <time>2019-07-08T04:53:31Z</time>
      </trkpt>
      <trkpt lat="44.86871" lon="5.26205">
        <ele>1365.4000244141</ele>
        <time>2019-07-08T04:53:32Z</time>
      </trkpt>
      <trkpt lat="44.8687" lon="5.26194">
        <ele>1364.8000488281</ele>
        <time>2019-07-08T04:53:35Z</time>
      </trkpt>
      <trkpt lat="44.8687" lon="5.2619">
        <ele>1364.4000244141</ele>
        <time>2019-07-08T04:53:36Z</time>
      </trkpt>
      <trkpt lat="44.8687" lon="5.26186">
        <ele>1363.8000488281</ele>
        <time>2019-07-08T04:53:37Z</time>
      </trkpt>
      <trkpt lat="44.86871" lon="5.26182">
        <ele>1363.4000244141</ele>
        <time>2019-07-08T04:53:38Z</time>
      </trkpt>
      <trkpt lat="44.86872" lon="5.26178">
        <ele>1363</ele>
        <time>2019-07-08T04:53:39Z</time>
      </trkpt>
      <trkpt lat="44.86875" lon="5.26173">
        <ele>1362.4000244141</ele>
        <time>2019-07-08T04:53:40Z</time>
      </trkpt>
      <trkpt lat="44.86877" lon="5.26169">
        <ele>1362</ele>
        <time>2019-07-08T04:53:41Z</time>
      </trkpt>
      <trkpt lat="44.86878" lon="5.26164">
        <ele>1361.5999755859</ele>
        <time>2019-07-08T04:53:42Z</time>
      </trkpt>
      <trkpt lat="44.8688" lon="5.2616">
        <ele>1361</ele>
        <time>2019-07-08T04:53:43Z</time>
      </trkpt>
      <trkpt lat="44.8688" lon="5.26154">
        <ele>1360.4000244141</ele>
        <time>2019-07-08T04:53:44Z</time>
      </trkpt>
      <trkpt lat="44.86881" lon="5.26149">
        <ele>1359.8000488281</ele>
        <time>2019-07-08T04:53:45Z</time>
      </trkpt>
      <trkpt lat="44.86881" lon="5.26143">
        <ele>1359.1999511719</ele>
        <time>2019-07-08T04:53:46Z</time>
      </trkpt>
      <trkpt lat="44.86882" lon="5.26138">
        <ele>1357.8000488281</ele>
        <time>2019-07-08T04:53:47Z</time>
      </trkpt>
      <trkpt lat="44.86884" lon="5.26134">
        <ele>1357</ele>
        <time>2019-07-08T04:53:48Z</time>
      </trkpt>
      <trkpt lat="44.86885" lon="5.26131">
        <ele>1356.4000244141</ele>
        <time>2019-07-08T04:53:49Z</time>
      </trkpt>
      <trkpt lat="44.86886" lon="5.26126">
        <ele>1355.5999755859</ele>
        <time>2019-07-08T04:53:50Z</time>
      </trkpt>
      <trkpt lat="44.86887" lon="5.26122">
        <ele>1354.8000488281</ele>
        <time>2019-07-08T04:53:51Z</time>
      </trkpt>
      <trkpt lat="44.86887" lon="5.26117">
        <ele>1354</ele>
        <time>2019-07-08T04:53:52Z</time>
      </trkpt>
      <trkpt lat="44.86889" lon="5.26112">
        <ele>1353.5999755859</ele>
        <time>2019-07-08T04:53:53Z</time>
      </trkpt>
      <trkpt lat="44.8689" lon="5.26107">
        <ele>1353</ele>
        <time>2019-07-08T04:53:54Z</time>
      </trkpt>
      <trkpt lat="44.8689" lon="5.26102">
        <ele>1352.4000244141</ele>
        <time>2019-07-08T04:53:55Z</time>
      </trkpt>
      <trkpt lat="44.86889" lon="5.26096">
        <ele>1351.8000488281</ele>
        <time>2019-07-08T04:53:56Z</time>
      </trkpt>
      <trkpt lat="44.86889" lon="5.2609">
        <ele>1351.1999511719</ele>
        <time>2019-07-08T04:53:57Z</time>
      </trkpt>
      <trkpt lat="44.86889" lon="5.26085">
        <ele>1350.5999755859</ele>
        <time>2019-07-08T04:53:58Z</time>
      </trkpt>
      <trkpt lat="44.86889" lon="5.26081">
        <ele>1349.8000488281</ele>
        <time>2019-07-08T04:53:59Z</time>
      </trkpt>
      <trkpt lat="44.86889" lon="5.26077">
        <ele>1349.1999511719</ele>
        <time>2019-07-08T04:54:00Z</time>
      </trkpt>
      <trkpt lat="44.86888" lon="5.26074">
        <ele>1348.4000244141</ele>
        <time>2019-07-08T04:54:01Z</time>
      </trkpt>
      <trkpt lat="44.86888" lon="5.26071">
        <ele>1347.5999755859</ele>
        <time>2019-07-08T04:54:02Z</time>
      </trkpt>
      <trkpt lat="44.86888" lon="5.26068">
        <ele>1347</ele>
        <time>2019-07-08T04:54:03Z</time>
      </trkpt>
      <trkpt lat="44.86888" lon="5.26065">
        <ele>1346.1999511719</ele>
        <time>2019-07-08T04:54:04Z</time>
      </trkpt>
      <trkpt lat="44.86888" lon="5.26061">
        <ele>1345.8000488281</ele>
        <time>2019-07-08T04:54:05Z</time>
      </trkpt>
      <trkpt lat="44.86887" lon="5.26057">
        <ele>1345.4000244141</ele>
        <time>2019-07-08T04:54:06Z</time>
      </trkpt>
      <trkpt lat="44.86887" lon="5.26052">
        <ele>1345</ele>
        <time>2019-07-08T04:54:07Z</time>
      </trkpt>
      <trkpt lat="44.86887" lon="5.26047">
        <ele>1344.5999755859</ele>
        <time>2019-07-08T04:54:08Z</time>
      </trkpt>
      <trkpt lat="44.86889" lon="5.26044">
        <ele>1344</ele>
        <time>2019-07-08T04:54:09Z</time>
      </trkpt>
      <trkpt lat="44.8689" lon="5.26041">
        <ele>1343.5999755859</ele>
        <time>2019-07-08T04:54:10Z</time>
      </trkpt>
      <trkpt lat="44.86891" lon="5.26039">
        <ele>1342.5999755859</ele>
        <time>2019-07-08T04:54:11Z</time>
      </trkpt>
      <trkpt lat="44.86893" lon="5.26037">
        <ele>1342</ele>
        <time>2019-07-08T04:54:12Z</time>
      </trkpt>
      <trkpt lat="44.86898" lon="5.26035">
        <ele>1342</ele>
        <time>2019-07-08T04:54:15Z</time>
      </trkpt>
      <trkpt lat="44.8691" lon="5.26034">
        <ele>1342</ele>
        <time>2019-07-08T04:54:21Z</time>
      </trkpt>
      <trkpt lat="44.86912" lon="5.26035">
        <ele>1342</ele>
        <time>2019-07-08T04:54:22Z</time>
      </trkpt>
      <trkpt lat="44.86919" lon="5.26033">
        <ele>1342</ele>
        <time>2019-07-08T04:54:25Z</time>
      </trkpt>
      <trkpt lat="44.86926" lon="5.26033">
        <ele>1342</ele>
        <time>2019-07-08T04:54:28Z</time>
      </trkpt>
      <trkpt lat="44.86943" lon="5.2603">
        <ele>1342</ele>
        <time>2019-07-08T04:54:37Z</time>
      </trkpt>
      <trkpt lat="44.86951" lon="5.26026">
        <ele>1342</ele>
        <time>2019-07-08T04:54:42Z</time>
      </trkpt>
      <trkpt lat="44.8696" lon="5.26018">
        <ele>1342</ele>
        <time>2019-07-08T04:54:48Z</time>
      </trkpt>
      <trkpt lat="44.86968" lon="5.26011">
        <ele>1342</ele>
        <time>2019-07-08T04:54:54Z</time>
      </trkpt>
      <trkpt lat="44.86976" lon="5.26">
        <ele>1342</ele>
        <time>2019-07-08T04:55:02Z</time>
      </trkpt>
      <trkpt lat="44.86982" lon="5.25992">
        <ele>1342</ele>
        <time>2019-07-08T04:55:08Z</time>
      </trkpt>
      <trkpt lat="44.86985" lon="5.25986">
        <ele>1342.4000244141</ele>
        <time>2019-07-08T04:55:13Z</time>
      </trkpt>
      <trkpt lat="44.86986" lon="5.25984">
        <ele>1342.8000488281</ele>
        <time>2019-07-08T04:55:14Z</time>
      </trkpt>
      <trkpt lat="44.86987" lon="5.25983">
        <ele>1343.1999511719</ele>
        <time>2019-07-08T04:55:15Z</time>
      </trkpt>
      <trkpt lat="44.86988" lon="5.25981">
        <ele>1343.5999755859</ele>
        <time>2019-07-08T04:55:16Z</time>
      </trkpt>
      <trkpt lat="44.86989" lon="5.2598">
        <ele>1344</ele>
        <time>2019-07-08T04:55:17Z</time>
      </trkpt>
      <trkpt lat="44.86993" lon="5.25972">
        <ele>1344</ele>
        <time>2019-07-08T04:55:23Z</time>
      </trkpt>
      <trkpt lat="44.86999" lon="5.25962">
        <ele>1344</ele>
        <time>2019-07-08T04:55:30Z</time>
      </trkpt>
      <trkpt lat="44.87" lon="5.25955">
        <ele>1344</ele>
        <time>2019-07-08T04:55:34Z</time>
      </trkpt>
      <trkpt lat="44.87" lon="5.25954">
        <ele>1344</ele>
        <time>2019-07-08T04:55:35Z</time>
      </trkpt>
      <trkpt lat="44.87001" lon="5.25952">
        <ele>1344.5999755859</ele>
        <time>2019-07-08T04:55:36Z</time>
      </trkpt>
      <trkpt lat="44.87002" lon="5.25951">
        <ele>1345</ele>
        <time>2019-07-08T04:55:37Z</time>
      </trkpt>
      <trkpt lat="44.87002" lon="5.25949">
        <ele>1345.4000244141</ele>
        <time>2019-07-08T04:55:38Z</time>
      </trkpt>
      <trkpt lat="44.87003" lon="5.25947">
        <ele>1345.8000488281</ele>
        <time>2019-07-08T04:55:39Z</time>
      </trkpt>
      <trkpt lat="44.87003" lon="5.25945">
        <ele>1346.1999511719</ele>
        <time>2019-07-08T04:55:40Z</time>
      </trkpt>
      <trkpt lat="44.87004" lon="5.25944">
        <ele>1346.1999511719</ele>
        <time>2019-07-08T04:55:41Z</time>
      </trkpt>
      <trkpt lat="44.87006" lon="5.25931">
        <ele>1346.1999511719</ele>
        <time>2019-07-08T04:55:48Z</time>
      </trkpt>
      <trkpt lat="44.87009" lon="5.25914">
        <ele>1346.5999755859</ele>
        <time>2019-07-08T04:55:57Z</time>
      </trkpt>
      <trkpt lat="44.87009" lon="5.25912">
        <ele>1347</ele>
        <time>2019-07-08T04:55:58Z</time>
      </trkpt>
      <trkpt lat="44.87009" lon="5.25911">
        <ele>1347.4000244141</ele>
        <time>2019-07-08T04:55:59Z</time>
      </trkpt>
      <trkpt lat="44.87009" lon="5.25909">
        <ele>1347.8000488281</ele>
        <time>2019-07-08T04:56:00Z</time>
      </trkpt>
      <trkpt lat="44.8701" lon="5.25907">
        <ele>1348.1999511719</ele>
        <time>2019-07-08T04:56:01Z</time>
      </trkpt>
      <trkpt lat="44.8701" lon="5.25903">
        <ele>1348.1999511719</ele>
        <time>2019-07-08T04:56:03Z</time>
      </trkpt>
      <trkpt lat="44.87007" lon="5.25894">
        <ele>1348.1999511719</ele>
        <time>2019-07-08T04:56:09Z</time>
      </trkpt>
      <trkpt lat="44.87007" lon="5.25891">
        <ele>1348.1999511719</ele>
        <time>2019-07-08T04:56:11Z</time>
      </trkpt>
      <trkpt lat="44.87008" lon="5.25883">
        <ele>1348.1999511719</ele>
        <time>2019-07-08T04:56:15Z</time>
      </trkpt>
      <trkpt lat="44.87008" lon="5.25869">
        <ele>1348.1999511719</ele>
        <time>2019-07-08T04:56:22Z</time>
      </trkpt>
      <trkpt lat="44.87007" lon="5.25855">
        <ele>1348.1999511719</ele>
        <time>2019-07-08T04:56:29Z</time>
      </trkpt>
      <trkpt lat="44.87004" lon="5.25845">
        <ele>1348.5999755859</ele>
        <time>2019-07-08T04:56:34Z</time>
      </trkpt>
      <trkpt lat="44.87004" lon="5.25844">
        <ele>1349</ele>
        <time>2019-07-08T04:56:35Z</time>
      </trkpt>
      <trkpt lat="44.87004" lon="5.25842">
        <ele>1349.4000244141</ele>
        <time>2019-07-08T04:56:36Z</time>
      </trkpt>
      <trkpt lat="44.87003" lon="5.25841">
        <ele>1350.1999511719</ele>
        <time>2019-07-08T04:56:37Z</time>
      </trkpt>
      <trkpt lat="44.87" lon="5.25832">
        <ele>1350.1999511719</ele>
        <time>2019-07-08T04:56:43Z</time>
      </trkpt>
      <trkpt lat="44.86998" lon="5.2582">
        <ele>1350.1999511719</ele>
        <time>2019-07-08T04:56:50Z</time>
      </trkpt>
      <trkpt lat="44.86997" lon="5.25816">
        <ele>1350.1999511719</ele>
        <time>2019-07-08T04:56:52Z</time>
      </trkpt>
      <trkpt lat="44.86995" lon="5.25809">
        <ele>1350.1999511719</ele>
        <time>2019-07-08T04:56:56Z</time>
      </trkpt>
      <trkpt lat="44.86995" lon="5.25802">
        <ele>1351</ele>
        <time>2019-07-08T04:57:01Z</time>
      </trkpt>
      <trkpt lat="44.86994" lon="5.258">
        <ele>1351.4000244141</ele>
        <time>2019-07-08T04:57:02Z</time>
      </trkpt>
      <trkpt lat="44.86994" lon="5.25798">
        <ele>1351.8000488281</ele>
        <time>2019-07-08T04:57:03Z</time>
      </trkpt>
      <trkpt lat="44.86993" lon="5.25796">
        <ele>1352.1999511719</ele>
        <time>2019-07-08T04:57:04Z</time>
      </trkpt>
      <trkpt lat="44.8699" lon="5.25785">
        <ele>1352.1999511719</ele>
        <time>2019-07-08T04:57:10Z</time>
      </trkpt>
      <trkpt lat="44.86987" lon="5.25775">
        <ele>1352.1999511719</ele>
        <time>2019-07-08T04:57:16Z</time>
      </trkpt>
      <trkpt lat="44.86985" lon="5.25767">
        <ele>1352.1999511719</ele>
        <time>2019-07-08T04:57:21Z</time>
      </trkpt>
      <trkpt lat="44.86983" lon="5.25766">
        <ele>1352.1999511719</ele>
        <time>2019-07-08T04:57:23Z</time>
      </trkpt>
      <trkpt lat="44.86983" lon="5.25766">
        <ele>1352.1999511719</ele>
        <time>2019-07-08T04:57:25Z</time>
      </trkpt>
      <trkpt lat="44.86982" lon="5.25764">
        <ele>1352.1999511719</ele>
        <time>2019-07-08T04:57:27Z</time>
      </trkpt>
      <trkpt lat="44.86982" lon="5.25763">
        <ele>1352.5999755859</ele>
        <time>2019-07-08T04:57:28Z</time>
      </trkpt>
      <trkpt lat="44.86981" lon="5.25761">
        <ele>1353</ele>
        <time>2019-07-08T04:57:29Z</time>
      </trkpt>
      <trkpt lat="44.86981" lon="5.25759">
        <ele>1353.4000244141</ele>
        <time>2019-07-08T04:57:30Z</time>
      </trkpt>
      <trkpt lat="44.86981" lon="5.25758">
        <ele>1354</ele>
        <time>2019-07-08T04:57:31Z</time>
      </trkpt>
      <trkpt lat="44.86981" lon="5.25757">
        <ele>1354.4000244141</ele>
        <time>2019-07-08T04:57:32Z</time>
      </trkpt>
      <trkpt lat="44.86981" lon="5.25758">
        <ele>1354.4000244141</ele>
        <time>2019-07-08T04:57:33Z</time>
      </trkpt>
      <trkpt lat="44.86981" lon="5.25757">
        <ele>1354.4000244141</ele>
        <time>2019-07-08T04:57:36Z</time>
      </trkpt>
      <trkpt lat="44.8698" lon="5.25753">
        <ele>1354.4000244141</ele>
        <time>2019-07-08T04:57:38Z</time>
      </trkpt>
      <trkpt lat="44.86978" lon="5.25747">
        <ele>1354.4000244141</ele>
        <time>2019-07-08T04:57:41Z</time>
      </trkpt>
      <trkpt lat="44.86974" lon="5.25742">
        <ele>1354.4000244141</ele>
        <time>2019-07-08T04:57:45Z</time>
      </trkpt>
      <trkpt lat="44.86971" lon="5.25734">
        <ele>1354.8000488281</ele>
        <time>2019-07-08T04:57:49Z</time>
      </trkpt>
      <trkpt lat="44.8697" lon="5.25732">
        <ele>1355.5999755859</ele>
        <time>2019-07-08T04:57:50Z</time>
      </trkpt>
      <trkpt lat="44.8697" lon="5.25731">
        <ele>1356</ele>
        <time>2019-07-08T04:57:51Z</time>
      </trkpt>
      <trkpt lat="44.86969" lon="5.25729">
        <ele>1356.4000244141</ele>
        <time>2019-07-08T04:57:52Z</time>
      </trkpt>
      <trkpt lat="44.86965" lon="5.25715">
        <ele>1356.4000244141</ele>
        <time>2019-07-08T04:58:01Z</time>
      </trkpt>
      <trkpt lat="44.86961" lon="5.25704">
        <ele>1356.4000244141</ele>
        <time>2019-07-08T04:58:08Z</time>
      </trkpt>
      <trkpt lat="44.8696" lon="5.257">
        <ele>1356.4000244141</ele>
        <time>2019-07-08T04:58:10Z</time>
      </trkpt>
      <trkpt lat="44.8696" lon="5.25694">
        <ele>1356.4000244141</ele>
        <time>2019-07-08T04:58:13Z</time>
      </trkpt>
      <trkpt lat="44.8696" lon="5.25691">
        <ele>1356.4000244141</ele>
        <time>2019-07-08T04:58:14Z</time>
      </trkpt>
      <trkpt lat="44.86961" lon="5.25678">
        <ele>1356.4000244141</ele>
        <time>2019-07-08T04:58:20Z</time>
      </trkpt>
      <trkpt lat="44.8696" lon="5.25673">
        <ele>1356.8000488281</ele>
        <time>2019-07-08T04:58:22Z</time>
      </trkpt>
      <trkpt lat="44.8696" lon="5.25671">
        <ele>1357.1999511719</ele>
        <time>2019-07-08T04:58:23Z</time>
      </trkpt>
      <trkpt lat="44.86961" lon="5.25668">
        <ele>1357.5999755859</ele>
        <time>2019-07-08T04:58:24Z</time>
      </trkpt>
      <trkpt lat="44.86961" lon="5.25666">
        <ele>1358</ele>
        <time>2019-07-08T04:58:25Z</time>
      </trkpt>
      <trkpt lat="44.86962" lon="5.25664">
        <ele>1358.4000244141</ele>
        <time>2019-07-08T04:58:26Z</time>
      </trkpt>
      <trkpt lat="44.86962" lon="5.25662">
        <ele>1358.4000244141</ele>
        <time>2019-07-08T04:58:27Z</time>
      </trkpt>
      <trkpt lat="44.86963" lon="5.25645">
        <ele>1358.4000244141</ele>
        <time>2019-07-08T04:58:33Z</time>
      </trkpt>
      <trkpt lat="44.86965" lon="5.25628">
        <ele>1358.4000244141</ele>
        <time>2019-07-08T04:58:40Z</time>
      </trkpt>
      <trkpt lat="44.86967" lon="5.25607">
        <ele>1358.4000244141</ele>
        <time>2019-07-08T04:58:48Z</time>
      </trkpt>
      <trkpt lat="44.86966" lon="5.25603">
        <ele>1358.4000244141</ele>
        <time>2019-07-08T04:58:53Z</time>
      </trkpt>
      <trkpt lat="44.86966" lon="5.25603">
        <ele>1358.4000244141</ele>
        <time>2019-07-08T04:59:06Z</time>
      </trkpt>
      <trkpt lat="44.86966" lon="5.25603">
        <ele>1358.4000244141</ele>
        <time>2019-07-08T04:59:22Z</time>
      </trkpt>
      <trkpt lat="44.86967" lon="5.25599">
        <ele>1358.4000244141</ele>
        <time>2019-07-08T04:59:33Z</time>
      </trkpt>
      <trkpt lat="44.86964" lon="5.25585">
        <ele>1358.4000244141</ele>
        <time>2019-07-08T04:59:37Z</time>
      </trkpt>
      <trkpt lat="44.8696" lon="5.25558">
        <ele>1358.4000244141</ele>
        <time>2019-07-08T04:59:43Z</time>
      </trkpt>
      <trkpt lat="44.8696" lon="5.25537">
        <ele>1358.4000244141</ele>
        <time>2019-07-08T04:59:46Z</time>
      </trkpt>
      <trkpt lat="44.86961" lon="5.25526">
        <ele>1358.4000244141</ele>
        <time>2019-07-08T04:59:48Z</time>
      </trkpt>
      <trkpt lat="44.86963" lon="5.25508">
        <ele>1358.4000244141</ele>
        <time>2019-07-08T04:59:52Z</time>
      </trkpt>
      <trkpt lat="44.86962" lon="5.25477">
        <ele>1358.4000244141</ele>
        <time>2019-07-08T04:59:57Z</time>
      </trkpt>
      <trkpt lat="44.8696" lon="5.25465">
        <ele>1358</ele>
        <time>2019-07-08T05:00:00Z</time>
      </trkpt>
      <trkpt lat="44.86958" lon="5.25458">
        <ele>1357.5999755859</ele>
        <time>2019-07-08T05:00:01Z</time>
      </trkpt>
      <trkpt lat="44.86956" lon="5.25453">
        <ele>1357.1999511719</ele>
        <time>2019-07-08T05:00:02Z</time>
      </trkpt>
      <trkpt lat="44.86954" lon="5.25447">
        <ele>1356.5999755859</ele>
        <time>2019-07-08T05:00:03Z</time>
      </trkpt>
      <trkpt lat="44.86951" lon="5.25442">
        <ele>1356.1999511719</ele>
        <time>2019-07-08T05:00:04Z</time>
      </trkpt>
      <trkpt lat="44.86943" lon="5.2542">
        <ele>1356.1999511719</ele>
        <time>2019-07-08T05:00:08Z</time>
      </trkpt>
      <trkpt lat="44.86938" lon="5.25401">
        <ele>1356.1999511719</ele>
        <time>2019-07-08T05:00:14Z</time>
      </trkpt>
      <trkpt lat="44.8693" lon="5.25381">
        <ele>1356.1999511719</ele>
        <time>2019-07-08T05:00:20Z</time>
      </trkpt>
      <trkpt lat="44.8692" lon="5.25366">
        <ele>1356.1999511719</ele>
        <time>2019-07-08T05:00:26Z</time>
      </trkpt>
      <trkpt lat="44.86909" lon="5.25351">
        <ele>1356.1999511719</ele>
        <time>2019-07-08T05:00:30Z</time>
      </trkpt>
      <trkpt lat="44.86906" lon="5.25329">
        <ele>1356.1999511719</ele>
        <time>2019-07-08T05:00:33Z</time>
      </trkpt>
      <trkpt lat="44.86907" lon="5.25313">
        <ele>1355.8000488281</ele>
        <time>2019-07-08T05:00:35Z</time>
      </trkpt>
      <trkpt lat="44.86907" lon="5.25307">
        <ele>1355.4000244141</ele>
        <time>2019-07-08T05:00:36Z</time>
      </trkpt>
      <trkpt lat="44.86907" lon="5.25303">
        <ele>1355</ele>
        <time>2019-07-08T05:00:37Z</time>
      </trkpt>
      <trkpt lat="44.86908" lon="5.253">
        <ele>1354.5999755859</ele>
        <time>2019-07-08T05:00:38Z</time>
      </trkpt>
      <trkpt lat="44.86908" lon="5.25296">
        <ele>1354.1999511719</ele>
        <time>2019-07-08T05:00:39Z</time>
      </trkpt>
      <trkpt lat="44.86909" lon="5.25291">
        <ele>1354.1999511719</ele>
        <time>2019-07-08T05:00:41Z</time>
      </trkpt>
      <trkpt lat="44.86911" lon="5.25278">
        <ele>1354.1999511719</ele>
        <time>2019-07-08T05:00:47Z</time>
      </trkpt>
      <trkpt lat="44.86912" lon="5.25273">
        <ele>1354.5999755859</ele>
        <time>2019-07-08T05:00:50Z</time>
      </trkpt>
      <trkpt lat="44.86912" lon="5.25271">
        <ele>1355</ele>
        <time>2019-07-08T05:00:51Z</time>
      </trkpt>
      <trkpt lat="44.86913" lon="5.25269">
        <ele>1355.4000244141</ele>
        <time>2019-07-08T05:00:52Z</time>
      </trkpt>
      <trkpt lat="44.86913" lon="5.25268">
        <ele>1355.8000488281</ele>
        <time>2019-07-08T05:00:53Z</time>
      </trkpt>
      <trkpt lat="44.86913" lon="5.25268">
        <ele>1356.1999511719</ele>
        <time>2019-07-08T05:00:54Z</time>
      </trkpt>
      <trkpt lat="44.86913" lon="5.25268">
        <ele>1356.1999511719</ele>
        <time>2019-07-08T05:00:55Z</time>
      </trkpt>
      <trkpt lat="44.86914" lon="5.25264">
        <ele>1356.1999511719</ele>
        <time>2019-07-08T05:01:00Z</time>
      </trkpt>
      <trkpt lat="44.86915" lon="5.2526">
        <ele>1356.1999511719</ele>
        <time>2019-07-08T05:01:03Z</time>
      </trkpt>
      <trkpt lat="44.86916" lon="5.25255">
        <ele>1356.8000488281</ele>
        <time>2019-07-08T05:01:07Z</time>
      </trkpt>
      <trkpt lat="44.86916" lon="5.25254">
        <ele>1357.1999511719</ele>
        <time>2019-07-08T05:01:08Z</time>
      </trkpt>
      <trkpt lat="44.86916" lon="5.25253">
        <ele>1357.5999755859</ele>
        <time>2019-07-08T05:01:09Z</time>
      </trkpt>
      <trkpt lat="44.86916" lon="5.25252">
        <ele>1358</ele>
        <time>2019-07-08T05:01:10Z</time>
      </trkpt>
      <trkpt lat="44.86916" lon="5.25252">
        <ele>1358.4000244141</ele>
        <time>2019-07-08T05:01:11Z</time>
      </trkpt>
      <trkpt lat="44.86916" lon="5.25248">
        <ele>1358.4000244141</ele>
        <time>2019-07-08T05:01:15Z</time>
      </trkpt>
      <trkpt lat="44.86916" lon="5.25243">
        <ele>1358.8000488281</ele>
        <time>2019-07-08T05:01:20Z</time>
      </trkpt>
      <trkpt lat="44.86916" lon="5.25242">
        <ele>1359.4000244141</ele>
        <time>2019-07-08T05:01:21Z</time>
      </trkpt>
      <trkpt lat="44.86916" lon="5.25242">
        <ele>1359.8000488281</ele>
        <time>2019-07-08T05:01:22Z</time>
      </trkpt>
      <trkpt lat="44.86916" lon="5.2524">
        <ele>1360.1999511719</ele>
        <time>2019-07-08T05:01:23Z</time>
      </trkpt>
      <trkpt lat="44.86916" lon="5.2524">
        <ele>1360.5999755859</ele>
        <time>2019-07-08T05:01:24Z</time>
      </trkpt>
      <trkpt lat="44.86915" lon="5.25236">
        <ele>1360.5999755859</ele>
        <time>2019-07-08T05:01:28Z</time>
      </trkpt>
      <trkpt lat="44.86916" lon="5.25231">
        <ele>1361</ele>
        <time>2019-07-08T05:01:32Z</time>
      </trkpt>
      <trkpt lat="44.86915" lon="5.2523">
        <ele>1361.4000244141</ele>
        <time>2019-07-08T05:01:33Z</time>
      </trkpt>
      <trkpt lat="44.86916" lon="5.25229">
        <ele>1361.8000488281</ele>
        <time>2019-07-08T05:01:34Z</time>
      </trkpt>
      <trkpt lat="44.86916" lon="5.25228">
        <ele>1362.1999511719</ele>
        <time>2019-07-08T05:01:35Z</time>
      </trkpt>
      <trkpt lat="44.86916" lon="5.25227">
        <ele>1362.5999755859</ele>
        <time>2019-07-08T05:01:36Z</time>
      </trkpt>
      <trkpt lat="44.86914" lon="5.2522">
        <ele>1362.5999755859</ele>
        <time>2019-07-08T05:01:44Z</time>
      </trkpt>
      <trkpt lat="44.86913" lon="5.25218">
        <ele>1363.1999511719</ele>
        <time>2019-07-08T05:01:46Z</time>
      </trkpt>
      <trkpt lat="44.86913" lon="5.25217">
        <ele>1363.5999755859</ele>
        <time>2019-07-08T05:01:47Z</time>
      </trkpt>
      <trkpt lat="44.86913" lon="5.25216">
        <ele>1364</ele>
        <time>2019-07-08T05:01:48Z</time>
      </trkpt>
      <trkpt lat="44.86913" lon="5.25215">
        <ele>1364.4000244141</ele>
        <time>2019-07-08T05:01:49Z</time>
      </trkpt>
      <trkpt lat="44.86913" lon="5.25214">
        <ele>1364.8000488281</ele>
        <time>2019-07-08T05:01:50Z</time>
      </trkpt>
      <trkpt lat="44.86913" lon="5.25214">
        <ele>1364.8000488281</ele>
        <time>2019-07-08T05:01:51Z</time>
      </trkpt>
      <trkpt lat="44.86912" lon="5.25207">
        <ele>1364.8000488281</ele>
        <time>2019-07-08T05:01:58Z</time>
      </trkpt>
      <trkpt lat="44.86911" lon="5.25204">
        <ele>1365.1999511719</ele>
        <time>2019-07-08T05:02:01Z</time>
      </trkpt>
      <trkpt lat="44.86911" lon="5.25203">
        <ele>1365.5999755859</ele>
        <time>2019-07-08T05:02:02Z</time>
      </trkpt>
      <trkpt lat="44.86911" lon="5.25203">
        <ele>1366</ele>
        <time>2019-07-08T05:02:03Z</time>
      </trkpt>
      <trkpt lat="44.86911" lon="5.25202">
        <ele>1366.4000244141</ele>
        <time>2019-07-08T05:02:04Z</time>
      </trkpt>
      <trkpt lat="44.86911" lon="5.25201">
        <ele>1366.8000488281</ele>
        <time>2019-07-08T05:02:05Z</time>
      </trkpt>
      <trkpt lat="44.86911" lon="5.25194">
        <ele>1366.8000488281</ele>
        <time>2019-07-08T05:02:13Z</time>
      </trkpt>
      <trkpt lat="44.86911" lon="5.25192">
        <ele>1367.1999511719</ele>
        <time>2019-07-08T05:02:14Z</time>
      </trkpt>
      <trkpt lat="44.86911" lon="5.25191">
        <ele>1367.5999755859</ele>
        <time>2019-07-08T05:02:15Z</time>
      </trkpt>
      <trkpt lat="44.86911" lon="5.2519">
        <ele>1368</ele>
        <time>2019-07-08T05:02:16Z</time>
      </trkpt>
      <trkpt lat="44.86911" lon="5.25189">
        <ele>1368.4000244141</ele>
        <time>2019-07-08T05:02:17Z</time>
      </trkpt>
      <trkpt lat="44.86911" lon="5.25188">
        <ele>1368.8000488281</ele>
        <time>2019-07-08T05:02:18Z</time>
      </trkpt>
      <trkpt lat="44.86911" lon="5.25185">
        <ele>1368.8000488281</ele>
        <time>2019-07-08T05:02:21Z</time>
      </trkpt>
      <trkpt lat="44.86911" lon="5.25175">
        <ele>1369.4000244141</ele>
        <time>2019-07-08T05:02:30Z</time>
      </trkpt>
      <trkpt lat="44.86912" lon="5.25174">
        <ele>1369.8000488281</ele>
        <time>2019-07-08T05:02:31Z</time>
      </trkpt>
      <trkpt lat="44.86911" lon="5.25172">
        <ele>1370.1999511719</ele>
        <time>2019-07-08T05:02:32Z</time>
      </trkpt>
      <trkpt lat="44.86911" lon="5.25171">
        <ele>1370.8000488281</ele>
        <time>2019-07-08T05:02:33Z</time>
      </trkpt>
      <trkpt lat="44.86911" lon="5.2517">
        <ele>1371.1999511719</ele>
        <time>2019-07-08T05:02:34Z</time>
      </trkpt>
      <trkpt lat="44.86912" lon="5.25165">
        <ele>1371.1999511719</ele>
        <time>2019-07-08T05:02:38Z</time>
      </trkpt>
      <trkpt lat="44.86911" lon="5.25156">
        <ele>1371.5999755859</ele>
        <time>2019-07-08T05:02:45Z</time>
      </trkpt>
      <trkpt lat="44.86911" lon="5.25154">
        <ele>1372</ele>
        <time>2019-07-08T05:02:46Z</time>
      </trkpt>
      <trkpt lat="44.86911" lon="5.25153">
        <ele>1372.4000244141</ele>
        <time>2019-07-08T05:02:47Z</time>
      </trkpt>
      <trkpt lat="44.86911" lon="5.25152">
        <ele>1372.8000488281</ele>
        <time>2019-07-08T05:02:48Z</time>
      </trkpt>
      <trkpt lat="44.86911" lon="5.25151">
        <ele>1373.1999511719</ele>
        <time>2019-07-08T05:02:49Z</time>
      </trkpt>
      <trkpt lat="44.8691" lon="5.25148">
        <ele>1373.1999511719</ele>
        <time>2019-07-08T05:02:51Z</time>
      </trkpt>
      <trkpt lat="44.86909" lon="5.25146">
        <ele>1373.1999511719</ele>
        <time>2019-07-08T05:02:53Z</time>
      </trkpt>
      <trkpt lat="44.86909" lon="5.25145">
        <ele>1373.1999511719</ele>
        <time>2019-07-08T05:02:57Z</time>
      </trkpt>
      <trkpt lat="44.86908" lon="5.25139">
        <ele>1373.1999511719</ele>
        <time>2019-07-08T05:03:01Z</time>
      </trkpt>
      <trkpt lat="44.86908" lon="5.25136">
        <ele>1373.1999511719</ele>
        <time>2019-07-08T05:03:02Z</time>
      </trkpt>
      <trkpt lat="44.86905" lon="5.25127">
        <ele>1373.1999511719</ele>
        <time>2019-07-08T05:03:07Z</time>
      </trkpt>
      <trkpt lat="44.86905" lon="5.25125">
        <ele>1373.1999511719</ele>
        <time>2019-07-08T05:03:08Z</time>
      </trkpt>
      <trkpt lat="44.86904" lon="5.25119">
        <ele>1373.5999755859</ele>
        <time>2019-07-08T05:03:11Z</time>
      </trkpt>
      <trkpt lat="44.86903" lon="5.25117">
        <ele>1374</ele>
        <time>2019-07-08T05:03:12Z</time>
      </trkpt>
      <trkpt lat="44.86902" lon="5.25115">
        <ele>1374.4000244141</ele>
        <time>2019-07-08T05:03:13Z</time>
      </trkpt>
      <trkpt lat="44.86902" lon="5.25113">
        <ele>1374.8000488281</ele>
        <time>2019-07-08T05:03:14Z</time>
      </trkpt>
      <trkpt lat="44.86902" lon="5.25111">
        <ele>1375.4000244141</ele>
        <time>2019-07-08T05:03:15Z</time>
      </trkpt>
      <trkpt lat="44.86899" lon="5.25097">
        <ele>1375.4000244141</ele>
        <time>2019-07-08T05:03:22Z</time>
      </trkpt>
      <trkpt lat="44.86895" lon="5.25088">
        <ele>1375.4000244141</ele>
        <time>2019-07-08T05:03:27Z</time>
      </trkpt>
      <trkpt lat="44.86895" lon="5.25087">
        <ele>1375.4000244141</ele>
        <time>2019-07-08T05:03:28Z</time>
      </trkpt>
      <trkpt lat="44.86894" lon="5.25075">
        <ele>1375.4000244141</ele>
        <time>2019-07-08T05:03:33Z</time>
      </trkpt>
      <trkpt lat="44.86891" lon="5.25067">
        <ele>1375.4000244141</ele>
        <time>2019-07-08T05:03:35Z</time>
      </trkpt>
      <trkpt lat="44.86888" lon="5.25058">
        <ele>1375.4000244141</ele>
        <time>2019-07-08T05:03:37Z</time>
      </trkpt>
      <trkpt lat="44.86876" lon="5.2502">
        <ele>1375.4000244141</ele>
        <time>2019-07-08T05:03:45Z</time>
      </trkpt>
      <trkpt lat="44.86874" lon="5.25013">
        <ele>1375</ele>
        <time>2019-07-08T05:03:46Z</time>
      </trkpt>
      <trkpt lat="44.86872" lon="5.25006">
        <ele>1374.4000244141</ele>
        <time>2019-07-08T05:03:47Z</time>
      </trkpt>
      <trkpt lat="44.8687" lon="5.24998">
        <ele>1374</ele>
        <time>2019-07-08T05:03:48Z</time>
      </trkpt>
      <trkpt lat="44.86868" lon="5.24991">
        <ele>1373.5999755859</ele>
        <time>2019-07-08T05:03:49Z</time>
      </trkpt>
      <trkpt lat="44.86867" lon="5.24984">
        <ele>1373.1999511719</ele>
        <time>2019-07-08T05:03:50Z</time>
      </trkpt>
      <trkpt lat="44.86866" lon="5.24976">
        <ele>1373.1999511719</ele>
        <time>2019-07-08T05:03:51Z</time>
      </trkpt>
      <trkpt lat="44.86862" lon="5.24954">
        <ele>1372.8000488281</ele>
        <time>2019-07-08T05:03:54Z</time>
      </trkpt>
      <trkpt lat="44.8686" lon="5.24947">
        <ele>1372.4000244141</ele>
        <time>2019-07-08T05:03:55Z</time>
      </trkpt>
      <trkpt lat="44.86858" lon="5.24941">
        <ele>1371.5999755859</ele>
        <time>2019-07-08T05:03:56Z</time>
      </trkpt>
      <trkpt lat="44.86857" lon="5.24934">
        <ele>1371.1999511719</ele>
        <time>2019-07-08T05:03:57Z</time>
      </trkpt>
      <trkpt lat="44.86854" lon="5.24918">
        <ele>1371.1999511719</ele>
        <time>2019-07-08T05:04:00Z</time>
      </trkpt>
      <trkpt lat="44.86847" lon="5.24895">
        <ele>1371.1999511719</ele>
        <time>2019-07-08T05:04:06Z</time>
      </trkpt>
      <trkpt lat="44.86839" lon="5.24876">
        <ele>1371.1999511719</ele>
        <time>2019-07-08T05:04:13Z</time>
      </trkpt>
      <trkpt lat="44.86831" lon="5.24867">
        <ele>1371.5999755859</ele>
        <time>2019-07-08T05:04:19Z</time>
      </trkpt>
      <trkpt lat="44.8683" lon="5.24866">
        <ele>1372.4000244141</ele>
        <time>2019-07-08T05:04:20Z</time>
      </trkpt>
      <trkpt lat="44.86829" lon="5.24865">
        <ele>1372.8000488281</ele>
        <time>2019-07-08T05:04:21Z</time>
      </trkpt>
      <trkpt lat="44.86827" lon="5.24864">
        <ele>1373.1999511719</ele>
        <time>2019-07-08T05:04:22Z</time>
      </trkpt>
      <trkpt lat="44.86822" lon="5.24858">
        <ele>1373.1999511719</ele>
        <time>2019-07-08T05:04:27Z</time>
      </trkpt>
      <trkpt lat="44.86813" lon="5.24848">
        <ele>1373.1999511719</ele>
        <time>2019-07-08T05:04:34Z</time>
      </trkpt>
      <trkpt lat="44.8681" lon="5.24845">
        <ele>1373.5999755859</ele>
        <time>2019-07-08T05:04:36Z</time>
      </trkpt>
      <trkpt lat="44.86809" lon="5.24844">
        <ele>1374</ele>
        <time>2019-07-08T05:04:37Z</time>
      </trkpt>
      <trkpt lat="44.86807" lon="5.24843">
        <ele>1374.4000244141</ele>
        <time>2019-07-08T05:04:38Z</time>
      </trkpt>
      <trkpt lat="44.86806" lon="5.24841">
        <ele>1374.8000488281</ele>
        <time>2019-07-08T05:04:39Z</time>
      </trkpt>
      <trkpt lat="44.86805" lon="5.2484">
        <ele>1375.1999511719</ele>
        <time>2019-07-08T05:04:40Z</time>
      </trkpt>
      <trkpt lat="44.86801" lon="5.24836">
        <ele>1375.1999511719</ele>
        <time>2019-07-08T05:04:43Z</time>
      </trkpt>
      <trkpt lat="44.86792" lon="5.24827">
        <ele>1375.5999755859</ele>
        <time>2019-07-08T05:04:50Z</time>
      </trkpt>
      <trkpt lat="44.86791" lon="5.24826">
        <ele>1376</ele>
        <time>2019-07-08T05:04:51Z</time>
      </trkpt>
      <trkpt lat="44.8679" lon="5.24824">
        <ele>1376.4000244141</ele>
        <time>2019-07-08T05:04:52Z</time>
      </trkpt>
      <trkpt lat="44.86789" lon="5.24823">
        <ele>1377</ele>
        <time>2019-07-08T05:04:53Z</time>
      </trkpt>
      <trkpt lat="44.86787" lon="5.24821">
        <ele>1377.4000244141</ele>
        <time>2019-07-08T05:04:54Z</time>
      </trkpt>
      <trkpt lat="44.8678" lon="5.24813">
        <ele>1377.4000244141</ele>
        <time>2019-07-08T05:05:00Z</time>
      </trkpt>
      <trkpt lat="44.86776" lon="5.24808">
        <ele>1377.8000488281</ele>
        <time>2019-07-08T05:05:04Z</time>
      </trkpt>
      <trkpt lat="44.86775" lon="5.24806">
        <ele>1378.1999511719</ele>
        <time>2019-07-08T05:05:05Z</time>
      </trkpt>
      <trkpt lat="44.86773" lon="5.24805">
        <ele>1378.5999755859</ele>
        <time>2019-07-08T05:05:06Z</time>
      </trkpt>
      <trkpt lat="44.86772" lon="5.24804">
        <ele>1379</ele>
        <time>2019-07-08T05:05:07Z</time>
      </trkpt>
      <trkpt lat="44.86771" lon="5.24803">
        <ele>1379.4000244141</ele>
        <time>2019-07-08T05:05:08Z</time>
      </trkpt>
      <trkpt lat="44.8677" lon="5.24802">
        <ele>1379.4000244141</ele>
        <time>2019-07-08T05:05:09Z</time>
      </trkpt>
      <trkpt lat="44.86762" lon="5.24793">
        <ele>1379.8000488281</ele>
        <time>2019-07-08T05:05:16Z</time>
      </trkpt>
      <trkpt lat="44.86761" lon="5.24792">
        <ele>1380.1999511719</ele>
        <time>2019-07-08T05:05:17Z</time>
      </trkpt>
      <trkpt lat="44.86759" lon="5.24791">
        <ele>1380.5999755859</ele>
        <time>2019-07-08T05:05:18Z</time>
      </trkpt>
      <trkpt lat="44.86758" lon="5.2479">
        <ele>1381.1999511719</ele>
        <time>2019-07-08T05:05:19Z</time>
      </trkpt>
      <trkpt lat="44.86757" lon="5.24788">
        <ele>1381.5999755859</ele>
        <time>2019-07-08T05:05:20Z</time>
      </trkpt>
      <trkpt lat="44.86754" lon="5.24786">
        <ele>1381.5999755859</ele>
        <time>2019-07-08T05:05:22Z</time>
      </trkpt>
      <trkpt lat="44.86751" lon="5.24783">
        <ele>1381.5999755859</ele>
        <time>2019-07-08T05:05:25Z</time>
      </trkpt>
      <trkpt lat="44.86746" lon="5.24778">
        <ele>1382</ele>
        <time>2019-07-08T05:05:29Z</time>
      </trkpt>
      <trkpt lat="44.86744" lon="5.24777">
        <ele>1382.4000244141</ele>
        <time>2019-07-08T05:05:30Z</time>
      </trkpt>
      <trkpt lat="44.86743" lon="5.24776">
        <ele>1382.8000488281</ele>
        <time>2019-07-08T05:05:31Z</time>
      </trkpt>
      <trkpt lat="44.86742" lon="5.24775">
        <ele>1383.1999511719</ele>
        <time>2019-07-08T05:05:32Z</time>
      </trkpt>
      <trkpt lat="44.8674" lon="5.24773">
        <ele>1383.5999755859</ele>
        <time>2019-07-08T05:05:33Z</time>
      </trkpt>
      <trkpt lat="44.86734" lon="5.24768">
        <ele>1383.5999755859</ele>
        <time>2019-07-08T05:05:38Z</time>
      </trkpt>
      <trkpt lat="44.86724" lon="5.2476">
        <ele>1384</ele>
        <time>2019-07-08T05:05:46Z</time>
      </trkpt>
      <trkpt lat="44.86723" lon="5.24759">
        <ele>1384.4000244141</ele>
        <time>2019-07-08T05:05:47Z</time>
      </trkpt>
      <trkpt lat="44.86721" lon="5.24758">
        <ele>1385</ele>
        <time>2019-07-08T05:05:48Z</time>
      </trkpt>
      <trkpt lat="44.8672" lon="5.24757">
        <ele>1385.4000244141</ele>
        <time>2019-07-08T05:05:49Z</time>
      </trkpt>
      <trkpt lat="44.86718" lon="5.24756">
        <ele>1385.8000488281</ele>
        <time>2019-07-08T05:05:50Z</time>
      </trkpt>
      <trkpt lat="44.86714" lon="5.24754">
        <ele>1385.8000488281</ele>
        <time>2019-07-08T05:05:53Z</time>
      </trkpt>
      <trkpt lat="44.86709" lon="5.24751">
        <ele>1385.8000488281</ele>
        <time>2019-07-08T05:05:57Z</time>
      </trkpt>
      <trkpt lat="44.86708" lon="5.2475">
        <ele>1386.1999511719</ele>
        <time>2019-07-08T05:05:58Z</time>
      </trkpt>
      <trkpt lat="44.86706" lon="5.2475">
        <ele>1386.5999755859</ele>
        <time>2019-07-08T05:05:59Z</time>
      </trkpt>
      <trkpt lat="44.86704" lon="5.2475">
        <ele>1387</ele>
        <time>2019-07-08T05:06:00Z</time>
      </trkpt>
      <trkpt lat="44.86703" lon="5.24749">
        <ele>1387.5999755859</ele>
        <time>2019-07-08T05:06:01Z</time>
      </trkpt>
      <trkpt lat="44.86702" lon="5.24748">
        <ele>1388</ele>
        <time>2019-07-08T05:06:02Z</time>
      </trkpt>
      <trkpt lat="44.86702" lon="5.24748">
        <ele>1388</ele>
        <time>2019-07-08T05:06:06Z</time>
      </trkpt>
      <trkpt lat="44.86702" lon="5.24748">
        <ele>1388</ele>
        <time>2019-07-08T05:06:19Z</time>
      </trkpt>
      <trkpt lat="44.86702" lon="5.24748">
        <ele>1388</ele>
        <time>2019-07-08T05:06:29Z</time>
      </trkpt>
      <trkpt lat="44.86702" lon="5.24748">
        <ele>1388</ele>
        <time>2019-07-08T05:06:41Z</time>
      </trkpt>
      <trkpt lat="44.86702" lon="5.24748">
        <ele>1388</ele>
        <time>2019-07-08T05:06:47Z</time>
      </trkpt>
      <trkpt lat="44.86694" lon="5.24745">
        <ele>1388</ele>
        <time>2019-07-08T05:06:52Z</time>
      </trkpt>
      <trkpt lat="44.86688" lon="5.24742">
        <ele>1388.4000244141</ele>
        <time>2019-07-08T05:06:57Z</time>
      </trkpt>
      <trkpt lat="44.86687" lon="5.24742">
        <ele>1388.8000488281</ele>
        <time>2019-07-08T05:06:58Z</time>
      </trkpt>
      <trkpt lat="44.86685" lon="5.24741">
        <ele>1389.1999511719</ele>
        <time>2019-07-08T05:06:59Z</time>
      </trkpt>
      <trkpt lat="44.86684" lon="5.24741">
        <ele>1389.5999755859</ele>
        <time>2019-07-08T05:07:00Z</time>
      </trkpt>
      <trkpt lat="44.86683" lon="5.2474">
        <ele>1390</ele>
        <time>2019-07-08T05:07:01Z</time>
      </trkpt>
      <trkpt lat="44.86674" lon="5.24735">
        <ele>1390</ele>
        <time>2019-07-08T05:07:07Z</time>
      </trkpt>
      <trkpt lat="44.86664" lon="5.24729">
        <ele>1390.4000244141</ele>
        <time>2019-07-08T05:07:14Z</time>
      </trkpt>
      <trkpt lat="44.86663" lon="5.24728">
        <ele>1390.8000488281</ele>
        <time>2019-07-08T05:07:15Z</time>
      </trkpt>
      <trkpt lat="44.86661" lon="5.24729">
        <ele>1391.1999511719</ele>
        <time>2019-07-08T05:07:16Z</time>
      </trkpt>
      <trkpt lat="44.86659" lon="5.24729">
        <ele>1391.5999755859</ele>
        <time>2019-07-08T05:07:17Z</time>
      </trkpt>
      <trkpt lat="44.86658" lon="5.2473">
        <ele>1392</ele>
        <time>2019-07-08T05:07:18Z</time>
      </trkpt>
      <trkpt lat="44.86653" lon="5.24731">
        <ele>1392</ele>
        <time>2019-07-08T05:07:21Z</time>
      </trkpt>
      <trkpt lat="44.86646" lon="5.2473">
        <ele>1392</ele>
        <time>2019-07-08T05:07:25Z</time>
      </trkpt>
      <trkpt lat="44.86638" lon="5.24728">
        <ele>1392</ele>
        <time>2019-07-08T05:07:29Z</time>
      </trkpt>
      <trkpt lat="44.86634" lon="5.24725">
        <ele>1392</ele>
        <time>2019-07-08T05:07:31Z</time>
      </trkpt>
      <trkpt lat="44.86629" lon="5.2472">
        <ele>1392</ele>
        <time>2019-07-08T05:07:34Z</time>
      </trkpt>
      <trkpt lat="44.86626" lon="5.24717">
        <ele>1392</ele>
        <time>2019-07-08T05:07:35Z</time>
      </trkpt>
      <trkpt lat="44.86609" lon="5.24701">
        <ele>1392</ele>
        <time>2019-07-08T05:07:41Z</time>
      </trkpt>
      <trkpt lat="44.86599" lon="5.24691">
        <ele>1392</ele>
        <time>2019-07-08T05:07:44Z</time>
      </trkpt>
      <trkpt lat="44.86592" lon="5.24683">
        <ele>1392</ele>
        <time>2019-07-08T05:07:46Z</time>
      </trkpt>
      <trkpt lat="44.8659" lon="5.24679">
        <ele>1392</ele>
        <time>2019-07-08T05:07:47Z</time>
      </trkpt>
      <trkpt lat="44.86586" lon="5.24661">
        <ele>1391.5999755859</ele>
        <time>2019-07-08T05:07:50Z</time>
      </trkpt>
      <trkpt lat="44.86587" lon="5.24654">
        <ele>1391.1999511719</ele>
        <time>2019-07-08T05:07:51Z</time>
      </trkpt>
      <trkpt lat="44.86588" lon="5.24649">
        <ele>1390.8000488281</ele>
        <time>2019-07-08T05:07:52Z</time>
      </trkpt>
      <trkpt lat="44.86589" lon="5.24643">
        <ele>1390.4000244141</ele>
        <time>2019-07-08T05:07:53Z</time>
      </trkpt>
      <trkpt lat="44.86591" lon="5.24637">
        <ele>1390</ele>
        <time>2019-07-08T05:07:54Z</time>
      </trkpt>
      <trkpt lat="44.86592" lon="5.24632">
        <ele>1390</ele>
        <time>2019-07-08T05:07:55Z</time>
      </trkpt>
      <trkpt lat="44.86593" lon="5.24627">
        <ele>1390</ele>
        <time>2019-07-08T05:07:56Z</time>
      </trkpt>
      <trkpt lat="44.86592" lon="5.24619">
        <ele>1390</ele>
        <time>2019-07-08T05:07:58Z</time>
      </trkpt>
      <trkpt lat="44.86591" lon="5.24612">
        <ele>1390</ele>
        <time>2019-07-08T05:08:00Z</time>
      </trkpt>
      <trkpt lat="44.86583" lon="5.24593">
        <ele>1390</ele>
        <time>2019-07-08T05:08:06Z</time>
      </trkpt>
      <trkpt lat="44.86576" lon="5.24574">
        <ele>1390</ele>
        <time>2019-07-08T05:08:12Z</time>
      </trkpt>
      <trkpt lat="44.86572" lon="5.24556">
        <ele>1390</ele>
        <time>2019-07-08T05:08:18Z</time>
      </trkpt>
      <trkpt lat="44.86565" lon="5.2454">
        <ele>1390.4000244141</ele>
        <time>2019-07-08T05:08:24Z</time>
      </trkpt>
      <trkpt lat="44.86564" lon="5.24537">
        <ele>1390.8000488281</ele>
        <time>2019-07-08T05:08:25Z</time>
      </trkpt>
      <trkpt lat="44.86563" lon="5.24535">
        <ele>1391.1999511719</ele>
        <time>2019-07-08T05:08:26Z</time>
      </trkpt>
      <trkpt lat="44.86563" lon="5.24532">
        <ele>1391.5999755859</ele>
        <time>2019-07-08T05:08:27Z</time>
      </trkpt>
      <trkpt lat="44.86563" lon="5.24529">
        <ele>1392</ele>
        <time>2019-07-08T05:08:28Z</time>
      </trkpt>
      <trkpt lat="44.86562" lon="5.24526">
        <ele>1392</ele>
        <time>2019-07-08T05:08:29Z</time>
      </trkpt>
      <trkpt lat="44.86563" lon="5.24509">
        <ele>1392</ele>
        <time>2019-07-08T05:08:35Z</time>
      </trkpt>
      <trkpt lat="44.86567" lon="5.24495">
        <ele>1392</ele>
        <time>2019-07-08T05:08:42Z</time>
      </trkpt>
      <trkpt lat="44.86572" lon="5.24477">
        <ele>1392</ele>
        <time>2019-07-08T05:08:50Z</time>
      </trkpt>
      <trkpt lat="44.86576" lon="5.2446">
        <ele>1392</ele>
        <time>2019-07-08T05:08:55Z</time>
      </trkpt>
      <trkpt lat="44.86577" lon="5.24458">
        <ele>1392</ele>
        <time>2019-07-08T05:08:58Z</time>
      </trkpt>
      <trkpt lat="44.86577" lon="5.24458">
        <ele>1391.5999755859</ele>
        <time>2019-07-08T05:09:01Z</time>
      </trkpt>
      <trkpt lat="44.86577" lon="5.24458">
        <ele>1391.1999511719</ele>
        <time>2019-07-08T05:09:02Z</time>
      </trkpt>
      <trkpt lat="44.86577" lon="5.24458">
        <ele>1390.5999755859</ele>
        <time>2019-07-08T05:09:03Z</time>
      </trkpt>
      <trkpt lat="44.86577" lon="5.24458">
        <ele>1390.1999511719</ele>
        <time>2019-07-08T05:09:04Z</time>
      </trkpt>
      <trkpt lat="44.86577" lon="5.24458">
        <ele>1389.8000488281</ele>
        <time>2019-07-08T05:09:05Z</time>
      </trkpt>
      <trkpt lat="44.86577" lon="5.24458">
        <ele>1388.5999755859</ele>
        <time>2019-07-08T05:09:07Z</time>
      </trkpt>
      <trkpt lat="44.86577" lon="5.24458">
        <ele>1389</ele>
        <time>2019-07-08T05:09:08Z</time>
      </trkpt>
      <trkpt lat="44.86577" lon="5.24458">
        <ele>1389.5999755859</ele>
        <time>2019-07-08T05:09:09Z</time>
      </trkpt>
      <trkpt lat="44.86577" lon="5.24458">
        <ele>1391</ele>
        <time>2019-07-08T05:09:10Z</time>
      </trkpt>
      <trkpt lat="44.86577" lon="5.24458">
        <ele>1391</ele>
        <time>2019-07-08T05:09:11Z</time>
      </trkpt>
      <trkpt lat="44.86577" lon="5.24458">
        <ele>1391</ele>
        <time>2019-07-08T05:09:12Z</time>
      </trkpt>
      <trkpt lat="44.86577" lon="5.24458">
        <ele>1390.8000488281</ele>
        <time>2019-07-08T05:09:13Z</time>
      </trkpt>
      <trkpt lat="44.86577" lon="5.24458">
        <ele>1390.8000488281</ele>
        <time>2019-07-08T05:09:14Z</time>
      </trkpt>
      <trkpt lat="44.86577" lon="5.24458">
        <ele>1390.8000488281</ele>
        <time>2019-07-08T05:09:16Z</time>
      </trkpt>
      <trkpt lat="44.86577" lon="5.24458">
        <ele>1390.8000488281</ele>
        <time>2019-07-08T05:09:34Z</time>
      </trkpt>
      <trkpt lat="44.86578" lon="5.24458">
        <ele>1390.8000488281</ele>
        <time>2019-07-08T05:09:54Z</time>
      </trkpt>
      <trkpt lat="44.86578" lon="5.24458">
        <ele>1390.8000488281</ele>
        <time>2019-07-08T05:10:08Z</time>
      </trkpt>
      <trkpt lat="44.86578" lon="5.24458">
        <ele>1390.8000488281</ele>
        <time>2019-07-08T05:10:19Z</time>
      </trkpt>
      <trkpt lat="44.86578" lon="5.24458">
        <ele>1390.8000488281</ele>
        <time>2019-07-08T05:10:32Z</time>
      </trkpt>
      <trkpt lat="44.86581" lon="5.2445">
        <ele>1390.8000488281</ele>
        <time>2019-07-08T05:10:36Z</time>
      </trkpt>
      <trkpt lat="44.86586" lon="5.24433">
        <ele>1390.8000488281</ele>
        <time>2019-07-08T05:10:41Z</time>
      </trkpt>
      <trkpt lat="44.86588" lon="5.24424">
        <ele>1390.8000488281</ele>
        <time>2019-07-08T05:10:45Z</time>
      </trkpt>
      <trkpt lat="44.86587" lon="5.24422">
        <ele>1390.4000244141</ele>
        <time>2019-07-08T05:10:52Z</time>
      </trkpt>
      <trkpt lat="44.86586" lon="5.24423">
        <ele>1390</ele>
        <time>2019-07-08T05:10:53Z</time>
      </trkpt>
      <trkpt lat="44.86586" lon="5.24423">
        <ele>1389.4000244141</ele>
        <time>2019-07-08T05:10:54Z</time>
      </trkpt>
      <trkpt lat="44.86586" lon="5.24423">
        <ele>1389</ele>
        <time>2019-07-08T05:10:55Z</time>
      </trkpt>
      <trkpt lat="44.86586" lon="5.24423">
        <ele>1388.5999755859</ele>
        <time>2019-07-08T05:10:56Z</time>
      </trkpt>
      <trkpt lat="44.86586" lon="5.24423">
        <ele>1388.5999755859</ele>
        <time>2019-07-08T05:10:58Z</time>
      </trkpt>
      <trkpt lat="44.86586" lon="5.24423">
        <ele>1388.5999755859</ele>
        <time>2019-07-08T05:11:08Z</time>
      </trkpt>
      <trkpt lat="44.86584" lon="5.24423">
        <ele>1388.5999755859</ele>
        <time>2019-07-08T05:11:13Z</time>
      </trkpt>
      <trkpt lat="44.86583" lon="5.24422">
        <ele>1388.5999755859</ele>
        <time>2019-07-08T05:11:14Z</time>
      </trkpt>
      <trkpt lat="44.86572" lon="5.24424">
        <ele>1388.5999755859</ele>
        <time>2019-07-08T05:11:19Z</time>
      </trkpt>
      <trkpt lat="44.86566" lon="5.24423">
        <ele>1388.5999755859</ele>
        <time>2019-07-08T05:11:22Z</time>
      </trkpt>
      <trkpt lat="44.86563" lon="5.24423">
        <ele>1388.5999755859</ele>
        <time>2019-07-08T05:11:23Z</time>
      </trkpt>
      <trkpt lat="44.86556" lon="5.2442">
        <ele>1388.1999511719</ele>
        <time>2019-07-08T05:11:25Z</time>
      </trkpt>
      <trkpt lat="44.86551" lon="5.24419">
        <ele>1387.8000488281</ele>
        <time>2019-07-08T05:11:26Z</time>
      </trkpt>
      <trkpt lat="44.86545" lon="5.24418">
        <ele>1387.1999511719</ele>
        <time>2019-07-08T05:11:27Z</time>
      </trkpt>
      <trkpt lat="44.86539" lon="5.24415">
        <ele>1386.8000488281</ele>
        <time>2019-07-08T05:11:28Z</time>
      </trkpt>
      <trkpt lat="44.86531" lon="5.24413">
        <ele>1386.1999511719</ele>
        <time>2019-07-08T05:11:29Z</time>
      </trkpt>
      <trkpt lat="44.86524" lon="5.2441">
        <ele>1385.4000244141</ele>
        <time>2019-07-08T05:11:30Z</time>
      </trkpt>
      <trkpt lat="44.86516" lon="5.24404">
        <ele>1384.5999755859</ele>
        <time>2019-07-08T05:11:31Z</time>
      </trkpt>
      <trkpt lat="44.8651" lon="5.24399">
        <ele>1383.8000488281</ele>
        <time>2019-07-08T05:11:32Z</time>
      </trkpt>
      <trkpt lat="44.86504" lon="5.24395">
        <ele>1382.8000488281</ele>
        <time>2019-07-08T05:11:33Z</time>
      </trkpt>
      <trkpt lat="44.86498" lon="5.2439">
        <ele>1382</ele>
        <time>2019-07-08T05:11:34Z</time>
      </trkpt>
      <trkpt lat="44.86493" lon="5.24383">
        <ele>1381.1999511719</ele>
        <time>2019-07-08T05:11:35Z</time>
      </trkpt>
      <trkpt lat="44.86488" lon="5.24376">
        <ele>1380.1999511719</ele>
        <time>2019-07-08T05:11:36Z</time>
      </trkpt>
      <trkpt lat="44.86484" lon="5.24368">
        <ele>1379.1999511719</ele>
        <time>2019-07-08T05:11:37Z</time>
      </trkpt>
      <trkpt lat="44.86482" lon="5.24362">
        <ele>1377.4000244141</ele>
        <time>2019-07-08T05:11:38Z</time>
      </trkpt>
      <trkpt lat="44.86478" lon="5.24358">
        <ele>1376.4000244141</ele>
        <time>2019-07-08T05:11:39Z</time>
      </trkpt>
      <trkpt lat="44.86474" lon="5.24357">
        <ele>1375.4000244141</ele>
        <time>2019-07-08T05:11:40Z</time>
      </trkpt>
      <trkpt lat="44.86471" lon="5.24356">
        <ele>1374.5999755859</ele>
        <time>2019-07-08T05:11:41Z</time>
      </trkpt>
      <trkpt lat="44.86469" lon="5.24358">
        <ele>1373.5999755859</ele>
        <time>2019-07-08T05:11:42Z</time>
      </trkpt>
      <trkpt lat="44.86467" lon="5.24359">
        <ele>1372.8000488281</ele>
        <time>2019-07-08T05:11:43Z</time>
      </trkpt>
      <trkpt lat="44.86465" lon="5.2436">
        <ele>1372</ele>
        <time>2019-07-08T05:11:44Z</time>
      </trkpt>
      <trkpt lat="44.86463" lon="5.24362">
        <ele>1371</ele>
        <time>2019-07-08T05:11:45Z</time>
      </trkpt>
      <trkpt lat="44.86461" lon="5.24363">
        <ele>1370.5999755859</ele>
        <time>2019-07-08T05:11:46Z</time>
      </trkpt>
      <trkpt lat="44.86458" lon="5.24363">
        <ele>1370.1999511719</ele>
        <time>2019-07-08T05:11:47Z</time>
      </trkpt>
      <trkpt lat="44.86455" lon="5.24364">
        <ele>1369.5999755859</ele>
        <time>2019-07-08T05:11:48Z</time>
      </trkpt>
      <trkpt lat="44.86451" lon="5.24365">
        <ele>1369.1999511719</ele>
        <time>2019-07-08T05:11:49Z</time>
      </trkpt>
      <trkpt lat="44.86448" lon="5.24367">
        <ele>1368.8000488281</ele>
        <time>2019-07-08T05:11:50Z</time>
      </trkpt>
      <trkpt lat="44.86446" lon="5.24368">
        <ele>1368.4000244141</ele>
        <time>2019-07-08T05:11:51Z</time>
      </trkpt>
      <trkpt lat="44.86443" lon="5.2437">
        <ele>1368</ele>
        <time>2019-07-08T05:11:52Z</time>
      </trkpt>
      <trkpt lat="44.86442" lon="5.24371">
        <ele>1367.5999755859</ele>
        <time>2019-07-08T05:11:53Z</time>
      </trkpt>
      <trkpt lat="44.86441" lon="5.24372">
        <ele>1367</ele>
        <time>2019-07-08T05:11:54Z</time>
      </trkpt>
      <trkpt lat="44.86442" lon="5.24372">
        <ele>1366.5999755859</ele>
        <time>2019-07-08T05:11:55Z</time>
      </trkpt>
      <trkpt lat="44.86442" lon="5.24372">
        <ele>1366.5999755859</ele>
        <time>2019-07-08T05:11:56Z</time>
      </trkpt>
      <trkpt lat="44.8644" lon="5.24374">
        <ele>1366.5999755859</ele>
        <time>2019-07-08T05:12:08Z</time>
      </trkpt>
      <trkpt lat="44.86431" lon="5.24389">
        <ele>1366.5999755859</ele>
        <time>2019-07-08T05:12:13Z</time>
      </trkpt>
      <trkpt lat="44.86428" lon="5.24393">
        <ele>1366.1999511719</ele>
        <time>2019-07-08T05:12:14Z</time>
      </trkpt>
      <trkpt lat="44.86425" lon="5.24398">
        <ele>1365.8000488281</ele>
        <time>2019-07-08T05:12:15Z</time>
      </trkpt>
      <trkpt lat="44.86423" lon="5.24402">
        <ele>1365.4000244141</ele>
        <time>2019-07-08T05:12:16Z</time>
      </trkpt>
      <trkpt lat="44.86416" lon="5.2441">
        <ele>1364.5999755859</ele>
        <time>2019-07-08T05:12:17Z</time>
      </trkpt>
      <trkpt lat="44.86416" lon="5.2441">
        <ele>1364.5999755859</ele>
        <time>2019-07-08T05:12:18Z</time>
      </trkpt>
      <trkpt lat="44.86413" lon="5.24415">
        <ele>1364.1999511719</ele>
        <time>2019-07-08T05:12:19Z</time>
      </trkpt>
      <trkpt lat="44.86409" lon="5.2442">
        <ele>1363.5999755859</ele>
        <time>2019-07-08T05:12:20Z</time>
      </trkpt>
      <trkpt lat="44.86406" lon="5.24424">
        <ele>1363.1999511719</ele>
        <time>2019-07-08T05:12:21Z</time>
      </trkpt>
      <trkpt lat="44.86403" lon="5.2443">
        <ele>1362.8000488281</ele>
        <time>2019-07-08T05:12:22Z</time>
      </trkpt>
      <trkpt lat="44.86401" lon="5.24434">
        <ele>1362.1999511719</ele>
        <time>2019-07-08T05:12:23Z</time>
      </trkpt>
      <trkpt lat="44.86398" lon="5.2444">
        <ele>1361.8000488281</ele>
        <time>2019-07-08T05:12:24Z</time>
      </trkpt>
      <trkpt lat="44.86396" lon="5.24446">
        <ele>1361.1999511719</ele>
        <time>2019-07-08T05:12:25Z</time>
      </trkpt>
      <trkpt lat="44.86395" lon="5.24453">
        <ele>1360</ele>
        <time>2019-07-08T05:12:26Z</time>
      </trkpt>
      <trkpt lat="44.8639" lon="5.2446">
        <ele>1359.4000244141</ele>
        <time>2019-07-08T05:12:27Z</time>
      </trkpt>
      <trkpt lat="44.86387" lon="5.24469">
        <ele>1358.5999755859</ele>
        <time>2019-07-08T05:12:28Z</time>
      </trkpt>
      <trkpt lat="44.86383" lon="5.24478">
        <ele>1357.8000488281</ele>
        <time>2019-07-08T05:12:29Z</time>
      </trkpt>
      <trkpt lat="44.86381" lon="5.24488">
        <ele>1357</ele>
        <time>2019-07-08T05:12:30Z</time>
      </trkpt>
      <trkpt lat="44.86378" lon="5.24496">
        <ele>1356.1999511719</ele>
        <time>2019-07-08T05:12:31Z</time>
      </trkpt>
      <trkpt lat="44.86374" lon="5.24503">
        <ele>1355.4000244141</ele>
        <time>2019-07-08T05:12:32Z</time>
      </trkpt>
      <trkpt lat="44.86369" lon="5.24508">
        <ele>1354.4000244141</ele>
        <time>2019-07-08T05:12:33Z</time>
      </trkpt>
      <trkpt lat="44.86364" lon="5.24514">
        <ele>1354</ele>
        <time>2019-07-08T05:12:34Z</time>
      </trkpt>
      <trkpt lat="44.86359" lon="5.24521">
        <ele>1353.4000244141</ele>
        <time>2019-07-08T05:12:35Z</time>
      </trkpt>
      <trkpt lat="44.86355" lon="5.24528">
        <ele>1353</ele>
        <time>2019-07-08T05:12:36Z</time>
      </trkpt>
      <trkpt lat="44.86351" lon="5.24536">
        <ele>1352.4000244141</ele>
        <time>2019-07-08T05:12:37Z</time>
      </trkpt>
      <trkpt lat="44.86348" lon="5.24543">
        <ele>1352</ele>
        <time>2019-07-08T05:12:38Z</time>
      </trkpt>
      <trkpt lat="44.86345" lon="5.2455">
        <ele>1351.5999755859</ele>
        <time>2019-07-08T05:12:39Z</time>
      </trkpt>
      <trkpt lat="44.86342" lon="5.24557">
        <ele>1351.1999511719</ele>
        <time>2019-07-08T05:12:40Z</time>
      </trkpt>
      <trkpt lat="44.86339" lon="5.24563">
        <ele>1350.8000488281</ele>
        <time>2019-07-08T05:12:41Z</time>
      </trkpt>
      <trkpt lat="44.86336" lon="5.2457">
        <ele>1350.4000244141</ele>
        <time>2019-07-08T05:12:42Z</time>
      </trkpt>
      <trkpt lat="44.86334" lon="5.24576">
        <ele>1350</ele>
        <time>2019-07-08T05:12:43Z</time>
      </trkpt>
      <trkpt lat="44.86326" lon="5.24592">
        <ele>1350</ele>
        <time>2019-07-08T05:12:46Z</time>
      </trkpt>
      <trkpt lat="44.86319" lon="5.24603">
        <ele>1350</ele>
        <time>2019-07-08T05:12:50Z</time>
      </trkpt>
      <trkpt lat="44.86316" lon="5.24606">
        <ele>1350</ele>
        <time>2019-07-08T05:12:52Z</time>
      </trkpt>
      <trkpt lat="44.86313" lon="5.24606">
        <ele>1350</ele>
        <time>2019-07-08T05:12:54Z</time>
      </trkpt>
      <trkpt lat="44.86312" lon="5.24605">
        <ele>1350</ele>
        <time>2019-07-08T05:12:55Z</time>
      </trkpt>
      <trkpt lat="44.86301" lon="5.24604">
        <ele>1350</ele>
        <time>2019-07-08T05:13:00Z</time>
      </trkpt>
      <trkpt lat="44.86299" lon="5.24602">
        <ele>1349.5999755859</ele>
        <time>2019-07-08T05:13:01Z</time>
      </trkpt>
      <trkpt lat="44.86296" lon="5.24602">
        <ele>1349.1999511719</ele>
        <time>2019-07-08T05:13:02Z</time>
      </trkpt>
      <trkpt lat="44.86293" lon="5.24602">
        <ele>1348.5999755859</ele>
        <time>2019-07-08T05:13:03Z</time>
      </trkpt>
      <trkpt lat="44.86292" lon="5.24602">
        <ele>1348.1999511719</ele>
        <time>2019-07-08T05:13:04Z</time>
      </trkpt>
      <trkpt lat="44.86291" lon="5.24602">
        <ele>1347.8000488281</ele>
        <time>2019-07-08T05:13:05Z</time>
      </trkpt>
      <trkpt lat="44.8629" lon="5.24601">
        <ele>1347.8000488281</ele>
        <time>2019-07-08T05:13:09Z</time>
      </trkpt>
      <trkpt lat="44.8629" lon="5.24601">
        <ele>1347.8000488281</ele>
        <time>2019-07-08T05:13:21Z</time>
      </trkpt>
      <trkpt lat="44.8629" lon="5.24601">
        <ele>1347.8000488281</ele>
        <time>2019-07-08T05:13:34Z</time>
      </trkpt>
      <trkpt lat="44.86289" lon="5.24601">
        <ele>1347.8000488281</ele>
        <time>2019-07-08T05:13:49Z</time>
      </trkpt>
      <trkpt lat="44.86289" lon="5.24601">
        <ele>1347.8000488281</ele>
        <time>2019-07-08T05:14:02Z</time>
      </trkpt>
      <trkpt lat="44.86289" lon="5.246">
        <ele>1347.8000488281</ele>
        <time>2019-07-08T05:14:14Z</time>
      </trkpt>
      <trkpt lat="44.86284" lon="5.24596">
        <ele>1347.8000488281</ele>
        <time>2019-07-08T05:14:17Z</time>
      </trkpt>
      <trkpt lat="44.86281" lon="5.24593">
        <ele>1347.4000244141</ele>
        <time>2019-07-08T05:14:18Z</time>
      </trkpt>
      <trkpt lat="44.86279" lon="5.24588">
        <ele>1347</ele>
        <time>2019-07-08T05:14:19Z</time>
      </trkpt>
      <trkpt lat="44.86275" lon="5.24583">
        <ele>1346.4000244141</ele>
        <time>2019-07-08T05:14:20Z</time>
      </trkpt>
      <trkpt lat="44.86273" lon="5.24579">
        <ele>1345.8000488281</ele>
        <time>2019-07-08T05:14:21Z</time>
      </trkpt>
      <trkpt lat="44.86271" lon="5.24574">
        <ele>1345.1999511719</ele>
        <time>2019-07-08T05:14:22Z</time>
      </trkpt>
      <trkpt lat="44.8627" lon="5.24568">
        <ele>1344.5999755859</ele>
        <time>2019-07-08T05:14:23Z</time>
      </trkpt>
      <trkpt lat="44.86267" lon="5.24562">
        <ele>1343.8000488281</ele>
        <time>2019-07-08T05:14:24Z</time>
      </trkpt>
      <trkpt lat="44.86265" lon="5.24556">
        <ele>1343</ele>
        <time>2019-07-08T05:14:25Z</time>
      </trkpt>
      <trkpt lat="44.86264" lon="5.2455">
        <ele>1341.1999511719</ele>
        <time>2019-07-08T05:14:26Z</time>
      </trkpt>
      <trkpt lat="44.86261" lon="5.24544">
        <ele>1340.1999511719</ele>
        <time>2019-07-08T05:14:27Z</time>
      </trkpt>
      <trkpt lat="44.86259" lon="5.24539">
        <ele>1339.1999511719</ele>
        <time>2019-07-08T05:14:28Z</time>
      </trkpt>
      <trkpt lat="44.86256" lon="5.24537">
        <ele>1338.1999511719</ele>
        <time>2019-07-08T05:14:29Z</time>
      </trkpt>
      <trkpt lat="44.86254" lon="5.24532">
        <ele>1337</ele>
        <time>2019-07-08T05:14:30Z</time>
      </trkpt>
      <trkpt lat="44.86251" lon="5.24525">
        <ele>1336</ele>
        <time>2019-07-08T05:14:31Z</time>
      </trkpt>
      <trkpt lat="44.86248" lon="5.2452">
        <ele>1335</ele>
        <time>2019-07-08T05:14:32Z</time>
      </trkpt>
      <trkpt lat="44.86247" lon="5.24515">
        <ele>1333.8000488281</ele>
        <time>2019-07-08T05:14:33Z</time>
      </trkpt>
      <trkpt lat="44.86245" lon="5.2451">
        <ele>1332.8000488281</ele>
        <time>2019-07-08T05:14:34Z</time>
      </trkpt>
      <trkpt lat="44.86242" lon="5.24505">
        <ele>1331.5999755859</ele>
        <time>2019-07-08T05:14:35Z</time>
      </trkpt>
      <trkpt lat="44.8624" lon="5.245">
        <ele>1330.5999755859</ele>
        <time>2019-07-08T05:14:36Z</time>
      </trkpt>
      <trkpt lat="44.86237" lon="5.24496">
        <ele>1329.4000244141</ele>
        <time>2019-07-08T05:14:37Z</time>
      </trkpt>
      <trkpt lat="44.86234" lon="5.24493">
        <ele>1328.1999511719</ele>
        <time>2019-07-08T05:14:38Z</time>
      </trkpt>
      <trkpt lat="44.86232" lon="5.24491">
        <ele>1327</ele>
        <time>2019-07-08T05:14:39Z</time>
      </trkpt>
      <trkpt lat="44.8623" lon="5.24489">
        <ele>1326</ele>
        <time>2019-07-08T05:14:40Z</time>
      </trkpt>
      <trkpt lat="44.8623" lon="5.2449">
        <ele>1324.8000488281</ele>
        <time>2019-07-08T05:14:41Z</time>
      </trkpt>
      <trkpt lat="44.8623" lon="5.24492">
        <ele>1323.5999755859</ele>
        <time>2019-07-08T05:14:42Z</time>
      </trkpt>
      <trkpt lat="44.8623" lon="5.24491">
        <ele>1323</ele>
        <time>2019-07-08T05:14:43Z</time>
      </trkpt>
      <trkpt lat="44.8623" lon="5.24491">
        <ele>1322.4000244141</ele>
        <time>2019-07-08T05:14:44Z</time>
      </trkpt>
      <trkpt lat="44.8623" lon="5.24491">
        <ele>1321.5999755859</ele>
        <time>2019-07-08T05:14:45Z</time>
      </trkpt>
      <trkpt lat="44.8623" lon="5.24491">
        <ele>1321</ele>
        <time>2019-07-08T05:14:46Z</time>
      </trkpt>
      <trkpt lat="44.8623" lon="5.24491">
        <ele>1320.4000244141</ele>
        <time>2019-07-08T05:14:47Z</time>
      </trkpt>
      <trkpt lat="44.8623" lon="5.24491">
        <ele>1320.4000244141</ele>
        <time>2019-07-08T05:14:48Z</time>
      </trkpt>
      <trkpt lat="44.8623" lon="5.24491">
        <ele>1320.4000244141</ele>
        <time>2019-07-08T05:15:06Z</time>
      </trkpt>
      <trkpt lat="44.8623" lon="5.24491">
        <ele>1320.4000244141</ele>
        <time>2019-07-08T05:15:25Z</time>
      </trkpt>
      <trkpt lat="44.8623" lon="5.24491">
        <ele>1320.4000244141</ele>
        <time>2019-07-08T05:15:39Z</time>
      </trkpt>
      <trkpt lat="44.8623" lon="5.24491">
        <ele>1320.4000244141</ele>
        <time>2019-07-08T05:15:58Z</time>
      </trkpt>
      <trkpt lat="44.8623" lon="5.24491">
        <ele>1320.4000244141</ele>
        <time>2019-07-08T05:16:17Z</time>
      </trkpt>
      <trkpt lat="44.8623" lon="5.24491">
        <ele>1320.4000244141</ele>
        <time>2019-07-08T05:16:37Z</time>
      </trkpt>
      <trkpt lat="44.8623" lon="5.24491">
        <ele>1320.4000244141</ele>
        <time>2019-07-08T05:16:54Z</time>
      </trkpt>
      <trkpt lat="44.86229" lon="5.24489">
        <ele>1320.4000244141</ele>
        <time>2019-07-08T05:16:58Z</time>
      </trkpt>
      <trkpt lat="44.86228" lon="5.24484">
        <ele>1320.4000244141</ele>
        <time>2019-07-08T05:16:59Z</time>
      </trkpt>
      <trkpt lat="44.86224" lon="5.24472">
        <ele>1319.8000488281</ele>
        <time>2019-07-08T05:17:01Z</time>
      </trkpt>
      <trkpt lat="44.8622" lon="5.24466">
        <ele>1319.4000244141</ele>
        <time>2019-07-08T05:17:02Z</time>
      </trkpt>
      <trkpt lat="44.86217" lon="5.24458">
        <ele>1318.4000244141</ele>
        <time>2019-07-08T05:17:03Z</time>
      </trkpt>
      <trkpt lat="44.86214" lon="5.24451">
        <ele>1317.1999511719</ele>
        <time>2019-07-08T05:17:04Z</time>
      </trkpt>
      <trkpt lat="44.8621" lon="5.24442">
        <ele>1316</ele>
        <time>2019-07-08T05:17:05Z</time>
      </trkpt>
      <trkpt lat="44.86207" lon="5.24433">
        <ele>1314.4000244141</ele>
        <time>2019-07-08T05:17:06Z</time>
      </trkpt>
      <trkpt lat="44.86205" lon="5.24425">
        <ele>1312.5999755859</ele>
        <time>2019-07-08T05:17:07Z</time>
      </trkpt>
      <trkpt lat="44.86201" lon="5.24416">
        <ele>1310.8000488281</ele>
        <time>2019-07-08T05:17:08Z</time>
      </trkpt>
      <trkpt lat="44.86198" lon="5.24408">
        <ele>1308.8000488281</ele>
        <time>2019-07-08T05:17:09Z</time>
      </trkpt>
      <trkpt lat="44.86196" lon="5.24402">
        <ele>1306.5999755859</ele>
        <time>2019-07-08T05:17:10Z</time>
      </trkpt>
      <trkpt lat="44.86193" lon="5.24396">
        <ele>1304.8000488281</ele>
        <time>2019-07-08T05:17:11Z</time>
      </trkpt>
      <trkpt lat="44.86191" lon="5.24393">
        <ele>1303</ele>
        <time>2019-07-08T05:17:12Z</time>
      </trkpt>
      <trkpt lat="44.86188" lon="5.2439">
        <ele>1301</ele>
        <time>2019-07-08T05:17:13Z</time>
      </trkpt>
      <trkpt lat="44.86186" lon="5.24385">
        <ele>1299.8000488281</ele>
        <time>2019-07-08T05:17:14Z</time>
      </trkpt>
      <trkpt lat="44.86186" lon="5.2438">
        <ele>1298.5999755859</ele>
        <time>2019-07-08T05:17:15Z</time>
      </trkpt>
      <trkpt lat="44.86184" lon="5.24375">
        <ele>1296.1999511719</ele>
        <time>2019-07-08T05:17:16Z</time>
      </trkpt>
      <trkpt lat="44.86183" lon="5.24371">
        <ele>1295</ele>
        <time>2019-07-08T05:17:17Z</time>
      </trkpt>
      <trkpt lat="44.86181" lon="5.24368">
        <ele>1294.5999755859</ele>
        <time>2019-07-08T05:17:18Z</time>
      </trkpt>
      <trkpt lat="44.8618" lon="5.24365">
        <ele>1294.1999511719</ele>
        <time>2019-07-08T05:17:19Z</time>
      </trkpt>
      <trkpt lat="44.86178" lon="5.24362">
        <ele>1293.8000488281</ele>
        <time>2019-07-08T05:17:20Z</time>
      </trkpt>
      <trkpt lat="44.86176" lon="5.24358">
        <ele>1293.4000244141</ele>
        <time>2019-07-08T05:17:21Z</time>
      </trkpt>
      <trkpt lat="44.86174" lon="5.24354">
        <ele>1293</ele>
        <time>2019-07-08T05:17:22Z</time>
      </trkpt>
      <trkpt lat="44.86168" lon="5.24341">
        <ele>1292.5999755859</ele>
        <time>2019-07-08T05:17:25Z</time>
      </trkpt>
      <trkpt lat="44.86167" lon="5.24339">
        <ele>1292</ele>
        <time>2019-07-08T05:17:26Z</time>
      </trkpt>
      <trkpt lat="44.86167" lon="5.24336">
        <ele>1291.5999755859</ele>
        <time>2019-07-08T05:17:27Z</time>
      </trkpt>
      <trkpt lat="44.86167" lon="5.24334">
        <ele>1291.1999511719</ele>
        <time>2019-07-08T05:17:28Z</time>
      </trkpt>
      <trkpt lat="44.86167" lon="5.24333">
        <ele>1290.5999755859</ele>
        <time>2019-07-08T05:17:29Z</time>
      </trkpt>
      <trkpt lat="44.86167" lon="5.24334">
        <ele>1290.5999755859</ele>
        <time>2019-07-08T05:17:30Z</time>
      </trkpt>
      <trkpt lat="44.86169" lon="5.2433">
        <ele>1290.1999511719</ele>
        <time>2019-07-08T05:17:35Z</time>
      </trkpt>
      <trkpt lat="44.8617" lon="5.24326">
        <ele>1289.8000488281</ele>
        <time>2019-07-08T05:17:36Z</time>
      </trkpt>
      <trkpt lat="44.86168" lon="5.24321">
        <ele>1289.4000244141</ele>
        <time>2019-07-08T05:17:37Z</time>
      </trkpt>
      <trkpt lat="44.86167" lon="5.24316">
        <ele>1288.5999755859</ele>
        <time>2019-07-08T05:17:38Z</time>
      </trkpt>
      <trkpt lat="44.86164" lon="5.24309">
        <ele>1288</ele>
        <time>2019-07-08T05:17:39Z</time>
      </trkpt>
      <trkpt lat="44.86161" lon="5.24301">
        <ele>1286.4000244141</ele>
        <time>2019-07-08T05:17:40Z</time>
      </trkpt>
      <trkpt lat="44.86158" lon="5.24292">
        <ele>1285.4000244141</ele>
        <time>2019-07-08T05:17:41Z</time>
      </trkpt>
      <trkpt lat="44.86154" lon="5.24282">
        <ele>1284.4000244141</ele>
        <time>2019-07-08T05:17:42Z</time>
      </trkpt>
      <trkpt lat="44.86152" lon="5.2427">
        <ele>1283.1999511719</ele>
        <time>2019-07-08T05:17:43Z</time>
      </trkpt>
      <trkpt lat="44.86149" lon="5.24261">
        <ele>1281.8000488281</ele>
        <time>2019-07-08T05:17:44Z</time>
      </trkpt>
      <trkpt lat="44.86146" lon="5.24251">
        <ele>1280.5999755859</ele>
        <time>2019-07-08T05:17:45Z</time>
      </trkpt>
      <trkpt lat="44.86143" lon="5.24241">
        <ele>1279.4000244141</ele>
        <time>2019-07-08T05:17:46Z</time>
      </trkpt>
      <trkpt lat="44.86139" lon="5.24233">
        <ele>1278.1999511719</ele>
        <time>2019-07-08T05:17:47Z</time>
      </trkpt>
      <trkpt lat="44.86136" lon="5.24226">
        <ele>1276.8000488281</ele>
        <time>2019-07-08T05:17:48Z</time>
      </trkpt>
      <trkpt lat="44.86132" lon="5.24217">
        <ele>1275.4000244141</ele>
        <time>2019-07-08T05:17:49Z</time>
      </trkpt>
      <trkpt lat="44.86128" lon="5.24211">
        <ele>1274.1999511719</ele>
        <time>2019-07-08T05:17:50Z</time>
      </trkpt>
      <trkpt lat="44.86125" lon="5.24206">
        <ele>1272.8000488281</ele>
        <time>2019-07-08T05:17:51Z</time>
      </trkpt>
      <trkpt lat="44.86122" lon="5.242">
        <ele>1271.4000244141</ele>
        <time>2019-07-08T05:17:52Z</time>
      </trkpt>
      <trkpt lat="44.86119" lon="5.24193">
        <ele>1270</ele>
        <time>2019-07-08T05:17:53Z</time>
      </trkpt>
      <trkpt lat="44.86116" lon="5.24189">
        <ele>1268.8000488281</ele>
        <time>2019-07-08T05:17:54Z</time>
      </trkpt>
      <trkpt lat="44.86113" lon="5.24183">
        <ele>1267.4000244141</ele>
        <time>2019-07-08T05:17:55Z</time>
      </trkpt>
      <trkpt lat="44.86111" lon="5.24177">
        <ele>1266.1999511719</ele>
        <time>2019-07-08T05:17:56Z</time>
      </trkpt>
      <trkpt lat="44.86109" lon="5.24175">
        <ele>1265</ele>
        <time>2019-07-08T05:17:57Z</time>
      </trkpt>
      <trkpt lat="44.86107" lon="5.24168">
        <ele>1263.5999755859</ele>
        <time>2019-07-08T05:17:58Z</time>
      </trkpt>
      <trkpt lat="44.86104" lon="5.24161">
        <ele>1262.4000244141</ele>
        <time>2019-07-08T05:17:59Z</time>
      </trkpt>
      <trkpt lat="44.86102" lon="5.24154">
        <ele>1261.1999511719</ele>
        <time>2019-07-08T05:18:00Z</time>
      </trkpt>
      <trkpt lat="44.86099" lon="5.24149">
        <ele>1260.1999511719</ele>
        <time>2019-07-08T05:18:01Z</time>
      </trkpt>
      <trkpt lat="44.86096" lon="5.24142">
        <ele>1259</ele>
        <time>2019-07-08T05:18:02Z</time>
      </trkpt>
      <trkpt lat="44.86094" lon="5.24134">
        <ele>1257.8000488281</ele>
        <time>2019-07-08T05:18:03Z</time>
      </trkpt>
      <trkpt lat="44.86092" lon="5.24129">
        <ele>1255.4000244141</ele>
        <time>2019-07-08T05:18:04Z</time>
      </trkpt>
      <trkpt lat="44.8609" lon="5.24122">
        <ele>1254.4000244141</ele>
        <time>2019-07-08T05:18:05Z</time>
      </trkpt>
      <trkpt lat="44.86087" lon="5.24116">
        <ele>1253.4000244141</ele>
        <time>2019-07-08T05:18:06Z</time>
      </trkpt>
      <trkpt lat="44.86084" lon="5.2411">
        <ele>1252.5999755859</ele>
        <time>2019-07-08T05:18:07Z</time>
      </trkpt>
      <trkpt lat="44.86081" lon="5.24105">
        <ele>1251.5999755859</ele>
        <time>2019-07-08T05:18:08Z</time>
      </trkpt>
      <trkpt lat="44.8608" lon="5.24102">
        <ele>1250.5999755859</ele>
        <time>2019-07-08T05:18:09Z</time>
      </trkpt>
      <trkpt lat="44.86079" lon="5.24097">
        <ele>1249.5999755859</ele>
        <time>2019-07-08T05:18:10Z</time>
      </trkpt>
      <trkpt lat="44.86079" lon="5.24089">
        <ele>1248.5999755859</ele>
        <time>2019-07-08T05:18:11Z</time>
      </trkpt>
      <trkpt lat="44.86078" lon="5.24085">
        <ele>1247.5999755859</ele>
        <time>2019-07-08T05:18:12Z</time>
      </trkpt>
      <trkpt lat="44.86078" lon="5.24082">
        <ele>1246.5999755859</ele>
        <time>2019-07-08T05:18:13Z</time>
      </trkpt>
      <trkpt lat="44.86078" lon="5.24079">
        <ele>1245.5999755859</ele>
        <time>2019-07-08T05:18:14Z</time>
      </trkpt>
      <trkpt lat="44.86078" lon="5.24075">
        <ele>1244.8000488281</ele>
        <time>2019-07-08T05:18:15Z</time>
      </trkpt>
      <trkpt lat="44.86077" lon="5.24071">
        <ele>1244</ele>
        <time>2019-07-08T05:18:16Z</time>
      </trkpt>
      <trkpt lat="44.86076" lon="5.24071">
        <ele>1243.1999511719</ele>
        <time>2019-07-08T05:18:17Z</time>
      </trkpt>
      <trkpt lat="44.86075" lon="5.24072">
        <ele>1242.4000244141</ele>
        <time>2019-07-08T05:18:18Z</time>
      </trkpt>
      <trkpt lat="44.86073" lon="5.24073">
        <ele>1241.8000488281</ele>
        <time>2019-07-08T05:18:19Z</time>
      </trkpt>
      <trkpt lat="44.86071" lon="5.24074">
        <ele>1241</ele>
        <time>2019-07-08T05:18:20Z</time>
      </trkpt>
      <trkpt lat="44.86068" lon="5.24073">
        <ele>1240.4000244141</ele>
        <time>2019-07-08T05:18:21Z</time>
      </trkpt>
      <trkpt lat="44.86066" lon="5.24067">
        <ele>1239.8000488281</ele>
        <time>2019-07-08T05:18:22Z</time>
      </trkpt>
      <trkpt lat="44.86065" lon="5.24061">
        <ele>1239.1999511719</ele>
        <time>2019-07-08T05:18:23Z</time>
      </trkpt>
      <trkpt lat="44.86065" lon="5.24053">
        <ele>1238.5999755859</ele>
        <time>2019-07-08T05:18:24Z</time>
      </trkpt>
      <trkpt lat="44.86067" lon="5.24048">
        <ele>1238</ele>
        <time>2019-07-08T05:18:25Z</time>
      </trkpt>
      <trkpt lat="44.86068" lon="5.24045">
        <ele>1237.1999511719</ele>
        <time>2019-07-08T05:18:26Z</time>
      </trkpt>
      <trkpt lat="44.8607" lon="5.24043">
        <ele>1235.8000488281</ele>
        <time>2019-07-08T05:18:27Z</time>
      </trkpt>
      <trkpt lat="44.86071" lon="5.24041">
        <ele>1235.1999511719</ele>
        <time>2019-07-08T05:18:28Z</time>
      </trkpt>
      <trkpt lat="44.86072" lon="5.24036">
        <ele>1234.5999755859</ele>
        <time>2019-07-08T05:18:29Z</time>
      </trkpt>
      <trkpt lat="44.86076" lon="5.24032">
        <ele>1234</ele>
        <time>2019-07-08T05:18:30Z</time>
      </trkpt>
      <trkpt lat="44.86079" lon="5.24025">
        <ele>1233.4000244141</ele>
        <time>2019-07-08T05:18:31Z</time>
      </trkpt>
      <trkpt lat="44.86084" lon="5.24022">
        <ele>1232.8000488281</ele>
        <time>2019-07-08T05:18:32Z</time>
      </trkpt>
      <trkpt lat="44.86084" lon="5.24016">
        <ele>1232</ele>
        <time>2019-07-08T05:18:33Z</time>
      </trkpt>
      <trkpt lat="44.86089" lon="5.2401">
        <ele>1231.4000244141</ele>
        <time>2019-07-08T05:18:34Z</time>
      </trkpt>
      <trkpt lat="44.86095" lon="5.24005">
        <ele>1230.5999755859</ele>
        <time>2019-07-08T05:18:35Z</time>
      </trkpt>
      <trkpt lat="44.86099" lon="5.24002">
        <ele>1229.8000488281</ele>
        <time>2019-07-08T05:18:36Z</time>
      </trkpt>
      <trkpt lat="44.86103" lon="5.24001">
        <ele>1229</ele>
        <time>2019-07-08T05:18:37Z</time>
      </trkpt>
      <trkpt lat="44.86106" lon="5.24002">
        <ele>1228.1999511719</ele>
        <time>2019-07-08T05:18:38Z</time>
      </trkpt>
      <trkpt lat="44.86106" lon="5.24">
        <ele>1227.4000244141</ele>
        <time>2019-07-08T05:18:39Z</time>
      </trkpt>
      <trkpt lat="44.86106" lon="5.23999">
        <ele>1226.5999755859</ele>
        <time>2019-07-08T05:18:40Z</time>
      </trkpt>
      <trkpt lat="44.86106" lon="5.23999">
        <ele>1225.8000488281</ele>
        <time>2019-07-08T05:18:41Z</time>
      </trkpt>
      <trkpt lat="44.86104" lon="5.23996">
        <ele>1224.8000488281</ele>
        <time>2019-07-08T05:18:42Z</time>
      </trkpt>
      <trkpt lat="44.86103" lon="5.23993">
        <ele>1224.1999511719</ele>
        <time>2019-07-08T05:18:43Z</time>
      </trkpt>
      <trkpt lat="44.86102" lon="5.23989">
        <ele>1223.8000488281</ele>
        <time>2019-07-08T05:18:44Z</time>
      </trkpt>
      <trkpt lat="44.861" lon="5.23986">
        <ele>1223.1999511719</ele>
        <time>2019-07-08T05:18:45Z</time>
      </trkpt>
      <trkpt lat="44.861" lon="5.23985">
        <ele>1222.4000244141</ele>
        <time>2019-07-08T05:18:46Z</time>
      </trkpt>
      <trkpt lat="44.86101" lon="5.23986">
        <ele>1221.8000488281</ele>
        <time>2019-07-08T05:18:47Z</time>
      </trkpt>
      <trkpt lat="44.86101" lon="5.23986">
        <ele>1221</ele>
        <time>2019-07-08T05:18:48Z</time>
      </trkpt>
      <trkpt lat="44.86101" lon="5.23985">
        <ele>1220.4000244141</ele>
        <time>2019-07-08T05:18:49Z</time>
      </trkpt>
      <trkpt lat="44.86101" lon="5.23985">
        <ele>1219.5999755859</ele>
        <time>2019-07-08T05:18:50Z</time>
      </trkpt>
      <trkpt lat="44.86103" lon="5.23984">
        <ele>1219.5999755859</ele>
        <time>2019-07-08T05:18:54Z</time>
      </trkpt>
      <trkpt lat="44.86103" lon="5.23982">
        <ele>1219.5999755859</ele>
        <time>2019-07-08T05:18:58Z</time>
      </trkpt>
      <trkpt lat="44.86102" lon="5.2398">
        <ele>1219.1999511719</ele>
        <time>2019-07-08T05:18:59Z</time>
      </trkpt>
      <trkpt lat="44.861" lon="5.23977">
        <ele>1218.8000488281</ele>
        <time>2019-07-08T05:19:00Z</time>
      </trkpt>
      <trkpt lat="44.86098" lon="5.23973">
        <ele>1218.1999511719</ele>
        <time>2019-07-08T05:19:01Z</time>
      </trkpt>
      <trkpt lat="44.86096" lon="5.2397">
        <ele>1217.5999755859</ele>
        <time>2019-07-08T05:19:02Z</time>
      </trkpt>
      <trkpt lat="44.86096" lon="5.23968">
        <ele>1216.8000488281</ele>
        <time>2019-07-08T05:19:03Z</time>
      </trkpt>
      <trkpt lat="44.86096" lon="5.23965">
        <ele>1216.1999511719</ele>
        <time>2019-07-08T05:19:04Z</time>
      </trkpt>
      <trkpt lat="44.86095" lon="5.23963">
        <ele>1215.4000244141</ele>
        <time>2019-07-08T05:19:05Z</time>
      </trkpt>
      <trkpt lat="44.86095" lon="5.23963">
        <ele>1215</ele>
        <time>2019-07-08T05:19:06Z</time>
      </trkpt>
      <trkpt lat="44.86095" lon="5.23963">
        <ele>1214.4000244141</ele>
        <time>2019-07-08T05:19:07Z</time>
      </trkpt>
      <trkpt lat="44.86095" lon="5.23963">
        <ele>1213.8000488281</ele>
        <time>2019-07-08T05:19:08Z</time>
      </trkpt>
      <trkpt lat="44.86095" lon="5.23963">
        <ele>1213.1999511719</ele>
        <time>2019-07-08T05:19:09Z</time>
      </trkpt>
      <trkpt lat="44.86095" lon="5.23963">
        <ele>1212.5999755859</ele>
        <time>2019-07-08T05:19:10Z</time>
      </trkpt>
      <trkpt lat="44.86095" lon="5.23963">
        <ele>1212.5999755859</ele>
        <time>2019-07-08T05:19:12Z</time>
      </trkpt>
      <trkpt lat="44.86095" lon="5.23963">
        <ele>1212.5999755859</ele>
        <time>2019-07-08T05:19:18Z</time>
      </trkpt>
      <trkpt lat="44.86095" lon="5.23963">
        <ele>1212.5999755859</ele>
        <time>2019-07-08T05:19:27Z</time>
      </trkpt>
      <trkpt lat="44.86095" lon="5.23963">
        <ele>1212.5999755859</ele>
        <time>2019-07-08T05:19:40Z</time>
      </trkpt>
      <trkpt lat="44.86095" lon="5.23962">
        <ele>1212.5999755859</ele>
        <time>2019-07-08T05:19:56Z</time>
      </trkpt>
      <trkpt lat="44.86095" lon="5.23962">
        <ele>1212.5999755859</ele>
        <time>2019-07-08T05:20:08Z</time>
      </trkpt>
      <trkpt lat="44.86095" lon="5.23962">
        <ele>1212.5999755859</ele>
        <time>2019-07-08T05:20:24Z</time>
      </trkpt>
      <trkpt lat="44.86096" lon="5.23961">
        <ele>1212.5999755859</ele>
        <time>2019-07-08T05:20:37Z</time>
      </trkpt>
      <trkpt lat="44.86096" lon="5.23961">
        <ele>1212.5999755859</ele>
        <time>2019-07-08T05:20:50Z</time>
      </trkpt>
      <trkpt lat="44.86096" lon="5.23961">
        <ele>1212.5999755859</ele>
        <time>2019-07-08T05:21:06Z</time>
      </trkpt>
      <trkpt lat="44.86096" lon="5.23961">
        <ele>1212.5999755859</ele>
        <time>2019-07-08T05:21:15Z</time>
      </trkpt>
      <trkpt lat="44.86092" lon="5.23967">
        <ele>1212.5999755859</ele>
        <time>2019-07-08T05:21:19Z</time>
      </trkpt>
      <trkpt lat="44.86084" lon="5.23973">
        <ele>1212.5999755859</ele>
        <time>2019-07-08T05:21:23Z</time>
      </trkpt>
      <trkpt lat="44.86082" lon="5.23975">
        <ele>1212.1999511719</ele>
        <time>2019-07-08T05:21:24Z</time>
      </trkpt>
      <trkpt lat="44.8608" lon="5.23978">
        <ele>1211.5999755859</ele>
        <time>2019-07-08T05:21:25Z</time>
      </trkpt>
      <trkpt lat="44.86077" lon="5.23981">
        <ele>1211.1999511719</ele>
        <time>2019-07-08T05:21:26Z</time>
      </trkpt>
      <trkpt lat="44.86073" lon="5.23982">
        <ele>1210.8000488281</ele>
        <time>2019-07-08T05:21:27Z</time>
      </trkpt>
      <trkpt lat="44.8607" lon="5.23984">
        <ele>1210.1999511719</ele>
        <time>2019-07-08T05:21:28Z</time>
      </trkpt>
      <trkpt lat="44.86067" lon="5.23985">
        <ele>1209.8000488281</ele>
        <time>2019-07-08T05:21:29Z</time>
      </trkpt>
      <trkpt lat="44.86065" lon="5.23986">
        <ele>1209.1999511719</ele>
        <time>2019-07-08T05:21:30Z</time>
      </trkpt>
      <trkpt lat="44.86064" lon="5.23987">
        <ele>1208.8000488281</ele>
        <time>2019-07-08T05:21:31Z</time>
      </trkpt>
      <trkpt lat="44.86063" lon="5.23987">
        <ele>1208.1999511719</ele>
        <time>2019-07-08T05:21:32Z</time>
      </trkpt>
      <trkpt lat="44.86061" lon="5.23987">
        <ele>1208.1999511719</ele>
        <time>2019-07-08T05:21:33Z</time>
      </trkpt>
      <trkpt lat="44.86055" lon="5.23992">
        <ele>1208.1999511719</ele>
        <time>2019-07-08T05:21:37Z</time>
      </trkpt>
      <trkpt lat="44.86053" lon="5.23994">
        <ele>1207.8000488281</ele>
        <time>2019-07-08T05:21:38Z</time>
      </trkpt>
      <trkpt lat="44.86052" lon="5.23995">
        <ele>1207.4000244141</ele>
        <time>2019-07-08T05:21:39Z</time>
      </trkpt>
      <trkpt lat="44.86051" lon="5.23996">
        <ele>1207</ele>
        <time>2019-07-08T05:21:40Z</time>
      </trkpt>
      <trkpt lat="44.86049" lon="5.23997">
        <ele>1206.1999511719</ele>
        <time>2019-07-08T05:21:41Z</time>
      </trkpt>
      <trkpt lat="44.86048" lon="5.23999">
        <ele>1206.1999511719</ele>
        <time>2019-07-08T05:21:42Z</time>
      </trkpt>
      <trkpt lat="44.86046" lon="5.24001">
        <ele>1206.1999511719</ele>
        <time>2019-07-08T05:21:43Z</time>
      </trkpt>
      <trkpt lat="44.86042" lon="5.24007">
        <ele>1205.5999755859</ele>
        <time>2019-07-08T05:21:46Z</time>
      </trkpt>
      <trkpt lat="44.8604" lon="5.24008">
        <ele>1205.1999511719</ele>
        <time>2019-07-08T05:21:47Z</time>
      </trkpt>
      <trkpt lat="44.86039" lon="5.24009">
        <ele>1204.5999755859</ele>
        <time>2019-07-08T05:21:48Z</time>
      </trkpt>
      <trkpt lat="44.86038" lon="5.24009">
        <ele>1204.1999511719</ele>
        <time>2019-07-08T05:21:49Z</time>
      </trkpt>
      <trkpt lat="44.86037" lon="5.24006">
        <ele>1203.5999755859</ele>
        <time>2019-07-08T05:21:50Z</time>
      </trkpt>
      <trkpt lat="44.86036" lon="5.24004">
        <ele>1202.8000488281</ele>
        <time>2019-07-08T05:21:51Z</time>
      </trkpt>
      <trkpt lat="44.86035" lon="5.24003">
        <ele>1202.1999511719</ele>
        <time>2019-07-08T05:21:52Z</time>
      </trkpt>
      <trkpt lat="44.86035" lon="5.24001">
        <ele>1201.5999755859</ele>
        <time>2019-07-08T05:21:53Z</time>
      </trkpt>
      <trkpt lat="44.86034" lon="5.23999">
        <ele>1200.8000488281</ele>
        <time>2019-07-08T05:21:54Z</time>
      </trkpt>
      <trkpt lat="44.86033" lon="5.23998">
        <ele>1200</ele>
        <time>2019-07-08T05:21:55Z</time>
      </trkpt>
      <trkpt lat="44.86033" lon="5.23997">
        <ele>1199.4000244141</ele>
        <time>2019-07-08T05:21:56Z</time>
      </trkpt>
      <trkpt lat="44.86032" lon="5.23995">
        <ele>1198.5999755859</ele>
        <time>2019-07-08T05:21:57Z</time>
      </trkpt>
      <trkpt lat="44.86032" lon="5.23994">
        <ele>1198</ele>
        <time>2019-07-08T05:21:58Z</time>
      </trkpt>
      <trkpt lat="44.86031" lon="5.23993">
        <ele>1197.1999511719</ele>
        <time>2019-07-08T05:21:59Z</time>
      </trkpt>
      <trkpt lat="44.86029" lon="5.23992">
        <ele>1196.5999755859</ele>
        <time>2019-07-08T05:22:00Z</time>
      </trkpt>
      <trkpt lat="44.86028" lon="5.23992">
        <ele>1196</ele>
        <time>2019-07-08T05:22:01Z</time>
      </trkpt>
      <trkpt lat="44.86026" lon="5.23992">
        <ele>1195.4000244141</ele>
        <time>2019-07-08T05:22:02Z</time>
      </trkpt>
      <trkpt lat="44.86024" lon="5.23992">
        <ele>1194.8000488281</ele>
        <time>2019-07-08T05:22:03Z</time>
      </trkpt>
      <trkpt lat="44.86021" lon="5.23991">
        <ele>1194.1999511719</ele>
        <time>2019-07-08T05:22:04Z</time>
      </trkpt>
      <trkpt lat="44.86019" lon="5.23989">
        <ele>1193.5999755859</ele>
        <time>2019-07-08T05:22:05Z</time>
      </trkpt>
      <trkpt lat="44.86018" lon="5.23987">
        <ele>1192.1999511719</ele>
        <time>2019-07-08T05:22:06Z</time>
      </trkpt>
      <trkpt lat="44.86017" lon="5.23984">
        <ele>1191.5999755859</ele>
        <time>2019-07-08T05:22:07Z</time>
      </trkpt>
      <trkpt lat="44.86017" lon="5.2398">
        <ele>1191</ele>
        <time>2019-07-08T05:22:08Z</time>
      </trkpt>
      <trkpt lat="44.86016" lon="5.23977">
        <ele>1190.1999511719</ele>
        <time>2019-07-08T05:22:09Z</time>
      </trkpt>
      <trkpt lat="44.86015" lon="5.23975">
        <ele>1189.5999755859</ele>
        <time>2019-07-08T05:22:10Z</time>
      </trkpt>
      <trkpt lat="44.86014" lon="5.23973">
        <ele>1189</ele>
        <time>2019-07-08T05:22:11Z</time>
      </trkpt>
      <trkpt lat="44.86013" lon="5.23971">
        <ele>1188.5999755859</ele>
        <time>2019-07-08T05:22:12Z</time>
      </trkpt>
      <trkpt lat="44.86012" lon="5.23969">
        <ele>1188</ele>
        <time>2019-07-08T05:22:13Z</time>
      </trkpt>
      <trkpt lat="44.86011" lon="5.23968">
        <ele>1187.4000244141</ele>
        <time>2019-07-08T05:22:14Z</time>
      </trkpt>
      <trkpt lat="44.86009" lon="5.23968">
        <ele>1186.8000488281</ele>
        <time>2019-07-08T05:22:15Z</time>
      </trkpt>
      <trkpt lat="44.86006" lon="5.23969">
        <ele>1186.1999511719</ele>
        <time>2019-07-08T05:22:16Z</time>
      </trkpt>
      <trkpt lat="44.86004" lon="5.23971">
        <ele>1185.5999755859</ele>
        <time>2019-07-08T05:22:17Z</time>
      </trkpt>
      <trkpt lat="44.86002" lon="5.2397">
        <ele>1185</ele>
        <time>2019-07-08T05:22:18Z</time>
      </trkpt>
      <trkpt lat="44.86001" lon="5.23969">
        <ele>1184.1999511719</ele>
        <time>2019-07-08T05:22:19Z</time>
      </trkpt>
      <trkpt lat="44.86" lon="5.23966">
        <ele>1183.5999755859</ele>
        <time>2019-07-08T05:22:20Z</time>
      </trkpt>
      <trkpt lat="44.86" lon="5.23964">
        <ele>1182.8000488281</ele>
        <time>2019-07-08T05:22:21Z</time>
      </trkpt>
      <trkpt lat="44.86001" lon="5.23962">
        <ele>1182.1999511719</ele>
        <time>2019-07-08T05:22:22Z</time>
      </trkpt>
      <trkpt lat="44.86001" lon="5.23959">
        <ele>1181.4000244141</ele>
        <time>2019-07-08T05:22:23Z</time>
      </trkpt>
      <trkpt lat="44.86001" lon="5.23957">
        <ele>1180.8000488281</ele>
        <time>2019-07-08T05:22:24Z</time>
      </trkpt>
      <trkpt lat="44.86001" lon="5.23954">
        <ele>1180.1999511719</ele>
        <time>2019-07-08T05:22:25Z</time>
      </trkpt>
      <trkpt lat="44.86001" lon="5.23951">
        <ele>1179.5999755859</ele>
        <time>2019-07-08T05:22:26Z</time>
      </trkpt>
      <trkpt lat="44.86" lon="5.23948">
        <ele>1179</ele>
        <time>2019-07-08T05:22:27Z</time>
      </trkpt>
      <trkpt lat="44.85998" lon="5.23946">
        <ele>1178.1999511719</ele>
        <time>2019-07-08T05:22:28Z</time>
      </trkpt>
      <trkpt lat="44.85997" lon="5.23943">
        <ele>1177.5999755859</ele>
        <time>2019-07-08T05:22:29Z</time>
      </trkpt>
      <trkpt lat="44.85997" lon="5.23941">
        <ele>1176</ele>
        <time>2019-07-08T05:22:30Z</time>
      </trkpt>
      <trkpt lat="44.85997" lon="5.23939">
        <ele>1175.1999511719</ele>
        <time>2019-07-08T05:22:31Z</time>
      </trkpt>
      <trkpt lat="44.85998" lon="5.23936">
        <ele>1174.4000244141</ele>
        <time>2019-07-08T05:22:32Z</time>
      </trkpt>
      <trkpt lat="44.85999" lon="5.23934">
        <ele>1173.4000244141</ele>
        <time>2019-07-08T05:22:33Z</time>
      </trkpt>
      <trkpt lat="44.85999" lon="5.23932">
        <ele>1172.8000488281</ele>
        <time>2019-07-08T05:22:34Z</time>
      </trkpt>
      <trkpt lat="44.85998" lon="5.23932">
        <ele>1172.1999511719</ele>
        <time>2019-07-08T05:22:35Z</time>
      </trkpt>
      <trkpt lat="44.85997" lon="5.23932">
        <ele>1171.4000244141</ele>
        <time>2019-07-08T05:22:36Z</time>
      </trkpt>
      <trkpt lat="44.85996" lon="5.23932">
        <ele>1170.8000488281</ele>
        <time>2019-07-08T05:22:37Z</time>
      </trkpt>
      <trkpt lat="44.85995" lon="5.2393">
        <ele>1170</ele>
        <time>2019-07-08T05:22:38Z</time>
      </trkpt>
      <trkpt lat="44.85994" lon="5.23926">
        <ele>1170</ele>
        <time>2019-07-08T05:22:41Z</time>
      </trkpt>
      <trkpt lat="44.85994" lon="5.23926">
        <ele>1169.5999755859</ele>
        <time>2019-07-08T05:22:42Z</time>
      </trkpt>
      <trkpt lat="44.85994" lon="5.23926">
        <ele>1169.1999511719</ele>
        <time>2019-07-08T05:22:43Z</time>
      </trkpt>
      <trkpt lat="44.85994" lon="5.23926">
        <ele>1168.8000488281</ele>
        <time>2019-07-08T05:22:44Z</time>
      </trkpt>
      <trkpt lat="44.85994" lon="5.23926">
        <ele>1168.4000244141</ele>
        <time>2019-07-08T05:22:45Z</time>
      </trkpt>
      <trkpt lat="44.85994" lon="5.23926">
        <ele>1168</ele>
        <time>2019-07-08T05:22:46Z</time>
      </trkpt>
      <trkpt lat="44.85994" lon="5.23926">
        <ele>1168</ele>
        <time>2019-07-08T05:22:49Z</time>
      </trkpt>
      <trkpt lat="44.85994" lon="5.23926">
        <ele>1168</ele>
        <time>2019-07-08T05:23:04Z</time>
      </trkpt>
      <trkpt lat="44.85994" lon="5.23926">
        <ele>1168</ele>
        <time>2019-07-08T05:23:11Z</time>
      </trkpt>
      <trkpt lat="44.85991" lon="5.23927">
        <ele>1168</ele>
        <time>2019-07-08T05:23:18Z</time>
      </trkpt>
      <trkpt lat="44.85987" lon="5.23928">
        <ele>1167.4000244141</ele>
        <time>2019-07-08T05:23:20Z</time>
      </trkpt>
      <trkpt lat="44.85984" lon="5.23929">
        <ele>1167</ele>
        <time>2019-07-08T05:23:21Z</time>
      </trkpt>
      <trkpt lat="44.85983" lon="5.23929">
        <ele>1166.4000244141</ele>
        <time>2019-07-08T05:23:22Z</time>
      </trkpt>
      <trkpt lat="44.85981" lon="5.2393">
        <ele>1165.8000488281</ele>
        <time>2019-07-08T05:23:23Z</time>
      </trkpt>
      <trkpt lat="44.85979" lon="5.23929">
        <ele>1165.1999511719</ele>
        <time>2019-07-08T05:23:24Z</time>
      </trkpt>
      <trkpt lat="44.85978" lon="5.23929">
        <ele>1164.5999755859</ele>
        <time>2019-07-08T05:23:25Z</time>
      </trkpt>
      <trkpt lat="44.85977" lon="5.23929">
        <ele>1163.8000488281</ele>
        <time>2019-07-08T05:23:26Z</time>
      </trkpt>
      <trkpt lat="44.85976" lon="5.2393">
        <ele>1163</ele>
        <time>2019-07-08T05:23:27Z</time>
      </trkpt>
      <trkpt lat="44.85975" lon="5.2393">
        <ele>1162.4000244141</ele>
        <time>2019-07-08T05:23:28Z</time>
      </trkpt>
      <trkpt lat="44.85974" lon="5.2393">
        <ele>1161.5999755859</ele>
        <time>2019-07-08T05:23:29Z</time>
      </trkpt>
      <trkpt lat="44.85973" lon="5.23929">
        <ele>1161</ele>
        <time>2019-07-08T05:23:30Z</time>
      </trkpt>
      <trkpt lat="44.85971" lon="5.2393">
        <ele>1160.4000244141</ele>
        <time>2019-07-08T05:23:31Z</time>
      </trkpt>
      <trkpt lat="44.85971" lon="5.2393">
        <ele>1159.5999755859</ele>
        <time>2019-07-08T05:23:32Z</time>
      </trkpt>
      <trkpt lat="44.8597" lon="5.2393">
        <ele>1159</ele>
        <time>2019-07-08T05:23:33Z</time>
      </trkpt>
      <trkpt lat="44.85968" lon="5.23928">
        <ele>1158.4000244141</ele>
        <time>2019-07-08T05:23:34Z</time>
      </trkpt>
      <trkpt lat="44.85967" lon="5.23925">
        <ele>1157.8000488281</ele>
        <time>2019-07-08T05:23:35Z</time>
      </trkpt>
      <trkpt lat="44.85966" lon="5.23923">
        <ele>1157.1999511719</ele>
        <time>2019-07-08T05:23:36Z</time>
      </trkpt>
      <trkpt lat="44.85966" lon="5.23921">
        <ele>1156.5999755859</ele>
        <time>2019-07-08T05:23:37Z</time>
      </trkpt>
      <trkpt lat="44.85966" lon="5.23919">
        <ele>1155.8000488281</ele>
        <time>2019-07-08T05:23:38Z</time>
      </trkpt>
      <trkpt lat="44.85966" lon="5.23919">
        <ele>1155.1999511719</ele>
        <time>2019-07-08T05:23:39Z</time>
      </trkpt>
      <trkpt lat="44.85965" lon="5.2392">
        <ele>1154.5999755859</ele>
        <time>2019-07-08T05:23:40Z</time>
      </trkpt>
      <trkpt lat="44.85965" lon="5.2392">
        <ele>1153.8000488281</ele>
        <time>2019-07-08T05:23:41Z</time>
      </trkpt>
      <trkpt lat="44.85965" lon="5.2392">
        <ele>1153.1999511719</ele>
        <time>2019-07-08T05:23:42Z</time>
      </trkpt>
      <trkpt lat="44.85965" lon="5.23919">
        <ele>1153.1999511719</ele>
        <time>2019-07-08T05:23:50Z</time>
      </trkpt>
      <trkpt lat="44.85964" lon="5.23917">
        <ele>1152.8000488281</ele>
        <time>2019-07-08T05:23:52Z</time>
      </trkpt>
      <trkpt lat="44.85963" lon="5.23916">
        <ele>1152.4000244141</ele>
        <time>2019-07-08T05:23:53Z</time>
      </trkpt>
      <trkpt lat="44.85961" lon="5.23915">
        <ele>1151.8000488281</ele>
        <time>2019-07-08T05:23:54Z</time>
      </trkpt>
      <trkpt lat="44.8596" lon="5.23915">
        <ele>1151.4000244141</ele>
        <time>2019-07-08T05:23:55Z</time>
      </trkpt>
      <trkpt lat="44.85958" lon="5.23915">
        <ele>1151</ele>
        <time>2019-07-08T05:23:56Z</time>
      </trkpt>
      <trkpt lat="44.85957" lon="5.23914">
        <ele>1150.5999755859</ele>
        <time>2019-07-08T05:23:57Z</time>
      </trkpt>
      <trkpt lat="44.85957" lon="5.23912">
        <ele>1150.1999511719</ele>
        <time>2019-07-08T05:23:58Z</time>
      </trkpt>
      <trkpt lat="44.85957" lon="5.2391">
        <ele>1149.8000488281</ele>
        <time>2019-07-08T05:23:59Z</time>
      </trkpt>
      <trkpt lat="44.85957" lon="5.23908">
        <ele>1149.1999511719</ele>
        <time>2019-07-08T05:24:00Z</time>
      </trkpt>
      <trkpt lat="44.85956" lon="5.23907">
        <ele>1148.8000488281</ele>
        <time>2019-07-08T05:24:01Z</time>
      </trkpt>
      <trkpt lat="44.85955" lon="5.23907">
        <ele>1148.4000244141</ele>
        <time>2019-07-08T05:24:03Z</time>
      </trkpt>
      <trkpt lat="44.85953" lon="5.23907">
        <ele>1148</ele>
        <time>2019-07-08T05:24:04Z</time>
      </trkpt>
      <trkpt lat="44.85952" lon="5.23906">
        <ele>1147.5999755859</ele>
        <time>2019-07-08T05:24:05Z</time>
      </trkpt>
      <trkpt lat="44.85951" lon="5.23904">
        <ele>1147.1999511719</ele>
        <time>2019-07-08T05:24:06Z</time>
      </trkpt>
      <trkpt lat="44.8595" lon="5.23904">
        <ele>1146.5999755859</ele>
        <time>2019-07-08T05:24:07Z</time>
      </trkpt>
      <trkpt lat="44.8595" lon="5.23904">
        <ele>1146.1999511719</ele>
        <time>2019-07-08T05:24:09Z</time>
      </trkpt>
      <trkpt lat="44.8595" lon="5.23904">
        <ele>1145.8000488281</ele>
        <time>2019-07-08T05:24:10Z</time>
      </trkpt>
      <trkpt lat="44.8595" lon="5.23904">
        <ele>1145.4000244141</ele>
        <time>2019-07-08T05:24:11Z</time>
      </trkpt>
      <trkpt lat="44.8595" lon="5.23904">
        <ele>1145</ele>
        <time>2019-07-08T05:24:12Z</time>
      </trkpt>
      <trkpt lat="44.8595" lon="5.23904">
        <ele>1144.5999755859</ele>
        <time>2019-07-08T05:24:13Z</time>
      </trkpt>
      <trkpt lat="44.8595" lon="5.23904">
        <ele>1144.5999755859</ele>
        <time>2019-07-08T05:24:16Z</time>
      </trkpt>
      <trkpt lat="44.8595" lon="5.23904">
        <ele>1144.5999755859</ele>
        <time>2019-07-08T05:24:30Z</time>
      </trkpt>
      <trkpt lat="44.8595" lon="5.23904">
        <ele>1144.5999755859</ele>
        <time>2019-07-08T05:24:42Z</time>
      </trkpt>
      <trkpt lat="44.8595" lon="5.23903">
        <ele>1144.5999755859</ele>
        <time>2019-07-08T05:24:43Z</time>
      </trkpt>
      <trkpt lat="44.8595" lon="5.23897">
        <ele>1144.5999755859</ele>
        <time>2019-07-08T05:24:46Z</time>
      </trkpt>
      <trkpt lat="44.85948" lon="5.23889">
        <ele>1144.1999511719</ele>
        <time>2019-07-08T05:24:49Z</time>
      </trkpt>
      <trkpt lat="44.85948" lon="5.23886">
        <ele>1143.8000488281</ele>
        <time>2019-07-08T05:24:50Z</time>
      </trkpt>
      <trkpt lat="44.85948" lon="5.23882">
        <ele>1143.4000244141</ele>
        <time>2019-07-08T05:24:51Z</time>
      </trkpt>
      <trkpt lat="44.85948" lon="5.2388">
        <ele>1142.8000488281</ele>
        <time>2019-07-08T05:24:52Z</time>
      </trkpt>
      <trkpt lat="44.85949" lon="5.23879">
        <ele>1142.4000244141</ele>
        <time>2019-07-08T05:24:53Z</time>
      </trkpt>
      <trkpt lat="44.8595" lon="5.23879">
        <ele>1141.8000488281</ele>
        <time>2019-07-08T05:24:54Z</time>
      </trkpt>
      <trkpt lat="44.85952" lon="5.23879">
        <ele>1141.4000244141</ele>
        <time>2019-07-08T05:24:55Z</time>
      </trkpt>
      <trkpt lat="44.85954" lon="5.23879">
        <ele>1140.8000488281</ele>
        <time>2019-07-08T05:24:56Z</time>
      </trkpt>
      <trkpt lat="44.85956" lon="5.23878">
        <ele>1140.4000244141</ele>
        <time>2019-07-08T05:24:57Z</time>
      </trkpt>
      <trkpt lat="44.85957" lon="5.23876">
        <ele>1140.4000244141</ele>
        <time>2019-07-08T05:24:59Z</time>
      </trkpt>
      <trkpt lat="44.85957" lon="5.23875">
        <ele>1140</ele>
        <time>2019-07-08T05:25:01Z</time>
      </trkpt>
      <trkpt lat="44.85956" lon="5.23874">
        <ele>1139.5999755859</ele>
        <time>2019-07-08T05:25:02Z</time>
      </trkpt>
      <trkpt lat="44.85954" lon="5.23873">
        <ele>1139</ele>
        <time>2019-07-08T05:25:03Z</time>
      </trkpt>
      <trkpt lat="44.85953" lon="5.23871">
        <ele>1138.5999755859</ele>
        <time>2019-07-08T05:25:04Z</time>
      </trkpt>
      <trkpt lat="44.8595" lon="5.23869">
        <ele>1138.1999511719</ele>
        <time>2019-07-08T05:25:05Z</time>
      </trkpt>
      <trkpt lat="44.85948" lon="5.23869">
        <ele>1137.5999755859</ele>
        <time>2019-07-08T05:25:06Z</time>
      </trkpt>
      <trkpt lat="44.85946" lon="5.23868">
        <ele>1137.1999511719</ele>
        <time>2019-07-08T05:25:07Z</time>
      </trkpt>
      <trkpt lat="44.85944" lon="5.23868">
        <ele>1136.5999755859</ele>
        <time>2019-07-08T05:25:08Z</time>
      </trkpt>
      <trkpt lat="44.85942" lon="5.23866">
        <ele>1135.8000488281</ele>
        <time>2019-07-08T05:25:09Z</time>
      </trkpt>
      <trkpt lat="44.85942" lon="5.23865">
        <ele>1135.1999511719</ele>
        <time>2019-07-08T05:25:10Z</time>
      </trkpt>
      <trkpt lat="44.85942" lon="5.23864">
        <ele>1134.5999755859</ele>
        <time>2019-07-08T05:25:11Z</time>
      </trkpt>
      <trkpt lat="44.85944" lon="5.23863">
        <ele>1133.8000488281</ele>
        <time>2019-07-08T05:25:12Z</time>
      </trkpt>
      <trkpt lat="44.85945" lon="5.23861">
        <ele>1133.4000244141</ele>
        <time>2019-07-08T05:25:13Z</time>
      </trkpt>
      <trkpt lat="44.85947" lon="5.2386">
        <ele>1133</ele>
        <time>2019-07-08T05:25:14Z</time>
      </trkpt>
      <trkpt lat="44.85949" lon="5.23859">
        <ele>1132.5999755859</ele>
        <time>2019-07-08T05:25:15Z</time>
      </trkpt>
      <trkpt lat="44.8595" lon="5.23858">
        <ele>1132.1999511719</ele>
        <time>2019-07-08T05:25:16Z</time>
      </trkpt>
      <trkpt lat="44.85953" lon="5.23858">
        <ele>1131.8000488281</ele>
        <time>2019-07-08T05:25:17Z</time>
      </trkpt>
      <trkpt lat="44.85954" lon="5.23857">
        <ele>1131.1999511719</ele>
        <time>2019-07-08T05:25:18Z</time>
      </trkpt>
      <trkpt lat="44.85956" lon="5.23855">
        <ele>1130.5999755859</ele>
        <time>2019-07-08T05:25:19Z</time>
      </trkpt>
      <trkpt lat="44.85958" lon="5.23854">
        <ele>1130.1999511719</ele>
        <time>2019-07-08T05:25:20Z</time>
      </trkpt>
      <trkpt lat="44.8596" lon="5.23853">
        <ele>1129</ele>
        <time>2019-07-08T05:25:21Z</time>
      </trkpt>
      <trkpt lat="44.85961" lon="5.23853">
        <ele>1128.1999511719</ele>
        <time>2019-07-08T05:25:22Z</time>
      </trkpt>
      <trkpt lat="44.85963" lon="5.23853">
        <ele>1127.5999755859</ele>
        <time>2019-07-08T05:25:23Z</time>
      </trkpt>
      <trkpt lat="44.85965" lon="5.23852">
        <ele>1127</ele>
        <time>2019-07-08T05:25:24Z</time>
      </trkpt>
      <trkpt lat="44.85967" lon="5.23851">
        <ele>1126.5999755859</ele>
        <time>2019-07-08T05:25:25Z</time>
      </trkpt>
      <trkpt lat="44.85968" lon="5.23851">
        <ele>1126</ele>
        <time>2019-07-08T05:25:26Z</time>
      </trkpt>
      <trkpt lat="44.85969" lon="5.23851">
        <ele>1125.4000244141</ele>
        <time>2019-07-08T05:25:27Z</time>
      </trkpt>
      <trkpt lat="44.85969" lon="5.2385">
        <ele>1124.8000488281</ele>
        <time>2019-07-08T05:25:28Z</time>
      </trkpt>
      <trkpt lat="44.85968" lon="5.2385">
        <ele>1124.1999511719</ele>
        <time>2019-07-08T05:25:29Z</time>
      </trkpt>
      <trkpt lat="44.85967" lon="5.23848">
        <ele>1123.5999755859</ele>
        <time>2019-07-08T05:25:30Z</time>
      </trkpt>
      <trkpt lat="44.85967" lon="5.23847">
        <ele>1123</ele>
        <time>2019-07-08T05:25:31Z</time>
      </trkpt>
      <trkpt lat="44.85966" lon="5.23846">
        <ele>1122.5999755859</ele>
        <time>2019-07-08T05:25:32Z</time>
      </trkpt>
      <trkpt lat="44.85966" lon="5.23846">
        <ele>1122</ele>
        <time>2019-07-08T05:25:33Z</time>
      </trkpt>
      <trkpt lat="44.85966" lon="5.23845">
        <ele>1121.4000244141</ele>
        <time>2019-07-08T05:25:34Z</time>
      </trkpt>
      <trkpt lat="44.85967" lon="5.23845">
        <ele>1120.8000488281</ele>
        <time>2019-07-08T05:25:35Z</time>
      </trkpt>
      <trkpt lat="44.85967" lon="5.23845">
        <ele>1120.1999511719</ele>
        <time>2019-07-08T05:25:36Z</time>
      </trkpt>
      <trkpt lat="44.85967" lon="5.23845">
        <ele>1119.5999755859</ele>
        <time>2019-07-08T05:25:37Z</time>
      </trkpt>
      <trkpt lat="44.85967" lon="5.23846">
        <ele>1119.5999755859</ele>
        <time>2019-07-08T05:25:48Z</time>
      </trkpt>
      <trkpt lat="44.85967" lon="5.23846">
        <ele>1119.5999755859</ele>
        <time>2019-07-08T05:26:02Z</time>
      </trkpt>
      <trkpt lat="44.85967" lon="5.23846">
        <ele>1119.5999755859</ele>
        <time>2019-07-08T05:26:16Z</time>
      </trkpt>
      <trkpt lat="44.85967" lon="5.23846">
        <ele>1119.5999755859</ele>
        <time>2019-07-08T05:26:37Z</time>
      </trkpt>
      <trkpt lat="44.85967" lon="5.23846">
        <ele>1119.5999755859</ele>
        <time>2019-07-08T05:26:44Z</time>
      </trkpt>
      <trkpt lat="44.85967" lon="5.23846">
        <ele>1119.5999755859</ele>
        <time>2019-07-08T05:26:54Z</time>
      </trkpt>
      <trkpt lat="44.85966" lon="5.23847">
        <ele>1119.5999755859</ele>
        <time>2019-07-08T05:27:02Z</time>
      </trkpt>
      <trkpt lat="44.85968" lon="5.23846">
        <ele>1119.5999755859</ele>
        <time>2019-07-08T05:27:05Z</time>
      </trkpt>
      <trkpt lat="44.8597" lon="5.23847">
        <ele>1119.1999511719</ele>
        <time>2019-07-08T05:27:07Z</time>
      </trkpt>
      <trkpt lat="44.85971" lon="5.23847">
        <ele>1118.8000488281</ele>
        <time>2019-07-08T05:27:08Z</time>
      </trkpt>
      <trkpt lat="44.85971" lon="5.23847">
        <ele>1118.4000244141</ele>
        <time>2019-07-08T05:27:09Z</time>
      </trkpt>
      <trkpt lat="44.85971" lon="5.23846">
        <ele>1118</ele>
        <time>2019-07-08T05:27:10Z</time>
      </trkpt>
      <trkpt lat="44.85973" lon="5.23845">
        <ele>1117.5999755859</ele>
        <time>2019-07-08T05:27:11Z</time>
      </trkpt>
      <trkpt lat="44.85975" lon="5.23844">
        <ele>1117.5999755859</ele>
        <time>2019-07-08T05:27:12Z</time>
      </trkpt>
      <trkpt lat="44.85979" lon="5.23842">
        <ele>1117.1999511719</ele>
        <time>2019-07-08T05:27:13Z</time>
      </trkpt>
      <trkpt lat="44.85981" lon="5.2384">
        <ele>1116.8000488281</ele>
        <time>2019-07-08T05:27:14Z</time>
      </trkpt>
      <trkpt lat="44.85983" lon="5.23838">
        <ele>1116.4000244141</ele>
        <time>2019-07-08T05:27:15Z</time>
      </trkpt>
      <trkpt lat="44.85984" lon="5.23836">
        <ele>1115.8000488281</ele>
        <time>2019-07-08T05:27:16Z</time>
      </trkpt>
      <trkpt lat="44.85984" lon="5.23835">
        <ele>1115</ele>
        <time>2019-07-08T05:27:17Z</time>
      </trkpt>
      <trkpt lat="44.85983" lon="5.23834">
        <ele>1114.4000244141</ele>
        <time>2019-07-08T05:27:18Z</time>
      </trkpt>
      <trkpt lat="44.85982" lon="5.23833">
        <ele>1113.8000488281</ele>
        <time>2019-07-08T05:27:19Z</time>
      </trkpt>
      <trkpt lat="44.8598" lon="5.23831">
        <ele>1113</ele>
        <time>2019-07-08T05:27:20Z</time>
      </trkpt>
      <trkpt lat="44.85978" lon="5.23831">
        <ele>1112.4000244141</ele>
        <time>2019-07-08T05:27:21Z</time>
      </trkpt>
      <trkpt lat="44.85977" lon="5.2383">
        <ele>1111</ele>
        <time>2019-07-08T05:27:22Z</time>
      </trkpt>
      <trkpt lat="44.85975" lon="5.23829">
        <ele>1110.4000244141</ele>
        <time>2019-07-08T05:27:23Z</time>
      </trkpt>
      <trkpt lat="44.85974" lon="5.23827">
        <ele>1109.8000488281</ele>
        <time>2019-07-08T05:27:24Z</time>
      </trkpt>
      <trkpt lat="44.85973" lon="5.23824">
        <ele>1109.1999511719</ele>
        <time>2019-07-08T05:27:25Z</time>
      </trkpt>
      <trkpt lat="44.85971" lon="5.23822">
        <ele>1108.4000244141</ele>
        <time>2019-07-08T05:27:26Z</time>
      </trkpt>
      <trkpt lat="44.85969" lon="5.2382">
        <ele>1107.5999755859</ele>
        <time>2019-07-08T05:27:27Z</time>
      </trkpt>
      <trkpt lat="44.85968" lon="5.23818">
        <ele>1106.8000488281</ele>
        <time>2019-07-08T05:27:28Z</time>
      </trkpt>
      <trkpt lat="44.85966" lon="5.23817">
        <ele>1106</ele>
        <time>2019-07-08T05:27:29Z</time>
      </trkpt>
      <trkpt lat="44.85964" lon="5.23816">
        <ele>1105</ele>
        <time>2019-07-08T05:27:30Z</time>
      </trkpt>
      <trkpt lat="44.85963" lon="5.23814">
        <ele>1104.1999511719</ele>
        <time>2019-07-08T05:27:31Z</time>
      </trkpt>
      <trkpt lat="44.85962" lon="5.23812">
        <ele>1103.4000244141</ele>
        <time>2019-07-08T05:27:32Z</time>
      </trkpt>
      <trkpt lat="44.85963" lon="5.23812">
        <ele>1102.5999755859</ele>
        <time>2019-07-08T05:27:33Z</time>
      </trkpt>
      <trkpt lat="44.85964" lon="5.23811">
        <ele>1101.8000488281</ele>
        <time>2019-07-08T05:27:34Z</time>
      </trkpt>
      <trkpt lat="44.85964" lon="5.2381">
        <ele>1101</ele>
        <time>2019-07-08T05:27:35Z</time>
      </trkpt>
      <trkpt lat="44.85963" lon="5.23808">
        <ele>1100.4000244141</ele>
        <time>2019-07-08T05:27:36Z</time>
      </trkpt>
      <trkpt lat="44.85962" lon="5.23806">
        <ele>1099.8000488281</ele>
        <time>2019-07-08T05:27:37Z</time>
      </trkpt>
      <trkpt lat="44.85961" lon="5.23805">
        <ele>1099</ele>
        <time>2019-07-08T05:27:38Z</time>
      </trkpt>
      <trkpt lat="44.85959" lon="5.23805">
        <ele>1098.4000244141</ele>
        <time>2019-07-08T05:27:39Z</time>
      </trkpt>
      <trkpt lat="44.85957" lon="5.23806">
        <ele>1097.8000488281</ele>
        <time>2019-07-08T05:27:40Z</time>
      </trkpt>
      <trkpt lat="44.85956" lon="5.23806">
        <ele>1097.4000244141</ele>
        <time>2019-07-08T05:27:41Z</time>
      </trkpt>
      <trkpt lat="44.85955" lon="5.23805">
        <ele>1096.8000488281</ele>
        <time>2019-07-08T05:27:42Z</time>
      </trkpt>
      <trkpt lat="44.85954" lon="5.23804">
        <ele>1096.1999511719</ele>
        <time>2019-07-08T05:27:43Z</time>
      </trkpt>
      <trkpt lat="44.85954" lon="5.23803">
        <ele>1095.8000488281</ele>
        <time>2019-07-08T05:27:44Z</time>
      </trkpt>
      <trkpt lat="44.85955" lon="5.23802">
        <ele>1095.1999511719</ele>
        <time>2019-07-08T05:27:45Z</time>
      </trkpt>
      <trkpt lat="44.85956" lon="5.238">
        <ele>1094.8000488281</ele>
        <time>2019-07-08T05:27:46Z</time>
      </trkpt>
      <trkpt lat="44.85957" lon="5.23799">
        <ele>1093.8000488281</ele>
        <time>2019-07-08T05:27:47Z</time>
      </trkpt>
      <trkpt lat="44.85957" lon="5.23797">
        <ele>1093.1999511719</ele>
        <time>2019-07-08T05:27:48Z</time>
      </trkpt>
      <trkpt lat="44.85956" lon="5.23797">
        <ele>1092.8000488281</ele>
        <time>2019-07-08T05:27:49Z</time>
      </trkpt>
      <trkpt lat="44.85955" lon="5.23797">
        <ele>1092.1999511719</ele>
        <time>2019-07-08T05:27:50Z</time>
      </trkpt>
      <trkpt lat="44.85952" lon="5.23797">
        <ele>1091.8000488281</ele>
        <time>2019-07-08T05:27:51Z</time>
      </trkpt>
      <trkpt lat="44.85949" lon="5.23797">
        <ele>1091.4000244141</ele>
        <time>2019-07-08T05:27:52Z</time>
      </trkpt>
      <trkpt lat="44.85946" lon="5.23798">
        <ele>1091.4000244141</ele>
        <time>2019-07-08T05:27:53Z</time>
      </trkpt>
      <trkpt lat="44.85944" lon="5.23798">
        <ele>1090.8000488281</ele>
        <time>2019-07-08T05:27:54Z</time>
      </trkpt>
      <trkpt lat="44.85941" lon="5.23797">
        <ele>1090.4000244141</ele>
        <time>2019-07-08T05:27:55Z</time>
      </trkpt>
      <trkpt lat="44.85939" lon="5.23796">
        <ele>1089.8000488281</ele>
        <time>2019-07-08T05:27:56Z</time>
      </trkpt>
      <trkpt lat="44.85937" lon="5.23795">
        <ele>1089.4000244141</ele>
        <time>2019-07-08T05:27:57Z</time>
      </trkpt>
      <trkpt lat="44.85935" lon="5.23793">
        <ele>1088.5999755859</ele>
        <time>2019-07-08T05:27:58Z</time>
      </trkpt>
      <trkpt lat="44.85934" lon="5.23793">
        <ele>1088</ele>
        <time>2019-07-08T05:27:59Z</time>
      </trkpt>
      <trkpt lat="44.85932" lon="5.23792">
        <ele>1087.4000244141</ele>
        <time>2019-07-08T05:28:00Z</time>
      </trkpt>
      <trkpt lat="44.85931" lon="5.23791">
        <ele>1086.5999755859</ele>
        <time>2019-07-08T05:28:01Z</time>
      </trkpt>
      <trkpt lat="44.85929" lon="5.2379">
        <ele>1085.8000488281</ele>
        <time>2019-07-08T05:28:02Z</time>
      </trkpt>
      <trkpt lat="44.85928" lon="5.23789">
        <ele>1085</ele>
        <time>2019-07-08T05:28:03Z</time>
      </trkpt>
      <trkpt lat="44.85926" lon="5.23788">
        <ele>1084.1999511719</ele>
        <time>2019-07-08T05:28:04Z</time>
      </trkpt>
      <trkpt lat="44.85923" lon="5.23788">
        <ele>1083.5999755859</ele>
        <time>2019-07-08T05:28:05Z</time>
      </trkpt>
      <trkpt lat="44.85921" lon="5.23788">
        <ele>1083</ele>
        <time>2019-07-08T05:28:06Z</time>
      </trkpt>
      <trkpt lat="44.85919" lon="5.23785">
        <ele>1082.4000244141</ele>
        <time>2019-07-08T05:28:07Z</time>
      </trkpt>
      <trkpt lat="44.85919" lon="5.23783">
        <ele>1081.5999755859</ele>
        <time>2019-07-08T05:28:08Z</time>
      </trkpt>
      <trkpt lat="44.85918" lon="5.23782">
        <ele>1081</ele>
        <time>2019-07-08T05:28:09Z</time>
      </trkpt>
      <trkpt lat="44.85918" lon="5.23782">
        <ele>1080.1999511719</ele>
        <time>2019-07-08T05:28:10Z</time>
      </trkpt>
      <trkpt lat="44.85918" lon="5.23782">
        <ele>1078.8000488281</ele>
        <time>2019-07-08T05:28:11Z</time>
      </trkpt>
      <trkpt lat="44.85919" lon="5.23781">
        <ele>1078.1999511719</ele>
        <time>2019-07-08T05:28:12Z</time>
      </trkpt>
      <trkpt lat="44.8592" lon="5.23781">
        <ele>1077.4000244141</ele>
        <time>2019-07-08T05:28:13Z</time>
      </trkpt>
      <trkpt lat="44.8592" lon="5.2378">
        <ele>1076.8000488281</ele>
        <time>2019-07-08T05:28:14Z</time>
      </trkpt>
      <trkpt lat="44.85921" lon="5.2378">
        <ele>1076.8000488281</ele>
        <time>2019-07-08T05:28:15Z</time>
      </trkpt>
      <trkpt lat="44.85921" lon="5.2378">
        <ele>1076.8000488281</ele>
        <time>2019-07-08T05:28:26Z</time>
      </trkpt>
      <trkpt lat="44.85921" lon="5.23781">
        <ele>1076.8000488281</ele>
        <time>2019-07-08T05:28:37Z</time>
      </trkpt>
      <trkpt lat="44.85921" lon="5.23781">
        <ele>1076.4000244141</ele>
        <time>2019-07-08T05:28:48Z</time>
      </trkpt>
      <trkpt lat="44.85921" lon="5.23781">
        <ele>1076</ele>
        <time>2019-07-08T05:28:49Z</time>
      </trkpt>
      <trkpt lat="44.85921" lon="5.23781">
        <ele>1075.5999755859</ele>
        <time>2019-07-08T05:28:50Z</time>
      </trkpt>
      <trkpt lat="44.85921" lon="5.23781">
        <ele>1075.1999511719</ele>
        <time>2019-07-08T05:28:51Z</time>
      </trkpt>
      <trkpt lat="44.85921" lon="5.23781">
        <ele>1074.8000488281</ele>
        <time>2019-07-08T05:28:52Z</time>
      </trkpt>
      <trkpt lat="44.85921" lon="5.2378">
        <ele>1074.8000488281</ele>
        <time>2019-07-08T05:28:59Z</time>
      </trkpt>
      <trkpt lat="44.85921" lon="5.23779">
        <ele>1074.8000488281</ele>
        <time>2019-07-08T05:29:08Z</time>
      </trkpt>
      <trkpt lat="44.85926" lon="5.23775">
        <ele>1074.8000488281</ele>
        <time>2019-07-08T05:29:12Z</time>
      </trkpt>
      <trkpt lat="44.85926" lon="5.23774">
        <ele>1074.4000244141</ele>
        <time>2019-07-08T05:29:13Z</time>
      </trkpt>
      <trkpt lat="44.85927" lon="5.23772">
        <ele>1073.8000488281</ele>
        <time>2019-07-08T05:29:14Z</time>
      </trkpt>
      <trkpt lat="44.85926" lon="5.23771">
        <ele>1073.4000244141</ele>
        <time>2019-07-08T05:29:15Z</time>
      </trkpt>
      <trkpt lat="44.85926" lon="5.2377">
        <ele>1073</ele>
        <time>2019-07-08T05:29:16Z</time>
      </trkpt>
      <trkpt lat="44.85925" lon="5.2377">
        <ele>1072.5999755859</ele>
        <time>2019-07-08T05:29:17Z</time>
      </trkpt>
      <trkpt lat="44.85923" lon="5.23768">
        <ele>1072.1999511719</ele>
        <time>2019-07-08T05:29:18Z</time>
      </trkpt>
      <trkpt lat="44.85923" lon="5.23766">
        <ele>1071.5999755859</ele>
        <time>2019-07-08T05:29:19Z</time>
      </trkpt>
      <trkpt lat="44.85924" lon="5.23765">
        <ele>1071.1999511719</ele>
        <time>2019-07-08T05:29:20Z</time>
      </trkpt>
      <trkpt lat="44.85925" lon="5.23763">
        <ele>1070.8000488281</ele>
        <time>2019-07-08T05:29:21Z</time>
      </trkpt>
      <trkpt lat="44.85927" lon="5.23762">
        <ele>1070.1999511719</ele>
        <time>2019-07-08T05:29:22Z</time>
      </trkpt>
      <trkpt lat="44.85928" lon="5.23761">
        <ele>1069.1999511719</ele>
        <time>2019-07-08T05:29:23Z</time>
      </trkpt>
      <trkpt lat="44.8593" lon="5.2376">
        <ele>1068.5999755859</ele>
        <time>2019-07-08T05:29:24Z</time>
      </trkpt>
      <trkpt lat="44.85931" lon="5.23759">
        <ele>1068.1999511719</ele>
        <time>2019-07-08T05:29:25Z</time>
      </trkpt>
      <trkpt lat="44.85933" lon="5.23757">
        <ele>1067.5999755859</ele>
        <time>2019-07-08T05:29:26Z</time>
      </trkpt>
      <trkpt lat="44.85935" lon="5.23755">
        <ele>1067.1999511719</ele>
        <time>2019-07-08T05:29:27Z</time>
      </trkpt>
      <trkpt lat="44.85936" lon="5.23753">
        <ele>1066.5999755859</ele>
        <time>2019-07-08T05:29:28Z</time>
      </trkpt>
      <trkpt lat="44.85938" lon="5.2375">
        <ele>1065.8000488281</ele>
        <time>2019-07-08T05:29:29Z</time>
      </trkpt>
      <trkpt lat="44.8594" lon="5.23749">
        <ele>1065.1999511719</ele>
        <time>2019-07-08T05:29:30Z</time>
      </trkpt>
      <trkpt lat="44.85942" lon="5.23747">
        <ele>1064.5999755859</ele>
        <time>2019-07-08T05:29:31Z</time>
      </trkpt>
      <trkpt lat="44.85944" lon="5.23745">
        <ele>1064</ele>
        <time>2019-07-08T05:29:32Z</time>
      </trkpt>
      <trkpt lat="44.85945" lon="5.23744">
        <ele>1063.1999511719</ele>
        <time>2019-07-08T05:29:33Z</time>
      </trkpt>
      <trkpt lat="44.85946" lon="5.23743">
        <ele>1062.5999755859</ele>
        <time>2019-07-08T05:29:34Z</time>
      </trkpt>
      <trkpt lat="44.85947" lon="5.23742">
        <ele>1062</ele>
        <time>2019-07-08T05:29:35Z</time>
      </trkpt>
      <trkpt lat="44.85948" lon="5.23741">
        <ele>1061.1999511719</ele>
        <time>2019-07-08T05:29:36Z</time>
      </trkpt>
      <trkpt lat="44.8595" lon="5.23739">
        <ele>1060.5999755859</ele>
        <time>2019-07-08T05:29:37Z</time>
      </trkpt>
      <trkpt lat="44.85953" lon="5.23737">
        <ele>1059.8000488281</ele>
        <time>2019-07-08T05:29:38Z</time>
      </trkpt>
      <trkpt lat="44.85955" lon="5.23735">
        <ele>1059.1999511719</ele>
        <time>2019-07-08T05:29:39Z</time>
      </trkpt>
      <trkpt lat="44.85958" lon="5.23732">
        <ele>1058.5999755859</ele>
        <time>2019-07-08T05:29:40Z</time>
      </trkpt>
      <trkpt lat="44.85961" lon="5.23729">
        <ele>1057.8000488281</ele>
        <time>2019-07-08T05:29:41Z</time>
      </trkpt>
      <trkpt lat="44.85964" lon="5.23727">
        <ele>1057</ele>
        <time>2019-07-08T05:29:42Z</time>
      </trkpt>
      <trkpt lat="44.85967" lon="5.23726">
        <ele>1056.1999511719</ele>
        <time>2019-07-08T05:29:43Z</time>
      </trkpt>
      <trkpt lat="44.85969" lon="5.23725">
        <ele>1055.4000244141</ele>
        <time>2019-07-08T05:29:44Z</time>
      </trkpt>
      <trkpt lat="44.8597" lon="5.23723">
        <ele>1054.8000488281</ele>
        <time>2019-07-08T05:29:45Z</time>
      </trkpt>
      <trkpt lat="44.85973" lon="5.23722">
        <ele>1054</ele>
        <time>2019-07-08T05:29:46Z</time>
      </trkpt>
      <trkpt lat="44.85976" lon="5.23721">
        <ele>1052.8000488281</ele>
        <time>2019-07-08T05:29:47Z</time>
      </trkpt>
      <trkpt lat="44.85979" lon="5.2372">
        <ele>1052.1999511719</ele>
        <time>2019-07-08T05:29:48Z</time>
      </trkpt>
      <trkpt lat="44.85982" lon="5.23719">
        <ele>1051.5999755859</ele>
        <time>2019-07-08T05:29:49Z</time>
      </trkpt>
      <trkpt lat="44.85985" lon="5.23719">
        <ele>1051</ele>
        <time>2019-07-08T05:29:50Z</time>
      </trkpt>
      <trkpt lat="44.85987" lon="5.23719">
        <ele>1050.4000244141</ele>
        <time>2019-07-08T05:29:51Z</time>
      </trkpt>
      <trkpt lat="44.85989" lon="5.23719">
        <ele>1049.8000488281</ele>
        <time>2019-07-08T05:29:52Z</time>
      </trkpt>
      <trkpt lat="44.8599" lon="5.23716">
        <ele>1049.4000244141</ele>
        <time>2019-07-08T05:29:53Z</time>
      </trkpt>
      <trkpt lat="44.8599" lon="5.23713">
        <ele>1048.8000488281</ele>
        <time>2019-07-08T05:29:54Z</time>
      </trkpt>
      <trkpt lat="44.85991" lon="5.2371">
        <ele>1048.4000244141</ele>
        <time>2019-07-08T05:29:55Z</time>
      </trkpt>
      <trkpt lat="44.85993" lon="5.23707">
        <ele>1047.8000488281</ele>
        <time>2019-07-08T05:29:56Z</time>
      </trkpt>
      <trkpt lat="44.85995" lon="5.23705">
        <ele>1047.1999511719</ele>
        <time>2019-07-08T05:29:57Z</time>
      </trkpt>
      <trkpt lat="44.85997" lon="5.23703">
        <ele>1046.5999755859</ele>
        <time>2019-07-08T05:29:58Z</time>
      </trkpt>
      <trkpt lat="44.86" lon="5.237">
        <ele>1045.8000488281</ele>
        <time>2019-07-08T05:29:59Z</time>
      </trkpt>
      <trkpt lat="44.86003" lon="5.23698">
        <ele>1045</ele>
        <time>2019-07-08T05:30:00Z</time>
      </trkpt>
      <trkpt lat="44.86006" lon="5.23695">
        <ele>1044.4000244141</ele>
        <time>2019-07-08T05:30:01Z</time>
      </trkpt>
      <trkpt lat="44.86008" lon="5.23692">
        <ele>1043.5999755859</ele>
        <time>2019-07-08T05:30:02Z</time>
      </trkpt>
      <trkpt lat="44.86011" lon="5.2369">
        <ele>1043</ele>
        <time>2019-07-08T05:30:03Z</time>
      </trkpt>
      <trkpt lat="44.86013" lon="5.23687">
        <ele>1042.4000244141</ele>
        <time>2019-07-08T05:30:04Z</time>
      </trkpt>
      <trkpt lat="44.86015" lon="5.23685">
        <ele>1041.8000488281</ele>
        <time>2019-07-08T05:30:05Z</time>
      </trkpt>
      <trkpt lat="44.86018" lon="5.23683">
        <ele>1041.1999511719</ele>
        <time>2019-07-08T05:30:06Z</time>
      </trkpt>
      <trkpt lat="44.8602" lon="5.23682">
        <ele>1040.5999755859</ele>
        <time>2019-07-08T05:30:07Z</time>
      </trkpt>
      <trkpt lat="44.86021" lon="5.23682">
        <ele>1039.8000488281</ele>
        <time>2019-07-08T05:30:08Z</time>
      </trkpt>
      <trkpt lat="44.86023" lon="5.23679">
        <ele>1039.1999511719</ele>
        <time>2019-07-08T05:30:09Z</time>
      </trkpt>
      <trkpt lat="44.86025" lon="5.23677">
        <ele>1038.5999755859</ele>
        <time>2019-07-08T05:30:10Z</time>
      </trkpt>
      <trkpt lat="44.86026" lon="5.23675">
        <ele>1037.4000244141</ele>
        <time>2019-07-08T05:30:11Z</time>
      </trkpt>
      <trkpt lat="44.86028" lon="5.23675">
        <ele>1036.5999755859</ele>
        <time>2019-07-08T05:30:12Z</time>
      </trkpt>
      <trkpt lat="44.86031" lon="5.23674">
        <ele>1036.1999511719</ele>
        <time>2019-07-08T05:30:13Z</time>
      </trkpt>
      <trkpt lat="44.86034" lon="5.23673">
        <ele>1035.5999755859</ele>
        <time>2019-07-08T05:30:14Z</time>
      </trkpt>
      <trkpt lat="44.86036" lon="5.23673">
        <ele>1035</ele>
        <time>2019-07-08T05:30:15Z</time>
      </trkpt>
      <trkpt lat="44.86039" lon="5.23672">
        <ele>1034.4000244141</ele>
        <time>2019-07-08T05:30:16Z</time>
      </trkpt>
      <trkpt lat="44.86041" lon="5.2367">
        <ele>1033.5999755859</ele>
        <time>2019-07-08T05:30:17Z</time>
      </trkpt>
      <trkpt lat="44.86042" lon="5.23668">
        <ele>1033</ele>
        <time>2019-07-08T05:30:18Z</time>
      </trkpt>
      <trkpt lat="44.86043" lon="5.23664">
        <ele>1032.1999511719</ele>
        <time>2019-07-08T05:30:19Z</time>
      </trkpt>
      <trkpt lat="44.86044" lon="5.2366">
        <ele>1031.5999755859</ele>
        <time>2019-07-08T05:30:20Z</time>
      </trkpt>
      <trkpt lat="44.86047" lon="5.23658">
        <ele>1030.8000488281</ele>
        <time>2019-07-08T05:30:21Z</time>
      </trkpt>
      <trkpt lat="44.86048" lon="5.23656">
        <ele>1030.1999511719</ele>
        <time>2019-07-08T05:30:22Z</time>
      </trkpt>
      <trkpt lat="44.8605" lon="5.23654">
        <ele>1029.4000244141</ele>
        <time>2019-07-08T05:30:23Z</time>
      </trkpt>
      <trkpt lat="44.86053" lon="5.23652">
        <ele>1029</ele>
        <time>2019-07-08T05:30:24Z</time>
      </trkpt>
      <trkpt lat="44.86055" lon="5.23651">
        <ele>1028.4000244141</ele>
        <time>2019-07-08T05:30:25Z</time>
      </trkpt>
      <trkpt lat="44.86057" lon="5.23649">
        <ele>1027.8000488281</ele>
        <time>2019-07-08T05:30:26Z</time>
      </trkpt>
      <trkpt lat="44.8606" lon="5.23647">
        <ele>1027.1999511719</ele>
        <time>2019-07-08T05:30:27Z</time>
      </trkpt>
      <trkpt lat="44.86062" lon="5.23645">
        <ele>1026.5999755859</ele>
        <time>2019-07-08T05:30:28Z</time>
      </trkpt>
      <trkpt lat="44.86064" lon="5.23644">
        <ele>1026.1999511719</ele>
        <time>2019-07-08T05:30:29Z</time>
      </trkpt>
      <trkpt lat="44.86066" lon="5.23642">
        <ele>1025.5999755859</ele>
        <time>2019-07-08T05:30:30Z</time>
      </trkpt>
      <trkpt lat="44.86066" lon="5.23639">
        <ele>1025</ele>
        <time>2019-07-08T05:30:31Z</time>
      </trkpt>
      <trkpt lat="44.86067" lon="5.23636">
        <ele>1024.5999755859</ele>
        <time>2019-07-08T05:30:32Z</time>
      </trkpt>
      <trkpt lat="44.86069" lon="5.23633">
        <ele>1024</ele>
        <time>2019-07-08T05:30:33Z</time>
      </trkpt>
      <trkpt lat="44.86071" lon="5.2363">
        <ele>1023.200012207</ele>
        <time>2019-07-08T05:30:34Z</time>
      </trkpt>
      <trkpt lat="44.86073" lon="5.23627">
        <ele>1022</ele>
        <time>2019-07-08T05:30:35Z</time>
      </trkpt>
      <trkpt lat="44.86074" lon="5.23624">
        <ele>1021.200012207</ele>
        <time>2019-07-08T05:30:36Z</time>
      </trkpt>
      <trkpt lat="44.86075" lon="5.23621">
        <ele>1020.4000244141</ele>
        <time>2019-07-08T05:30:37Z</time>
      </trkpt>
      <trkpt lat="44.86077" lon="5.23618">
        <ele>1019.799987793</ele>
        <time>2019-07-08T05:30:38Z</time>
      </trkpt>
      <trkpt lat="44.86079" lon="5.23615">
        <ele>1019.200012207</ele>
        <time>2019-07-08T05:30:39Z</time>
      </trkpt>
      <trkpt lat="44.8608" lon="5.23612">
        <ele>1018.4000244141</ele>
        <time>2019-07-08T05:30:40Z</time>
      </trkpt>
      <trkpt lat="44.86081" lon="5.23609">
        <ele>1017.799987793</ele>
        <time>2019-07-08T05:30:41Z</time>
      </trkpt>
      <trkpt lat="44.86083" lon="5.23608">
        <ele>1017.200012207</ele>
        <time>2019-07-08T05:30:42Z</time>
      </trkpt>
      <trkpt lat="44.86083" lon="5.23605">
        <ele>1016.4000244141</ele>
        <time>2019-07-08T05:30:43Z</time>
      </trkpt>
      <trkpt lat="44.86085" lon="5.23603">
        <ele>1015.799987793</ele>
        <time>2019-07-08T05:30:44Z</time>
      </trkpt>
      <trkpt lat="44.86086" lon="5.236">
        <ele>1015</ele>
        <time>2019-07-08T05:30:45Z</time>
      </trkpt>
      <trkpt lat="44.86087" lon="5.23599">
        <ele>1014.200012207</ele>
        <time>2019-07-08T05:30:46Z</time>
      </trkpt>
      <trkpt lat="44.86088" lon="5.23598">
        <ele>1013.5999755859</ele>
        <time>2019-07-08T05:30:47Z</time>
      </trkpt>
      <trkpt lat="44.86088" lon="5.23599">
        <ele>1012.799987793</ele>
        <time>2019-07-08T05:30:48Z</time>
      </trkpt>
      <trkpt lat="44.86089" lon="5.23599">
        <ele>1012</ele>
        <time>2019-07-08T05:30:49Z</time>
      </trkpt>
      <trkpt lat="44.86088" lon="5.23601">
        <ele>1012</ele>
        <time>2019-07-08T05:30:56Z</time>
      </trkpt>
      <trkpt lat="44.86088" lon="5.23601">
        <ele>1011.5999755859</ele>
        <time>2019-07-08T05:31:00Z</time>
      </trkpt>
      <trkpt lat="44.86088" lon="5.23601">
        <ele>1011.200012207</ele>
        <time>2019-07-08T05:31:01Z</time>
      </trkpt>
      <trkpt lat="44.86088" lon="5.23601">
        <ele>1010.799987793</ele>
        <time>2019-07-08T05:31:02Z</time>
      </trkpt>
      <trkpt lat="44.86088" lon="5.23601">
        <ele>1010.4000244141</ele>
        <time>2019-07-08T05:31:03Z</time>
      </trkpt>
      <trkpt lat="44.86088" lon="5.23601">
        <ele>1010</ele>
        <time>2019-07-08T05:31:04Z</time>
      </trkpt>
      <trkpt lat="44.86088" lon="5.23601">
        <ele>1010</ele>
        <time>2019-07-08T05:31:10Z</time>
      </trkpt>
      <trkpt lat="44.86088" lon="5.23601">
        <ele>1010</ele>
        <time>2019-07-08T05:31:17Z</time>
      </trkpt>
      <trkpt lat="44.86089" lon="5.23599">
        <ele>1010</ele>
        <time>2019-07-08T05:31:28Z</time>
      </trkpt>
      <trkpt lat="44.8609" lon="5.23593">
        <ele>1010</ele>
        <time>2019-07-08T05:31:30Z</time>
      </trkpt>
      <trkpt lat="44.86092" lon="5.23586">
        <ele>1009.5999755859</ele>
        <time>2019-07-08T05:31:32Z</time>
      </trkpt>
      <trkpt lat="44.86093" lon="5.23583">
        <ele>1009</ele>
        <time>2019-07-08T05:31:33Z</time>
      </trkpt>
      <trkpt lat="44.86094" lon="5.2358">
        <ele>1008.5999755859</ele>
        <time>2019-07-08T05:31:34Z</time>
      </trkpt>
      <trkpt lat="44.86094" lon="5.23577">
        <ele>1008</ele>
        <time>2019-07-08T05:31:35Z</time>
      </trkpt>
      <trkpt lat="44.86094" lon="5.23574">
        <ele>1007.5999755859</ele>
        <time>2019-07-08T05:31:36Z</time>
      </trkpt>
      <trkpt lat="44.86096" lon="5.23571">
        <ele>1007</ele>
        <time>2019-07-08T05:31:37Z</time>
      </trkpt>
      <trkpt lat="44.86096" lon="5.23569">
        <ele>1006.4000244141</ele>
        <time>2019-07-08T05:31:38Z</time>
      </trkpt>
      <trkpt lat="44.86098" lon="5.23566">
        <ele>1005.799987793</ele>
        <time>2019-07-08T05:31:39Z</time>
      </trkpt>
      <trkpt lat="44.86098" lon="5.23562">
        <ele>1005.200012207</ele>
        <time>2019-07-08T05:31:40Z</time>
      </trkpt>
      <trkpt lat="44.86099" lon="5.23558">
        <ele>1004.4000244141</ele>
        <time>2019-07-08T05:31:41Z</time>
      </trkpt>
      <trkpt lat="44.861" lon="5.23555">
        <ele>1003.799987793</ele>
        <time>2019-07-08T05:31:42Z</time>
      </trkpt>
      <trkpt lat="44.86101" lon="5.23553">
        <ele>1003.200012207</ele>
        <time>2019-07-08T05:31:43Z</time>
      </trkpt>
      <trkpt lat="44.86102" lon="5.2355">
        <ele>1002.5999755859</ele>
        <time>2019-07-08T05:31:44Z</time>
      </trkpt>
      <trkpt lat="44.86102" lon="5.23547">
        <ele>1002</ele>
        <time>2019-07-08T05:31:45Z</time>
      </trkpt>
      <trkpt lat="44.86102" lon="5.23543">
        <ele>1001.4000244141</ele>
        <time>2019-07-08T05:31:46Z</time>
      </trkpt>
      <trkpt lat="44.86103" lon="5.23539">
        <ele>1000.799987793</ele>
        <time>2019-07-08T05:31:47Z</time>
      </trkpt>
      <trkpt lat="44.86105" lon="5.23536">
        <ele>999.79998779297</ele>
        <time>2019-07-08T05:31:48Z</time>
      </trkpt>
      <trkpt lat="44.86105" lon="5.23533">
        <ele>999.20001220703</ele>
        <time>2019-07-08T05:31:49Z</time>
      </trkpt>
      <trkpt lat="44.86105" lon="5.23532">
        <ele>998.59997558594</ele>
        <time>2019-07-08T05:31:50Z</time>
      </trkpt>
      <trkpt lat="44.86103" lon="5.23531">
        <ele>998</ele>
        <time>2019-07-08T05:31:51Z</time>
      </trkpt>
      <trkpt lat="44.86103" lon="5.2353">
        <ele>997.40002441406</ele>
        <time>2019-07-08T05:31:52Z</time>
      </trkpt>
      <trkpt lat="44.86103" lon="5.23528">
        <ele>996.79998779297</ele>
        <time>2019-07-08T05:31:53Z</time>
      </trkpt>
      <trkpt lat="44.86104" lon="5.23526">
        <ele>996</ele>
        <time>2019-07-08T05:31:54Z</time>
      </trkpt>
      <trkpt lat="44.86104" lon="5.23525">
        <ele>995.40002441406</ele>
        <time>2019-07-08T05:31:55Z</time>
      </trkpt>
      <trkpt lat="44.86104" lon="5.23522">
        <ele>994.79998779297</ele>
        <time>2019-07-08T05:31:56Z</time>
      </trkpt>
      <trkpt lat="44.86105" lon="5.23519">
        <ele>994.20001220703</ele>
        <time>2019-07-08T05:31:57Z</time>
      </trkpt>
      <trkpt lat="44.86105" lon="5.23516">
        <ele>993.79998779297</ele>
        <time>2019-07-08T05:31:58Z</time>
      </trkpt>
      <trkpt lat="44.86107" lon="5.23514">
        <ele>993.20001220703</ele>
        <time>2019-07-08T05:31:59Z</time>
      </trkpt>
      <trkpt lat="44.86108" lon="5.23511">
        <ele>992.79998779297</ele>
        <time>2019-07-08T05:32:00Z</time>
      </trkpt>
      <trkpt lat="44.86108" lon="5.23508">
        <ele>992.40002441406</ele>
        <time>2019-07-08T05:32:01Z</time>
      </trkpt>
      <trkpt lat="44.86108" lon="5.23505">
        <ele>991.79998779297</ele>
        <time>2019-07-08T05:32:02Z</time>
      </trkpt>
      <trkpt lat="44.86108" lon="5.23503">
        <ele>991.20001220703</ele>
        <time>2019-07-08T05:32:03Z</time>
      </trkpt>
      <trkpt lat="44.86109" lon="5.23502">
        <ele>990.59997558594</ele>
        <time>2019-07-08T05:32:04Z</time>
      </trkpt>
      <trkpt lat="44.8611" lon="5.235">
        <ele>990</ele>
        <time>2019-07-08T05:32:05Z</time>
      </trkpt>
      <trkpt lat="44.86111" lon="5.23498">
        <ele>989.40002441406</ele>
        <time>2019-07-08T05:32:06Z</time>
      </trkpt>
      <trkpt lat="44.86112" lon="5.23497">
        <ele>988.79998779297</ele>
        <time>2019-07-08T05:32:07Z</time>
      </trkpt>
      <trkpt lat="44.86113" lon="5.23497">
        <ele>988.40002441406</ele>
        <time>2019-07-08T05:32:08Z</time>
      </trkpt>
      <trkpt lat="44.86114" lon="5.23496">
        <ele>987.79998779297</ele>
        <time>2019-07-08T05:32:09Z</time>
      </trkpt>
      <trkpt lat="44.86116" lon="5.23494">
        <ele>987.20001220703</ele>
        <time>2019-07-08T05:32:10Z</time>
      </trkpt>
      <trkpt lat="44.8612" lon="5.23491">
        <ele>987.20001220703</ele>
        <time>2019-07-08T05:32:12Z</time>
      </trkpt>
      <trkpt lat="44.86122" lon="5.23491">
        <ele>986.40002441406</ele>
        <time>2019-07-08T05:32:13Z</time>
      </trkpt>
      <trkpt lat="44.86125" lon="5.23492">
        <ele>985.79998779297</ele>
        <time>2019-07-08T05:32:14Z</time>
      </trkpt>
      <trkpt lat="44.86126" lon="5.23494">
        <ele>985.40002441406</ele>
        <time>2019-07-08T05:32:15Z</time>
      </trkpt>
      <trkpt lat="44.86128" lon="5.23495">
        <ele>984.79998779297</ele>
        <time>2019-07-08T05:32:16Z</time>
      </trkpt>
      <trkpt lat="44.86131" lon="5.23498">
        <ele>984.40002441406</ele>
        <time>2019-07-08T05:32:18Z</time>
      </trkpt>
      <trkpt lat="44.86133" lon="5.23498">
        <ele>984</ele>
        <time>2019-07-08T05:32:19Z</time>
      </trkpt>
      <trkpt lat="44.86134" lon="5.23498">
        <ele>983.59997558594</ele>
        <time>2019-07-08T05:32:20Z</time>
      </trkpt>
      <trkpt lat="44.86135" lon="5.23497">
        <ele>983.20001220703</ele>
        <time>2019-07-08T05:32:21Z</time>
      </trkpt>
      <trkpt lat="44.86135" lon="5.23496">
        <ele>982.79998779297</ele>
        <time>2019-07-08T05:32:22Z</time>
      </trkpt>
      <trkpt lat="44.86135" lon="5.23494">
        <ele>982.20001220703</ele>
        <time>2019-07-08T05:32:23Z</time>
      </trkpt>
      <trkpt lat="44.86134" lon="5.23491">
        <ele>981.59997558594</ele>
        <time>2019-07-08T05:32:24Z</time>
      </trkpt>
      <trkpt lat="44.86133" lon="5.23489">
        <ele>981.20001220703</ele>
        <time>2019-07-08T05:32:25Z</time>
      </trkpt>
      <trkpt lat="44.86132" lon="5.23487">
        <ele>980.59997558594</ele>
        <time>2019-07-08T05:32:26Z</time>
      </trkpt>
      <trkpt lat="44.86131" lon="5.23481">
        <ele>980.20001220703</ele>
        <time>2019-07-08T05:32:28Z</time>
      </trkpt>
      <trkpt lat="44.8613" lon="5.23477">
        <ele>979.79998779297</ele>
        <time>2019-07-08T05:32:29Z</time>
      </trkpt>
      <trkpt lat="44.86128" lon="5.23473">
        <ele>979.20001220703</ele>
        <time>2019-07-08T05:32:30Z</time>
      </trkpt>
      <trkpt lat="44.86127" lon="5.23469">
        <ele>978.79998779297</ele>
        <time>2019-07-08T05:32:31Z</time>
      </trkpt>
      <trkpt lat="44.86126" lon="5.23467">
        <ele>978.20001220703</ele>
        <time>2019-07-08T05:32:32Z</time>
      </trkpt>
      <trkpt lat="44.86126" lon="5.23464">
        <ele>977.79998779297</ele>
        <time>2019-07-08T05:32:33Z</time>
      </trkpt>
      <trkpt lat="44.86125" lon="5.23461">
        <ele>977.20001220703</ele>
        <time>2019-07-08T05:32:34Z</time>
      </trkpt>
      <trkpt lat="44.86124" lon="5.23458">
        <ele>976.59997558594</ele>
        <time>2019-07-08T05:32:35Z</time>
      </trkpt>
      <trkpt lat="44.86124" lon="5.23456">
        <ele>976.20001220703</ele>
        <time>2019-07-08T05:32:36Z</time>
      </trkpt>
      <trkpt lat="44.86123" lon="5.23453">
        <ele>975</ele>
        <time>2019-07-08T05:32:37Z</time>
      </trkpt>
      <trkpt lat="44.86122" lon="5.2345">
        <ele>974.40002441406</ele>
        <time>2019-07-08T05:32:38Z</time>
      </trkpt>
      <trkpt lat="44.86121" lon="5.23447">
        <ele>973.79998779297</ele>
        <time>2019-07-08T05:32:39Z</time>
      </trkpt>
      <trkpt lat="44.86119" lon="5.23445">
        <ele>973.20001220703</ele>
        <time>2019-07-08T05:32:40Z</time>
      </trkpt>
      <trkpt lat="44.86118" lon="5.23443">
        <ele>972.59997558594</ele>
        <time>2019-07-08T05:32:41Z</time>
      </trkpt>
      <trkpt lat="44.86116" lon="5.2344">
        <ele>972</ele>
        <time>2019-07-08T05:32:42Z</time>
      </trkpt>
      <trkpt lat="44.86113" lon="5.23438">
        <ele>971.40002441406</ele>
        <time>2019-07-08T05:32:43Z</time>
      </trkpt>
      <trkpt lat="44.86111" lon="5.23436">
        <ele>970.79998779297</ele>
        <time>2019-07-08T05:32:44Z</time>
      </trkpt>
      <trkpt lat="44.86112" lon="5.23434">
        <ele>970</ele>
        <time>2019-07-08T05:32:45Z</time>
      </trkpt>
      <trkpt lat="44.86113" lon="5.23432">
        <ele>969.40002441406</ele>
        <time>2019-07-08T05:32:46Z</time>
      </trkpt>
      <trkpt lat="44.86114" lon="5.23431">
        <ele>968.79998779297</ele>
        <time>2019-07-08T05:32:47Z</time>
      </trkpt>
      <trkpt lat="44.86116" lon="5.2343">
        <ele>968.20001220703</ele>
        <time>2019-07-08T05:32:48Z</time>
      </trkpt>
      <trkpt lat="44.86117" lon="5.23429">
        <ele>967.59997558594</ele>
        <time>2019-07-08T05:32:49Z</time>
      </trkpt>
      <trkpt lat="44.86117" lon="5.23429">
        <ele>967</ele>
        <time>2019-07-08T05:32:50Z</time>
      </trkpt>
      <trkpt lat="44.86117" lon="5.23428">
        <ele>966.40002441406</ele>
        <time>2019-07-08T05:32:51Z</time>
      </trkpt>
      <trkpt lat="44.86117" lon="5.23428">
        <ele>966.40002441406</ele>
        <time>2019-07-08T05:32:52Z</time>
      </trkpt>
      <trkpt lat="44.86116" lon="5.23427">
        <ele>966</ele>
        <time>2019-07-08T05:32:54Z</time>
      </trkpt>
      <trkpt lat="44.86117" lon="5.23427">
        <ele>965.59997558594</ele>
        <time>2019-07-08T05:32:55Z</time>
      </trkpt>
      <trkpt lat="44.86117" lon="5.23427">
        <ele>965.20001220703</ele>
        <time>2019-07-08T05:32:56Z</time>
      </trkpt>
      <trkpt lat="44.86117" lon="5.23427">
        <ele>964.79998779297</ele>
        <time>2019-07-08T05:32:57Z</time>
      </trkpt>
      <trkpt lat="44.86117" lon="5.23427">
        <ele>964.40002441406</ele>
        <time>2019-07-08T05:32:58Z</time>
      </trkpt>
      <trkpt lat="44.86116" lon="5.23426">
        <ele>964.40002441406</ele>
        <time>2019-07-08T05:33:00Z</time>
      </trkpt>
      <trkpt lat="44.86115" lon="5.23425">
        <ele>964.40002441406</ele>
        <time>2019-07-08T05:33:01Z</time>
      </trkpt>
      <trkpt lat="44.86112" lon="5.23421">
        <ele>964</ele>
        <time>2019-07-08T05:33:04Z</time>
      </trkpt>
      <trkpt lat="44.86114" lon="5.23419">
        <ele>963.59997558594</ele>
        <time>2019-07-08T05:33:05Z</time>
      </trkpt>
      <trkpt lat="44.86116" lon="5.23418">
        <ele>963.20001220703</ele>
        <time>2019-07-08T05:33:06Z</time>
      </trkpt>
      <trkpt lat="44.86119" lon="5.23417">
        <ele>962.79998779297</ele>
        <time>2019-07-08T05:33:07Z</time>
      </trkpt>
      <trkpt lat="44.86122" lon="5.23415">
        <ele>962.20001220703</ele>
        <time>2019-07-08T05:33:08Z</time>
      </trkpt>
      <trkpt lat="44.86124" lon="5.23414">
        <ele>961.59997558594</ele>
        <time>2019-07-08T05:33:09Z</time>
      </trkpt>
      <trkpt lat="44.86126" lon="5.23414">
        <ele>961</ele>
        <time>2019-07-08T05:33:10Z</time>
      </trkpt>
      <trkpt lat="44.86127" lon="5.23414">
        <ele>960.59997558594</ele>
        <time>2019-07-08T05:33:11Z</time>
      </trkpt>
      <trkpt lat="44.86127" lon="5.23412">
        <ele>960</ele>
        <time>2019-07-08T05:33:12Z</time>
      </trkpt>
      <trkpt lat="44.86127" lon="5.23411">
        <ele>959.40002441406</ele>
        <time>2019-07-08T05:33:13Z</time>
      </trkpt>
      <trkpt lat="44.86126" lon="5.2341">
        <ele>959</ele>
        <time>2019-07-08T05:33:14Z</time>
      </trkpt>
      <trkpt lat="44.86125" lon="5.23408">
        <ele>958.40002441406</ele>
        <time>2019-07-08T05:33:15Z</time>
      </trkpt>
      <trkpt lat="44.86123" lon="5.23406">
        <ele>957.79998779297</ele>
        <time>2019-07-08T05:33:16Z</time>
      </trkpt>
      <trkpt lat="44.86122" lon="5.23406">
        <ele>957.40002441406</ele>
        <time>2019-07-08T05:33:17Z</time>
      </trkpt>
      <trkpt lat="44.8612" lon="5.23404">
        <ele>956.79998779297</ele>
        <time>2019-07-08T05:33:18Z</time>
      </trkpt>
      <trkpt lat="44.86119" lon="5.23402">
        <ele>956.40002441406</ele>
        <time>2019-07-08T05:33:19Z</time>
      </trkpt>
      <trkpt lat="44.86117" lon="5.23398">
        <ele>956</ele>
        <time>2019-07-08T05:33:20Z</time>
      </trkpt>
      <trkpt lat="44.86116" lon="5.23397">
        <ele>955.40002441406</ele>
        <time>2019-07-08T05:33:21Z</time>
      </trkpt>
      <trkpt lat="44.86114" lon="5.23396">
        <ele>954.79998779297</ele>
        <time>2019-07-08T05:33:22Z</time>
      </trkpt>
      <trkpt lat="44.86113" lon="5.23395">
        <ele>954.20001220703</ele>
        <time>2019-07-08T05:33:23Z</time>
      </trkpt>
      <trkpt lat="44.86111" lon="5.23392">
        <ele>953.40002441406</ele>
        <time>2019-07-08T05:33:24Z</time>
      </trkpt>
      <trkpt lat="44.86109" lon="5.2339">
        <ele>952.20001220703</ele>
        <time>2019-07-08T05:33:25Z</time>
      </trkpt>
      <trkpt lat="44.86106" lon="5.23389">
        <ele>951.40002441406</ele>
        <time>2019-07-08T05:33:26Z</time>
      </trkpt>
      <trkpt lat="44.86103" lon="5.2339">
        <ele>950.79998779297</ele>
        <time>2019-07-08T05:33:27Z</time>
      </trkpt>
      <trkpt lat="44.86102" lon="5.2339">
        <ele>950.20001220703</ele>
        <time>2019-07-08T05:33:28Z</time>
      </trkpt>
      <trkpt lat="44.86102" lon="5.2339">
        <ele>949.59997558594</ele>
        <time>2019-07-08T05:33:29Z</time>
      </trkpt>
      <trkpt lat="44.86101" lon="5.23389">
        <ele>949</ele>
        <time>2019-07-08T05:33:30Z</time>
      </trkpt>
      <trkpt lat="44.861" lon="5.23388">
        <ele>948.40002441406</ele>
        <time>2019-07-08T05:33:31Z</time>
      </trkpt>
      <trkpt lat="44.86099" lon="5.23386">
        <ele>948.40002441406</ele>
        <time>2019-07-08T05:33:32Z</time>
      </trkpt>
      <trkpt lat="44.86096" lon="5.23385">
        <ele>948</ele>
        <time>2019-07-08T05:33:33Z</time>
      </trkpt>
      <trkpt lat="44.86094" lon="5.23384">
        <ele>947.59997558594</ele>
        <time>2019-07-08T05:33:34Z</time>
      </trkpt>
      <trkpt lat="44.86093" lon="5.23383">
        <ele>947</ele>
        <time>2019-07-08T05:33:35Z</time>
      </trkpt>
      <trkpt lat="44.8609" lon="5.23384">
        <ele>946.40002441406</ele>
        <time>2019-07-08T05:33:36Z</time>
      </trkpt>
      <trkpt lat="44.86089" lon="5.23384">
        <ele>945.79998779297</ele>
        <time>2019-07-08T05:33:37Z</time>
      </trkpt>
      <trkpt lat="44.86087" lon="5.23383">
        <ele>945.20001220703</ele>
        <time>2019-07-08T05:33:38Z</time>
      </trkpt>
      <trkpt lat="44.86085" lon="5.23384">
        <ele>944.59997558594</ele>
        <time>2019-07-08T05:33:39Z</time>
      </trkpt>
      <trkpt lat="44.86083" lon="5.23385">
        <ele>944</ele>
        <time>2019-07-08T05:33:40Z</time>
      </trkpt>
      <trkpt lat="44.86081" lon="5.23386">
        <ele>943.20001220703</ele>
        <time>2019-07-08T05:33:41Z</time>
      </trkpt>
      <trkpt lat="44.8608" lon="5.23387">
        <ele>942.59997558594</ele>
        <time>2019-07-08T05:33:42Z</time>
      </trkpt>
      <trkpt lat="44.86078" lon="5.23386">
        <ele>942</ele>
        <time>2019-07-08T05:33:43Z</time>
      </trkpt>
      <trkpt lat="44.86076" lon="5.23387">
        <ele>941.40002441406</ele>
        <time>2019-07-08T05:33:44Z</time>
      </trkpt>
      <trkpt lat="44.86074" lon="5.23387">
        <ele>940.79998779297</ele>
        <time>2019-07-08T05:33:45Z</time>
      </trkpt>
      <trkpt lat="44.86072" lon="5.23388">
        <ele>940.40002441406</ele>
        <time>2019-07-08T05:33:46Z</time>
      </trkpt>
      <trkpt lat="44.86071" lon="5.23387">
        <ele>939.79998779297</ele>
        <time>2019-07-08T05:33:47Z</time>
      </trkpt>
      <trkpt lat="44.86071" lon="5.23386">
        <ele>939.20001220703</ele>
        <time>2019-07-08T05:33:48Z</time>
      </trkpt>
      <trkpt lat="44.86072" lon="5.23383">
        <ele>938.20001220703</ele>
        <time>2019-07-08T05:33:49Z</time>
      </trkpt>
      <trkpt lat="44.86072" lon="5.23381">
        <ele>937.59997558594</ele>
        <time>2019-07-08T05:33:50Z</time>
      </trkpt>
      <trkpt lat="44.86073" lon="5.23377">
        <ele>937.20001220703</ele>
        <time>2019-07-08T05:33:52Z</time>
      </trkpt>
      <trkpt lat="44.86073" lon="5.23375">
        <ele>936.59997558594</ele>
        <time>2019-07-08T05:33:53Z</time>
      </trkpt>
      <trkpt lat="44.86072" lon="5.23374">
        <ele>936</ele>
        <time>2019-07-08T05:33:54Z</time>
      </trkpt>
      <trkpt lat="44.86071" lon="5.23374">
        <ele>935.59997558594</ele>
        <time>2019-07-08T05:33:55Z</time>
      </trkpt>
      <trkpt lat="44.86069" lon="5.23374">
        <ele>935</ele>
        <time>2019-07-08T05:33:56Z</time>
      </trkpt>
      <trkpt lat="44.86066" lon="5.23375">
        <ele>934.59997558594</ele>
        <time>2019-07-08T05:33:57Z</time>
      </trkpt>
      <trkpt lat="44.86064" lon="5.23376">
        <ele>934</ele>
        <time>2019-07-08T05:33:58Z</time>
      </trkpt>
      <trkpt lat="44.86063" lon="5.23377">
        <ele>933.40002441406</ele>
        <time>2019-07-08T05:33:59Z</time>
      </trkpt>
      <trkpt lat="44.8606" lon="5.23375">
        <ele>933</ele>
        <time>2019-07-08T05:34:00Z</time>
      </trkpt>
      <trkpt lat="44.86058" lon="5.23374">
        <ele>932.40002441406</ele>
        <time>2019-07-08T05:34:01Z</time>
      </trkpt>
      <trkpt lat="44.86057" lon="5.23375">
        <ele>932</ele>
        <time>2019-07-08T05:34:02Z</time>
      </trkpt>
      <trkpt lat="44.86056" lon="5.23377">
        <ele>931.59997558594</ele>
        <time>2019-07-08T05:34:03Z</time>
      </trkpt>
      <trkpt lat="44.86054" lon="5.23377">
        <ele>931.20001220703</ele>
        <time>2019-07-08T05:34:04Z</time>
      </trkpt>
      <trkpt lat="44.86053" lon="5.23378">
        <ele>930.59997558594</ele>
        <time>2019-07-08T05:34:05Z</time>
      </trkpt>
      <trkpt lat="44.86051" lon="5.23379">
        <ele>930</ele>
        <time>2019-07-08T05:34:06Z</time>
      </trkpt>
      <trkpt lat="44.86049" lon="5.23379">
        <ele>929.59997558594</ele>
        <time>2019-07-08T05:34:07Z</time>
      </trkpt>
      <trkpt lat="44.86048" lon="5.23379">
        <ele>928.79998779297</ele>
        <time>2019-07-08T05:34:08Z</time>
      </trkpt>
      <trkpt lat="44.86046" lon="5.23379">
        <ele>928.20001220703</ele>
        <time>2019-07-08T05:34:09Z</time>
      </trkpt>
      <trkpt lat="44.86045" lon="5.23378">
        <ele>927.59997558594</ele>
        <time>2019-07-08T05:34:10Z</time>
      </trkpt>
      <trkpt lat="44.86044" lon="5.23377">
        <ele>927</ele>
        <time>2019-07-08T05:34:11Z</time>
      </trkpt>
      <trkpt lat="44.86042" lon="5.23376">
        <ele>926.20001220703</ele>
        <time>2019-07-08T05:34:12Z</time>
      </trkpt>
      <trkpt lat="44.8604" lon="5.23374">
        <ele>925.59997558594</ele>
        <time>2019-07-08T05:34:13Z</time>
      </trkpt>
      <trkpt lat="44.86039" lon="5.23371">
        <ele>924.20001220703</ele>
        <time>2019-07-08T05:34:14Z</time>
      </trkpt>
      <trkpt lat="44.86038" lon="5.23368">
        <ele>923.59997558594</ele>
        <time>2019-07-08T05:34:15Z</time>
      </trkpt>
      <trkpt lat="44.86036" lon="5.23367">
        <ele>922.79998779297</ele>
        <time>2019-07-08T05:34:16Z</time>
      </trkpt>
      <trkpt lat="44.86033" lon="5.23368">
        <ele>922.20001220703</ele>
        <time>2019-07-08T05:34:17Z</time>
      </trkpt>
      <trkpt lat="44.8603" lon="5.23368">
        <ele>921.79998779297</ele>
        <time>2019-07-08T05:34:18Z</time>
      </trkpt>
      <trkpt lat="44.86028" lon="5.23367">
        <ele>921.20001220703</ele>
        <time>2019-07-08T05:34:19Z</time>
      </trkpt>
      <trkpt lat="44.86026" lon="5.23369">
        <ele>920.59997558594</ele>
        <time>2019-07-08T05:34:20Z</time>
      </trkpt>
      <trkpt lat="44.86026" lon="5.23369">
        <ele>919.79998779297</ele>
        <time>2019-07-08T05:34:21Z</time>
      </trkpt>
      <trkpt lat="44.86026" lon="5.23369">
        <ele>919.20001220703</ele>
        <time>2019-07-08T05:34:22Z</time>
      </trkpt>
      <trkpt lat="44.86026" lon="5.23369">
        <ele>918.59997558594</ele>
        <time>2019-07-08T05:34:23Z</time>
      </trkpt>
      <trkpt lat="44.86026" lon="5.23369">
        <ele>918</ele>
        <time>2019-07-08T05:34:24Z</time>
      </trkpt>
      <trkpt lat="44.86026" lon="5.23369">
        <ele>918</ele>
        <time>2019-07-08T05:34:27Z</time>
      </trkpt>
      <trkpt lat="44.86026" lon="5.23369">
        <ele>918</ele>
        <time>2019-07-08T05:34:36Z</time>
      </trkpt>
      <trkpt lat="44.86026" lon="5.23369">
        <ele>918</ele>
        <time>2019-07-08T05:34:53Z</time>
      </trkpt>
      <trkpt lat="44.86025" lon="5.2337">
        <ele>918</ele>
        <time>2019-07-08T05:35:05Z</time>
      </trkpt>
      <trkpt lat="44.86025" lon="5.2337">
        <ele>918</ele>
        <time>2019-07-08T05:35:20Z</time>
      </trkpt>
      <trkpt lat="44.86025" lon="5.2337">
        <ele>918</ele>
        <time>2019-07-08T05:35:33Z</time>
      </trkpt>
      <trkpt lat="44.86025" lon="5.23371">
        <ele>918</ele>
        <time>2019-07-08T05:35:50Z</time>
      </trkpt>
      <trkpt lat="44.86024" lon="5.23371">
        <ele>918</ele>
        <time>2019-07-08T05:35:51Z</time>
      </trkpt>
      <trkpt lat="44.8602" lon="5.23373">
        <ele>917.59997558594</ele>
        <time>2019-07-08T05:35:53Z</time>
      </trkpt>
      <trkpt lat="44.86017" lon="5.23372">
        <ele>917.20001220703</ele>
        <time>2019-07-08T05:35:54Z</time>
      </trkpt>
      <trkpt lat="44.86017" lon="5.23371">
        <ele>916.79998779297</ele>
        <time>2019-07-08T05:35:55Z</time>
      </trkpt>
      <trkpt lat="44.86017" lon="5.23369">
        <ele>916.40002441406</ele>
        <time>2019-07-08T05:35:56Z</time>
      </trkpt>
      <trkpt lat="44.86016" lon="5.23368">
        <ele>916</ele>
        <time>2019-07-08T05:35:57Z</time>
      </trkpt>
      <trkpt lat="44.86014" lon="5.23368">
        <ele>915.40002441406</ele>
        <time>2019-07-08T05:35:58Z</time>
      </trkpt>
      <trkpt lat="44.86012" lon="5.23368">
        <ele>915</ele>
        <time>2019-07-08T05:35:59Z</time>
      </trkpt>
      <trkpt lat="44.8601" lon="5.23369">
        <ele>914.40002441406</ele>
        <time>2019-07-08T05:36:00Z</time>
      </trkpt>
      <trkpt lat="44.86009" lon="5.2337">
        <ele>914</ele>
        <time>2019-07-08T05:36:01Z</time>
      </trkpt>
      <trkpt lat="44.86007" lon="5.23372">
        <ele>913.40002441406</ele>
        <time>2019-07-08T05:36:02Z</time>
      </trkpt>
      <trkpt lat="44.86004" lon="5.23372">
        <ele>913</ele>
        <time>2019-07-08T05:36:03Z</time>
      </trkpt>
      <trkpt lat="44.86003" lon="5.23372">
        <ele>912.40002441406</ele>
        <time>2019-07-08T05:36:04Z</time>
      </trkpt>
      <trkpt lat="44.86001" lon="5.23373">
        <ele>912</ele>
        <time>2019-07-08T05:36:05Z</time>
      </trkpt>
      <trkpt lat="44.86001" lon="5.23374">
        <ele>911.40002441406</ele>
        <time>2019-07-08T05:36:06Z</time>
      </trkpt>
      <trkpt lat="44.86" lon="5.23377">
        <ele>910.79998779297</ele>
        <time>2019-07-08T05:36:07Z</time>
      </trkpt>
      <trkpt lat="44.85999" lon="5.23378">
        <ele>910.20001220703</ele>
        <time>2019-07-08T05:36:08Z</time>
      </trkpt>
      <trkpt lat="44.85998" lon="5.23379">
        <ele>909.79998779297</ele>
        <time>2019-07-08T05:36:09Z</time>
      </trkpt>
      <trkpt lat="44.85996" lon="5.23382">
        <ele>909.20001220703</ele>
        <time>2019-07-08T05:36:10Z</time>
      </trkpt>
      <trkpt lat="44.85994" lon="5.23385">
        <ele>908.79998779297</ele>
        <time>2019-07-08T05:36:11Z</time>
      </trkpt>
      <trkpt lat="44.85993" lon="5.23387">
        <ele>908.20001220703</ele>
        <time>2019-07-08T05:36:12Z</time>
      </trkpt>
      <trkpt lat="44.85991" lon="5.23387">
        <ele>907.79998779297</ele>
        <time>2019-07-08T05:36:13Z</time>
      </trkpt>
      <trkpt lat="44.85989" lon="5.23387">
        <ele>906.79998779297</ele>
        <time>2019-07-08T05:36:14Z</time>
      </trkpt>
      <trkpt lat="44.85988" lon="5.23385">
        <ele>906.79998779297</ele>
        <time>2019-07-08T05:36:15Z</time>
      </trkpt>
      <trkpt lat="44.85987" lon="5.23384">
        <ele>906.40002441406</ele>
        <time>2019-07-08T05:36:16Z</time>
      </trkpt>
      <trkpt lat="44.85987" lon="5.23382">
        <ele>906</ele>
        <time>2019-07-08T05:36:17Z</time>
      </trkpt>
      <trkpt lat="44.85986" lon="5.2338">
        <ele>905.59997558594</ele>
        <time>2019-07-08T05:36:18Z</time>
      </trkpt>
      <trkpt lat="44.85985" lon="5.23378">
        <ele>905.20001220703</ele>
        <time>2019-07-08T05:36:19Z</time>
      </trkpt>
      <trkpt lat="44.85984" lon="5.23375">
        <ele>904.79998779297</ele>
        <time>2019-07-08T05:36:20Z</time>
      </trkpt>
      <trkpt lat="44.85982" lon="5.23372">
        <ele>904.40002441406</ele>
        <time>2019-07-08T05:36:21Z</time>
      </trkpt>
      <trkpt lat="44.85981" lon="5.2337">
        <ele>904</ele>
        <time>2019-07-08T05:36:22Z</time>
      </trkpt>
      <trkpt lat="44.8598" lon="5.23368">
        <ele>903.59997558594</ele>
        <time>2019-07-08T05:36:23Z</time>
      </trkpt>
      <trkpt lat="44.85978" lon="5.23366">
        <ele>903.20001220703</ele>
        <time>2019-07-08T05:36:24Z</time>
      </trkpt>
      <trkpt lat="44.85977" lon="5.23365">
        <ele>902.79998779297</ele>
        <time>2019-07-08T05:36:25Z</time>
      </trkpt>
      <trkpt lat="44.85978" lon="5.23364">
        <ele>902.79998779297</ele>
        <time>2019-07-08T05:36:27Z</time>
      </trkpt>
      <trkpt lat="44.85978" lon="5.23361">
        <ele>902.40002441406</ele>
        <time>2019-07-08T05:36:29Z</time>
      </trkpt>
      <trkpt lat="44.85976" lon="5.23358">
        <ele>901.79998779297</ele>
        <time>2019-07-08T05:36:30Z</time>
      </trkpt>
      <trkpt lat="44.85973" lon="5.23354">
        <ele>901.40002441406</ele>
        <time>2019-07-08T05:36:31Z</time>
      </trkpt>
      <trkpt lat="44.85972" lon="5.2335">
        <ele>901</ele>
        <time>2019-07-08T05:36:32Z</time>
      </trkpt>
      <trkpt lat="44.8597" lon="5.23346">
        <ele>900.40002441406</ele>
        <time>2019-07-08T05:36:33Z</time>
      </trkpt>
      <trkpt lat="44.85966" lon="5.23341">
        <ele>900</ele>
        <time>2019-07-08T05:36:34Z</time>
      </trkpt>
      <trkpt lat="44.85963" lon="5.23337">
        <ele>899.40002441406</ele>
        <time>2019-07-08T05:36:35Z</time>
      </trkpt>
      <trkpt lat="44.8596" lon="5.23334">
        <ele>898.79998779297</ele>
        <time>2019-07-08T05:36:36Z</time>
      </trkpt>
      <trkpt lat="44.85958" lon="5.23332">
        <ele>898</ele>
        <time>2019-07-08T05:36:37Z</time>
      </trkpt>
      <trkpt lat="44.85956" lon="5.23331">
        <ele>897.40002441406</ele>
        <time>2019-07-08T05:36:38Z</time>
      </trkpt>
      <trkpt lat="44.85955" lon="5.23329">
        <ele>895.79998779297</ele>
        <time>2019-07-08T05:36:39Z</time>
      </trkpt>
      <trkpt lat="44.85953" lon="5.23326">
        <ele>895.20001220703</ele>
        <time>2019-07-08T05:36:40Z</time>
      </trkpt>
      <trkpt lat="44.85951" lon="5.23324">
        <ele>894.40002441406</ele>
        <time>2019-07-08T05:36:41Z</time>
      </trkpt>
      <trkpt lat="44.85949" lon="5.23321">
        <ele>893.79998779297</ele>
        <time>2019-07-08T05:36:42Z</time>
      </trkpt>
      <trkpt lat="44.85946" lon="5.23319">
        <ele>893.20001220703</ele>
        <time>2019-07-08T05:36:44Z</time>
      </trkpt>
      <trkpt lat="44.85943" lon="5.23316">
        <ele>892.59997558594</ele>
        <time>2019-07-08T05:36:45Z</time>
      </trkpt>
      <trkpt lat="44.85941" lon="5.23313">
        <ele>891.79998779297</ele>
        <time>2019-07-08T05:36:46Z</time>
      </trkpt>
      <trkpt lat="44.85937" lon="5.2331">
        <ele>891.20001220703</ele>
        <time>2019-07-08T05:36:47Z</time>
      </trkpt>
      <trkpt lat="44.85933" lon="5.23307">
        <ele>890.40002441406</ele>
        <time>2019-07-08T05:36:48Z</time>
      </trkpt>
      <trkpt lat="44.85929" lon="5.23304">
        <ele>889.79998779297</ele>
        <time>2019-07-08T05:36:49Z</time>
      </trkpt>
      <trkpt lat="44.85926" lon="5.23303">
        <ele>889</ele>
        <time>2019-07-08T05:36:50Z</time>
      </trkpt>
      <trkpt lat="44.85925" lon="5.23302">
        <ele>888.59997558594</ele>
        <time>2019-07-08T05:36:51Z</time>
      </trkpt>
      <trkpt lat="44.85924" lon="5.23302">
        <ele>888</ele>
        <time>2019-07-08T05:36:52Z</time>
      </trkpt>
      <trkpt lat="44.85924" lon="5.23302">
        <ele>887.59997558594</ele>
        <time>2019-07-08T05:36:53Z</time>
      </trkpt>
      <trkpt lat="44.85924" lon="5.23302">
        <ele>887</ele>
        <time>2019-07-08T05:36:54Z</time>
      </trkpt>
      <trkpt lat="44.85924" lon="5.23302">
        <ele>886.40002441406</ele>
        <time>2019-07-08T05:36:55Z</time>
      </trkpt>
      <trkpt lat="44.85924" lon="5.23302">
        <ele>886.40002441406</ele>
        <time>2019-07-08T05:37:05Z</time>
      </trkpt>
      <trkpt lat="44.85923" lon="5.23299">
        <ele>886.40002441406</ele>
        <time>2019-07-08T05:37:08Z</time>
      </trkpt>
      <trkpt lat="44.85918" lon="5.23291">
        <ele>886.40002441406</ele>
        <time>2019-07-08T05:37:10Z</time>
      </trkpt>
      <trkpt lat="44.85915" lon="5.23286">
        <ele>886</ele>
        <time>2019-07-08T05:37:11Z</time>
      </trkpt>
      <trkpt lat="44.85911" lon="5.23282">
        <ele>885.59997558594</ele>
        <time>2019-07-08T05:37:12Z</time>
      </trkpt>
      <trkpt lat="44.85907" lon="5.23276">
        <ele>885.20001220703</ele>
        <time>2019-07-08T05:37:13Z</time>
      </trkpt>
      <trkpt lat="44.85902" lon="5.23269">
        <ele>884.40002441406</ele>
        <time>2019-07-08T05:37:14Z</time>
      </trkpt>
      <trkpt lat="44.85896" lon="5.2326">
        <ele>883.59997558594</ele>
        <time>2019-07-08T05:37:15Z</time>
      </trkpt>
      <trkpt lat="44.85891" lon="5.23251">
        <ele>883</ele>
        <time>2019-07-08T05:37:16Z</time>
      </trkpt>
      <trkpt lat="44.85885" lon="5.23241">
        <ele>882.20001220703</ele>
        <time>2019-07-08T05:37:17Z</time>
      </trkpt>
      <trkpt lat="44.8588" lon="5.2323">
        <ele>881.20001220703</ele>
        <time>2019-07-08T05:37:18Z</time>
      </trkpt>
      <trkpt lat="44.85875" lon="5.23221">
        <ele>880.20001220703</ele>
        <time>2019-07-08T05:37:19Z</time>
      </trkpt>
      <trkpt lat="44.85868" lon="5.23213">
        <ele>879.20001220703</ele>
        <time>2019-07-08T05:37:20Z</time>
      </trkpt>
      <trkpt lat="44.85862" lon="5.23205">
        <ele>878</ele>
        <time>2019-07-08T05:37:21Z</time>
      </trkpt>
      <trkpt lat="44.85857" lon="5.23196">
        <ele>877</ele>
        <time>2019-07-08T05:37:22Z</time>
      </trkpt>
      <trkpt lat="44.85852" lon="5.23186">
        <ele>875.79998779297</ele>
        <time>2019-07-08T05:37:23Z</time>
      </trkpt>
      <trkpt lat="44.85849" lon="5.23175">
        <ele>874.59997558594</ele>
        <time>2019-07-08T05:37:24Z</time>
      </trkpt>
      <trkpt lat="44.85844" lon="5.23165">
        <ele>873.40002441406</ele>
        <time>2019-07-08T05:37:25Z</time>
      </trkpt>
      <trkpt lat="44.85838" lon="5.23158">
        <ele>872.40002441406</ele>
        <time>2019-07-08T05:37:26Z</time>
      </trkpt>
      <trkpt lat="44.85832" lon="5.23151">
        <ele>871.59997558594</ele>
        <time>2019-07-08T05:37:27Z</time>
      </trkpt>
      <trkpt lat="44.85827" lon="5.23143">
        <ele>869.40002441406</ele>
        <time>2019-07-08T05:37:28Z</time>
      </trkpt>
      <trkpt lat="44.85822" lon="5.23134">
        <ele>868.20001220703</ele>
        <time>2019-07-08T05:37:29Z</time>
      </trkpt>
      <trkpt lat="44.85817" lon="5.23123">
        <ele>867</ele>
        <time>2019-07-08T05:37:30Z</time>
      </trkpt>
      <trkpt lat="44.85812" lon="5.23114">
        <ele>865.79998779297</ele>
        <time>2019-07-08T05:37:31Z</time>
      </trkpt>
      <trkpt lat="44.85806" lon="5.23105">
        <ele>864.79998779297</ele>
        <time>2019-07-08T05:37:32Z</time>
      </trkpt>
      <trkpt lat="44.85801" lon="5.23097">
        <ele>864</ele>
        <time>2019-07-08T05:37:33Z</time>
      </trkpt>
      <trkpt lat="44.85796" lon="5.23089">
        <ele>863</ele>
        <time>2019-07-08T05:37:34Z</time>
      </trkpt>
      <trkpt lat="44.85791" lon="5.23082">
        <ele>862.40002441406</ele>
        <time>2019-07-08T05:37:35Z</time>
      </trkpt>
      <trkpt lat="44.85786" lon="5.23075">
        <ele>861.59997558594</ele>
        <time>2019-07-08T05:37:36Z</time>
      </trkpt>
      <trkpt lat="44.85781" lon="5.23068">
        <ele>860.79998779297</ele>
        <time>2019-07-08T05:37:37Z</time>
      </trkpt>
      <trkpt lat="44.85776" lon="5.23059">
        <ele>860</ele>
        <time>2019-07-08T05:37:38Z</time>
      </trkpt>
      <trkpt lat="44.8577" lon="5.23052">
        <ele>859.20001220703</ele>
        <time>2019-07-08T05:37:39Z</time>
      </trkpt>
      <trkpt lat="44.85764" lon="5.23046">
        <ele>858.40002441406</ele>
        <time>2019-07-08T05:37:40Z</time>
      </trkpt>
      <trkpt lat="44.8576" lon="5.23039">
        <ele>857.40002441406</ele>
        <time>2019-07-08T05:37:41Z</time>
      </trkpt>
      <trkpt lat="44.85756" lon="5.2303">
        <ele>856.59997558594</ele>
        <time>2019-07-08T05:37:42Z</time>
      </trkpt>
      <trkpt lat="44.85752" lon="5.23022">
        <ele>855.59997558594</ele>
        <time>2019-07-08T05:37:43Z</time>
      </trkpt>
      <trkpt lat="44.85746" lon="5.23015">
        <ele>854.79998779297</ele>
        <time>2019-07-08T05:37:44Z</time>
      </trkpt>
      <trkpt lat="44.8574" lon="5.23008">
        <ele>853.79998779297</ele>
        <time>2019-07-08T05:37:45Z</time>
      </trkpt>
      <trkpt lat="44.85735" lon="5.23002">
        <ele>852.79998779297</ele>
        <time>2019-07-08T05:37:46Z</time>
      </trkpt>
      <trkpt lat="44.85731" lon="5.22999">
        <ele>851.59997558594</ele>
        <time>2019-07-08T05:37:47Z</time>
      </trkpt>
      <trkpt lat="44.85729" lon="5.22998">
        <ele>850.40002441406</ele>
        <time>2019-07-08T05:37:48Z</time>
      </trkpt>
      <trkpt lat="44.85729" lon="5.22999">
        <ele>849</ele>
        <time>2019-07-08T05:37:49Z</time>
      </trkpt>
      <trkpt lat="44.85728" lon="5.22999">
        <ele>847.59997558594</ele>
        <time>2019-07-08T05:37:50Z</time>
      </trkpt>
      <trkpt lat="44.85727" lon="5.23">
        <ele>846.20001220703</ele>
        <time>2019-07-08T05:37:51Z</time>
      </trkpt>
      <trkpt lat="44.85727" lon="5.23">
        <ele>843.40002441406</ele>
        <time>2019-07-08T05:37:52Z</time>
      </trkpt>
      <trkpt lat="44.85728" lon="5.23001">
        <ele>843.40002441406</ele>
        <time>2019-07-08T05:37:55Z</time>
      </trkpt>
      <trkpt lat="44.85727" lon="5.23001">
        <ele>843.40002441406</ele>
        <time>2019-07-08T05:38:00Z</time>
      </trkpt>
      <trkpt lat="44.85722" lon="5.22996">
        <ele>843</ele>
        <time>2019-07-08T05:38:03Z</time>
      </trkpt>
      <trkpt lat="44.8572" lon="5.22997">
        <ele>842.59997558594</ele>
        <time>2019-07-08T05:38:04Z</time>
      </trkpt>
      <trkpt lat="44.85718" lon="5.22997">
        <ele>842.20001220703</ele>
        <time>2019-07-08T05:38:05Z</time>
      </trkpt>
      <trkpt lat="44.85717" lon="5.22994">
        <ele>841.59997558594</ele>
        <time>2019-07-08T05:38:06Z</time>
      </trkpt>
      <trkpt lat="44.85716" lon="5.22991">
        <ele>841.20001220703</ele>
        <time>2019-07-08T05:38:07Z</time>
      </trkpt>
      <trkpt lat="44.85715" lon="5.22988">
        <ele>840.59997558594</ele>
        <time>2019-07-08T05:38:08Z</time>
      </trkpt>
      <trkpt lat="44.85715" lon="5.22985">
        <ele>840.20001220703</ele>
        <time>2019-07-08T05:38:09Z</time>
      </trkpt>
      <trkpt lat="44.85714" lon="5.22983">
        <ele>839.59997558594</ele>
        <time>2019-07-08T05:38:10Z</time>
      </trkpt>
      <trkpt lat="44.85713" lon="5.2298">
        <ele>839</ele>
        <time>2019-07-08T05:38:11Z</time>
      </trkpt>
      <trkpt lat="44.85711" lon="5.22978">
        <ele>838.40002441406</ele>
        <time>2019-07-08T05:38:12Z</time>
      </trkpt>
      <trkpt lat="44.8571" lon="5.22975">
        <ele>837.79998779297</ele>
        <time>2019-07-08T05:38:13Z</time>
      </trkpt>
      <trkpt lat="44.85709" lon="5.22972">
        <ele>837.20001220703</ele>
        <time>2019-07-08T05:38:14Z</time>
      </trkpt>
      <trkpt lat="44.85707" lon="5.22967">
        <ele>836.59997558594</ele>
        <time>2019-07-08T05:38:15Z</time>
      </trkpt>
      <trkpt lat="44.85706" lon="5.22962">
        <ele>835.79998779297</ele>
        <time>2019-07-08T05:38:16Z</time>
      </trkpt>
      <trkpt lat="44.85703" lon="5.22957">
        <ele>834.40002441406</ele>
        <time>2019-07-08T05:38:17Z</time>
      </trkpt>
      <trkpt lat="44.85702" lon="5.22952">
        <ele>833.59997558594</ele>
        <time>2019-07-08T05:38:18Z</time>
      </trkpt>
      <trkpt lat="44.857" lon="5.22948">
        <ele>832.59997558594</ele>
        <time>2019-07-08T05:38:19Z</time>
      </trkpt>
      <trkpt lat="44.85697" lon="5.22945">
        <ele>831.79998779297</ele>
        <time>2019-07-08T05:38:20Z</time>
      </trkpt>
      <trkpt lat="44.85693" lon="5.22941">
        <ele>830.79998779297</ele>
        <time>2019-07-08T05:38:21Z</time>
      </trkpt>
      <trkpt lat="44.85689" lon="5.22939">
        <ele>829.79998779297</ele>
        <time>2019-07-08T05:38:22Z</time>
      </trkpt>
      <trkpt lat="44.85684" lon="5.22936">
        <ele>828.59997558594</ele>
        <time>2019-07-08T05:38:23Z</time>
      </trkpt>
      <trkpt lat="44.85681" lon="5.22934">
        <ele>827.59997558594</ele>
        <time>2019-07-08T05:38:24Z</time>
      </trkpt>
      <trkpt lat="44.85677" lon="5.22931">
        <ele>826.40002441406</ele>
        <time>2019-07-08T05:38:25Z</time>
      </trkpt>
      <trkpt lat="44.85675" lon="5.22928">
        <ele>825.40002441406</ele>
        <time>2019-07-08T05:38:26Z</time>
      </trkpt>
      <trkpt lat="44.85672" lon="5.22927">
        <ele>824.20001220703</ele>
        <time>2019-07-08T05:38:27Z</time>
      </trkpt>
      <trkpt lat="44.8567" lon="5.22925">
        <ele>823</ele>
        <time>2019-07-08T05:38:28Z</time>
      </trkpt>
      <trkpt lat="44.85668" lon="5.22923">
        <ele>821.79998779297</ele>
        <time>2019-07-08T05:38:29Z</time>
      </trkpt>
      <trkpt lat="44.85666" lon="5.22921">
        <ele>820.59997558594</ele>
        <time>2019-07-08T05:38:30Z</time>
      </trkpt>
      <trkpt lat="44.85664" lon="5.22919">
        <ele>819.40002441406</ele>
        <time>2019-07-08T05:38:31Z</time>
      </trkpt>
      <trkpt lat="44.85664" lon="5.22919">
        <ele>818.20001220703</ele>
        <time>2019-07-08T05:38:32Z</time>
      </trkpt>
      <trkpt lat="44.85664" lon="5.22919">
        <ele>817.40002441406</ele>
        <time>2019-07-08T05:38:33Z</time>
      </trkpt>
      <trkpt lat="44.85664" lon="5.22919">
        <ele>816.40002441406</ele>
        <time>2019-07-08T05:38:34Z</time>
      </trkpt>
      <trkpt lat="44.85664" lon="5.22919">
        <ele>815.40002441406</ele>
        <time>2019-07-08T05:38:35Z</time>
      </trkpt>
      <trkpt lat="44.85664" lon="5.22919">
        <ele>814.59997558594</ele>
        <time>2019-07-08T05:38:36Z</time>
      </trkpt>
      <trkpt lat="44.85664" lon="5.22919">
        <ele>813.59997558594</ele>
        <time>2019-07-08T05:38:37Z</time>
      </trkpt>
      <trkpt lat="44.85665" lon="5.2292">
        <ele>813.59997558594</ele>
        <time>2019-07-08T05:38:39Z</time>
      </trkpt>
      <trkpt lat="44.85664" lon="5.2292">
        <ele>813.59997558594</ele>
        <time>2019-07-08T05:38:40Z</time>
      </trkpt>
      <trkpt lat="44.85664" lon="5.22922">
        <ele>813.59997558594</ele>
        <time>2019-07-08T05:38:45Z</time>
      </trkpt>
      <trkpt lat="44.85659" lon="5.22918">
        <ele>813.20001220703</ele>
        <time>2019-07-08T05:38:50Z</time>
      </trkpt>
      <trkpt lat="44.85657" lon="5.22917">
        <ele>812.79998779297</ele>
        <time>2019-07-08T05:38:51Z</time>
      </trkpt>
      <trkpt lat="44.85655" lon="5.22917">
        <ele>812.20001220703</ele>
        <time>2019-07-08T05:38:52Z</time>
      </trkpt>
      <trkpt lat="44.85652" lon="5.22916">
        <ele>811.79998779297</ele>
        <time>2019-07-08T05:38:53Z</time>
      </trkpt>
      <trkpt lat="44.85649" lon="5.22915">
        <ele>811.20001220703</ele>
        <time>2019-07-08T05:38:54Z</time>
      </trkpt>
      <trkpt lat="44.85646" lon="5.22914">
        <ele>810.79998779297</ele>
        <time>2019-07-08T05:38:55Z</time>
      </trkpt>
      <trkpt lat="44.85644" lon="5.22912">
        <ele>810.20001220703</ele>
        <time>2019-07-08T05:38:56Z</time>
      </trkpt>
      <trkpt lat="44.85642" lon="5.2291">
        <ele>809.79998779297</ele>
        <time>2019-07-08T05:38:57Z</time>
      </trkpt>
      <trkpt lat="44.8564" lon="5.22906">
        <ele>809.20001220703</ele>
        <time>2019-07-08T05:38:58Z</time>
      </trkpt>
      <trkpt lat="44.8564" lon="5.22903">
        <ele>808.59997558594</ele>
        <time>2019-07-08T05:38:59Z</time>
      </trkpt>
      <trkpt lat="44.85638" lon="5.22899">
        <ele>808</ele>
        <time>2019-07-08T05:39:00Z</time>
      </trkpt>
      <trkpt lat="44.85636" lon="5.22895">
        <ele>807.40002441406</ele>
        <time>2019-07-08T05:39:01Z</time>
      </trkpt>
      <trkpt lat="44.85633" lon="5.2289">
        <ele>806.79998779297</ele>
        <time>2019-07-08T05:39:02Z</time>
      </trkpt>
      <trkpt lat="44.8563" lon="5.22887">
        <ele>806.40002441406</ele>
        <time>2019-07-08T05:39:03Z</time>
      </trkpt>
      <trkpt lat="44.85628" lon="5.22882">
        <ele>806</ele>
        <time>2019-07-08T05:39:04Z</time>
      </trkpt>
      <trkpt lat="44.85625" lon="5.22879">
        <ele>805.59997558594</ele>
        <time>2019-07-08T05:39:05Z</time>
      </trkpt>
      <trkpt lat="44.85623" lon="5.22874">
        <ele>804.20001220703</ele>
        <time>2019-07-08T05:39:06Z</time>
      </trkpt>
      <trkpt lat="44.85621" lon="5.22869">
        <ele>803.59997558594</ele>
        <time>2019-07-08T05:39:07Z</time>
      </trkpt>
      <trkpt lat="44.8562" lon="5.22867">
        <ele>803</ele>
        <time>2019-07-08T05:39:08Z</time>
      </trkpt>
      <trkpt lat="44.85618" lon="5.22864">
        <ele>802.40002441406</ele>
        <time>2019-07-08T05:39:09Z</time>
      </trkpt>
      <trkpt lat="44.85616" lon="5.2286">
        <ele>801.79998779297</ele>
        <time>2019-07-08T05:39:10Z</time>
      </trkpt>
      <trkpt lat="44.85614" lon="5.22857">
        <ele>801.40002441406</ele>
        <time>2019-07-08T05:39:11Z</time>
      </trkpt>
      <trkpt lat="44.85611" lon="5.22854">
        <ele>801</ele>
        <time>2019-07-08T05:39:12Z</time>
      </trkpt>
      <trkpt lat="44.85608" lon="5.22852">
        <ele>800.59997558594</ele>
        <time>2019-07-08T05:39:13Z</time>
      </trkpt>
      <trkpt lat="44.85605" lon="5.22849">
        <ele>800.20001220703</ele>
        <time>2019-07-08T05:39:14Z</time>
      </trkpt>
      <trkpt lat="44.85602" lon="5.22846">
        <ele>799.59997558594</ele>
        <time>2019-07-08T05:39:15Z</time>
      </trkpt>
      <trkpt lat="44.85598" lon="5.22843">
        <ele>799.20001220703</ele>
        <time>2019-07-08T05:39:16Z</time>
      </trkpt>
      <trkpt lat="44.85593" lon="5.22839">
        <ele>798.40002441406</ele>
        <time>2019-07-08T05:39:17Z</time>
      </trkpt>
      <trkpt lat="44.85587" lon="5.22838">
        <ele>797.59997558594</ele>
        <time>2019-07-08T05:39:18Z</time>
      </trkpt>
      <trkpt lat="44.85583" lon="5.22834">
        <ele>796.40002441406</ele>
        <time>2019-07-08T05:39:19Z</time>
      </trkpt>
      <trkpt lat="44.85579" lon="5.22828">
        <ele>795.40002441406</ele>
        <time>2019-07-08T05:39:20Z</time>
      </trkpt>
      <trkpt lat="44.85575" lon="5.22822">
        <ele>794.20001220703</ele>
        <time>2019-07-08T05:39:21Z</time>
      </trkpt>
      <trkpt lat="44.85571" lon="5.22816">
        <ele>793</ele>
        <time>2019-07-08T05:39:22Z</time>
      </trkpt>
      <trkpt lat="44.85566" lon="5.22809">
        <ele>791.79998779297</ele>
        <time>2019-07-08T05:39:23Z</time>
      </trkpt>
      <trkpt lat="44.85563" lon="5.22803">
        <ele>790.59997558594</ele>
        <time>2019-07-08T05:39:24Z</time>
      </trkpt>
      <trkpt lat="44.85561" lon="5.22796">
        <ele>789.40002441406</ele>
        <time>2019-07-08T05:39:25Z</time>
      </trkpt>
      <trkpt lat="44.85552" lon="5.22781">
        <ele>789.40002441406</ele>
        <time>2019-07-08T05:39:28Z</time>
      </trkpt>
      <trkpt lat="44.85547" lon="5.2277">
        <ele>789</ele>
        <time>2019-07-08T05:39:30Z</time>
      </trkpt>
      <trkpt lat="44.85544" lon="5.22766">
        <ele>788.59997558594</ele>
        <time>2019-07-08T05:39:31Z</time>
      </trkpt>
      <trkpt lat="44.85542" lon="5.2276">
        <ele>788.20001220703</ele>
        <time>2019-07-08T05:39:32Z</time>
      </trkpt>
      <trkpt lat="44.85541" lon="5.22756">
        <ele>787.79998779297</ele>
        <time>2019-07-08T05:39:33Z</time>
      </trkpt>
      <trkpt lat="44.85539" lon="5.22753">
        <ele>787.40002441406</ele>
        <time>2019-07-08T05:39:34Z</time>
      </trkpt>
      <trkpt lat="44.85537" lon="5.22747">
        <ele>787.40002441406</ele>
        <time>2019-07-08T05:39:36Z</time>
      </trkpt>
      <trkpt lat="44.85527" lon="5.22734">
        <ele>787.40002441406</ele>
        <time>2019-07-08T05:39:40Z</time>
      </trkpt>
      <trkpt lat="44.8552" lon="5.22719">
        <ele>787.40002441406</ele>
        <time>2019-07-08T05:39:43Z</time>
      </trkpt>
      <trkpt lat="44.8552" lon="5.22716">
        <ele>787.40002441406</ele>
        <time>2019-07-08T05:39:44Z</time>
      </trkpt>
      <trkpt lat="44.8552" lon="5.22713">
        <ele>787.40002441406</ele>
        <time>2019-07-08T05:39:46Z</time>
      </trkpt>
      <trkpt lat="44.85518" lon="5.22707">
        <ele>787.40002441406</ele>
        <time>2019-07-08T05:39:48Z</time>
      </trkpt>
      <trkpt lat="44.85516" lon="5.227">
        <ele>787.40002441406</ele>
        <time>2019-07-08T05:39:51Z</time>
      </trkpt>
      <trkpt lat="44.85513" lon="5.22695">
        <ele>787.40002441406</ele>
        <time>2019-07-08T05:39:53Z</time>
      </trkpt>
      <trkpt lat="44.85503" lon="5.22681">
        <ele>787.40002441406</ele>
        <time>2019-07-08T05:39:58Z</time>
      </trkpt>
      <trkpt lat="44.85497" lon="5.22666">
        <ele>787.79998779297</ele>
        <time>2019-07-08T05:40:03Z</time>
      </trkpt>
      <trkpt lat="44.85496" lon="5.22664">
        <ele>788.20001220703</ele>
        <time>2019-07-08T05:40:04Z</time>
      </trkpt>
      <trkpt lat="44.85495" lon="5.22661">
        <ele>788.59997558594</ele>
        <time>2019-07-08T05:40:05Z</time>
      </trkpt>
      <trkpt lat="44.85493" lon="5.22659">
        <ele>789</ele>
        <time>2019-07-08T05:40:06Z</time>
      </trkpt>
      <trkpt lat="44.85491" lon="5.22656">
        <ele>789.40002441406</ele>
        <time>2019-07-08T05:40:07Z</time>
      </trkpt>
      <trkpt lat="44.85486" lon="5.22647">
        <ele>789.40002441406</ele>
        <time>2019-07-08T05:40:11Z</time>
      </trkpt>
      <trkpt lat="44.85484" lon="5.2264">
        <ele>789.40002441406</ele>
        <time>2019-07-08T05:40:15Z</time>
      </trkpt>
      <trkpt lat="44.85482" lon="5.22636">
        <ele>789.40002441406</ele>
        <time>2019-07-08T05:40:17Z</time>
      </trkpt>
      <trkpt lat="44.85479" lon="5.22632">
        <ele>789.40002441406</ele>
        <time>2019-07-08T05:40:22Z</time>
      </trkpt>
      <trkpt lat="44.85479" lon="5.22632">
        <ele>789.40002441406</ele>
        <time>2019-07-08T05:40:31Z</time>
      </trkpt>
      <trkpt lat="44.85479" lon="5.22632">
        <ele>789.40002441406</ele>
        <time>2019-07-08T05:40:46Z</time>
      </trkpt>
      <trkpt lat="44.85476" lon="5.22625">
        <ele>789</ele>
        <time>2019-07-08T05:40:55Z</time>
      </trkpt>
      <trkpt lat="44.85474" lon="5.2262">
        <ele>788.59997558594</ele>
        <time>2019-07-08T05:40:56Z</time>
      </trkpt>
      <trkpt lat="44.85472" lon="5.22616">
        <ele>788</ele>
        <time>2019-07-08T05:40:57Z</time>
      </trkpt>
      <trkpt lat="44.8547" lon="5.22611">
        <ele>787.40002441406</ele>
        <time>2019-07-08T05:40:58Z</time>
      </trkpt>
      <trkpt lat="44.85469" lon="5.22607">
        <ele>786.79998779297</ele>
        <time>2019-07-08T05:40:59Z</time>
      </trkpt>
      <trkpt lat="44.85466" lon="5.22601">
        <ele>786</ele>
        <time>2019-07-08T05:41:00Z</time>
      </trkpt>
      <trkpt lat="44.85462" lon="5.22594">
        <ele>785.40002441406</ele>
        <time>2019-07-08T05:41:01Z</time>
      </trkpt>
      <trkpt lat="44.85457" lon="5.22587">
        <ele>784.40002441406</ele>
        <time>2019-07-08T05:41:02Z</time>
      </trkpt>
      <trkpt lat="44.85453" lon="5.22581">
        <ele>783.40002441406</ele>
        <time>2019-07-08T05:41:03Z</time>
      </trkpt>
      <trkpt lat="44.85449" lon="5.22575">
        <ele>782.40002441406</ele>
        <time>2019-07-08T05:41:04Z</time>
      </trkpt>
      <trkpt lat="44.85445" lon="5.22571">
        <ele>781.40002441406</ele>
        <time>2019-07-08T05:41:05Z</time>
      </trkpt>
      <trkpt lat="44.85442" lon="5.22566">
        <ele>780.40002441406</ele>
        <time>2019-07-08T05:41:06Z</time>
      </trkpt>
      <trkpt lat="44.85439" lon="5.22561">
        <ele>778.40002441406</ele>
        <time>2019-07-08T05:41:07Z</time>
      </trkpt>
      <trkpt lat="44.85437" lon="5.22556">
        <ele>777.40002441406</ele>
        <time>2019-07-08T05:41:08Z</time>
      </trkpt>
      <trkpt lat="44.85434" lon="5.22552">
        <ele>776.40002441406</ele>
        <time>2019-07-08T05:41:09Z</time>
      </trkpt>
      <trkpt lat="44.85432" lon="5.22548">
        <ele>775.59997558594</ele>
        <time>2019-07-08T05:41:10Z</time>
      </trkpt>
      <trkpt lat="44.8543" lon="5.22545">
        <ele>774.59997558594</ele>
        <time>2019-07-08T05:41:11Z</time>
      </trkpt>
      <trkpt lat="44.85428" lon="5.22542">
        <ele>773.79998779297</ele>
        <time>2019-07-08T05:41:12Z</time>
      </trkpt>
      <trkpt lat="44.85427" lon="5.22541">
        <ele>772.79998779297</ele>
        <time>2019-07-08T05:41:13Z</time>
      </trkpt>
      <trkpt lat="44.85427" lon="5.22539">
        <ele>772.79998779297</ele>
        <time>2019-07-08T05:41:14Z</time>
      </trkpt>
      <trkpt lat="44.85428" lon="5.22538">
        <ele>772.79998779297</ele>
        <time>2019-07-08T05:41:15Z</time>
      </trkpt>
      <trkpt lat="44.85428" lon="5.22536">
        <ele>772.40002441406</ele>
        <time>2019-07-08T05:41:16Z</time>
      </trkpt>
      <trkpt lat="44.85428" lon="5.22535">
        <ele>772</ele>
        <time>2019-07-08T05:41:17Z</time>
      </trkpt>
      <trkpt lat="44.85429" lon="5.22533">
        <ele>771.59997558594</ele>
        <time>2019-07-08T05:41:18Z</time>
      </trkpt>
      <trkpt lat="44.85428" lon="5.22531">
        <ele>771.20001220703</ele>
        <time>2019-07-08T05:41:19Z</time>
      </trkpt>
      <trkpt lat="44.85425" lon="5.22528">
        <ele>770.79998779297</ele>
        <time>2019-07-08T05:41:20Z</time>
      </trkpt>
      <trkpt lat="44.85421" lon="5.22519">
        <ele>770.20001220703</ele>
        <time>2019-07-08T05:41:22Z</time>
      </trkpt>
      <trkpt lat="44.85418" lon="5.22515">
        <ele>769.79998779297</ele>
        <time>2019-07-08T05:41:23Z</time>
      </trkpt>
      <trkpt lat="44.85416" lon="5.2251">
        <ele>769.40002441406</ele>
        <time>2019-07-08T05:41:24Z</time>
      </trkpt>
      <trkpt lat="44.85414" lon="5.22505">
        <ele>768.79998779297</ele>
        <time>2019-07-08T05:41:25Z</time>
      </trkpt>
      <trkpt lat="44.85411" lon="5.225">
        <ele>768</ele>
        <time>2019-07-08T05:41:26Z</time>
      </trkpt>
      <trkpt lat="44.85408" lon="5.22496">
        <ele>767.20001220703</ele>
        <time>2019-07-08T05:41:27Z</time>
      </trkpt>
      <trkpt lat="44.85406" lon="5.22492">
        <ele>766.40002441406</ele>
        <time>2019-07-08T05:41:28Z</time>
      </trkpt>
      <trkpt lat="44.85404" lon="5.22487">
        <ele>765.59997558594</ele>
        <time>2019-07-08T05:41:29Z</time>
      </trkpt>
      <trkpt lat="44.85402" lon="5.22483">
        <ele>764.59997558594</ele>
        <time>2019-07-08T05:41:30Z</time>
      </trkpt>
      <trkpt lat="44.854" lon="5.22479">
        <ele>763.79998779297</ele>
        <time>2019-07-08T05:41:31Z</time>
      </trkpt>
      <trkpt lat="44.85398" lon="5.22476">
        <ele>762</ele>
        <time>2019-07-08T05:41:32Z</time>
      </trkpt>
      <trkpt lat="44.85396" lon="5.22472">
        <ele>761</ele>
        <time>2019-07-08T05:41:33Z</time>
      </trkpt>
      <trkpt lat="44.85392" lon="5.22468">
        <ele>760.20001220703</ele>
        <time>2019-07-08T05:41:34Z</time>
      </trkpt>
      <trkpt lat="44.85389" lon="5.22464">
        <ele>759.40002441406</ele>
        <time>2019-07-08T05:41:35Z</time>
      </trkpt>
      <trkpt lat="44.85387" lon="5.22461">
        <ele>758.59997558594</ele>
        <time>2019-07-08T05:41:36Z</time>
      </trkpt>
      <trkpt lat="44.85384" lon="5.22457">
        <ele>757.79998779297</ele>
        <time>2019-07-08T05:41:37Z</time>
      </trkpt>
      <trkpt lat="44.85383" lon="5.22454">
        <ele>757</ele>
        <time>2019-07-08T05:41:38Z</time>
      </trkpt>
      <trkpt lat="44.85381" lon="5.2245">
        <ele>756</ele>
        <time>2019-07-08T05:41:39Z</time>
      </trkpt>
      <trkpt lat="44.85377" lon="5.22445">
        <ele>755</ele>
        <time>2019-07-08T05:41:40Z</time>
      </trkpt>
      <trkpt lat="44.85374" lon="5.2244">
        <ele>754.20001220703</ele>
        <time>2019-07-08T05:41:41Z</time>
      </trkpt>
      <trkpt lat="44.85371" lon="5.22435">
        <ele>753.20001220703</ele>
        <time>2019-07-08T05:41:42Z</time>
      </trkpt>
      <trkpt lat="44.85367" lon="5.22429">
        <ele>752.20001220703</ele>
        <time>2019-07-08T05:41:43Z</time>
      </trkpt>
      <trkpt lat="44.85364" lon="5.22423">
        <ele>751.59997558594</ele>
        <time>2019-07-08T05:41:44Z</time>
      </trkpt>
      <trkpt lat="44.85361" lon="5.22418">
        <ele>750.79998779297</ele>
        <time>2019-07-08T05:41:45Z</time>
      </trkpt>
      <trkpt lat="44.85359" lon="5.22414">
        <ele>750</ele>
        <time>2019-07-08T05:41:46Z</time>
      </trkpt>
      <trkpt lat="44.85356" lon="5.22411">
        <ele>749.20001220703</ele>
        <time>2019-07-08T05:41:47Z</time>
      </trkpt>
      <trkpt lat="44.85353" lon="5.22407">
        <ele>748.20001220703</ele>
        <time>2019-07-08T05:41:48Z</time>
      </trkpt>
      <trkpt lat="44.8535" lon="5.22404">
        <ele>747.40002441406</ele>
        <time>2019-07-08T05:41:49Z</time>
      </trkpt>
      <trkpt lat="44.85348" lon="5.224">
        <ele>746.59997558594</ele>
        <time>2019-07-08T05:41:50Z</time>
      </trkpt>
      <trkpt lat="44.85346" lon="5.22394">
        <ele>745.79998779297</ele>
        <time>2019-07-08T05:41:51Z</time>
      </trkpt>
      <trkpt lat="44.85345" lon="5.22392">
        <ele>744.79998779297</ele>
        <time>2019-07-08T05:41:52Z</time>
      </trkpt>
      <trkpt lat="44.85344" lon="5.22392">
        <ele>744</ele>
        <time>2019-07-08T05:41:53Z</time>
      </trkpt>
      <trkpt lat="44.85345" lon="5.22393">
        <ele>743</ele>
        <time>2019-07-08T05:41:54Z</time>
      </trkpt>
      <trkpt lat="44.85345" lon="5.22393">
        <ele>742.20001220703</ele>
        <time>2019-07-08T05:41:55Z</time>
      </trkpt>
      <trkpt lat="44.85344" lon="5.22391">
        <ele>741.20001220703</ele>
        <time>2019-07-08T05:41:56Z</time>
      </trkpt>
      <trkpt lat="44.85343" lon="5.22387">
        <ele>741.20001220703</ele>
        <time>2019-07-08T05:41:57Z</time>
      </trkpt>
      <trkpt lat="44.85341" lon="5.22381">
        <ele>740.79998779297</ele>
        <time>2019-07-08T05:41:58Z</time>
      </trkpt>
      <trkpt lat="44.8534" lon="5.22376">
        <ele>740.40002441406</ele>
        <time>2019-07-08T05:41:59Z</time>
      </trkpt>
      <trkpt lat="44.85338" lon="5.22372">
        <ele>739.79998779297</ele>
        <time>2019-07-08T05:42:00Z</time>
      </trkpt>
      <trkpt lat="44.85338" lon="5.22369">
        <ele>739</ele>
        <time>2019-07-08T05:42:01Z</time>
      </trkpt>
      <trkpt lat="44.85337" lon="5.22367">
        <ele>738.40002441406</ele>
        <time>2019-07-08T05:42:02Z</time>
      </trkpt>
      <trkpt lat="44.85337" lon="5.22365">
        <ele>737.59997558594</ele>
        <time>2019-07-08T05:42:03Z</time>
      </trkpt>
      <trkpt lat="44.85335" lon="5.22362">
        <ele>736.79998779297</ele>
        <time>2019-07-08T05:42:04Z</time>
      </trkpt>
      <trkpt lat="44.85334" lon="5.22357">
        <ele>736.20001220703</ele>
        <time>2019-07-08T05:42:05Z</time>
      </trkpt>
      <trkpt lat="44.85332" lon="5.22352">
        <ele>735.40002441406</ele>
        <time>2019-07-08T05:42:06Z</time>
      </trkpt>
      <trkpt lat="44.8533" lon="5.22347">
        <ele>734.79998779297</ele>
        <time>2019-07-08T05:42:07Z</time>
      </trkpt>
      <trkpt lat="44.85329" lon="5.22342">
        <ele>734</ele>
        <time>2019-07-08T05:42:08Z</time>
      </trkpt>
      <trkpt lat="44.85328" lon="5.22338">
        <ele>733.40002441406</ele>
        <time>2019-07-08T05:42:09Z</time>
      </trkpt>
      <trkpt lat="44.85327" lon="5.22334">
        <ele>732.59997558594</ele>
        <time>2019-07-08T05:42:10Z</time>
      </trkpt>
      <trkpt lat="44.85326" lon="5.22329">
        <ele>731.79998779297</ele>
        <time>2019-07-08T05:42:11Z</time>
      </trkpt>
      <trkpt lat="44.85326" lon="5.22325">
        <ele>730.79998779297</ele>
        <time>2019-07-08T05:42:12Z</time>
      </trkpt>
      <trkpt lat="44.85326" lon="5.22321">
        <ele>730</ele>
        <time>2019-07-08T05:42:13Z</time>
      </trkpt>
      <trkpt lat="44.85325" lon="5.22319">
        <ele>729.20001220703</ele>
        <time>2019-07-08T05:42:14Z</time>
      </trkpt>
      <trkpt lat="44.85323" lon="5.22318">
        <ele>728.20001220703</ele>
        <time>2019-07-08T05:42:15Z</time>
      </trkpt>
      <trkpt lat="44.85322" lon="5.22319">
        <ele>727.40002441406</ele>
        <time>2019-07-08T05:42:16Z</time>
      </trkpt>
      <trkpt lat="44.8532" lon="5.22321">
        <ele>726.59997558594</ele>
        <time>2019-07-08T05:42:17Z</time>
      </trkpt>
      <trkpt lat="44.85317" lon="5.22324">
        <ele>726</ele>
        <time>2019-07-08T05:42:18Z</time>
      </trkpt>
      <trkpt lat="44.85316" lon="5.22327">
        <ele>725.20001220703</ele>
        <time>2019-07-08T05:42:19Z</time>
      </trkpt>
      <trkpt lat="44.85315" lon="5.22331">
        <ele>724</ele>
        <time>2019-07-08T05:42:20Z</time>
      </trkpt>
      <trkpt lat="44.85313" lon="5.22334">
        <ele>724</ele>
        <time>2019-07-08T05:42:21Z</time>
      </trkpt>
      <trkpt lat="44.85313" lon="5.22342">
        <ele>724</ele>
        <time>2019-07-08T05:42:23Z</time>
      </trkpt>
      <trkpt lat="44.85312" lon="5.22351">
        <ele>723.40002441406</ele>
        <time>2019-07-08T05:42:25Z</time>
      </trkpt>
      <trkpt lat="44.85311" lon="5.22355">
        <ele>723</ele>
        <time>2019-07-08T05:42:26Z</time>
      </trkpt>
      <trkpt lat="44.85311" lon="5.22357">
        <ele>722.59997558594</ele>
        <time>2019-07-08T05:42:27Z</time>
      </trkpt>
      <trkpt lat="44.85311" lon="5.2236">
        <ele>722.20001220703</ele>
        <time>2019-07-08T05:42:28Z</time>
      </trkpt>
      <trkpt lat="44.8531" lon="5.22361">
        <ele>721.79998779297</ele>
        <time>2019-07-08T05:42:29Z</time>
      </trkpt>
      <trkpt lat="44.85306" lon="5.22368">
        <ele>721.79998779297</ele>
        <time>2019-07-08T05:42:31Z</time>
      </trkpt>
      <trkpt lat="44.85303" lon="5.22377">
        <ele>721.79998779297</ele>
        <time>2019-07-08T05:42:34Z</time>
      </trkpt>
      <trkpt lat="44.853" lon="5.22385">
        <ele>721.79998779297</ele>
        <time>2019-07-08T05:42:36Z</time>
      </trkpt>
      <trkpt lat="44.85294" lon="5.22395">
        <ele>721.79998779297</ele>
        <time>2019-07-08T05:42:38Z</time>
      </trkpt>
      <trkpt lat="44.85291" lon="5.22405">
        <ele>721.20001220703</ele>
        <time>2019-07-08T05:42:40Z</time>
      </trkpt>
      <trkpt lat="44.8529" lon="5.22411">
        <ele>720.79998779297</ele>
        <time>2019-07-08T05:42:41Z</time>
      </trkpt>
      <trkpt lat="44.8529" lon="5.22416">
        <ele>720.40002441406</ele>
        <time>2019-07-08T05:42:42Z</time>
      </trkpt>
      <trkpt lat="44.8529" lon="5.22421">
        <ele>719.79998779297</ele>
        <time>2019-07-08T05:42:43Z</time>
      </trkpt>
      <trkpt lat="44.85289" lon="5.22425">
        <ele>719.40002441406</ele>
        <time>2019-07-08T05:42:44Z</time>
      </trkpt>
      <trkpt lat="44.85287" lon="5.2244">
        <ele>719.40002441406</ele>
        <time>2019-07-08T05:42:48Z</time>
      </trkpt>
      <trkpt lat="44.85286" lon="5.22453">
        <ele>719.40002441406</ele>
        <time>2019-07-08T05:42:54Z</time>
      </trkpt>
      <trkpt lat="44.85287" lon="5.22465">
        <ele>719.40002441406</ele>
        <time>2019-07-08T05:42:59Z</time>
      </trkpt>
      <trkpt lat="44.85286" lon="5.22473">
        <ele>719.40002441406</ele>
        <time>2019-07-08T05:43:04Z</time>
      </trkpt>
      <trkpt lat="44.85284" lon="5.22484">
        <ele>719.40002441406</ele>
        <time>2019-07-08T05:43:10Z</time>
      </trkpt>
      <trkpt lat="44.85284" lon="5.22485">
        <ele>719</ele>
        <time>2019-07-08T05:43:12Z</time>
      </trkpt>
      <trkpt lat="44.85284" lon="5.22485">
        <ele>718.59997558594</ele>
        <time>2019-07-08T05:43:13Z</time>
      </trkpt>
      <trkpt lat="44.85284" lon="5.22485">
        <ele>718.20001220703</ele>
        <time>2019-07-08T05:43:14Z</time>
      </trkpt>
      <trkpt lat="44.85284" lon="5.22485">
        <ele>717.59997558594</ele>
        <time>2019-07-08T05:43:15Z</time>
      </trkpt>
      <trkpt lat="44.85284" lon="5.22485">
        <ele>717.20001220703</ele>
        <time>2019-07-08T05:43:16Z</time>
      </trkpt>
      <trkpt lat="44.85283" lon="5.22483">
        <ele>717.20001220703</ele>
        <time>2019-07-08T05:43:20Z</time>
      </trkpt>
      <trkpt lat="44.85282" lon="5.22482">
        <ele>717.20001220703</ele>
        <time>2019-07-08T05:43:21Z</time>
      </trkpt>
      <trkpt lat="44.85282" lon="5.22475">
        <ele>717.20001220703</ele>
        <time>2019-07-08T05:43:25Z</time>
      </trkpt>
      <trkpt lat="44.85282" lon="5.22474">
        <ele>717.20001220703</ele>
        <time>2019-07-08T05:43:26Z</time>
      </trkpt>
      <trkpt lat="44.85282" lon="5.22471">
        <ele>717.20001220703</ele>
        <time>2019-07-08T05:43:28Z</time>
      </trkpt>
      <trkpt lat="44.8528" lon="5.22468">
        <ele>716.79998779297</ele>
        <time>2019-07-08T05:43:31Z</time>
      </trkpt>
      <trkpt lat="44.8528" lon="5.22467">
        <ele>716</ele>
        <time>2019-07-08T05:43:32Z</time>
      </trkpt>
      <trkpt lat="44.8528" lon="5.22466">
        <ele>715.59997558594</ele>
        <time>2019-07-08T05:43:33Z</time>
      </trkpt>
      <trkpt lat="44.8528" lon="5.22465">
        <ele>715.20001220703</ele>
        <time>2019-07-08T05:43:34Z</time>
      </trkpt>
      <trkpt lat="44.8528" lon="5.22465">
        <ele>715.20001220703</ele>
        <time>2019-07-08T05:43:36Z</time>
      </trkpt>
      <trkpt lat="44.85279" lon="5.22463">
        <ele>715.20001220703</ele>
        <time>2019-07-08T05:43:40Z</time>
      </trkpt>
      <trkpt lat="44.85279" lon="5.22462">
        <ele>714.79998779297</ele>
        <time>2019-07-08T05:43:42Z</time>
      </trkpt>
      <trkpt lat="44.85279" lon="5.22461">
        <ele>714.40002441406</ele>
        <time>2019-07-08T05:43:43Z</time>
      </trkpt>
      <trkpt lat="44.85278" lon="5.2246">
        <ele>714</ele>
        <time>2019-07-08T05:43:44Z</time>
      </trkpt>
      <trkpt lat="44.85277" lon="5.22459">
        <ele>713.59997558594</ele>
        <time>2019-07-08T05:43:45Z</time>
      </trkpt>
      <trkpt lat="44.85278" lon="5.22459">
        <ele>713.20001220703</ele>
        <time>2019-07-08T05:43:46Z</time>
      </trkpt>
      <trkpt lat="44.85277" lon="5.2246">
        <ele>713.20001220703</ele>
        <time>2019-07-08T05:43:50Z</time>
      </trkpt>
      <trkpt lat="44.85277" lon="5.22461">
        <ele>712.79998779297</ele>
        <time>2019-07-08T05:43:55Z</time>
      </trkpt>
      <trkpt lat="44.85277" lon="5.22461">
        <ele>712</ele>
        <time>2019-07-08T05:43:56Z</time>
      </trkpt>
      <trkpt lat="44.85277" lon="5.22461">
        <ele>711.59997558594</ele>
        <time>2019-07-08T05:43:57Z</time>
      </trkpt>
      <trkpt lat="44.85277" lon="5.22461">
        <ele>711.20001220703</ele>
        <time>2019-07-08T05:43:58Z</time>
      </trkpt>
      <trkpt lat="44.85277" lon="5.22459">
        <ele>711.20001220703</ele>
        <time>2019-07-08T05:44:05Z</time>
      </trkpt>
      <trkpt lat="44.85277" lon="5.22458">
        <ele>711.20001220703</ele>
        <time>2019-07-08T05:44:06Z</time>
      </trkpt>
      <trkpt lat="44.8528" lon="5.22452">
        <ele>711.20001220703</ele>
        <time>2019-07-08T05:44:13Z</time>
      </trkpt>
      <trkpt lat="44.85281" lon="5.22449">
        <ele>711.20001220703</ele>
        <time>2019-07-08T05:44:18Z</time>
      </trkpt>
      <trkpt lat="44.85281" lon="5.22445">
        <ele>711.20001220703</ele>
        <time>2019-07-08T05:44:23Z</time>
      </trkpt>
      <trkpt lat="44.85281" lon="5.22442">
        <ele>711.20001220703</ele>
        <time>2019-07-08T05:44:28Z</time>
      </trkpt>
      <trkpt lat="44.85281" lon="5.22441">
        <ele>711.20001220703</ele>
        <time>2019-07-08T05:44:33Z</time>
      </trkpt>
      <trkpt lat="44.85281" lon="5.22441">
        <ele>711.20001220703</ele>
        <time>2019-07-08T05:44:38Z</time>
      </trkpt>
      <trkpt lat="44.85281" lon="5.22441">
        <ele>711.20001220703</ele>
        <time>2019-07-08T05:44:52Z</time>
      </trkpt>
      <trkpt lat="44.85282" lon="5.22438">
        <ele>711.20001220703</ele>
        <time>2019-07-08T05:44:57Z</time>
      </trkpt>
      <trkpt lat="44.85283" lon="5.22435">
        <ele>711.20001220703</ele>
        <time>2019-07-08T05:44:59Z</time>
      </trkpt>
      <trkpt lat="44.85284" lon="5.22431">
        <ele>711.59997558594</ele>
        <time>2019-07-08T05:45:02Z</time>
      </trkpt>
      <trkpt lat="44.85284" lon="5.22429">
        <ele>712</ele>
        <time>2019-07-08T05:45:03Z</time>
      </trkpt>
      <trkpt lat="44.85284" lon="5.22428">
        <ele>712.40002441406</ele>
        <time>2019-07-08T05:45:04Z</time>
      </trkpt>
      <trkpt lat="44.85284" lon="5.22426">
        <ele>712.79998779297</ele>
        <time>2019-07-08T05:45:05Z</time>
      </trkpt>
      <trkpt lat="44.85285" lon="5.22424">
        <ele>713.20001220703</ele>
        <time>2019-07-08T05:45:06Z</time>
      </trkpt>
      <trkpt lat="44.85287" lon="5.22417">
        <ele>713.20001220703</ele>
        <time>2019-07-08T05:45:10Z</time>
      </trkpt>
      <trkpt lat="44.85289" lon="5.22412">
        <ele>713.59997558594</ele>
        <time>2019-07-08T05:45:14Z</time>
      </trkpt>
      <trkpt lat="44.85289" lon="5.22411">
        <ele>714</ele>
        <time>2019-07-08T05:45:15Z</time>
      </trkpt>
      <trkpt lat="44.85289" lon="5.22411">
        <ele>714.40002441406</ele>
        <time>2019-07-08T05:45:16Z</time>
      </trkpt>
      <trkpt lat="44.85289" lon="5.2241">
        <ele>714.79998779297</ele>
        <time>2019-07-08T05:45:17Z</time>
      </trkpt>
      <trkpt lat="44.85289" lon="5.2241">
        <ele>715.40002441406</ele>
        <time>2019-07-08T05:45:18Z</time>
      </trkpt>
      <trkpt lat="44.8529" lon="5.22408">
        <ele>715.40002441406</ele>
        <time>2019-07-08T05:45:23Z</time>
      </trkpt>
      <trkpt lat="44.8529" lon="5.22408">
        <ele>715.40002441406</ele>
        <time>2019-07-08T05:45:34Z</time>
      </trkpt>
      <trkpt lat="44.85293" lon="5.22403">
        <ele>715.40002441406</ele>
        <time>2019-07-08T05:45:40Z</time>
      </trkpt>
      <trkpt lat="44.85295" lon="5.224">
        <ele>715.79998779297</ele>
        <time>2019-07-08T05:45:43Z</time>
      </trkpt>
      <trkpt lat="44.85295" lon="5.22398">
        <ele>716.20001220703</ele>
        <time>2019-07-08T05:45:44Z</time>
      </trkpt>
      <trkpt lat="44.85296" lon="5.22398">
        <ele>716.59997558594</ele>
        <time>2019-07-08T05:45:45Z</time>
      </trkpt>
      <trkpt lat="44.85297" lon="5.22397">
        <ele>717</ele>
        <time>2019-07-08T05:45:46Z</time>
      </trkpt>
      <trkpt lat="44.85298" lon="5.22396">
        <ele>717.40002441406</ele>
        <time>2019-07-08T05:45:47Z</time>
      </trkpt>
      <trkpt lat="44.85299" lon="5.22394">
        <ele>717.40002441406</ele>
        <time>2019-07-08T05:45:49Z</time>
      </trkpt>
      <trkpt lat="44.85299" lon="5.22392">
        <ele>717.40002441406</ele>
        <time>2019-07-08T05:45:53Z</time>
      </trkpt>
      <trkpt lat="44.85301" lon="5.22385">
        <ele>717.40002441406</ele>
        <time>2019-07-08T05:45:57Z</time>
      </trkpt>
      <trkpt lat="44.85306" lon="5.22375">
        <ele>718</ele>
        <time>2019-07-08T05:46:01Z</time>
      </trkpt>
      <trkpt lat="44.85307" lon="5.22372">
        <ele>718.40002441406</ele>
        <time>2019-07-08T05:46:02Z</time>
      </trkpt>
      <trkpt lat="44.85307" lon="5.2237">
        <ele>718.79998779297</ele>
        <time>2019-07-08T05:46:03Z</time>
      </trkpt>
      <trkpt lat="44.85308" lon="5.22367">
        <ele>719.20001220703</ele>
        <time>2019-07-08T05:46:04Z</time>
      </trkpt>
      <trkpt lat="44.85308" lon="5.22364">
        <ele>719.59997558594</ele>
        <time>2019-07-08T05:46:05Z</time>
      </trkpt>
      <trkpt lat="44.8531" lon="5.22357">
        <ele>719.59997558594</ele>
        <time>2019-07-08T05:46:07Z</time>
      </trkpt>
      <trkpt lat="44.85312" lon="5.22345">
        <ele>719.59997558594</ele>
        <time>2019-07-08T05:46:12Z</time>
      </trkpt>
      <trkpt lat="44.85317" lon="5.22334">
        <ele>719.59997558594</ele>
        <time>2019-07-08T05:46:17Z</time>
      </trkpt>
      <trkpt lat="44.8532" lon="5.22322">
        <ele>719.59997558594</ele>
        <time>2019-07-08T05:46:22Z</time>
      </trkpt>
      <trkpt lat="44.85323" lon="5.22317">
        <ele>719.59997558594</ele>
        <time>2019-07-08T05:46:27Z</time>
      </trkpt>
      <trkpt lat="44.85323" lon="5.22317">
        <ele>719.59997558594</ele>
        <time>2019-07-08T05:46:37Z</time>
      </trkpt>
      <trkpt lat="44.85324" lon="5.22317">
        <ele>719.59997558594</ele>
        <time>2019-07-08T05:46:45Z</time>
      </trkpt>
      <trkpt lat="44.85325" lon="5.22317">
        <ele>719.59997558594</ele>
        <time>2019-07-08T05:46:46Z</time>
      </trkpt>
      <trkpt lat="44.8533" lon="5.2232">
        <ele>720</ele>
        <time>2019-07-08T05:46:51Z</time>
      </trkpt>
      <trkpt lat="44.8533" lon="5.2232">
        <ele>720.40002441406</ele>
        <time>2019-07-08T05:46:52Z</time>
      </trkpt>
      <trkpt lat="44.8533" lon="5.22319">
        <ele>720.79998779297</ele>
        <time>2019-07-08T05:46:53Z</time>
      </trkpt>
      <trkpt lat="44.8533" lon="5.22319">
        <ele>721.20001220703</ele>
        <time>2019-07-08T05:46:54Z</time>
      </trkpt>
      <trkpt lat="44.8533" lon="5.22319">
        <ele>721.59997558594</ele>
        <time>2019-07-08T05:46:55Z</time>
      </trkpt>
      <trkpt lat="44.85331" lon="5.22319">
        <ele>721.59997558594</ele>
        <time>2019-07-08T05:46:56Z</time>
      </trkpt>
      <trkpt lat="44.85332" lon="5.22319">
        <ele>721.59997558594</ele>
        <time>2019-07-08T05:46:57Z</time>
      </trkpt>
      <trkpt lat="44.85335" lon="5.22316">
        <ele>721.59997558594</ele>
        <time>2019-07-08T05:47:03Z</time>
      </trkpt>
      <trkpt lat="44.85334" lon="5.22315">
        <ele>721.59997558594</ele>
        <time>2019-07-08T05:47:08Z</time>
      </trkpt>
      <trkpt lat="44.85329" lon="5.22318">
        <ele>721.59997558594</ele>
        <time>2019-07-08T05:47:14Z</time>
      </trkpt>
      <trkpt lat="44.85329" lon="5.22318">
        <ele>721.59997558594</ele>
        <time>2019-07-08T05:47:20Z</time>
      </trkpt>
      <trkpt lat="44.85323" lon="5.22317">
        <ele>721.59997558594</ele>
        <time>2019-07-08T05:47:25Z</time>
      </trkpt>
      <trkpt lat="44.85317" lon="5.22328">
        <ele>721.59997558594</ele>
        <time>2019-07-08T05:47:29Z</time>
      </trkpt>
      <trkpt lat="44.85316" lon="5.22336">
        <ele>721.20001220703</ele>
        <time>2019-07-08T05:47:32Z</time>
      </trkpt>
      <trkpt lat="44.85316" lon="5.22338">
        <ele>720.79998779297</ele>
        <time>2019-07-08T05:47:33Z</time>
      </trkpt>
      <trkpt lat="44.85314" lon="5.22341">
        <ele>720.40002441406</ele>
        <time>2019-07-08T05:47:34Z</time>
      </trkpt>
      <trkpt lat="44.85313" lon="5.22345">
        <ele>719.59997558594</ele>
        <time>2019-07-08T05:47:35Z</time>
      </trkpt>
      <trkpt lat="44.8531" lon="5.22353">
        <ele>719.59997558594</ele>
        <time>2019-07-08T05:47:37Z</time>
      </trkpt>
      <trkpt lat="44.85307" lon="5.22369">
        <ele>719.59997558594</ele>
        <time>2019-07-08T05:47:41Z</time>
      </trkpt>
      <trkpt lat="44.85304" lon="5.22379">
        <ele>719.59997558594</ele>
        <time>2019-07-08T05:47:45Z</time>
      </trkpt>
      <trkpt lat="44.85298" lon="5.22398">
        <ele>719.59997558594</ele>
        <time>2019-07-08T05:47:49Z</time>
      </trkpt>
      <trkpt lat="44.85297" lon="5.22403">
        <ele>719.20001220703</ele>
        <time>2019-07-08T05:47:50Z</time>
      </trkpt>
      <trkpt lat="44.85296" lon="5.22409">
        <ele>718.79998779297</ele>
        <time>2019-07-08T05:47:51Z</time>
      </trkpt>
      <trkpt lat="44.85295" lon="5.22414">
        <ele>718.40002441406</ele>
        <time>2019-07-08T05:47:52Z</time>
      </trkpt>
      <trkpt lat="44.85295" lon="5.2242">
        <ele>718</ele>
        <time>2019-07-08T05:47:53Z</time>
      </trkpt>
      <trkpt lat="44.85294" lon="5.22425">
        <ele>717.59997558594</ele>
        <time>2019-07-08T05:47:54Z</time>
      </trkpt>
      <trkpt lat="44.85287" lon="5.22451">
        <ele>717.59997558594</ele>
        <time>2019-07-08T05:47:59Z</time>
      </trkpt>
      <trkpt lat="44.85285" lon="5.22462">
        <ele>717</ele>
        <time>2019-07-08T05:48:01Z</time>
      </trkpt>
      <trkpt lat="44.85285" lon="5.22468">
        <ele>716.59997558594</ele>
        <time>2019-07-08T05:48:02Z</time>
      </trkpt>
      <trkpt lat="44.85285" lon="5.22474">
        <ele>716.20001220703</ele>
        <time>2019-07-08T05:48:03Z</time>
      </trkpt>
      <trkpt lat="44.85284" lon="5.22479">
        <ele>715.59997558594</ele>
        <time>2019-07-08T05:48:04Z</time>
      </trkpt>
      <trkpt lat="44.85285" lon="5.22483">
        <ele>715.20001220703</ele>
        <time>2019-07-08T05:48:05Z</time>
      </trkpt>
      <trkpt lat="44.85284" lon="5.22493">
        <ele>715.20001220703</ele>
        <time>2019-07-08T05:48:08Z</time>
      </trkpt>
      <trkpt lat="44.85284" lon="5.22493">
        <ele>715.20001220703</ele>
        <time>2019-07-08T05:48:12Z</time>
      </trkpt>
      <trkpt lat="44.85286" lon="5.22494">
        <ele>715.20001220703</ele>
        <time>2019-07-08T05:48:16Z</time>
      </trkpt>
      <trkpt lat="44.85286" lon="5.22495">
        <ele>715.20001220703</ele>
        <time>2019-07-08T05:48:18Z</time>
      </trkpt>
      <trkpt lat="44.85285" lon="5.22498">
        <ele>715.20001220703</ele>
        <time>2019-07-08T05:48:23Z</time>
      </trkpt>
      <trkpt lat="44.85281" lon="5.22504">
        <ele>715.20001220703</ele>
        <time>2019-07-08T05:48:27Z</time>
      </trkpt>
      <trkpt lat="44.85281" lon="5.22506">
        <ele>714.79998779297</ele>
        <time>2019-07-08T05:48:28Z</time>
      </trkpt>
      <trkpt lat="44.8528" lon="5.2251">
        <ele>714.20001220703</ele>
        <time>2019-07-08T05:48:29Z</time>
      </trkpt>
      <trkpt lat="44.85279" lon="5.22512">
        <ele>713.79998779297</ele>
        <time>2019-07-08T05:48:30Z</time>
      </trkpt>
      <trkpt lat="44.8528" lon="5.22513">
        <ele>713.40002441406</ele>
        <time>2019-07-08T05:48:31Z</time>
      </trkpt>
      <trkpt lat="44.8528" lon="5.22513">
        <ele>712.79998779297</ele>
        <time>2019-07-08T05:48:32Z</time>
      </trkpt>
      <trkpt lat="44.8528" lon="5.22514">
        <ele>712.79998779297</ele>
        <time>2019-07-08T05:48:35Z</time>
      </trkpt>
      <trkpt lat="44.85279" lon="5.22515">
        <ele>712.79998779297</ele>
        <time>2019-07-08T05:48:40Z</time>
      </trkpt>
      <trkpt lat="44.85277" lon="5.22517">
        <ele>712.79998779297</ele>
        <time>2019-07-08T05:48:45Z</time>
      </trkpt>
      <trkpt lat="44.85277" lon="5.22517">
        <ele>712</ele>
        <time>2019-07-08T05:48:47Z</time>
      </trkpt>
      <trkpt lat="44.85277" lon="5.22517">
        <ele>711.59997558594</ele>
        <time>2019-07-08T05:48:48Z</time>
      </trkpt>
      <trkpt lat="44.85277" lon="5.22517">
        <ele>711.20001220703</ele>
        <time>2019-07-08T05:48:49Z</time>
      </trkpt>
      <trkpt lat="44.85277" lon="5.22517">
        <ele>710.79998779297</ele>
        <time>2019-07-08T05:48:50Z</time>
      </trkpt>
      <trkpt lat="44.85277" lon="5.22517">
        <ele>710.79998779297</ele>
        <time>2019-07-08T05:48:54Z</time>
      </trkpt>
      <trkpt lat="44.85275" lon="5.2252">
        <ele>710.79998779297</ele>
        <time>2019-07-08T05:48:56Z</time>
      </trkpt>
      <trkpt lat="44.85271" lon="5.22526">
        <ele>710.79998779297</ele>
        <time>2019-07-08T05:48:58Z</time>
      </trkpt>
      <trkpt lat="44.85265" lon="5.22539">
        <ele>710.79998779297</ele>
        <time>2019-07-08T05:49:02Z</time>
      </trkpt>
      <trkpt lat="44.85262" lon="5.22547">
        <ele>710.20001220703</ele>
        <time>2019-07-08T05:49:05Z</time>
      </trkpt>
      <trkpt lat="44.8526" lon="5.22548">
        <ele>709.79998779297</ele>
        <time>2019-07-08T05:49:06Z</time>
      </trkpt>
      <trkpt lat="44.85259" lon="5.22551">
        <ele>709.40002441406</ele>
        <time>2019-07-08T05:49:07Z</time>
      </trkpt>
      <trkpt lat="44.85259" lon="5.22553">
        <ele>708.79998779297</ele>
        <time>2019-07-08T05:49:08Z</time>
      </trkpt>
      <trkpt lat="44.85259" lon="5.22556">
        <ele>708.40002441406</ele>
        <time>2019-07-08T05:49:09Z</time>
      </trkpt>
      <trkpt lat="44.85259" lon="5.22557">
        <ele>708</ele>
        <time>2019-07-08T05:49:10Z</time>
      </trkpt>
      <trkpt lat="44.85258" lon="5.22559">
        <ele>707</ele>
        <time>2019-07-08T05:49:11Z</time>
      </trkpt>
      <trkpt lat="44.85256" lon="5.2256">
        <ele>706.59997558594</ele>
        <time>2019-07-08T05:49:12Z</time>
      </trkpt>
      <trkpt lat="44.85256" lon="5.22563">
        <ele>706</ele>
        <time>2019-07-08T05:49:13Z</time>
      </trkpt>
      <trkpt lat="44.85256" lon="5.22565">
        <ele>706</ele>
        <time>2019-07-08T05:49:15Z</time>
      </trkpt>
      <trkpt lat="44.85256" lon="5.22565">
        <ele>705.59997558594</ele>
        <time>2019-07-08T05:49:17Z</time>
      </trkpt>
      <trkpt lat="44.85256" lon="5.22565">
        <ele>705.20001220703</ele>
        <time>2019-07-08T05:49:18Z</time>
      </trkpt>
      <trkpt lat="44.85255" lon="5.22565">
        <ele>704.79998779297</ele>
        <time>2019-07-08T05:49:19Z</time>
      </trkpt>
      <trkpt lat="44.85254" lon="5.22563">
        <ele>704.40002441406</ele>
        <time>2019-07-08T05:49:20Z</time>
      </trkpt>
      <trkpt lat="44.85254" lon="5.22562">
        <ele>704</ele>
        <time>2019-07-08T05:49:21Z</time>
      </trkpt>
      <trkpt lat="44.85251" lon="5.22564">
        <ele>703.59997558594</ele>
        <time>2019-07-08T05:49:25Z</time>
      </trkpt>
      <trkpt lat="44.85251" lon="5.22564">
        <ele>703</ele>
        <time>2019-07-08T05:49:26Z</time>
      </trkpt>
      <trkpt lat="44.85251" lon="5.22564">
        <ele>702.59997558594</ele>
        <time>2019-07-08T05:49:27Z</time>
      </trkpt>
      <trkpt lat="44.85251" lon="5.22564">
        <ele>702.20001220703</ele>
        <time>2019-07-08T05:49:28Z</time>
      </trkpt>
      <trkpt lat="44.85251" lon="5.22564">
        <ele>701.59997558594</ele>
        <time>2019-07-08T05:49:29Z</time>
      </trkpt>
      <trkpt lat="44.85249" lon="5.22567">
        <ele>701.59997558594</ele>
        <time>2019-07-08T05:49:33Z</time>
      </trkpt>
      <trkpt lat="44.85244" lon="5.22574">
        <ele>701.20001220703</ele>
        <time>2019-07-08T05:49:36Z</time>
      </trkpt>
      <trkpt lat="44.85244" lon="5.22577">
        <ele>700.79998779297</ele>
        <time>2019-07-08T05:49:37Z</time>
      </trkpt>
      <trkpt lat="44.85243" lon="5.22581">
        <ele>700.20001220703</ele>
        <time>2019-07-08T05:49:38Z</time>
      </trkpt>
      <trkpt lat="44.85242" lon="5.22583">
        <ele>699.79998779297</ele>
        <time>2019-07-08T05:49:39Z</time>
      </trkpt>
      <trkpt lat="44.85241" lon="5.22587">
        <ele>699.20001220703</ele>
        <time>2019-07-08T05:49:40Z</time>
      </trkpt>
      <trkpt lat="44.85243" lon="5.22599">
        <ele>699.20001220703</ele>
        <time>2019-07-08T05:49:43Z</time>
      </trkpt>
      <trkpt lat="44.85243" lon="5.22603">
        <ele>698.79998779297</ele>
        <time>2019-07-08T05:49:44Z</time>
      </trkpt>
      <trkpt lat="44.85244" lon="5.22605">
        <ele>698.40002441406</ele>
        <time>2019-07-08T05:49:45Z</time>
      </trkpt>
      <trkpt lat="44.85245" lon="5.22607">
        <ele>698</ele>
        <time>2019-07-08T05:49:46Z</time>
      </trkpt>
      <trkpt lat="44.85245" lon="5.22609">
        <ele>697.40002441406</ele>
        <time>2019-07-08T05:49:47Z</time>
      </trkpt>
      <trkpt lat="44.85246" lon="5.2261">
        <ele>697</ele>
        <time>2019-07-08T05:49:48Z</time>
      </trkpt>
      <trkpt lat="44.85245" lon="5.2261">
        <ele>697</ele>
        <time>2019-07-08T05:49:51Z</time>
      </trkpt>
      <trkpt lat="44.85247" lon="5.22612">
        <ele>697</ele>
        <time>2019-07-08T05:49:56Z</time>
      </trkpt>
      <trkpt lat="44.85247" lon="5.22611">
        <ele>697</ele>
        <time>2019-07-08T05:50:05Z</time>
      </trkpt>
      <trkpt lat="44.85246" lon="5.22611">
        <ele>697</ele>
        <time>2019-07-08T05:50:10Z</time>
      </trkpt>
      <trkpt lat="44.85244" lon="5.22609">
        <ele>697</ele>
        <time>2019-07-08T05:50:16Z</time>
      </trkpt>
      <trkpt lat="44.85245" lon="5.22609">
        <ele>696.59997558594</ele>
        <time>2019-07-08T05:50:17Z</time>
      </trkpt>
      <trkpt lat="44.85245" lon="5.22609">
        <ele>696.20001220703</ele>
        <time>2019-07-08T05:50:18Z</time>
      </trkpt>
      <trkpt lat="44.85245" lon="5.22609">
        <ele>695.79998779297</ele>
        <time>2019-07-08T05:50:19Z</time>
      </trkpt>
      <trkpt lat="44.85245" lon="5.22609">
        <ele>695.40002441406</ele>
        <time>2019-07-08T05:50:20Z</time>
      </trkpt>
      <trkpt lat="44.85245" lon="5.22609">
        <ele>695</ele>
        <time>2019-07-08T05:50:21Z</time>
      </trkpt>
      <trkpt lat="44.85245" lon="5.22609">
        <ele>695</ele>
        <time>2019-07-08T05:50:23Z</time>
      </trkpt>
      <trkpt lat="44.85244" lon="5.22608">
        <ele>695</ele>
        <time>2019-07-08T05:50:29Z</time>
      </trkpt>
      <trkpt lat="44.85241" lon="5.22606">
        <ele>695</ele>
        <time>2019-07-08T05:50:36Z</time>
      </trkpt>
      <trkpt lat="44.85238" lon="5.22602">
        <ele>695</ele>
        <time>2019-07-08T05:50:42Z</time>
      </trkpt>
      <trkpt lat="44.85236" lon="5.22595">
        <ele>695</ele>
        <time>2019-07-08T05:50:48Z</time>
      </trkpt>
      <trkpt lat="44.85236" lon="5.22591">
        <ele>695</ele>
        <time>2019-07-08T05:50:54Z</time>
      </trkpt>
      <trkpt lat="44.85235" lon="5.22585">
        <ele>695</ele>
        <time>2019-07-08T05:51:04Z</time>
      </trkpt>
      <trkpt lat="44.85235" lon="5.22569">
        <ele>695</ele>
        <time>2019-07-08T05:51:09Z</time>
      </trkpt>
      <trkpt lat="44.85238" lon="5.2255">
        <ele>695</ele>
        <time>2019-07-08T05:51:15Z</time>
      </trkpt>
      <trkpt lat="44.85244" lon="5.22522">
        <ele>695</ele>
        <time>2019-07-08T05:51:23Z</time>
      </trkpt>
      <trkpt lat="44.85248" lon="5.22503">
        <ele>695</ele>
        <time>2019-07-08T05:51:29Z</time>
      </trkpt>
      <trkpt lat="44.8525" lon="5.22492">
        <ele>694.59997558594</ele>
        <time>2019-07-08T05:51:32Z</time>
      </trkpt>
      <trkpt lat="44.8525" lon="5.22488">
        <ele>694.20001220703</ele>
        <time>2019-07-08T05:51:33Z</time>
      </trkpt>
      <trkpt lat="44.8525" lon="5.22484">
        <ele>693.79998779297</ele>
        <time>2019-07-08T05:51:34Z</time>
      </trkpt>
      <trkpt lat="44.85249" lon="5.22479">
        <ele>693.40002441406</ele>
        <time>2019-07-08T05:51:35Z</time>
      </trkpt>
      <trkpt lat="44.85249" lon="5.22476">
        <ele>693</ele>
        <time>2019-07-08T05:51:36Z</time>
      </trkpt>
      <trkpt lat="44.85247" lon="5.22472">
        <ele>693</ele>
        <time>2019-07-08T05:51:38Z</time>
      </trkpt>
      <trkpt lat="44.85245" lon="5.2247">
        <ele>693</ele>
        <time>2019-07-08T05:51:39Z</time>
      </trkpt>
      <trkpt lat="44.85243" lon="5.22467">
        <ele>693</ele>
        <time>2019-07-08T05:51:44Z</time>
      </trkpt>
      <trkpt lat="44.85241" lon="5.22467">
        <ele>692.59997558594</ele>
        <time>2019-07-08T05:51:51Z</time>
      </trkpt>
      <trkpt lat="44.85238" lon="5.22465">
        <ele>692.20001220703</ele>
        <time>2019-07-08T05:51:52Z</time>
      </trkpt>
      <trkpt lat="44.85233" lon="5.22463">
        <ele>691.79998779297</ele>
        <time>2019-07-08T05:51:53Z</time>
      </trkpt>
      <trkpt lat="44.85228" lon="5.22461">
        <ele>691.40002441406</ele>
        <time>2019-07-08T05:51:54Z</time>
      </trkpt>
      <trkpt lat="44.85223" lon="5.22459">
        <ele>691</ele>
        <time>2019-07-08T05:51:55Z</time>
      </trkpt>
      <trkpt lat="44.8521" lon="5.22455">
        <ele>690.40002441406</ele>
        <time>2019-07-08T05:51:57Z</time>
      </trkpt>
      <trkpt lat="44.85204" lon="5.22453">
        <ele>690</ele>
        <time>2019-07-08T05:51:58Z</time>
      </trkpt>
      <trkpt lat="44.85197" lon="5.22451">
        <ele>689.40002441406</ele>
        <time>2019-07-08T05:51:59Z</time>
      </trkpt>
      <trkpt lat="44.85192" lon="5.22451">
        <ele>688.79998779297</ele>
        <time>2019-07-08T05:52:00Z</time>
      </trkpt>
      <trkpt lat="44.85187" lon="5.22452">
        <ele>687.40002441406</ele>
        <time>2019-07-08T05:52:01Z</time>
      </trkpt>
      <trkpt lat="44.85184" lon="5.22451">
        <ele>686.59997558594</ele>
        <time>2019-07-08T05:52:02Z</time>
      </trkpt>
      <trkpt lat="44.85183" lon="5.22448">
        <ele>685.79998779297</ele>
        <time>2019-07-08T05:52:03Z</time>
      </trkpt>
      <trkpt lat="44.85182" lon="5.22445">
        <ele>685</ele>
        <time>2019-07-08T05:52:04Z</time>
      </trkpt>
      <trkpt lat="44.85182" lon="5.22441">
        <ele>684.40002441406</ele>
        <time>2019-07-08T05:52:05Z</time>
      </trkpt>
      <trkpt lat="44.85183" lon="5.22438">
        <ele>683.59997558594</ele>
        <time>2019-07-08T05:52:06Z</time>
      </trkpt>
      <trkpt lat="44.85183" lon="5.22435">
        <ele>683.59997558594</ele>
        <time>2019-07-08T05:52:07Z</time>
      </trkpt>
      <trkpt lat="44.85182" lon="5.22431">
        <ele>683.20001220703</ele>
        <time>2019-07-08T05:52:08Z</time>
      </trkpt>
      <trkpt lat="44.85182" lon="5.22427">
        <ele>682.79998779297</ele>
        <time>2019-07-08T05:52:09Z</time>
      </trkpt>
      <trkpt lat="44.85181" lon="5.22423">
        <ele>682.40002441406</ele>
        <time>2019-07-08T05:52:10Z</time>
      </trkpt>
      <trkpt lat="44.85181" lon="5.22418">
        <ele>682</ele>
        <time>2019-07-08T05:52:11Z</time>
      </trkpt>
      <trkpt lat="44.8518" lon="5.22413">
        <ele>681.59997558594</ele>
        <time>2019-07-08T05:52:12Z</time>
      </trkpt>
      <trkpt lat="44.85179" lon="5.22383">
        <ele>681.59997558594</ele>
        <time>2019-07-08T05:52:17Z</time>
      </trkpt>
      <trkpt lat="44.85178" lon="5.22364">
        <ele>681.59997558594</ele>
        <time>2019-07-08T05:52:20Z</time>
      </trkpt>
      <trkpt lat="44.8518" lon="5.22359">
        <ele>681.59997558594</ele>
        <time>2019-07-08T05:52:21Z</time>
      </trkpt>
      <trkpt lat="44.85186" lon="5.22351">
        <ele>681.59997558594</ele>
        <time>2019-07-08T05:52:25Z</time>
      </trkpt>
      <trkpt lat="44.85187" lon="5.2235">
        <ele>681.59997558594</ele>
        <time>2019-07-08T05:52:30Z</time>
      </trkpt>
      <trkpt lat="44.85187" lon="5.2235">
        <ele>681.59997558594</ele>
        <time>2019-07-08T05:52:43Z</time>
      </trkpt>
      <trkpt lat="44.85187" lon="5.2235">
        <ele>681.59997558594</ele>
        <time>2019-07-08T05:52:55Z</time>
      </trkpt>
      <trkpt lat="44.85189" lon="5.22349">
        <ele>681.59997558594</ele>
        <time>2019-07-08T05:53:07Z</time>
      </trkpt>
      <trkpt lat="44.85193" lon="5.22344">
        <ele>681.59997558594</ele>
        <time>2019-07-08T05:53:10Z</time>
      </trkpt>
      <trkpt lat="44.85197" lon="5.22337">
        <ele>681.59997558594</ele>
        <time>2019-07-08T05:53:12Z</time>
      </trkpt>
      <trkpt lat="44.85203" lon="5.22329">
        <ele>681.59997558594</ele>
        <time>2019-07-08T05:53:16Z</time>
      </trkpt>
      <trkpt lat="44.85211" lon="5.22314">
        <ele>681.59997558594</ele>
        <time>2019-07-08T05:53:21Z</time>
      </trkpt>
      <trkpt lat="44.85218" lon="5.22285">
        <ele>681.20001220703</ele>
        <time>2019-07-08T05:53:27Z</time>
      </trkpt>
      <trkpt lat="44.8522" lon="5.2228">
        <ele>680.59997558594</ele>
        <time>2019-07-08T05:53:28Z</time>
      </trkpt>
      <trkpt lat="44.85221" lon="5.22274">
        <ele>680.20001220703</ele>
        <time>2019-07-08T05:53:29Z</time>
      </trkpt>
      <trkpt lat="44.85223" lon="5.22268">
        <ele>679.79998779297</ele>
        <time>2019-07-08T05:53:30Z</time>
      </trkpt>
      <trkpt lat="44.85225" lon="5.22261">
        <ele>679.40002441406</ele>
        <time>2019-07-08T05:53:31Z</time>
      </trkpt>
      <trkpt lat="44.85228" lon="5.22247">
        <ele>679.40002441406</ele>
        <time>2019-07-08T05:53:33Z</time>
      </trkpt>
      <trkpt lat="44.85232" lon="5.22224">
        <ele>679.40002441406</ele>
        <time>2019-07-08T05:53:37Z</time>
      </trkpt>
      <trkpt lat="44.85231" lon="5.22216">
        <ele>679.40002441406</ele>
        <time>2019-07-08T05:53:38Z</time>
      </trkpt>
      <trkpt lat="44.85227" lon="5.22198">
        <ele>679</ele>
        <time>2019-07-08T05:53:40Z</time>
      </trkpt>
      <trkpt lat="44.85225" lon="5.22189">
        <ele>678.59997558594</ele>
        <time>2019-07-08T05:53:41Z</time>
      </trkpt>
      <trkpt lat="44.85222" lon="5.2218">
        <ele>678.20001220703</ele>
        <time>2019-07-08T05:53:42Z</time>
      </trkpt>
      <trkpt lat="44.85222" lon="5.2217">
        <ele>677.79998779297</ele>
        <time>2019-07-08T05:53:43Z</time>
      </trkpt>
      <trkpt lat="44.85222" lon="5.22161">
        <ele>677.40002441406</ele>
        <time>2019-07-08T05:53:44Z</time>
      </trkpt>
      <trkpt lat="44.85224" lon="5.22126">
        <ele>677.40002441406</ele>
        <time>2019-07-08T05:53:48Z</time>
      </trkpt>
      <trkpt lat="44.85225" lon="5.22118">
        <ele>677.40002441406</ele>
        <time>2019-07-08T05:53:49Z</time>
      </trkpt>
      <trkpt lat="44.85228" lon="5.22098">
        <ele>677.40002441406</ele>
        <time>2019-07-08T05:53:52Z</time>
      </trkpt>
      <trkpt lat="44.85228" lon="5.2209">
        <ele>677</ele>
        <time>2019-07-08T05:53:53Z</time>
      </trkpt>
      <trkpt lat="44.85229" lon="5.22082">
        <ele>676.40002441406</ele>
        <time>2019-07-08T05:53:54Z</time>
      </trkpt>
      <trkpt lat="44.85229" lon="5.22074">
        <ele>676</ele>
        <time>2019-07-08T05:53:55Z</time>
      </trkpt>
      <trkpt lat="44.8523" lon="5.22066">
        <ele>675.59997558594</ele>
        <time>2019-07-08T05:53:56Z</time>
      </trkpt>
      <trkpt lat="44.85231" lon="5.22058">
        <ele>675</ele>
        <time>2019-07-08T05:53:57Z</time>
      </trkpt>
      <trkpt lat="44.85232" lon="5.22035">
        <ele>675</ele>
        <time>2019-07-08T05:54:00Z</time>
      </trkpt>
      <trkpt lat="44.85228" lon="5.22013">
        <ele>675</ele>
        <time>2019-07-08T05:54:03Z</time>
      </trkpt>
      <trkpt lat="44.85227" lon="5.22004">
        <ele>674.59997558594</ele>
        <time>2019-07-08T05:54:04Z</time>
      </trkpt>
      <trkpt lat="44.85226" lon="5.21995">
        <ele>674.20001220703</ele>
        <time>2019-07-08T05:54:05Z</time>
      </trkpt>
      <trkpt lat="44.85225" lon="5.21986">
        <ele>673.79998779297</ele>
        <time>2019-07-08T05:54:06Z</time>
      </trkpt>
      <trkpt lat="44.85225" lon="5.21977">
        <ele>673.40002441406</ele>
        <time>2019-07-08T05:54:07Z</time>
      </trkpt>
      <trkpt lat="44.85225" lon="5.21967">
        <ele>673</ele>
        <time>2019-07-08T05:54:08Z</time>
      </trkpt>
      <trkpt lat="44.85224" lon="5.2195">
        <ele>672.59997558594</ele>
        <time>2019-07-08T05:54:11Z</time>
      </trkpt>
      <trkpt lat="44.85224" lon="5.21944">
        <ele>672.20001220703</ele>
        <time>2019-07-08T05:54:12Z</time>
      </trkpt>
      <trkpt lat="44.85224" lon="5.21938">
        <ele>671.79998779297</ele>
        <time>2019-07-08T05:54:13Z</time>
      </trkpt>
      <trkpt lat="44.85224" lon="5.21932">
        <ele>671.40002441406</ele>
        <time>2019-07-08T05:54:14Z</time>
      </trkpt>
      <trkpt lat="44.85224" lon="5.21925">
        <ele>671</ele>
        <time>2019-07-08T05:54:15Z</time>
      </trkpt>
      <trkpt lat="44.85223" lon="5.21919">
        <ele>671</ele>
        <time>2019-07-08T05:54:16Z</time>
      </trkpt>
      <trkpt lat="44.85222" lon="5.21904">
        <ele>671</ele>
        <time>2019-07-08T05:54:18Z</time>
      </trkpt>
      <trkpt lat="44.85221" lon="5.21898">
        <ele>670.59997558594</ele>
        <time>2019-07-08T05:54:19Z</time>
      </trkpt>
      <trkpt lat="44.8522" lon="5.2189">
        <ele>670.20001220703</ele>
        <time>2019-07-08T05:54:20Z</time>
      </trkpt>
      <trkpt lat="44.8522" lon="5.21883">
        <ele>669.79998779297</ele>
        <time>2019-07-08T05:54:21Z</time>
      </trkpt>
      <trkpt lat="44.85219" lon="5.21876">
        <ele>669.40002441406</ele>
        <time>2019-07-08T05:54:22Z</time>
      </trkpt>
      <trkpt lat="44.85217" lon="5.2187">
        <ele>668.79998779297</ele>
        <time>2019-07-08T05:54:23Z</time>
      </trkpt>
      <trkpt lat="44.85221" lon="5.21857">
        <ele>668.79998779297</ele>
        <time>2019-07-08T05:54:25Z</time>
      </trkpt>
      <trkpt lat="44.85231" lon="5.21847">
        <ele>668</ele>
        <time>2019-07-08T05:54:27Z</time>
      </trkpt>
      <trkpt lat="44.85236" lon="5.21843">
        <ele>667.59997558594</ele>
        <time>2019-07-08T05:54:28Z</time>
      </trkpt>
      <trkpt lat="44.85241" lon="5.21838">
        <ele>667</ele>
        <time>2019-07-08T05:54:29Z</time>
      </trkpt>
      <trkpt lat="44.85247" lon="5.21836">
        <ele>666.40002441406</ele>
        <time>2019-07-08T05:54:30Z</time>
      </trkpt>
      <trkpt lat="44.85253" lon="5.21836">
        <ele>665.79998779297</ele>
        <time>2019-07-08T05:54:31Z</time>
      </trkpt>
      <trkpt lat="44.85257" lon="5.21837">
        <ele>665.20001220703</ele>
        <time>2019-07-08T05:54:32Z</time>
      </trkpt>
      <trkpt lat="44.85261" lon="5.2184">
        <ele>664.59997558594</ele>
        <time>2019-07-08T05:54:33Z</time>
      </trkpt>
      <trkpt lat="44.85265" lon="5.21842">
        <ele>664</ele>
        <time>2019-07-08T05:54:34Z</time>
      </trkpt>
      <trkpt lat="44.85269" lon="5.21843">
        <ele>664</ele>
        <time>2019-07-08T05:54:35Z</time>
      </trkpt>
      <trkpt lat="44.85273" lon="5.2184">
        <ele>664</ele>
        <time>2019-07-08T05:54:36Z</time>
      </trkpt>
      <trkpt lat="44.85278" lon="5.21825">
        <ele>664</ele>
        <time>2019-07-08T05:54:39Z</time>
      </trkpt>
      <trkpt lat="44.85287" lon="5.21807">
        <ele>664</ele>
        <time>2019-07-08T05:54:44Z</time>
      </trkpt>
      <trkpt lat="44.85296" lon="5.21792">
        <ele>664</ele>
        <time>2019-07-08T05:54:49Z</time>
      </trkpt>
      <trkpt lat="44.85297" lon="5.21779">
        <ele>664</ele>
        <time>2019-07-08T05:54:54Z</time>
      </trkpt>
      <trkpt lat="44.85296" lon="5.21774">
        <ele>664</ele>
        <time>2019-07-08T05:54:59Z</time>
      </trkpt>
      <trkpt lat="44.85296" lon="5.21774">
        <ele>664</ele>
        <time>2019-07-08T05:55:15Z</time>
      </trkpt>
      <trkpt lat="44.85296" lon="5.21774">
        <ele>664</ele>
        <time>2019-07-08T05:55:22Z</time>
      </trkpt>
      <trkpt lat="44.85296" lon="5.21774">
        <ele>664</ele>
        <time>2019-07-08T05:55:35Z</time>
      </trkpt>
      <trkpt lat="44.85295" lon="5.21774">
        <ele>664</ele>
        <time>2019-07-08T05:55:50Z</time>
      </trkpt>
      <trkpt lat="44.85294" lon="5.21773">
        <ele>664</ele>
        <time>2019-07-08T05:55:59Z</time>
      </trkpt>
      <trkpt lat="44.85292" lon="5.21771">
        <ele>664</ele>
        <time>2019-07-08T05:56:05Z</time>
      </trkpt>
      <trkpt lat="44.85281" lon="5.21759">
        <ele>664</ele>
        <time>2019-07-08T05:56:11Z</time>
      </trkpt>
      <trkpt lat="44.85268" lon="5.21738">
        <ele>664</ele>
        <time>2019-07-08T05:56:18Z</time>
      </trkpt>
      <trkpt lat="44.85261" lon="5.21724">
        <ele>664</ele>
        <time>2019-07-08T05:56:22Z</time>
      </trkpt>
      <trkpt lat="44.85244" lon="5.21697">
        <ele>664</ele>
        <time>2019-07-08T05:56:29Z</time>
      </trkpt>
      <trkpt lat="44.85225" lon="5.21667">
        <ele>664</ele>
        <time>2019-07-08T05:56:36Z</time>
      </trkpt>
      <trkpt lat="44.85213" lon="5.21644">
        <ele>664</ele>
        <time>2019-07-08T05:56:41Z</time>
      </trkpt>
      <trkpt lat="44.85207" lon="5.21609">
        <ele>664</ele>
        <time>2019-07-08T05:56:47Z</time>
      </trkpt>
      <trkpt lat="44.85205" lon="5.21603">
        <ele>664</ele>
        <time>2019-07-08T05:56:48Z</time>
      </trkpt>
      <trkpt lat="44.85202" lon="5.21592">
        <ele>664</ele>
        <time>2019-07-08T05:56:50Z</time>
      </trkpt>
      <trkpt lat="44.85193" lon="5.21577">
        <ele>664</ele>
        <time>2019-07-08T05:56:53Z</time>
      </trkpt>
      <trkpt lat="44.85168" lon="5.21542">
        <ele>664</ele>
        <time>2019-07-08T05:57:00Z</time>
      </trkpt>
      <trkpt lat="44.85138" lon="5.21507">
        <ele>664</ele>
        <time>2019-07-08T05:57:08Z</time>
      </trkpt>
      <trkpt lat="44.85111" lon="5.21474">
        <ele>664</ele>
        <time>2019-07-08T05:57:15Z</time>
      </trkpt>
      <trkpt lat="44.85082" lon="5.21452">
        <ele>664</ele>
        <time>2019-07-08T05:57:21Z</time>
      </trkpt>
      <trkpt lat="44.85046" lon="5.21428">
        <ele>664</ele>
        <time>2019-07-08T05:57:27Z</time>
      </trkpt>
      <trkpt lat="44.8504" lon="5.21423">
        <ele>664</ele>
        <time>2019-07-08T05:57:28Z</time>
      </trkpt>
      <trkpt lat="44.8503" lon="5.2141">
        <ele>663.59997558594</ele>
        <time>2019-07-08T05:57:30Z</time>
      </trkpt>
      <trkpt lat="44.85026" lon="5.21403">
        <ele>663.20001220703</ele>
        <time>2019-07-08T05:57:31Z</time>
      </trkpt>
      <trkpt lat="44.85022" lon="5.21395">
        <ele>662.79998779297</ele>
        <time>2019-07-08T05:57:32Z</time>
      </trkpt>
      <trkpt lat="44.85017" lon="5.21387">
        <ele>662.40002441406</ele>
        <time>2019-07-08T05:57:33Z</time>
      </trkpt>
      <trkpt lat="44.85013" lon="5.21379">
        <ele>662</ele>
        <time>2019-07-08T05:57:34Z</time>
      </trkpt>
      <trkpt lat="44.85009" lon="5.2137">
        <ele>661.59997558594</ele>
        <time>2019-07-08T05:57:35Z</time>
      </trkpt>
      <trkpt lat="44.85005" lon="5.21361">
        <ele>661.20001220703</ele>
        <time>2019-07-08T05:57:36Z</time>
      </trkpt>
      <trkpt lat="44.85002" lon="5.21351">
        <ele>660.79998779297</ele>
        <time>2019-07-08T05:57:37Z</time>
      </trkpt>
      <trkpt lat="44.85" lon="5.21341">
        <ele>660.40002441406</ele>
        <time>2019-07-08T05:57:38Z</time>
      </trkpt>
      <trkpt lat="44.84998" lon="5.21331">
        <ele>660</ele>
        <time>2019-07-08T05:57:39Z</time>
      </trkpt>
      <trkpt lat="44.84998" lon="5.21311">
        <ele>660</ele>
        <time>2019-07-08T05:57:41Z</time>
      </trkpt>
      <trkpt lat="44.85003" lon="5.21282">
        <ele>659.59997558594</ele>
        <time>2019-07-08T05:57:44Z</time>
      </trkpt>
      <trkpt lat="44.85007" lon="5.21273">
        <ele>659.20001220703</ele>
        <time>2019-07-08T05:57:45Z</time>
      </trkpt>
      <trkpt lat="44.85011" lon="5.21265">
        <ele>658.79998779297</ele>
        <time>2019-07-08T05:57:46Z</time>
      </trkpt>
      <trkpt lat="44.85014" lon="5.21257">
        <ele>658.40002441406</ele>
        <time>2019-07-08T05:57:47Z</time>
      </trkpt>
      <trkpt lat="44.85017" lon="5.21248">
        <ele>658</ele>
        <time>2019-07-08T05:57:48Z</time>
      </trkpt>
      <trkpt lat="44.85026" lon="5.21221">
        <ele>658</ele>
        <time>2019-07-08T05:57:51Z</time>
      </trkpt>
      <trkpt lat="44.85045" lon="5.21171">
        <ele>658</ele>
        <time>2019-07-08T05:57:57Z</time>
      </trkpt>
      <trkpt lat="44.85053" lon="5.21155">
        <ele>657.59997558594</ele>
        <time>2019-07-08T05:57:59Z</time>
      </trkpt>
      <trkpt lat="44.85056" lon="5.21147">
        <ele>657</ele>
        <time>2019-07-08T05:58:00Z</time>
      </trkpt>
      <trkpt lat="44.85059" lon="5.21139">
        <ele>656.59997558594</ele>
        <time>2019-07-08T05:58:01Z</time>
      </trkpt>
      <trkpt lat="44.8506" lon="5.2113">
        <ele>656.20001220703</ele>
        <time>2019-07-08T05:58:02Z</time>
      </trkpt>
      <trkpt lat="44.85062" lon="5.21121">
        <ele>655.79998779297</ele>
        <time>2019-07-08T05:58:03Z</time>
      </trkpt>
      <trkpt lat="44.85062" lon="5.21086">
        <ele>655.79998779297</ele>
        <time>2019-07-08T05:58:07Z</time>
      </trkpt>
      <trkpt lat="44.85055" lon="5.21045">
        <ele>655.40002441406</ele>
        <time>2019-07-08T05:58:12Z</time>
      </trkpt>
      <trkpt lat="44.85052" lon="5.21038">
        <ele>655</ele>
        <time>2019-07-08T05:58:13Z</time>
      </trkpt>
      <trkpt lat="44.85048" lon="5.2103">
        <ele>654.59997558594</ele>
        <time>2019-07-08T05:58:14Z</time>
      </trkpt>
      <trkpt lat="44.85044" lon="5.21023">
        <ele>654.20001220703</ele>
        <time>2019-07-08T05:58:15Z</time>
      </trkpt>
      <trkpt lat="44.8504" lon="5.21017">
        <ele>653.79998779297</ele>
        <time>2019-07-08T05:58:16Z</time>
      </trkpt>
      <trkpt lat="44.85036" lon="5.21011">
        <ele>653.79998779297</ele>
        <time>2019-07-08T05:58:17Z</time>
      </trkpt>
      <trkpt lat="44.85032" lon="5.21004">
        <ele>653.79998779297</ele>
        <time>2019-07-08T05:58:18Z</time>
      </trkpt>
      <trkpt lat="44.85025" lon="5.20989">
        <ele>653.79998779297</ele>
        <time>2019-07-08T05:58:20Z</time>
      </trkpt>
      <trkpt lat="44.85018" lon="5.20973">
        <ele>653.79998779297</ele>
        <time>2019-07-08T05:58:22Z</time>
      </trkpt>
      <trkpt lat="44.85016" lon="5.20965">
        <ele>653.79998779297</ele>
        <time>2019-07-08T05:58:23Z</time>
      </trkpt>
      <trkpt lat="44.85014" lon="5.20956">
        <ele>653.40002441406</ele>
        <time>2019-07-08T05:58:24Z</time>
      </trkpt>
      <trkpt lat="44.85013" lon="5.20947">
        <ele>653</ele>
        <time>2019-07-08T05:58:25Z</time>
      </trkpt>
      <trkpt lat="44.85013" lon="5.20937">
        <ele>652.59997558594</ele>
        <time>2019-07-08T05:58:26Z</time>
      </trkpt>
      <trkpt lat="44.85012" lon="5.20927">
        <ele>652.20001220703</ele>
        <time>2019-07-08T05:58:27Z</time>
      </trkpt>
      <trkpt lat="44.85011" lon="5.20917">
        <ele>651.79998779297</ele>
        <time>2019-07-08T05:58:28Z</time>
      </trkpt>
      <trkpt lat="44.8501" lon="5.20896">
        <ele>651</ele>
        <time>2019-07-08T05:58:30Z</time>
      </trkpt>
      <trkpt lat="44.85011" lon="5.20885">
        <ele>650.59997558594</ele>
        <time>2019-07-08T05:58:31Z</time>
      </trkpt>
      <trkpt lat="44.85013" lon="5.20876">
        <ele>650</ele>
        <time>2019-07-08T05:58:32Z</time>
      </trkpt>
      <trkpt lat="44.85015" lon="5.20867">
        <ele>649.59997558594</ele>
        <time>2019-07-08T05:58:33Z</time>
      </trkpt>
      <trkpt lat="44.85018" lon="5.20858">
        <ele>649.59997558594</ele>
        <time>2019-07-08T05:58:34Z</time>
      </trkpt>
      <trkpt lat="44.85019" lon="5.20848">
        <ele>649.20001220703</ele>
        <time>2019-07-08T05:58:35Z</time>
      </trkpt>
      <trkpt lat="44.85019" lon="5.20838">
        <ele>648.79998779297</ele>
        <time>2019-07-08T05:58:36Z</time>
      </trkpt>
      <trkpt lat="44.85018" lon="5.20828">
        <ele>648.20001220703</ele>
        <time>2019-07-08T05:58:37Z</time>
      </trkpt>
      <trkpt lat="44.85015" lon="5.20819">
        <ele>647.79998779297</ele>
        <time>2019-07-08T05:58:38Z</time>
      </trkpt>
      <trkpt lat="44.85011" lon="5.20811">
        <ele>647.40002441406</ele>
        <time>2019-07-08T05:58:39Z</time>
      </trkpt>
      <trkpt lat="44.84996" lon="5.20789">
        <ele>646.79998779297</ele>
        <time>2019-07-08T05:58:42Z</time>
      </trkpt>
      <trkpt lat="44.8499" lon="5.20785">
        <ele>646.40002441406</ele>
        <time>2019-07-08T05:58:43Z</time>
      </trkpt>
      <trkpt lat="44.84984" lon="5.20783">
        <ele>646</ele>
        <time>2019-07-08T05:58:44Z</time>
      </trkpt>
      <trkpt lat="44.84977" lon="5.20781">
        <ele>645.59997558594</ele>
        <time>2019-07-08T05:58:45Z</time>
      </trkpt>
      <trkpt lat="44.8497" lon="5.20779">
        <ele>645.20001220703</ele>
        <time>2019-07-08T05:58:46Z</time>
      </trkpt>
      <trkpt lat="44.84957" lon="5.20775">
        <ele>644.79998779297</ele>
        <time>2019-07-08T05:58:48Z</time>
      </trkpt>
      <trkpt lat="44.8495" lon="5.2077">
        <ele>644.40002441406</ele>
        <time>2019-07-08T05:58:49Z</time>
      </trkpt>
      <trkpt lat="44.84944" lon="5.20763">
        <ele>644</ele>
        <time>2019-07-08T05:58:50Z</time>
      </trkpt>
      <trkpt lat="44.84939" lon="5.20755">
        <ele>643.40002441406</ele>
        <time>2019-07-08T05:58:51Z</time>
      </trkpt>
      <trkpt lat="44.84934" lon="5.20746">
        <ele>643</ele>
        <time>2019-07-08T05:58:52Z</time>
      </trkpt>
      <trkpt lat="44.84932" lon="5.20735">
        <ele>642.59997558594</ele>
        <time>2019-07-08T05:58:53Z</time>
      </trkpt>
      <trkpt lat="44.84931" lon="5.20725">
        <ele>642.20001220703</ele>
        <time>2019-07-08T05:58:54Z</time>
      </trkpt>
      <trkpt lat="44.84929" lon="5.20716">
        <ele>641.40002441406</ele>
        <time>2019-07-08T05:58:55Z</time>
      </trkpt>
      <trkpt lat="44.84926" lon="5.20708">
        <ele>640.79998779297</ele>
        <time>2019-07-08T05:58:56Z</time>
      </trkpt>
      <trkpt lat="44.84922" lon="5.207">
        <ele>640.79998779297</ele>
        <time>2019-07-08T05:58:57Z</time>
      </trkpt>
      <trkpt lat="44.84919" lon="5.20693">
        <ele>640.79998779297</ele>
        <time>2019-07-08T05:58:58Z</time>
      </trkpt>
      <trkpt lat="44.84911" lon="5.20684">
        <ele>640.40002441406</ele>
        <time>2019-07-08T05:59:00Z</time>
      </trkpt>
      <trkpt lat="44.84907" lon="5.2068">
        <ele>640</ele>
        <time>2019-07-08T05:59:01Z</time>
      </trkpt>
      <trkpt lat="44.84904" lon="5.20677">
        <ele>639.40002441406</ele>
        <time>2019-07-08T05:59:02Z</time>
      </trkpt>
      <trkpt lat="44.84901" lon="5.20675">
        <ele>639</ele>
        <time>2019-07-08T05:59:03Z</time>
      </trkpt>
      <trkpt lat="44.84899" lon="5.20675">
        <ele>638.59997558594</ele>
        <time>2019-07-08T05:59:04Z</time>
      </trkpt>
      <trkpt lat="44.84889" lon="5.20671">
        <ele>638.59997558594</ele>
        <time>2019-07-08T05:59:08Z</time>
      </trkpt>
      <trkpt lat="44.84876" lon="5.20664">
        <ele>638.20001220703</ele>
        <time>2019-07-08T05:59:12Z</time>
      </trkpt>
      <trkpt lat="44.84873" lon="5.20663">
        <ele>637.79998779297</ele>
        <time>2019-07-08T05:59:13Z</time>
      </trkpt>
      <trkpt lat="44.8487" lon="5.20661">
        <ele>637.20001220703</ele>
        <time>2019-07-08T05:59:14Z</time>
      </trkpt>
      <trkpt lat="44.84867" lon="5.20659">
        <ele>636.79998779297</ele>
        <time>2019-07-08T05:59:15Z</time>
      </trkpt>
      <trkpt lat="44.84865" lon="5.20658">
        <ele>636.40002441406</ele>
        <time>2019-07-08T05:59:16Z</time>
      </trkpt>
      <trkpt lat="44.84857" lon="5.20653">
        <ele>636.40002441406</ele>
        <time>2019-07-08T05:59:19Z</time>
      </trkpt>
      <trkpt lat="44.84844" lon="5.20641">
        <ele>636</ele>
        <time>2019-07-08T05:59:23Z</time>
      </trkpt>
      <trkpt lat="44.8484" lon="5.20639">
        <ele>635.59997558594</ele>
        <time>2019-07-08T05:59:24Z</time>
      </trkpt>
      <trkpt lat="44.84837" lon="5.20636">
        <ele>635.20001220703</ele>
        <time>2019-07-08T05:59:25Z</time>
      </trkpt>
      <trkpt lat="44.84834" lon="5.20633">
        <ele>634.79998779297</ele>
        <time>2019-07-08T05:59:26Z</time>
      </trkpt>
      <trkpt lat="44.84831" lon="5.20629">
        <ele>634.40002441406</ele>
        <time>2019-07-08T05:59:27Z</time>
      </trkpt>
      <trkpt lat="44.84829" lon="5.20626">
        <ele>634.40002441406</ele>
        <time>2019-07-08T05:59:28Z</time>
      </trkpt>
      <trkpt lat="44.84821" lon="5.20607">
        <ele>634.40002441406</ele>
        <time>2019-07-08T05:59:32Z</time>
      </trkpt>
      <trkpt lat="44.84819" lon="5.20597">
        <ele>634</ele>
        <time>2019-07-08T05:59:34Z</time>
      </trkpt>
      <trkpt lat="44.84818" lon="5.20591">
        <ele>633.59997558594</ele>
        <time>2019-07-08T05:59:35Z</time>
      </trkpt>
      <trkpt lat="44.84818" lon="5.20586">
        <ele>633.20001220703</ele>
        <time>2019-07-08T05:59:36Z</time>
      </trkpt>
      <trkpt lat="44.84818" lon="5.2058">
        <ele>632.79998779297</ele>
        <time>2019-07-08T05:59:37Z</time>
      </trkpt>
      <trkpt lat="44.84819" lon="5.20575">
        <ele>632.40002441406</ele>
        <time>2019-07-08T05:59:38Z</time>
      </trkpt>
      <trkpt lat="44.84822" lon="5.20548">
        <ele>632.40002441406</ele>
        <time>2019-07-08T05:59:44Z</time>
      </trkpt>
      <trkpt lat="44.8482" lon="5.20532">
        <ele>632</ele>
        <time>2019-07-08T05:59:48Z</time>
      </trkpt>
      <trkpt lat="44.8482" lon="5.20528">
        <ele>631.59997558594</ele>
        <time>2019-07-08T05:59:49Z</time>
      </trkpt>
      <trkpt lat="44.84819" lon="5.20524">
        <ele>631.20001220703</ele>
        <time>2019-07-08T05:59:50Z</time>
      </trkpt>
      <trkpt lat="44.84818" lon="5.2052">
        <ele>630.79998779297</ele>
        <time>2019-07-08T05:59:51Z</time>
      </trkpt>
      <trkpt lat="44.84817" lon="5.20516">
        <ele>630.40002441406</ele>
        <time>2019-07-08T05:59:52Z</time>
      </trkpt>
      <trkpt lat="44.84813" lon="5.20499">
        <ele>630.40002441406</ele>
        <time>2019-07-08T05:59:56Z</time>
      </trkpt>
      <trkpt lat="44.84807" lon="5.2048">
        <ele>630.40002441406</ele>
        <time>2019-07-08T06:00:01Z</time>
      </trkpt>
      <trkpt lat="44.84801" lon="5.20465">
        <ele>630.40002441406</ele>
        <time>2019-07-08T06:00:06Z</time>
      </trkpt>
      <trkpt lat="44.84795" lon="5.20446">
        <ele>630.40002441406</ele>
        <time>2019-07-08T06:00:12Z</time>
      </trkpt>
      <trkpt lat="44.84791" lon="5.20427">
        <ele>630.40002441406</ele>
        <time>2019-07-08T06:00:17Z</time>
      </trkpt>
      <trkpt lat="44.84784" lon="5.204">
        <ele>630.40002441406</ele>
        <time>2019-07-08T06:00:24Z</time>
      </trkpt>
      <trkpt lat="44.84775" lon="5.20375">
        <ele>630</ele>
        <time>2019-07-08T06:00:30Z</time>
      </trkpt>
      <trkpt lat="44.84773" lon="5.20371">
        <ele>629.20001220703</ele>
        <time>2019-07-08T06:00:31Z</time>
      </trkpt>
      <trkpt lat="44.84772" lon="5.20367">
        <ele>628.79998779297</ele>
        <time>2019-07-08T06:00:32Z</time>
      </trkpt>
      <trkpt lat="44.84769" lon="5.20363">
        <ele>628.40002441406</ele>
        <time>2019-07-08T06:00:33Z</time>
      </trkpt>
      <trkpt lat="44.84765" lon="5.20357">
        <ele>628.40002441406</ele>
        <time>2019-07-08T06:00:35Z</time>
      </trkpt>
      <trkpt lat="44.84753" lon="5.20342">
        <ele>628.40002441406</ele>
        <time>2019-07-08T06:00:40Z</time>
      </trkpt>
      <trkpt lat="44.84746" lon="5.20329">
        <ele>628.40002441406</ele>
        <time>2019-07-08T06:00:44Z</time>
      </trkpt>
      <trkpt lat="44.8474" lon="5.2031">
        <ele>628.40002441406</ele>
        <time>2019-07-08T06:00:48Z</time>
      </trkpt>
      <trkpt lat="44.84734" lon="5.2028">
        <ele>628.40002441406</ele>
        <time>2019-07-08T06:00:54Z</time>
      </trkpt>
      <trkpt lat="44.84728" lon="5.20251">
        <ele>628</ele>
        <time>2019-07-08T06:01:00Z</time>
      </trkpt>
      <trkpt lat="44.84727" lon="5.20247">
        <ele>627.59997558594</ele>
        <time>2019-07-08T06:01:01Z</time>
      </trkpt>
      <trkpt lat="44.84725" lon="5.20242">
        <ele>627.20001220703</ele>
        <time>2019-07-08T06:01:02Z</time>
      </trkpt>
      <trkpt lat="44.84724" lon="5.20237">
        <ele>626.79998779297</ele>
        <time>2019-07-08T06:01:03Z</time>
      </trkpt>
      <trkpt lat="44.84722" lon="5.20232">
        <ele>626.40002441406</ele>
        <time>2019-07-08T06:01:04Z</time>
      </trkpt>
      <trkpt lat="44.8472" lon="5.20223">
        <ele>626.40002441406</ele>
        <time>2019-07-08T06:01:06Z</time>
      </trkpt>
      <trkpt lat="44.84711" lon="5.20201">
        <ele>626.40002441406</ele>
        <time>2019-07-08T06:01:11Z</time>
      </trkpt>
      <trkpt lat="44.847" lon="5.20176">
        <ele>626.40002441406</ele>
        <time>2019-07-08T06:01:16Z</time>
      </trkpt>
      <trkpt lat="44.84693" lon="5.20154">
        <ele>625.79998779297</ele>
        <time>2019-07-08T06:01:20Z</time>
      </trkpt>
      <trkpt lat="44.84691" lon="5.20147">
        <ele>625.40002441406</ele>
        <time>2019-07-08T06:01:21Z</time>
      </trkpt>
      <trkpt lat="44.84689" lon="5.2014">
        <ele>625</ele>
        <time>2019-07-08T06:01:22Z</time>
      </trkpt>
      <trkpt lat="44.84687" lon="5.20133">
        <ele>624.59997558594</ele>
        <time>2019-07-08T06:01:23Z</time>
      </trkpt>
      <trkpt lat="44.84685" lon="5.20125">
        <ele>624.20001220703</ele>
        <time>2019-07-08T06:01:24Z</time>
      </trkpt>
      <trkpt lat="44.84679" lon="5.20096">
        <ele>624.20001220703</ele>
        <time>2019-07-08T06:01:28Z</time>
      </trkpt>
      <trkpt lat="44.84676" lon="5.20082">
        <ele>623.79998779297</ele>
        <time>2019-07-08T06:01:30Z</time>
      </trkpt>
      <trkpt lat="44.84675" lon="5.20075">
        <ele>623.40002441406</ele>
        <time>2019-07-08T06:01:31Z</time>
      </trkpt>
      <trkpt lat="44.84675" lon="5.20068">
        <ele>623</ele>
        <time>2019-07-08T06:01:32Z</time>
      </trkpt>
      <trkpt lat="44.84674" lon="5.20061">
        <ele>622.59997558594</ele>
        <time>2019-07-08T06:01:33Z</time>
      </trkpt>
      <trkpt lat="44.84673" lon="5.20054">
        <ele>622</ele>
        <time>2019-07-08T06:01:34Z</time>
      </trkpt>
      <trkpt lat="44.84667" lon="5.20021">
        <ele>621.59997558594</ele>
        <time>2019-07-08T06:01:38Z</time>
      </trkpt>
      <trkpt lat="44.84665" lon="5.20013">
        <ele>621.20001220703</ele>
        <time>2019-07-08T06:01:39Z</time>
      </trkpt>
      <trkpt lat="44.84663" lon="5.20004">
        <ele>620.79998779297</ele>
        <time>2019-07-08T06:01:40Z</time>
      </trkpt>
      <trkpt lat="44.84662" lon="5.19995">
        <ele>620.40002441406</ele>
        <time>2019-07-08T06:01:41Z</time>
      </trkpt>
      <trkpt lat="44.8466" lon="5.19985">
        <ele>620</ele>
        <time>2019-07-08T06:01:42Z</time>
      </trkpt>
      <trkpt lat="44.84657" lon="5.19958">
        <ele>619.20001220703</ele>
        <time>2019-07-08T06:01:45Z</time>
      </trkpt>
      <trkpt lat="44.84655" lon="5.19949">
        <ele>618.79998779297</ele>
        <time>2019-07-08T06:01:46Z</time>
      </trkpt>
      <trkpt lat="44.84654" lon="5.1994">
        <ele>618.40002441406</ele>
        <time>2019-07-08T06:01:47Z</time>
      </trkpt>
      <trkpt lat="44.84652" lon="5.1993">
        <ele>618</ele>
        <time>2019-07-08T06:01:48Z</time>
      </trkpt>
      <trkpt lat="44.8465" lon="5.19922">
        <ele>618</ele>
        <time>2019-07-08T06:01:49Z</time>
      </trkpt>
      <trkpt lat="44.84645" lon="5.19907">
        <ele>618</ele>
        <time>2019-07-08T06:01:51Z</time>
      </trkpt>
      <trkpt lat="44.84643" lon="5.19901">
        <ele>618</ele>
        <time>2019-07-08T06:01:52Z</time>
      </trkpt>
      <trkpt lat="44.84641" lon="5.19894">
        <ele>617.59997558594</ele>
        <time>2019-07-08T06:01:53Z</time>
      </trkpt>
      <trkpt lat="44.84637" lon="5.19886">
        <ele>617</ele>
        <time>2019-07-08T06:01:54Z</time>
      </trkpt>
      <trkpt lat="44.84634" lon="5.19878">
        <ele>616.59997558594</ele>
        <time>2019-07-08T06:01:55Z</time>
      </trkpt>
      <trkpt lat="44.8463" lon="5.19871">
        <ele>616.20001220703</ele>
        <time>2019-07-08T06:01:56Z</time>
      </trkpt>
      <trkpt lat="44.84627" lon="5.19863">
        <ele>615.79998779297</ele>
        <time>2019-07-08T06:01:57Z</time>
      </trkpt>
      <trkpt lat="44.84624" lon="5.19857">
        <ele>615.79998779297</ele>
        <time>2019-07-08T06:01:58Z</time>
      </trkpt>
      <trkpt lat="44.84622" lon="5.19852">
        <ele>615.79998779297</ele>
        <time>2019-07-08T06:01:59Z</time>
      </trkpt>
      <trkpt lat="44.84611" lon="5.19828">
        <ele>615.79998779297</ele>
        <time>2019-07-08T06:02:04Z</time>
      </trkpt>
      <trkpt lat="44.84605" lon="5.1981">
        <ele>615.79998779297</ele>
        <time>2019-07-08T06:02:07Z</time>
      </trkpt>
      <trkpt lat="44.84602" lon="5.19798">
        <ele>615.79998779297</ele>
        <time>2019-07-08T06:02:09Z</time>
      </trkpt>
      <trkpt lat="44.84599" lon="5.19766">
        <ele>615.79998779297</ele>
        <time>2019-07-08T06:02:14Z</time>
      </trkpt>
      <trkpt lat="44.84602" lon="5.19727">
        <ele>615.79998779297</ele>
        <time>2019-07-08T06:02:21Z</time>
      </trkpt>
      <trkpt lat="44.84602" lon="5.19701">
        <ele>615.79998779297</ele>
        <time>2019-07-08T06:02:26Z</time>
      </trkpt>
      <trkpt lat="44.84602" lon="5.19674">
        <ele>615.79998779297</ele>
        <time>2019-07-08T06:02:31Z</time>
      </trkpt>
      <trkpt lat="44.84602" lon="5.19668">
        <ele>615.79998779297</ele>
        <time>2019-07-08T06:02:32Z</time>
      </trkpt>
      <trkpt lat="44.846" lon="5.19635">
        <ele>615.79998779297</ele>
        <time>2019-07-08T06:02:37Z</time>
      </trkpt>
      <trkpt lat="44.846" lon="5.1961">
        <ele>615.40002441406</ele>
        <time>2019-07-08T06:02:41Z</time>
      </trkpt>
      <trkpt lat="44.84599" lon="5.19603">
        <ele>615</ele>
        <time>2019-07-08T06:02:42Z</time>
      </trkpt>
      <trkpt lat="44.84599" lon="5.19596">
        <ele>614.59997558594</ele>
        <time>2019-07-08T06:02:43Z</time>
      </trkpt>
      <trkpt lat="44.84598" lon="5.19589">
        <ele>614.20001220703</ele>
        <time>2019-07-08T06:02:44Z</time>
      </trkpt>
      <trkpt lat="44.84598" lon="5.19581">
        <ele>613.79998779297</ele>
        <time>2019-07-08T06:02:45Z</time>
      </trkpt>
      <trkpt lat="44.84597" lon="5.1956">
        <ele>613.79998779297</ele>
        <time>2019-07-08T06:02:48Z</time>
      </trkpt>
      <trkpt lat="44.84594" lon="5.1953">
        <ele>613.79998779297</ele>
        <time>2019-07-08T06:02:52Z</time>
      </trkpt>
      <trkpt lat="44.84593" lon="5.19523">
        <ele>613.40002441406</ele>
        <time>2019-07-08T06:02:53Z</time>
      </trkpt>
      <trkpt lat="44.84593" lon="5.19515">
        <ele>612.79998779297</ele>
        <time>2019-07-08T06:02:54Z</time>
      </trkpt>
      <trkpt lat="44.84592" lon="5.19509">
        <ele>612.40002441406</ele>
        <time>2019-07-08T06:02:55Z</time>
      </trkpt>
      <trkpt lat="44.84591" lon="5.19503">
        <ele>611.59997558594</ele>
        <time>2019-07-08T06:02:56Z</time>
      </trkpt>
      <trkpt lat="44.84582" lon="5.1948">
        <ele>611.20001220703</ele>
        <time>2019-07-08T06:03:00Z</time>
      </trkpt>
      <trkpt lat="44.8458" lon="5.19474">
        <ele>610.79998779297</ele>
        <time>2019-07-08T06:03:01Z</time>
      </trkpt>
      <trkpt lat="44.84578" lon="5.19469">
        <ele>610.40002441406</ele>
        <time>2019-07-08T06:03:02Z</time>
      </trkpt>
      <trkpt lat="44.84576" lon="5.19465">
        <ele>610</ele>
        <time>2019-07-08T06:03:03Z</time>
      </trkpt>
      <trkpt lat="44.84575" lon="5.19461">
        <ele>609.59997558594</ele>
        <time>2019-07-08T06:03:04Z</time>
      </trkpt>
      <trkpt lat="44.84566" lon="5.19443">
        <ele>609.59997558594</ele>
        <time>2019-07-08T06:03:11Z</time>
      </trkpt>
      <trkpt lat="44.84566" lon="5.19443">
        <ele>609.59997558594</ele>
        <time>2019-07-08T06:03:22Z</time>
      </trkpt>
      <trkpt lat="44.84566" lon="5.19443">
        <ele>609.59997558594</ele>
        <time>2019-07-08T06:03:36Z</time>
      </trkpt>
      <trkpt lat="44.84566" lon="5.19443">
        <ele>609.59997558594</ele>
        <time>2019-07-08T06:03:48Z</time>
      </trkpt>
      <trkpt lat="44.84566" lon="5.19443">
        <ele>609.59997558594</ele>
        <time>2019-07-08T06:03:59Z</time>
      </trkpt>
      <trkpt lat="44.84566" lon="5.19442">
        <ele>609.59997558594</ele>
        <time>2019-07-08T06:04:07Z</time>
      </trkpt>
      <trkpt lat="44.84562" lon="5.19441">
        <ele>609.59997558594</ele>
        <time>2019-07-08T06:04:09Z</time>
      </trkpt>
      <trkpt lat="44.84557" lon="5.19437">
        <ele>609.59997558594</ele>
        <time>2019-07-08T06:04:12Z</time>
      </trkpt>
      <trkpt lat="44.84547" lon="5.19428">
        <ele>609.59997558594</ele>
        <time>2019-07-08T06:04:17Z</time>
      </trkpt>
      <trkpt lat="44.84535" lon="5.19417">
        <ele>609.59997558594</ele>
        <time>2019-07-08T06:04:22Z</time>
      </trkpt>
      <trkpt lat="44.84517" lon="5.19409">
        <ele>609.59997558594</ele>
        <time>2019-07-08T06:04:31Z</time>
      </trkpt>
      <trkpt lat="44.84503" lon="5.19408">
        <ele>609.59997558594</ele>
        <time>2019-07-08T06:04:36Z</time>
      </trkpt>
      <trkpt lat="44.84478" lon="5.19391">
        <ele>609.59997558594</ele>
        <time>2019-07-08T06:04:42Z</time>
      </trkpt>
      <trkpt lat="44.84466" lon="5.19379">
        <ele>609.59997558594</ele>
        <time>2019-07-08T06:04:45Z</time>
      </trkpt>
      <trkpt lat="44.84459" lon="5.19375">
        <ele>609.59997558594</ele>
        <time>2019-07-08T06:04:47Z</time>
      </trkpt>
      <trkpt lat="44.84446" lon="5.19375">
        <ele>609.59997558594</ele>
        <time>2019-07-08T06:04:52Z</time>
      </trkpt>
      <trkpt lat="44.84427" lon="5.19379">
        <ele>609.59997558594</ele>
        <time>2019-07-08T06:04:59Z</time>
      </trkpt>
      <trkpt lat="44.84413" lon="5.19372">
        <ele>609.59997558594</ele>
        <time>2019-07-08T06:05:05Z</time>
      </trkpt>
      <trkpt lat="44.84411" lon="5.1937">
        <ele>609</ele>
        <time>2019-07-08T06:05:06Z</time>
      </trkpt>
      <trkpt lat="44.84411" lon="5.19371">
        <ele>608.59997558594</ele>
        <time>2019-07-08T06:05:07Z</time>
      </trkpt>
      <trkpt lat="44.8441" lon="5.19371">
        <ele>608.20001220703</ele>
        <time>2019-07-08T06:05:08Z</time>
      </trkpt>
      <trkpt lat="44.84404" lon="5.19358">
        <ele>607.79998779297</ele>
        <time>2019-07-08T06:05:09Z</time>
      </trkpt>
      <trkpt lat="44.84399" lon="5.19346">
        <ele>607.40002441406</ele>
        <time>2019-07-08T06:05:10Z</time>
      </trkpt>
      <trkpt lat="44.84383" lon="5.19318">
        <ele>607</ele>
        <time>2019-07-08T06:05:14Z</time>
      </trkpt>
      <trkpt lat="44.84377" lon="5.19306">
        <ele>606.59997558594</ele>
        <time>2019-07-08T06:05:15Z</time>
      </trkpt>
      <trkpt lat="44.8437" lon="5.19295">
        <ele>606.20001220703</ele>
        <time>2019-07-08T06:05:16Z</time>
      </trkpt>
      <trkpt lat="44.84364" lon="5.19284">
        <ele>605.79998779297</ele>
        <time>2019-07-08T06:05:17Z</time>
      </trkpt>
      <trkpt lat="44.84361" lon="5.19273">
        <ele>605.40002441406</ele>
        <time>2019-07-08T06:05:18Z</time>
      </trkpt>
      <trkpt lat="44.84355" lon="5.19267">
        <ele>605.40002441406</ele>
        <time>2019-07-08T06:05:19Z</time>
      </trkpt>
      <trkpt lat="44.84348" lon="5.19261">
        <ele>605</ele>
        <time>2019-07-08T06:05:20Z</time>
      </trkpt>
      <trkpt lat="44.84343" lon="5.19256">
        <ele>604.59997558594</ele>
        <time>2019-07-08T06:05:21Z</time>
      </trkpt>
      <trkpt lat="44.84337" lon="5.1925">
        <ele>603.59997558594</ele>
        <time>2019-07-08T06:05:22Z</time>
      </trkpt>
      <trkpt lat="44.84332" lon="5.19245">
        <ele>603.20001220703</ele>
        <time>2019-07-08T06:05:23Z</time>
      </trkpt>
      <trkpt lat="44.8432" lon="5.19237">
        <ele>602.79998779297</ele>
        <time>2019-07-08T06:05:25Z</time>
      </trkpt>
      <trkpt lat="44.84315" lon="5.19233">
        <ele>602.40002441406</ele>
        <time>2019-07-08T06:05:26Z</time>
      </trkpt>
      <trkpt lat="44.84309" lon="5.19229">
        <ele>602</ele>
        <time>2019-07-08T06:05:27Z</time>
      </trkpt>
      <trkpt lat="44.84303" lon="5.19226">
        <ele>601.59997558594</ele>
        <time>2019-07-08T06:05:28Z</time>
      </trkpt>
      <trkpt lat="44.84297" lon="5.19223">
        <ele>601.20001220703</ele>
        <time>2019-07-08T06:05:29Z</time>
      </trkpt>
      <trkpt lat="44.84292" lon="5.1922">
        <ele>601.20001220703</ele>
        <time>2019-07-08T06:05:30Z</time>
      </trkpt>
      <trkpt lat="44.84287" lon="5.19217">
        <ele>601.20001220703</ele>
        <time>2019-07-08T06:05:31Z</time>
      </trkpt>
      <trkpt lat="44.84273" lon="5.19208">
        <ele>600.59997558594</ele>
        <time>2019-07-08T06:05:34Z</time>
      </trkpt>
      <trkpt lat="44.84269" lon="5.19204">
        <ele>600.20001220703</ele>
        <time>2019-07-08T06:05:35Z</time>
      </trkpt>
      <trkpt lat="44.84265" lon="5.19199">
        <ele>599.79998779297</ele>
        <time>2019-07-08T06:05:36Z</time>
      </trkpt>
      <trkpt lat="44.84261" lon="5.19194">
        <ele>599.40002441406</ele>
        <time>2019-07-08T06:05:37Z</time>
      </trkpt>
      <trkpt lat="44.84258" lon="5.1919">
        <ele>599</ele>
        <time>2019-07-08T06:05:38Z</time>
      </trkpt>
      <trkpt lat="44.84253" lon="5.19175">
        <ele>599</ele>
        <time>2019-07-08T06:05:41Z</time>
      </trkpt>
      <trkpt lat="44.84243" lon="5.19108">
        <ele>599</ele>
        <time>2019-07-08T06:05:45Z</time>
      </trkpt>
      <trkpt lat="44.84241" lon="5.1909">
        <ele>599</ele>
        <time>2019-07-08T06:05:47Z</time>
      </trkpt>
      <trkpt lat="44.84238" lon="5.19079">
        <ele>599</ele>
        <time>2019-07-08T06:05:48Z</time>
      </trkpt>
      <trkpt lat="44.84231" lon="5.19057">
        <ele>599</ele>
        <time>2019-07-08T06:05:53Z</time>
      </trkpt>
      <trkpt lat="44.84231" lon="5.19057">
        <ele>599</ele>
        <time>2019-07-08T06:06:02Z</time>
      </trkpt>
      <trkpt lat="44.8423" lon="5.19055">
        <ele>599</ele>
        <time>2019-07-08T06:06:10Z</time>
      </trkpt>
      <trkpt lat="44.8423" lon="5.19055">
        <ele>599</ele>
        <time>2019-07-08T06:06:23Z</time>
      </trkpt>
      <trkpt lat="44.84212" lon="5.19015">
        <ele>599</ele>
        <time>2019-07-08T06:06:28Z</time>
      </trkpt>
      <trkpt lat="44.8421" lon="5.19008">
        <ele>599</ele>
        <time>2019-07-08T06:06:30Z</time>
      </trkpt>
      <trkpt lat="44.84211" lon="5.19003">
        <ele>599</ele>
        <time>2019-07-08T06:06:32Z</time>
      </trkpt>
      <trkpt lat="44.84214" lon="5.18988">
        <ele>599</ele>
        <time>2019-07-08T06:06:37Z</time>
      </trkpt>
      <trkpt lat="44.84217" lon="5.18979">
        <ele>599</ele>
        <time>2019-07-08T06:06:39Z</time>
      </trkpt>
      <trkpt lat="44.84221" lon="5.18964">
        <ele>599</ele>
        <time>2019-07-08T06:06:43Z</time>
      </trkpt>
      <trkpt lat="44.84224" lon="5.18953">
        <ele>599</ele>
        <time>2019-07-08T06:06:45Z</time>
      </trkpt>
      <trkpt lat="44.84224" lon="5.1895">
        <ele>599</ele>
        <time>2019-07-08T06:06:49Z</time>
      </trkpt>
      <trkpt lat="44.84224" lon="5.18945">
        <ele>599</ele>
        <time>2019-07-08T06:06:53Z</time>
      </trkpt>
      <trkpt lat="44.84228" lon="5.18944">
        <ele>599</ele>
        <time>2019-07-08T06:07:01Z</time>
      </trkpt>
      <trkpt lat="44.84233" lon="5.18942">
        <ele>599</ele>
        <time>2019-07-08T06:07:13Z</time>
      </trkpt>
      <trkpt lat="44.84233" lon="5.18942">
        <ele>599</ele>
        <time>2019-07-08T06:07:29Z</time>
      </trkpt>
      <trkpt lat="44.84233" lon="5.18942">
        <ele>599</ele>
        <time>2019-07-08T06:07:42Z</time>
      </trkpt>
      <trkpt lat="44.84234" lon="5.18944">
        <ele>599</ele>
        <time>2019-07-08T06:07:49Z</time>
      </trkpt>
      <trkpt lat="44.84234" lon="5.18944">
        <ele>599</ele>
        <time>2019-07-08T06:07:57Z</time>
      </trkpt>
      <trkpt lat="44.84234" lon="5.18944">
        <ele>599</ele>
        <time>2019-07-08T06:08:11Z</time>
      </trkpt>
      <trkpt lat="44.84236" lon="5.18943">
        <ele>599</ele>
        <time>2019-07-08T06:08:25Z</time>
      </trkpt>
      <trkpt lat="44.84236" lon="5.18943">
        <ele>599</ele>
        <time>2019-07-08T06:08:39Z</time>
      </trkpt>
      <trkpt lat="44.84236" lon="5.18943">
        <ele>599</ele>
        <time>2019-07-08T06:08:52Z</time>
      </trkpt>
      <trkpt lat="44.84237" lon="5.18944">
        <ele>599</ele>
        <time>2019-07-08T06:09:06Z</time>
      </trkpt>
      <trkpt lat="44.84237" lon="5.18944">
        <ele>599</ele>
        <time>2019-07-08T06:09:21Z</time>
      </trkpt>
      <trkpt lat="44.84237" lon="5.18944">
        <ele>599</ele>
        <time>2019-07-08T06:09:36Z</time>
      </trkpt>
      <trkpt lat="44.84238" lon="5.18944">
        <ele>599</ele>
        <time>2019-07-08T06:09:51Z</time>
      </trkpt>
      <trkpt lat="44.84236" lon="5.18942">
        <ele>599</ele>
        <time>2019-07-08T06:09:57Z</time>
      </trkpt>
      <trkpt lat="44.84233" lon="5.18943">
        <ele>599</ele>
        <time>2019-07-08T06:10:00Z</time>
      </trkpt>
      <trkpt lat="44.8423" lon="5.18945">
        <ele>599</ele>
        <time>2019-07-08T06:10:02Z</time>
      </trkpt>
      <trkpt lat="44.84211" lon="5.18955">
        <ele>599</ele>
        <time>2019-07-08T06:10:08Z</time>
      </trkpt>
      <trkpt lat="44.84197" lon="5.18953">
        <ele>599</ele>
        <time>2019-07-08T06:10:12Z</time>
      </trkpt>
      <trkpt lat="44.84172" lon="5.18948">
        <ele>599</ele>
        <time>2019-07-08T06:10:17Z</time>
      </trkpt>
      <trkpt lat="44.84152" lon="5.18939">
        <ele>599</ele>
        <time>2019-07-08T06:10:21Z</time>
      </trkpt>
      <trkpt lat="44.84129" lon="5.18938">
        <ele>599</ele>
        <time>2019-07-08T06:10:26Z</time>
      </trkpt>
      <trkpt lat="44.84098" lon="5.18946">
        <ele>599</ele>
        <time>2019-07-08T06:10:34Z</time>
      </trkpt>
      <trkpt lat="44.84067" lon="5.1896">
        <ele>599</ele>
        <time>2019-07-08T06:10:42Z</time>
      </trkpt>
      <trkpt lat="44.84031" lon="5.18977">
        <ele>599</ele>
        <time>2019-07-08T06:10:51Z</time>
      </trkpt>
      <trkpt lat="44.84013" lon="5.18987">
        <ele>599</ele>
        <time>2019-07-08T06:10:57Z</time>
      </trkpt>
      <trkpt lat="44.84005" lon="5.18989">
        <ele>598.59997558594</ele>
        <time>2019-07-08T06:11:00Z</time>
      </trkpt>
      <trkpt lat="44.84002" lon="5.18989">
        <ele>598.20001220703</ele>
        <time>2019-07-08T06:11:01Z</time>
      </trkpt>
      <trkpt lat="44.83999" lon="5.18989">
        <ele>597.40002441406</ele>
        <time>2019-07-08T06:11:02Z</time>
      </trkpt>
      <trkpt lat="44.83997" lon="5.18989">
        <ele>597</ele>
        <time>2019-07-08T06:11:03Z</time>
      </trkpt>
      <trkpt lat="44.8399" lon="5.18989">
        <ele>597</ele>
        <time>2019-07-08T06:11:05Z</time>
      </trkpt>
      <trkpt lat="44.83974" lon="5.18969">
        <ele>596.59997558594</ele>
        <time>2019-07-08T06:11:07Z</time>
      </trkpt>
      <trkpt lat="44.83968" lon="5.18966">
        <ele>596.20001220703</ele>
        <time>2019-07-08T06:11:08Z</time>
      </trkpt>
      <trkpt lat="44.83962" lon="5.18967">
        <ele>595.79998779297</ele>
        <time>2019-07-08T06:11:09Z</time>
      </trkpt>
      <trkpt lat="44.83954" lon="5.18967">
        <ele>595.40002441406</ele>
        <time>2019-07-08T06:11:10Z</time>
      </trkpt>
      <trkpt lat="44.83947" lon="5.18968">
        <ele>595</ele>
        <time>2019-07-08T06:11:11Z</time>
      </trkpt>
      <trkpt lat="44.83939" lon="5.1897">
        <ele>594.40002441406</ele>
        <time>2019-07-08T06:11:12Z</time>
      </trkpt>
      <trkpt lat="44.83931" lon="5.18973">
        <ele>594</ele>
        <time>2019-07-08T06:11:13Z</time>
      </trkpt>
      <trkpt lat="44.83922" lon="5.18976">
        <ele>593.59997558594</ele>
        <time>2019-07-08T06:11:14Z</time>
      </trkpt>
      <trkpt lat="44.83914" lon="5.1898">
        <ele>593.20001220703</ele>
        <time>2019-07-08T06:11:15Z</time>
      </trkpt>
      <trkpt lat="44.83906" lon="5.18982">
        <ele>592.79998779297</ele>
        <time>2019-07-08T06:11:16Z</time>
      </trkpt>
      <trkpt lat="44.83899" lon="5.18982">
        <ele>592.20001220703</ele>
        <time>2019-07-08T06:11:17Z</time>
      </trkpt>
      <trkpt lat="44.83891" lon="5.1898">
        <ele>591.79998779297</ele>
        <time>2019-07-08T06:11:18Z</time>
      </trkpt>
      <trkpt lat="44.83886" lon="5.18977">
        <ele>591.40002441406</ele>
        <time>2019-07-08T06:11:19Z</time>
      </trkpt>
      <trkpt lat="44.83881" lon="5.18971">
        <ele>591</ele>
        <time>2019-07-08T06:11:20Z</time>
      </trkpt>
      <trkpt lat="44.83878" lon="5.18965">
        <ele>590.40002441406</ele>
        <time>2019-07-08T06:11:21Z</time>
      </trkpt>
      <trkpt lat="44.83876" lon="5.18959">
        <ele>590</ele>
        <time>2019-07-08T06:11:22Z</time>
      </trkpt>
      <trkpt lat="44.83874" lon="5.18952">
        <ele>589.40002441406</ele>
        <time>2019-07-08T06:11:23Z</time>
      </trkpt>
      <trkpt lat="44.83858" lon="5.18908">
        <ele>589</ele>
        <time>2019-07-08T06:11:24Z</time>
      </trkpt>
      <trkpt lat="44.83847" lon="5.18876">
        <ele>588.40002441406</ele>
        <time>2019-07-08T06:11:25Z</time>
      </trkpt>
      <trkpt lat="44.83839" lon="5.1885">
        <ele>587.59997558594</ele>
        <time>2019-07-08T06:11:26Z</time>
      </trkpt>
      <trkpt lat="44.83833" lon="5.18829">
        <ele>587.20001220703</ele>
        <time>2019-07-08T06:11:27Z</time>
      </trkpt>
      <trkpt lat="44.83827" lon="5.1881">
        <ele>586.79998779297</ele>
        <time>2019-07-08T06:11:28Z</time>
      </trkpt>
      <trkpt lat="44.83822" lon="5.18793">
        <ele>586.40002441406</ele>
        <time>2019-07-08T06:11:29Z</time>
      </trkpt>
      <trkpt lat="44.83801" lon="5.18729">
        <ele>586.40002441406</ele>
        <time>2019-07-08T06:11:32Z</time>
      </trkpt>
      <trkpt lat="44.83798" lon="5.18715">
        <ele>586</ele>
        <time>2019-07-08T06:11:33Z</time>
      </trkpt>
      <trkpt lat="44.83794" lon="5.18703">
        <ele>585.59997558594</ele>
        <time>2019-07-08T06:11:34Z</time>
      </trkpt>
      <trkpt lat="44.83791" lon="5.18692">
        <ele>585.20001220703</ele>
        <time>2019-07-08T06:11:35Z</time>
      </trkpt>
      <trkpt lat="44.83788" lon="5.18681">
        <ele>584.59997558594</ele>
        <time>2019-07-08T06:11:36Z</time>
      </trkpt>
      <trkpt lat="44.83783" lon="5.18669">
        <ele>584.20001220703</ele>
        <time>2019-07-08T06:11:37Z</time>
      </trkpt>
      <trkpt lat="44.83765" lon="5.1865">
        <ele>584.20001220703</ele>
        <time>2019-07-08T06:11:40Z</time>
      </trkpt>
      <trkpt lat="44.8375" lon="5.18647">
        <ele>583.79998779297</ele>
        <time>2019-07-08T06:11:42Z</time>
      </trkpt>
      <trkpt lat="44.83742" lon="5.18648">
        <ele>583.40002441406</ele>
        <time>2019-07-08T06:11:43Z</time>
      </trkpt>
      <trkpt lat="44.83735" lon="5.1865">
        <ele>582.79998779297</ele>
        <time>2019-07-08T06:11:44Z</time>
      </trkpt>
      <trkpt lat="44.83727" lon="5.18652">
        <ele>582.40002441406</ele>
        <time>2019-07-08T06:11:45Z</time>
      </trkpt>
      <trkpt lat="44.83721" lon="5.18656">
        <ele>582</ele>
        <time>2019-07-08T06:11:46Z</time>
      </trkpt>
      <trkpt lat="44.83715" lon="5.1866">
        <ele>582</ele>
        <time>2019-07-08T06:11:47Z</time>
      </trkpt>
      <trkpt lat="44.837" lon="5.18673">
        <ele>581.59997558594</ele>
        <time>2019-07-08T06:11:50Z</time>
      </trkpt>
      <trkpt lat="44.83695" lon="5.18676">
        <ele>580.79998779297</ele>
        <time>2019-07-08T06:11:51Z</time>
      </trkpt>
      <trkpt lat="44.83691" lon="5.18679">
        <ele>580.20001220703</ele>
        <time>2019-07-08T06:11:52Z</time>
      </trkpt>
      <trkpt lat="44.83687" lon="5.18682">
        <ele>579.79998779297</ele>
        <time>2019-07-08T06:11:53Z</time>
      </trkpt>
      <trkpt lat="44.83685" lon="5.18692">
        <ele>579.79998779297</ele>
        <time>2019-07-08T06:11:56Z</time>
      </trkpt>
      <trkpt lat="44.8369" lon="5.18706">
        <ele>579.40002441406</ele>
        <time>2019-07-08T06:12:00Z</time>
      </trkpt>
      <trkpt lat="44.83692" lon="5.18708">
        <ele>579</ele>
        <time>2019-07-08T06:12:01Z</time>
      </trkpt>
      <trkpt lat="44.83693" lon="5.18708">
        <ele>578.59997558594</ele>
        <time>2019-07-08T06:12:02Z</time>
      </trkpt>
      <trkpt lat="44.83694" lon="5.18708">
        <ele>578.20001220703</ele>
        <time>2019-07-08T06:12:03Z</time>
      </trkpt>
      <trkpt lat="44.83694" lon="5.18708">
        <ele>577.79998779297</ele>
        <time>2019-07-08T06:12:04Z</time>
      </trkpt>
      <trkpt lat="44.83694" lon="5.18708">
        <ele>577.79998779297</ele>
        <time>2019-07-08T06:12:05Z</time>
      </trkpt>
      <trkpt lat="44.83694" lon="5.18708">
        <ele>577.79998779297</ele>
        <time>2019-07-08T06:12:11Z</time>
      </trkpt>
      <trkpt lat="44.83694" lon="5.18708">
        <ele>577.79998779297</ele>
        <time>2019-07-08T06:12:22Z</time>
      </trkpt>
      <trkpt lat="44.83694" lon="5.18708">
        <ele>577.79998779297</ele>
        <time>2019-07-08T06:12:32Z</time>
      </trkpt>
      <trkpt lat="44.83694" lon="5.18708">
        <ele>577.79998779297</ele>
        <time>2019-07-08T06:12:39Z</time>
      </trkpt>
      <trkpt lat="44.83694" lon="5.18707">
        <ele>577.79998779297</ele>
        <time>2019-07-08T06:12:46Z</time>
      </trkpt>
      <trkpt lat="44.83695" lon="5.18705">
        <ele>577.79998779297</ele>
        <time>2019-07-08T06:12:53Z</time>
      </trkpt>
      <trkpt lat="44.83696" lon="5.18705">
        <ele>577.79998779297</ele>
        <time>2019-07-08T06:12:59Z</time>
      </trkpt>
      <trkpt lat="44.83696" lon="5.18704">
        <ele>577.79998779297</ele>
        <time>2019-07-08T06:13:06Z</time>
      </trkpt>
      <trkpt lat="44.83696" lon="5.18704">
        <ele>577.79998779297</ele>
        <time>2019-07-08T06:13:18Z</time>
      </trkpt>
      <trkpt lat="44.83696" lon="5.18704">
        <ele>577.79998779297</ele>
        <time>2019-07-08T06:13:34Z</time>
      </trkpt>
      <trkpt lat="44.83696" lon="5.18705">
        <ele>577.79998779297</ele>
        <time>2019-07-08T06:13:50Z</time>
      </trkpt>
      <trkpt lat="44.83696" lon="5.18705">
        <ele>577.79998779297</ele>
        <time>2019-07-08T06:14:03Z</time>
      </trkpt>
      <trkpt lat="44.83696" lon="5.18705">
        <ele>577.79998779297</ele>
        <time>2019-07-08T06:14:19Z</time>
      </trkpt>
      <trkpt lat="44.83697" lon="5.18705">
        <ele>577.79998779297</ele>
        <time>2019-07-08T06:14:34Z</time>
      </trkpt>
      <trkpt lat="44.83697" lon="5.18705">
        <ele>577.79998779297</ele>
        <time>2019-07-08T06:14:49Z</time>
      </trkpt>
      <trkpt lat="44.83697" lon="5.18706">
        <ele>577.79998779297</ele>
        <time>2019-07-08T06:15:04Z</time>
      </trkpt>
      <trkpt lat="44.83697" lon="5.18706">
        <ele>577.79998779297</ele>
        <time>2019-07-08T06:15:18Z</time>
      </trkpt>
      <trkpt lat="44.83697" lon="5.18706">
        <ele>578.20001220703</ele>
        <time>2019-07-08T06:15:23Z</time>
      </trkpt>
      <trkpt lat="44.83697" lon="5.18706">
        <ele>578.59997558594</ele>
        <time>2019-07-08T06:15:24Z</time>
      </trkpt>
      <trkpt lat="44.83697" lon="5.18706">
        <ele>579</ele>
        <time>2019-07-08T06:15:25Z</time>
      </trkpt>
      <trkpt lat="44.83697" lon="5.18706">
        <ele>579.40002441406</ele>
        <time>2019-07-08T06:15:26Z</time>
      </trkpt>
      <trkpt lat="44.83697" lon="5.18706">
        <ele>579.79998779297</ele>
        <time>2019-07-08T06:15:27Z</time>
      </trkpt>
      <trkpt lat="44.83697" lon="5.18706">
        <ele>579.79998779297</ele>
        <time>2019-07-08T06:15:32Z</time>
      </trkpt>
      <trkpt lat="44.83697" lon="5.18706">
        <ele>579.79998779297</ele>
        <time>2019-07-08T06:15:43Z</time>
      </trkpt>
      <trkpt lat="44.83697" lon="5.18706">
        <ele>579.79998779297</ele>
        <time>2019-07-08T06:15:56Z</time>
      </trkpt>
      <trkpt lat="44.83697" lon="5.18706">
        <ele>579.79998779297</ele>
        <time>2019-07-08T06:16:08Z</time>
      </trkpt>
      <trkpt lat="44.83697" lon="5.18706">
        <ele>579.79998779297</ele>
        <time>2019-07-08T06:16:20Z</time>
      </trkpt>
      <trkpt lat="44.83699" lon="5.18705">
        <ele>579.79998779297</ele>
        <time>2019-07-08T06:16:34Z</time>
      </trkpt>
      <trkpt lat="44.83699" lon="5.18705">
        <ele>579.79998779297</ele>
        <time>2019-07-08T06:16:47Z</time>
      </trkpt>
      <trkpt lat="44.83699" lon="5.18705">
        <ele>579.79998779297</ele>
        <time>2019-07-08T06:17:01Z</time>
      </trkpt>
      <trkpt lat="44.83699" lon="5.18706">
        <ele>580.20001220703</ele>
        <time>2019-07-08T06:17:06Z</time>
      </trkpt>
      <trkpt lat="44.83699" lon="5.18706">
        <ele>580.59997558594</ele>
        <time>2019-07-08T06:17:07Z</time>
      </trkpt>
      <trkpt lat="44.83699" lon="5.18706">
        <ele>581</ele>
        <time>2019-07-08T06:17:08Z</time>
      </trkpt>
      <trkpt lat="44.83699" lon="5.18706">
        <ele>581.40002441406</ele>
        <time>2019-07-08T06:17:09Z</time>
      </trkpt>
      <trkpt lat="44.83699" lon="5.18706">
        <ele>581.79998779297</ele>
        <time>2019-07-08T06:17:10Z</time>
      </trkpt>
      <trkpt lat="44.83699" lon="5.18706">
        <ele>581.79998779297</ele>
        <time>2019-07-08T06:17:16Z</time>
      </trkpt>
      <trkpt lat="44.83699" lon="5.18706">
        <ele>581.79998779297</ele>
        <time>2019-07-08T06:17:31Z</time>
      </trkpt>
      <trkpt lat="44.83699" lon="5.18705">
        <ele>581.79998779297</ele>
        <time>2019-07-08T06:17:44Z</time>
      </trkpt>
      <trkpt lat="44.83699" lon="5.18705">
        <ele>581.79998779297</ele>
        <time>2019-07-08T06:17:59Z</time>
      </trkpt>
      <trkpt lat="44.83699" lon="5.18705">
        <ele>581.79998779297</ele>
        <time>2019-07-08T06:18:12Z</time>
      </trkpt>
      <trkpt lat="44.83698" lon="5.18705">
        <ele>582.20001220703</ele>
        <time>2019-07-08T06:18:18Z</time>
      </trkpt>
      <trkpt lat="44.83698" lon="5.18704">
        <ele>583</ele>
        <time>2019-07-08T06:18:19Z</time>
      </trkpt>
      <trkpt lat="44.83698" lon="5.18704">
        <ele>583.40002441406</ele>
        <time>2019-07-08T06:18:20Z</time>
      </trkpt>
      <trkpt lat="44.83698" lon="5.18704">
        <ele>583.79998779297</ele>
        <time>2019-07-08T06:18:21Z</time>
      </trkpt>
      <trkpt lat="44.83696" lon="5.18709">
        <ele>583.79998779297</ele>
        <time>2019-07-08T06:18:26Z</time>
      </trkpt>
      <trkpt lat="44.83696" lon="5.18712">
        <ele>583.79998779297</ele>
        <time>2019-07-08T06:18:31Z</time>
      </trkpt>
      <trkpt lat="44.83696" lon="5.18712">
        <ele>583.79998779297</ele>
        <time>2019-07-08T06:18:41Z</time>
      </trkpt>
      <trkpt lat="44.83696" lon="5.18712">
        <ele>583.79998779297</ele>
        <time>2019-07-08T06:18:50Z</time>
      </trkpt>
      <trkpt lat="44.83696" lon="5.18712">
        <ele>583.79998779297</ele>
        <time>2019-07-08T06:18:57Z</time>
      </trkpt>
      <trkpt lat="44.83696" lon="5.18712">
        <ele>583.79998779297</ele>
        <time>2019-07-08T06:19:10Z</time>
      </trkpt>
      <trkpt lat="44.83696" lon="5.18712">
        <ele>583.79998779297</ele>
        <time>2019-07-08T06:19:19Z</time>
      </trkpt>
      <trkpt lat="44.83696" lon="5.18712">
        <ele>583.79998779297</ele>
        <time>2019-07-08T06:19:24Z</time>
      </trkpt>
      <trkpt lat="44.83696" lon="5.18712">
        <ele>583.79998779297</ele>
        <time>2019-07-08T06:19:36Z</time>
      </trkpt>
      <trkpt lat="44.83696" lon="5.18712">
        <ele>583.79998779297</ele>
        <time>2019-07-08T06:19:48Z</time>
      </trkpt>
      <trkpt lat="44.83696" lon="5.18711">
        <ele>583.79998779297</ele>
        <time>2019-07-08T06:20:02Z</time>
      </trkpt>
      <trkpt lat="44.83696" lon="5.18711">
        <ele>583.79998779297</ele>
        <time>2019-07-08T06:20:17Z</time>
      </trkpt>
      <trkpt lat="44.83696" lon="5.18712">
        <ele>583.79998779297</ele>
        <time>2019-07-08T06:20:31Z</time>
      </trkpt>
      <trkpt lat="44.83696" lon="5.18712">
        <ele>583.79998779297</ele>
        <time>2019-07-08T06:20:44Z</time>
      </trkpt>
      <trkpt lat="44.83696" lon="5.18712">
        <ele>583.79998779297</ele>
        <time>2019-07-08T06:20:57Z</time>
      </trkpt>
      <trkpt lat="44.83696" lon="5.18712">
        <ele>583.79998779297</ele>
        <time>2019-07-08T06:21:10Z</time>
      </trkpt>
      <trkpt lat="44.83696" lon="5.18712">
        <ele>583.79998779297</ele>
        <time>2019-07-08T06:21:11Z</time>
      </trkpt>
      <trkpt lat="44.83696" lon="5.18712">
        <ele>583.79998779297</ele>
        <time>2019-07-08T06:21:23Z</time>
      </trkpt>
      <trkpt lat="44.83696" lon="5.18712">
        <ele>583.79998779297</ele>
        <time>2019-07-08T06:21:37Z</time>
      </trkpt>
      <trkpt lat="44.83696" lon="5.18712">
        <ele>583.79998779297</ele>
        <time>2019-07-08T06:21:48Z</time>
      </trkpt>
      <trkpt lat="44.83696" lon="5.18712">
        <ele>583.79998779297</ele>
        <time>2019-07-08T06:22:01Z</time>
      </trkpt>
      <trkpt lat="44.83696" lon="5.18712">
        <ele>583.79998779297</ele>
        <time>2019-07-08T06:22:16Z</time>
      </trkpt>
      <trkpt lat="44.83696" lon="5.18711">
        <ele>583.79998779297</ele>
        <time>2019-07-08T06:22:33Z</time>
      </trkpt>
      <trkpt lat="44.83696" lon="5.18711">
        <ele>584.20001220703</ele>
        <time>2019-07-08T06:22:34Z</time>
      </trkpt>
      <trkpt lat="44.83696" lon="5.18711">
        <ele>584.59997558594</ele>
        <time>2019-07-08T06:22:35Z</time>
      </trkpt>
      <trkpt lat="44.83696" lon="5.18711">
        <ele>585</ele>
        <time>2019-07-08T06:22:36Z</time>
      </trkpt>
      <trkpt lat="44.83696" lon="5.18711">
        <ele>585.40002441406</ele>
        <time>2019-07-08T06:22:37Z</time>
      </trkpt>
      <trkpt lat="44.83696" lon="5.18711">
        <ele>585.79998779297</ele>
        <time>2019-07-08T06:22:38Z</time>
      </trkpt>
      <trkpt lat="44.83696" lon="5.18711">
        <ele>585.79998779297</ele>
        <time>2019-07-08T06:22:47Z</time>
      </trkpt>
      <trkpt lat="44.83696" lon="5.18711">
        <ele>585.79998779297</ele>
        <time>2019-07-08T06:23:00Z</time>
      </trkpt>
      <trkpt lat="44.83696" lon="5.18712">
        <ele>585.79998779297</ele>
        <time>2019-07-08T06:23:12Z</time>
      </trkpt>
      <trkpt lat="44.83696" lon="5.18712">
        <ele>585.79998779297</ele>
        <time>2019-07-08T06:23:27Z</time>
      </trkpt>
      <trkpt lat="44.83696" lon="5.18712">
        <ele>585.79998779297</ele>
        <time>2019-07-08T06:23:43Z</time>
      </trkpt>
      <trkpt lat="44.83696" lon="5.18713">
        <ele>585.79998779297</ele>
        <time>2019-07-08T06:24:01Z</time>
      </trkpt>
      <trkpt lat="44.83696" lon="5.18713">
        <ele>585.79998779297</ele>
        <time>2019-07-08T06:24:02Z</time>
      </trkpt>
      <trkpt lat="44.83696" lon="5.18713">
        <ele>585.79998779297</ele>
        <time>2019-07-08T06:24:17Z</time>
      </trkpt>
      <trkpt lat="44.83696" lon="5.18714">
        <ele>585.79998779297</ele>
        <time>2019-07-08T06:24:31Z</time>
      </trkpt>
      <trkpt lat="44.83696" lon="5.18714">
        <ele>585.79998779297</ele>
        <time>2019-07-08T06:24:45Z</time>
      </trkpt>
      <trkpt lat="44.83696" lon="5.18714">
        <ele>585.79998779297</ele>
        <time>2019-07-08T06:25:03Z</time>
      </trkpt>
      <trkpt lat="44.83696" lon="5.18714">
        <ele>585.79998779297</ele>
        <time>2019-07-08T06:25:17Z</time>
      </trkpt>
      <trkpt lat="44.83696" lon="5.18714">
        <ele>586.20001220703</ele>
        <time>2019-07-08T06:25:28Z</time>
      </trkpt>
      <trkpt lat="44.83696" lon="5.18714">
        <ele>586.59997558594</ele>
        <time>2019-07-08T06:25:29Z</time>
      </trkpt>
      <trkpt lat="44.83696" lon="5.18714">
        <ele>587</ele>
        <time>2019-07-08T06:25:30Z</time>
      </trkpt>
      <trkpt lat="44.83696" lon="5.18714">
        <ele>587.40002441406</ele>
        <time>2019-07-08T06:25:31Z</time>
      </trkpt>
      <trkpt lat="44.83696" lon="5.18714">
        <ele>587.79998779297</ele>
        <time>2019-07-08T06:25:32Z</time>
      </trkpt>
      <trkpt lat="44.83696" lon="5.18714">
        <ele>587.79998779297</ele>
        <time>2019-07-08T06:25:46Z</time>
      </trkpt>
      <trkpt lat="44.83696" lon="5.18714">
        <ele>587.79998779297</ele>
        <time>2019-07-08T06:25:59Z</time>
      </trkpt>
      <trkpt lat="44.83696" lon="5.18714">
        <ele>587.79998779297</ele>
        <time>2019-07-08T06:26:14Z</time>
      </trkpt>
      <trkpt lat="44.83696" lon="5.18714">
        <ele>587.79998779297</ele>
        <time>2019-07-08T06:26:28Z</time>
      </trkpt>
      <trkpt lat="44.83696" lon="5.18714">
        <ele>587.79998779297</ele>
        <time>2019-07-08T06:26:42Z</time>
      </trkpt>
      <trkpt lat="44.83696" lon="5.18714">
        <ele>587.79998779297</ele>
        <time>2019-07-08T06:26:55Z</time>
      </trkpt>
      <trkpt lat="44.83696" lon="5.18714">
        <ele>587.79998779297</ele>
        <time>2019-07-08T06:27:09Z</time>
      </trkpt>
      <trkpt lat="44.83696" lon="5.18715">
        <ele>587.79998779297</ele>
        <time>2019-07-08T06:27:26Z</time>
      </trkpt>
      <trkpt lat="44.83696" lon="5.18715">
        <ele>587.79998779297</ele>
        <time>2019-07-08T06:27:40Z</time>
      </trkpt>
      <trkpt lat="44.83696" lon="5.18715">
        <ele>587.79998779297</ele>
        <time>2019-07-08T06:27:48Z</time>
      </trkpt>
      <trkpt lat="44.83696" lon="5.18715">
        <ele>587.79998779297</ele>
        <time>2019-07-08T06:27:54Z</time>
      </trkpt>
      <trkpt lat="44.83696" lon="5.18715">
        <ele>587.79998779297</ele>
        <time>2019-07-08T06:28:09Z</time>
      </trkpt>
      <trkpt lat="44.83696" lon="5.18715">
        <ele>587.79998779297</ele>
        <time>2019-07-08T06:28:24Z</time>
      </trkpt>
      <trkpt lat="44.83696" lon="5.18715">
        <ele>587.79998779297</ele>
        <time>2019-07-08T06:28:39Z</time>
      </trkpt>
      <trkpt lat="44.83696" lon="5.18715">
        <ele>587.79998779297</ele>
        <time>2019-07-08T06:28:58Z</time>
      </trkpt>
      <trkpt lat="44.83696" lon="5.18715">
        <ele>587.79998779297</ele>
        <time>2019-07-08T06:29:13Z</time>
      </trkpt>
      <trkpt lat="44.83696" lon="5.18715">
        <ele>587.79998779297</ele>
        <time>2019-07-08T06:29:29Z</time>
      </trkpt>
      <trkpt lat="44.83696" lon="5.18715">
        <ele>587.79998779297</ele>
        <time>2019-07-08T06:29:43Z</time>
      </trkpt>
      <trkpt lat="44.83696" lon="5.18716">
        <ele>587.79998779297</ele>
        <time>2019-07-08T06:29:56Z</time>
      </trkpt>
      <trkpt lat="44.83696" lon="5.18716">
        <ele>588.20001220703</ele>
        <time>2019-07-08T06:30:01Z</time>
      </trkpt>
      <trkpt lat="44.83696" lon="5.18716">
        <ele>588.79998779297</ele>
        <time>2019-07-08T06:30:02Z</time>
      </trkpt>
      <trkpt lat="44.83696" lon="5.18716">
        <ele>589.20001220703</ele>
        <time>2019-07-08T06:30:03Z</time>
      </trkpt>
      <trkpt lat="44.83696" lon="5.18716">
        <ele>589.59997558594</ele>
        <time>2019-07-08T06:30:04Z</time>
      </trkpt>
      <trkpt lat="44.83696" lon="5.18716">
        <ele>590</ele>
        <time>2019-07-08T06:30:05Z</time>
      </trkpt>
      <trkpt lat="44.83696" lon="5.18716">
        <ele>590</ele>
        <time>2019-07-08T06:30:14Z</time>
      </trkpt>
      <trkpt lat="44.83696" lon="5.18716">
        <ele>590</ele>
        <time>2019-07-08T06:30:29Z</time>
      </trkpt>
      <trkpt lat="44.83697" lon="5.18716">
        <ele>590</ele>
        <time>2019-07-08T06:30:44Z</time>
      </trkpt>
      <trkpt lat="44.83697" lon="5.18716">
        <ele>590</ele>
        <time>2019-07-08T06:30:58Z</time>
      </trkpt>
      <trkpt lat="44.83696" lon="5.18716">
        <ele>590</ele>
        <time>2019-07-08T06:31:15Z</time>
      </trkpt>
      <trkpt lat="44.83696" lon="5.18716">
        <ele>590</ele>
        <time>2019-07-08T06:31:28Z</time>
      </trkpt>
      <trkpt lat="44.83696" lon="5.18716">
        <ele>590</ele>
        <time>2019-07-08T06:31:42Z</time>
      </trkpt>
      <trkpt lat="44.83697" lon="5.18717">
        <ele>590</ele>
        <time>2019-07-08T06:31:55Z</time>
      </trkpt>
      <trkpt lat="44.83697" lon="5.18717">
        <ele>590</ele>
        <time>2019-07-08T06:32:08Z</time>
      </trkpt>
      <trkpt lat="44.83697" lon="5.18717">
        <ele>590</ele>
        <time>2019-07-08T06:32:24Z</time>
      </trkpt>
      <trkpt lat="44.83697" lon="5.18717">
        <ele>590</ele>
        <time>2019-07-08T06:32:33Z</time>
      </trkpt>
      <trkpt lat="44.83697" lon="5.18717">
        <ele>590</ele>
        <time>2019-07-08T06:32:37Z</time>
      </trkpt>
      <trkpt lat="44.83697" lon="5.18717">
        <ele>590</ele>
        <time>2019-07-08T06:32:52Z</time>
      </trkpt>
      <trkpt lat="44.83697" lon="5.18717">
        <ele>590</ele>
        <time>2019-07-08T06:33:09Z</time>
      </trkpt>
      <trkpt lat="44.83697" lon="5.18717">
        <ele>590.40002441406</ele>
        <time>2019-07-08T06:33:18Z</time>
      </trkpt>
      <trkpt lat="44.83697" lon="5.18717">
        <ele>590.79998779297</ele>
        <time>2019-07-08T06:33:19Z</time>
      </trkpt>
      <trkpt lat="44.83697" lon="5.18717">
        <ele>591.20001220703</ele>
        <time>2019-07-08T06:33:20Z</time>
      </trkpt>
      <trkpt lat="44.83697" lon="5.18717">
        <ele>591.59997558594</ele>
        <time>2019-07-08T06:33:21Z</time>
      </trkpt>
      <trkpt lat="44.83697" lon="5.18717">
        <ele>592</ele>
        <time>2019-07-08T06:33:22Z</time>
      </trkpt>
      <trkpt lat="44.83697" lon="5.18717">
        <ele>592</ele>
        <time>2019-07-08T06:33:37Z</time>
      </trkpt>
      <trkpt lat="44.83697" lon="5.18717">
        <ele>592</ele>
        <time>2019-07-08T06:33:53Z</time>
      </trkpt>
      <trkpt lat="44.83697" lon="5.18717">
        <ele>592</ele>
        <time>2019-07-08T06:34:06Z</time>
      </trkpt>
      <trkpt lat="44.83697" lon="5.18717">
        <ele>592</ele>
        <time>2019-07-08T06:34:20Z</time>
      </trkpt>
      <trkpt lat="44.83698" lon="5.18718">
        <ele>592</ele>
        <time>2019-07-08T06:34:33Z</time>
      </trkpt>
      <trkpt lat="44.83698" lon="5.18718">
        <ele>592</ele>
        <time>2019-07-08T06:34:47Z</time>
      </trkpt>
      <trkpt lat="44.83698" lon="5.18718">
        <ele>592</ele>
        <time>2019-07-08T06:35:01Z</time>
      </trkpt>
      <trkpt lat="44.83698" lon="5.18718">
        <ele>592</ele>
        <time>2019-07-08T06:35:14Z</time>
      </trkpt>
      <trkpt lat="44.83702" lon="5.18724">
        <ele>592</ele>
        <time>2019-07-08T06:35:29Z</time>
      </trkpt>
      <trkpt lat="44.83704" lon="5.18723">
        <ele>592</ele>
        <time>2019-07-08T06:35:45Z</time>
      </trkpt>
      <trkpt lat="44.83705" lon="5.18722">
        <ele>592</ele>
        <time>2019-07-08T06:36:02Z</time>
      </trkpt>
      <trkpt lat="44.83705" lon="5.18722">
        <ele>592</ele>
        <time>2019-07-08T06:36:20Z</time>
      </trkpt>
      <trkpt lat="44.83703" lon="5.18723">
        <ele>592</ele>
        <time>2019-07-08T06:36:36Z</time>
      </trkpt>
      <trkpt lat="44.83703" lon="5.18726">
        <ele>592</ele>
        <time>2019-07-08T06:36:49Z</time>
      </trkpt>
      <trkpt lat="44.83703" lon="5.18727">
        <ele>592</ele>
        <time>2019-07-08T06:37:00Z</time>
      </trkpt>
      <trkpt lat="44.83703" lon="5.18727">
        <ele>592</ele>
        <time>2019-07-08T06:37:12Z</time>
      </trkpt>
      <trkpt lat="44.83703" lon="5.18727">
        <ele>592</ele>
        <time>2019-07-08T06:37:27Z</time>
      </trkpt>
      <trkpt lat="44.83703" lon="5.18727">
        <ele>592</ele>
        <time>2019-07-08T06:37:40Z</time>
      </trkpt>
      <trkpt lat="44.83703" lon="5.18727">
        <ele>592</ele>
        <time>2019-07-08T06:37:54Z</time>
      </trkpt>
      <trkpt lat="44.83703" lon="5.18727">
        <ele>592</ele>
        <time>2019-07-08T06:38:06Z</time>
      </trkpt>
      <trkpt lat="44.83703" lon="5.18727">
        <ele>592</ele>
        <time>2019-07-08T06:38:19Z</time>
      </trkpt>
      <trkpt lat="44.83703" lon="5.18727">
        <ele>592</ele>
        <time>2019-07-08T06:38:32Z</time>
      </trkpt>
      <trkpt lat="44.83703" lon="5.18727">
        <ele>592</ele>
        <time>2019-07-08T06:38:49Z</time>
      </trkpt>
      <trkpt lat="44.83702" lon="5.18727">
        <ele>592</ele>
        <time>2019-07-08T06:39:02Z</time>
      </trkpt>
      <trkpt lat="44.83702" lon="5.18727">
        <ele>592</ele>
        <time>2019-07-08T06:39:14Z</time>
      </trkpt>
      <trkpt lat="44.83702" lon="5.18727">
        <ele>592</ele>
        <time>2019-07-08T06:39:26Z</time>
      </trkpt>
      <trkpt lat="44.83702" lon="5.18726">
        <ele>592</ele>
        <time>2019-07-08T06:39:39Z</time>
      </trkpt>
      <trkpt lat="44.83702" lon="5.18726">
        <ele>592</ele>
        <time>2019-07-08T06:39:53Z</time>
      </trkpt>
      <trkpt lat="44.83702" lon="5.18726">
        <ele>592</ele>
        <time>2019-07-08T06:40:08Z</time>
      </trkpt>
      <trkpt lat="44.83703" lon="5.18727">
        <ele>592</ele>
        <time>2019-07-08T06:40:23Z</time>
      </trkpt>
      <trkpt lat="44.83703" lon="5.18727">
        <ele>592</ele>
        <time>2019-07-08T06:40:36Z</time>
      </trkpt>
      <trkpt lat="44.83703" lon="5.18727">
        <ele>592</ele>
        <time>2019-07-08T06:40:50Z</time>
      </trkpt>
      <trkpt lat="44.83703" lon="5.18727">
        <ele>592</ele>
        <time>2019-07-08T06:41:02Z</time>
      </trkpt>
      <trkpt lat="44.83703" lon="5.18727">
        <ele>592</ele>
        <time>2019-07-08T06:41:17Z</time>
      </trkpt>
      <trkpt lat="44.83703" lon="5.18727">
        <ele>592</ele>
        <time>2019-07-08T06:41:30Z</time>
      </trkpt>
      <trkpt lat="44.83703" lon="5.18727">
        <ele>592</ele>
        <time>2019-07-08T06:41:43Z</time>
      </trkpt>
      <trkpt lat="44.83703" lon="5.18727">
        <ele>592</ele>
        <time>2019-07-08T06:41:57Z</time>
      </trkpt>
      <trkpt lat="44.83703" lon="5.18727">
        <ele>592</ele>
        <time>2019-07-08T06:42:09Z</time>
      </trkpt>
      <trkpt lat="44.83703" lon="5.18727">
        <ele>592</ele>
        <time>2019-07-08T06:42:23Z</time>
      </trkpt>
      <trkpt lat="44.83703" lon="5.18727">
        <ele>592</ele>
        <time>2019-07-08T06:42:39Z</time>
      </trkpt>
      <trkpt lat="44.83703" lon="5.18727">
        <ele>592</ele>
        <time>2019-07-08T06:42:53Z</time>
      </trkpt>
      <trkpt lat="44.83703" lon="5.18727">
        <ele>592</ele>
        <time>2019-07-08T06:43:10Z</time>
      </trkpt>
      <trkpt lat="44.83703" lon="5.18727">
        <ele>592</ele>
        <time>2019-07-08T06:43:25Z</time>
      </trkpt>
      <trkpt lat="44.83703" lon="5.18727">
        <ele>592</ele>
        <time>2019-07-08T06:43:40Z</time>
      </trkpt>
      <trkpt lat="44.83703" lon="5.18727">
        <ele>592</ele>
        <time>2019-07-08T06:43:54Z</time>
      </trkpt>
      <trkpt lat="44.83703" lon="5.18727">
        <ele>592</ele>
        <time>2019-07-08T06:44:06Z</time>
      </trkpt>
      <trkpt lat="44.83704" lon="5.18727">
        <ele>592</ele>
        <time>2019-07-08T06:44:21Z</time>
      </trkpt>
      <trkpt lat="44.83704" lon="5.18727">
        <ele>592</ele>
        <time>2019-07-08T06:44:35Z</time>
      </trkpt>
      <trkpt lat="44.83704" lon="5.18727">
        <ele>592</ele>
        <time>2019-07-08T06:44:50Z</time>
      </trkpt>
      <trkpt lat="44.83703" lon="5.18727">
        <ele>592</ele>
        <time>2019-07-08T06:44:59Z</time>
      </trkpt>
      <trkpt lat="44.83703" lon="5.18727">
        <ele>592</ele>
        <time>2019-07-08T06:45:15Z</time>
      </trkpt>
      <trkpt lat="44.83703" lon="5.18727">
        <ele>592</ele>
        <time>2019-07-08T06:45:33Z</time>
      </trkpt>
      <trkpt lat="44.83703" lon="5.18727">
        <ele>592</ele>
        <time>2019-07-08T06:45:47Z</time>
      </trkpt>
      <trkpt lat="44.83703" lon="5.18727">
        <ele>592</ele>
        <time>2019-07-08T06:46:06Z</time>
      </trkpt>
      <trkpt lat="44.83703" lon="5.18728">
        <ele>592</ele>
        <time>2019-07-08T06:46:22Z</time>
      </trkpt>
      <trkpt lat="44.83703" lon="5.18728">
        <ele>592</ele>
        <time>2019-07-08T06:46:40Z</time>
      </trkpt>
      <trkpt lat="44.83702" lon="5.18727">
        <ele>592</ele>
        <time>2019-07-08T06:46:58Z</time>
      </trkpt>
      <trkpt lat="44.83702" lon="5.18727">
        <ele>592</ele>
        <time>2019-07-08T06:47:15Z</time>
      </trkpt>
      <trkpt lat="44.83702" lon="5.18727">
        <ele>592</ele>
        <time>2019-07-08T06:47:31Z</time>
      </trkpt>
      <trkpt lat="44.83703" lon="5.18728">
        <ele>592</ele>
        <time>2019-07-08T06:47:46Z</time>
      </trkpt>
      <trkpt lat="44.83703" lon="5.18728">
        <ele>592</ele>
        <time>2019-07-08T06:48:03Z</time>
      </trkpt>
      <trkpt lat="44.83704" lon="5.18728">
        <ele>592</ele>
        <time>2019-07-08T06:48:17Z</time>
      </trkpt>
      <trkpt lat="44.83704" lon="5.18728">
        <ele>592</ele>
        <time>2019-07-08T06:48:32Z</time>
      </trkpt>
      <trkpt lat="44.83704" lon="5.18728">
        <ele>592</ele>
        <time>2019-07-08T06:48:50Z</time>
      </trkpt>
      <trkpt lat="44.83703" lon="5.18728">
        <ele>592</ele>
        <time>2019-07-08T06:49:01Z</time>
      </trkpt>
      <trkpt lat="44.83703" lon="5.18728">
        <ele>592</ele>
        <time>2019-07-08T06:49:16Z</time>
      </trkpt>
      <trkpt lat="44.83703" lon="5.18728">
        <ele>592</ele>
        <time>2019-07-08T06:49:30Z</time>
      </trkpt>
      <trkpt lat="44.83704" lon="5.18728">
        <ele>592</ele>
        <time>2019-07-08T06:49:47Z</time>
      </trkpt>
      <trkpt lat="44.83704" lon="5.18728">
        <ele>592</ele>
        <time>2019-07-08T06:50:01Z</time>
      </trkpt>
      <trkpt lat="44.83704" lon="5.18728">
        <ele>592</ele>
        <time>2019-07-08T06:50:12Z</time>
      </trkpt>
      <trkpt lat="44.83703" lon="5.18725">
        <ele>592</ele>
        <time>2019-07-08T06:50:19Z</time>
      </trkpt>
      <trkpt lat="44.83704" lon="5.18723">
        <ele>592</ele>
        <time>2019-07-08T06:50:24Z</time>
      </trkpt>
      <trkpt lat="44.83704" lon="5.18723">
        <ele>591.40002441406</ele>
        <time>2019-07-08T06:50:27Z</time>
      </trkpt>
      <trkpt lat="44.83704" lon="5.18723">
        <ele>590.59997558594</ele>
        <time>2019-07-08T06:50:28Z</time>
      </trkpt>
      <trkpt lat="44.83704" lon="5.18723">
        <ele>590.59997558594</ele>
        <time>2019-07-08T06:50:29Z</time>
      </trkpt>
      <trkpt lat="44.83704" lon="5.18723">
        <ele>590.59997558594</ele>
        <time>2019-07-08T06:50:30Z</time>
      </trkpt>
      <trkpt lat="44.83704" lon="5.18723">
        <ele>591.40002441406</ele>
        <time>2019-07-08T06:50:31Z</time>
      </trkpt>
      <trkpt lat="44.83704" lon="5.18723">
        <ele>591.20001220703</ele>
        <time>2019-07-08T06:50:32Z</time>
      </trkpt>
      <trkpt lat="44.83704" lon="5.18723">
        <ele>591.20001220703</ele>
        <time>2019-07-08T06:50:33Z</time>
      </trkpt>
      <trkpt lat="44.83704" lon="5.18723">
        <ele>591.20001220703</ele>
        <time>2019-07-08T06:50:34Z</time>
      </trkpt>
      <trkpt lat="44.83704" lon="5.18723">
        <ele>591</ele>
        <time>2019-07-08T06:50:35Z</time>
      </trkpt>
      <trkpt lat="44.83704" lon="5.18723">
        <ele>591</ele>
        <time>2019-07-08T06:50:36Z</time>
      </trkpt>
      <trkpt lat="44.83704" lon="5.18723">
        <ele>591</ele>
        <time>2019-07-08T06:50:45Z</time>
      </trkpt>
      <trkpt lat="44.83704" lon="5.18723">
        <ele>591</ele>
        <time>2019-07-08T06:50:58Z</time>
      </trkpt>
      <trkpt lat="44.83703" lon="5.18723">
        <ele>591</ele>
        <time>2019-07-08T06:51:12Z</time>
      </trkpt>
      <trkpt lat="44.83703" lon="5.18723">
        <ele>591</ele>
        <time>2019-07-08T06:51:21Z</time>
      </trkpt>
      <trkpt lat="44.83703" lon="5.18723">
        <ele>591</ele>
        <time>2019-07-08T06:51:26Z</time>
      </trkpt>
      <trkpt lat="44.83703" lon="5.18723">
        <ele>591</ele>
        <time>2019-07-08T06:51:38Z</time>
      </trkpt>
      <trkpt lat="44.83703" lon="5.18723">
        <ele>591</ele>
        <time>2019-07-08T06:51:52Z</time>
      </trkpt>
      <trkpt lat="44.83703" lon="5.18723">
        <ele>591</ele>
        <time>2019-07-08T06:52:07Z</time>
      </trkpt>
      <trkpt lat="44.83703" lon="5.18723">
        <ele>591</ele>
        <time>2019-07-08T06:52:22Z</time>
      </trkpt>
      <trkpt lat="44.83703" lon="5.18723">
        <ele>591</ele>
        <time>2019-07-08T06:52:35Z</time>
      </trkpt>
      <trkpt lat="44.83703" lon="5.18723">
        <ele>591</ele>
        <time>2019-07-08T06:52:50Z</time>
      </trkpt>
      <trkpt lat="44.83703" lon="5.18724">
        <ele>591</ele>
        <time>2019-07-08T06:53:02Z</time>
      </trkpt>
      <trkpt lat="44.83703" lon="5.18724">
        <ele>591</ele>
        <time>2019-07-08T06:53:16Z</time>
      </trkpt>
      <trkpt lat="44.83703" lon="5.18724">
        <ele>591</ele>
        <time>2019-07-08T06:53:32Z</time>
      </trkpt>
      <trkpt lat="44.83704" lon="5.18724">
        <ele>591</ele>
        <time>2019-07-08T06:53:45Z</time>
      </trkpt>
      <trkpt lat="44.83704" lon="5.18724">
        <ele>591</ele>
        <time>2019-07-08T06:53:58Z</time>
      </trkpt>
      <trkpt lat="44.83704" lon="5.18724">
        <ele>591</ele>
        <time>2019-07-08T06:54:12Z</time>
      </trkpt>
      <trkpt lat="44.83703" lon="5.18723">
        <ele>591</ele>
        <time>2019-07-08T06:54:24Z</time>
      </trkpt>
      <trkpt lat="44.83703" lon="5.18723">
        <ele>591</ele>
        <time>2019-07-08T06:54:37Z</time>
      </trkpt>
      <trkpt lat="44.83703" lon="5.18723">
        <ele>591</ele>
        <time>2019-07-08T06:54:51Z</time>
      </trkpt>
      <trkpt lat="44.83704" lon="5.18723">
        <ele>591</ele>
        <time>2019-07-08T06:55:06Z</time>
      </trkpt>
      <trkpt lat="44.83702" lon="5.18724">
        <ele>591</ele>
        <time>2019-07-08T06:55:20Z</time>
      </trkpt>
      <trkpt lat="44.837" lon="5.18729">
        <ele>591</ele>
        <time>2019-07-08T06:55:25Z</time>
      </trkpt>
      <trkpt lat="44.83696" lon="5.18725">
        <ele>591</ele>
        <time>2019-07-08T06:55:30Z</time>
      </trkpt>
      <trkpt lat="44.83696" lon="5.18718">
        <ele>591</ele>
        <time>2019-07-08T06:55:35Z</time>
      </trkpt>
      <trkpt lat="44.83695" lon="5.18715">
        <ele>591.40002441406</ele>
        <time>2019-07-08T06:55:37Z</time>
      </trkpt>
      <trkpt lat="44.83694" lon="5.18713">
        <ele>591.79998779297</ele>
        <time>2019-07-08T06:55:38Z</time>
      </trkpt>
      <trkpt lat="44.83693" lon="5.18711">
        <ele>592.20001220703</ele>
        <time>2019-07-08T06:55:39Z</time>
      </trkpt>
      <trkpt lat="44.83691" lon="5.1871">
        <ele>592.59997558594</ele>
        <time>2019-07-08T06:55:40Z</time>
      </trkpt>
      <trkpt lat="44.83689" lon="5.18708">
        <ele>593</ele>
        <time>2019-07-08T06:55:41Z</time>
      </trkpt>
      <trkpt lat="44.83683" lon="5.18709">
        <ele>593</ele>
        <time>2019-07-08T06:55:44Z</time>
      </trkpt>
      <trkpt lat="44.83672" lon="5.18714">
        <ele>593</ele>
        <time>2019-07-08T06:55:49Z</time>
      </trkpt>
      <trkpt lat="44.83659" lon="5.18715">
        <ele>593</ele>
        <time>2019-07-08T06:55:55Z</time>
      </trkpt>
      <trkpt lat="44.83657" lon="5.18715">
        <ele>593.40002441406</ele>
        <time>2019-07-08T06:55:56Z</time>
      </trkpt>
      <trkpt lat="44.83655" lon="5.18715">
        <ele>593.79998779297</ele>
        <time>2019-07-08T06:55:57Z</time>
      </trkpt>
      <trkpt lat="44.83654" lon="5.18716">
        <ele>594.20001220703</ele>
        <time>2019-07-08T06:55:58Z</time>
      </trkpt>
      <trkpt lat="44.83652" lon="5.18716">
        <ele>594.59997558594</ele>
        <time>2019-07-08T06:55:59Z</time>
      </trkpt>
      <trkpt lat="44.8365" lon="5.18716">
        <ele>595</ele>
        <time>2019-07-08T06:56:00Z</time>
      </trkpt>
      <trkpt lat="44.83647" lon="5.18715">
        <ele>595</ele>
        <time>2019-07-08T06:56:01Z</time>
      </trkpt>
      <trkpt lat="44.83645" lon="5.18716">
        <ele>595</ele>
        <time>2019-07-08T06:56:02Z</time>
      </trkpt>
      <trkpt lat="44.83639" lon="5.18715">
        <ele>595</ele>
        <time>2019-07-08T06:56:05Z</time>
      </trkpt>
      <trkpt lat="44.83635" lon="5.18715">
        <ele>595</ele>
        <time>2019-07-08T06:56:07Z</time>
      </trkpt>
      <trkpt lat="44.83624" lon="5.18714">
        <ele>595.59997558594</ele>
        <time>2019-07-08T06:56:13Z</time>
      </trkpt>
      <trkpt lat="44.83622" lon="5.18714">
        <ele>596</ele>
        <time>2019-07-08T06:56:14Z</time>
      </trkpt>
      <trkpt lat="44.83621" lon="5.18714">
        <ele>596.40002441406</ele>
        <time>2019-07-08T06:56:15Z</time>
      </trkpt>
      <trkpt lat="44.8362" lon="5.18713">
        <ele>596.79998779297</ele>
        <time>2019-07-08T06:56:16Z</time>
      </trkpt>
      <trkpt lat="44.83619" lon="5.18714">
        <ele>597.20001220703</ele>
        <time>2019-07-08T06:56:17Z</time>
      </trkpt>
      <trkpt lat="44.83616" lon="5.18715">
        <ele>597.20001220703</ele>
        <time>2019-07-08T06:56:19Z</time>
      </trkpt>
      <trkpt lat="44.8361" lon="5.18716">
        <ele>597.20001220703</ele>
        <time>2019-07-08T06:56:23Z</time>
      </trkpt>
      <trkpt lat="44.83607" lon="5.18716">
        <ele>597.20001220703</ele>
        <time>2019-07-08T06:56:25Z</time>
      </trkpt>
      <trkpt lat="44.83606" lon="5.18716">
        <ele>598</ele>
        <time>2019-07-08T06:56:26Z</time>
      </trkpt>
      <trkpt lat="44.83604" lon="5.18717">
        <ele>598.40002441406</ele>
        <time>2019-07-08T06:56:27Z</time>
      </trkpt>
      <trkpt lat="44.83603" lon="5.18717">
        <ele>598.79998779297</ele>
        <time>2019-07-08T06:56:28Z</time>
      </trkpt>
      <trkpt lat="44.83602" lon="5.18717">
        <ele>599.20001220703</ele>
        <time>2019-07-08T06:56:29Z</time>
      </trkpt>
      <trkpt lat="44.83599" lon="5.18718">
        <ele>599.20001220703</ele>
        <time>2019-07-08T06:56:31Z</time>
      </trkpt>
      <trkpt lat="44.83588" lon="5.18716">
        <ele>599.20001220703</ele>
        <time>2019-07-08T06:56:37Z</time>
      </trkpt>
      <trkpt lat="44.83583" lon="5.18717">
        <ele>599.59997558594</ele>
        <time>2019-07-08T06:56:40Z</time>
      </trkpt>
      <trkpt lat="44.8358" lon="5.18718">
        <ele>600</ele>
        <time>2019-07-08T06:56:41Z</time>
      </trkpt>
      <trkpt lat="44.83577" lon="5.18718">
        <ele>600.40002441406</ele>
        <time>2019-07-08T06:56:42Z</time>
      </trkpt>
      <trkpt lat="44.83574" lon="5.18719">
        <ele>600.79998779297</ele>
        <time>2019-07-08T06:56:43Z</time>
      </trkpt>
      <trkpt lat="44.83571" lon="5.1872">
        <ele>601.40002441406</ele>
        <time>2019-07-08T06:56:44Z</time>
      </trkpt>
      <trkpt lat="44.83556" lon="5.18723">
        <ele>601.40002441406</ele>
        <time>2019-07-08T06:56:50Z</time>
      </trkpt>
      <trkpt lat="44.83543" lon="5.18723">
        <ele>601.40002441406</ele>
        <time>2019-07-08T06:56:56Z</time>
      </trkpt>
      <trkpt lat="44.83541" lon="5.18723">
        <ele>601.79998779297</ele>
        <time>2019-07-08T06:56:57Z</time>
      </trkpt>
      <trkpt lat="44.83539" lon="5.18723">
        <ele>602.20001220703</ele>
        <time>2019-07-08T06:56:58Z</time>
      </trkpt>
      <trkpt lat="44.83537" lon="5.18723">
        <ele>602.59997558594</ele>
        <time>2019-07-08T06:56:59Z</time>
      </trkpt>
      <trkpt lat="44.83536" lon="5.18723">
        <ele>603</ele>
        <time>2019-07-08T06:57:00Z</time>
      </trkpt>
      <trkpt lat="44.83535" lon="5.18724">
        <ele>603.40002441406</ele>
        <time>2019-07-08T06:57:01Z</time>
      </trkpt>
      <trkpt lat="44.83534" lon="5.18725">
        <ele>603.40002441406</ele>
        <time>2019-07-08T06:57:02Z</time>
      </trkpt>
      <trkpt lat="44.83529" lon="5.18728">
        <ele>603.40002441406</ele>
        <time>2019-07-08T06:57:06Z</time>
      </trkpt>
      <trkpt lat="44.83519" lon="5.18736">
        <ele>603.79998779297</ele>
        <time>2019-07-08T06:57:11Z</time>
      </trkpt>
      <trkpt lat="44.83517" lon="5.18738">
        <ele>604.20001220703</ele>
        <time>2019-07-08T06:57:12Z</time>
      </trkpt>
      <trkpt lat="44.83516" lon="5.18739">
        <ele>604.59997558594</ele>
        <time>2019-07-08T06:57:13Z</time>
      </trkpt>
      <trkpt lat="44.83515" lon="5.1874">
        <ele>605</ele>
        <time>2019-07-08T06:57:14Z</time>
      </trkpt>
      <trkpt lat="44.83514" lon="5.18741">
        <ele>605.40002441406</ele>
        <time>2019-07-08T06:57:15Z</time>
      </trkpt>
      <trkpt lat="44.83508" lon="5.18747">
        <ele>605.40002441406</ele>
        <time>2019-07-08T06:57:19Z</time>
      </trkpt>
      <trkpt lat="44.83503" lon="5.18752">
        <ele>606</ele>
        <time>2019-07-08T06:57:24Z</time>
      </trkpt>
      <trkpt lat="44.83501" lon="5.18753">
        <ele>606.40002441406</ele>
        <time>2019-07-08T06:57:25Z</time>
      </trkpt>
      <trkpt lat="44.83499" lon="5.18753">
        <ele>606.79998779297</ele>
        <time>2019-07-08T06:57:26Z</time>
      </trkpt>
      <trkpt lat="44.83496" lon="5.18753">
        <ele>607.20001220703</ele>
        <time>2019-07-08T06:57:27Z</time>
      </trkpt>
      <trkpt lat="44.83493" lon="5.18754">
        <ele>607.59997558594</ele>
        <time>2019-07-08T06:57:28Z</time>
      </trkpt>
      <trkpt lat="44.83478" lon="5.18753">
        <ele>607.59997558594</ele>
        <time>2019-07-08T06:57:34Z</time>
      </trkpt>
      <trkpt lat="44.83466" lon="5.18749">
        <ele>608</ele>
        <time>2019-07-08T06:57:41Z</time>
      </trkpt>
      <trkpt lat="44.83464" lon="5.18748">
        <ele>608.40002441406</ele>
        <time>2019-07-08T06:57:42Z</time>
      </trkpt>
      <trkpt lat="44.83462" lon="5.18748">
        <ele>608.79998779297</ele>
        <time>2019-07-08T06:57:43Z</time>
      </trkpt>
      <trkpt lat="44.8346" lon="5.18748">
        <ele>609.20001220703</ele>
        <time>2019-07-08T06:57:44Z</time>
      </trkpt>
      <trkpt lat="44.83458" lon="5.18748">
        <ele>609.59997558594</ele>
        <time>2019-07-08T06:57:45Z</time>
      </trkpt>
      <trkpt lat="44.83456" lon="5.18748">
        <ele>609.59997558594</ele>
        <time>2019-07-08T06:57:46Z</time>
      </trkpt>
      <trkpt lat="44.83453" lon="5.18749">
        <ele>609.59997558594</ele>
        <time>2019-07-08T06:57:48Z</time>
      </trkpt>
      <trkpt lat="44.83446" lon="5.18757">
        <ele>609.59997558594</ele>
        <time>2019-07-08T06:57:53Z</time>
      </trkpt>
      <trkpt lat="44.83444" lon="5.18764">
        <ele>610</ele>
        <time>2019-07-08T06:57:56Z</time>
      </trkpt>
      <trkpt lat="44.83443" lon="5.18766">
        <ele>610.40002441406</ele>
        <time>2019-07-08T06:57:57Z</time>
      </trkpt>
      <trkpt lat="44.83442" lon="5.18769">
        <ele>610.79998779297</ele>
        <time>2019-07-08T06:57:58Z</time>
      </trkpt>
      <trkpt lat="44.83441" lon="5.18771">
        <ele>611.20001220703</ele>
        <time>2019-07-08T06:57:59Z</time>
      </trkpt>
      <trkpt lat="44.8344" lon="5.18773">
        <ele>611.59997558594</ele>
        <time>2019-07-08T06:58:00Z</time>
      </trkpt>
      <trkpt lat="44.83432" lon="5.18787">
        <ele>611.59997558594</ele>
        <time>2019-07-08T06:58:07Z</time>
      </trkpt>
      <trkpt lat="44.83424" lon="5.18793">
        <ele>612</ele>
        <time>2019-07-08T06:58:12Z</time>
      </trkpt>
      <trkpt lat="44.83423" lon="5.18794">
        <ele>612.40002441406</ele>
        <time>2019-07-08T06:58:13Z</time>
      </trkpt>
      <trkpt lat="44.83422" lon="5.18796">
        <ele>612.79998779297</ele>
        <time>2019-07-08T06:58:14Z</time>
      </trkpt>
      <trkpt lat="44.8342" lon="5.18797">
        <ele>613.20001220703</ele>
        <time>2019-07-08T06:58:15Z</time>
      </trkpt>
      <trkpt lat="44.83418" lon="5.18798">
        <ele>613.59997558594</ele>
        <time>2019-07-08T06:58:16Z</time>
      </trkpt>
      <trkpt lat="44.83411" lon="5.18804">
        <ele>613.59997558594</ele>
        <time>2019-07-08T06:58:20Z</time>
      </trkpt>
      <trkpt lat="44.83401" lon="5.18813">
        <ele>614.20001220703</ele>
        <time>2019-07-08T06:58:26Z</time>
      </trkpt>
      <trkpt lat="44.834" lon="5.18814">
        <ele>614.59997558594</ele>
        <time>2019-07-08T06:58:27Z</time>
      </trkpt>
      <trkpt lat="44.83398" lon="5.18815">
        <ele>615</ele>
        <time>2019-07-08T06:58:28Z</time>
      </trkpt>
      <trkpt lat="44.83396" lon="5.18817">
        <ele>615.40002441406</ele>
        <time>2019-07-08T06:58:29Z</time>
      </trkpt>
      <trkpt lat="44.83394" lon="5.18818">
        <ele>615.79998779297</ele>
        <time>2019-07-08T06:58:30Z</time>
      </trkpt>
      <trkpt lat="44.83386" lon="5.18823">
        <ele>615.79998779297</ele>
        <time>2019-07-08T06:58:34Z</time>
      </trkpt>
      <trkpt lat="44.83377" lon="5.18831">
        <ele>615.79998779297</ele>
        <time>2019-07-08T06:58:40Z</time>
      </trkpt>
      <trkpt lat="44.83367" lon="5.18842">
        <ele>615.79998779297</ele>
        <time>2019-07-08T06:58:47Z</time>
      </trkpt>
      <trkpt lat="44.83366" lon="5.18844">
        <ele>616.20001220703</ele>
        <time>2019-07-08T06:58:48Z</time>
      </trkpt>
      <trkpt lat="44.83365" lon="5.18846">
        <ele>616.59997558594</ele>
        <time>2019-07-08T06:58:49Z</time>
      </trkpt>
      <trkpt lat="44.83364" lon="5.18848">
        <ele>617</ele>
        <time>2019-07-08T06:58:50Z</time>
      </trkpt>
      <trkpt lat="44.83363" lon="5.18851">
        <ele>617.40002441406</ele>
        <time>2019-07-08T06:58:51Z</time>
      </trkpt>
      <trkpt lat="44.83362" lon="5.18853">
        <ele>618</ele>
        <time>2019-07-08T06:58:52Z</time>
      </trkpt>
      <trkpt lat="44.83362" lon="5.18855">
        <ele>618</ele>
        <time>2019-07-08T06:58:53Z</time>
      </trkpt>
      <trkpt lat="44.83357" lon="5.18869">
        <ele>618</ele>
        <time>2019-07-08T06:58:59Z</time>
      </trkpt>
      <trkpt lat="44.83354" lon="5.1888">
        <ele>618.40002441406</ele>
        <time>2019-07-08T06:59:03Z</time>
      </trkpt>
      <trkpt lat="44.83353" lon="5.18882">
        <ele>618.79998779297</ele>
        <time>2019-07-08T06:59:04Z</time>
      </trkpt>
      <trkpt lat="44.83352" lon="5.18884">
        <ele>619.20001220703</ele>
        <time>2019-07-08T06:59:05Z</time>
      </trkpt>
      <trkpt lat="44.83351" lon="5.18886">
        <ele>619.59997558594</ele>
        <time>2019-07-08T06:59:06Z</time>
      </trkpt>
      <trkpt lat="44.8335" lon="5.18888">
        <ele>620</ele>
        <time>2019-07-08T06:59:07Z</time>
      </trkpt>
      <trkpt lat="44.83345" lon="5.18899">
        <ele>620</ele>
        <time>2019-07-08T06:59:13Z</time>
      </trkpt>
      <trkpt lat="44.83343" lon="5.18901">
        <ele>620</ele>
        <time>2019-07-08T06:59:14Z</time>
      </trkpt>
      <trkpt lat="44.83338" lon="5.18908">
        <ele>620.40002441406</ele>
        <time>2019-07-08T06:59:18Z</time>
      </trkpt>
      <trkpt lat="44.83336" lon="5.1891">
        <ele>621.20001220703</ele>
        <time>2019-07-08T06:59:19Z</time>
      </trkpt>
      <trkpt lat="44.83335" lon="5.18911">
        <ele>621.59997558594</ele>
        <time>2019-07-08T06:59:20Z</time>
      </trkpt>
      <trkpt lat="44.83333" lon="5.18913">
        <ele>622</ele>
        <time>2019-07-08T06:59:21Z</time>
      </trkpt>
      <trkpt lat="44.83327" lon="5.18919">
        <ele>622</ele>
        <time>2019-07-08T06:59:25Z</time>
      </trkpt>
      <trkpt lat="44.83318" lon="5.1893">
        <ele>622</ele>
        <time>2019-07-08T06:59:31Z</time>
      </trkpt>
      <trkpt lat="44.83312" lon="5.18942">
        <ele>622.59997558594</ele>
        <time>2019-07-08T06:59:37Z</time>
      </trkpt>
      <trkpt lat="44.83311" lon="5.18944">
        <ele>623</ele>
        <time>2019-07-08T06:59:38Z</time>
      </trkpt>
      <trkpt lat="44.8331" lon="5.18946">
        <ele>623.40002441406</ele>
        <time>2019-07-08T06:59:39Z</time>
      </trkpt>
      <trkpt lat="44.83309" lon="5.18948">
        <ele>623.79998779297</ele>
        <time>2019-07-08T06:59:40Z</time>
      </trkpt>
      <trkpt lat="44.83307" lon="5.1895">
        <ele>624.20001220703</ele>
        <time>2019-07-08T06:59:41Z</time>
      </trkpt>
      <trkpt lat="44.83304" lon="5.18952">
        <ele>624.20001220703</ele>
        <time>2019-07-08T06:59:43Z</time>
      </trkpt>
      <trkpt lat="44.83303" lon="5.18951">
        <ele>624.20001220703</ele>
        <time>2019-07-08T06:59:44Z</time>
      </trkpt>
      <trkpt lat="44.833" lon="5.18946">
        <ele>624.20001220703</ele>
        <time>2019-07-08T06:59:47Z</time>
      </trkpt>
      <trkpt lat="44.833" lon="5.18944">
        <ele>624.20001220703</ele>
        <time>2019-07-08T06:59:48Z</time>
      </trkpt>
      <trkpt lat="44.83301" lon="5.18939">
        <ele>624.59997558594</ele>
        <time>2019-07-08T06:59:50Z</time>
      </trkpt>
      <trkpt lat="44.83301" lon="5.18937">
        <ele>625</ele>
        <time>2019-07-08T06:59:51Z</time>
      </trkpt>
      <trkpt lat="44.83302" lon="5.18934">
        <ele>625.40002441406</ele>
        <time>2019-07-08T06:59:52Z</time>
      </trkpt>
      <trkpt lat="44.83303" lon="5.18931">
        <ele>625.79998779297</ele>
        <time>2019-07-08T06:59:53Z</time>
      </trkpt>
      <trkpt lat="44.83304" lon="5.18929">
        <ele>626.20001220703</ele>
        <time>2019-07-08T06:59:54Z</time>
      </trkpt>
      <trkpt lat="44.83305" lon="5.18927">
        <ele>626.20001220703</ele>
        <time>2019-07-08T06:59:55Z</time>
      </trkpt>
      <trkpt lat="44.83316" lon="5.18914">
        <ele>626.20001220703</ele>
        <time>2019-07-08T07:00:03Z</time>
      </trkpt>
      <trkpt lat="44.83319" lon="5.18902">
        <ele>627</ele>
        <time>2019-07-08T07:00:08Z</time>
      </trkpt>
      <trkpt lat="44.83319" lon="5.18899">
        <ele>627.40002441406</ele>
        <time>2019-07-08T07:00:09Z</time>
      </trkpt>
      <trkpt lat="44.83319" lon="5.18896">
        <ele>628</ele>
        <time>2019-07-08T07:00:10Z</time>
      </trkpt>
      <trkpt lat="44.83318" lon="5.18894">
        <ele>628.40002441406</ele>
        <time>2019-07-08T07:00:11Z</time>
      </trkpt>
      <trkpt lat="44.83313" lon="5.18885">
        <ele>628.40002441406</ele>
        <time>2019-07-08T07:00:15Z</time>
      </trkpt>
      <trkpt lat="44.83301" lon="5.18875">
        <ele>628.40002441406</ele>
        <time>2019-07-08T07:00:22Z</time>
      </trkpt>
      <trkpt lat="44.83297" lon="5.18872">
        <ele>628.79998779297</ele>
        <time>2019-07-08T07:00:24Z</time>
      </trkpt>
      <trkpt lat="44.83294" lon="5.1887">
        <ele>629.20001220703</ele>
        <time>2019-07-08T07:00:25Z</time>
      </trkpt>
      <trkpt lat="44.83293" lon="5.18869">
        <ele>629.59997558594</ele>
        <time>2019-07-08T07:00:26Z</time>
      </trkpt>
      <trkpt lat="44.83291" lon="5.18867">
        <ele>630</ele>
        <time>2019-07-08T07:00:27Z</time>
      </trkpt>
      <trkpt lat="44.8329" lon="5.18865">
        <ele>630.40002441406</ele>
        <time>2019-07-08T07:00:28Z</time>
      </trkpt>
      <trkpt lat="44.83284" lon="5.18857">
        <ele>630.40002441406</ele>
        <time>2019-07-08T07:00:33Z</time>
      </trkpt>
      <trkpt lat="44.83282" lon="5.18856">
        <ele>630.40002441406</ele>
        <time>2019-07-08T07:00:34Z</time>
      </trkpt>
      <trkpt lat="44.8328" lon="5.18853">
        <ele>630.40002441406</ele>
        <time>2019-07-08T07:00:37Z</time>
      </trkpt>
      <trkpt lat="44.83279" lon="5.1885">
        <ele>630.40002441406</ele>
        <time>2019-07-08T07:00:38Z</time>
      </trkpt>
      <trkpt lat="44.83275" lon="5.18842">
        <ele>630.79998779297</ele>
        <time>2019-07-08T07:00:41Z</time>
      </trkpt>
      <trkpt lat="44.83273" lon="5.18841">
        <ele>631.20001220703</ele>
        <time>2019-07-08T07:00:42Z</time>
      </trkpt>
      <trkpt lat="44.83271" lon="5.18839">
        <ele>631.59997558594</ele>
        <time>2019-07-08T07:00:43Z</time>
      </trkpt>
      <trkpt lat="44.83269" lon="5.18837">
        <ele>632</ele>
        <time>2019-07-08T07:00:44Z</time>
      </trkpt>
      <trkpt lat="44.83267" lon="5.18835">
        <ele>632.40002441406</ele>
        <time>2019-07-08T07:00:45Z</time>
      </trkpt>
      <trkpt lat="44.83258" lon="5.18834">
        <ele>632.40002441406</ele>
        <time>2019-07-08T07:00:49Z</time>
      </trkpt>
      <trkpt lat="44.8325" lon="5.18845">
        <ele>632.40002441406</ele>
        <time>2019-07-08T07:00:54Z</time>
      </trkpt>
      <trkpt lat="44.83248" lon="5.18857">
        <ele>633.20001220703</ele>
        <time>2019-07-08T07:00:58Z</time>
      </trkpt>
      <trkpt lat="44.83247" lon="5.18859">
        <ele>633.79998779297</ele>
        <time>2019-07-08T07:00:59Z</time>
      </trkpt>
      <trkpt lat="44.83247" lon="5.18862">
        <ele>634.20001220703</ele>
        <time>2019-07-08T07:01:00Z</time>
      </trkpt>
      <trkpt lat="44.83247" lon="5.18865">
        <ele>634.59997558594</ele>
        <time>2019-07-08T07:01:01Z</time>
      </trkpt>
      <trkpt lat="44.83248" lon="5.18871">
        <ele>634.59997558594</ele>
        <time>2019-07-08T07:01:03Z</time>
      </trkpt>
      <trkpt lat="44.83249" lon="5.18876">
        <ele>634.59997558594</ele>
        <time>2019-07-08T07:01:05Z</time>
      </trkpt>
      <trkpt lat="44.83251" lon="5.18883">
        <ele>634.59997558594</ele>
        <time>2019-07-08T07:01:08Z</time>
      </trkpt>
      <trkpt lat="44.83253" lon="5.1889">
        <ele>634.59997558594</ele>
        <time>2019-07-08T07:01:11Z</time>
      </trkpt>
      <trkpt lat="44.83251" lon="5.18895">
        <ele>635</ele>
        <time>2019-07-08T07:01:15Z</time>
      </trkpt>
      <trkpt lat="44.83251" lon="5.18894">
        <ele>635.40002441406</ele>
        <time>2019-07-08T07:01:16Z</time>
      </trkpt>
      <trkpt lat="44.83251" lon="5.18894">
        <ele>635.79998779297</ele>
        <time>2019-07-08T07:01:17Z</time>
      </trkpt>
      <trkpt lat="44.83251" lon="5.18894">
        <ele>636.20001220703</ele>
        <time>2019-07-08T07:01:18Z</time>
      </trkpt>
      <trkpt lat="44.83251" lon="5.18894">
        <ele>636.59997558594</ele>
        <time>2019-07-08T07:01:19Z</time>
      </trkpt>
      <trkpt lat="44.83251" lon="5.18894">
        <ele>636.59997558594</ele>
        <time>2019-07-08T07:01:25Z</time>
      </trkpt>
      <trkpt lat="44.83251" lon="5.18894">
        <ele>636.59997558594</ele>
        <time>2019-07-08T07:01:39Z</time>
      </trkpt>
      <trkpt lat="44.83251" lon="5.18894">
        <ele>636.59997558594</ele>
        <time>2019-07-08T07:01:50Z</time>
      </trkpt>
      <trkpt lat="44.83251" lon="5.18894">
        <ele>636.59997558594</ele>
        <time>2019-07-08T07:02:05Z</time>
      </trkpt>
      <trkpt lat="44.83251" lon="5.18894">
        <ele>636.59997558594</ele>
        <time>2019-07-08T07:02:21Z</time>
      </trkpt>
      <trkpt lat="44.83251" lon="5.18894">
        <ele>636.59997558594</ele>
        <time>2019-07-08T07:02:34Z</time>
      </trkpt>
      <trkpt lat="44.83251" lon="5.18894">
        <ele>636.59997558594</ele>
        <time>2019-07-08T07:02:49Z</time>
      </trkpt>
      <trkpt lat="44.83251" lon="5.18894">
        <ele>636.59997558594</ele>
        <time>2019-07-08T07:03:03Z</time>
      </trkpt>
      <trkpt lat="44.83251" lon="5.18894">
        <ele>636.59997558594</ele>
        <time>2019-07-08T07:03:19Z</time>
      </trkpt>
      <trkpt lat="44.83251" lon="5.18894">
        <ele>636.20001220703</ele>
        <time>2019-07-08T07:03:30Z</time>
      </trkpt>
      <trkpt lat="44.83251" lon="5.18894">
        <ele>635.79998779297</ele>
        <time>2019-07-08T07:03:31Z</time>
      </trkpt>
      <trkpt lat="44.83251" lon="5.18894">
        <ele>635.40002441406</ele>
        <time>2019-07-08T07:03:32Z</time>
      </trkpt>
      <trkpt lat="44.83251" lon="5.18894">
        <ele>635</ele>
        <time>2019-07-08T07:03:33Z</time>
      </trkpt>
      <trkpt lat="44.83251" lon="5.18894">
        <ele>634.40002441406</ele>
        <time>2019-07-08T07:03:34Z</time>
      </trkpt>
      <trkpt lat="44.83251" lon="5.18894">
        <ele>634.40002441406</ele>
        <time>2019-07-08T07:03:46Z</time>
      </trkpt>
      <trkpt lat="44.83251" lon="5.18894">
        <ele>634.40002441406</ele>
        <time>2019-07-08T07:03:53Z</time>
      </trkpt>
      <trkpt lat="44.83251" lon="5.18894">
        <ele>634.40002441406</ele>
        <time>2019-07-08T07:04:08Z</time>
      </trkpt>
      <trkpt lat="44.83251" lon="5.18894">
        <ele>634.40002441406</ele>
        <time>2019-07-08T07:04:24Z</time>
      </trkpt>
      <trkpt lat="44.83251" lon="5.18893">
        <ele>634.40002441406</ele>
        <time>2019-07-08T07:04:42Z</time>
      </trkpt>
      <trkpt lat="44.83251" lon="5.18893">
        <ele>634.40002441406</ele>
        <time>2019-07-08T07:04:57Z</time>
      </trkpt>
      <trkpt lat="44.83251" lon="5.18893">
        <ele>634.40002441406</ele>
        <time>2019-07-08T07:05:11Z</time>
      </trkpt>
      <trkpt lat="44.83251" lon="5.18893">
        <ele>634.40002441406</ele>
        <time>2019-07-08T07:05:25Z</time>
      </trkpt>
      <trkpt lat="44.83251" lon="5.18893">
        <ele>634.40002441406</ele>
        <time>2019-07-08T07:05:43Z</time>
      </trkpt>
      <trkpt lat="44.83251" lon="5.18893">
        <ele>634.40002441406</ele>
        <time>2019-07-08T07:05:49Z</time>
      </trkpt>
      <trkpt lat="44.8325" lon="5.18894">
        <ele>634.40002441406</ele>
        <time>2019-07-08T07:05:50Z</time>
      </trkpt>
      <trkpt lat="44.83248" lon="5.18897">
        <ele>634.40002441406</ele>
        <time>2019-07-08T07:05:53Z</time>
      </trkpt>
      <trkpt lat="44.8324" lon="5.18906">
        <ele>634.40002441406</ele>
        <time>2019-07-08T07:05:58Z</time>
      </trkpt>
      <trkpt lat="44.83229" lon="5.18913">
        <ele>634.40002441406</ele>
        <time>2019-07-08T07:06:04Z</time>
      </trkpt>
      <trkpt lat="44.83219" lon="5.18911">
        <ele>634.40002441406</ele>
        <time>2019-07-08T07:06:09Z</time>
      </trkpt>
      <trkpt lat="44.8321" lon="5.18899">
        <ele>634.40002441406</ele>
        <time>2019-07-08T07:06:15Z</time>
      </trkpt>
      <trkpt lat="44.83208" lon="5.18893">
        <ele>634.40002441406</ele>
        <time>2019-07-08T07:06:18Z</time>
      </trkpt>
      <trkpt lat="44.83207" lon="5.18892">
        <ele>635</ele>
        <time>2019-07-08T07:06:19Z</time>
      </trkpt>
      <trkpt lat="44.83206" lon="5.1889">
        <ele>635.79998779297</ele>
        <time>2019-07-08T07:06:20Z</time>
      </trkpt>
      <trkpt lat="44.83206" lon="5.18886">
        <ele>636.20001220703</ele>
        <time>2019-07-08T07:06:21Z</time>
      </trkpt>
      <trkpt lat="44.83205" lon="5.18883">
        <ele>636.59997558594</ele>
        <time>2019-07-08T07:06:22Z</time>
      </trkpt>
      <trkpt lat="44.83203" lon="5.18869">
        <ele>636.59997558594</ele>
        <time>2019-07-08T07:06:26Z</time>
      </trkpt>
      <trkpt lat="44.832" lon="5.18853">
        <ele>637</ele>
        <time>2019-07-08T07:06:32Z</time>
      </trkpt>
      <trkpt lat="44.83199" lon="5.1885">
        <ele>637.40002441406</ele>
        <time>2019-07-08T07:06:33Z</time>
      </trkpt>
      <trkpt lat="44.83199" lon="5.18847">
        <ele>637.79998779297</ele>
        <time>2019-07-08T07:06:34Z</time>
      </trkpt>
      <trkpt lat="44.83198" lon="5.18844">
        <ele>638.20001220703</ele>
        <time>2019-07-08T07:06:35Z</time>
      </trkpt>
      <trkpt lat="44.83197" lon="5.18841">
        <ele>638.59997558594</ele>
        <time>2019-07-08T07:06:36Z</time>
      </trkpt>
      <trkpt lat="44.83195" lon="5.18833">
        <ele>638.59997558594</ele>
        <time>2019-07-08T07:06:39Z</time>
      </trkpt>
      <trkpt lat="44.83189" lon="5.18815">
        <ele>638.59997558594</ele>
        <time>2019-07-08T07:06:46Z</time>
      </trkpt>
      <trkpt lat="44.83188" lon="5.18813">
        <ele>639</ele>
        <time>2019-07-08T07:06:47Z</time>
      </trkpt>
      <trkpt lat="44.83187" lon="5.1881">
        <ele>639.40002441406</ele>
        <time>2019-07-08T07:06:48Z</time>
      </trkpt>
      <trkpt lat="44.83186" lon="5.18808">
        <ele>639.79998779297</ele>
        <time>2019-07-08T07:06:49Z</time>
      </trkpt>
      <trkpt lat="44.83186" lon="5.18805">
        <ele>640.20001220703</ele>
        <time>2019-07-08T07:06:50Z</time>
      </trkpt>
      <trkpt lat="44.83185" lon="5.18803">
        <ele>640.79998779297</ele>
        <time>2019-07-08T07:06:51Z</time>
      </trkpt>
      <trkpt lat="44.83185" lon="5.188">
        <ele>640.79998779297</ele>
        <time>2019-07-08T07:06:52Z</time>
      </trkpt>
      <trkpt lat="44.83192" lon="5.18783">
        <ele>640.79998779297</ele>
        <time>2019-07-08T07:06:58Z</time>
      </trkpt>
      <trkpt lat="44.83195" lon="5.18781">
        <ele>641.20001220703</ele>
        <time>2019-07-08T07:07:00Z</time>
      </trkpt>
      <trkpt lat="44.83198" lon="5.1878">
        <ele>641.59997558594</ele>
        <time>2019-07-08T07:07:01Z</time>
      </trkpt>
      <trkpt lat="44.832" lon="5.18779">
        <ele>642</ele>
        <time>2019-07-08T07:07:02Z</time>
      </trkpt>
      <trkpt lat="44.83202" lon="5.18779">
        <ele>642.40002441406</ele>
        <time>2019-07-08T07:07:03Z</time>
      </trkpt>
      <trkpt lat="44.83203" lon="5.18778">
        <ele>642.79998779297</ele>
        <time>2019-07-08T07:07:04Z</time>
      </trkpt>
      <trkpt lat="44.83218" lon="5.18774">
        <ele>642.79998779297</ele>
        <time>2019-07-08T07:07:11Z</time>
      </trkpt>
      <trkpt lat="44.83219" lon="5.18774">
        <ele>643.20001220703</ele>
        <time>2019-07-08T07:07:12Z</time>
      </trkpt>
      <trkpt lat="44.83221" lon="5.18774">
        <ele>643.59997558594</ele>
        <time>2019-07-08T07:07:13Z</time>
      </trkpt>
      <trkpt lat="44.83223" lon="5.18774">
        <ele>644</ele>
        <time>2019-07-08T07:07:14Z</time>
      </trkpt>
      <trkpt lat="44.83225" lon="5.18774">
        <ele>644.40002441406</ele>
        <time>2019-07-08T07:07:15Z</time>
      </trkpt>
      <trkpt lat="44.83227" lon="5.18775">
        <ele>644.79998779297</ele>
        <time>2019-07-08T07:07:16Z</time>
      </trkpt>
      <trkpt lat="44.83229" lon="5.18775">
        <ele>644.79998779297</ele>
        <time>2019-07-08T07:07:17Z</time>
      </trkpt>
      <trkpt lat="44.83244" lon="5.18773">
        <ele>644.79998779297</ele>
        <time>2019-07-08T07:07:25Z</time>
      </trkpt>
      <trkpt lat="44.83249" lon="5.18769">
        <ele>645.20001220703</ele>
        <time>2019-07-08T07:07:28Z</time>
      </trkpt>
      <trkpt lat="44.83251" lon="5.18767">
        <ele>645.59997558594</ele>
        <time>2019-07-08T07:07:29Z</time>
      </trkpt>
      <trkpt lat="44.83251" lon="5.18764">
        <ele>646.20001220703</ele>
        <time>2019-07-08T07:07:30Z</time>
      </trkpt>
      <trkpt lat="44.83251" lon="5.18761">
        <ele>646.59997558594</ele>
        <time>2019-07-08T07:07:31Z</time>
      </trkpt>
      <trkpt lat="44.8325" lon="5.18759">
        <ele>647</ele>
        <time>2019-07-08T07:07:32Z</time>
      </trkpt>
      <trkpt lat="44.83244" lon="5.18755">
        <ele>647</ele>
        <time>2019-07-08T07:07:35Z</time>
      </trkpt>
      <trkpt lat="44.83233" lon="5.18751">
        <ele>647</ele>
        <time>2019-07-08T07:07:40Z</time>
      </trkpt>
      <trkpt lat="44.83224" lon="5.1875">
        <ele>647.40002441406</ele>
        <time>2019-07-08T07:07:44Z</time>
      </trkpt>
      <trkpt lat="44.83222" lon="5.1875">
        <ele>647.79998779297</ele>
        <time>2019-07-08T07:07:45Z</time>
      </trkpt>
      <trkpt lat="44.8322" lon="5.18749">
        <ele>648.20001220703</ele>
        <time>2019-07-08T07:07:46Z</time>
      </trkpt>
      <trkpt lat="44.83218" lon="5.18749">
        <ele>648.59997558594</ele>
        <time>2019-07-08T07:07:47Z</time>
      </trkpt>
      <trkpt lat="44.83215" lon="5.18748">
        <ele>649</ele>
        <time>2019-07-08T07:07:48Z</time>
      </trkpt>
      <trkpt lat="44.83199" lon="5.1874">
        <ele>649</ele>
        <time>2019-07-08T07:07:56Z</time>
      </trkpt>
      <trkpt lat="44.83192" lon="5.18737">
        <ele>649.79998779297</ele>
        <time>2019-07-08T07:07:59Z</time>
      </trkpt>
      <trkpt lat="44.8319" lon="5.18736">
        <ele>650.20001220703</ele>
        <time>2019-07-08T07:08:00Z</time>
      </trkpt>
      <trkpt lat="44.83188" lon="5.18734">
        <ele>650.59997558594</ele>
        <time>2019-07-08T07:08:01Z</time>
      </trkpt>
      <trkpt lat="44.83186" lon="5.18733">
        <ele>651</ele>
        <time>2019-07-08T07:08:02Z</time>
      </trkpt>
      <trkpt lat="44.8317" lon="5.18725">
        <ele>651.40002441406</ele>
        <time>2019-07-08T07:08:10Z</time>
      </trkpt>
      <trkpt lat="44.83168" lon="5.18724">
        <ele>652</ele>
        <time>2019-07-08T07:08:11Z</time>
      </trkpt>
      <trkpt lat="44.83165" lon="5.18723">
        <ele>652.40002441406</ele>
        <time>2019-07-08T07:08:12Z</time>
      </trkpt>
      <trkpt lat="44.83164" lon="5.18722">
        <ele>652.79998779297</ele>
        <time>2019-07-08T07:08:13Z</time>
      </trkpt>
      <trkpt lat="44.83161" lon="5.18722">
        <ele>653.20001220703</ele>
        <time>2019-07-08T07:08:14Z</time>
      </trkpt>
      <trkpt lat="44.83152" lon="5.1872">
        <ele>653.20001220703</ele>
        <time>2019-07-08T07:08:18Z</time>
      </trkpt>
      <trkpt lat="44.83141" lon="5.18713">
        <ele>654</ele>
        <time>2019-07-08T07:08:24Z</time>
      </trkpt>
      <trkpt lat="44.83139" lon="5.18712">
        <ele>654.40002441406</ele>
        <time>2019-07-08T07:08:25Z</time>
      </trkpt>
      <trkpt lat="44.83137" lon="5.18711">
        <ele>654.79998779297</ele>
        <time>2019-07-08T07:08:26Z</time>
      </trkpt>
      <trkpt lat="44.83135" lon="5.18709">
        <ele>655.20001220703</ele>
        <time>2019-07-08T07:08:27Z</time>
      </trkpt>
      <trkpt lat="44.83131" lon="5.18705">
        <ele>655.20001220703</ele>
        <time>2019-07-08T07:08:29Z</time>
      </trkpt>
      <trkpt lat="44.83123" lon="5.18698">
        <ele>655.20001220703</ele>
        <time>2019-07-08T07:08:33Z</time>
      </trkpt>
      <trkpt lat="44.83117" lon="5.18693">
        <ele>655.59997558594</ele>
        <time>2019-07-08T07:08:36Z</time>
      </trkpt>
      <trkpt lat="44.83115" lon="5.18692">
        <ele>656.20001220703</ele>
        <time>2019-07-08T07:08:37Z</time>
      </trkpt>
      <trkpt lat="44.83113" lon="5.18691">
        <ele>656.59997558594</ele>
        <time>2019-07-08T07:08:38Z</time>
      </trkpt>
      <trkpt lat="44.83111" lon="5.1869">
        <ele>657</ele>
        <time>2019-07-08T07:08:39Z</time>
      </trkpt>
      <trkpt lat="44.83108" lon="5.18689">
        <ele>657.40002441406</ele>
        <time>2019-07-08T07:08:40Z</time>
      </trkpt>
      <trkpt lat="44.831" lon="5.18681">
        <ele>657.40002441406</ele>
        <time>2019-07-08T07:08:44Z</time>
      </trkpt>
      <trkpt lat="44.83088" lon="5.18673">
        <ele>657.79998779297</ele>
        <time>2019-07-08T07:08:50Z</time>
      </trkpt>
      <trkpt lat="44.83086" lon="5.18671">
        <ele>658.20001220703</ele>
        <time>2019-07-08T07:08:51Z</time>
      </trkpt>
      <trkpt lat="44.83084" lon="5.1867">
        <ele>658.59997558594</ele>
        <time>2019-07-08T07:08:52Z</time>
      </trkpt>
      <trkpt lat="44.83082" lon="5.18668">
        <ele>659</ele>
        <time>2019-07-08T07:08:53Z</time>
      </trkpt>
      <trkpt lat="44.83079" lon="5.18666">
        <ele>659.40002441406</ele>
        <time>2019-07-08T07:08:54Z</time>
      </trkpt>
      <trkpt lat="44.83075" lon="5.18663">
        <ele>659.40002441406</ele>
        <time>2019-07-08T07:08:56Z</time>
      </trkpt>
      <trkpt lat="44.83056" lon="5.18654">
        <ele>659.40002441406</ele>
        <time>2019-07-08T07:09:05Z</time>
      </trkpt>
      <trkpt lat="44.83051" lon="5.18652">
        <ele>659.79998779297</ele>
        <time>2019-07-08T07:09:07Z</time>
      </trkpt>
      <trkpt lat="44.83048" lon="5.18652">
        <ele>660.20001220703</ele>
        <time>2019-07-08T07:09:08Z</time>
      </trkpt>
      <trkpt lat="44.83046" lon="5.1865">
        <ele>660.79998779297</ele>
        <time>2019-07-08T07:09:09Z</time>
      </trkpt>
      <trkpt lat="44.83043" lon="5.1865">
        <ele>661.20001220703</ele>
        <time>2019-07-08T07:09:10Z</time>
      </trkpt>
      <trkpt lat="44.83041" lon="5.18649">
        <ele>661.59997558594</ele>
        <time>2019-07-08T07:09:11Z</time>
      </trkpt>
      <trkpt lat="44.83034" lon="5.18648">
        <ele>661.59997558594</ele>
        <time>2019-07-08T07:09:14Z</time>
      </trkpt>
      <trkpt lat="44.83017" lon="5.18645">
        <ele>661.59997558594</ele>
        <time>2019-07-08T07:09:21Z</time>
      </trkpt>
      <trkpt lat="44.83014" lon="5.18645">
        <ele>662</ele>
        <time>2019-07-08T07:09:22Z</time>
      </trkpt>
      <trkpt lat="44.83012" lon="5.18645">
        <ele>662.40002441406</ele>
        <time>2019-07-08T07:09:23Z</time>
      </trkpt>
      <trkpt lat="44.83009" lon="5.18644">
        <ele>662.79998779297</ele>
        <time>2019-07-08T07:09:24Z</time>
      </trkpt>
      <trkpt lat="44.83007" lon="5.18644">
        <ele>663.20001220703</ele>
        <time>2019-07-08T07:09:25Z</time>
      </trkpt>
      <trkpt lat="44.83004" lon="5.18643">
        <ele>663.59997558594</ele>
        <time>2019-07-08T07:09:26Z</time>
      </trkpt>
      <trkpt lat="44.82995" lon="5.18642">
        <ele>663.59997558594</ele>
        <time>2019-07-08T07:09:30Z</time>
      </trkpt>
      <trkpt lat="44.8298" lon="5.18641">
        <ele>664.59997558594</ele>
        <time>2019-07-08T07:09:36Z</time>
      </trkpt>
      <trkpt lat="44.82978" lon="5.18641">
        <ele>665</ele>
        <time>2019-07-08T07:09:37Z</time>
      </trkpt>
      <trkpt lat="44.82976" lon="5.1864">
        <ele>665.40002441406</ele>
        <time>2019-07-08T07:09:38Z</time>
      </trkpt>
      <trkpt lat="44.82974" lon="5.1864">
        <ele>665.79998779297</ele>
        <time>2019-07-08T07:09:39Z</time>
      </trkpt>
      <trkpt lat="44.82959" lon="5.1864">
        <ele>665.79998779297</ele>
        <time>2019-07-08T07:09:45Z</time>
      </trkpt>
      <trkpt lat="44.82949" lon="5.18637">
        <ele>666.40002441406</ele>
        <time>2019-07-08T07:09:50Z</time>
      </trkpt>
      <trkpt lat="44.82946" lon="5.18636">
        <ele>666.79998779297</ele>
        <time>2019-07-08T07:09:51Z</time>
      </trkpt>
      <trkpt lat="44.82944" lon="5.18637">
        <ele>667.20001220703</ele>
        <time>2019-07-08T07:09:52Z</time>
      </trkpt>
      <trkpt lat="44.82942" lon="5.18637">
        <ele>667.59997558594</ele>
        <time>2019-07-08T07:09:53Z</time>
      </trkpt>
      <trkpt lat="44.82939" lon="5.18637">
        <ele>668</ele>
        <time>2019-07-08T07:09:54Z</time>
      </trkpt>
      <trkpt lat="44.82926" lon="5.18635">
        <ele>668</ele>
        <time>2019-07-08T07:10:00Z</time>
      </trkpt>
      <trkpt lat="44.82916" lon="5.18634">
        <ele>668.40002441406</ele>
        <time>2019-07-08T07:10:04Z</time>
      </trkpt>
      <trkpt lat="44.82914" lon="5.18634">
        <ele>669</ele>
        <time>2019-07-08T07:10:05Z</time>
      </trkpt>
      <trkpt lat="44.82912" lon="5.18634">
        <ele>669.40002441406</ele>
        <time>2019-07-08T07:10:06Z</time>
      </trkpt>
      <trkpt lat="44.82909" lon="5.18634">
        <ele>669.79998779297</ele>
        <time>2019-07-08T07:10:07Z</time>
      </trkpt>
      <trkpt lat="44.82907" lon="5.18633">
        <ele>670.20001220703</ele>
        <time>2019-07-08T07:10:08Z</time>
      </trkpt>
      <trkpt lat="44.8289" lon="5.18631">
        <ele>670.20001220703</ele>
        <time>2019-07-08T07:10:16Z</time>
      </trkpt>
      <trkpt lat="44.82885" lon="5.18631">
        <ele>670.59997558594</ele>
        <time>2019-07-08T07:10:18Z</time>
      </trkpt>
      <trkpt lat="44.82883" lon="5.18631">
        <ele>671</ele>
        <time>2019-07-08T07:10:19Z</time>
      </trkpt>
      <trkpt lat="44.82881" lon="5.1863">
        <ele>671.40002441406</ele>
        <time>2019-07-08T07:10:20Z</time>
      </trkpt>
      <trkpt lat="44.82878" lon="5.18631">
        <ele>671.79998779297</ele>
        <time>2019-07-08T07:10:21Z</time>
      </trkpt>
      <trkpt lat="44.82876" lon="5.1863">
        <ele>672.40002441406</ele>
        <time>2019-07-08T07:10:22Z</time>
      </trkpt>
      <trkpt lat="44.82874" lon="5.1863">
        <ele>672.40002441406</ele>
        <time>2019-07-08T07:10:23Z</time>
      </trkpt>
      <trkpt lat="44.8286" lon="5.18629">
        <ele>672.40002441406</ele>
        <time>2019-07-08T07:10:29Z</time>
      </trkpt>
      <trkpt lat="44.82857" lon="5.18629">
        <ele>672.79998779297</ele>
        <time>2019-07-08T07:10:30Z</time>
      </trkpt>
      <trkpt lat="44.82855" lon="5.18628">
        <ele>673.20001220703</ele>
        <time>2019-07-08T07:10:31Z</time>
      </trkpt>
      <trkpt lat="44.82853" lon="5.18628">
        <ele>673.59997558594</ele>
        <time>2019-07-08T07:10:32Z</time>
      </trkpt>
      <trkpt lat="44.82851" lon="5.18628">
        <ele>674</ele>
        <time>2019-07-08T07:10:33Z</time>
      </trkpt>
      <trkpt lat="44.82848" lon="5.18628">
        <ele>674.40002441406</ele>
        <time>2019-07-08T07:10:34Z</time>
      </trkpt>
      <trkpt lat="44.82844" lon="5.18627">
        <ele>674.40002441406</ele>
        <time>2019-07-08T07:10:36Z</time>
      </trkpt>
      <trkpt lat="44.82831" lon="5.18628">
        <ele>674.40002441406</ele>
        <time>2019-07-08T07:10:42Z</time>
      </trkpt>
      <trkpt lat="44.82829" lon="5.18629">
        <ele>674.79998779297</ele>
        <time>2019-07-08T07:10:43Z</time>
      </trkpt>
      <trkpt lat="44.82826" lon="5.1863">
        <ele>675.20001220703</ele>
        <time>2019-07-08T07:10:44Z</time>
      </trkpt>
      <trkpt lat="44.82824" lon="5.18631">
        <ele>675.59997558594</ele>
        <time>2019-07-08T07:10:45Z</time>
      </trkpt>
      <trkpt lat="44.82821" lon="5.18632">
        <ele>676</ele>
        <time>2019-07-08T07:10:46Z</time>
      </trkpt>
      <trkpt lat="44.82819" lon="5.18633">
        <ele>676.40002441406</ele>
        <time>2019-07-08T07:10:47Z</time>
      </trkpt>
      <trkpt lat="44.82814" lon="5.18636">
        <ele>676.40002441406</ele>
        <time>2019-07-08T07:10:49Z</time>
      </trkpt>
      <trkpt lat="44.82801" lon="5.18645">
        <ele>676.79998779297</ele>
        <time>2019-07-08T07:10:55Z</time>
      </trkpt>
      <trkpt lat="44.82799" lon="5.18646">
        <ele>677.40002441406</ele>
        <time>2019-07-08T07:10:56Z</time>
      </trkpt>
      <trkpt lat="44.82797" lon="5.18647">
        <ele>677.79998779297</ele>
        <time>2019-07-08T07:10:57Z</time>
      </trkpt>
      <trkpt lat="44.82795" lon="5.18647">
        <ele>678.20001220703</ele>
        <time>2019-07-08T07:10:58Z</time>
      </trkpt>
      <trkpt lat="44.82793" lon="5.18647">
        <ele>678.59997558594</ele>
        <time>2019-07-08T07:10:59Z</time>
      </trkpt>
      <trkpt lat="44.82788" lon="5.18647">
        <ele>678.59997558594</ele>
        <time>2019-07-08T07:11:01Z</time>
      </trkpt>
      <trkpt lat="44.82772" lon="5.18635">
        <ele>678.59997558594</ele>
        <time>2019-07-08T07:11:08Z</time>
      </trkpt>
      <trkpt lat="44.8277" lon="5.18633">
        <ele>679</ele>
        <time>2019-07-08T07:11:09Z</time>
      </trkpt>
      <trkpt lat="44.82768" lon="5.18631">
        <ele>679.40002441406</ele>
        <time>2019-07-08T07:11:10Z</time>
      </trkpt>
      <trkpt lat="44.82766" lon="5.1863">
        <ele>679.79998779297</ele>
        <time>2019-07-08T07:11:11Z</time>
      </trkpt>
      <trkpt lat="44.82765" lon="5.18628">
        <ele>680.20001220703</ele>
        <time>2019-07-08T07:11:12Z</time>
      </trkpt>
      <trkpt lat="44.82763" lon="5.18627">
        <ele>680.59997558594</ele>
        <time>2019-07-08T07:11:13Z</time>
      </trkpt>
      <trkpt lat="44.82759" lon="5.18623">
        <ele>680.59997558594</ele>
        <time>2019-07-08T07:11:15Z</time>
      </trkpt>
      <trkpt lat="44.82748" lon="5.1861">
        <ele>680.59997558594</ele>
        <time>2019-07-08T07:11:21Z</time>
      </trkpt>
      <trkpt lat="44.82744" lon="5.18605">
        <ele>681</ele>
        <time>2019-07-08T07:11:23Z</time>
      </trkpt>
      <trkpt lat="44.82742" lon="5.18602">
        <ele>681.40002441406</ele>
        <time>2019-07-08T07:11:24Z</time>
      </trkpt>
      <trkpt lat="44.8274" lon="5.18601">
        <ele>681.79998779297</ele>
        <time>2019-07-08T07:11:25Z</time>
      </trkpt>
      <trkpt lat="44.82738" lon="5.18599">
        <ele>682.20001220703</ele>
        <time>2019-07-08T07:11:26Z</time>
      </trkpt>
      <trkpt lat="44.82736" lon="5.18597">
        <ele>682.59997558594</ele>
        <time>2019-07-08T07:11:27Z</time>
      </trkpt>
      <trkpt lat="44.82717" lon="5.18586">
        <ele>682.59997558594</ele>
        <time>2019-07-08T07:11:35Z</time>
      </trkpt>
      <trkpt lat="44.82712" lon="5.18584">
        <ele>683.20001220703</ele>
        <time>2019-07-08T07:11:37Z</time>
      </trkpt>
      <trkpt lat="44.8271" lon="5.18583">
        <ele>683.59997558594</ele>
        <time>2019-07-08T07:11:38Z</time>
      </trkpt>
      <trkpt lat="44.82708" lon="5.18581">
        <ele>684</ele>
        <time>2019-07-08T07:11:39Z</time>
      </trkpt>
      <trkpt lat="44.82706" lon="5.1858">
        <ele>684.79998779297</ele>
        <time>2019-07-08T07:11:40Z</time>
      </trkpt>
      <trkpt lat="44.827" lon="5.18575">
        <ele>684.79998779297</ele>
        <time>2019-07-08T07:11:43Z</time>
      </trkpt>
      <trkpt lat="44.82687" lon="5.18565">
        <ele>685.20001220703</ele>
        <time>2019-07-08T07:11:49Z</time>
      </trkpt>
      <trkpt lat="44.82686" lon="5.18563">
        <ele>685.59997558594</ele>
        <time>2019-07-08T07:11:50Z</time>
      </trkpt>
      <trkpt lat="44.82684" lon="5.1856">
        <ele>686</ele>
        <time>2019-07-08T07:11:51Z</time>
      </trkpt>
      <trkpt lat="44.82683" lon="5.18558">
        <ele>686.40002441406</ele>
        <time>2019-07-08T07:11:52Z</time>
      </trkpt>
      <trkpt lat="44.82681" lon="5.18556">
        <ele>686.79998779297</ele>
        <time>2019-07-08T07:11:53Z</time>
      </trkpt>
      <trkpt lat="44.82673" lon="5.18549">
        <ele>686.79998779297</ele>
        <time>2019-07-08T07:11:57Z</time>
      </trkpt>
      <trkpt lat="44.82661" lon="5.18556">
        <ele>686.79998779297</ele>
        <time>2019-07-08T07:12:02Z</time>
      </trkpt>
      <trkpt lat="44.8266" lon="5.18558">
        <ele>687.40002441406</ele>
        <time>2019-07-08T07:12:03Z</time>
      </trkpt>
      <trkpt lat="44.82659" lon="5.1856">
        <ele>688.20001220703</ele>
        <time>2019-07-08T07:12:04Z</time>
      </trkpt>
      <trkpt lat="44.82657" lon="5.18562">
        <ele>688.59997558594</ele>
        <time>2019-07-08T07:12:05Z</time>
      </trkpt>
      <trkpt lat="44.82656" lon="5.18562">
        <ele>689</ele>
        <time>2019-07-08T07:12:06Z</time>
      </trkpt>
      <trkpt lat="44.82655" lon="5.18564">
        <ele>689</ele>
        <time>2019-07-08T07:12:07Z</time>
      </trkpt>
      <trkpt lat="44.82649" lon="5.18585">
        <ele>689</ele>
        <time>2019-07-08T07:12:13Z</time>
      </trkpt>
      <trkpt lat="44.82647" lon="5.18592">
        <ele>689.40002441406</ele>
        <time>2019-07-08T07:12:15Z</time>
      </trkpt>
      <trkpt lat="44.82646" lon="5.18596">
        <ele>689.79998779297</ele>
        <time>2019-07-08T07:12:16Z</time>
      </trkpt>
      <trkpt lat="44.82644" lon="5.18599">
        <ele>690.20001220703</ele>
        <time>2019-07-08T07:12:17Z</time>
      </trkpt>
      <trkpt lat="44.82642" lon="5.18603">
        <ele>690.59997558594</ele>
        <time>2019-07-08T07:12:18Z</time>
      </trkpt>
      <trkpt lat="44.8264" lon="5.18606">
        <ele>691</ele>
        <time>2019-07-08T07:12:19Z</time>
      </trkpt>
      <trkpt lat="44.82638" lon="5.18609">
        <ele>691</ele>
        <time>2019-07-08T07:12:20Z</time>
      </trkpt>
      <trkpt lat="44.82627" lon="5.18626">
        <ele>691</ele>
        <time>2019-07-08T07:12:26Z</time>
      </trkpt>
      <trkpt lat="44.82621" lon="5.1863">
        <ele>691.79998779297</ele>
        <time>2019-07-08T07:12:29Z</time>
      </trkpt>
      <trkpt lat="44.82619" lon="5.18631">
        <ele>692.40002441406</ele>
        <time>2019-07-08T07:12:30Z</time>
      </trkpt>
      <trkpt lat="44.82617" lon="5.18632">
        <ele>692.79998779297</ele>
        <time>2019-07-08T07:12:31Z</time>
      </trkpt>
      <trkpt lat="44.82615" lon="5.18633">
        <ele>693.20001220703</ele>
        <time>2019-07-08T07:12:32Z</time>
      </trkpt>
      <trkpt lat="44.826" lon="5.18633">
        <ele>693.59997558594</ele>
        <time>2019-07-08T07:12:39Z</time>
      </trkpt>
      <trkpt lat="44.82598" lon="5.18633">
        <ele>694</ele>
        <time>2019-07-08T07:12:40Z</time>
      </trkpt>
      <trkpt lat="44.82595" lon="5.18633">
        <ele>694.40002441406</ele>
        <time>2019-07-08T07:12:41Z</time>
      </trkpt>
      <trkpt lat="44.82593" lon="5.18633">
        <ele>694.79998779297</ele>
        <time>2019-07-08T07:12:42Z</time>
      </trkpt>
      <trkpt lat="44.8259" lon="5.18632">
        <ele>695.20001220703</ele>
        <time>2019-07-08T07:12:43Z</time>
      </trkpt>
      <trkpt lat="44.82585" lon="5.18633">
        <ele>695.20001220703</ele>
        <time>2019-07-08T07:12:45Z</time>
      </trkpt>
      <trkpt lat="44.8257" lon="5.1863">
        <ele>695.20001220703</ele>
        <time>2019-07-08T07:12:51Z</time>
      </trkpt>
      <trkpt lat="44.82566" lon="5.18629">
        <ele>695.79998779297</ele>
        <time>2019-07-08T07:12:53Z</time>
      </trkpt>
      <trkpt lat="44.82563" lon="5.18629">
        <ele>696.59997558594</ele>
        <time>2019-07-08T07:12:54Z</time>
      </trkpt>
      <trkpt lat="44.82561" lon="5.18629">
        <ele>697</ele>
        <time>2019-07-08T07:12:55Z</time>
      </trkpt>
      <trkpt lat="44.82558" lon="5.18629">
        <ele>697.40002441406</ele>
        <time>2019-07-08T07:12:56Z</time>
      </trkpt>
      <trkpt lat="44.82551" lon="5.18629">
        <ele>697.40002441406</ele>
        <time>2019-07-08T07:12:59Z</time>
      </trkpt>
      <trkpt lat="44.82536" lon="5.18629">
        <ele>697.79998779297</ele>
        <time>2019-07-08T07:13:05Z</time>
      </trkpt>
      <trkpt lat="44.82534" lon="5.18628">
        <ele>698.20001220703</ele>
        <time>2019-07-08T07:13:06Z</time>
      </trkpt>
      <trkpt lat="44.82531" lon="5.18628">
        <ele>698.79998779297</ele>
        <time>2019-07-08T07:13:07Z</time>
      </trkpt>
      <trkpt lat="44.82529" lon="5.18629">
        <ele>699.20001220703</ele>
        <time>2019-07-08T07:13:08Z</time>
      </trkpt>
      <trkpt lat="44.82526" lon="5.18629">
        <ele>699.59997558594</ele>
        <time>2019-07-08T07:13:09Z</time>
      </trkpt>
      <trkpt lat="44.82519" lon="5.18631">
        <ele>699.59997558594</ele>
        <time>2019-07-08T07:13:12Z</time>
      </trkpt>
      <trkpt lat="44.82507" lon="5.18634">
        <ele>700</ele>
        <time>2019-07-08T07:13:17Z</time>
      </trkpt>
      <trkpt lat="44.82504" lon="5.18634">
        <ele>700.40002441406</ele>
        <time>2019-07-08T07:13:18Z</time>
      </trkpt>
      <trkpt lat="44.82502" lon="5.18635">
        <ele>701.20001220703</ele>
        <time>2019-07-08T07:13:19Z</time>
      </trkpt>
      <trkpt lat="44.825" lon="5.18636">
        <ele>701.59997558594</ele>
        <time>2019-07-08T07:13:20Z</time>
      </trkpt>
      <trkpt lat="44.82483" lon="5.18634">
        <ele>701.59997558594</ele>
        <time>2019-07-08T07:13:26Z</time>
      </trkpt>
      <trkpt lat="44.82477" lon="5.18633">
        <ele>702</ele>
        <time>2019-07-08T07:13:28Z</time>
      </trkpt>
      <trkpt lat="44.82475" lon="5.18632">
        <ele>702.40002441406</ele>
        <time>2019-07-08T07:13:29Z</time>
      </trkpt>
      <trkpt lat="44.82472" lon="5.18632">
        <ele>702.79998779297</ele>
        <time>2019-07-08T07:13:30Z</time>
      </trkpt>
      <trkpt lat="44.82469" lon="5.18631">
        <ele>703.20001220703</ele>
        <time>2019-07-08T07:13:31Z</time>
      </trkpt>
      <trkpt lat="44.82466" lon="5.1863">
        <ele>703.59997558594</ele>
        <time>2019-07-08T07:13:32Z</time>
      </trkpt>
      <trkpt lat="44.82461" lon="5.18627">
        <ele>703.59997558594</ele>
        <time>2019-07-08T07:13:34Z</time>
      </trkpt>
      <trkpt lat="44.82448" lon="5.18617">
        <ele>703.59997558594</ele>
        <time>2019-07-08T07:13:40Z</time>
      </trkpt>
      <trkpt lat="44.82443" lon="5.18613">
        <ele>704</ele>
        <time>2019-07-08T07:13:42Z</time>
      </trkpt>
      <trkpt lat="44.8244" lon="5.18611">
        <ele>705</ele>
        <time>2019-07-08T07:13:43Z</time>
      </trkpt>
      <trkpt lat="44.82438" lon="5.18609">
        <ele>705.40002441406</ele>
        <time>2019-07-08T07:13:44Z</time>
      </trkpt>
      <trkpt lat="44.82436" lon="5.18607">
        <ele>705.79998779297</ele>
        <time>2019-07-08T07:13:45Z</time>
      </trkpt>
      <trkpt lat="44.82431" lon="5.18603">
        <ele>705.79998779297</ele>
        <time>2019-07-08T07:13:47Z</time>
      </trkpt>
      <trkpt lat="44.82416" lon="5.18591">
        <ele>706.20001220703</ele>
        <time>2019-07-08T07:13:53Z</time>
      </trkpt>
      <trkpt lat="44.82414" lon="5.18589">
        <ele>706.59997558594</ele>
        <time>2019-07-08T07:13:54Z</time>
      </trkpt>
      <trkpt lat="44.82412" lon="5.18587">
        <ele>707</ele>
        <time>2019-07-08T07:13:55Z</time>
      </trkpt>
      <trkpt lat="44.8241" lon="5.18586">
        <ele>707.40002441406</ele>
        <time>2019-07-08T07:13:56Z</time>
      </trkpt>
      <trkpt lat="44.82408" lon="5.18584">
        <ele>707.79998779297</ele>
        <time>2019-07-08T07:13:57Z</time>
      </trkpt>
      <trkpt lat="44.82404" lon="5.1858">
        <ele>707.79998779297</ele>
        <time>2019-07-08T07:13:59Z</time>
      </trkpt>
      <trkpt lat="44.82386" lon="5.18574">
        <ele>708.20001220703</ele>
        <time>2019-07-08T07:14:06Z</time>
      </trkpt>
      <trkpt lat="44.82383" lon="5.18574">
        <ele>708.59997558594</ele>
        <time>2019-07-08T07:14:07Z</time>
      </trkpt>
      <trkpt lat="44.82381" lon="5.18573">
        <ele>709.40002441406</ele>
        <time>2019-07-08T07:14:08Z</time>
      </trkpt>
      <trkpt lat="44.82378" lon="5.18572">
        <ele>709.79998779297</ele>
        <time>2019-07-08T07:14:09Z</time>
      </trkpt>
      <trkpt lat="44.82364" lon="5.18568">
        <ele>709.79998779297</ele>
        <time>2019-07-08T07:14:14Z</time>
      </trkpt>
      <trkpt lat="44.82359" lon="5.18568">
        <ele>710.40002441406</ele>
        <time>2019-07-08T07:14:16Z</time>
      </trkpt>
      <trkpt lat="44.82356" lon="5.18568">
        <ele>710.79998779297</ele>
        <time>2019-07-08T07:14:17Z</time>
      </trkpt>
      <trkpt lat="44.82353" lon="5.18567">
        <ele>711.20001220703</ele>
        <time>2019-07-08T07:14:18Z</time>
      </trkpt>
      <trkpt lat="44.8235" lon="5.18567">
        <ele>711.59997558594</ele>
        <time>2019-07-08T07:14:19Z</time>
      </trkpt>
      <trkpt lat="44.82347" lon="5.18567">
        <ele>712</ele>
        <time>2019-07-08T07:14:20Z</time>
      </trkpt>
      <trkpt lat="44.82344" lon="5.18567">
        <ele>712</ele>
        <time>2019-07-08T07:14:21Z</time>
      </trkpt>
      <trkpt lat="44.82329" lon="5.1856">
        <ele>712</ele>
        <time>2019-07-08T07:14:27Z</time>
      </trkpt>
      <trkpt lat="44.82327" lon="5.18557">
        <ele>712.40002441406</ele>
        <time>2019-07-08T07:14:28Z</time>
      </trkpt>
      <trkpt lat="44.82325" lon="5.18554">
        <ele>712.79998779297</ele>
        <time>2019-07-08T07:14:29Z</time>
      </trkpt>
      <trkpt lat="44.82323" lon="5.18551">
        <ele>713.20001220703</ele>
        <time>2019-07-08T07:14:30Z</time>
      </trkpt>
      <trkpt lat="44.8232" lon="5.18548">
        <ele>713.59997558594</ele>
        <time>2019-07-08T07:14:31Z</time>
      </trkpt>
      <trkpt lat="44.82319" lon="5.18545">
        <ele>714</ele>
        <time>2019-07-08T07:14:32Z</time>
      </trkpt>
      <trkpt lat="44.82312" lon="5.18536">
        <ele>714</ele>
        <time>2019-07-08T07:14:35Z</time>
      </trkpt>
      <trkpt lat="44.82301" lon="5.1853">
        <ele>714.40002441406</ele>
        <time>2019-07-08T07:14:39Z</time>
      </trkpt>
      <trkpt lat="44.82299" lon="5.18529">
        <ele>714.79998779297</ele>
        <time>2019-07-08T07:14:40Z</time>
      </trkpt>
      <trkpt lat="44.82296" lon="5.18529">
        <ele>715.20001220703</ele>
        <time>2019-07-08T07:14:41Z</time>
      </trkpt>
      <trkpt lat="44.82294" lon="5.18528">
        <ele>715.59997558594</ele>
        <time>2019-07-08T07:14:42Z</time>
      </trkpt>
      <trkpt lat="44.82291" lon="5.18527">
        <ele>716</ele>
        <time>2019-07-08T07:14:43Z</time>
      </trkpt>
      <trkpt lat="44.82283" lon="5.18525">
        <ele>716</ele>
        <time>2019-07-08T07:14:46Z</time>
      </trkpt>
      <trkpt lat="44.82269" lon="5.18521">
        <ele>716.40002441406</ele>
        <time>2019-07-08T07:14:51Z</time>
      </trkpt>
      <trkpt lat="44.82267" lon="5.1852">
        <ele>716.79998779297</ele>
        <time>2019-07-08T07:14:52Z</time>
      </trkpt>
      <trkpt lat="44.82264" lon="5.1852">
        <ele>717.40002441406</ele>
        <time>2019-07-08T07:14:53Z</time>
      </trkpt>
      <trkpt lat="44.82261" lon="5.18519">
        <ele>717.79998779297</ele>
        <time>2019-07-08T07:14:54Z</time>
      </trkpt>
      <trkpt lat="44.82258" lon="5.18518">
        <ele>718.20001220703</ele>
        <time>2019-07-08T07:14:55Z</time>
      </trkpt>
      <trkpt lat="44.82244" lon="5.18515">
        <ele>718.20001220703</ele>
        <time>2019-07-08T07:15:00Z</time>
      </trkpt>
      <trkpt lat="44.8223" lon="5.18513">
        <ele>718.59997558594</ele>
        <time>2019-07-08T07:15:05Z</time>
      </trkpt>
      <trkpt lat="44.82227" lon="5.18513">
        <ele>719</ele>
        <time>2019-07-08T07:15:06Z</time>
      </trkpt>
      <trkpt lat="44.82225" lon="5.18513">
        <ele>719.40002441406</ele>
        <time>2019-07-08T07:15:07Z</time>
      </trkpt>
      <trkpt lat="44.82222" lon="5.18513">
        <ele>720</ele>
        <time>2019-07-08T07:15:08Z</time>
      </trkpt>
      <trkpt lat="44.82219" lon="5.18512">
        <ele>720.40002441406</ele>
        <time>2019-07-08T07:15:09Z</time>
      </trkpt>
      <trkpt lat="44.82202" lon="5.18512">
        <ele>720.40002441406</ele>
        <time>2019-07-08T07:15:15Z</time>
      </trkpt>
      <trkpt lat="44.82194" lon="5.18512">
        <ele>720.79998779297</ele>
        <time>2019-07-08T07:15:18Z</time>
      </trkpt>
      <trkpt lat="44.82191" lon="5.18512">
        <ele>721.20001220703</ele>
        <time>2019-07-08T07:15:19Z</time>
      </trkpt>
      <trkpt lat="44.82188" lon="5.18512">
        <ele>721.59997558594</ele>
        <time>2019-07-08T07:15:20Z</time>
      </trkpt>
      <trkpt lat="44.82185" lon="5.18513">
        <ele>722</ele>
        <time>2019-07-08T07:15:21Z</time>
      </trkpt>
      <trkpt lat="44.82183" lon="5.18512">
        <ele>722.59997558594</ele>
        <time>2019-07-08T07:15:22Z</time>
      </trkpt>
      <trkpt lat="44.8218" lon="5.18512">
        <ele>722.59997558594</ele>
        <time>2019-07-08T07:15:23Z</time>
      </trkpt>
      <trkpt lat="44.82161" lon="5.18507">
        <ele>723</ele>
        <time>2019-07-08T07:15:30Z</time>
      </trkpt>
      <trkpt lat="44.82158" lon="5.18506">
        <ele>723.40002441406</ele>
        <time>2019-07-08T07:15:31Z</time>
      </trkpt>
      <trkpt lat="44.82156" lon="5.18505">
        <ele>723.79998779297</ele>
        <time>2019-07-08T07:15:32Z</time>
      </trkpt>
      <trkpt lat="44.82154" lon="5.18504">
        <ele>724.20001220703</ele>
        <time>2019-07-08T07:15:33Z</time>
      </trkpt>
      <trkpt lat="44.82151" lon="5.18504">
        <ele>724.59997558594</ele>
        <time>2019-07-08T07:15:34Z</time>
      </trkpt>
      <trkpt lat="44.82144" lon="5.18501">
        <ele>724.59997558594</ele>
        <time>2019-07-08T07:15:37Z</time>
      </trkpt>
      <trkpt lat="44.82133" lon="5.18497">
        <ele>725</ele>
        <time>2019-07-08T07:15:41Z</time>
      </trkpt>
      <trkpt lat="44.82131" lon="5.18496">
        <ele>725.59997558594</ele>
        <time>2019-07-08T07:15:42Z</time>
      </trkpt>
      <trkpt lat="44.82128" lon="5.18494">
        <ele>726</ele>
        <time>2019-07-08T07:15:43Z</time>
      </trkpt>
      <trkpt lat="44.82126" lon="5.18493">
        <ele>726.40002441406</ele>
        <time>2019-07-08T07:15:44Z</time>
      </trkpt>
      <trkpt lat="44.82123" lon="5.18491">
        <ele>726.79998779297</ele>
        <time>2019-07-08T07:15:45Z</time>
      </trkpt>
      <trkpt lat="44.8211" lon="5.18478">
        <ele>727.20001220703</ele>
        <time>2019-07-08T07:15:51Z</time>
      </trkpt>
      <trkpt lat="44.82108" lon="5.18475">
        <ele>727.59997558594</ele>
        <time>2019-07-08T07:15:52Z</time>
      </trkpt>
      <trkpt lat="44.82106" lon="5.18472">
        <ele>728</ele>
        <time>2019-07-08T07:15:53Z</time>
      </trkpt>
      <trkpt lat="44.82104" lon="5.18469">
        <ele>728.40002441406</ele>
        <time>2019-07-08T07:15:54Z</time>
      </trkpt>
      <trkpt lat="44.82102" lon="5.18467">
        <ele>728.79998779297</ele>
        <time>2019-07-08T07:15:55Z</time>
      </trkpt>
      <trkpt lat="44.82096" lon="5.18458">
        <ele>728.79998779297</ele>
        <time>2019-07-08T07:15:58Z</time>
      </trkpt>
      <trkpt lat="44.82082" lon="5.18429">
        <ele>728.79998779297</ele>
        <time>2019-07-08T07:16:05Z</time>
      </trkpt>
      <trkpt lat="44.82078" lon="5.1842">
        <ele>729.40002441406</ele>
        <time>2019-07-08T07:16:07Z</time>
      </trkpt>
      <trkpt lat="44.82077" lon="5.18415">
        <ele>729.79998779297</ele>
        <time>2019-07-08T07:16:08Z</time>
      </trkpt>
      <trkpt lat="44.82075" lon="5.1841">
        <ele>730.20001220703</ele>
        <time>2019-07-08T07:16:09Z</time>
      </trkpt>
      <trkpt lat="44.82074" lon="5.18404">
        <ele>730.59997558594</ele>
        <time>2019-07-08T07:16:10Z</time>
      </trkpt>
      <trkpt lat="44.82073" lon="5.18399">
        <ele>731</ele>
        <time>2019-07-08T07:16:11Z</time>
      </trkpt>
      <trkpt lat="44.82071" lon="5.18394">
        <ele>731</ele>
        <time>2019-07-08T07:16:12Z</time>
      </trkpt>
      <trkpt lat="44.82058" lon="5.1837">
        <ele>731</ele>
        <time>2019-07-08T07:16:17Z</time>
      </trkpt>
      <trkpt lat="44.82038" lon="5.18355">
        <ele>731</ele>
        <time>2019-07-08T07:16:22Z</time>
      </trkpt>
      <trkpt lat="44.82035" lon="5.18352">
        <ele>731</ele>
        <time>2019-07-08T07:16:23Z</time>
      </trkpt>
      <trkpt lat="44.82026" lon="5.18338">
        <ele>731</ele>
        <time>2019-07-08T07:16:26Z</time>
      </trkpt>
      <trkpt lat="44.82024" lon="5.18333">
        <ele>731</ele>
        <time>2019-07-08T07:16:27Z</time>
      </trkpt>
      <trkpt lat="44.82013" lon="5.18318">
        <ele>731</ele>
        <time>2019-07-08T07:16:31Z</time>
      </trkpt>
      <trkpt lat="44.81998" lon="5.183">
        <ele>731</ele>
        <time>2019-07-08T07:16:37Z</time>
      </trkpt>
      <trkpt lat="44.81981" lon="5.18291">
        <ele>731</ele>
        <time>2019-07-08T07:16:42Z</time>
      </trkpt>
      <trkpt lat="44.81962" lon="5.18284">
        <ele>731</ele>
        <time>2019-07-08T07:16:47Z</time>
      </trkpt>
      <trkpt lat="44.81936" lon="5.18267">
        <ele>731.40002441406</ele>
        <time>2019-07-08T07:16:54Z</time>
      </trkpt>
      <trkpt lat="44.81932" lon="5.18265">
        <ele>731.79998779297</ele>
        <time>2019-07-08T07:16:55Z</time>
      </trkpt>
      <trkpt lat="44.81928" lon="5.18262">
        <ele>732.20001220703</ele>
        <time>2019-07-08T07:16:56Z</time>
      </trkpt>
      <trkpt lat="44.81924" lon="5.18259">
        <ele>732.59997558594</ele>
        <time>2019-07-08T07:16:57Z</time>
      </trkpt>
      <trkpt lat="44.81921" lon="5.18255">
        <ele>733</ele>
        <time>2019-07-08T07:16:58Z</time>
      </trkpt>
      <trkpt lat="44.81917" lon="5.1825">
        <ele>733</ele>
        <time>2019-07-08T07:16:59Z</time>
      </trkpt>
      <trkpt lat="44.81911" lon="5.18241">
        <ele>733</ele>
        <time>2019-07-08T07:17:01Z</time>
      </trkpt>
      <trkpt lat="44.81901" lon="5.18213">
        <ele>733</ele>
        <time>2019-07-08T07:17:06Z</time>
      </trkpt>
      <trkpt lat="44.81883" lon="5.18165">
        <ele>733</ele>
        <time>2019-07-08T07:17:14Z</time>
      </trkpt>
      <trkpt lat="44.81882" lon="5.18158">
        <ele>733</ele>
        <time>2019-07-08T07:17:15Z</time>
      </trkpt>
      <trkpt lat="44.81874" lon="5.18126">
        <ele>733</ele>
        <time>2019-07-08T07:17:20Z</time>
      </trkpt>
      <trkpt lat="44.81861" lon="5.1809">
        <ele>733</ele>
        <time>2019-07-08T07:17:26Z</time>
      </trkpt>
      <trkpt lat="44.81854" lon="5.1808">
        <ele>733</ele>
        <time>2019-07-08T07:17:28Z</time>
      </trkpt>
      <trkpt lat="44.81847" lon="5.1807">
        <ele>733</ele>
        <time>2019-07-08T07:17:30Z</time>
      </trkpt>
      <trkpt lat="44.8184" lon="5.1806">
        <ele>733</ele>
        <time>2019-07-08T07:17:32Z</time>
      </trkpt>
      <trkpt lat="44.81822" lon="5.18034">
        <ele>733.40002441406</ele>
        <time>2019-07-08T07:17:37Z</time>
      </trkpt>
      <trkpt lat="44.81818" lon="5.18029">
        <ele>733.79998779297</ele>
        <time>2019-07-08T07:17:38Z</time>
      </trkpt>
      <trkpt lat="44.81815" lon="5.18024">
        <ele>734.20001220703</ele>
        <time>2019-07-08T07:17:39Z</time>
      </trkpt>
      <trkpt lat="44.81811" lon="5.18019">
        <ele>734.59997558594</ele>
        <time>2019-07-08T07:17:40Z</time>
      </trkpt>
      <trkpt lat="44.81808" lon="5.18014">
        <ele>735</ele>
        <time>2019-07-08T07:17:41Z</time>
      </trkpt>
      <trkpt lat="44.8179" lon="5.17978">
        <ele>735</ele>
        <time>2019-07-08T07:17:47Z</time>
      </trkpt>
      <trkpt lat="44.81788" lon="5.17971">
        <ele>735</ele>
        <time>2019-07-08T07:17:48Z</time>
      </trkpt>
      <trkpt lat="44.81787" lon="5.17964">
        <ele>735</ele>
        <time>2019-07-08T07:17:49Z</time>
      </trkpt>
      <trkpt lat="44.81785" lon="5.17941">
        <ele>735</ele>
        <time>2019-07-08T07:17:52Z</time>
      </trkpt>
      <trkpt lat="44.8179" lon="5.17919">
        <ele>735</ele>
        <time>2019-07-08T07:17:55Z</time>
      </trkpt>
      <trkpt lat="44.81794" lon="5.17904">
        <ele>735</ele>
        <time>2019-07-08T07:17:57Z</time>
      </trkpt>
      <trkpt lat="44.81803" lon="5.17867">
        <ele>735</ele>
        <time>2019-07-08T07:18:02Z</time>
      </trkpt>
      <trkpt lat="44.81804" lon="5.17852">
        <ele>735</ele>
        <time>2019-07-08T07:18:04Z</time>
      </trkpt>
      <trkpt lat="44.81797" lon="5.1783">
        <ele>735</ele>
        <time>2019-07-08T07:18:07Z</time>
      </trkpt>
      <trkpt lat="44.81786" lon="5.17811">
        <ele>735</ele>
        <time>2019-07-08T07:18:10Z</time>
      </trkpt>
      <trkpt lat="44.81777" lon="5.178">
        <ele>735</ele>
        <time>2019-07-08T07:18:12Z</time>
      </trkpt>
      <trkpt lat="44.81759" lon="5.17777">
        <ele>735</ele>
        <time>2019-07-08T07:18:16Z</time>
      </trkpt>
      <trkpt lat="44.81753" lon="5.17764">
        <ele>735</ele>
        <time>2019-07-08T07:18:18Z</time>
      </trkpt>
      <trkpt lat="44.81753" lon="5.1774">
        <ele>735</ele>
        <time>2019-07-08T07:18:21Z</time>
      </trkpt>
      <trkpt lat="44.81753" lon="5.17732">
        <ele>735</ele>
        <time>2019-07-08T07:18:22Z</time>
      </trkpt>
      <trkpt lat="44.8175" lon="5.17698">
        <ele>735</ele>
        <time>2019-07-08T07:18:26Z</time>
      </trkpt>
      <trkpt lat="44.81749" lon="5.17689">
        <ele>735</ele>
        <time>2019-07-08T07:18:27Z</time>
      </trkpt>
      <trkpt lat="44.81733" lon="5.17639">
        <ele>735</ele>
        <time>2019-07-08T07:18:33Z</time>
      </trkpt>
      <trkpt lat="44.81722" lon="5.17615">
        <ele>735</ele>
        <time>2019-07-08T07:18:36Z</time>
      </trkpt>
      <trkpt lat="44.81712" lon="5.17603">
        <ele>735</ele>
        <time>2019-07-08T07:18:38Z</time>
      </trkpt>
      <trkpt lat="44.81686" lon="5.1759">
        <ele>735</ele>
        <time>2019-07-08T07:18:42Z</time>
      </trkpt>
      <trkpt lat="44.8168" lon="5.17586">
        <ele>735</ele>
        <time>2019-07-08T07:18:43Z</time>
      </trkpt>
      <trkpt lat="44.81665" lon="5.17567">
        <ele>735</ele>
        <time>2019-07-08T07:18:46Z</time>
      </trkpt>
      <trkpt lat="44.81656" lon="5.17542">
        <ele>735</ele>
        <time>2019-07-08T07:18:49Z</time>
      </trkpt>
      <trkpt lat="44.81654" lon="5.17533">
        <ele>735</ele>
        <time>2019-07-08T07:18:50Z</time>
      </trkpt>
      <trkpt lat="44.81637" lon="5.17467">
        <ele>735</ele>
        <time>2019-07-08T07:18:58Z</time>
      </trkpt>
      <trkpt lat="44.81629" lon="5.17444">
        <ele>735</ele>
        <time>2019-07-08T07:19:01Z</time>
      </trkpt>
      <trkpt lat="44.81619" lon="5.17432">
        <ele>735</ele>
        <time>2019-07-08T07:19:03Z</time>
      </trkpt>
      <trkpt lat="44.81608" lon="5.17423">
        <ele>735</ele>
        <time>2019-07-08T07:19:05Z</time>
      </trkpt>
      <trkpt lat="44.81596" lon="5.17417">
        <ele>735</ele>
        <time>2019-07-08T07:19:07Z</time>
      </trkpt>
      <trkpt lat="44.81577" lon="5.1742">
        <ele>735</ele>
        <time>2019-07-08T07:19:10Z</time>
      </trkpt>
      <trkpt lat="44.8157" lon="5.17422">
        <ele>735</ele>
        <time>2019-07-08T07:19:11Z</time>
      </trkpt>
      <trkpt lat="44.81526" lon="5.17434">
        <ele>735</ele>
        <time>2019-07-08T07:19:18Z</time>
      </trkpt>
      <trkpt lat="44.81496" lon="5.17441">
        <ele>734.59997558594</ele>
        <time>2019-07-08T07:19:23Z</time>
      </trkpt>
      <trkpt lat="44.8149" lon="5.17441">
        <ele>734.20001220703</ele>
        <time>2019-07-08T07:19:24Z</time>
      </trkpt>
      <trkpt lat="44.81484" lon="5.17442">
        <ele>733.79998779297</ele>
        <time>2019-07-08T07:19:25Z</time>
      </trkpt>
      <trkpt lat="44.81478" lon="5.17441">
        <ele>733.40002441406</ele>
        <time>2019-07-08T07:19:26Z</time>
      </trkpt>
      <trkpt lat="44.81473" lon="5.1744">
        <ele>733</ele>
        <time>2019-07-08T07:19:27Z</time>
      </trkpt>
      <trkpt lat="44.81462" lon="5.17436">
        <ele>733</ele>
        <time>2019-07-08T07:19:29Z</time>
      </trkpt>
      <trkpt lat="44.81444" lon="5.1742">
        <ele>733</ele>
        <time>2019-07-08T07:19:33Z</time>
      </trkpt>
      <trkpt lat="44.8144" lon="5.17415">
        <ele>733</ele>
        <time>2019-07-08T07:19:34Z</time>
      </trkpt>
      <trkpt lat="44.81433" lon="5.17402">
        <ele>733</ele>
        <time>2019-07-08T07:19:36Z</time>
      </trkpt>
      <trkpt lat="44.81426" lon="5.17382">
        <ele>733</ele>
        <time>2019-07-08T07:19:39Z</time>
      </trkpt>
      <trkpt lat="44.81425" lon="5.17375">
        <ele>733</ele>
        <time>2019-07-08T07:19:40Z</time>
      </trkpt>
      <trkpt lat="44.81424" lon="5.17361">
        <ele>733</ele>
        <time>2019-07-08T07:19:42Z</time>
      </trkpt>
      <trkpt lat="44.81424" lon="5.17339">
        <ele>733</ele>
        <time>2019-07-08T07:19:45Z</time>
      </trkpt>
      <trkpt lat="44.81423" lon="5.17316">
        <ele>733</ele>
        <time>2019-07-08T07:19:48Z</time>
      </trkpt>
      <trkpt lat="44.81417" lon="5.17294">
        <ele>733</ele>
        <time>2019-07-08T07:19:51Z</time>
      </trkpt>
      <trkpt lat="44.81415" lon="5.17287">
        <ele>733</ele>
        <time>2019-07-08T07:19:52Z</time>
      </trkpt>
      <trkpt lat="44.8141" lon="5.17272">
        <ele>733</ele>
        <time>2019-07-08T07:19:54Z</time>
      </trkpt>
      <trkpt lat="44.81397" lon="5.17245">
        <ele>733</ele>
        <time>2019-07-08T07:19:58Z</time>
      </trkpt>
      <trkpt lat="44.81376" lon="5.17215">
        <ele>733</ele>
        <time>2019-07-08T07:20:03Z</time>
      </trkpt>
      <trkpt lat="44.81371" lon="5.17211">
        <ele>733</ele>
        <time>2019-07-08T07:20:04Z</time>
      </trkpt>
      <trkpt lat="44.81349" lon="5.17208">
        <ele>733</ele>
        <time>2019-07-08T07:20:08Z</time>
      </trkpt>
      <trkpt lat="44.81344" lon="5.17208">
        <ele>733</ele>
        <time>2019-07-08T07:20:09Z</time>
      </trkpt>
      <trkpt lat="44.81334" lon="5.17209">
        <ele>733</ele>
        <time>2019-07-08T07:20:11Z</time>
      </trkpt>
      <trkpt lat="44.8132" lon="5.17213">
        <ele>733</ele>
        <time>2019-07-08T07:20:14Z</time>
      </trkpt>
      <trkpt lat="44.81306" lon="5.17221">
        <ele>733</ele>
        <time>2019-07-08T07:20:17Z</time>
      </trkpt>
      <trkpt lat="44.81291" lon="5.1723">
        <ele>733</ele>
        <time>2019-07-08T07:20:20Z</time>
      </trkpt>
      <trkpt lat="44.81277" lon="5.17237">
        <ele>733</ele>
        <time>2019-07-08T07:20:23Z</time>
      </trkpt>
      <trkpt lat="44.81262" lon="5.17237">
        <ele>733</ele>
        <time>2019-07-08T07:20:26Z</time>
      </trkpt>
      <trkpt lat="44.8125" lon="5.17234">
        <ele>733</ele>
        <time>2019-07-08T07:20:28Z</time>
      </trkpt>
      <trkpt lat="44.81241" lon="5.17225">
        <ele>733</ele>
        <time>2019-07-08T07:20:30Z</time>
      </trkpt>
      <trkpt lat="44.81234" lon="5.17202">
        <ele>732.40002441406</ele>
        <time>2019-07-08T07:20:33Z</time>
      </trkpt>
      <trkpt lat="44.81233" lon="5.17194">
        <ele>732</ele>
        <time>2019-07-08T07:20:34Z</time>
      </trkpt>
      <trkpt lat="44.81233" lon="5.17184">
        <ele>731.59997558594</ele>
        <time>2019-07-08T07:20:35Z</time>
      </trkpt>
      <trkpt lat="44.81232" lon="5.17175">
        <ele>731.20001220703</ele>
        <time>2019-07-08T07:20:36Z</time>
      </trkpt>
      <trkpt lat="44.81232" lon="5.17164">
        <ele>730.59997558594</ele>
        <time>2019-07-08T07:20:37Z</time>
      </trkpt>
      <trkpt lat="44.81231" lon="5.17154">
        <ele>730.59997558594</ele>
        <time>2019-07-08T07:20:38Z</time>
      </trkpt>
      <trkpt lat="44.81232" lon="5.17142">
        <ele>730.59997558594</ele>
        <time>2019-07-08T07:20:39Z</time>
      </trkpt>
      <trkpt lat="44.81232" lon="5.17131">
        <ele>730.20001220703</ele>
        <time>2019-07-08T07:20:40Z</time>
      </trkpt>
      <trkpt lat="44.81232" lon="5.17119">
        <ele>729.59997558594</ele>
        <time>2019-07-08T07:20:41Z</time>
      </trkpt>
      <trkpt lat="44.81231" lon="5.17107">
        <ele>729.20001220703</ele>
        <time>2019-07-08T07:20:42Z</time>
      </trkpt>
      <trkpt lat="44.8123" lon="5.17094">
        <ele>728.59997558594</ele>
        <time>2019-07-08T07:20:43Z</time>
      </trkpt>
      <trkpt lat="44.81228" lon="5.17081">
        <ele>727.79998779297</ele>
        <time>2019-07-08T07:20:44Z</time>
      </trkpt>
      <trkpt lat="44.81226" lon="5.17069">
        <ele>727.20001220703</ele>
        <time>2019-07-08T07:20:45Z</time>
      </trkpt>
      <trkpt lat="44.81225" lon="5.17056">
        <ele>726.79998779297</ele>
        <time>2019-07-08T07:20:46Z</time>
      </trkpt>
      <trkpt lat="44.81223" lon="5.17043">
        <ele>726.40002441406</ele>
        <time>2019-07-08T07:20:47Z</time>
      </trkpt>
      <trkpt lat="44.8122" lon="5.1703">
        <ele>725.79998779297</ele>
        <time>2019-07-08T07:20:48Z</time>
      </trkpt>
      <trkpt lat="44.81216" lon="5.17017">
        <ele>725.40002441406</ele>
        <time>2019-07-08T07:20:49Z</time>
      </trkpt>
      <trkpt lat="44.8121" lon="5.17004">
        <ele>724.79998779297</ele>
        <time>2019-07-08T07:20:50Z</time>
      </trkpt>
      <trkpt lat="44.81203" lon="5.16994">
        <ele>724.20001220703</ele>
        <time>2019-07-08T07:20:51Z</time>
      </trkpt>
      <trkpt lat="44.81195" lon="5.16985">
        <ele>723.79998779297</ele>
        <time>2019-07-08T07:20:52Z</time>
      </trkpt>
      <trkpt lat="44.81187" lon="5.16976">
        <ele>723.20001220703</ele>
        <time>2019-07-08T07:20:53Z</time>
      </trkpt>
      <trkpt lat="44.81179" lon="5.16966">
        <ele>722.79998779297</ele>
        <time>2019-07-08T07:20:54Z</time>
      </trkpt>
      <trkpt lat="44.81171" lon="5.16956">
        <ele>722</ele>
        <time>2019-07-08T07:20:55Z</time>
      </trkpt>
      <trkpt lat="44.81163" lon="5.16946">
        <ele>721.40002441406</ele>
        <time>2019-07-08T07:20:56Z</time>
      </trkpt>
      <trkpt lat="44.81155" lon="5.16936">
        <ele>720.59997558594</ele>
        <time>2019-07-08T07:20:57Z</time>
      </trkpt>
      <trkpt lat="44.81146" lon="5.16925">
        <ele>720</ele>
        <time>2019-07-08T07:20:58Z</time>
      </trkpt>
      <trkpt lat="44.81138" lon="5.16914">
        <ele>719.20001220703</ele>
        <time>2019-07-08T07:20:59Z</time>
      </trkpt>
      <trkpt lat="44.81129" lon="5.16904">
        <ele>718.59997558594</ele>
        <time>2019-07-08T07:21:00Z</time>
      </trkpt>
      <trkpt lat="44.8112" lon="5.16894">
        <ele>717.79998779297</ele>
        <time>2019-07-08T07:21:01Z</time>
      </trkpt>
      <trkpt lat="44.81112" lon="5.16883">
        <ele>717.20001220703</ele>
        <time>2019-07-08T07:21:02Z</time>
      </trkpt>
      <trkpt lat="44.81102" lon="5.16873">
        <ele>716.40002441406</ele>
        <time>2019-07-08T07:21:03Z</time>
      </trkpt>
      <trkpt lat="44.81094" lon="5.16863">
        <ele>715.59997558594</ele>
        <time>2019-07-08T07:21:04Z</time>
      </trkpt>
      <trkpt lat="44.81086" lon="5.16853">
        <ele>714.79998779297</ele>
        <time>2019-07-08T07:21:05Z</time>
      </trkpt>
      <trkpt lat="44.81078" lon="5.16844">
        <ele>714</ele>
        <time>2019-07-08T07:21:06Z</time>
      </trkpt>
      <trkpt lat="44.81071" lon="5.16835">
        <ele>713.20001220703</ele>
        <time>2019-07-08T07:21:07Z</time>
      </trkpt>
      <trkpt lat="44.81065" lon="5.16827">
        <ele>712.40002441406</ele>
        <time>2019-07-08T07:21:08Z</time>
      </trkpt>
      <trkpt lat="44.81059" lon="5.1682">
        <ele>710.79998779297</ele>
        <time>2019-07-08T07:21:09Z</time>
      </trkpt>
      <trkpt lat="44.81053" lon="5.16813">
        <ele>710</ele>
        <time>2019-07-08T07:21:10Z</time>
      </trkpt>
      <trkpt lat="44.81048" lon="5.16806">
        <ele>709.40002441406</ele>
        <time>2019-07-08T07:21:11Z</time>
      </trkpt>
      <trkpt lat="44.81042" lon="5.16799">
        <ele>708.79998779297</ele>
        <time>2019-07-08T07:21:12Z</time>
      </trkpt>
      <trkpt lat="44.81036" lon="5.16792">
        <ele>708.20001220703</ele>
        <time>2019-07-08T07:21:13Z</time>
      </trkpt>
      <trkpt lat="44.8103" lon="5.16785">
        <ele>707.59997558594</ele>
        <time>2019-07-08T07:21:14Z</time>
      </trkpt>
      <trkpt lat="44.81024" lon="5.16778">
        <ele>707</ele>
        <time>2019-07-08T07:21:15Z</time>
      </trkpt>
      <trkpt lat="44.81017" lon="5.16774">
        <ele>706.40002441406</ele>
        <time>2019-07-08T07:21:16Z</time>
      </trkpt>
      <trkpt lat="44.81009" lon="5.16774">
        <ele>706</ele>
        <time>2019-07-08T07:21:17Z</time>
      </trkpt>
      <trkpt lat="44.81002" lon="5.16777">
        <ele>705.40002441406</ele>
        <time>2019-07-08T07:21:18Z</time>
      </trkpt>
      <trkpt lat="44.80994" lon="5.16778">
        <ele>704.79998779297</ele>
        <time>2019-07-08T07:21:19Z</time>
      </trkpt>
      <trkpt lat="44.80987" lon="5.16775">
        <ele>704.79998779297</ele>
        <time>2019-07-08T07:21:20Z</time>
      </trkpt>
      <trkpt lat="44.80971" lon="5.16762">
        <ele>704.79998779297</ele>
        <time>2019-07-08T07:21:23Z</time>
      </trkpt>
      <trkpt lat="44.80967" lon="5.16759">
        <ele>704.79998779297</ele>
        <time>2019-07-08T07:21:24Z</time>
      </trkpt>
      <trkpt lat="44.80964" lon="5.16754">
        <ele>704.79998779297</ele>
        <time>2019-07-08T07:21:26Z</time>
      </trkpt>
      <trkpt lat="44.80959" lon="5.16738">
        <ele>704.79998779297</ele>
        <time>2019-07-08T07:21:30Z</time>
      </trkpt>
      <trkpt lat="44.80945" lon="5.16717">
        <ele>704.79998779297</ele>
        <time>2019-07-08T07:21:36Z</time>
      </trkpt>
      <trkpt lat="44.80922" lon="5.167">
        <ele>704.79998779297</ele>
        <time>2019-07-08T07:21:43Z</time>
      </trkpt>
      <trkpt lat="44.80906" lon="5.16686">
        <ele>704.79998779297</ele>
        <time>2019-07-08T07:21:49Z</time>
      </trkpt>
      <trkpt lat="44.80893" lon="5.1667">
        <ele>704.79998779297</ele>
        <time>2019-07-08T07:21:54Z</time>
      </trkpt>
      <trkpt lat="44.80874" lon="5.16648">
        <ele>704.79998779297</ele>
        <time>2019-07-08T07:22:00Z</time>
      </trkpt>
      <trkpt lat="44.80851" lon="5.16619">
        <ele>704.79998779297</ele>
        <time>2019-07-08T07:22:06Z</time>
      </trkpt>
      <trkpt lat="44.80837" lon="5.16601">
        <ele>704.79998779297</ele>
        <time>2019-07-08T07:22:10Z</time>
      </trkpt>
      <trkpt lat="44.80834" lon="5.16597">
        <ele>704.79998779297</ele>
        <time>2019-07-08T07:22:11Z</time>
      </trkpt>
      <trkpt lat="44.80819" lon="5.16576">
        <ele>704.79998779297</ele>
        <time>2019-07-08T07:22:16Z</time>
      </trkpt>
      <trkpt lat="44.80794" lon="5.1655">
        <ele>704.79998779297</ele>
        <time>2019-07-08T07:22:22Z</time>
      </trkpt>
      <trkpt lat="44.80767" lon="5.16517">
        <ele>704.79998779297</ele>
        <time>2019-07-08T07:22:29Z</time>
      </trkpt>
      <trkpt lat="44.8076" lon="5.16509">
        <ele>704.79998779297</ele>
        <time>2019-07-08T07:22:31Z</time>
      </trkpt>
      <trkpt lat="44.80747" lon="5.16493">
        <ele>704.79998779297</ele>
        <time>2019-07-08T07:22:35Z</time>
      </trkpt>
      <trkpt lat="44.80744" lon="5.16489">
        <ele>704.79998779297</ele>
        <time>2019-07-08T07:22:36Z</time>
      </trkpt>
      <trkpt lat="44.80729" lon="5.16471">
        <ele>705.20001220703</ele>
        <time>2019-07-08T07:22:41Z</time>
      </trkpt>
      <trkpt lat="44.80726" lon="5.16469">
        <ele>705.79998779297</ele>
        <time>2019-07-08T07:22:42Z</time>
      </trkpt>
      <trkpt lat="44.80723" lon="5.16466">
        <ele>706.20001220703</ele>
        <time>2019-07-08T07:22:43Z</time>
      </trkpt>
      <trkpt lat="44.8072" lon="5.16462">
        <ele>706.59997558594</ele>
        <time>2019-07-08T07:22:44Z</time>
      </trkpt>
      <trkpt lat="44.80718" lon="5.16459">
        <ele>707</ele>
        <time>2019-07-08T07:22:45Z</time>
      </trkpt>
      <trkpt lat="44.8071" lon="5.1645">
        <ele>707</ele>
        <time>2019-07-08T07:22:48Z</time>
      </trkpt>
      <trkpt lat="44.80702" lon="5.16443">
        <ele>707.40002441406</ele>
        <time>2019-07-08T07:22:51Z</time>
      </trkpt>
      <trkpt lat="44.80699" lon="5.1644">
        <ele>707.79998779297</ele>
        <time>2019-07-08T07:22:52Z</time>
      </trkpt>
      <trkpt lat="44.80695" lon="5.16438">
        <ele>708.20001220703</ele>
        <time>2019-07-08T07:22:53Z</time>
      </trkpt>
      <trkpt lat="44.80692" lon="5.16435">
        <ele>708.59997558594</ele>
        <time>2019-07-08T07:22:54Z</time>
      </trkpt>
      <trkpt lat="44.80689" lon="5.16433">
        <ele>709.20001220703</ele>
        <time>2019-07-08T07:22:55Z</time>
      </trkpt>
      <trkpt lat="44.80665" lon="5.16415">
        <ele>709.20001220703</ele>
        <time>2019-07-08T07:23:02Z</time>
      </trkpt>
      <trkpt lat="44.80657" lon="5.1641">
        <ele>709.20001220703</ele>
        <time>2019-07-08T07:23:04Z</time>
      </trkpt>
      <trkpt lat="44.80637" lon="5.16402">
        <ele>709.20001220703</ele>
        <time>2019-07-08T07:23:09Z</time>
      </trkpt>
      <trkpt lat="44.80626" lon="5.16395">
        <ele>709.20001220703</ele>
        <time>2019-07-08T07:23:14Z</time>
      </trkpt>
      <trkpt lat="44.80626" lon="5.16395">
        <ele>709.20001220703</ele>
        <time>2019-07-08T07:23:27Z</time>
      </trkpt>
      <trkpt lat="44.80621" lon="5.1639">
        <ele>709.20001220703</ele>
        <time>2019-07-08T07:23:31Z</time>
      </trkpt>
      <trkpt lat="44.80604" lon="5.16369">
        <ele>709.20001220703</ele>
        <time>2019-07-08T07:23:37Z</time>
      </trkpt>
      <trkpt lat="44.80579" lon="5.16342">
        <ele>709.20001220703</ele>
        <time>2019-07-08T07:23:44Z</time>
      </trkpt>
      <trkpt lat="44.80575" lon="5.16339">
        <ele>709.20001220703</ele>
        <time>2019-07-08T07:23:45Z</time>
      </trkpt>
      <trkpt lat="44.8054" lon="5.16313">
        <ele>709.20001220703</ele>
        <time>2019-07-08T07:23:53Z</time>
      </trkpt>
      <trkpt lat="44.80525" lon="5.16306">
        <ele>709.20001220703</ele>
        <time>2019-07-08T07:23:56Z</time>
      </trkpt>
      <trkpt lat="44.80517" lon="5.16301">
        <ele>709.20001220703</ele>
        <time>2019-07-08T07:23:58Z</time>
      </trkpt>
      <trkpt lat="44.80511" lon="5.16294">
        <ele>709.20001220703</ele>
        <time>2019-07-08T07:24:01Z</time>
      </trkpt>
      <trkpt lat="44.80504" lon="5.16275">
        <ele>709.20001220703</ele>
        <time>2019-07-08T07:24:05Z</time>
      </trkpt>
      <trkpt lat="44.80502" lon="5.16269">
        <ele>708.59997558594</ele>
        <time>2019-07-08T07:24:06Z</time>
      </trkpt>
      <trkpt lat="44.80501" lon="5.16262">
        <ele>708.20001220703</ele>
        <time>2019-07-08T07:24:07Z</time>
      </trkpt>
      <trkpt lat="44.805" lon="5.16254">
        <ele>707.79998779297</ele>
        <time>2019-07-08T07:24:08Z</time>
      </trkpt>
      <trkpt lat="44.80498" lon="5.16247">
        <ele>707.40002441406</ele>
        <time>2019-07-08T07:24:09Z</time>
      </trkpt>
      <trkpt lat="44.80494" lon="5.16239">
        <ele>707</ele>
        <time>2019-07-08T07:24:10Z</time>
      </trkpt>
      <trkpt lat="44.8049" lon="5.16233">
        <ele>706.59997558594</ele>
        <time>2019-07-08T07:24:11Z</time>
      </trkpt>
      <trkpt lat="44.80484" lon="5.16229">
        <ele>706</ele>
        <time>2019-07-08T07:24:12Z</time>
      </trkpt>
      <trkpt lat="44.80479" lon="5.16225">
        <ele>705.59997558594</ele>
        <time>2019-07-08T07:24:13Z</time>
      </trkpt>
      <trkpt lat="44.80474" lon="5.16222">
        <ele>705.20001220703</ele>
        <time>2019-07-08T07:24:14Z</time>
      </trkpt>
      <trkpt lat="44.80469" lon="5.16221">
        <ele>704.59997558594</ele>
        <time>2019-07-08T07:24:15Z</time>
      </trkpt>
      <trkpt lat="44.80463" lon="5.16221">
        <ele>704</ele>
        <time>2019-07-08T07:24:16Z</time>
      </trkpt>
      <trkpt lat="44.80457" lon="5.16222">
        <ele>703.40002441406</ele>
        <time>2019-07-08T07:24:17Z</time>
      </trkpt>
      <trkpt lat="44.80451" lon="5.16222">
        <ele>703</ele>
        <time>2019-07-08T07:24:18Z</time>
      </trkpt>
      <trkpt lat="44.80444" lon="5.16222">
        <ele>702.40002441406</ele>
        <time>2019-07-08T07:24:19Z</time>
      </trkpt>
      <trkpt lat="44.80438" lon="5.16221">
        <ele>701.79998779297</ele>
        <time>2019-07-08T07:24:20Z</time>
      </trkpt>
      <trkpt lat="44.80431" lon="5.16219">
        <ele>701.20001220703</ele>
        <time>2019-07-08T07:24:21Z</time>
      </trkpt>
      <trkpt lat="44.80425" lon="5.16216">
        <ele>700.59997558594</ele>
        <time>2019-07-08T07:24:22Z</time>
      </trkpt>
      <trkpt lat="44.80419" lon="5.16213">
        <ele>700</ele>
        <time>2019-07-08T07:24:23Z</time>
      </trkpt>
      <trkpt lat="44.80413" lon="5.16209">
        <ele>699.20001220703</ele>
        <time>2019-07-08T07:24:24Z</time>
      </trkpt>
      <trkpt lat="44.80407" lon="5.16204">
        <ele>697.79998779297</ele>
        <time>2019-07-08T07:24:25Z</time>
      </trkpt>
      <trkpt lat="44.80401" lon="5.16199">
        <ele>697</ele>
        <time>2019-07-08T07:24:26Z</time>
      </trkpt>
      <trkpt lat="44.80395" lon="5.16194">
        <ele>696.20001220703</ele>
        <time>2019-07-08T07:24:27Z</time>
      </trkpt>
      <trkpt lat="44.80389" lon="5.16189">
        <ele>695.40002441406</ele>
        <time>2019-07-08T07:24:28Z</time>
      </trkpt>
      <trkpt lat="44.80384" lon="5.16183">
        <ele>694.40002441406</ele>
        <time>2019-07-08T07:24:29Z</time>
      </trkpt>
      <trkpt lat="44.8038" lon="5.16179">
        <ele>693.59997558594</ele>
        <time>2019-07-08T07:24:30Z</time>
      </trkpt>
      <trkpt lat="44.80377" lon="5.16179">
        <ele>692.59997558594</ele>
        <time>2019-07-08T07:24:31Z</time>
      </trkpt>
      <trkpt lat="44.80376" lon="5.1618">
        <ele>691.79998779297</ele>
        <time>2019-07-08T07:24:32Z</time>
      </trkpt>
      <trkpt lat="44.80376" lon="5.16183">
        <ele>690.79998779297</ele>
        <time>2019-07-08T07:24:33Z</time>
      </trkpt>
      <trkpt lat="44.80377" lon="5.16187">
        <ele>689.79998779297</ele>
        <time>2019-07-08T07:24:34Z</time>
      </trkpt>
      <trkpt lat="44.80378" lon="5.16191">
        <ele>689.40002441406</ele>
        <time>2019-07-08T07:24:35Z</time>
      </trkpt>
      <trkpt lat="44.80381" lon="5.16196">
        <ele>689</ele>
        <time>2019-07-08T07:24:36Z</time>
      </trkpt>
      <trkpt lat="44.80384" lon="5.16202">
        <ele>688.40002441406</ele>
        <time>2019-07-08T07:24:37Z</time>
      </trkpt>
      <trkpt lat="44.80387" lon="5.16207">
        <ele>688</ele>
        <time>2019-07-08T07:24:38Z</time>
      </trkpt>
      <trkpt lat="44.8039" lon="5.16212">
        <ele>687.40002441406</ele>
        <time>2019-07-08T07:24:39Z</time>
      </trkpt>
      <trkpt lat="44.80395" lon="5.16223">
        <ele>687.40002441406</ele>
        <time>2019-07-08T07:24:42Z</time>
      </trkpt>
      <trkpt lat="44.80393" lon="5.16225">
        <ele>687</ele>
        <time>2019-07-08T07:24:43Z</time>
      </trkpt>
      <trkpt lat="44.8039" lon="5.16225">
        <ele>686.59997558594</ele>
        <time>2019-07-08T07:24:44Z</time>
      </trkpt>
      <trkpt lat="44.80387" lon="5.16224">
        <ele>686.20001220703</ele>
        <time>2019-07-08T07:24:45Z</time>
      </trkpt>
      <trkpt lat="44.80384" lon="5.16222">
        <ele>685.79998779297</ele>
        <time>2019-07-08T07:24:46Z</time>
      </trkpt>
      <trkpt lat="44.8038" lon="5.1622">
        <ele>685.40002441406</ele>
        <time>2019-07-08T07:24:47Z</time>
      </trkpt>
      <trkpt lat="44.80376" lon="5.16218">
        <ele>685</ele>
        <time>2019-07-08T07:24:48Z</time>
      </trkpt>
      <trkpt lat="44.80372" lon="5.16216">
        <ele>684</ele>
        <time>2019-07-08T07:24:49Z</time>
      </trkpt>
      <trkpt lat="44.80368" lon="5.16213">
        <ele>683.59997558594</ele>
        <time>2019-07-08T07:24:50Z</time>
      </trkpt>
      <trkpt lat="44.80364" lon="5.16209">
        <ele>683</ele>
        <time>2019-07-08T07:24:51Z</time>
      </trkpt>
      <trkpt lat="44.8036" lon="5.16204">
        <ele>682.40002441406</ele>
        <time>2019-07-08T07:24:52Z</time>
      </trkpt>
      <trkpt lat="44.80355" lon="5.16199">
        <ele>681.79998779297</ele>
        <time>2019-07-08T07:24:53Z</time>
      </trkpt>
      <trkpt lat="44.8035" lon="5.16193">
        <ele>681.20001220703</ele>
        <time>2019-07-08T07:24:54Z</time>
      </trkpt>
      <trkpt lat="44.80345" lon="5.16187">
        <ele>680.59997558594</ele>
        <time>2019-07-08T07:24:55Z</time>
      </trkpt>
      <trkpt lat="44.80341" lon="5.1618">
        <ele>679.79998779297</ele>
        <time>2019-07-08T07:24:56Z</time>
      </trkpt>
      <trkpt lat="44.80336" lon="5.16174">
        <ele>679.20001220703</ele>
        <time>2019-07-08T07:24:57Z</time>
      </trkpt>
      <trkpt lat="44.80331" lon="5.16167">
        <ele>678.59997558594</ele>
        <time>2019-07-08T07:24:58Z</time>
      </trkpt>
      <trkpt lat="44.80326" lon="5.1616">
        <ele>678</ele>
        <time>2019-07-08T07:24:59Z</time>
      </trkpt>
      <trkpt lat="44.80321" lon="5.16152">
        <ele>677.40002441406</ele>
        <time>2019-07-08T07:25:00Z</time>
      </trkpt>
      <trkpt lat="44.80316" lon="5.16144">
        <ele>676.59997558594</ele>
        <time>2019-07-08T07:25:01Z</time>
      </trkpt>
      <trkpt lat="44.8031" lon="5.16136">
        <ele>675.79998779297</ele>
        <time>2019-07-08T07:25:02Z</time>
      </trkpt>
      <trkpt lat="44.80305" lon="5.16129">
        <ele>675</ele>
        <time>2019-07-08T07:25:03Z</time>
      </trkpt>
      <trkpt lat="44.803" lon="5.16121">
        <ele>674.20001220703</ele>
        <time>2019-07-08T07:25:04Z</time>
      </trkpt>
      <trkpt lat="44.80296" lon="5.16115">
        <ele>673.59997558594</ele>
        <time>2019-07-08T07:25:05Z</time>
      </trkpt>
      <trkpt lat="44.80292" lon="5.16108">
        <ele>673</ele>
        <time>2019-07-08T07:25:06Z</time>
      </trkpt>
      <trkpt lat="44.80287" lon="5.16102">
        <ele>672.40002441406</ele>
        <time>2019-07-08T07:25:07Z</time>
      </trkpt>
      <trkpt lat="44.80283" lon="5.16097">
        <ele>671.79998779297</ele>
        <time>2019-07-08T07:25:08Z</time>
      </trkpt>
      <trkpt lat="44.80278" lon="5.16093">
        <ele>671.20001220703</ele>
        <time>2019-07-08T07:25:09Z</time>
      </trkpt>
      <trkpt lat="44.80274" lon="5.1609">
        <ele>670.59997558594</ele>
        <time>2019-07-08T07:25:10Z</time>
      </trkpt>
      <trkpt lat="44.8027" lon="5.16087">
        <ele>670</ele>
        <time>2019-07-08T07:25:11Z</time>
      </trkpt>
      <trkpt lat="44.80266" lon="5.16084">
        <ele>669.20001220703</ele>
        <time>2019-07-08T07:25:12Z</time>
      </trkpt>
      <trkpt lat="44.80262" lon="5.16081">
        <ele>668.59997558594</ele>
        <time>2019-07-08T07:25:13Z</time>
      </trkpt>
      <trkpt lat="44.80257" lon="5.16078">
        <ele>667.20001220703</ele>
        <time>2019-07-08T07:25:14Z</time>
      </trkpt>
      <trkpt lat="44.80252" lon="5.16075">
        <ele>666.40002441406</ele>
        <time>2019-07-08T07:25:15Z</time>
      </trkpt>
      <trkpt lat="44.80237" lon="5.16064">
        <ele>666</ele>
        <time>2019-07-08T07:25:18Z</time>
      </trkpt>
      <trkpt lat="44.80232" lon="5.1606">
        <ele>665.59997558594</ele>
        <time>2019-07-08T07:25:19Z</time>
      </trkpt>
      <trkpt lat="44.80226" lon="5.16057">
        <ele>665</ele>
        <time>2019-07-08T07:25:20Z</time>
      </trkpt>
      <trkpt lat="44.80221" lon="5.16053">
        <ele>664.59997558594</ele>
        <time>2019-07-08T07:25:21Z</time>
      </trkpt>
      <trkpt lat="44.80215" lon="5.16048">
        <ele>664.20001220703</ele>
        <time>2019-07-08T07:25:22Z</time>
      </trkpt>
      <trkpt lat="44.80209" lon="5.16043">
        <ele>663.59997558594</ele>
        <time>2019-07-08T07:25:23Z</time>
      </trkpt>
      <trkpt lat="44.80203" lon="5.16039">
        <ele>663.20001220703</ele>
        <time>2019-07-08T07:25:24Z</time>
      </trkpt>
      <trkpt lat="44.80198" lon="5.16034">
        <ele>662.59997558594</ele>
        <time>2019-07-08T07:25:25Z</time>
      </trkpt>
      <trkpt lat="44.80192" lon="5.16028">
        <ele>662.20001220703</ele>
        <time>2019-07-08T07:25:26Z</time>
      </trkpt>
      <trkpt lat="44.80186" lon="5.16024">
        <ele>661.40002441406</ele>
        <time>2019-07-08T07:25:27Z</time>
      </trkpt>
      <trkpt lat="44.80181" lon="5.1602">
        <ele>660.79998779297</ele>
        <time>2019-07-08T07:25:28Z</time>
      </trkpt>
      <trkpt lat="44.80177" lon="5.16016">
        <ele>659.79998779297</ele>
        <time>2019-07-08T07:25:29Z</time>
      </trkpt>
      <trkpt lat="44.80173" lon="5.16012">
        <ele>659</ele>
        <time>2019-07-08T07:25:30Z</time>
      </trkpt>
      <trkpt lat="44.80169" lon="5.16008">
        <ele>658.20001220703</ele>
        <time>2019-07-08T07:25:31Z</time>
      </trkpt>
      <trkpt lat="44.80164" lon="5.16004">
        <ele>657.40002441406</ele>
        <time>2019-07-08T07:25:32Z</time>
      </trkpt>
      <trkpt lat="44.80159" lon="5.16">
        <ele>656.59997558594</ele>
        <time>2019-07-08T07:25:33Z</time>
      </trkpt>
      <trkpt lat="44.80154" lon="5.15997">
        <ele>656</ele>
        <time>2019-07-08T07:25:34Z</time>
      </trkpt>
      <trkpt lat="44.80149" lon="5.15995">
        <ele>655.20001220703</ele>
        <time>2019-07-08T07:25:35Z</time>
      </trkpt>
      <trkpt lat="44.80144" lon="5.15992">
        <ele>654.59997558594</ele>
        <time>2019-07-08T07:25:36Z</time>
      </trkpt>
      <trkpt lat="44.8014" lon="5.15988">
        <ele>654</ele>
        <time>2019-07-08T07:25:37Z</time>
      </trkpt>
      <trkpt lat="44.80136" lon="5.15985">
        <ele>653.40002441406</ele>
        <time>2019-07-08T07:25:38Z</time>
      </trkpt>
      <trkpt lat="44.8013" lon="5.15982">
        <ele>653</ele>
        <time>2019-07-08T07:25:39Z</time>
      </trkpt>
      <trkpt lat="44.80124" lon="5.15981">
        <ele>652.40002441406</ele>
        <time>2019-07-08T07:25:40Z</time>
      </trkpt>
      <trkpt lat="44.80117" lon="5.1598">
        <ele>652.40002441406</ele>
        <time>2019-07-08T07:25:41Z</time>
      </trkpt>
      <trkpt lat="44.80109" lon="5.15978">
        <ele>651.79998779297</ele>
        <time>2019-07-08T07:25:42Z</time>
      </trkpt>
      <trkpt lat="44.80102" lon="5.15978">
        <ele>651.20001220703</ele>
        <time>2019-07-08T07:25:43Z</time>
      </trkpt>
      <trkpt lat="44.80094" lon="5.15977">
        <ele>650.79998779297</ele>
        <time>2019-07-08T07:25:44Z</time>
      </trkpt>
      <trkpt lat="44.80085" lon="5.15976">
        <ele>650.20001220703</ele>
        <time>2019-07-08T07:25:45Z</time>
      </trkpt>
      <trkpt lat="44.80077" lon="5.15975">
        <ele>649.59997558594</ele>
        <time>2019-07-08T07:25:46Z</time>
      </trkpt>
      <trkpt lat="44.8007" lon="5.15973">
        <ele>649</ele>
        <time>2019-07-08T07:25:47Z</time>
      </trkpt>
      <trkpt lat="44.80062" lon="5.15972">
        <ele>648.20001220703</ele>
        <time>2019-07-08T07:25:48Z</time>
      </trkpt>
      <trkpt lat="44.80054" lon="5.15971">
        <ele>647.40002441406</ele>
        <time>2019-07-08T07:25:49Z</time>
      </trkpt>
      <trkpt lat="44.80046" lon="5.1597">
        <ele>646.59997558594</ele>
        <time>2019-07-08T07:25:50Z</time>
      </trkpt>
      <trkpt lat="44.80038" lon="5.15968">
        <ele>645.40002441406</ele>
        <time>2019-07-08T07:25:51Z</time>
      </trkpt>
      <trkpt lat="44.80031" lon="5.15966">
        <ele>644.40002441406</ele>
        <time>2019-07-08T07:25:52Z</time>
      </trkpt>
      <trkpt lat="44.80025" lon="5.15963">
        <ele>643.20001220703</ele>
        <time>2019-07-08T07:25:53Z</time>
      </trkpt>
      <trkpt lat="44.80018" lon="5.15959">
        <ele>642</ele>
        <time>2019-07-08T07:25:54Z</time>
      </trkpt>
      <trkpt lat="44.80012" lon="5.15955">
        <ele>640.59997558594</ele>
        <time>2019-07-08T07:25:55Z</time>
      </trkpt>
      <trkpt lat="44.80005" lon="5.15949">
        <ele>639.20001220703</ele>
        <time>2019-07-08T07:25:56Z</time>
      </trkpt>
      <trkpt lat="44.79998" lon="5.15945">
        <ele>638</ele>
        <time>2019-07-08T07:25:57Z</time>
      </trkpt>
      <trkpt lat="44.79991" lon="5.1594">
        <ele>636.79998779297</ele>
        <time>2019-07-08T07:25:58Z</time>
      </trkpt>
      <trkpt lat="44.79984" lon="5.15937">
        <ele>635.79998779297</ele>
        <time>2019-07-08T07:25:59Z</time>
      </trkpt>
      <trkpt lat="44.79976" lon="5.15932">
        <ele>634.59997558594</ele>
        <time>2019-07-08T07:26:00Z</time>
      </trkpt>
      <trkpt lat="44.79968" lon="5.15926">
        <ele>633.59997558594</ele>
        <time>2019-07-08T07:26:01Z</time>
      </trkpt>
      <trkpt lat="44.7996" lon="5.15921">
        <ele>632.40002441406</ele>
        <time>2019-07-08T07:26:02Z</time>
      </trkpt>
      <trkpt lat="44.79952" lon="5.15916">
        <ele>631.40002441406</ele>
        <time>2019-07-08T07:26:03Z</time>
      </trkpt>
      <trkpt lat="44.79944" lon="5.15909">
        <ele>628.79998779297</ele>
        <time>2019-07-08T07:26:04Z</time>
      </trkpt>
      <trkpt lat="44.79937" lon="5.15903">
        <ele>627.59997558594</ele>
        <time>2019-07-08T07:26:05Z</time>
      </trkpt>
      <trkpt lat="44.79931" lon="5.15897">
        <ele>626.59997558594</ele>
        <time>2019-07-08T07:26:06Z</time>
      </trkpt>
      <trkpt lat="44.79925" lon="5.15893">
        <ele>625.59997558594</ele>
        <time>2019-07-08T07:26:07Z</time>
      </trkpt>
      <trkpt lat="44.79921" lon="5.15887">
        <ele>624.40002441406</ele>
        <time>2019-07-08T07:26:08Z</time>
      </trkpt>
      <trkpt lat="44.79916" lon="5.15882">
        <ele>623.20001220703</ele>
        <time>2019-07-08T07:26:09Z</time>
      </trkpt>
      <trkpt lat="44.79911" lon="5.15879">
        <ele>622.20001220703</ele>
        <time>2019-07-08T07:26:10Z</time>
      </trkpt>
      <trkpt lat="44.79904" lon="5.15875">
        <ele>621.20001220703</ele>
        <time>2019-07-08T07:26:11Z</time>
      </trkpt>
      <trkpt lat="44.79898" lon="5.15871">
        <ele>620.20001220703</ele>
        <time>2019-07-08T07:26:12Z</time>
      </trkpt>
      <trkpt lat="44.79891" lon="5.15865">
        <ele>619.40002441406</ele>
        <time>2019-07-08T07:26:13Z</time>
      </trkpt>
      <trkpt lat="44.79884" lon="5.15859">
        <ele>618.40002441406</ele>
        <time>2019-07-08T07:26:14Z</time>
      </trkpt>
      <trkpt lat="44.79876" lon="5.15853">
        <ele>617.40002441406</ele>
        <time>2019-07-08T07:26:15Z</time>
      </trkpt>
      <trkpt lat="44.79869" lon="5.15847">
        <ele>616.40002441406</ele>
        <time>2019-07-08T07:26:16Z</time>
      </trkpt>
      <trkpt lat="44.79861" lon="5.15841">
        <ele>615.40002441406</ele>
        <time>2019-07-08T07:26:17Z</time>
      </trkpt>
      <trkpt lat="44.79854" lon="5.15834">
        <ele>614.40002441406</ele>
        <time>2019-07-08T07:26:18Z</time>
      </trkpt>
      <trkpt lat="44.79848" lon="5.15828">
        <ele>613.59997558594</ele>
        <time>2019-07-08T07:26:19Z</time>
      </trkpt>
      <trkpt lat="44.79842" lon="5.15823">
        <ele>612.40002441406</ele>
        <time>2019-07-08T07:26:20Z</time>
      </trkpt>
      <trkpt lat="44.79835" lon="5.15819">
        <ele>611.40002441406</ele>
        <time>2019-07-08T07:26:21Z</time>
      </trkpt>
      <trkpt lat="44.79828" lon="5.15814">
        <ele>610.20001220703</ele>
        <time>2019-07-08T07:26:22Z</time>
      </trkpt>
      <trkpt lat="44.79821" lon="5.1581">
        <ele>609.20001220703</ele>
        <time>2019-07-08T07:26:23Z</time>
      </trkpt>
      <trkpt lat="44.79812" lon="5.15805">
        <ele>608.40002441406</ele>
        <time>2019-07-08T07:26:24Z</time>
      </trkpt>
      <trkpt lat="44.79804" lon="5.15801">
        <ele>607.79998779297</ele>
        <time>2019-07-08T07:26:25Z</time>
      </trkpt>
      <trkpt lat="44.79796" lon="5.15798">
        <ele>607</ele>
        <time>2019-07-08T07:26:26Z</time>
      </trkpt>
      <trkpt lat="44.79788" lon="5.15795">
        <ele>606.40002441406</ele>
        <time>2019-07-08T07:26:27Z</time>
      </trkpt>
      <trkpt lat="44.7978" lon="5.15792">
        <ele>605.59997558594</ele>
        <time>2019-07-08T07:26:28Z</time>
      </trkpt>
      <trkpt lat="44.79773" lon="5.15789">
        <ele>603.59997558594</ele>
        <time>2019-07-08T07:26:29Z</time>
      </trkpt>
      <trkpt lat="44.79765" lon="5.15786">
        <ele>602.59997558594</ele>
        <time>2019-07-08T07:26:30Z</time>
      </trkpt>
      <trkpt lat="44.79756" lon="5.15782">
        <ele>601.59997558594</ele>
        <time>2019-07-08T07:26:31Z</time>
      </trkpt>
      <trkpt lat="44.79748" lon="5.15777">
        <ele>600.79998779297</ele>
        <time>2019-07-08T07:26:32Z</time>
      </trkpt>
      <trkpt lat="44.79741" lon="5.15773">
        <ele>599.79998779297</ele>
        <time>2019-07-08T07:26:33Z</time>
      </trkpt>
      <trkpt lat="44.79735" lon="5.1577">
        <ele>598.79998779297</ele>
        <time>2019-07-08T07:26:34Z</time>
      </trkpt>
      <trkpt lat="44.7973" lon="5.15767">
        <ele>597.59997558594</ele>
        <time>2019-07-08T07:26:35Z</time>
      </trkpt>
      <trkpt lat="44.79726" lon="5.15764">
        <ele>596.59997558594</ele>
        <time>2019-07-08T07:26:36Z</time>
      </trkpt>
      <trkpt lat="44.79723" lon="5.15762">
        <ele>595.59997558594</ele>
        <time>2019-07-08T07:26:37Z</time>
      </trkpt>
      <trkpt lat="44.7972" lon="5.15761">
        <ele>594.59997558594</ele>
        <time>2019-07-08T07:26:38Z</time>
      </trkpt>
      <trkpt lat="44.79718" lon="5.1576">
        <ele>593.59997558594</ele>
        <time>2019-07-08T07:26:39Z</time>
      </trkpt>
      <trkpt lat="44.79717" lon="5.1576">
        <ele>592.79998779297</ele>
        <time>2019-07-08T07:26:40Z</time>
      </trkpt>
      <trkpt lat="44.79717" lon="5.1576">
        <ele>591.79998779297</ele>
        <time>2019-07-08T07:26:41Z</time>
      </trkpt>
      <trkpt lat="44.79717" lon="5.1576">
        <ele>590.79998779297</ele>
        <time>2019-07-08T07:26:42Z</time>
      </trkpt>
      <trkpt lat="44.79717" lon="5.1576">
        <ele>590.79998779297</ele>
        <time>2019-07-08T07:26:48Z</time>
      </trkpt>
      <trkpt lat="44.79717" lon="5.1576">
        <ele>590.79998779297</ele>
        <time>2019-07-08T07:27:00Z</time>
      </trkpt>
      <trkpt lat="44.79711" lon="5.15756">
        <ele>590.40002441406</ele>
        <time>2019-07-08T07:27:03Z</time>
      </trkpt>
      <trkpt lat="44.79708" lon="5.15755">
        <ele>590</ele>
        <time>2019-07-08T07:27:04Z</time>
      </trkpt>
      <trkpt lat="44.79705" lon="5.15753">
        <ele>589.59997558594</ele>
        <time>2019-07-08T07:27:05Z</time>
      </trkpt>
      <trkpt lat="44.79701" lon="5.15752">
        <ele>589</ele>
        <time>2019-07-08T07:27:06Z</time>
      </trkpt>
      <trkpt lat="44.79697" lon="5.1575">
        <ele>588.59997558594</ele>
        <time>2019-07-08T07:27:07Z</time>
      </trkpt>
      <trkpt lat="44.79693" lon="5.15748">
        <ele>588.59997558594</ele>
        <time>2019-07-08T07:27:08Z</time>
      </trkpt>
      <trkpt lat="44.79683" lon="5.15743">
        <ele>588.59997558594</ele>
        <time>2019-07-08T07:27:10Z</time>
      </trkpt>
      <trkpt lat="44.79677" lon="5.1574">
        <ele>588.20001220703</ele>
        <time>2019-07-08T07:27:11Z</time>
      </trkpt>
      <trkpt lat="44.79671" lon="5.15736">
        <ele>587.79998779297</ele>
        <time>2019-07-08T07:27:12Z</time>
      </trkpt>
      <trkpt lat="44.79665" lon="5.15732">
        <ele>587.40002441406</ele>
        <time>2019-07-08T07:27:13Z</time>
      </trkpt>
      <trkpt lat="44.79659" lon="5.15727">
        <ele>586.79998779297</ele>
        <time>2019-07-08T07:27:14Z</time>
      </trkpt>
      <trkpt lat="44.79654" lon="5.15722">
        <ele>586.20001220703</ele>
        <time>2019-07-08T07:27:15Z</time>
      </trkpt>
      <trkpt lat="44.79648" lon="5.15715">
        <ele>585.59997558594</ele>
        <time>2019-07-08T07:27:16Z</time>
      </trkpt>
      <trkpt lat="44.79642" lon="5.15709">
        <ele>585</ele>
        <time>2019-07-08T07:27:17Z</time>
      </trkpt>
      <trkpt lat="44.79635" lon="5.15702">
        <ele>584.20001220703</ele>
        <time>2019-07-08T07:27:18Z</time>
      </trkpt>
      <trkpt lat="44.79629" lon="5.15696">
        <ele>583.79998779297</ele>
        <time>2019-07-08T07:27:19Z</time>
      </trkpt>
      <trkpt lat="44.79623" lon="5.15688">
        <ele>583.40002441406</ele>
        <time>2019-07-08T07:27:20Z</time>
      </trkpt>
      <trkpt lat="44.79618" lon="5.15679">
        <ele>583</ele>
        <time>2019-07-08T07:27:21Z</time>
      </trkpt>
      <trkpt lat="44.79614" lon="5.1567">
        <ele>582.40002441406</ele>
        <time>2019-07-08T07:27:22Z</time>
      </trkpt>
      <trkpt lat="44.79611" lon="5.15659">
        <ele>582</ele>
        <time>2019-07-08T07:27:23Z</time>
      </trkpt>
      <trkpt lat="44.79609" lon="5.15647">
        <ele>581.59997558594</ele>
        <time>2019-07-08T07:27:24Z</time>
      </trkpt>
      <trkpt lat="44.79607" lon="5.15636">
        <ele>581.20001220703</ele>
        <time>2019-07-08T07:27:25Z</time>
      </trkpt>
      <trkpt lat="44.79606" lon="5.15624">
        <ele>580.59997558594</ele>
        <time>2019-07-08T07:27:26Z</time>
      </trkpt>
      <trkpt lat="44.79604" lon="5.15612">
        <ele>580.20001220703</ele>
        <time>2019-07-08T07:27:27Z</time>
      </trkpt>
      <trkpt lat="44.79603" lon="5.156">
        <ele>579.79998779297</ele>
        <time>2019-07-08T07:27:28Z</time>
      </trkpt>
      <trkpt lat="44.79599" lon="5.15575">
        <ele>579.40002441406</ele>
        <time>2019-07-08T07:27:30Z</time>
      </trkpt>
      <trkpt lat="44.79598" lon="5.15563">
        <ele>578.79998779297</ele>
        <time>2019-07-08T07:27:31Z</time>
      </trkpt>
      <trkpt lat="44.79598" lon="5.1555">
        <ele>578.40002441406</ele>
        <time>2019-07-08T07:27:32Z</time>
      </trkpt>
      <trkpt lat="44.79598" lon="5.15538">
        <ele>577.79998779297</ele>
        <time>2019-07-08T07:27:33Z</time>
      </trkpt>
      <trkpt lat="44.79599" lon="5.15527">
        <ele>577.40002441406</ele>
        <time>2019-07-08T07:27:34Z</time>
      </trkpt>
      <trkpt lat="44.796" lon="5.15517">
        <ele>576.79998779297</ele>
        <time>2019-07-08T07:27:35Z</time>
      </trkpt>
      <trkpt lat="44.796" lon="5.15508">
        <ele>576.40002441406</ele>
        <time>2019-07-08T07:27:36Z</time>
      </trkpt>
      <trkpt lat="44.79601" lon="5.15501">
        <ele>575.79998779297</ele>
        <time>2019-07-08T07:27:37Z</time>
      </trkpt>
      <trkpt lat="44.79601" lon="5.15496">
        <ele>575.20001220703</ele>
        <time>2019-07-08T07:27:38Z</time>
      </trkpt>
      <trkpt lat="44.796" lon="5.15493">
        <ele>574.79998779297</ele>
        <time>2019-07-08T07:27:39Z</time>
      </trkpt>
      <trkpt lat="44.79599" lon="5.15492">
        <ele>574.20001220703</ele>
        <time>2019-07-08T07:27:40Z</time>
      </trkpt>
      <trkpt lat="44.79599" lon="5.1549">
        <ele>573.59997558594</ele>
        <time>2019-07-08T07:27:41Z</time>
      </trkpt>
      <trkpt lat="44.79599" lon="5.15488">
        <ele>573.20001220703</ele>
        <time>2019-07-08T07:27:42Z</time>
      </trkpt>
      <trkpt lat="44.79594" lon="5.15485">
        <ele>572.59997558594</ele>
        <time>2019-07-08T07:27:44Z</time>
      </trkpt>
      <trkpt lat="44.79589" lon="5.15486">
        <ele>572.20001220703</ele>
        <time>2019-07-08T07:27:45Z</time>
      </trkpt>
      <trkpt lat="44.79584" lon="5.15488">
        <ele>571.59997558594</ele>
        <time>2019-07-08T07:27:46Z</time>
      </trkpt>
      <trkpt lat="44.79579" lon="5.1549">
        <ele>570.79998779297</ele>
        <time>2019-07-08T07:27:47Z</time>
      </trkpt>
      <trkpt lat="44.79573" lon="5.15492">
        <ele>570</ele>
        <time>2019-07-08T07:27:48Z</time>
      </trkpt>
      <trkpt lat="44.79567" lon="5.15495">
        <ele>569</ele>
        <time>2019-07-08T07:27:49Z</time>
      </trkpt>
      <trkpt lat="44.79561" lon="5.15496">
        <ele>568.20001220703</ele>
        <time>2019-07-08T07:27:50Z</time>
      </trkpt>
      <trkpt lat="44.79556" lon="5.15497">
        <ele>567</ele>
        <time>2019-07-08T07:27:51Z</time>
      </trkpt>
      <trkpt lat="44.79551" lon="5.15498">
        <ele>566</ele>
        <time>2019-07-08T07:27:52Z</time>
      </trkpt>
      <trkpt lat="44.79547" lon="5.15498">
        <ele>565</ele>
        <time>2019-07-08T07:27:53Z</time>
      </trkpt>
      <trkpt lat="44.79543" lon="5.15497">
        <ele>564</ele>
        <time>2019-07-08T07:27:54Z</time>
      </trkpt>
      <trkpt lat="44.7954" lon="5.15493">
        <ele>562.79998779297</ele>
        <time>2019-07-08T07:27:55Z</time>
      </trkpt>
      <trkpt lat="44.79538" lon="5.15488">
        <ele>561.59997558594</ele>
        <time>2019-07-08T07:27:56Z</time>
      </trkpt>
      <trkpt lat="44.79537" lon="5.15483">
        <ele>560.59997558594</ele>
        <time>2019-07-08T07:27:57Z</time>
      </trkpt>
      <trkpt lat="44.79535" lon="5.15478">
        <ele>559.40002441406</ele>
        <time>2019-07-08T07:27:58Z</time>
      </trkpt>
      <trkpt lat="44.79533" lon="5.15473">
        <ele>558.40002441406</ele>
        <time>2019-07-08T07:27:59Z</time>
      </trkpt>
      <trkpt lat="44.79532" lon="5.15467">
        <ele>557.40002441406</ele>
        <time>2019-07-08T07:28:00Z</time>
      </trkpt>
      <trkpt lat="44.7953" lon="5.1546">
        <ele>556.40002441406</ele>
        <time>2019-07-08T07:28:01Z</time>
      </trkpt>
      <trkpt lat="44.79528" lon="5.15453">
        <ele>555.40002441406</ele>
        <time>2019-07-08T07:28:02Z</time>
      </trkpt>
      <trkpt lat="44.79526" lon="5.15446">
        <ele>554.40002441406</ele>
        <time>2019-07-08T07:28:03Z</time>
      </trkpt>
      <trkpt lat="44.79523" lon="5.15441">
        <ele>553.59997558594</ele>
        <time>2019-07-08T07:28:04Z</time>
      </trkpt>
      <trkpt lat="44.79519" lon="5.15436">
        <ele>552.59997558594</ele>
        <time>2019-07-08T07:28:05Z</time>
      </trkpt>
      <trkpt lat="44.79515" lon="5.15433">
        <ele>551.59997558594</ele>
        <time>2019-07-08T07:28:06Z</time>
      </trkpt>
      <trkpt lat="44.79511" lon="5.15431">
        <ele>550.79998779297</ele>
        <time>2019-07-08T07:28:07Z</time>
      </trkpt>
      <trkpt lat="44.79506" lon="5.1543">
        <ele>548.79998779297</ele>
        <time>2019-07-08T07:28:08Z</time>
      </trkpt>
      <trkpt lat="44.795" lon="5.1543">
        <ele>548</ele>
        <time>2019-07-08T07:28:09Z</time>
      </trkpt>
      <trkpt lat="44.79495" lon="5.1543">
        <ele>547.20001220703</ele>
        <time>2019-07-08T07:28:10Z</time>
      </trkpt>
      <trkpt lat="44.79491" lon="5.15432">
        <ele>546.20001220703</ele>
        <time>2019-07-08T07:28:11Z</time>
      </trkpt>
      <trkpt lat="44.79486" lon="5.15434">
        <ele>545.40002441406</ele>
        <time>2019-07-08T07:28:12Z</time>
      </trkpt>
      <trkpt lat="44.79482" lon="5.15434">
        <ele>544.79998779297</ele>
        <time>2019-07-08T07:28:13Z</time>
      </trkpt>
      <trkpt lat="44.79477" lon="5.15433">
        <ele>544</ele>
        <time>2019-07-08T07:28:14Z</time>
      </trkpt>
      <trkpt lat="44.79472" lon="5.15431">
        <ele>543.40002441406</ele>
        <time>2019-07-08T07:28:15Z</time>
      </trkpt>
      <trkpt lat="44.79468" lon="5.15428">
        <ele>542.59997558594</ele>
        <time>2019-07-08T07:28:16Z</time>
      </trkpt>
      <trkpt lat="44.79464" lon="5.15425">
        <ele>542</ele>
        <time>2019-07-08T07:28:17Z</time>
      </trkpt>
      <trkpt lat="44.79459" lon="5.15421">
        <ele>541.40002441406</ele>
        <time>2019-07-08T07:28:18Z</time>
      </trkpt>
      <trkpt lat="44.79453" lon="5.15418">
        <ele>540.59997558594</ele>
        <time>2019-07-08T07:28:19Z</time>
      </trkpt>
      <trkpt lat="44.79449" lon="5.15415">
        <ele>539.79998779297</ele>
        <time>2019-07-08T07:28:20Z</time>
      </trkpt>
      <trkpt lat="44.79445" lon="5.15411">
        <ele>539</ele>
        <time>2019-07-08T07:28:21Z</time>
      </trkpt>
      <trkpt lat="44.79441" lon="5.15407">
        <ele>538</ele>
        <time>2019-07-08T07:28:22Z</time>
      </trkpt>
      <trkpt lat="44.79437" lon="5.15404">
        <ele>537.20001220703</ele>
        <time>2019-07-08T07:28:23Z</time>
      </trkpt>
      <trkpt lat="44.79434" lon="5.15402">
        <ele>536.20001220703</ele>
        <time>2019-07-08T07:28:24Z</time>
      </trkpt>
      <trkpt lat="44.7943" lon="5.154">
        <ele>535.40002441406</ele>
        <time>2019-07-08T07:28:25Z</time>
      </trkpt>
      <trkpt lat="44.79426" lon="5.15399">
        <ele>534.79998779297</ele>
        <time>2019-07-08T07:28:26Z</time>
      </trkpt>
      <trkpt lat="44.79422" lon="5.15398">
        <ele>534.20001220703</ele>
        <time>2019-07-08T07:28:27Z</time>
      </trkpt>
      <trkpt lat="44.79418" lon="5.15395">
        <ele>533.59997558594</ele>
        <time>2019-07-08T07:28:28Z</time>
      </trkpt>
      <trkpt lat="44.79414" lon="5.15392">
        <ele>532.79998779297</ele>
        <time>2019-07-08T07:28:29Z</time>
      </trkpt>
      <trkpt lat="44.79409" lon="5.15388">
        <ele>532.20001220703</ele>
        <time>2019-07-08T07:28:30Z</time>
      </trkpt>
      <trkpt lat="44.79403" lon="5.15383">
        <ele>531.40002441406</ele>
        <time>2019-07-08T07:28:31Z</time>
      </trkpt>
      <trkpt lat="44.79397" lon="5.15377">
        <ele>530</ele>
        <time>2019-07-08T07:28:32Z</time>
      </trkpt>
      <trkpt lat="44.79391" lon="5.15372">
        <ele>529.59997558594</ele>
        <time>2019-07-08T07:28:33Z</time>
      </trkpt>
      <trkpt lat="44.79384" lon="5.15367">
        <ele>529</ele>
        <time>2019-07-08T07:28:34Z</time>
      </trkpt>
      <trkpt lat="44.79378" lon="5.15362">
        <ele>528.59997558594</ele>
        <time>2019-07-08T07:28:35Z</time>
      </trkpt>
      <trkpt lat="44.79372" lon="5.15359">
        <ele>527.79998779297</ele>
        <time>2019-07-08T07:28:36Z</time>
      </trkpt>
      <trkpt lat="44.79366" lon="5.15355">
        <ele>527.20001220703</ele>
        <time>2019-07-08T07:28:37Z</time>
      </trkpt>
      <trkpt lat="44.79362" lon="5.15351">
        <ele>526.59997558594</ele>
        <time>2019-07-08T07:28:38Z</time>
      </trkpt>
      <trkpt lat="44.79358" lon="5.15347">
        <ele>525.79998779297</ele>
        <time>2019-07-08T07:28:39Z</time>
      </trkpt>
      <trkpt lat="44.79356" lon="5.15343">
        <ele>524.79998779297</ele>
        <time>2019-07-08T07:28:40Z</time>
      </trkpt>
      <trkpt lat="44.79353" lon="5.1534">
        <ele>524</ele>
        <time>2019-07-08T07:28:41Z</time>
      </trkpt>
      <trkpt lat="44.79351" lon="5.15337">
        <ele>523.20001220703</ele>
        <time>2019-07-08T07:28:42Z</time>
      </trkpt>
      <trkpt lat="44.79349" lon="5.15334">
        <ele>522.59997558594</ele>
        <time>2019-07-08T07:28:43Z</time>
      </trkpt>
      <trkpt lat="44.79346" lon="5.15332">
        <ele>522</ele>
        <time>2019-07-08T07:28:44Z</time>
      </trkpt>
      <trkpt lat="44.79342" lon="5.15329">
        <ele>521.40002441406</ele>
        <time>2019-07-08T07:28:45Z</time>
      </trkpt>
      <trkpt lat="44.79337" lon="5.15326">
        <ele>520.79998779297</ele>
        <time>2019-07-08T07:28:46Z</time>
      </trkpt>
      <trkpt lat="44.79332" lon="5.15322">
        <ele>520.20001220703</ele>
        <time>2019-07-08T07:28:47Z</time>
      </trkpt>
      <trkpt lat="44.79321" lon="5.15313">
        <ele>519.79998779297</ele>
        <time>2019-07-08T07:28:49Z</time>
      </trkpt>
      <trkpt lat="44.79316" lon="5.15308">
        <ele>519.40002441406</ele>
        <time>2019-07-08T07:28:50Z</time>
      </trkpt>
      <trkpt lat="44.79311" lon="5.15302">
        <ele>518.59997558594</ele>
        <time>2019-07-08T07:28:51Z</time>
      </trkpt>
      <trkpt lat="44.79305" lon="5.15296">
        <ele>518</ele>
        <time>2019-07-08T07:28:52Z</time>
      </trkpt>
      <trkpt lat="44.793" lon="5.15288">
        <ele>517.20001220703</ele>
        <time>2019-07-08T07:28:53Z</time>
      </trkpt>
      <trkpt lat="44.79294" lon="5.1528">
        <ele>516.40002441406</ele>
        <time>2019-07-08T07:28:54Z</time>
      </trkpt>
      <trkpt lat="44.79289" lon="5.15272">
        <ele>515.79998779297</ele>
        <time>2019-07-08T07:28:55Z</time>
      </trkpt>
      <trkpt lat="44.79283" lon="5.15263">
        <ele>514.79998779297</ele>
        <time>2019-07-08T07:28:56Z</time>
      </trkpt>
      <trkpt lat="44.79279" lon="5.15253">
        <ele>513</ele>
        <time>2019-07-08T07:28:57Z</time>
      </trkpt>
      <trkpt lat="44.79275" lon="5.15243">
        <ele>512.20001220703</ele>
        <time>2019-07-08T07:28:58Z</time>
      </trkpt>
      <trkpt lat="44.79271" lon="5.15235">
        <ele>511.39999389648</ele>
        <time>2019-07-08T07:28:59Z</time>
      </trkpt>
      <trkpt lat="44.79268" lon="5.15228">
        <ele>510.39999389648</ele>
        <time>2019-07-08T07:29:00Z</time>
      </trkpt>
      <trkpt lat="44.79265" lon="5.15223">
        <ele>509.39999389648</ele>
        <time>2019-07-08T07:29:01Z</time>
      </trkpt>
      <trkpt lat="44.79263" lon="5.1522">
        <ele>508.20001220703</ele>
        <time>2019-07-08T07:29:02Z</time>
      </trkpt>
      <trkpt lat="44.7926" lon="5.15217">
        <ele>507</ele>
        <time>2019-07-08T07:29:03Z</time>
      </trkpt>
      <trkpt lat="44.79257" lon="5.15213">
        <ele>505.79998779297</ele>
        <time>2019-07-08T07:29:04Z</time>
      </trkpt>
      <trkpt lat="44.79254" lon="5.15209">
        <ele>504.60000610352</ele>
        <time>2019-07-08T07:29:05Z</time>
      </trkpt>
      <trkpt lat="44.79251" lon="5.15205">
        <ele>504</ele>
        <time>2019-07-08T07:29:06Z</time>
      </trkpt>
      <trkpt lat="44.79246" lon="5.152">
        <ele>503.39999389648</ele>
        <time>2019-07-08T07:29:07Z</time>
      </trkpt>
      <trkpt lat="44.79241" lon="5.15195">
        <ele>502.79998779297</ele>
        <time>2019-07-08T07:29:08Z</time>
      </trkpt>
      <trkpt lat="44.79236" lon="5.15191">
        <ele>502</ele>
        <time>2019-07-08T07:29:09Z</time>
      </trkpt>
      <trkpt lat="44.79231" lon="5.15188">
        <ele>501.39999389648</ele>
        <time>2019-07-08T07:29:10Z</time>
      </trkpt>
      <trkpt lat="44.79226" lon="5.15186">
        <ele>500.79998779297</ele>
        <time>2019-07-08T07:29:11Z</time>
      </trkpt>
      <trkpt lat="44.79221" lon="5.15183">
        <ele>500.20001220703</ele>
        <time>2019-07-08T07:29:12Z</time>
      </trkpt>
      <trkpt lat="44.79217" lon="5.15178">
        <ele>499.39999389648</ele>
        <time>2019-07-08T07:29:13Z</time>
      </trkpt>
      <trkpt lat="44.79214" lon="5.1517">
        <ele>498.60000610352</ele>
        <time>2019-07-08T07:29:14Z</time>
      </trkpt>
      <trkpt lat="44.7921" lon="5.15162">
        <ele>497.60000610352</ele>
        <time>2019-07-08T07:29:15Z</time>
      </trkpt>
      <trkpt lat="44.79205" lon="5.15155">
        <ele>496.79998779297</ele>
        <time>2019-07-08T07:29:16Z</time>
      </trkpt>
      <trkpt lat="44.792" lon="5.15147">
        <ele>496</ele>
        <time>2019-07-08T07:29:17Z</time>
      </trkpt>
      <trkpt lat="44.79194" lon="5.15137">
        <ele>495.20001220703</ele>
        <time>2019-07-08T07:29:18Z</time>
      </trkpt>
      <trkpt lat="44.79189" lon="5.15128">
        <ele>494.20001220703</ele>
        <time>2019-07-08T07:29:19Z</time>
      </trkpt>
      <trkpt lat="44.79183" lon="5.15117">
        <ele>493.20001220703</ele>
        <time>2019-07-08T07:29:20Z</time>
      </trkpt>
      <trkpt lat="44.79178" lon="5.15106">
        <ele>492.20001220703</ele>
        <time>2019-07-08T07:29:21Z</time>
      </trkpt>
      <trkpt lat="44.79173" lon="5.15095">
        <ele>490</ele>
        <time>2019-07-08T07:29:22Z</time>
      </trkpt>
      <trkpt lat="44.79169" lon="5.15084">
        <ele>488.79998779297</ele>
        <time>2019-07-08T07:29:23Z</time>
      </trkpt>
      <trkpt lat="44.79165" lon="5.15075">
        <ele>487.39999389648</ele>
        <time>2019-07-08T07:29:24Z</time>
      </trkpt>
      <trkpt lat="44.79162" lon="5.15067">
        <ele>486</ele>
        <time>2019-07-08T07:29:25Z</time>
      </trkpt>
      <trkpt lat="44.79159" lon="5.1506">
        <ele>484.39999389648</ele>
        <time>2019-07-08T07:29:26Z</time>
      </trkpt>
      <trkpt lat="44.79156" lon="5.15052">
        <ele>483</ele>
        <time>2019-07-08T07:29:27Z</time>
      </trkpt>
      <trkpt lat="44.79152" lon="5.15043">
        <ele>481.60000610352</ele>
        <time>2019-07-08T07:29:28Z</time>
      </trkpt>
      <trkpt lat="44.79149" lon="5.15034">
        <ele>480.39999389648</ele>
        <time>2019-07-08T07:29:29Z</time>
      </trkpt>
      <trkpt lat="44.79146" lon="5.15024">
        <ele>479</ele>
        <time>2019-07-08T07:29:30Z</time>
      </trkpt>
      <trkpt lat="44.79143" lon="5.15014">
        <ele>478</ele>
        <time>2019-07-08T07:29:31Z</time>
      </trkpt>
      <trkpt lat="44.79141" lon="5.15005">
        <ele>477</ele>
        <time>2019-07-08T07:29:32Z</time>
      </trkpt>
      <trkpt lat="44.79138" lon="5.14995">
        <ele>476</ele>
        <time>2019-07-08T07:29:33Z</time>
      </trkpt>
      <trkpt lat="44.79135" lon="5.14986">
        <ele>475</ele>
        <time>2019-07-08T07:29:34Z</time>
      </trkpt>
      <trkpt lat="44.79133" lon="5.14977">
        <ele>474</ele>
        <time>2019-07-08T07:29:35Z</time>
      </trkpt>
      <trkpt lat="44.79129" lon="5.14969">
        <ele>472.79998779297</ele>
        <time>2019-07-08T07:29:36Z</time>
      </trkpt>
      <trkpt lat="44.79125" lon="5.14962">
        <ele>471.60000610352</ele>
        <time>2019-07-08T07:29:37Z</time>
      </trkpt>
      <trkpt lat="44.79121" lon="5.14954">
        <ele>470.60000610352</ele>
        <time>2019-07-08T07:29:38Z</time>
      </trkpt>
      <trkpt lat="44.79118" lon="5.14946">
        <ele>469.39999389648</ele>
        <time>2019-07-08T07:29:39Z</time>
      </trkpt>
      <trkpt lat="44.79113" lon="5.14937">
        <ele>468.60000610352</ele>
        <time>2019-07-08T07:29:40Z</time>
      </trkpt>
      <trkpt lat="44.79107" lon="5.14929">
        <ele>467.79998779297</ele>
        <time>2019-07-08T07:29:41Z</time>
      </trkpt>
      <trkpt lat="44.79101" lon="5.14921">
        <ele>467</ele>
        <time>2019-07-08T07:29:42Z</time>
      </trkpt>
      <trkpt lat="44.79094" lon="5.14913">
        <ele>466.20001220703</ele>
        <time>2019-07-08T07:29:43Z</time>
      </trkpt>
      <trkpt lat="44.79087" lon="5.14906">
        <ele>465.20001220703</ele>
        <time>2019-07-08T07:29:44Z</time>
      </trkpt>
      <trkpt lat="44.79079" lon="5.14901">
        <ele>464.20001220703</ele>
        <time>2019-07-08T07:29:45Z</time>
      </trkpt>
      <trkpt lat="44.7907" lon="5.14897">
        <ele>463.39999389648</ele>
        <time>2019-07-08T07:29:46Z</time>
      </trkpt>
      <trkpt lat="44.79063" lon="5.14893">
        <ele>461.60000610352</ele>
        <time>2019-07-08T07:29:47Z</time>
      </trkpt>
      <trkpt lat="44.79057" lon="5.1489">
        <ele>460.60000610352</ele>
        <time>2019-07-08T07:29:48Z</time>
      </trkpt>
      <trkpt lat="44.79052" lon="5.14886">
        <ele>459.60000610352</ele>
        <time>2019-07-08T07:29:49Z</time>
      </trkpt>
      <trkpt lat="44.79047" lon="5.14883">
        <ele>458.60000610352</ele>
        <time>2019-07-08T07:29:50Z</time>
      </trkpt>
      <trkpt lat="44.79043" lon="5.1488">
        <ele>457.60000610352</ele>
        <time>2019-07-08T07:29:51Z</time>
      </trkpt>
      <trkpt lat="44.79038" lon="5.14876">
        <ele>456.60000610352</ele>
        <time>2019-07-08T07:29:52Z</time>
      </trkpt>
      <trkpt lat="44.79034" lon="5.14871">
        <ele>455.79998779297</ele>
        <time>2019-07-08T07:29:53Z</time>
      </trkpt>
      <trkpt lat="44.79029" lon="5.14868">
        <ele>455.79998779297</ele>
        <time>2019-07-08T07:29:54Z</time>
      </trkpt>
      <trkpt lat="44.7901" lon="5.14867">
        <ele>455.79998779297</ele>
        <time>2019-07-08T07:29:57Z</time>
      </trkpt>
      <trkpt lat="44.79003" lon="5.14868">
        <ele>455.20001220703</ele>
        <time>2019-07-08T07:29:58Z</time>
      </trkpt>
      <trkpt lat="44.78996" lon="5.14868">
        <ele>454.79998779297</ele>
        <time>2019-07-08T07:29:59Z</time>
      </trkpt>
      <trkpt lat="44.78989" lon="5.14867">
        <ele>454.39999389648</ele>
        <time>2019-07-08T07:30:00Z</time>
      </trkpt>
      <trkpt lat="44.78982" lon="5.14867">
        <ele>453.79998779297</ele>
        <time>2019-07-08T07:30:01Z</time>
      </trkpt>
      <trkpt lat="44.78975" lon="5.14868">
        <ele>453.39999389648</ele>
        <time>2019-07-08T07:30:02Z</time>
      </trkpt>
      <trkpt lat="44.78959" lon="5.14868">
        <ele>453</ele>
        <time>2019-07-08T07:30:04Z</time>
      </trkpt>
      <trkpt lat="44.78951" lon="5.14868">
        <ele>452.60000610352</ele>
        <time>2019-07-08T07:30:05Z</time>
      </trkpt>
      <trkpt lat="44.78942" lon="5.14868">
        <ele>452.20001220703</ele>
        <time>2019-07-08T07:30:06Z</time>
      </trkpt>
      <trkpt lat="44.78934" lon="5.14869">
        <ele>451.79998779297</ele>
        <time>2019-07-08T07:30:07Z</time>
      </trkpt>
      <trkpt lat="44.78926" lon="5.14871">
        <ele>451.39999389648</ele>
        <time>2019-07-08T07:30:08Z</time>
      </trkpt>
      <trkpt lat="44.78918" lon="5.14874">
        <ele>450.79998779297</ele>
        <time>2019-07-08T07:30:09Z</time>
      </trkpt>
      <trkpt lat="44.78911" lon="5.14878">
        <ele>450.39999389648</ele>
        <time>2019-07-08T07:30:10Z</time>
      </trkpt>
      <trkpt lat="44.78906" lon="5.14882">
        <ele>449.60000610352</ele>
        <time>2019-07-08T07:30:11Z</time>
      </trkpt>
      <trkpt lat="44.78903" lon="5.14883">
        <ele>449</ele>
        <time>2019-07-08T07:30:12Z</time>
      </trkpt>
      <trkpt lat="44.789" lon="5.14884">
        <ele>448.39999389648</ele>
        <time>2019-07-08T07:30:13Z</time>
      </trkpt>
      <trkpt lat="44.78897" lon="5.14885">
        <ele>447.79998779297</ele>
        <time>2019-07-08T07:30:14Z</time>
      </trkpt>
      <trkpt lat="44.78895" lon="5.14886">
        <ele>447</ele>
        <time>2019-07-08T07:30:15Z</time>
      </trkpt>
      <trkpt lat="44.78892" lon="5.14888">
        <ele>446.39999389648</ele>
        <time>2019-07-08T07:30:16Z</time>
      </trkpt>
      <trkpt lat="44.78889" lon="5.14888">
        <ele>445.60000610352</ele>
        <time>2019-07-08T07:30:17Z</time>
      </trkpt>
      <trkpt lat="44.78885" lon="5.14889">
        <ele>444.79998779297</ele>
        <time>2019-07-08T07:30:18Z</time>
      </trkpt>
      <trkpt lat="44.78881" lon="5.1489">
        <ele>444</ele>
        <time>2019-07-08T07:30:19Z</time>
      </trkpt>
      <trkpt lat="44.78879" lon="5.14891">
        <ele>443</ele>
        <time>2019-07-08T07:30:20Z</time>
      </trkpt>
      <trkpt lat="44.78876" lon="5.14891">
        <ele>442</ele>
        <time>2019-07-08T07:30:21Z</time>
      </trkpt>
      <trkpt lat="44.78873" lon="5.14891">
        <ele>441</ele>
        <time>2019-07-08T07:30:22Z</time>
      </trkpt>
      <trkpt lat="44.7887" lon="5.1489">
        <ele>439.79998779297</ele>
        <time>2019-07-08T07:30:23Z</time>
      </trkpt>
      <trkpt lat="44.78867" lon="5.14889">
        <ele>438.60000610352</ele>
        <time>2019-07-08T07:30:24Z</time>
      </trkpt>
      <trkpt lat="44.78864" lon="5.14887">
        <ele>437.60000610352</ele>
        <time>2019-07-08T07:30:25Z</time>
      </trkpt>
      <trkpt lat="44.78862" lon="5.14884">
        <ele>436.39999389648</ele>
        <time>2019-07-08T07:30:26Z</time>
      </trkpt>
      <trkpt lat="44.78861" lon="5.1488">
        <ele>435.39999389648</ele>
        <time>2019-07-08T07:30:27Z</time>
      </trkpt>
      <trkpt lat="44.78861" lon="5.14875">
        <ele>434.20001220703</ele>
        <time>2019-07-08T07:30:28Z</time>
      </trkpt>
      <trkpt lat="44.7886" lon="5.14869">
        <ele>433.39999389648</ele>
        <time>2019-07-08T07:30:29Z</time>
      </trkpt>
      <trkpt lat="44.78858" lon="5.14864">
        <ele>432.39999389648</ele>
        <time>2019-07-08T07:30:30Z</time>
      </trkpt>
      <trkpt lat="44.78855" lon="5.14859">
        <ele>431.39999389648</ele>
        <time>2019-07-08T07:30:31Z</time>
      </trkpt>
      <trkpt lat="44.78852" lon="5.14854">
        <ele>430.60000610352</ele>
        <time>2019-07-08T07:30:32Z</time>
      </trkpt>
      <trkpt lat="44.7885" lon="5.1485">
        <ele>429.60000610352</ele>
        <time>2019-07-08T07:30:33Z</time>
      </trkpt>
      <trkpt lat="44.78848" lon="5.14848">
        <ele>428.79998779297</ele>
        <time>2019-07-08T07:30:34Z</time>
      </trkpt>
      <trkpt lat="44.78846" lon="5.14846">
        <ele>428</ele>
        <time>2019-07-08T07:30:35Z</time>
      </trkpt>
      <trkpt lat="44.78845" lon="5.14843">
        <ele>426</ele>
        <time>2019-07-08T07:30:36Z</time>
      </trkpt>
      <trkpt lat="44.78843" lon="5.1484">
        <ele>425.20001220703</ele>
        <time>2019-07-08T07:30:37Z</time>
      </trkpt>
      <trkpt lat="44.78842" lon="5.14838">
        <ele>424.20001220703</ele>
        <time>2019-07-08T07:30:38Z</time>
      </trkpt>
      <trkpt lat="44.78836" lon="5.14828">
        <ele>423.79998779297</ele>
        <time>2019-07-08T07:30:40Z</time>
      </trkpt>
      <trkpt lat="44.78831" lon="5.14821">
        <ele>423.39999389648</ele>
        <time>2019-07-08T07:30:41Z</time>
      </trkpt>
      <trkpt lat="44.78826" lon="5.14816">
        <ele>422.79998779297</ele>
        <time>2019-07-08T07:30:42Z</time>
      </trkpt>
      <trkpt lat="44.78821" lon="5.14811">
        <ele>422.20001220703</ele>
        <time>2019-07-08T07:30:43Z</time>
      </trkpt>
      <trkpt lat="44.78817" lon="5.14808">
        <ele>421.60000610352</ele>
        <time>2019-07-08T07:30:44Z</time>
      </trkpt>
      <trkpt lat="44.78814" lon="5.14806">
        <ele>420.60000610352</ele>
        <time>2019-07-08T07:30:45Z</time>
      </trkpt>
      <trkpt lat="44.78812" lon="5.14804">
        <ele>419.79998779297</ele>
        <time>2019-07-08T07:30:46Z</time>
      </trkpt>
      <trkpt lat="44.7881" lon="5.14804">
        <ele>419</ele>
        <time>2019-07-08T07:30:47Z</time>
      </trkpt>
      <trkpt lat="44.78808" lon="5.14805">
        <ele>418.20001220703</ele>
        <time>2019-07-08T07:30:48Z</time>
      </trkpt>
      <trkpt lat="44.78806" lon="5.14805">
        <ele>417.39999389648</ele>
        <time>2019-07-08T07:30:49Z</time>
      </trkpt>
      <trkpt lat="44.78803" lon="5.14805">
        <ele>416.79998779297</ele>
        <time>2019-07-08T07:30:50Z</time>
      </trkpt>
      <trkpt lat="44.78801" lon="5.14805">
        <ele>416</ele>
        <time>2019-07-08T07:30:51Z</time>
      </trkpt>
      <trkpt lat="44.78799" lon="5.14806">
        <ele>415.20001220703</ele>
        <time>2019-07-08T07:30:52Z</time>
      </trkpt>
      <trkpt lat="44.78797" lon="5.14807">
        <ele>415.20001220703</ele>
        <time>2019-07-08T07:30:53Z</time>
      </trkpt>
      <trkpt lat="44.78795" lon="5.14808">
        <ele>415.20001220703</ele>
        <time>2019-07-08T07:30:54Z</time>
      </trkpt>
      <trkpt lat="44.78783" lon="5.14811">
        <ele>414.79998779297</ele>
        <time>2019-07-08T07:30:58Z</time>
      </trkpt>
      <trkpt lat="44.78779" lon="5.14812">
        <ele>414.39999389648</ele>
        <time>2019-07-08T07:30:59Z</time>
      </trkpt>
      <trkpt lat="44.78774" lon="5.14812">
        <ele>414</ele>
        <time>2019-07-08T07:31:00Z</time>
      </trkpt>
      <trkpt lat="44.78769" lon="5.14812">
        <ele>413</ele>
        <time>2019-07-08T07:31:01Z</time>
      </trkpt>
      <trkpt lat="44.78759" lon="5.14813">
        <ele>412.60000610352</ele>
        <time>2019-07-08T07:31:03Z</time>
      </trkpt>
      <trkpt lat="44.78755" lon="5.14813">
        <ele>412.20001220703</ele>
        <time>2019-07-08T07:31:04Z</time>
      </trkpt>
      <trkpt lat="44.78752" lon="5.14814">
        <ele>411.79998779297</ele>
        <time>2019-07-08T07:31:05Z</time>
      </trkpt>
      <trkpt lat="44.7875" lon="5.14814">
        <ele>411.39999389648</ele>
        <time>2019-07-08T07:31:06Z</time>
      </trkpt>
      <trkpt lat="44.78748" lon="5.14815">
        <ele>411</ele>
        <time>2019-07-08T07:31:07Z</time>
      </trkpt>
      <trkpt lat="44.78746" lon="5.14814">
        <ele>411</ele>
        <time>2019-07-08T07:31:08Z</time>
      </trkpt>
      <trkpt lat="44.78743" lon="5.14814">
        <ele>410.60000610352</ele>
        <time>2019-07-08T07:31:09Z</time>
      </trkpt>
      <trkpt lat="44.78741" lon="5.14816">
        <ele>410.20001220703</ele>
        <time>2019-07-08T07:31:10Z</time>
      </trkpt>
      <trkpt lat="44.78738" lon="5.14818">
        <ele>409.79998779297</ele>
        <time>2019-07-08T07:31:11Z</time>
      </trkpt>
      <trkpt lat="44.78735" lon="5.1482">
        <ele>409.39999389648</ele>
        <time>2019-07-08T07:31:12Z</time>
      </trkpt>
      <trkpt lat="44.78732" lon="5.14822">
        <ele>409</ele>
        <time>2019-07-08T07:31:13Z</time>
      </trkpt>
      <trkpt lat="44.78725" lon="5.14823">
        <ele>409</ele>
        <time>2019-07-08T07:31:15Z</time>
      </trkpt>
      <trkpt lat="44.78721" lon="5.14822">
        <ele>409</ele>
        <time>2019-07-08T07:31:16Z</time>
      </trkpt>
      <trkpt lat="44.78709" lon="5.14815">
        <ele>408.60000610352</ele>
        <time>2019-07-08T07:31:19Z</time>
      </trkpt>
      <trkpt lat="44.78705" lon="5.14812">
        <ele>408.20001220703</ele>
        <time>2019-07-08T07:31:20Z</time>
      </trkpt>
      <trkpt lat="44.78701" lon="5.14809">
        <ele>407.79998779297</ele>
        <time>2019-07-08T07:31:21Z</time>
      </trkpt>
      <trkpt lat="44.78697" lon="5.14807">
        <ele>407.39999389648</ele>
        <time>2019-07-08T07:31:22Z</time>
      </trkpt>
      <trkpt lat="44.78693" lon="5.14804">
        <ele>407</ele>
        <time>2019-07-08T07:31:23Z</time>
      </trkpt>
      <trkpt lat="44.78688" lon="5.14801">
        <ele>407</ele>
        <time>2019-07-08T07:31:24Z</time>
      </trkpt>
      <trkpt lat="44.78684" lon="5.14798">
        <ele>406.39999389648</ele>
        <time>2019-07-08T07:31:25Z</time>
      </trkpt>
      <trkpt lat="44.78679" lon="5.14795">
        <ele>406</ele>
        <time>2019-07-08T07:31:26Z</time>
      </trkpt>
      <trkpt lat="44.78674" lon="5.14791">
        <ele>405.60000610352</ele>
        <time>2019-07-08T07:31:27Z</time>
      </trkpt>
      <trkpt lat="44.78668" lon="5.14788">
        <ele>405.20001220703</ele>
        <time>2019-07-08T07:31:28Z</time>
      </trkpt>
      <trkpt lat="44.78662" lon="5.14785">
        <ele>404.60000610352</ele>
        <time>2019-07-08T07:31:29Z</time>
      </trkpt>
      <trkpt lat="44.78651" lon="5.1478">
        <ele>404.20001220703</ele>
        <time>2019-07-08T07:31:31Z</time>
      </trkpt>
      <trkpt lat="44.78644" lon="5.14778">
        <ele>403.79998779297</ele>
        <time>2019-07-08T07:31:32Z</time>
      </trkpt>
      <trkpt lat="44.78638" lon="5.14777">
        <ele>403.39999389648</ele>
        <time>2019-07-08T07:31:33Z</time>
      </trkpt>
      <trkpt lat="44.78633" lon="5.14776">
        <ele>403</ele>
        <time>2019-07-08T07:31:34Z</time>
      </trkpt>
      <trkpt lat="44.78629" lon="5.14775">
        <ele>402.60000610352</ele>
        <time>2019-07-08T07:31:35Z</time>
      </trkpt>
      <trkpt lat="44.78623" lon="5.14774">
        <ele>402</ele>
        <time>2019-07-08T07:31:36Z</time>
      </trkpt>
      <trkpt lat="44.78617" lon="5.14772">
        <ele>401.60000610352</ele>
        <time>2019-07-08T07:31:37Z</time>
      </trkpt>
      <trkpt lat="44.78612" lon="5.14771">
        <ele>401.20001220703</ele>
        <time>2019-07-08T07:31:38Z</time>
      </trkpt>
      <trkpt lat="44.78607" lon="5.14771">
        <ele>400.60000610352</ele>
        <time>2019-07-08T07:31:39Z</time>
      </trkpt>
      <trkpt lat="44.78603" lon="5.14771">
        <ele>400</ele>
        <time>2019-07-08T07:31:40Z</time>
      </trkpt>
      <trkpt lat="44.78599" lon="5.14772">
        <ele>399.20001220703</ele>
        <time>2019-07-08T07:31:41Z</time>
      </trkpt>
      <trkpt lat="44.78595" lon="5.14773">
        <ele>398.39999389648</ele>
        <time>2019-07-08T07:31:42Z</time>
      </trkpt>
      <trkpt lat="44.78592" lon="5.14775">
        <ele>397.60000610352</ele>
        <time>2019-07-08T07:31:43Z</time>
      </trkpt>
      <trkpt lat="44.78588" lon="5.14776">
        <ele>396.79998779297</ele>
        <time>2019-07-08T07:31:44Z</time>
      </trkpt>
      <trkpt lat="44.78584" lon="5.14777">
        <ele>396.20001220703</ele>
        <time>2019-07-08T07:31:45Z</time>
      </trkpt>
      <trkpt lat="44.7858" lon="5.14778">
        <ele>395.60000610352</ele>
        <time>2019-07-08T07:31:46Z</time>
      </trkpt>
      <trkpt lat="44.78576" lon="5.14779">
        <ele>395</ele>
        <time>2019-07-08T07:31:47Z</time>
      </trkpt>
      <trkpt lat="44.78573" lon="5.14779">
        <ele>394.20001220703</ele>
        <time>2019-07-08T07:31:48Z</time>
      </trkpt>
      <trkpt lat="44.78571" lon="5.14779">
        <ele>393.60000610352</ele>
        <time>2019-07-08T07:31:49Z</time>
      </trkpt>
      <trkpt lat="44.7857" lon="5.14778">
        <ele>392.20001220703</ele>
        <time>2019-07-08T07:31:50Z</time>
      </trkpt>
      <trkpt lat="44.7857" lon="5.14778">
        <ele>391.60000610352</ele>
        <time>2019-07-08T07:31:51Z</time>
      </trkpt>
      <trkpt lat="44.7857" lon="5.14778">
        <ele>391.20001220703</ele>
        <time>2019-07-08T07:31:52Z</time>
      </trkpt>
      <trkpt lat="44.7857" lon="5.14778">
        <ele>390.79998779297</ele>
        <time>2019-07-08T07:31:53Z</time>
      </trkpt>
      <trkpt lat="44.78569" lon="5.14778">
        <ele>390.39999389648</ele>
        <time>2019-07-08T07:31:54Z</time>
      </trkpt>
      <trkpt lat="44.78568" lon="5.14777">
        <ele>390</ele>
        <time>2019-07-08T07:31:55Z</time>
      </trkpt>
      <trkpt lat="44.78566" lon="5.14776">
        <ele>389.60000610352</ele>
        <time>2019-07-08T07:31:56Z</time>
      </trkpt>
      <trkpt lat="44.78563" lon="5.14774">
        <ele>389</ele>
        <time>2019-07-08T07:31:58Z</time>
      </trkpt>
      <trkpt lat="44.78562" lon="5.14772">
        <ele>388.60000610352</ele>
        <time>2019-07-08T07:31:59Z</time>
      </trkpt>
      <trkpt lat="44.7856" lon="5.14769">
        <ele>388.20001220703</ele>
        <time>2019-07-08T07:32:00Z</time>
      </trkpt>
      <trkpt lat="44.78559" lon="5.14765">
        <ele>387.39999389648</ele>
        <time>2019-07-08T07:32:01Z</time>
      </trkpt>
      <trkpt lat="44.78557" lon="5.14762">
        <ele>386.79998779297</ele>
        <time>2019-07-08T07:32:02Z</time>
      </trkpt>
      <trkpt lat="44.78555" lon="5.14759">
        <ele>386</ele>
        <time>2019-07-08T07:32:03Z</time>
      </trkpt>
      <trkpt lat="44.78554" lon="5.14755">
        <ele>385.39999389648</ele>
        <time>2019-07-08T07:32:04Z</time>
      </trkpt>
      <trkpt lat="44.78552" lon="5.14753">
        <ele>384.60000610352</ele>
        <time>2019-07-08T07:32:05Z</time>
      </trkpt>
      <trkpt lat="44.78552" lon="5.14753">
        <ele>383.79998779297</ele>
        <time>2019-07-08T07:32:06Z</time>
      </trkpt>
      <trkpt lat="44.78552" lon="5.14753">
        <ele>383.20001220703</ele>
        <time>2019-07-08T07:32:07Z</time>
      </trkpt>
      <trkpt lat="44.78552" lon="5.14753">
        <ele>382.39999389648</ele>
        <time>2019-07-08T07:32:08Z</time>
      </trkpt>
      <trkpt lat="44.78552" lon="5.14753">
        <ele>381.60000610352</ele>
        <time>2019-07-08T07:32:09Z</time>
      </trkpt>
      <trkpt lat="44.78552" lon="5.14753">
        <ele>381</ele>
        <time>2019-07-08T07:32:10Z</time>
      </trkpt>
      <trkpt lat="44.78551" lon="5.14751">
        <ele>380.20001220703</ele>
        <time>2019-07-08T07:32:11Z</time>
      </trkpt>
      <trkpt lat="44.7855" lon="5.14748">
        <ele>380.20001220703</ele>
        <time>2019-07-08T07:32:12Z</time>
      </trkpt>
      <trkpt lat="44.78535" lon="5.14732">
        <ele>380.20001220703</ele>
        <time>2019-07-08T07:32:16Z</time>
      </trkpt>
      <trkpt lat="44.78524" lon="5.1473">
        <ele>379.79998779297</ele>
        <time>2019-07-08T07:32:18Z</time>
      </trkpt>
      <trkpt lat="44.78519" lon="5.14731">
        <ele>379.39999389648</ele>
        <time>2019-07-08T07:32:19Z</time>
      </trkpt>
      <trkpt lat="44.78514" lon="5.14734">
        <ele>379</ele>
        <time>2019-07-08T07:32:20Z</time>
      </trkpt>
      <trkpt lat="44.78509" lon="5.14737">
        <ele>378.39999389648</ele>
        <time>2019-07-08T07:32:21Z</time>
      </trkpt>
      <trkpt lat="44.78505" lon="5.14741">
        <ele>378</ele>
        <time>2019-07-08T07:32:22Z</time>
      </trkpt>
      <trkpt lat="44.78495" lon="5.14751">
        <ele>378</ele>
        <time>2019-07-08T07:32:24Z</time>
      </trkpt>
      <trkpt lat="44.78486" lon="5.14759">
        <ele>378</ele>
        <time>2019-07-08T07:32:26Z</time>
      </trkpt>
      <trkpt lat="44.78481" lon="5.14761">
        <ele>377.60000610352</ele>
        <time>2019-07-08T07:32:27Z</time>
      </trkpt>
      <trkpt lat="44.78475" lon="5.14761">
        <ele>377.20001220703</ele>
        <time>2019-07-08T07:32:28Z</time>
      </trkpt>
      <trkpt lat="44.7847" lon="5.1476">
        <ele>376.60000610352</ele>
        <time>2019-07-08T07:32:29Z</time>
      </trkpt>
      <trkpt lat="44.78465" lon="5.14761">
        <ele>376.20001220703</ele>
        <time>2019-07-08T07:32:30Z</time>
      </trkpt>
      <trkpt lat="44.7846" lon="5.14763">
        <ele>375.79998779297</ele>
        <time>2019-07-08T07:32:31Z</time>
      </trkpt>
      <trkpt lat="44.78457" lon="5.14766">
        <ele>375.79998779297</ele>
        <time>2019-07-08T07:32:32Z</time>
      </trkpt>
      <trkpt lat="44.78437" lon="5.14773">
        <ele>375.79998779297</ele>
        <time>2019-07-08T07:32:38Z</time>
      </trkpt>
      <trkpt lat="44.78422" lon="5.14778">
        <ele>375.79998779297</ele>
        <time>2019-07-08T07:32:43Z</time>
      </trkpt>
      <trkpt lat="44.78406" lon="5.14784">
        <ele>375.79998779297</ele>
        <time>2019-07-08T07:32:49Z</time>
      </trkpt>
      <trkpt lat="44.78389" lon="5.14783">
        <ele>375.79998779297</ele>
        <time>2019-07-08T07:32:56Z</time>
      </trkpt>
      <trkpt lat="44.78367" lon="5.14777">
        <ele>375.79998779297</ele>
        <time>2019-07-08T07:33:04Z</time>
      </trkpt>
      <trkpt lat="44.78361" lon="5.14777">
        <ele>376.20001220703</ele>
        <time>2019-07-08T07:33:06Z</time>
      </trkpt>
      <trkpt lat="44.78358" lon="5.14777">
        <ele>376.60000610352</ele>
        <time>2019-07-08T07:33:07Z</time>
      </trkpt>
      <trkpt lat="44.78356" lon="5.14776">
        <ele>377</ele>
        <time>2019-07-08T07:33:08Z</time>
      </trkpt>
      <trkpt lat="44.78353" lon="5.14776">
        <ele>377.39999389648</ele>
        <time>2019-07-08T07:33:09Z</time>
      </trkpt>
      <trkpt lat="44.7835" lon="5.14776">
        <ele>377.79998779297</ele>
        <time>2019-07-08T07:33:10Z</time>
      </trkpt>
      <trkpt lat="44.78326" lon="5.14782">
        <ele>377.79998779297</ele>
        <time>2019-07-08T07:33:17Z</time>
      </trkpt>
      <trkpt lat="44.78317" lon="5.14787">
        <ele>378.20001220703</ele>
        <time>2019-07-08T07:33:20Z</time>
      </trkpt>
      <trkpt lat="44.78314" lon="5.14788">
        <ele>378.60000610352</ele>
        <time>2019-07-08T07:33:21Z</time>
      </trkpt>
      <trkpt lat="44.7831" lon="5.1479">
        <ele>379</ele>
        <time>2019-07-08T07:33:22Z</time>
      </trkpt>
      <trkpt lat="44.78307" lon="5.14791">
        <ele>379.39999389648</ele>
        <time>2019-07-08T07:33:23Z</time>
      </trkpt>
      <trkpt lat="44.78304" lon="5.14793">
        <ele>379.79998779297</ele>
        <time>2019-07-08T07:33:24Z</time>
      </trkpt>
      <trkpt lat="44.78297" lon="5.14795">
        <ele>379.79998779297</ele>
        <time>2019-07-08T07:33:26Z</time>
      </trkpt>
      <trkpt lat="44.78271" lon="5.148">
        <ele>379.79998779297</ele>
        <time>2019-07-08T07:33:33Z</time>
      </trkpt>
      <trkpt lat="44.78246" lon="5.14797">
        <ele>379.79998779297</ele>
        <time>2019-07-08T07:33:39Z</time>
      </trkpt>
      <trkpt lat="44.78226" lon="5.14789">
        <ele>379.79998779297</ele>
        <time>2019-07-08T07:33:44Z</time>
      </trkpt>
      <trkpt lat="44.78194" lon="5.14778">
        <ele>379.79998779297</ele>
        <time>2019-07-08T07:33:51Z</time>
      </trkpt>
      <trkpt lat="44.7817" lon="5.14771">
        <ele>379.79998779297</ele>
        <time>2019-07-08T07:33:56Z</time>
      </trkpt>
      <trkpt lat="44.7816" lon="5.14768">
        <ele>379.79998779297</ele>
        <time>2019-07-08T07:33:58Z</time>
      </trkpt>
      <trkpt lat="44.78151" lon="5.14765">
        <ele>379.79998779297</ele>
        <time>2019-07-08T07:34:00Z</time>
      </trkpt>
      <trkpt lat="44.78127" lon="5.14758">
        <ele>379.79998779297</ele>
        <time>2019-07-08T07:34:05Z</time>
      </trkpt>
      <trkpt lat="44.78117" lon="5.14754">
        <ele>379.79998779297</ele>
        <time>2019-07-08T07:34:07Z</time>
      </trkpt>
      <trkpt lat="44.781" lon="5.1474">
        <ele>379.79998779297</ele>
        <time>2019-07-08T07:34:11Z</time>
      </trkpt>
      <trkpt lat="44.78073" lon="5.14712">
        <ele>379.79998779297</ele>
        <time>2019-07-08T07:34:18Z</time>
      </trkpt>
      <trkpt lat="44.78046" lon="5.14684">
        <ele>379.79998779297</ele>
        <time>2019-07-08T07:34:25Z</time>
      </trkpt>
      <trkpt lat="44.78031" lon="5.14669">
        <ele>379.79998779297</ele>
        <time>2019-07-08T07:34:29Z</time>
      </trkpt>
      <trkpt lat="44.7802" lon="5.14658">
        <ele>379.79998779297</ele>
        <time>2019-07-08T07:34:32Z</time>
      </trkpt>
      <trkpt lat="44.78005" lon="5.14639">
        <ele>379.79998779297</ele>
        <time>2019-07-08T07:34:37Z</time>
      </trkpt>
      <trkpt lat="44.78" lon="5.14621">
        <ele>379.79998779297</ele>
        <time>2019-07-08T07:34:40Z</time>
      </trkpt>
      <trkpt lat="44.77998" lon="5.14614">
        <ele>379.79998779297</ele>
        <time>2019-07-08T07:34:41Z</time>
      </trkpt>
      <trkpt lat="44.77993" lon="5.14596">
        <ele>379.20001220703</ele>
        <time>2019-07-08T07:34:43Z</time>
      </trkpt>
      <trkpt lat="44.77989" lon="5.14587">
        <ele>378.79998779297</ele>
        <time>2019-07-08T07:34:44Z</time>
      </trkpt>
      <trkpt lat="44.77984" lon="5.14578">
        <ele>378.20001220703</ele>
        <time>2019-07-08T07:34:45Z</time>
      </trkpt>
      <trkpt lat="44.77979" lon="5.14571">
        <ele>377.60000610352</ele>
        <time>2019-07-08T07:34:46Z</time>
      </trkpt>
      <trkpt lat="44.77972" lon="5.14564">
        <ele>377</ele>
        <time>2019-07-08T07:34:47Z</time>
      </trkpt>
      <trkpt lat="44.77965" lon="5.14559">
        <ele>376.60000610352</ele>
        <time>2019-07-08T07:34:48Z</time>
      </trkpt>
      <trkpt lat="44.77961" lon="5.14555">
        <ele>376.20001220703</ele>
        <time>2019-07-08T07:34:49Z</time>
      </trkpt>
      <trkpt lat="44.77957" lon="5.14551">
        <ele>375.79998779297</ele>
        <time>2019-07-08T07:34:50Z</time>
      </trkpt>
      <trkpt lat="44.77953" lon="5.14548">
        <ele>375.20001220703</ele>
        <time>2019-07-08T07:34:51Z</time>
      </trkpt>
      <trkpt lat="44.7795" lon="5.14546">
        <ele>374.79998779297</ele>
        <time>2019-07-08T07:34:52Z</time>
      </trkpt>
      <trkpt lat="44.77936" lon="5.14533">
        <ele>375.20001220703</ele>
        <time>2019-07-08T07:34:57Z</time>
      </trkpt>
      <trkpt lat="44.77934" lon="5.1453">
        <ele>375.79998779297</ele>
        <time>2019-07-08T07:34:58Z</time>
      </trkpt>
      <trkpt lat="44.77933" lon="5.14527">
        <ele>376.20001220703</ele>
        <time>2019-07-08T07:34:59Z</time>
      </trkpt>
      <trkpt lat="44.77933" lon="5.14524">
        <ele>376.60000610352</ele>
        <time>2019-07-08T07:35:00Z</time>
      </trkpt>
      <trkpt lat="44.77932" lon="5.14521">
        <ele>377</ele>
        <time>2019-07-08T07:35:01Z</time>
      </trkpt>
      <trkpt lat="44.77932" lon="5.14518">
        <ele>377</ele>
        <time>2019-07-08T07:35:02Z</time>
      </trkpt>
      <trkpt lat="44.77928" lon="5.14503">
        <ele>377.39999389648</ele>
        <time>2019-07-08T07:35:07Z</time>
      </trkpt>
      <trkpt lat="44.77927" lon="5.145">
        <ele>378.20001220703</ele>
        <time>2019-07-08T07:35:08Z</time>
      </trkpt>
      <trkpt lat="44.77926" lon="5.14497">
        <ele>378.60000610352</ele>
        <time>2019-07-08T07:35:09Z</time>
      </trkpt>
      <trkpt lat="44.77926" lon="5.14493">
        <ele>379</ele>
        <time>2019-07-08T07:35:10Z</time>
      </trkpt>
      <trkpt lat="44.77924" lon="5.14483">
        <ele>379</ele>
        <time>2019-07-08T07:35:15Z</time>
      </trkpt>
      <trkpt lat="44.77923" lon="5.14476">
        <ele>379.39999389648</ele>
        <time>2019-07-08T07:35:18Z</time>
      </trkpt>
      <trkpt lat="44.77923" lon="5.14473">
        <ele>380</ele>
        <time>2019-07-08T07:35:19Z</time>
      </trkpt>
      <trkpt lat="44.77923" lon="5.14471">
        <ele>380.39999389648</ele>
        <time>2019-07-08T07:35:20Z</time>
      </trkpt>
      <trkpt lat="44.77922" lon="5.14468">
        <ele>380.79998779297</ele>
        <time>2019-07-08T07:35:21Z</time>
      </trkpt>
      <trkpt lat="44.77922" lon="5.14465">
        <ele>381.20001220703</ele>
        <time>2019-07-08T07:35:22Z</time>
      </trkpt>
      <trkpt lat="44.77917" lon="5.14448">
        <ele>381.60000610352</ele>
        <time>2019-07-08T07:35:29Z</time>
      </trkpt>
      <trkpt lat="44.77916" lon="5.14445">
        <ele>382</ele>
        <time>2019-07-08T07:35:30Z</time>
      </trkpt>
      <trkpt lat="44.77916" lon="5.14443">
        <ele>382.60000610352</ele>
        <time>2019-07-08T07:35:31Z</time>
      </trkpt>
      <trkpt lat="44.77915" lon="5.14441">
        <ele>383</ele>
        <time>2019-07-08T07:35:32Z</time>
      </trkpt>
      <trkpt lat="44.77913" lon="5.1444">
        <ele>383.39999389648</ele>
        <time>2019-07-08T07:35:33Z</time>
      </trkpt>
      <trkpt lat="44.77913" lon="5.14437">
        <ele>383.39999389648</ele>
        <time>2019-07-08T07:35:34Z</time>
      </trkpt>
      <trkpt lat="44.77912" lon="5.14434">
        <ele>383.39999389648</ele>
        <time>2019-07-08T07:35:35Z</time>
      </trkpt>
      <trkpt lat="44.77912" lon="5.14426">
        <ele>383.79998779297</ele>
        <time>2019-07-08T07:35:38Z</time>
      </trkpt>
      <trkpt lat="44.77912" lon="5.14423">
        <ele>384.20001220703</ele>
        <time>2019-07-08T07:35:39Z</time>
      </trkpt>
      <trkpt lat="44.77912" lon="5.14421">
        <ele>384.60000610352</ele>
        <time>2019-07-08T07:35:40Z</time>
      </trkpt>
      <trkpt lat="44.77911" lon="5.14419">
        <ele>385</ele>
        <time>2019-07-08T07:35:41Z</time>
      </trkpt>
      <trkpt lat="44.7791" lon="5.14417">
        <ele>385.60000610352</ele>
        <time>2019-07-08T07:35:42Z</time>
      </trkpt>
      <trkpt lat="44.77904" lon="5.14406">
        <ele>385.60000610352</ele>
        <time>2019-07-08T07:35:46Z</time>
      </trkpt>
      <trkpt lat="44.77896" lon="5.14396">
        <ele>385.60000610352</ele>
        <time>2019-07-08T07:35:52Z</time>
      </trkpt>
      <trkpt lat="44.77889" lon="5.14386">
        <ele>386</ele>
        <time>2019-07-08T07:35:58Z</time>
      </trkpt>
      <trkpt lat="44.77888" lon="5.14384">
        <ele>386.39999389648</ele>
        <time>2019-07-08T07:35:59Z</time>
      </trkpt>
      <trkpt lat="44.77887" lon="5.14383">
        <ele>386.79998779297</ele>
        <time>2019-07-08T07:36:00Z</time>
      </trkpt>
      <trkpt lat="44.77886" lon="5.14381">
        <ele>387.20001220703</ele>
        <time>2019-07-08T07:36:01Z</time>
      </trkpt>
      <trkpt lat="44.77885" lon="5.1438">
        <ele>387.60000610352</ele>
        <time>2019-07-08T07:36:02Z</time>
      </trkpt>
      <trkpt lat="44.77883" lon="5.14377">
        <ele>388</ele>
        <time>2019-07-08T07:36:04Z</time>
      </trkpt>
      <trkpt lat="44.77882" lon="5.14376">
        <ele>388.39999389648</ele>
        <time>2019-07-08T07:36:05Z</time>
      </trkpt>
      <trkpt lat="44.77881" lon="5.14374">
        <ele>388.79998779297</ele>
        <time>2019-07-08T07:36:06Z</time>
      </trkpt>
      <trkpt lat="44.7788" lon="5.14373">
        <ele>389.20001220703</ele>
        <time>2019-07-08T07:36:07Z</time>
      </trkpt>
      <trkpt lat="44.77879" lon="5.14371">
        <ele>389.60000610352</ele>
        <time>2019-07-08T07:36:08Z</time>
      </trkpt>
      <trkpt lat="44.77876" lon="5.14367">
        <ele>390</ele>
        <time>2019-07-08T07:36:11Z</time>
      </trkpt>
      <trkpt lat="44.77875" lon="5.14365">
        <ele>390.60000610352</ele>
        <time>2019-07-08T07:36:12Z</time>
      </trkpt>
      <trkpt lat="44.77874" lon="5.14364">
        <ele>391</ele>
        <time>2019-07-08T07:36:13Z</time>
      </trkpt>
      <trkpt lat="44.77873" lon="5.14363">
        <ele>391.39999389648</ele>
        <time>2019-07-08T07:36:14Z</time>
      </trkpt>
      <trkpt lat="44.77871" lon="5.14361">
        <ele>391.79998779297</ele>
        <time>2019-07-08T07:36:15Z</time>
      </trkpt>
      <trkpt lat="44.77858" lon="5.14347">
        <ele>391.79998779297</ele>
        <time>2019-07-08T07:36:24Z</time>
      </trkpt>
      <trkpt lat="44.77848" lon="5.14339">
        <ele>391.79998779297</ele>
        <time>2019-07-08T07:36:30Z</time>
      </trkpt>
      <trkpt lat="44.77842" lon="5.14333">
        <ele>391.79998779297</ele>
        <time>2019-07-08T07:36:34Z</time>
      </trkpt>
      <trkpt lat="44.77839" lon="5.1433">
        <ele>391.79998779297</ele>
        <time>2019-07-08T07:36:36Z</time>
      </trkpt>
      <trkpt lat="44.77835" lon="5.14327">
        <ele>391.79998779297</ele>
        <time>2019-07-08T07:36:38Z</time>
      </trkpt>
      <trkpt lat="44.77829" lon="5.14324">
        <ele>391.79998779297</ele>
        <time>2019-07-08T07:36:41Z</time>
      </trkpt>
      <trkpt lat="44.77813" lon="5.14316">
        <ele>391.79998779297</ele>
        <time>2019-07-08T07:36:48Z</time>
      </trkpt>
      <trkpt lat="44.77806" lon="5.14313">
        <ele>392.20001220703</ele>
        <time>2019-07-08T07:36:51Z</time>
      </trkpt>
      <trkpt lat="44.77804" lon="5.14313">
        <ele>392.60000610352</ele>
        <time>2019-07-08T07:36:52Z</time>
      </trkpt>
      <trkpt lat="44.77802" lon="5.14313">
        <ele>393</ele>
        <time>2019-07-08T07:36:53Z</time>
      </trkpt>
      <trkpt lat="44.778" lon="5.14312">
        <ele>393.39999389648</ele>
        <time>2019-07-08T07:36:54Z</time>
      </trkpt>
      <trkpt lat="44.77798" lon="5.14312">
        <ele>393.79998779297</ele>
        <time>2019-07-08T07:36:55Z</time>
      </trkpt>
      <trkpt lat="44.77785" lon="5.14308">
        <ele>393.79998779297</ele>
        <time>2019-07-08T07:37:01Z</time>
      </trkpt>
      <trkpt lat="44.77776" lon="5.14305">
        <ele>393.79998779297</ele>
        <time>2019-07-08T07:37:05Z</time>
      </trkpt>
      <trkpt lat="44.77773" lon="5.14301">
        <ele>393.79998779297</ele>
        <time>2019-07-08T07:37:07Z</time>
      </trkpt>
      <trkpt lat="44.77769" lon="5.14287">
        <ele>393.79998779297</ele>
        <time>2019-07-08T07:37:12Z</time>
      </trkpt>
      <trkpt lat="44.77769" lon="5.1427">
        <ele>393.79998779297</ele>
        <time>2019-07-08T07:37:18Z</time>
      </trkpt>
      <trkpt lat="44.77769" lon="5.14265">
        <ele>393.79998779297</ele>
        <time>2019-07-08T07:37:20Z</time>
      </trkpt>
      <trkpt lat="44.77767" lon="5.14257">
        <ele>393.79998779297</ele>
        <time>2019-07-08T07:37:23Z</time>
      </trkpt>
      <trkpt lat="44.77766" lon="5.14253">
        <ele>393.79998779297</ele>
        <time>2019-07-08T07:37:24Z</time>
      </trkpt>
      <trkpt lat="44.77762" lon="5.14233">
        <ele>393.79998779297</ele>
        <time>2019-07-08T07:37:28Z</time>
      </trkpt>
      <trkpt lat="44.77759" lon="5.14207">
        <ele>393.79998779297</ele>
        <time>2019-07-08T07:37:34Z</time>
      </trkpt>
      <trkpt lat="44.7776" lon="5.14204">
        <ele>393.79998779297</ele>
        <time>2019-07-08T07:37:39Z</time>
      </trkpt>
      <trkpt lat="44.77759" lon="5.14196">
        <ele>393.79998779297</ele>
        <time>2019-07-08T07:37:43Z</time>
      </trkpt>
      <trkpt lat="44.77754" lon="5.14184">
        <ele>393.79998779297</ele>
        <time>2019-07-08T07:37:47Z</time>
      </trkpt>
      <trkpt lat="44.77745" lon="5.14165">
        <ele>393.79998779297</ele>
        <time>2019-07-08T07:37:53Z</time>
      </trkpt>
      <trkpt lat="44.77728" lon="5.14155">
        <ele>393.79998779297</ele>
        <time>2019-07-08T07:38:00Z</time>
      </trkpt>
      <trkpt lat="44.77713" lon="5.14147">
        <ele>393.79998779297</ele>
        <time>2019-07-08T07:38:06Z</time>
      </trkpt>
      <trkpt lat="44.77695" lon="5.14135">
        <ele>393.79998779297</ele>
        <time>2019-07-08T07:38:13Z</time>
      </trkpt>
      <trkpt lat="44.77676" lon="5.14117">
        <ele>393.79998779297</ele>
        <time>2019-07-08T07:38:20Z</time>
      </trkpt>
      <trkpt lat="44.7766" lon="5.14092">
        <ele>393.79998779297</ele>
        <time>2019-07-08T07:38:27Z</time>
      </trkpt>
      <trkpt lat="44.77649" lon="5.14071">
        <ele>393.79998779297</ele>
        <time>2019-07-08T07:38:33Z</time>
      </trkpt>
      <trkpt lat="44.77637" lon="5.14043">
        <ele>393.79998779297</ele>
        <time>2019-07-08T07:38:39Z</time>
      </trkpt>
      <trkpt lat="44.77629" lon="5.14009">
        <ele>393.79998779297</ele>
        <time>2019-07-08T07:38:46Z</time>
      </trkpt>
      <trkpt lat="44.77623" lon="5.13984">
        <ele>393.79998779297</ele>
        <time>2019-07-08T07:38:51Z</time>
      </trkpt>
      <trkpt lat="44.77617" lon="5.13973">
        <ele>393.79998779297</ele>
        <time>2019-07-08T07:38:53Z</time>
      </trkpt>
      <trkpt lat="44.77603" lon="5.13948">
        <ele>393.39999389648</ele>
        <time>2019-07-08T07:38:57Z</time>
      </trkpt>
      <trkpt lat="44.776" lon="5.13941">
        <ele>392.79998779297</ele>
        <time>2019-07-08T07:38:58Z</time>
      </trkpt>
      <trkpt lat="44.77597" lon="5.13934">
        <ele>392.39999389648</ele>
        <time>2019-07-08T07:38:59Z</time>
      </trkpt>
      <trkpt lat="44.77595" lon="5.13927">
        <ele>392</ele>
        <time>2019-07-08T07:39:00Z</time>
      </trkpt>
      <trkpt lat="44.77592" lon="5.1392">
        <ele>391.60000610352</ele>
        <time>2019-07-08T07:39:01Z</time>
      </trkpt>
      <trkpt lat="44.77582" lon="5.13893">
        <ele>391.60000610352</ele>
        <time>2019-07-08T07:39:05Z</time>
      </trkpt>
      <trkpt lat="44.77571" lon="5.13858">
        <ele>391.60000610352</ele>
        <time>2019-07-08T07:39:11Z</time>
      </trkpt>
      <trkpt lat="44.77557" lon="5.13821">
        <ele>391.60000610352</ele>
        <time>2019-07-08T07:39:18Z</time>
      </trkpt>
      <trkpt lat="44.77543" lon="5.13776">
        <ele>391.60000610352</ele>
        <time>2019-07-08T07:39:25Z</time>
      </trkpt>
      <trkpt lat="44.77534" lon="5.13745">
        <ele>391.20001220703</ele>
        <time>2019-07-08T07:39:29Z</time>
      </trkpt>
      <trkpt lat="44.77531" lon="5.13737">
        <ele>390.79998779297</ele>
        <time>2019-07-08T07:39:30Z</time>
      </trkpt>
      <trkpt lat="44.77529" lon="5.13728">
        <ele>390.39999389648</ele>
        <time>2019-07-08T07:39:31Z</time>
      </trkpt>
      <trkpt lat="44.77527" lon="5.13719">
        <ele>389.79998779297</ele>
        <time>2019-07-08T07:39:32Z</time>
      </trkpt>
      <trkpt lat="44.77525" lon="5.13711">
        <ele>389.39999389648</ele>
        <time>2019-07-08T07:39:33Z</time>
      </trkpt>
      <trkpt lat="44.77519" lon="5.13694">
        <ele>389.39999389648</ele>
        <time>2019-07-08T07:39:35Z</time>
      </trkpt>
      <trkpt lat="44.77511" lon="5.1367">
        <ele>389</ele>
        <time>2019-07-08T07:39:38Z</time>
      </trkpt>
      <trkpt lat="44.77509" lon="5.13663">
        <ele>388.60000610352</ele>
        <time>2019-07-08T07:39:39Z</time>
      </trkpt>
      <trkpt lat="44.77506" lon="5.13655">
        <ele>387.79998779297</ele>
        <time>2019-07-08T07:39:40Z</time>
      </trkpt>
      <trkpt lat="44.77503" lon="5.13648">
        <ele>387.39999389648</ele>
        <time>2019-07-08T07:39:41Z</time>
      </trkpt>
      <trkpt lat="44.77493" lon="5.13629">
        <ele>387.39999389648</ele>
        <time>2019-07-08T07:39:44Z</time>
      </trkpt>
      <trkpt lat="44.77481" lon="5.13613">
        <ele>387.39999389648</ele>
        <time>2019-07-08T07:39:47Z</time>
      </trkpt>
      <trkpt lat="44.77472" lon="5.13605">
        <ele>387.39999389648</ele>
        <time>2019-07-08T07:39:49Z</time>
      </trkpt>
      <trkpt lat="44.77437" lon="5.13575">
        <ele>387.39999389648</ele>
        <time>2019-07-08T07:39:56Z</time>
      </trkpt>
      <trkpt lat="44.77426" lon="5.1357">
        <ele>387.39999389648</ele>
        <time>2019-07-08T07:39:58Z</time>
      </trkpt>
      <trkpt lat="44.77409" lon="5.13564">
        <ele>387.39999389648</ele>
        <time>2019-07-08T07:40:01Z</time>
      </trkpt>
      <trkpt lat="44.77375" lon="5.13546">
        <ele>387.39999389648</ele>
        <time>2019-07-08T07:40:08Z</time>
      </trkpt>
      <trkpt lat="44.77362" lon="5.13533">
        <ele>387.39999389648</ele>
        <time>2019-07-08T07:40:11Z</time>
      </trkpt>
      <trkpt lat="44.77353" lon="5.13524">
        <ele>387</ele>
        <time>2019-07-08T07:40:13Z</time>
      </trkpt>
      <trkpt lat="44.77348" lon="5.13519">
        <ele>386.60000610352</ele>
        <time>2019-07-08T07:40:14Z</time>
      </trkpt>
      <trkpt lat="44.77344" lon="5.13514">
        <ele>386.20001220703</ele>
        <time>2019-07-08T07:40:15Z</time>
      </trkpt>
      <trkpt lat="44.77339" lon="5.13509">
        <ele>385.79998779297</ele>
        <time>2019-07-08T07:40:16Z</time>
      </trkpt>
      <trkpt lat="44.77334" lon="5.13504">
        <ele>385.39999389648</ele>
        <time>2019-07-08T07:40:17Z</time>
      </trkpt>
      <trkpt lat="44.77316" lon="5.13481">
        <ele>385.39999389648</ele>
        <time>2019-07-08T07:40:21Z</time>
      </trkpt>
      <trkpt lat="44.77301" lon="5.13463">
        <ele>384.79998779297</ele>
        <time>2019-07-08T07:40:24Z</time>
      </trkpt>
      <trkpt lat="44.77295" lon="5.13457">
        <ele>384.39999389648</ele>
        <time>2019-07-08T07:40:25Z</time>
      </trkpt>
      <trkpt lat="44.77289" lon="5.13451">
        <ele>384</ele>
        <time>2019-07-08T07:40:26Z</time>
      </trkpt>
      <trkpt lat="44.77282" lon="5.13446">
        <ele>383.60000610352</ele>
        <time>2019-07-08T07:40:27Z</time>
      </trkpt>
      <trkpt lat="44.77276" lon="5.13441">
        <ele>383.20001220703</ele>
        <time>2019-07-08T07:40:28Z</time>
      </trkpt>
      <trkpt lat="44.77262" lon="5.1343">
        <ele>382.39999389648</ele>
        <time>2019-07-08T07:40:30Z</time>
      </trkpt>
      <trkpt lat="44.77256" lon="5.13423">
        <ele>382</ele>
        <time>2019-07-08T07:40:31Z</time>
      </trkpt>
      <trkpt lat="44.77249" lon="5.13416">
        <ele>381.60000610352</ele>
        <time>2019-07-08T07:40:32Z</time>
      </trkpt>
      <trkpt lat="44.77243" lon="5.13406">
        <ele>381</ele>
        <time>2019-07-08T07:40:33Z</time>
      </trkpt>
      <trkpt lat="44.77238" lon="5.13396">
        <ele>380.60000610352</ele>
        <time>2019-07-08T07:40:34Z</time>
      </trkpt>
      <trkpt lat="44.77235" lon="5.13384">
        <ele>380</ele>
        <time>2019-07-08T07:40:35Z</time>
      </trkpt>
      <trkpt lat="44.77234" lon="5.13372">
        <ele>379.60000610352</ele>
        <time>2019-07-08T07:40:36Z</time>
      </trkpt>
      <trkpt lat="44.77235" lon="5.13361">
        <ele>379.20001220703</ele>
        <time>2019-07-08T07:40:37Z</time>
      </trkpt>
      <trkpt lat="44.77236" lon="5.13349">
        <ele>379.20001220703</ele>
        <time>2019-07-08T07:40:38Z</time>
      </trkpt>
      <trkpt lat="44.77235" lon="5.13327">
        <ele>378.60000610352</ele>
        <time>2019-07-08T07:40:40Z</time>
      </trkpt>
      <trkpt lat="44.77232" lon="5.13317">
        <ele>378.20001220703</ele>
        <time>2019-07-08T07:40:41Z</time>
      </trkpt>
      <trkpt lat="44.77228" lon="5.1331">
        <ele>377.79998779297</ele>
        <time>2019-07-08T07:40:42Z</time>
      </trkpt>
      <trkpt lat="44.77223" lon="5.13304">
        <ele>377.39999389648</ele>
        <time>2019-07-08T07:40:43Z</time>
      </trkpt>
      <trkpt lat="44.77218" lon="5.133">
        <ele>377</ele>
        <time>2019-07-08T07:40:44Z</time>
      </trkpt>
      <trkpt lat="44.77198" lon="5.13294">
        <ele>377</ele>
        <time>2019-07-08T07:40:48Z</time>
      </trkpt>
      <trkpt lat="44.77192" lon="5.13294">
        <ele>377</ele>
        <time>2019-07-08T07:40:49Z</time>
      </trkpt>
      <trkpt lat="44.77163" lon="5.13291">
        <ele>377</ele>
        <time>2019-07-08T07:40:55Z</time>
      </trkpt>
      <trkpt lat="44.77149" lon="5.1329">
        <ele>377.39999389648</ele>
        <time>2019-07-08T07:40:58Z</time>
      </trkpt>
      <trkpt lat="44.77144" lon="5.13288">
        <ele>377.79998779297</ele>
        <time>2019-07-08T07:40:59Z</time>
      </trkpt>
      <trkpt lat="44.7714" lon="5.13287">
        <ele>378.39999389648</ele>
        <time>2019-07-08T07:41:00Z</time>
      </trkpt>
      <trkpt lat="44.77136" lon="5.13285">
        <ele>378.79998779297</ele>
        <time>2019-07-08T07:41:01Z</time>
      </trkpt>
      <trkpt lat="44.77132" lon="5.13283">
        <ele>379.20001220703</ele>
        <time>2019-07-08T07:41:02Z</time>
      </trkpt>
      <trkpt lat="44.77118" lon="5.1327">
        <ele>379.60000610352</ele>
        <time>2019-07-08T07:41:07Z</time>
      </trkpt>
      <trkpt lat="44.77115" lon="5.13267">
        <ele>380</ele>
        <time>2019-07-08T07:41:08Z</time>
      </trkpt>
      <trkpt lat="44.77113" lon="5.13264">
        <ele>380.60000610352</ele>
        <time>2019-07-08T07:41:09Z</time>
      </trkpt>
      <trkpt lat="44.77111" lon="5.13261">
        <ele>381</ele>
        <time>2019-07-08T07:41:10Z</time>
      </trkpt>
      <trkpt lat="44.77109" lon="5.13258">
        <ele>381.39999389648</ele>
        <time>2019-07-08T07:41:11Z</time>
      </trkpt>
      <trkpt lat="44.77099" lon="5.13241">
        <ele>381.39999389648</ele>
        <time>2019-07-08T07:41:16Z</time>
      </trkpt>
      <trkpt lat="44.77097" lon="5.13238">
        <ele>381.79998779297</ele>
        <time>2019-07-08T07:41:17Z</time>
      </trkpt>
      <trkpt lat="44.77095" lon="5.13235">
        <ele>382.20001220703</ele>
        <time>2019-07-08T07:41:18Z</time>
      </trkpt>
      <trkpt lat="44.77093" lon="5.13232">
        <ele>383</ele>
        <time>2019-07-08T07:41:19Z</time>
      </trkpt>
      <trkpt lat="44.77091" lon="5.13229">
        <ele>383.39999389648</ele>
        <time>2019-07-08T07:41:20Z</time>
      </trkpt>
      <trkpt lat="44.77083" lon="5.13216">
        <ele>383.39999389648</ele>
        <time>2019-07-08T07:41:24Z</time>
      </trkpt>
      <trkpt lat="44.77076" lon="5.13204">
        <ele>383.79998779297</ele>
        <time>2019-07-08T07:41:28Z</time>
      </trkpt>
      <trkpt lat="44.77074" lon="5.13201">
        <ele>384.20001220703</ele>
        <time>2019-07-08T07:41:29Z</time>
      </trkpt>
      <trkpt lat="44.77072" lon="5.13198">
        <ele>384.60000610352</ele>
        <time>2019-07-08T07:41:30Z</time>
      </trkpt>
      <trkpt lat="44.77071" lon="5.13196">
        <ele>385</ele>
        <time>2019-07-08T07:41:31Z</time>
      </trkpt>
      <trkpt lat="44.77069" lon="5.13193">
        <ele>385.39999389648</ele>
        <time>2019-07-08T07:41:32Z</time>
      </trkpt>
      <trkpt lat="44.77067" lon="5.1319">
        <ele>385.39999389648</ele>
        <time>2019-07-08T07:41:33Z</time>
      </trkpt>
      <trkpt lat="44.77056" lon="5.13173">
        <ele>385.79998779297</ele>
        <time>2019-07-08T07:41:40Z</time>
      </trkpt>
      <trkpt lat="44.77054" lon="5.13171">
        <ele>386.20001220703</ele>
        <time>2019-07-08T07:41:41Z</time>
      </trkpt>
      <trkpt lat="44.77052" lon="5.13169">
        <ele>386.60000610352</ele>
        <time>2019-07-08T07:41:42Z</time>
      </trkpt>
      <trkpt lat="44.7705" lon="5.13167">
        <ele>387</ele>
        <time>2019-07-08T07:41:43Z</time>
      </trkpt>
      <trkpt lat="44.77049" lon="5.13165">
        <ele>387.39999389648</ele>
        <time>2019-07-08T07:41:44Z</time>
      </trkpt>
      <trkpt lat="44.77042" lon="5.13156">
        <ele>387.39999389648</ele>
        <time>2019-07-08T07:41:49Z</time>
      </trkpt>
      <trkpt lat="44.77032" lon="5.13149">
        <ele>388</ele>
        <time>2019-07-08T07:41:54Z</time>
      </trkpt>
      <trkpt lat="44.7703" lon="5.13148">
        <ele>388.39999389648</ele>
        <time>2019-07-08T07:41:55Z</time>
      </trkpt>
      <trkpt lat="44.77028" lon="5.13147">
        <ele>388.79998779297</ele>
        <time>2019-07-08T07:41:56Z</time>
      </trkpt>
      <trkpt lat="44.77026" lon="5.13145">
        <ele>389.20001220703</ele>
        <time>2019-07-08T07:41:57Z</time>
      </trkpt>
      <trkpt lat="44.77024" lon="5.13143">
        <ele>389.60000610352</ele>
        <time>2019-07-08T07:41:58Z</time>
      </trkpt>
      <trkpt lat="44.7701" lon="5.13133">
        <ele>389.60000610352</ele>
        <time>2019-07-08T07:42:05Z</time>
      </trkpt>
      <trkpt lat="44.77001" lon="5.13125">
        <ele>390</ele>
        <time>2019-07-08T07:42:09Z</time>
      </trkpt>
      <trkpt lat="44.76999" lon="5.13123">
        <ele>391</ele>
        <time>2019-07-08T07:42:10Z</time>
      </trkpt>
      <trkpt lat="44.76997" lon="5.13121">
        <ele>391.39999389648</ele>
        <time>2019-07-08T07:42:11Z</time>
      </trkpt>
      <trkpt lat="44.76995" lon="5.13119">
        <ele>391.79998779297</ele>
        <time>2019-07-08T07:42:12Z</time>
      </trkpt>
      <trkpt lat="44.76993" lon="5.13118">
        <ele>391.79998779297</ele>
        <time>2019-07-08T07:42:13Z</time>
      </trkpt>
      <trkpt lat="44.76982" lon="5.131">
        <ele>391.79998779297</ele>
        <time>2019-07-08T07:42:20Z</time>
      </trkpt>
      <trkpt lat="44.76981" lon="5.13085">
        <ele>392.20001220703</ele>
        <time>2019-07-08T07:42:24Z</time>
      </trkpt>
      <trkpt lat="44.76981" lon="5.13082">
        <ele>392.60000610352</ele>
        <time>2019-07-08T07:42:25Z</time>
      </trkpt>
      <trkpt lat="44.76982" lon="5.13078">
        <ele>393</ele>
        <time>2019-07-08T07:42:26Z</time>
      </trkpt>
      <trkpt lat="44.76983" lon="5.13075">
        <ele>393.39999389648</ele>
        <time>2019-07-08T07:42:27Z</time>
      </trkpt>
      <trkpt lat="44.76983" lon="5.13071">
        <ele>393.79998779297</ele>
        <time>2019-07-08T07:42:28Z</time>
      </trkpt>
      <trkpt lat="44.76989" lon="5.13051">
        <ele>393.79998779297</ele>
        <time>2019-07-08T07:42:33Z</time>
      </trkpt>
      <trkpt lat="44.77" lon="5.1302">
        <ele>393.79998779297</ele>
        <time>2019-07-08T07:42:40Z</time>
      </trkpt>
      <trkpt lat="44.77015" lon="5.12974">
        <ele>393.79998779297</ele>
        <time>2019-07-08T07:42:49Z</time>
      </trkpt>
      <trkpt lat="44.77031" lon="5.12943">
        <ele>393.79998779297</ele>
        <time>2019-07-08T07:42:55Z</time>
      </trkpt>
      <trkpt lat="44.77056" lon="5.12922">
        <ele>393.79998779297</ele>
        <time>2019-07-08T07:43:00Z</time>
      </trkpt>
      <trkpt lat="44.77062" lon="5.12919">
        <ele>393.39999389648</ele>
        <time>2019-07-08T07:43:01Z</time>
      </trkpt>
      <trkpt lat="44.77068" lon="5.12916">
        <ele>393</ele>
        <time>2019-07-08T07:43:02Z</time>
      </trkpt>
      <trkpt lat="44.77075" lon="5.12911">
        <ele>392.60000610352</ele>
        <time>2019-07-08T07:43:03Z</time>
      </trkpt>
      <trkpt lat="44.77079" lon="5.12903">
        <ele>392.20001220703</ele>
        <time>2019-07-08T07:43:04Z</time>
      </trkpt>
      <trkpt lat="44.77081" lon="5.12892">
        <ele>391.79998779297</ele>
        <time>2019-07-08T07:43:05Z</time>
      </trkpt>
      <trkpt lat="44.77081" lon="5.12882">
        <ele>391.79998779297</ele>
        <time>2019-07-08T07:43:06Z</time>
      </trkpt>
      <trkpt lat="44.77081" lon="5.12871">
        <ele>391.79998779297</ele>
        <time>2019-07-08T07:43:07Z</time>
      </trkpt>
      <trkpt lat="44.77084" lon="5.12861">
        <ele>391.79998779297</ele>
        <time>2019-07-08T07:43:08Z</time>
      </trkpt>
      <trkpt lat="44.77089" lon="5.12852">
        <ele>391.39999389648</ele>
        <time>2019-07-08T07:43:09Z</time>
      </trkpt>
      <trkpt lat="44.77094" lon="5.12845">
        <ele>391</ele>
        <time>2019-07-08T07:43:10Z</time>
      </trkpt>
      <trkpt lat="44.771" lon="5.12839">
        <ele>390.39999389648</ele>
        <time>2019-07-08T07:43:11Z</time>
      </trkpt>
      <trkpt lat="44.77107" lon="5.12833">
        <ele>390</ele>
        <time>2019-07-08T07:43:12Z</time>
      </trkpt>
      <trkpt lat="44.77114" lon="5.12828">
        <ele>389.60000610352</ele>
        <time>2019-07-08T07:43:13Z</time>
      </trkpt>
      <trkpt lat="44.77121" lon="5.12823">
        <ele>389.20001220703</ele>
        <time>2019-07-08T07:43:14Z</time>
      </trkpt>
      <trkpt lat="44.77128" lon="5.12817">
        <ele>388.60000610352</ele>
        <time>2019-07-08T07:43:15Z</time>
      </trkpt>
      <trkpt lat="44.77136" lon="5.12812">
        <ele>388.20001220703</ele>
        <time>2019-07-08T07:43:16Z</time>
      </trkpt>
      <trkpt lat="44.77143" lon="5.12807">
        <ele>387.79998779297</ele>
        <time>2019-07-08T07:43:17Z</time>
      </trkpt>
      <trkpt lat="44.7715" lon="5.12801">
        <ele>387.39999389648</ele>
        <time>2019-07-08T07:43:18Z</time>
      </trkpt>
      <trkpt lat="44.77157" lon="5.12795">
        <ele>387</ele>
        <time>2019-07-08T07:43:19Z</time>
      </trkpt>
      <trkpt lat="44.77164" lon="5.12789">
        <ele>386.60000610352</ele>
        <time>2019-07-08T07:43:20Z</time>
      </trkpt>
      <trkpt lat="44.77171" lon="5.12783">
        <ele>386.20001220703</ele>
        <time>2019-07-08T07:43:21Z</time>
      </trkpt>
      <trkpt lat="44.77179" lon="5.12777">
        <ele>385.79998779297</ele>
        <time>2019-07-08T07:43:22Z</time>
      </trkpt>
      <trkpt lat="44.77187" lon="5.12771">
        <ele>385.39999389648</ele>
        <time>2019-07-08T07:43:23Z</time>
      </trkpt>
      <trkpt lat="44.77194" lon="5.12764">
        <ele>384.39999389648</ele>
        <time>2019-07-08T07:43:24Z</time>
      </trkpt>
      <trkpt lat="44.77202" lon="5.12757">
        <ele>384</ele>
        <time>2019-07-08T07:43:25Z</time>
      </trkpt>
      <trkpt lat="44.77209" lon="5.12751">
        <ele>383.60000610352</ele>
        <time>2019-07-08T07:43:26Z</time>
      </trkpt>
      <trkpt lat="44.77217" lon="5.12744">
        <ele>383</ele>
        <time>2019-07-08T07:43:27Z</time>
      </trkpt>
      <trkpt lat="44.77224" lon="5.12736">
        <ele>382.60000610352</ele>
        <time>2019-07-08T07:43:28Z</time>
      </trkpt>
      <trkpt lat="44.7723" lon="5.12726">
        <ele>382.20001220703</ele>
        <time>2019-07-08T07:43:29Z</time>
      </trkpt>
      <trkpt lat="44.77236" lon="5.12715">
        <ele>381.79998779297</ele>
        <time>2019-07-08T07:43:30Z</time>
      </trkpt>
      <trkpt lat="44.77239" lon="5.12703">
        <ele>381.39999389648</ele>
        <time>2019-07-08T07:43:31Z</time>
      </trkpt>
      <trkpt lat="44.77241" lon="5.12691">
        <ele>381</ele>
        <time>2019-07-08T07:43:32Z</time>
      </trkpt>
      <trkpt lat="44.77243" lon="5.12679">
        <ele>381</ele>
        <time>2019-07-08T07:43:33Z</time>
      </trkpt>
      <trkpt lat="44.77244" lon="5.12666">
        <ele>380.60000610352</ele>
        <time>2019-07-08T07:43:34Z</time>
      </trkpt>
      <trkpt lat="44.77245" lon="5.12654">
        <ele>380.20001220703</ele>
        <time>2019-07-08T07:43:35Z</time>
      </trkpt>
      <trkpt lat="44.77245" lon="5.12642">
        <ele>379.79998779297</ele>
        <time>2019-07-08T07:43:36Z</time>
      </trkpt>
      <trkpt lat="44.77246" lon="5.1263">
        <ele>379.39999389648</ele>
        <time>2019-07-08T07:43:37Z</time>
      </trkpt>
      <trkpt lat="44.77246" lon="5.12619">
        <ele>378.79998779297</ele>
        <time>2019-07-08T07:43:38Z</time>
      </trkpt>
      <trkpt lat="44.7725" lon="5.12557">
        <ele>378.39999389648</ele>
        <time>2019-07-08T07:43:44Z</time>
      </trkpt>
      <trkpt lat="44.7725" lon="5.12547">
        <ele>378</ele>
        <time>2019-07-08T07:43:45Z</time>
      </trkpt>
      <trkpt lat="44.77251" lon="5.12538">
        <ele>377.60000610352</ele>
        <time>2019-07-08T07:43:46Z</time>
      </trkpt>
      <trkpt lat="44.77251" lon="5.12528">
        <ele>377.20001220703</ele>
        <time>2019-07-08T07:43:47Z</time>
      </trkpt>
      <trkpt lat="44.77252" lon="5.12518">
        <ele>376.79998779297</ele>
        <time>2019-07-08T07:43:48Z</time>
      </trkpt>
      <trkpt lat="44.77254" lon="5.12469">
        <ele>376.79998779297</ele>
        <time>2019-07-08T07:43:53Z</time>
      </trkpt>
      <trkpt lat="44.77255" lon="5.12459">
        <ele>376.39999389648</ele>
        <time>2019-07-08T07:43:54Z</time>
      </trkpt>
      <trkpt lat="44.77256" lon="5.12448">
        <ele>376</ele>
        <time>2019-07-08T07:43:55Z</time>
      </trkpt>
      <trkpt lat="44.77256" lon="5.12437">
        <ele>375.60000610352</ele>
        <time>2019-07-08T07:43:56Z</time>
      </trkpt>
      <trkpt lat="44.77257" lon="5.12426">
        <ele>375</ele>
        <time>2019-07-08T07:43:57Z</time>
      </trkpt>
      <trkpt lat="44.77258" lon="5.12415">
        <ele>374.60000610352</ele>
        <time>2019-07-08T07:43:58Z</time>
      </trkpt>
      <trkpt lat="44.77258" lon="5.12404">
        <ele>374.20001220703</ele>
        <time>2019-07-08T07:43:59Z</time>
      </trkpt>
      <trkpt lat="44.77259" lon="5.12393">
        <ele>373.79998779297</ele>
        <time>2019-07-08T07:44:00Z</time>
      </trkpt>
      <trkpt lat="44.7726" lon="5.12381">
        <ele>373.39999389648</ele>
        <time>2019-07-08T07:44:01Z</time>
      </trkpt>
      <trkpt lat="44.7726" lon="5.1237">
        <ele>373</ele>
        <time>2019-07-08T07:44:02Z</time>
      </trkpt>
      <trkpt lat="44.77261" lon="5.12359">
        <ele>372.39999389648</ele>
        <time>2019-07-08T07:44:03Z</time>
      </trkpt>
      <trkpt lat="44.77262" lon="5.12326">
        <ele>372</ele>
        <time>2019-07-08T07:44:06Z</time>
      </trkpt>
      <trkpt lat="44.77261" lon="5.12315">
        <ele>371.60000610352</ele>
        <time>2019-07-08T07:44:07Z</time>
      </trkpt>
      <trkpt lat="44.77259" lon="5.12304">
        <ele>371.20001220703</ele>
        <time>2019-07-08T07:44:08Z</time>
      </trkpt>
      <trkpt lat="44.77257" lon="5.12293">
        <ele>370.79998779297</ele>
        <time>2019-07-08T07:44:09Z</time>
      </trkpt>
      <trkpt lat="44.77255" lon="5.12282">
        <ele>370.39999389648</ele>
        <time>2019-07-08T07:44:10Z</time>
      </trkpt>
      <trkpt lat="44.77243" lon="5.12245">
        <ele>369.60000610352</ele>
        <time>2019-07-08T07:44:14Z</time>
      </trkpt>
      <trkpt lat="44.7724" lon="5.12237">
        <ele>369.20001220703</ele>
        <time>2019-07-08T07:44:15Z</time>
      </trkpt>
      <trkpt lat="44.77236" lon="5.1223">
        <ele>368.79998779297</ele>
        <time>2019-07-08T07:44:16Z</time>
      </trkpt>
      <trkpt lat="44.77233" lon="5.12224">
        <ele>368.39999389648</ele>
        <time>2019-07-08T07:44:17Z</time>
      </trkpt>
      <trkpt lat="44.77229" lon="5.12219">
        <ele>368.39999389648</ele>
        <time>2019-07-08T07:44:18Z</time>
      </trkpt>
      <trkpt lat="44.77217" lon="5.12212">
        <ele>368.39999389648</ele>
        <time>2019-07-08T07:44:21Z</time>
      </trkpt>
      <trkpt lat="44.77214" lon="5.12211">
        <ele>368.39999389648</ele>
        <time>2019-07-08T07:44:22Z</time>
      </trkpt>
      <trkpt lat="44.772" lon="5.12208">
        <ele>368.39999389648</ele>
        <time>2019-07-08T07:44:26Z</time>
      </trkpt>
      <trkpt lat="44.77176" lon="5.12206">
        <ele>368.39999389648</ele>
        <time>2019-07-08T07:44:33Z</time>
      </trkpt>
      <trkpt lat="44.77153" lon="5.12204">
        <ele>368.79998779297</ele>
        <time>2019-07-08T07:44:40Z</time>
      </trkpt>
      <trkpt lat="44.7715" lon="5.12203">
        <ele>369.20001220703</ele>
        <time>2019-07-08T07:44:41Z</time>
      </trkpt>
      <trkpt lat="44.77147" lon="5.12201">
        <ele>369.60000610352</ele>
        <time>2019-07-08T07:44:42Z</time>
      </trkpt>
      <trkpt lat="44.77145" lon="5.12197">
        <ele>370</ele>
        <time>2019-07-08T07:44:43Z</time>
      </trkpt>
      <trkpt lat="44.77143" lon="5.12194">
        <ele>370.39999389648</ele>
        <time>2019-07-08T07:44:44Z</time>
      </trkpt>
      <trkpt lat="44.77141" lon="5.12192">
        <ele>370.39999389648</ele>
        <time>2019-07-08T07:44:45Z</time>
      </trkpt>
      <trkpt lat="44.7713" lon="5.1218">
        <ele>370.39999389648</ele>
        <time>2019-07-08T07:44:52Z</time>
      </trkpt>
      <trkpt lat="44.77123" lon="5.12174">
        <ele>370.79998779297</ele>
        <time>2019-07-08T07:44:56Z</time>
      </trkpt>
      <trkpt lat="44.77122" lon="5.12173">
        <ele>371.20001220703</ele>
        <time>2019-07-08T07:44:57Z</time>
      </trkpt>
      <trkpt lat="44.77121" lon="5.12171">
        <ele>371.79998779297</ele>
        <time>2019-07-08T07:44:58Z</time>
      </trkpt>
      <trkpt lat="44.77119" lon="5.1217">
        <ele>372.20001220703</ele>
        <time>2019-07-08T07:44:59Z</time>
      </trkpt>
      <trkpt lat="44.77118" lon="5.12169">
        <ele>372.60000610352</ele>
        <time>2019-07-08T07:45:00Z</time>
      </trkpt>
      <trkpt lat="44.77112" lon="5.12166">
        <ele>372.60000610352</ele>
        <time>2019-07-08T07:45:04Z</time>
      </trkpt>
      <trkpt lat="44.7711" lon="5.12164">
        <ele>373</ele>
        <time>2019-07-08T07:45:05Z</time>
      </trkpt>
      <trkpt lat="44.77109" lon="5.12164">
        <ele>373.39999389648</ele>
        <time>2019-07-08T07:45:06Z</time>
      </trkpt>
      <trkpt lat="44.77108" lon="5.12162">
        <ele>374</ele>
        <time>2019-07-08T07:45:07Z</time>
      </trkpt>
      <trkpt lat="44.77106" lon="5.12161">
        <ele>374.39999389648</ele>
        <time>2019-07-08T07:45:08Z</time>
      </trkpt>
      <trkpt lat="44.77105" lon="5.12161">
        <ele>374.79998779297</ele>
        <time>2019-07-08T07:45:09Z</time>
      </trkpt>
      <trkpt lat="44.77102" lon="5.12158">
        <ele>374.79998779297</ele>
        <time>2019-07-08T07:45:11Z</time>
      </trkpt>
      <trkpt lat="44.77094" lon="5.12153">
        <ele>375.20001220703</ele>
        <time>2019-07-08T07:45:16Z</time>
      </trkpt>
      <trkpt lat="44.77092" lon="5.12151">
        <ele>375.60000610352</ele>
        <time>2019-07-08T07:45:17Z</time>
      </trkpt>
      <trkpt lat="44.77091" lon="5.1215">
        <ele>376</ele>
        <time>2019-07-08T07:45:18Z</time>
      </trkpt>
      <trkpt lat="44.7709" lon="5.12149">
        <ele>376.60000610352</ele>
        <time>2019-07-08T07:45:19Z</time>
      </trkpt>
      <trkpt lat="44.77089" lon="5.12148">
        <ele>377</ele>
        <time>2019-07-08T07:45:20Z</time>
      </trkpt>
      <trkpt lat="44.7708" lon="5.12146">
        <ele>377</ele>
        <time>2019-07-08T07:45:26Z</time>
      </trkpt>
      <trkpt lat="44.77079" lon="5.12146">
        <ele>377.39999389648</ele>
        <time>2019-07-08T07:45:27Z</time>
      </trkpt>
      <trkpt lat="44.77077" lon="5.12146">
        <ele>378.20001220703</ele>
        <time>2019-07-08T07:45:28Z</time>
      </trkpt>
      <trkpt lat="44.77075" lon="5.12146">
        <ele>378.60000610352</ele>
        <time>2019-07-08T07:45:29Z</time>
      </trkpt>
      <trkpt lat="44.77073" lon="5.12146">
        <ele>379</ele>
        <time>2019-07-08T07:45:30Z</time>
      </trkpt>
      <trkpt lat="44.77069" lon="5.12146">
        <ele>379</ele>
        <time>2019-07-08T07:45:32Z</time>
      </trkpt>
      <trkpt lat="44.77064" lon="5.12144">
        <ele>379</ele>
        <time>2019-07-08T07:45:36Z</time>
      </trkpt>
      <trkpt lat="44.77051" lon="5.12138">
        <ele>379.39999389648</ele>
        <time>2019-07-08T07:45:43Z</time>
      </trkpt>
      <trkpt lat="44.77049" lon="5.12138">
        <ele>379.79998779297</ele>
        <time>2019-07-08T07:45:44Z</time>
      </trkpt>
      <trkpt lat="44.77048" lon="5.12136">
        <ele>380.20001220703</ele>
        <time>2019-07-08T07:45:45Z</time>
      </trkpt>
      <trkpt lat="44.77046" lon="5.12135">
        <ele>380.60000610352</ele>
        <time>2019-07-08T07:45:46Z</time>
      </trkpt>
      <trkpt lat="44.77044" lon="5.12134">
        <ele>381</ele>
        <time>2019-07-08T07:45:47Z</time>
      </trkpt>
      <trkpt lat="44.77041" lon="5.12132">
        <ele>381</ele>
        <time>2019-07-08T07:45:49Z</time>
      </trkpt>
      <trkpt lat="44.77031" lon="5.12125">
        <ele>381.39999389648</ele>
        <time>2019-07-08T07:45:55Z</time>
      </trkpt>
      <trkpt lat="44.7703" lon="5.12124">
        <ele>382</ele>
        <time>2019-07-08T07:45:56Z</time>
      </trkpt>
      <trkpt lat="44.77029" lon="5.12122">
        <ele>382.39999389648</ele>
        <time>2019-07-08T07:45:57Z</time>
      </trkpt>
      <trkpt lat="44.77028" lon="5.12121">
        <ele>382.79998779297</ele>
        <time>2019-07-08T07:45:58Z</time>
      </trkpt>
      <trkpt lat="44.77026" lon="5.1212">
        <ele>383.20001220703</ele>
        <time>2019-07-08T07:45:59Z</time>
      </trkpt>
      <trkpt lat="44.77019" lon="5.12115">
        <ele>383.20001220703</ele>
        <time>2019-07-08T07:46:03Z</time>
      </trkpt>
      <trkpt lat="44.77013" lon="5.12113">
        <ele>383.20001220703</ele>
        <time>2019-07-08T07:46:06Z</time>
      </trkpt>
      <trkpt lat="44.7701" lon="5.12111">
        <ele>383.20001220703</ele>
        <time>2019-07-08T07:46:08Z</time>
      </trkpt>
      <trkpt lat="44.77009" lon="5.12111">
        <ele>383.60000610352</ele>
        <time>2019-07-08T07:46:09Z</time>
      </trkpt>
      <trkpt lat="44.77007" lon="5.1211">
        <ele>384</ele>
        <time>2019-07-08T07:46:10Z</time>
      </trkpt>
      <trkpt lat="44.77005" lon="5.12109">
        <ele>384.39999389648</ele>
        <time>2019-07-08T07:46:11Z</time>
      </trkpt>
      <trkpt lat="44.77004" lon="5.12108">
        <ele>384.79998779297</ele>
        <time>2019-07-08T07:46:12Z</time>
      </trkpt>
      <trkpt lat="44.77002" lon="5.12107">
        <ele>385.20001220703</ele>
        <time>2019-07-08T07:46:13Z</time>
      </trkpt>
      <trkpt lat="44.76998" lon="5.12105">
        <ele>385.20001220703</ele>
        <time>2019-07-08T07:46:15Z</time>
      </trkpt>
      <trkpt lat="44.76991" lon="5.121">
        <ele>385.20001220703</ele>
        <time>2019-07-08T07:46:20Z</time>
      </trkpt>
      <trkpt lat="44.76987" lon="5.12097">
        <ele>385.60000610352</ele>
        <time>2019-07-08T07:46:23Z</time>
      </trkpt>
      <trkpt lat="44.76985" lon="5.12095">
        <ele>386</ele>
        <time>2019-07-08T07:46:24Z</time>
      </trkpt>
      <trkpt lat="44.76983" lon="5.12094">
        <ele>386.60000610352</ele>
        <time>2019-07-08T07:46:25Z</time>
      </trkpt>
      <trkpt lat="44.76981" lon="5.12093">
        <ele>387</ele>
        <time>2019-07-08T07:46:26Z</time>
      </trkpt>
      <trkpt lat="44.7698" lon="5.12092">
        <ele>387.39999389648</ele>
        <time>2019-07-08T07:46:27Z</time>
      </trkpt>
      <trkpt lat="44.76978" lon="5.12091">
        <ele>387.39999389648</ele>
        <time>2019-07-08T07:46:28Z</time>
      </trkpt>
      <trkpt lat="44.76968" lon="5.12083">
        <ele>387.39999389648</ele>
        <time>2019-07-08T07:46:35Z</time>
      </trkpt>
      <trkpt lat="44.76967" lon="5.12081">
        <ele>387.79998779297</ele>
        <time>2019-07-08T07:46:36Z</time>
      </trkpt>
      <trkpt lat="44.76965" lon="5.12079">
        <ele>388.20001220703</ele>
        <time>2019-07-08T07:46:37Z</time>
      </trkpt>
      <trkpt lat="44.76963" lon="5.12078">
        <ele>388.60000610352</ele>
        <time>2019-07-08T07:46:38Z</time>
      </trkpt>
      <trkpt lat="44.76962" lon="5.12076">
        <ele>389</ele>
        <time>2019-07-08T07:46:39Z</time>
      </trkpt>
      <trkpt lat="44.7696" lon="5.12075">
        <ele>389.39999389648</ele>
        <time>2019-07-08T07:46:40Z</time>
      </trkpt>
      <trkpt lat="44.76958" lon="5.12074">
        <ele>389.39999389648</ele>
        <time>2019-07-08T07:46:41Z</time>
      </trkpt>
      <trkpt lat="44.76944" lon="5.12063">
        <ele>389.39999389648</ele>
        <time>2019-07-08T07:46:50Z</time>
      </trkpt>
      <trkpt lat="44.76939" lon="5.12059">
        <ele>389.79998779297</ele>
        <time>2019-07-08T07:46:53Z</time>
      </trkpt>
      <trkpt lat="44.76938" lon="5.12058">
        <ele>390.20001220703</ele>
        <time>2019-07-08T07:46:54Z</time>
      </trkpt>
      <trkpt lat="44.76936" lon="5.12057">
        <ele>390.60000610352</ele>
        <time>2019-07-08T07:46:55Z</time>
      </trkpt>
      <trkpt lat="44.76934" lon="5.12055">
        <ele>391</ele>
        <time>2019-07-08T07:46:56Z</time>
      </trkpt>
      <trkpt lat="44.76933" lon="5.12054">
        <ele>391.39999389648</ele>
        <time>2019-07-08T07:46:57Z</time>
      </trkpt>
      <trkpt lat="44.7693" lon="5.12051">
        <ele>391.39999389648</ele>
        <time>2019-07-08T07:46:59Z</time>
      </trkpt>
      <trkpt lat="44.76924" lon="5.12047">
        <ele>391.39999389648</ele>
        <time>2019-07-08T07:47:05Z</time>
      </trkpt>
      <trkpt lat="44.76922" lon="5.12044">
        <ele>391.39999389648</ele>
        <time>2019-07-08T07:47:10Z</time>
      </trkpt>
      <trkpt lat="44.76921" lon="5.12043">
        <ele>391.39999389648</ele>
        <time>2019-07-08T07:47:11Z</time>
      </trkpt>
      <trkpt lat="44.76916" lon="5.1204">
        <ele>391.39999389648</ele>
        <time>2019-07-08T07:47:15Z</time>
      </trkpt>
      <trkpt lat="44.76915" lon="5.12039">
        <ele>391.79998779297</ele>
        <time>2019-07-08T07:47:16Z</time>
      </trkpt>
      <trkpt lat="44.76914" lon="5.12038">
        <ele>392.20001220703</ele>
        <time>2019-07-08T07:47:17Z</time>
      </trkpt>
      <trkpt lat="44.76913" lon="5.12037">
        <ele>392.60000610352</ele>
        <time>2019-07-08T07:47:18Z</time>
      </trkpt>
      <trkpt lat="44.76911" lon="5.12036">
        <ele>393</ele>
        <time>2019-07-08T07:47:19Z</time>
      </trkpt>
      <trkpt lat="44.7691" lon="5.12035">
        <ele>393.60000610352</ele>
        <time>2019-07-08T07:47:20Z</time>
      </trkpt>
      <trkpt lat="44.76908" lon="5.12032">
        <ele>393.60000610352</ele>
        <time>2019-07-08T07:47:22Z</time>
      </trkpt>
      <trkpt lat="44.76904" lon="5.12028">
        <ele>393.60000610352</ele>
        <time>2019-07-08T07:47:28Z</time>
      </trkpt>
      <trkpt lat="44.76904" lon="5.12028">
        <ele>393.60000610352</ele>
        <time>2019-07-08T07:47:39Z</time>
      </trkpt>
      <trkpt lat="44.76904" lon="5.12028">
        <ele>393.60000610352</ele>
        <time>2019-07-08T07:47:51Z</time>
      </trkpt>
      <trkpt lat="44.76904" lon="5.12028">
        <ele>393.60000610352</ele>
        <time>2019-07-08T07:48:03Z</time>
      </trkpt>
      <trkpt lat="44.76904" lon="5.12028">
        <ele>393.60000610352</ele>
        <time>2019-07-08T07:48:13Z</time>
      </trkpt>
      <trkpt lat="44.76904" lon="5.12028">
        <ele>393.60000610352</ele>
        <time>2019-07-08T07:48:25Z</time>
      </trkpt>
      <trkpt lat="44.76904" lon="5.12027">
        <ele>393.60000610352</ele>
        <time>2019-07-08T07:48:32Z</time>
      </trkpt>
      <trkpt lat="44.76904" lon="5.12027">
        <ele>393.60000610352</ele>
        <time>2019-07-08T07:48:34Z</time>
      </trkpt>
      <trkpt lat="44.76904" lon="5.12027">
        <ele>394</ele>
        <time>2019-07-08T07:48:35Z</time>
      </trkpt>
      <trkpt lat="44.76904" lon="5.12027">
        <ele>394.60000610352</ele>
        <time>2019-07-08T07:48:36Z</time>
      </trkpt>
      <trkpt lat="44.76904" lon="5.12027">
        <ele>394.60000610352</ele>
        <time>2019-07-08T07:48:37Z</time>
      </trkpt>
      <trkpt lat="44.76904" lon="5.12027">
        <ele>394.39999389648</ele>
        <time>2019-07-08T07:48:38Z</time>
      </trkpt>
      <trkpt lat="44.76904" lon="5.12027">
        <ele>394.39999389648</ele>
        <time>2019-07-08T07:48:39Z</time>
      </trkpt>
      <trkpt lat="44.76904" lon="5.12027">
        <ele>394.39999389648</ele>
        <time>2019-07-08T07:48:40Z</time>
      </trkpt>
      <trkpt lat="44.76904" lon="5.12027">
        <ele>394.20001220703</ele>
        <time>2019-07-08T07:48:41Z</time>
      </trkpt>
      <trkpt lat="44.76904" lon="5.12027">
        <ele>394.20001220703</ele>
        <time>2019-07-08T07:48:46Z</time>
      </trkpt>
      <trkpt lat="44.76904" lon="5.12027">
        <ele>394.20001220703</ele>
        <time>2019-07-08T07:48:56Z</time>
      </trkpt>
      <trkpt lat="44.76904" lon="5.12027">
        <ele>394.20001220703</ele>
        <time>2019-07-08T07:49:10Z</time>
      </trkpt>
      <trkpt lat="44.76904" lon="5.12027">
        <ele>394.20001220703</ele>
        <time>2019-07-08T07:49:22Z</time>
      </trkpt>
      <trkpt lat="44.76904" lon="5.12027">
        <ele>394.20001220703</ele>
        <time>2019-07-08T07:49:32Z</time>
      </trkpt>
      <trkpt lat="44.76904" lon="5.12027">
        <ele>394.20001220703</ele>
        <time>2019-07-08T07:49:44Z</time>
      </trkpt>
      <trkpt lat="44.76902" lon="5.12023">
        <ele>394.20001220703</ele>
        <time>2019-07-08T07:49:51Z</time>
      </trkpt>
      <trkpt lat="44.76901" lon="5.12021">
        <ele>394.20001220703</ele>
        <time>2019-07-08T07:49:52Z</time>
      </trkpt>
      <trkpt lat="44.76897" lon="5.12017">
        <ele>394.20001220703</ele>
        <time>2019-07-08T07:49:55Z</time>
      </trkpt>
      <trkpt lat="44.76894" lon="5.12013">
        <ele>394.20001220703</ele>
        <time>2019-07-08T07:49:58Z</time>
      </trkpt>
      <trkpt lat="44.76888" lon="5.12005">
        <ele>394.20001220703</ele>
        <time>2019-07-08T07:50:03Z</time>
      </trkpt>
      <trkpt lat="44.76887" lon="5.12004">
        <ele>394.20001220703</ele>
        <time>2019-07-08T07:50:04Z</time>
      </trkpt>
      <trkpt lat="44.76885" lon="5.12002">
        <ele>394.60000610352</ele>
        <time>2019-07-08T07:50:05Z</time>
      </trkpt>
      <trkpt lat="44.76884" lon="5.12001">
        <ele>395.20001220703</ele>
        <time>2019-07-08T07:50:06Z</time>
      </trkpt>
      <trkpt lat="44.76882" lon="5.11999">
        <ele>395.60000610352</ele>
        <time>2019-07-08T07:50:07Z</time>
      </trkpt>
      <trkpt lat="44.76881" lon="5.11998">
        <ele>396</ele>
        <time>2019-07-08T07:50:08Z</time>
      </trkpt>
      <trkpt lat="44.7688" lon="5.11997">
        <ele>396.39999389648</ele>
        <time>2019-07-08T07:50:09Z</time>
      </trkpt>
      <trkpt lat="44.76878" lon="5.11994">
        <ele>396.39999389648</ele>
        <time>2019-07-08T07:50:11Z</time>
      </trkpt>
      <trkpt lat="44.7687" lon="5.11981">
        <ele>396.39999389648</ele>
        <time>2019-07-08T07:50:18Z</time>
      </trkpt>
      <trkpt lat="44.76868" lon="5.11978">
        <ele>396.79998779297</ele>
        <time>2019-07-08T07:50:20Z</time>
      </trkpt>
      <trkpt lat="44.76866" lon="5.11977">
        <ele>397.20001220703</ele>
        <time>2019-07-08T07:50:21Z</time>
      </trkpt>
      <trkpt lat="44.76864" lon="5.11975">
        <ele>397.60000610352</ele>
        <time>2019-07-08T07:50:22Z</time>
      </trkpt>
      <trkpt lat="44.76863" lon="5.11973">
        <ele>398</ele>
        <time>2019-07-08T07:50:23Z</time>
      </trkpt>
      <trkpt lat="44.76862" lon="5.11972">
        <ele>398.39999389648</ele>
        <time>2019-07-08T07:50:24Z</time>
      </trkpt>
      <trkpt lat="44.76853" lon="5.1196">
        <ele>398.39999389648</ele>
        <time>2019-07-08T07:50:30Z</time>
      </trkpt>
      <trkpt lat="44.76847" lon="5.1195">
        <ele>398.79998779297</ele>
        <time>2019-07-08T07:50:36Z</time>
      </trkpt>
      <trkpt lat="44.76847" lon="5.11948">
        <ele>399.20001220703</ele>
        <time>2019-07-08T07:50:37Z</time>
      </trkpt>
      <trkpt lat="44.76846" lon="5.11946">
        <ele>399.60000610352</ele>
        <time>2019-07-08T07:50:38Z</time>
      </trkpt>
      <trkpt lat="44.76845" lon="5.11944">
        <ele>400</ele>
        <time>2019-07-08T07:50:39Z</time>
      </trkpt>
      <trkpt lat="44.76844" lon="5.11941">
        <ele>400.39999389648</ele>
        <time>2019-07-08T07:50:40Z</time>
      </trkpt>
      <trkpt lat="44.76843" lon="5.11939">
        <ele>400.39999389648</ele>
        <time>2019-07-08T07:50:41Z</time>
      </trkpt>
      <trkpt lat="44.76838" lon="5.11932">
        <ele>400.39999389648</ele>
        <time>2019-07-08T07:50:46Z</time>
      </trkpt>
      <trkpt lat="44.76828" lon="5.11921">
        <ele>400.39999389648</ele>
        <time>2019-07-08T07:50:52Z</time>
      </trkpt>
      <trkpt lat="44.76827" lon="5.11919">
        <ele>400.79998779297</ele>
        <time>2019-07-08T07:50:53Z</time>
      </trkpt>
      <trkpt lat="44.76825" lon="5.11918">
        <ele>401.20001220703</ele>
        <time>2019-07-08T07:50:54Z</time>
      </trkpt>
      <trkpt lat="44.76823" lon="5.11917">
        <ele>401.60000610352</ele>
        <time>2019-07-08T07:50:55Z</time>
      </trkpt>
      <trkpt lat="44.76821" lon="5.11916">
        <ele>402</ele>
        <time>2019-07-08T07:50:56Z</time>
      </trkpt>
      <trkpt lat="44.76819" lon="5.11915">
        <ele>402.39999389648</ele>
        <time>2019-07-08T07:50:57Z</time>
      </trkpt>
      <trkpt lat="44.76817" lon="5.11914">
        <ele>402.39999389648</ele>
        <time>2019-07-08T07:50:58Z</time>
      </trkpt>
      <trkpt lat="44.76804" lon="5.11912">
        <ele>402.39999389648</ele>
        <time>2019-07-08T07:51:04Z</time>
      </trkpt>
      <trkpt lat="44.76796" lon="5.11908">
        <ele>402.39999389648</ele>
        <time>2019-07-08T07:51:09Z</time>
      </trkpt>
      <trkpt lat="44.76788" lon="5.11895">
        <ele>402.79998779297</ele>
        <time>2019-07-08T07:51:16Z</time>
      </trkpt>
      <trkpt lat="44.76787" lon="5.11893">
        <ele>403.20001220703</ele>
        <time>2019-07-08T07:51:17Z</time>
      </trkpt>
      <trkpt lat="44.76786" lon="5.11891">
        <ele>404.20001220703</ele>
        <time>2019-07-08T07:51:18Z</time>
      </trkpt>
      <trkpt lat="44.76785" lon="5.11889">
        <ele>404.60000610352</ele>
        <time>2019-07-08T07:51:19Z</time>
      </trkpt>
      <trkpt lat="44.76781" lon="5.11883">
        <ele>404.60000610352</ele>
        <time>2019-07-08T07:51:22Z</time>
      </trkpt>
      <trkpt lat="44.76778" lon="5.11872">
        <ele>404.60000610352</ele>
        <time>2019-07-08T07:51:28Z</time>
      </trkpt>
      <trkpt lat="44.76778" lon="5.1187">
        <ele>405</ele>
        <time>2019-07-08T07:51:29Z</time>
      </trkpt>
      <trkpt lat="44.76778" lon="5.11868">
        <ele>405.39999389648</ele>
        <time>2019-07-08T07:51:30Z</time>
      </trkpt>
      <trkpt lat="44.76778" lon="5.11867">
        <ele>405.79998779297</ele>
        <time>2019-07-08T07:51:31Z</time>
      </trkpt>
      <trkpt lat="44.76777" lon="5.11865">
        <ele>406.20001220703</ele>
        <time>2019-07-08T07:51:32Z</time>
      </trkpt>
      <trkpt lat="44.76777" lon="5.11864">
        <ele>406.60000610352</ele>
        <time>2019-07-08T07:51:33Z</time>
      </trkpt>
      <trkpt lat="44.76776" lon="5.11861">
        <ele>406.60000610352</ele>
        <time>2019-07-08T07:51:35Z</time>
      </trkpt>
      <trkpt lat="44.76776" lon="5.11846">
        <ele>406.60000610352</ele>
        <time>2019-07-08T07:51:40Z</time>
      </trkpt>
      <trkpt lat="44.76778" lon="5.11827">
        <ele>406.60000610352</ele>
        <time>2019-07-08T07:51:45Z</time>
      </trkpt>
      <trkpt lat="44.76777" lon="5.11804">
        <ele>406.60000610352</ele>
        <time>2019-07-08T07:51:51Z</time>
      </trkpt>
      <trkpt lat="44.76777" lon="5.11782">
        <ele>406.60000610352</ele>
        <time>2019-07-08T07:51:57Z</time>
      </trkpt>
      <trkpt lat="44.76784" lon="5.11761">
        <ele>406.60000610352</ele>
        <time>2019-07-08T07:52:03Z</time>
      </trkpt>
      <trkpt lat="44.76789" lon="5.11758">
        <ele>407</ele>
        <time>2019-07-08T07:52:05Z</time>
      </trkpt>
      <trkpt lat="44.76791" lon="5.11757">
        <ele>407.39999389648</ele>
        <time>2019-07-08T07:52:06Z</time>
      </trkpt>
      <trkpt lat="44.76793" lon="5.11755">
        <ele>408.20001220703</ele>
        <time>2019-07-08T07:52:07Z</time>
      </trkpt>
      <trkpt lat="44.76796" lon="5.11753">
        <ele>408.60000610352</ele>
        <time>2019-07-08T07:52:08Z</time>
      </trkpt>
      <trkpt lat="44.76813" lon="5.11745">
        <ele>408.60000610352</ele>
        <time>2019-07-08T07:52:14Z</time>
      </trkpt>
      <trkpt lat="44.76824" lon="5.11741">
        <ele>408.60000610352</ele>
        <time>2019-07-08T07:52:20Z</time>
      </trkpt>
      <trkpt lat="44.7683" lon="5.11733">
        <ele>409.20001220703</ele>
        <time>2019-07-08T07:52:24Z</time>
      </trkpt>
      <trkpt lat="44.76831" lon="5.11732">
        <ele>409.60000610352</ele>
        <time>2019-07-08T07:52:25Z</time>
      </trkpt>
      <trkpt lat="44.76832" lon="5.1173">
        <ele>410</ele>
        <time>2019-07-08T07:52:26Z</time>
      </trkpt>
      <trkpt lat="44.76834" lon="5.11729">
        <ele>410.39999389648</ele>
        <time>2019-07-08T07:52:27Z</time>
      </trkpt>
      <trkpt lat="44.76835" lon="5.11727">
        <ele>410.79998779297</ele>
        <time>2019-07-08T07:52:28Z</time>
      </trkpt>
      <trkpt lat="44.76842" lon="5.11721">
        <ele>410.79998779297</ele>
        <time>2019-07-08T07:52:33Z</time>
      </trkpt>
      <trkpt lat="44.76849" lon="5.11715">
        <ele>411.20001220703</ele>
        <time>2019-07-08T07:52:38Z</time>
      </trkpt>
      <trkpt lat="44.76851" lon="5.11713">
        <ele>411.60000610352</ele>
        <time>2019-07-08T07:52:39Z</time>
      </trkpt>
      <trkpt lat="44.76852" lon="5.11712">
        <ele>412.20001220703</ele>
        <time>2019-07-08T07:52:40Z</time>
      </trkpt>
      <trkpt lat="44.76854" lon="5.1171">
        <ele>412.60000610352</ele>
        <time>2019-07-08T07:52:41Z</time>
      </trkpt>
      <trkpt lat="44.76855" lon="5.11709">
        <ele>413</ele>
        <time>2019-07-08T07:52:42Z</time>
      </trkpt>
      <trkpt lat="44.76863" lon="5.11701">
        <ele>413</ele>
        <time>2019-07-08T07:52:48Z</time>
      </trkpt>
      <trkpt lat="44.76866" lon="5.11699">
        <ele>413</ele>
        <time>2019-07-08T07:52:51Z</time>
      </trkpt>
      <trkpt lat="44.76866" lon="5.11697">
        <ele>413.39999389648</ele>
        <time>2019-07-08T07:52:52Z</time>
      </trkpt>
      <trkpt lat="44.76868" lon="5.11695">
        <ele>413.79998779297</ele>
        <time>2019-07-08T07:52:53Z</time>
      </trkpt>
      <trkpt lat="44.76869" lon="5.11694">
        <ele>414.39999389648</ele>
        <time>2019-07-08T07:52:54Z</time>
      </trkpt>
      <trkpt lat="44.7687" lon="5.11693">
        <ele>414.79998779297</ele>
        <time>2019-07-08T07:52:55Z</time>
      </trkpt>
      <trkpt lat="44.7687" lon="5.11692">
        <ele>415.20001220703</ele>
        <time>2019-07-08T07:52:56Z</time>
      </trkpt>
      <trkpt lat="44.76873" lon="5.11687">
        <ele>415.20001220703</ele>
        <time>2019-07-08T07:52:59Z</time>
      </trkpt>
      <trkpt lat="44.7688" lon="5.11679">
        <ele>415.20001220703</ele>
        <time>2019-07-08T07:53:05Z</time>
      </trkpt>
      <trkpt lat="44.76882" lon="5.11676">
        <ele>415.60000610352</ele>
        <time>2019-07-08T07:53:07Z</time>
      </trkpt>
      <trkpt lat="44.76883" lon="5.11674">
        <ele>416</ele>
        <time>2019-07-08T07:53:08Z</time>
      </trkpt>
      <trkpt lat="44.76884" lon="5.11672">
        <ele>416.39999389648</ele>
        <time>2019-07-08T07:53:09Z</time>
      </trkpt>
      <trkpt lat="44.76885" lon="5.11671">
        <ele>416.79998779297</ele>
        <time>2019-07-08T07:53:10Z</time>
      </trkpt>
      <trkpt lat="44.76885" lon="5.1167">
        <ele>417.39999389648</ele>
        <time>2019-07-08T07:53:11Z</time>
      </trkpt>
      <trkpt lat="44.76886" lon="5.11669">
        <ele>417.39999389648</ele>
        <time>2019-07-08T07:53:12Z</time>
      </trkpt>
      <trkpt lat="44.76893" lon="5.11659">
        <ele>417.39999389648</ele>
        <time>2019-07-08T07:53:19Z</time>
      </trkpt>
      <trkpt lat="44.76894" lon="5.11658">
        <ele>417.79998779297</ele>
        <time>2019-07-08T07:53:20Z</time>
      </trkpt>
      <trkpt lat="44.76894" lon="5.11657">
        <ele>418.60000610352</ele>
        <time>2019-07-08T07:53:21Z</time>
      </trkpt>
      <trkpt lat="44.76895" lon="5.11656">
        <ele>419</ele>
        <time>2019-07-08T07:53:22Z</time>
      </trkpt>
      <trkpt lat="44.76896" lon="5.11655">
        <ele>419.39999389648</ele>
        <time>2019-07-08T07:53:23Z</time>
      </trkpt>
      <trkpt lat="44.76899" lon="5.11651">
        <ele>419.39999389648</ele>
        <time>2019-07-08T07:53:26Z</time>
      </trkpt>
      <trkpt lat="44.769" lon="5.1165">
        <ele>419.79998779297</ele>
        <time>2019-07-08T07:53:27Z</time>
      </trkpt>
      <trkpt lat="44.76901" lon="5.11649">
        <ele>420.20001220703</ele>
        <time>2019-07-08T07:53:28Z</time>
      </trkpt>
      <trkpt lat="44.76902" lon="5.11647">
        <ele>420.60000610352</ele>
        <time>2019-07-08T07:53:29Z</time>
      </trkpt>
      <trkpt lat="44.76903" lon="5.11646">
        <ele>421</ele>
        <time>2019-07-08T07:53:30Z</time>
      </trkpt>
      <trkpt lat="44.76904" lon="5.11645">
        <ele>421.39999389648</ele>
        <time>2019-07-08T07:53:31Z</time>
      </trkpt>
      <trkpt lat="44.76908" lon="5.11644">
        <ele>421.39999389648</ele>
        <time>2019-07-08T07:53:34Z</time>
      </trkpt>
      <trkpt lat="44.7691" lon="5.11642">
        <ele>421.79998779297</ele>
        <time>2019-07-08T07:53:36Z</time>
      </trkpt>
      <trkpt lat="44.76912" lon="5.11641">
        <ele>422.20001220703</ele>
        <time>2019-07-08T07:53:37Z</time>
      </trkpt>
      <trkpt lat="44.76913" lon="5.11639">
        <ele>422.60000610352</ele>
        <time>2019-07-08T07:53:38Z</time>
      </trkpt>
      <trkpt lat="44.76915" lon="5.11639">
        <ele>423.20001220703</ele>
        <time>2019-07-08T07:53:39Z</time>
      </trkpt>
      <trkpt lat="44.76916" lon="5.11637">
        <ele>423.60000610352</ele>
        <time>2019-07-08T07:53:40Z</time>
      </trkpt>
      <trkpt lat="44.76925" lon="5.1163">
        <ele>424</ele>
        <time>2019-07-08T07:53:48Z</time>
      </trkpt>
      <trkpt lat="44.76926" lon="5.11629">
        <ele>424.39999389648</ele>
        <time>2019-07-08T07:53:49Z</time>
      </trkpt>
      <trkpt lat="44.76927" lon="5.11628">
        <ele>424.79998779297</ele>
        <time>2019-07-08T07:53:50Z</time>
      </trkpt>
      <trkpt lat="44.76928" lon="5.11626">
        <ele>425.20001220703</ele>
        <time>2019-07-08T07:53:51Z</time>
      </trkpt>
      <trkpt lat="44.76928" lon="5.11625">
        <ele>425.60000610352</ele>
        <time>2019-07-08T07:53:52Z</time>
      </trkpt>
      <trkpt lat="44.7693" lon="5.11624">
        <ele>425.60000610352</ele>
        <time>2019-07-08T07:53:53Z</time>
      </trkpt>
      <trkpt lat="44.76934" lon="5.11621">
        <ele>426.20001220703</ele>
        <time>2019-07-08T07:53:57Z</time>
      </trkpt>
      <trkpt lat="44.76935" lon="5.1162">
        <ele>426.60000610352</ele>
        <time>2019-07-08T07:53:58Z</time>
      </trkpt>
      <trkpt lat="44.76936" lon="5.11619">
        <ele>427</ele>
        <time>2019-07-08T07:53:59Z</time>
      </trkpt>
      <trkpt lat="44.76937" lon="5.11618">
        <ele>427.39999389648</ele>
        <time>2019-07-08T07:54:00Z</time>
      </trkpt>
      <trkpt lat="44.76938" lon="5.11616">
        <ele>427.79998779297</ele>
        <time>2019-07-08T07:54:01Z</time>
      </trkpt>
      <trkpt lat="44.76944" lon="5.11612">
        <ele>428.20001220703</ele>
        <time>2019-07-08T07:54:07Z</time>
      </trkpt>
      <trkpt lat="44.76945" lon="5.11611">
        <ele>428.60000610352</ele>
        <time>2019-07-08T07:54:08Z</time>
      </trkpt>
      <trkpt lat="44.76946" lon="5.1161">
        <ele>429.20001220703</ele>
        <time>2019-07-08T07:54:09Z</time>
      </trkpt>
      <trkpt lat="44.76947" lon="5.11609">
        <ele>429.60000610352</ele>
        <time>2019-07-08T07:54:10Z</time>
      </trkpt>
      <trkpt lat="44.76948" lon="5.11608">
        <ele>430</ele>
        <time>2019-07-08T07:54:11Z</time>
      </trkpt>
      <trkpt lat="44.76951" lon="5.11605">
        <ele>430.39999389648</ele>
        <time>2019-07-08T07:54:14Z</time>
      </trkpt>
      <trkpt lat="44.76951" lon="5.11604">
        <ele>430.79998779297</ele>
        <time>2019-07-08T07:54:15Z</time>
      </trkpt>
      <trkpt lat="44.76952" lon="5.11603">
        <ele>431.20001220703</ele>
        <time>2019-07-08T07:54:16Z</time>
      </trkpt>
      <trkpt lat="44.76953" lon="5.11602">
        <ele>431.79998779297</ele>
        <time>2019-07-08T07:54:17Z</time>
      </trkpt>
      <trkpt lat="44.76954" lon="5.116">
        <ele>432.20001220703</ele>
        <time>2019-07-08T07:54:18Z</time>
      </trkpt>
      <trkpt lat="44.76958" lon="5.11595">
        <ele>432.20001220703</ele>
        <time>2019-07-08T07:54:22Z</time>
      </trkpt>
      <trkpt lat="44.7696" lon="5.11593">
        <ele>432.20001220703</ele>
        <time>2019-07-08T07:54:24Z</time>
      </trkpt>
      <trkpt lat="44.76961" lon="5.11592">
        <ele>432.60000610352</ele>
        <time>2019-07-08T07:54:25Z</time>
      </trkpt>
      <trkpt lat="44.76962" lon="5.11592">
        <ele>433</ele>
        <time>2019-07-08T07:54:26Z</time>
      </trkpt>
      <trkpt lat="44.76964" lon="5.11591">
        <ele>433.39999389648</ele>
        <time>2019-07-08T07:54:27Z</time>
      </trkpt>
      <trkpt lat="44.76965" lon="5.1159">
        <ele>433.79998779297</ele>
        <time>2019-07-08T07:54:28Z</time>
      </trkpt>
      <trkpt lat="44.76966" lon="5.11589">
        <ele>434.20001220703</ele>
        <time>2019-07-08T07:54:29Z</time>
      </trkpt>
      <trkpt lat="44.7697" lon="5.11585">
        <ele>434.20001220703</ele>
        <time>2019-07-08T07:54:33Z</time>
      </trkpt>
      <trkpt lat="44.76974" lon="5.11577">
        <ele>434.20001220703</ele>
        <time>2019-07-08T07:54:39Z</time>
      </trkpt>
      <trkpt lat="44.76975" lon="5.11575">
        <ele>434.60000610352</ele>
        <time>2019-07-08T07:54:40Z</time>
      </trkpt>
      <trkpt lat="44.76975" lon="5.11572">
        <ele>435</ele>
        <time>2019-07-08T07:54:41Z</time>
      </trkpt>
      <trkpt lat="44.76976" lon="5.1157">
        <ele>435.39999389648</ele>
        <time>2019-07-08T07:54:42Z</time>
      </trkpt>
      <trkpt lat="44.76976" lon="5.11569">
        <ele>435.79998779297</ele>
        <time>2019-07-08T07:54:43Z</time>
      </trkpt>
      <trkpt lat="44.76976" lon="5.11566">
        <ele>436.20001220703</ele>
        <time>2019-07-08T07:54:44Z</time>
      </trkpt>
      <trkpt lat="44.76976" lon="5.11565">
        <ele>436.20001220703</ele>
        <time>2019-07-08T07:54:45Z</time>
      </trkpt>
      <trkpt lat="44.76975" lon="5.11559">
        <ele>436.20001220703</ele>
        <time>2019-07-08T07:54:49Z</time>
      </trkpt>
      <trkpt lat="44.76974" lon="5.11555">
        <ele>436.20001220703</ele>
        <time>2019-07-08T07:54:51Z</time>
      </trkpt>
      <trkpt lat="44.76972" lon="5.11551">
        <ele>436.20001220703</ele>
        <time>2019-07-08T07:54:53Z</time>
      </trkpt>
      <trkpt lat="44.76968" lon="5.11543">
        <ele>436.20001220703</ele>
        <time>2019-07-08T07:54:57Z</time>
      </trkpt>
      <trkpt lat="44.76964" lon="5.11537">
        <ele>436.20001220703</ele>
        <time>2019-07-08T07:55:01Z</time>
      </trkpt>
      <trkpt lat="44.76962" lon="5.11534">
        <ele>436.20001220703</ele>
        <time>2019-07-08T07:55:03Z</time>
      </trkpt>
      <trkpt lat="44.76958" lon="5.11529">
        <ele>436.20001220703</ele>
        <time>2019-07-08T07:55:06Z</time>
      </trkpt>
      <trkpt lat="44.76953" lon="5.11525">
        <ele>436.20001220703</ele>
        <time>2019-07-08T07:55:10Z</time>
      </trkpt>
      <trkpt lat="44.7695" lon="5.11521">
        <ele>436.20001220703</ele>
        <time>2019-07-08T07:55:13Z</time>
      </trkpt>
      <trkpt lat="44.7695" lon="5.1152">
        <ele>436.60000610352</ele>
        <time>2019-07-08T07:55:14Z</time>
      </trkpt>
      <trkpt lat="44.76949" lon="5.11519">
        <ele>437</ele>
        <time>2019-07-08T07:55:15Z</time>
      </trkpt>
      <trkpt lat="44.76947" lon="5.11518">
        <ele>437.39999389648</ele>
        <time>2019-07-08T07:55:16Z</time>
      </trkpt>
      <trkpt lat="44.76947" lon="5.11516">
        <ele>437.79998779297</ele>
        <time>2019-07-08T07:55:17Z</time>
      </trkpt>
      <trkpt lat="44.76946" lon="5.11514">
        <ele>438.20001220703</ele>
        <time>2019-07-08T07:55:18Z</time>
      </trkpt>
      <trkpt lat="44.76946" lon="5.11509">
        <ele>438.20001220703</ele>
        <time>2019-07-08T07:55:21Z</time>
      </trkpt>
      <trkpt lat="44.76947" lon="5.11505">
        <ele>438.60000610352</ele>
        <time>2019-07-08T07:55:23Z</time>
      </trkpt>
      <trkpt lat="44.76948" lon="5.11504">
        <ele>439.20001220703</ele>
        <time>2019-07-08T07:55:24Z</time>
      </trkpt>
      <trkpt lat="44.76948" lon="5.11501">
        <ele>440</ele>
        <time>2019-07-08T07:55:25Z</time>
      </trkpt>
      <trkpt lat="44.76948" lon="5.11499">
        <ele>440.39999389648</ele>
        <time>2019-07-08T07:55:26Z</time>
      </trkpt>
      <trkpt lat="44.76949" lon="5.11498">
        <ele>440.39999389648</ele>
        <time>2019-07-08T07:55:27Z</time>
      </trkpt>
      <trkpt lat="44.76951" lon="5.11495">
        <ele>440.39999389648</ele>
        <time>2019-07-08T07:55:29Z</time>
      </trkpt>
      <trkpt lat="44.76954" lon="5.11491">
        <ele>440.79998779297</ele>
        <time>2019-07-08T07:55:32Z</time>
      </trkpt>
      <trkpt lat="44.76955" lon="5.1149">
        <ele>441.20001220703</ele>
        <time>2019-07-08T07:55:33Z</time>
      </trkpt>
      <trkpt lat="44.76955" lon="5.11488">
        <ele>441.60000610352</ele>
        <time>2019-07-08T07:55:34Z</time>
      </trkpt>
      <trkpt lat="44.76956" lon="5.11487">
        <ele>442</ele>
        <time>2019-07-08T07:55:35Z</time>
      </trkpt>
      <trkpt lat="44.76957" lon="5.11485">
        <ele>442.60000610352</ele>
        <time>2019-07-08T07:55:36Z</time>
      </trkpt>
      <trkpt lat="44.76962" lon="5.11475">
        <ele>443</ele>
        <time>2019-07-08T07:55:42Z</time>
      </trkpt>
      <trkpt lat="44.76962" lon="5.11474">
        <ele>443.39999389648</ele>
        <time>2019-07-08T07:55:43Z</time>
      </trkpt>
      <trkpt lat="44.76963" lon="5.11472">
        <ele>443.79998779297</ele>
        <time>2019-07-08T07:55:44Z</time>
      </trkpt>
      <trkpt lat="44.76964" lon="5.11471">
        <ele>444.20001220703</ele>
        <time>2019-07-08T07:55:45Z</time>
      </trkpt>
      <trkpt lat="44.76964" lon="5.11469">
        <ele>444.60000610352</ele>
        <time>2019-07-08T07:55:46Z</time>
      </trkpt>
      <trkpt lat="44.76969" lon="5.11462">
        <ele>444.60000610352</ele>
        <time>2019-07-08T07:55:51Z</time>
      </trkpt>
      <trkpt lat="44.7697" lon="5.1146">
        <ele>445</ele>
        <time>2019-07-08T07:55:52Z</time>
      </trkpt>
      <trkpt lat="44.7697" lon="5.11459">
        <ele>445.39999389648</ele>
        <time>2019-07-08T07:55:53Z</time>
      </trkpt>
      <trkpt lat="44.76971" lon="5.11458">
        <ele>445.79998779297</ele>
        <time>2019-07-08T07:55:54Z</time>
      </trkpt>
      <trkpt lat="44.76972" lon="5.11456">
        <ele>446.20001220703</ele>
        <time>2019-07-08T07:55:55Z</time>
      </trkpt>
      <trkpt lat="44.76973" lon="5.11455">
        <ele>446.60000610352</ele>
        <time>2019-07-08T07:55:56Z</time>
      </trkpt>
      <trkpt lat="44.76976" lon="5.11451">
        <ele>446.60000610352</ele>
        <time>2019-07-08T07:55:59Z</time>
      </trkpt>
      <trkpt lat="44.76981" lon="5.11446">
        <ele>447.20001220703</ele>
        <time>2019-07-08T07:56:03Z</time>
      </trkpt>
      <trkpt lat="44.76981" lon="5.11445">
        <ele>447.60000610352</ele>
        <time>2019-07-08T07:56:04Z</time>
      </trkpt>
      <trkpt lat="44.76982" lon="5.11444">
        <ele>448</ele>
        <time>2019-07-08T07:56:05Z</time>
      </trkpt>
      <trkpt lat="44.76983" lon="5.11442">
        <ele>448.39999389648</ele>
        <time>2019-07-08T07:56:06Z</time>
      </trkpt>
      <trkpt lat="44.76984" lon="5.11441">
        <ele>448.79998779297</ele>
        <time>2019-07-08T07:56:07Z</time>
      </trkpt>
      <trkpt lat="44.7699" lon="5.1143">
        <ele>449.20001220703</ele>
        <time>2019-07-08T07:56:14Z</time>
      </trkpt>
      <trkpt lat="44.76991" lon="5.11429">
        <ele>450</ele>
        <time>2019-07-08T07:56:15Z</time>
      </trkpt>
      <trkpt lat="44.76992" lon="5.11427">
        <ele>450.39999389648</ele>
        <time>2019-07-08T07:56:16Z</time>
      </trkpt>
      <trkpt lat="44.76993" lon="5.11426">
        <ele>450.79998779297</ele>
        <time>2019-07-08T07:56:17Z</time>
      </trkpt>
      <trkpt lat="44.76997" lon="5.1142">
        <ele>450.79998779297</ele>
        <time>2019-07-08T07:56:21Z</time>
      </trkpt>
      <trkpt lat="44.77001" lon="5.11413">
        <ele>451.20001220703</ele>
        <time>2019-07-08T07:56:26Z</time>
      </trkpt>
      <trkpt lat="44.77002" lon="5.11411">
        <ele>451.60000610352</ele>
        <time>2019-07-08T07:56:27Z</time>
      </trkpt>
      <trkpt lat="44.77004" lon="5.11411">
        <ele>452</ele>
        <time>2019-07-08T07:56:28Z</time>
      </trkpt>
      <trkpt lat="44.77005" lon="5.11409">
        <ele>452.39999389648</ele>
        <time>2019-07-08T07:56:29Z</time>
      </trkpt>
      <trkpt lat="44.77006" lon="5.11408">
        <ele>452.79998779297</ele>
        <time>2019-07-08T07:56:30Z</time>
      </trkpt>
      <trkpt lat="44.7701" lon="5.11402">
        <ele>452.79998779297</ele>
        <time>2019-07-08T07:56:34Z</time>
      </trkpt>
      <trkpt lat="44.77012" lon="5.11399">
        <ele>452.79998779297</ele>
        <time>2019-07-08T07:56:36Z</time>
      </trkpt>
      <trkpt lat="44.77012" lon="5.11397">
        <ele>453.20001220703</ele>
        <time>2019-07-08T07:56:37Z</time>
      </trkpt>
      <trkpt lat="44.77013" lon="5.11396">
        <ele>453.79998779297</ele>
        <time>2019-07-08T07:56:38Z</time>
      </trkpt>
      <trkpt lat="44.77014" lon="5.11394">
        <ele>454.60000610352</ele>
        <time>2019-07-08T07:56:39Z</time>
      </trkpt>
      <trkpt lat="44.77015" lon="5.11392">
        <ele>455</ele>
        <time>2019-07-08T07:56:40Z</time>
      </trkpt>
      <trkpt lat="44.77017" lon="5.11388">
        <ele>455</ele>
        <time>2019-07-08T07:56:43Z</time>
      </trkpt>
      <trkpt lat="44.7702" lon="5.11381">
        <ele>455.39999389648</ele>
        <time>2019-07-08T07:56:47Z</time>
      </trkpt>
      <trkpt lat="44.77021" lon="5.1138">
        <ele>455.79998779297</ele>
        <time>2019-07-08T07:56:48Z</time>
      </trkpt>
      <trkpt lat="44.77021" lon="5.11378">
        <ele>456.20001220703</ele>
        <time>2019-07-08T07:56:49Z</time>
      </trkpt>
      <trkpt lat="44.77022" lon="5.11376">
        <ele>456.60000610352</ele>
        <time>2019-07-08T07:56:50Z</time>
      </trkpt>
      <trkpt lat="44.77023" lon="5.11375">
        <ele>457.20001220703</ele>
        <time>2019-07-08T07:56:51Z</time>
      </trkpt>
      <trkpt lat="44.77025" lon="5.11369">
        <ele>457.20001220703</ele>
        <time>2019-07-08T07:56:55Z</time>
      </trkpt>
      <trkpt lat="44.77024" lon="5.11366">
        <ele>457.60000610352</ele>
        <time>2019-07-08T07:56:57Z</time>
      </trkpt>
      <trkpt lat="44.77023" lon="5.11366">
        <ele>458</ele>
        <time>2019-07-08T07:56:58Z</time>
      </trkpt>
      <trkpt lat="44.77021" lon="5.11364">
        <ele>458.39999389648</ele>
        <time>2019-07-08T07:56:59Z</time>
      </trkpt>
      <trkpt lat="44.7702" lon="5.11364">
        <ele>459</ele>
        <time>2019-07-08T07:57:00Z</time>
      </trkpt>
      <trkpt lat="44.77018" lon="5.11364">
        <ele>459.39999389648</ele>
        <time>2019-07-08T07:57:01Z</time>
      </trkpt>
      <trkpt lat="44.77015" lon="5.11366">
        <ele>459.39999389648</ele>
        <time>2019-07-08T07:57:03Z</time>
      </trkpt>
      <trkpt lat="44.77014" lon="5.11367">
        <ele>459.39999389648</ele>
        <time>2019-07-08T07:57:07Z</time>
      </trkpt>
      <trkpt lat="44.77014" lon="5.11367">
        <ele>459.39999389648</ele>
        <time>2019-07-08T07:57:17Z</time>
      </trkpt>
      <trkpt lat="44.77014" lon="5.11367">
        <ele>459.39999389648</ele>
        <time>2019-07-08T07:57:32Z</time>
      </trkpt>
      <trkpt lat="44.77014" lon="5.11367">
        <ele>459.39999389648</ele>
        <time>2019-07-08T07:57:45Z</time>
      </trkpt>
      <trkpt lat="44.77014" lon="5.11366">
        <ele>459.39999389648</ele>
        <time>2019-07-08T07:57:51Z</time>
      </trkpt>
      <trkpt lat="44.77011" lon="5.11365">
        <ele>459.39999389648</ele>
        <time>2019-07-08T07:57:53Z</time>
      </trkpt>
      <trkpt lat="44.77006" lon="5.11364">
        <ele>459.39999389648</ele>
        <time>2019-07-08T07:57:55Z</time>
      </trkpt>
      <trkpt lat="44.76994" lon="5.11362">
        <ele>459.39999389648</ele>
        <time>2019-07-08T07:57:59Z</time>
      </trkpt>
      <trkpt lat="44.76971" lon="5.11358">
        <ele>459.39999389648</ele>
        <time>2019-07-08T07:58:06Z</time>
      </trkpt>
      <trkpt lat="44.76964" lon="5.11357">
        <ele>459</ele>
        <time>2019-07-08T07:58:08Z</time>
      </trkpt>
      <trkpt lat="44.76961" lon="5.11356">
        <ele>458.60000610352</ele>
        <time>2019-07-08T07:58:09Z</time>
      </trkpt>
      <trkpt lat="44.76958" lon="5.11356">
        <ele>458.20001220703</ele>
        <time>2019-07-08T07:58:10Z</time>
      </trkpt>
      <trkpt lat="44.76956" lon="5.11355">
        <ele>457.79998779297</ele>
        <time>2019-07-08T07:58:11Z</time>
      </trkpt>
      <trkpt lat="44.76953" lon="5.11355">
        <ele>457.39999389648</ele>
        <time>2019-07-08T07:58:12Z</time>
      </trkpt>
      <trkpt lat="44.76951" lon="5.11354">
        <ele>457.39999389648</ele>
        <time>2019-07-08T07:58:13Z</time>
      </trkpt>
      <trkpt lat="44.76939" lon="5.11347">
        <ele>457.39999389648</ele>
        <time>2019-07-08T07:58:19Z</time>
      </trkpt>
      <trkpt lat="44.76933" lon="5.1134">
        <ele>457.79998779297</ele>
        <time>2019-07-08T07:58:23Z</time>
      </trkpt>
      <trkpt lat="44.76931" lon="5.11338">
        <ele>458.20001220703</ele>
        <time>2019-07-08T07:58:24Z</time>
      </trkpt>
      <trkpt lat="44.76929" lon="5.11336">
        <ele>458.60000610352</ele>
        <time>2019-07-08T07:58:25Z</time>
      </trkpt>
      <trkpt lat="44.76927" lon="5.11333">
        <ele>459</ele>
        <time>2019-07-08T07:58:26Z</time>
      </trkpt>
      <trkpt lat="44.76925" lon="5.1133">
        <ele>459.39999389648</ele>
        <time>2019-07-08T07:58:27Z</time>
      </trkpt>
      <trkpt lat="44.76913" lon="5.11319">
        <ele>459.39999389648</ele>
        <time>2019-07-08T07:58:32Z</time>
      </trkpt>
      <trkpt lat="44.76895" lon="5.11307">
        <ele>459.39999389648</ele>
        <time>2019-07-08T07:58:39Z</time>
      </trkpt>
      <trkpt lat="44.76876" lon="5.11296">
        <ele>459.39999389648</ele>
        <time>2019-07-08T07:58:46Z</time>
      </trkpt>
      <trkpt lat="44.76873" lon="5.11294">
        <ele>459.79998779297</ele>
        <time>2019-07-08T07:58:47Z</time>
      </trkpt>
      <trkpt lat="44.7687" lon="5.11292">
        <ele>460.20001220703</ele>
        <time>2019-07-08T07:58:48Z</time>
      </trkpt>
      <trkpt lat="44.76867" lon="5.11291">
        <ele>460.60000610352</ele>
        <time>2019-07-08T07:58:49Z</time>
      </trkpt>
      <trkpt lat="44.76864" lon="5.11289">
        <ele>461</ele>
        <time>2019-07-08T07:58:50Z</time>
      </trkpt>
      <trkpt lat="44.76861" lon="5.11288">
        <ele>461.60000610352</ele>
        <time>2019-07-08T07:58:51Z</time>
      </trkpt>
      <trkpt lat="44.76858" lon="5.11285">
        <ele>461.60000610352</ele>
        <time>2019-07-08T07:58:52Z</time>
      </trkpt>
      <trkpt lat="44.76837" lon="5.11272">
        <ele>461.60000610352</ele>
        <time>2019-07-08T07:58:59Z</time>
      </trkpt>
      <trkpt lat="44.7682" lon="5.11261">
        <ele>461.60000610352</ele>
        <time>2019-07-08T07:59:05Z</time>
      </trkpt>
      <trkpt lat="44.76795" lon="5.1124">
        <ele>461.60000610352</ele>
        <time>2019-07-08T07:59:12Z</time>
      </trkpt>
      <trkpt lat="44.76791" lon="5.11235">
        <ele>461.20001220703</ele>
        <time>2019-07-08T07:59:13Z</time>
      </trkpt>
      <trkpt lat="44.76786" lon="5.11229">
        <ele>460.60000610352</ele>
        <time>2019-07-08T07:59:14Z</time>
      </trkpt>
      <trkpt lat="44.76781" lon="5.11222">
        <ele>460.20001220703</ele>
        <time>2019-07-08T07:59:15Z</time>
      </trkpt>
      <trkpt lat="44.76775" lon="5.11213">
        <ele>459.60000610352</ele>
        <time>2019-07-08T07:59:16Z</time>
      </trkpt>
      <trkpt lat="44.76773" lon="5.11201">
        <ele>459</ele>
        <time>2019-07-08T07:59:17Z</time>
      </trkpt>
      <trkpt lat="44.76769" lon="5.11188">
        <ele>458.39999389648</ele>
        <time>2019-07-08T07:59:18Z</time>
      </trkpt>
      <trkpt lat="44.76764" lon="5.11178">
        <ele>457.60000610352</ele>
        <time>2019-07-08T07:59:19Z</time>
      </trkpt>
      <trkpt lat="44.76756" lon="5.11172">
        <ele>457</ele>
        <time>2019-07-08T07:59:20Z</time>
      </trkpt>
      <trkpt lat="44.7675" lon="5.11169">
        <ele>456.20001220703</ele>
        <time>2019-07-08T07:59:21Z</time>
      </trkpt>
      <trkpt lat="44.76744" lon="5.11167">
        <ele>455.39999389648</ele>
        <time>2019-07-08T07:59:22Z</time>
      </trkpt>
      <trkpt lat="44.76739" lon="5.11165">
        <ele>454.79998779297</ele>
        <time>2019-07-08T07:59:23Z</time>
      </trkpt>
      <trkpt lat="44.76733" lon="5.11164">
        <ele>454.79998779297</ele>
        <time>2019-07-08T07:59:24Z</time>
      </trkpt>
      <trkpt lat="44.76719" lon="5.11154">
        <ele>454.79998779297</ele>
        <time>2019-07-08T07:59:27Z</time>
      </trkpt>
      <trkpt lat="44.76713" lon="5.11145">
        <ele>454.79998779297</ele>
        <time>2019-07-08T07:59:29Z</time>
      </trkpt>
      <trkpt lat="44.76697" lon="5.11123">
        <ele>454.79998779297</ele>
        <time>2019-07-08T07:59:35Z</time>
      </trkpt>
      <trkpt lat="44.76688" lon="5.11105">
        <ele>454.79998779297</ele>
        <time>2019-07-08T07:59:40Z</time>
      </trkpt>
      <trkpt lat="44.76681" lon="5.11093">
        <ele>455.20001220703</ele>
        <time>2019-07-08T07:59:44Z</time>
      </trkpt>
      <trkpt lat="44.76679" lon="5.1109">
        <ele>455.60000610352</ele>
        <time>2019-07-08T07:59:45Z</time>
      </trkpt>
      <trkpt lat="44.76677" lon="5.11087">
        <ele>456</ele>
        <time>2019-07-08T07:59:46Z</time>
      </trkpt>
      <trkpt lat="44.76674" lon="5.11085">
        <ele>456.39999389648</ele>
        <time>2019-07-08T07:59:47Z</time>
      </trkpt>
      <trkpt lat="44.76673" lon="5.11083">
        <ele>456.79998779297</ele>
        <time>2019-07-08T07:59:48Z</time>
      </trkpt>
      <trkpt lat="44.76666" lon="5.11076">
        <ele>456.79998779297</ele>
        <time>2019-07-08T07:59:51Z</time>
      </trkpt>
      <trkpt lat="44.76661" lon="5.11072">
        <ele>457.20001220703</ele>
        <time>2019-07-08T07:59:53Z</time>
      </trkpt>
      <trkpt lat="44.76659" lon="5.1107">
        <ele>457.60000610352</ele>
        <time>2019-07-08T07:59:54Z</time>
      </trkpt>
      <trkpt lat="44.76656" lon="5.11067">
        <ele>458</ele>
        <time>2019-07-08T07:59:55Z</time>
      </trkpt>
      <trkpt lat="44.76655" lon="5.11065">
        <ele>458.39999389648</ele>
        <time>2019-07-08T07:59:56Z</time>
      </trkpt>
      <trkpt lat="44.76653" lon="5.11062">
        <ele>458.79998779297</ele>
        <time>2019-07-08T07:59:57Z</time>
      </trkpt>
      <trkpt lat="44.76652" lon="5.1106">
        <ele>458.79998779297</ele>
        <time>2019-07-08T07:59:58Z</time>
      </trkpt>
      <trkpt lat="44.76647" lon="5.11054">
        <ele>459.39999389648</ele>
        <time>2019-07-08T08:00:01Z</time>
      </trkpt>
      <trkpt lat="44.76644" lon="5.11052">
        <ele>459.79998779297</ele>
        <time>2019-07-08T08:00:02Z</time>
      </trkpt>
      <trkpt lat="44.76643" lon="5.1105">
        <ele>460.20001220703</ele>
        <time>2019-07-08T08:00:03Z</time>
      </trkpt>
      <trkpt lat="44.76641" lon="5.11048">
        <ele>460.60000610352</ele>
        <time>2019-07-08T08:00:04Z</time>
      </trkpt>
      <trkpt lat="44.76639" lon="5.11046">
        <ele>461</ele>
        <time>2019-07-08T08:00:05Z</time>
      </trkpt>
      <trkpt lat="44.76637" lon="5.11045">
        <ele>461</ele>
        <time>2019-07-08T08:00:06Z</time>
      </trkpt>
      <trkpt lat="44.76634" lon="5.11038">
        <ele>461</ele>
        <time>2019-07-08T08:00:09Z</time>
      </trkpt>
      <trkpt lat="44.76634" lon="5.11034">
        <ele>461.39999389648</ele>
        <time>2019-07-08T08:00:11Z</time>
      </trkpt>
      <trkpt lat="44.76634" lon="5.11031">
        <ele>461.79998779297</ele>
        <time>2019-07-08T08:00:12Z</time>
      </trkpt>
      <trkpt lat="44.76634" lon="5.11028">
        <ele>462.20001220703</ele>
        <time>2019-07-08T08:00:13Z</time>
      </trkpt>
      <trkpt lat="44.76635" lon="5.11026">
        <ele>462.60000610352</ele>
        <time>2019-07-08T08:00:14Z</time>
      </trkpt>
      <trkpt lat="44.76635" lon="5.11024">
        <ele>463</ele>
        <time>2019-07-08T08:00:15Z</time>
      </trkpt>
      <trkpt lat="44.76636" lon="5.1102">
        <ele>463</ele>
        <time>2019-07-08T08:00:17Z</time>
      </trkpt>
      <trkpt lat="44.76637" lon="5.11015">
        <ele>463</ele>
        <time>2019-07-08T08:00:19Z</time>
      </trkpt>
      <trkpt lat="44.76635" lon="5.11006">
        <ele>463.39999389648</ele>
        <time>2019-07-08T08:00:23Z</time>
      </trkpt>
      <trkpt lat="44.76636" lon="5.11003">
        <ele>463.79998779297</ele>
        <time>2019-07-08T08:00:24Z</time>
      </trkpt>
      <trkpt lat="44.76636" lon="5.11001">
        <ele>464.20001220703</ele>
        <time>2019-07-08T08:00:25Z</time>
      </trkpt>
      <trkpt lat="44.76636" lon="5.10999">
        <ele>464.60000610352</ele>
        <time>2019-07-08T08:00:26Z</time>
      </trkpt>
      <trkpt lat="44.76635" lon="5.10997">
        <ele>465</ele>
        <time>2019-07-08T08:00:27Z</time>
      </trkpt>
      <trkpt lat="44.76634" lon="5.10985">
        <ele>465</ele>
        <time>2019-07-08T08:00:33Z</time>
      </trkpt>
      <trkpt lat="44.76634" lon="5.10976">
        <ele>465.60000610352</ele>
        <time>2019-07-08T08:00:37Z</time>
      </trkpt>
      <trkpt lat="44.76634" lon="5.10974">
        <ele>466</ele>
        <time>2019-07-08T08:00:38Z</time>
      </trkpt>
      <trkpt lat="44.76634" lon="5.10972">
        <ele>466.39999389648</ele>
        <time>2019-07-08T08:00:39Z</time>
      </trkpt>
      <trkpt lat="44.76633" lon="5.1097">
        <ele>466.79998779297</ele>
        <time>2019-07-08T08:00:40Z</time>
      </trkpt>
      <trkpt lat="44.76633" lon="5.10968">
        <ele>467.20001220703</ele>
        <time>2019-07-08T08:00:41Z</time>
      </trkpt>
      <trkpt lat="44.76629" lon="5.1095">
        <ele>467.60000610352</ele>
        <time>2019-07-08T08:00:50Z</time>
      </trkpt>
      <trkpt lat="44.7663" lon="5.10948">
        <ele>468</ele>
        <time>2019-07-08T08:00:51Z</time>
      </trkpt>
      <trkpt lat="44.76629" lon="5.10946">
        <ele>468.39999389648</ele>
        <time>2019-07-08T08:00:52Z</time>
      </trkpt>
      <trkpt lat="44.76628" lon="5.10944">
        <ele>468.79998779297</ele>
        <time>2019-07-08T08:00:53Z</time>
      </trkpt>
      <trkpt lat="44.76628" lon="5.10942">
        <ele>469.20001220703</ele>
        <time>2019-07-08T08:00:54Z</time>
      </trkpt>
      <trkpt lat="44.76627" lon="5.1094">
        <ele>469.20001220703</ele>
        <time>2019-07-08T08:00:55Z</time>
      </trkpt>
      <trkpt lat="44.76625" lon="5.10935">
        <ele>469.20001220703</ele>
        <time>2019-07-08T08:00:58Z</time>
      </trkpt>
      <trkpt lat="44.76623" lon="5.10928">
        <ele>469.60000610352</ele>
        <time>2019-07-08T08:01:02Z</time>
      </trkpt>
      <trkpt lat="44.76623" lon="5.10925">
        <ele>470.20001220703</ele>
        <time>2019-07-08T08:01:03Z</time>
      </trkpt>
      <trkpt lat="44.76622" lon="5.10923">
        <ele>470.60000610352</ele>
        <time>2019-07-08T08:01:04Z</time>
      </trkpt>
      <trkpt lat="44.76621" lon="5.10921">
        <ele>471</ele>
        <time>2019-07-08T08:01:05Z</time>
      </trkpt>
      <trkpt lat="44.7662" lon="5.1092">
        <ele>471.39999389648</ele>
        <time>2019-07-08T08:01:06Z</time>
      </trkpt>
      <trkpt lat="44.76619" lon="5.10917">
        <ele>471.39999389648</ele>
        <time>2019-07-08T08:01:07Z</time>
      </trkpt>
      <trkpt lat="44.76617" lon="5.10913">
        <ele>471.39999389648</ele>
        <time>2019-07-08T08:01:09Z</time>
      </trkpt>
      <trkpt lat="44.76614" lon="5.10908">
        <ele>471.39999389648</ele>
        <time>2019-07-08T08:01:12Z</time>
      </trkpt>
      <trkpt lat="44.76612" lon="5.10905">
        <ele>471.79998779297</ele>
        <time>2019-07-08T08:01:14Z</time>
      </trkpt>
      <trkpt lat="44.76611" lon="5.10903">
        <ele>472.20001220703</ele>
        <time>2019-07-08T08:01:15Z</time>
      </trkpt>
      <trkpt lat="44.7661" lon="5.10901">
        <ele>472.60000610352</ele>
        <time>2019-07-08T08:01:16Z</time>
      </trkpt>
      <trkpt lat="44.76609" lon="5.10898">
        <ele>473</ele>
        <time>2019-07-08T08:01:17Z</time>
      </trkpt>
      <trkpt lat="44.76608" lon="5.10897">
        <ele>473.39999389648</ele>
        <time>2019-07-08T08:01:18Z</time>
      </trkpt>
      <trkpt lat="44.76602" lon="5.10885">
        <ele>473.39999389648</ele>
        <time>2019-07-08T08:01:25Z</time>
      </trkpt>
      <trkpt lat="44.76599" lon="5.10881">
        <ele>474</ele>
        <time>2019-07-08T08:01:27Z</time>
      </trkpt>
      <trkpt lat="44.76599" lon="5.10879">
        <ele>474.39999389648</ele>
        <time>2019-07-08T08:01:28Z</time>
      </trkpt>
      <trkpt lat="44.76598" lon="5.10878">
        <ele>474.79998779297</ele>
        <time>2019-07-08T08:01:29Z</time>
      </trkpt>
      <trkpt lat="44.76597" lon="5.10876">
        <ele>475.20001220703</ele>
        <time>2019-07-08T08:01:30Z</time>
      </trkpt>
      <trkpt lat="44.76596" lon="5.10874">
        <ele>475.60000610352</ele>
        <time>2019-07-08T08:01:31Z</time>
      </trkpt>
      <trkpt lat="44.76595" lon="5.10873">
        <ele>475.60000610352</ele>
        <time>2019-07-08T08:01:32Z</time>
      </trkpt>
      <trkpt lat="44.76587" lon="5.10858">
        <ele>475.60000610352</ele>
        <time>2019-07-08T08:01:40Z</time>
      </trkpt>
      <trkpt lat="44.76586" lon="5.10856">
        <ele>476</ele>
        <time>2019-07-08T08:01:41Z</time>
      </trkpt>
      <trkpt lat="44.76585" lon="5.10854">
        <ele>476.60000610352</ele>
        <time>2019-07-08T08:01:42Z</time>
      </trkpt>
      <trkpt lat="44.76585" lon="5.10852">
        <ele>477</ele>
        <time>2019-07-08T08:01:43Z</time>
      </trkpt>
      <trkpt lat="44.76584" lon="5.1085">
        <ele>477.39999389648</ele>
        <time>2019-07-08T08:01:44Z</time>
      </trkpt>
      <trkpt lat="44.76583" lon="5.10848">
        <ele>477.79998779297</ele>
        <time>2019-07-08T08:01:45Z</time>
      </trkpt>
      <trkpt lat="44.7658" lon="5.10842">
        <ele>477.79998779297</ele>
        <time>2019-07-08T08:01:48Z</time>
      </trkpt>
      <trkpt lat="44.76576" lon="5.10832">
        <ele>478.20001220703</ele>
        <time>2019-07-08T08:01:53Z</time>
      </trkpt>
      <trkpt lat="44.76576" lon="5.10831">
        <ele>478.60000610352</ele>
        <time>2019-07-08T08:01:54Z</time>
      </trkpt>
      <trkpt lat="44.76575" lon="5.10829">
        <ele>479</ele>
        <time>2019-07-08T08:01:55Z</time>
      </trkpt>
      <trkpt lat="44.76575" lon="5.10827">
        <ele>479.39999389648</ele>
        <time>2019-07-08T08:01:56Z</time>
      </trkpt>
      <trkpt lat="44.76574" lon="5.10825">
        <ele>479.79998779297</ele>
        <time>2019-07-08T08:01:57Z</time>
      </trkpt>
      <trkpt lat="44.76573" lon="5.10821">
        <ele>479.79998779297</ele>
        <time>2019-07-08T08:01:59Z</time>
      </trkpt>
      <trkpt lat="44.76572" lon="5.10818">
        <ele>479.79998779297</ele>
        <time>2019-07-08T08:02:01Z</time>
      </trkpt>
      <trkpt lat="44.76571" lon="5.10812">
        <ele>480.20001220703</ele>
        <time>2019-07-08T08:02:04Z</time>
      </trkpt>
      <trkpt lat="44.76571" lon="5.1081">
        <ele>480.60000610352</ele>
        <time>2019-07-08T08:02:05Z</time>
      </trkpt>
      <trkpt lat="44.76571" lon="5.10808">
        <ele>481</ele>
        <time>2019-07-08T08:02:06Z</time>
      </trkpt>
      <trkpt lat="44.76572" lon="5.10805">
        <ele>481.60000610352</ele>
        <time>2019-07-08T08:02:07Z</time>
      </trkpt>
      <trkpt lat="44.76572" lon="5.10802">
        <ele>482</ele>
        <time>2019-07-08T08:02:08Z</time>
      </trkpt>
      <trkpt lat="44.7657" lon="5.10786">
        <ele>482</ele>
        <time>2019-07-08T08:02:15Z</time>
      </trkpt>
      <trkpt lat="44.7657" lon="5.10782">
        <ele>482.39999389648</ele>
        <time>2019-07-08T08:02:17Z</time>
      </trkpt>
      <trkpt lat="44.76569" lon="5.1078">
        <ele>482.79998779297</ele>
        <time>2019-07-08T08:02:18Z</time>
      </trkpt>
      <trkpt lat="44.76569" lon="5.10777">
        <ele>483.20001220703</ele>
        <time>2019-07-08T08:02:19Z</time>
      </trkpt>
      <trkpt lat="44.76569" lon="5.10775">
        <ele>483.60000610352</ele>
        <time>2019-07-08T08:02:20Z</time>
      </trkpt>
      <trkpt lat="44.76568" lon="5.10772">
        <ele>484</ele>
        <time>2019-07-08T08:02:21Z</time>
      </trkpt>
      <trkpt lat="44.76566" lon="5.10766">
        <ele>484</ele>
        <time>2019-07-08T08:02:24Z</time>
      </trkpt>
      <trkpt lat="44.76568" lon="5.10753">
        <ele>484</ele>
        <time>2019-07-08T08:02:31Z</time>
      </trkpt>
      <trkpt lat="44.76568" lon="5.10751">
        <ele>484.39999389648</ele>
        <time>2019-07-08T08:02:32Z</time>
      </trkpt>
      <trkpt lat="44.76568" lon="5.1075">
        <ele>484.79998779297</ele>
        <time>2019-07-08T08:02:33Z</time>
      </trkpt>
      <trkpt lat="44.76569" lon="5.10748">
        <ele>485.20001220703</ele>
        <time>2019-07-08T08:02:34Z</time>
      </trkpt>
      <trkpt lat="44.7657" lon="5.10745">
        <ele>485.60000610352</ele>
        <time>2019-07-08T08:02:35Z</time>
      </trkpt>
      <trkpt lat="44.76571" lon="5.10743">
        <ele>486</ele>
        <time>2019-07-08T08:02:36Z</time>
      </trkpt>
      <trkpt lat="44.76572" lon="5.10739">
        <ele>486</ele>
        <time>2019-07-08T08:02:38Z</time>
      </trkpt>
      <trkpt lat="44.76575" lon="5.1073">
        <ele>486.39999389648</ele>
        <time>2019-07-08T08:02:42Z</time>
      </trkpt>
      <trkpt lat="44.76576" lon="5.10727">
        <ele>486.79998779297</ele>
        <time>2019-07-08T08:02:43Z</time>
      </trkpt>
      <trkpt lat="44.76577" lon="5.10725">
        <ele>487.20001220703</ele>
        <time>2019-07-08T08:02:44Z</time>
      </trkpt>
      <trkpt lat="44.76578" lon="5.10723">
        <ele>487.60000610352</ele>
        <time>2019-07-08T08:02:45Z</time>
      </trkpt>
      <trkpt lat="44.76578" lon="5.10721">
        <ele>488</ele>
        <time>2019-07-08T08:02:46Z</time>
      </trkpt>
      <trkpt lat="44.76581" lon="5.10714">
        <ele>488.39999389648</ele>
        <time>2019-07-08T08:02:50Z</time>
      </trkpt>
      <trkpt lat="44.76582" lon="5.10712">
        <ele>488.79998779297</ele>
        <time>2019-07-08T08:02:51Z</time>
      </trkpt>
      <trkpt lat="44.76582" lon="5.1071">
        <ele>489.20001220703</ele>
        <time>2019-07-08T08:02:52Z</time>
      </trkpt>
      <trkpt lat="44.76582" lon="5.10708">
        <ele>489.60000610352</ele>
        <time>2019-07-08T08:02:53Z</time>
      </trkpt>
      <trkpt lat="44.76583" lon="5.10706">
        <ele>490</ele>
        <time>2019-07-08T08:02:54Z</time>
      </trkpt>
      <trkpt lat="44.76585" lon="5.10696">
        <ele>490.60000610352</ele>
        <time>2019-07-08T08:03:00Z</time>
      </trkpt>
      <trkpt lat="44.76585" lon="5.10694">
        <ele>491</ele>
        <time>2019-07-08T08:03:01Z</time>
      </trkpt>
      <trkpt lat="44.76586" lon="5.10692">
        <ele>491.39999389648</ele>
        <time>2019-07-08T08:03:02Z</time>
      </trkpt>
      <trkpt lat="44.76587" lon="5.1069">
        <ele>491.79998779297</ele>
        <time>2019-07-08T08:03:03Z</time>
      </trkpt>
      <trkpt lat="44.76588" lon="5.10688">
        <ele>492.20001220703</ele>
        <time>2019-07-08T08:03:04Z</time>
      </trkpt>
      <trkpt lat="44.7659" lon="5.10682">
        <ele>492.20001220703</ele>
        <time>2019-07-08T08:03:07Z</time>
      </trkpt>
      <trkpt lat="44.76592" lon="5.10676">
        <ele>492.60000610352</ele>
        <time>2019-07-08T08:03:10Z</time>
      </trkpt>
      <trkpt lat="44.76592" lon="5.10674">
        <ele>493.20001220703</ele>
        <time>2019-07-08T08:03:11Z</time>
      </trkpt>
      <trkpt lat="44.76592" lon="5.10671">
        <ele>493.60000610352</ele>
        <time>2019-07-08T08:03:12Z</time>
      </trkpt>
      <trkpt lat="44.76591" lon="5.10669">
        <ele>494.39999389648</ele>
        <time>2019-07-08T08:03:13Z</time>
      </trkpt>
      <trkpt lat="44.76591" lon="5.10667">
        <ele>494.39999389648</ele>
        <time>2019-07-08T08:03:14Z</time>
      </trkpt>
      <trkpt lat="44.76591" lon="5.10657">
        <ele>494.39999389648</ele>
        <time>2019-07-08T08:03:19Z</time>
      </trkpt>
      <trkpt lat="44.7659" lon="5.10653">
        <ele>494.39999389648</ele>
        <time>2019-07-08T08:03:21Z</time>
      </trkpt>
      <trkpt lat="44.76589" lon="5.1064">
        <ele>494.39999389648</ele>
        <time>2019-07-08T08:03:27Z</time>
      </trkpt>
      <trkpt lat="44.76586" lon="5.10623">
        <ele>494.79998779297</ele>
        <time>2019-07-08T08:03:34Z</time>
      </trkpt>
      <trkpt lat="44.76585" lon="5.10621">
        <ele>495.20001220703</ele>
        <time>2019-07-08T08:03:35Z</time>
      </trkpt>
      <trkpt lat="44.76584" lon="5.10619">
        <ele>495.60000610352</ele>
        <time>2019-07-08T08:03:36Z</time>
      </trkpt>
      <trkpt lat="44.76583" lon="5.10617">
        <ele>496</ele>
        <time>2019-07-08T08:03:37Z</time>
      </trkpt>
      <trkpt lat="44.76583" lon="5.10615">
        <ele>496.60000610352</ele>
        <time>2019-07-08T08:03:38Z</time>
      </trkpt>
      <trkpt lat="44.76582" lon="5.10613">
        <ele>496.60000610352</ele>
        <time>2019-07-08T08:03:39Z</time>
      </trkpt>
      <trkpt lat="44.76577" lon="5.10601">
        <ele>497</ele>
        <time>2019-07-08T08:03:45Z</time>
      </trkpt>
      <trkpt lat="44.76575" lon="5.10599">
        <ele>497.39999389648</ele>
        <time>2019-07-08T08:03:46Z</time>
      </trkpt>
      <trkpt lat="44.76574" lon="5.10598">
        <ele>497.79998779297</ele>
        <time>2019-07-08T08:03:47Z</time>
      </trkpt>
      <trkpt lat="44.76573" lon="5.10596">
        <ele>498.20001220703</ele>
        <time>2019-07-08T08:03:48Z</time>
      </trkpt>
      <trkpt lat="44.76572" lon="5.10595">
        <ele>498.79998779297</ele>
        <time>2019-07-08T08:03:49Z</time>
      </trkpt>
      <trkpt lat="44.7657" lon="5.10593">
        <ele>498.79998779297</ele>
        <time>2019-07-08T08:03:51Z</time>
      </trkpt>
      <trkpt lat="44.76564" lon="5.10584">
        <ele>498.79998779297</ele>
        <time>2019-07-08T08:03:57Z</time>
      </trkpt>
      <trkpt lat="44.76562" lon="5.10577">
        <ele>499.20001220703</ele>
        <time>2019-07-08T08:04:00Z</time>
      </trkpt>
      <trkpt lat="44.76561" lon="5.10575">
        <ele>499.60000610352</ele>
        <time>2019-07-08T08:04:01Z</time>
      </trkpt>
      <trkpt lat="44.7656" lon="5.10573">
        <ele>500</ele>
        <time>2019-07-08T08:04:02Z</time>
      </trkpt>
      <trkpt lat="44.76559" lon="5.10572">
        <ele>501</ele>
        <time>2019-07-08T08:04:03Z</time>
      </trkpt>
      <trkpt lat="44.76555" lon="5.10564">
        <ele>501</ele>
        <time>2019-07-08T08:04:08Z</time>
      </trkpt>
      <trkpt lat="44.76554" lon="5.10562">
        <ele>501.39999389648</ele>
        <time>2019-07-08T08:04:09Z</time>
      </trkpt>
      <trkpt lat="44.76553" lon="5.1056">
        <ele>501.79998779297</ele>
        <time>2019-07-08T08:04:10Z</time>
      </trkpt>
      <trkpt lat="44.76552" lon="5.10559">
        <ele>502.20001220703</ele>
        <time>2019-07-08T08:04:11Z</time>
      </trkpt>
      <trkpt lat="44.76551" lon="5.10557">
        <ele>502.60000610352</ele>
        <time>2019-07-08T08:04:12Z</time>
      </trkpt>
      <trkpt lat="44.7655" lon="5.10556">
        <ele>503.20001220703</ele>
        <time>2019-07-08T08:04:13Z</time>
      </trkpt>
      <trkpt lat="44.76549" lon="5.10554">
        <ele>503.20001220703</ele>
        <time>2019-07-08T08:04:14Z</time>
      </trkpt>
      <trkpt lat="44.76543" lon="5.1054">
        <ele>503.60000610352</ele>
        <time>2019-07-08T08:04:21Z</time>
      </trkpt>
      <trkpt lat="44.76543" lon="5.10538">
        <ele>504</ele>
        <time>2019-07-08T08:04:22Z</time>
      </trkpt>
      <trkpt lat="44.76542" lon="5.10537">
        <ele>504.39999389648</ele>
        <time>2019-07-08T08:04:23Z</time>
      </trkpt>
      <trkpt lat="44.76541" lon="5.10535">
        <ele>504.79998779297</ele>
        <time>2019-07-08T08:04:24Z</time>
      </trkpt>
      <trkpt lat="44.7654" lon="5.10534">
        <ele>505.39999389648</ele>
        <time>2019-07-08T08:04:25Z</time>
      </trkpt>
      <trkpt lat="44.76539" lon="5.10533">
        <ele>505.39999389648</ele>
        <time>2019-07-08T08:04:26Z</time>
      </trkpt>
      <trkpt lat="44.76532" lon="5.10525">
        <ele>505.79998779297</ele>
        <time>2019-07-08T08:04:32Z</time>
      </trkpt>
      <trkpt lat="44.76531" lon="5.10524">
        <ele>506.20001220703</ele>
        <time>2019-07-08T08:04:33Z</time>
      </trkpt>
      <trkpt lat="44.7653" lon="5.10523">
        <ele>506.60000610352</ele>
        <time>2019-07-08T08:04:34Z</time>
      </trkpt>
      <trkpt lat="44.76529" lon="5.10522">
        <ele>507</ele>
        <time>2019-07-08T08:04:35Z</time>
      </trkpt>
      <trkpt lat="44.76527" lon="5.1052">
        <ele>507.60000610352</ele>
        <time>2019-07-08T08:04:36Z</time>
      </trkpt>
      <trkpt lat="44.76523" lon="5.10513">
        <ele>507.60000610352</ele>
        <time>2019-07-08T08:04:40Z</time>
      </trkpt>
      <trkpt lat="44.76519" lon="5.10509">
        <ele>508</ele>
        <time>2019-07-08T08:04:43Z</time>
      </trkpt>
      <trkpt lat="44.76518" lon="5.10507">
        <ele>508.39999389648</ele>
        <time>2019-07-08T08:04:44Z</time>
      </trkpt>
      <trkpt lat="44.76517" lon="5.10506">
        <ele>508.79998779297</ele>
        <time>2019-07-08T08:04:45Z</time>
      </trkpt>
      <trkpt lat="44.76516" lon="5.10504">
        <ele>509.20001220703</ele>
        <time>2019-07-08T08:04:46Z</time>
      </trkpt>
      <trkpt lat="44.76515" lon="5.10503">
        <ele>509.60000610352</ele>
        <time>2019-07-08T08:04:47Z</time>
      </trkpt>
      <trkpt lat="44.76514" lon="5.10501">
        <ele>509.60000610352</ele>
        <time>2019-07-08T08:04:51Z</time>
      </trkpt>
      <trkpt lat="44.76514" lon="5.10501">
        <ele>509.60000610352</ele>
        <time>2019-07-08T08:04:59Z</time>
      </trkpt>
      <trkpt lat="44.76514" lon="5.10501">
        <ele>509.60000610352</ele>
        <time>2019-07-08T08:05:13Z</time>
      </trkpt>
      <trkpt lat="44.76514" lon="5.10501">
        <ele>509.60000610352</ele>
        <time>2019-07-08T08:05:25Z</time>
      </trkpt>
      <trkpt lat="44.76511" lon="5.10491">
        <ele>509.60000610352</ele>
        <time>2019-07-08T08:05:30Z</time>
      </trkpt>
      <trkpt lat="44.76507" lon="5.1048">
        <ele>509.60000610352</ele>
        <time>2019-07-08T08:05:34Z</time>
      </trkpt>
      <trkpt lat="44.76505" lon="5.10474">
        <ele>509.60000610352</ele>
        <time>2019-07-08T08:05:36Z</time>
      </trkpt>
      <trkpt lat="44.76501" lon="5.10455">
        <ele>509.60000610352</ele>
        <time>2019-07-08T08:05:42Z</time>
      </trkpt>
      <trkpt lat="44.76501" lon="5.10439">
        <ele>509.60000610352</ele>
        <time>2019-07-08T08:05:47Z</time>
      </trkpt>
      <trkpt lat="44.76494" lon="5.10424">
        <ele>509.60000610352</ele>
        <time>2019-07-08T08:05:52Z</time>
      </trkpt>
      <trkpt lat="44.76481" lon="5.10409">
        <ele>509.60000610352</ele>
        <time>2019-07-08T08:05:58Z</time>
      </trkpt>
      <trkpt lat="44.76475" lon="5.104">
        <ele>510</ele>
        <time>2019-07-08T08:06:02Z</time>
      </trkpt>
      <trkpt lat="44.76473" lon="5.10398">
        <ele>510.39999389648</ele>
        <time>2019-07-08T08:06:03Z</time>
      </trkpt>
      <trkpt lat="44.76472" lon="5.10396">
        <ele>510.79998779297</ele>
        <time>2019-07-08T08:06:04Z</time>
      </trkpt>
      <trkpt lat="44.7647" lon="5.10393">
        <ele>511.20001220703</ele>
        <time>2019-07-08T08:06:05Z</time>
      </trkpt>
      <trkpt lat="44.76468" lon="5.10391">
        <ele>511.60000610352</ele>
        <time>2019-07-08T08:06:06Z</time>
      </trkpt>
      <trkpt lat="44.76461" lon="5.10384">
        <ele>511.60000610352</ele>
        <time>2019-07-08T08:06:09Z</time>
      </trkpt>
      <trkpt lat="44.76443" lon="5.10366">
        <ele>511.60000610352</ele>
        <time>2019-07-08T08:06:14Z</time>
      </trkpt>
      <trkpt lat="44.76435" lon="5.10356">
        <ele>511.20001220703</ele>
        <time>2019-07-08T08:06:16Z</time>
      </trkpt>
      <trkpt lat="44.7643" lon="5.10351">
        <ele>510.79998779297</ele>
        <time>2019-07-08T08:06:17Z</time>
      </trkpt>
      <trkpt lat="44.76425" lon="5.10345">
        <ele>510.20001220703</ele>
        <time>2019-07-08T08:06:18Z</time>
      </trkpt>
      <trkpt lat="44.76419" lon="5.10338">
        <ele>509.79998779297</ele>
        <time>2019-07-08T08:06:19Z</time>
      </trkpt>
      <trkpt lat="44.76414" lon="5.10332">
        <ele>509.39999389648</ele>
        <time>2019-07-08T08:06:20Z</time>
      </trkpt>
      <trkpt lat="44.7641" lon="5.10326">
        <ele>509.39999389648</ele>
        <time>2019-07-08T08:06:21Z</time>
      </trkpt>
      <trkpt lat="44.76402" lon="5.10313">
        <ele>509.39999389648</ele>
        <time>2019-07-08T08:06:23Z</time>
      </trkpt>
      <trkpt lat="44.76397" lon="5.10307">
        <ele>509</ele>
        <time>2019-07-08T08:06:24Z</time>
      </trkpt>
      <trkpt lat="44.76392" lon="5.10303">
        <ele>508.39999389648</ele>
        <time>2019-07-08T08:06:25Z</time>
      </trkpt>
      <trkpt lat="44.76387" lon="5.103">
        <ele>508</ele>
        <time>2019-07-08T08:06:26Z</time>
      </trkpt>
      <trkpt lat="44.76383" lon="5.10297">
        <ele>507.60000610352</ele>
        <time>2019-07-08T08:06:27Z</time>
      </trkpt>
      <trkpt lat="44.7638" lon="5.10295">
        <ele>507.20001220703</ele>
        <time>2019-07-08T08:06:28Z</time>
      </trkpt>
      <trkpt lat="44.7637" lon="5.10289">
        <ele>507.20001220703</ele>
        <time>2019-07-08T08:06:31Z</time>
      </trkpt>
      <trkpt lat="44.76347" lon="5.10273">
        <ele>507.20001220703</ele>
        <time>2019-07-08T08:06:37Z</time>
      </trkpt>
      <trkpt lat="44.76345" lon="5.10269">
        <ele>507.20001220703</ele>
        <time>2019-07-08T08:06:38Z</time>
      </trkpt>
      <trkpt lat="44.76341" lon="5.10259">
        <ele>507.20001220703</ele>
        <time>2019-07-08T08:06:41Z</time>
      </trkpt>
      <trkpt lat="44.76336" lon="5.10251">
        <ele>507.20001220703</ele>
        <time>2019-07-08T08:06:43Z</time>
      </trkpt>
      <trkpt lat="44.76332" lon="5.10246">
        <ele>507.60000610352</ele>
        <time>2019-07-08T08:06:45Z</time>
      </trkpt>
      <trkpt lat="44.7633" lon="5.10242">
        <ele>508.20001220703</ele>
        <time>2019-07-08T08:06:46Z</time>
      </trkpt>
      <trkpt lat="44.76328" lon="5.10237">
        <ele>508.60000610352</ele>
        <time>2019-07-08T08:06:47Z</time>
      </trkpt>
      <trkpt lat="44.76326" lon="5.10232">
        <ele>509</ele>
        <time>2019-07-08T08:06:48Z</time>
      </trkpt>
      <trkpt lat="44.76324" lon="5.10227">
        <ele>509.60000610352</ele>
        <time>2019-07-08T08:06:49Z</time>
      </trkpt>
      <trkpt lat="44.76317" lon="5.10206">
        <ele>510</ele>
        <time>2019-07-08T08:06:54Z</time>
      </trkpt>
      <trkpt lat="44.76317" lon="5.10202">
        <ele>510.39999389648</ele>
        <time>2019-07-08T08:06:55Z</time>
      </trkpt>
      <trkpt lat="44.76316" lon="5.10198">
        <ele>511.20001220703</ele>
        <time>2019-07-08T08:06:56Z</time>
      </trkpt>
      <trkpt lat="44.76317" lon="5.10194">
        <ele>511.60000610352</ele>
        <time>2019-07-08T08:06:57Z</time>
      </trkpt>
      <trkpt lat="44.76318" lon="5.10187">
        <ele>511.60000610352</ele>
        <time>2019-07-08T08:06:59Z</time>
      </trkpt>
      <trkpt lat="44.76325" lon="5.10166">
        <ele>511.60000610352</ele>
        <time>2019-07-08T08:07:05Z</time>
      </trkpt>
      <trkpt lat="44.76332" lon="5.10157">
        <ele>511.60000610352</ele>
        <time>2019-07-08T08:07:09Z</time>
      </trkpt>
      <trkpt lat="44.76338" lon="5.1015">
        <ele>512</ele>
        <time>2019-07-08T08:07:13Z</time>
      </trkpt>
      <trkpt lat="44.76339" lon="5.10149">
        <ele>512.40002441406</ele>
        <time>2019-07-08T08:07:14Z</time>
      </trkpt>
      <trkpt lat="44.76341" lon="5.10147">
        <ele>512.79998779297</ele>
        <time>2019-07-08T08:07:15Z</time>
      </trkpt>
      <trkpt lat="44.76342" lon="5.10145">
        <ele>513.40002441406</ele>
        <time>2019-07-08T08:07:16Z</time>
      </trkpt>
      <trkpt lat="44.76344" lon="5.10142">
        <ele>513.79998779297</ele>
        <time>2019-07-08T08:07:17Z</time>
      </trkpt>
      <trkpt lat="44.76348" lon="5.10137">
        <ele>513.79998779297</ele>
        <time>2019-07-08T08:07:19Z</time>
      </trkpt>
      <trkpt lat="44.76355" lon="5.10131">
        <ele>513.79998779297</ele>
        <time>2019-07-08T08:07:24Z</time>
      </trkpt>
      <trkpt lat="44.76355" lon="5.10131">
        <ele>513.79998779297</ele>
        <time>2019-07-08T08:07:32Z</time>
      </trkpt>
      <trkpt lat="44.76354" lon="5.10132">
        <ele>513.79998779297</ele>
        <time>2019-07-08T08:07:33Z</time>
      </trkpt>
      <trkpt lat="44.76354" lon="5.10132">
        <ele>513.79998779297</ele>
        <time>2019-07-08T08:07:35Z</time>
      </trkpt>
      <trkpt lat="44.76354" lon="5.10133">
        <ele>513.79998779297</ele>
        <time>2019-07-08T08:07:37Z</time>
      </trkpt>
      <trkpt lat="44.76344" lon="5.10139">
        <ele>513.79998779297</ele>
        <time>2019-07-08T08:07:43Z</time>
      </trkpt>
      <trkpt lat="44.76337" lon="5.10147">
        <ele>513.79998779297</ele>
        <time>2019-07-08T08:07:47Z</time>
      </trkpt>
      <trkpt lat="44.76333" lon="5.10151">
        <ele>513.79998779297</ele>
        <time>2019-07-08T08:07:49Z</time>
      </trkpt>
      <trkpt lat="44.76324" lon="5.1016">
        <ele>513.79998779297</ele>
        <time>2019-07-08T08:07:53Z</time>
      </trkpt>
      <trkpt lat="44.76322" lon="5.10159">
        <ele>513.40002441406</ele>
        <time>2019-07-08T08:07:54Z</time>
      </trkpt>
      <trkpt lat="44.76322" lon="5.10155">
        <ele>513</ele>
        <time>2019-07-08T08:07:55Z</time>
      </trkpt>
      <trkpt lat="44.76323" lon="5.1015">
        <ele>512.59997558594</ele>
        <time>2019-07-08T08:07:56Z</time>
      </trkpt>
      <trkpt lat="44.76325" lon="5.10145">
        <ele>512.20001220703</ele>
        <time>2019-07-08T08:07:57Z</time>
      </trkpt>
      <trkpt lat="44.76328" lon="5.10139">
        <ele>511.79998779297</ele>
        <time>2019-07-08T08:07:58Z</time>
      </trkpt>
      <trkpt lat="44.76331" lon="5.10134">
        <ele>511.20001220703</ele>
        <time>2019-07-08T08:07:59Z</time>
      </trkpt>
      <trkpt lat="44.76334" lon="5.10128">
        <ele>510.79998779297</ele>
        <time>2019-07-08T08:08:00Z</time>
      </trkpt>
      <trkpt lat="44.76338" lon="5.10122">
        <ele>510.20001220703</ele>
        <time>2019-07-08T08:08:01Z</time>
      </trkpt>
      <trkpt lat="44.76342" lon="5.10116">
        <ele>509.60000610352</ele>
        <time>2019-07-08T08:08:02Z</time>
      </trkpt>
      <trkpt lat="44.76346" lon="5.1011">
        <ele>509</ele>
        <time>2019-07-08T08:08:03Z</time>
      </trkpt>
      <trkpt lat="44.76349" lon="5.10104">
        <ele>508.20001220703</ele>
        <time>2019-07-08T08:08:04Z</time>
      </trkpt>
      <trkpt lat="44.76353" lon="5.10099">
        <ele>507.39999389648</ele>
        <time>2019-07-08T08:08:05Z</time>
      </trkpt>
      <trkpt lat="44.76356" lon="5.10094">
        <ele>506.60000610352</ele>
        <time>2019-07-08T08:08:06Z</time>
      </trkpt>
      <trkpt lat="44.76359" lon="5.10089">
        <ele>505.60000610352</ele>
        <time>2019-07-08T08:08:07Z</time>
      </trkpt>
      <trkpt lat="44.76363" lon="5.10083">
        <ele>504.60000610352</ele>
        <time>2019-07-08T08:08:08Z</time>
      </trkpt>
      <trkpt lat="44.76368" lon="5.10078">
        <ele>503.60000610352</ele>
        <time>2019-07-08T08:08:09Z</time>
      </trkpt>
      <trkpt lat="44.76373" lon="5.10072">
        <ele>501.39999389648</ele>
        <time>2019-07-08T08:08:10Z</time>
      </trkpt>
      <trkpt lat="44.76378" lon="5.10067">
        <ele>500.39999389648</ele>
        <time>2019-07-08T08:08:11Z</time>
      </trkpt>
      <trkpt lat="44.76384" lon="5.10062">
        <ele>499.39999389648</ele>
        <time>2019-07-08T08:08:12Z</time>
      </trkpt>
      <trkpt lat="44.76388" lon="5.10058">
        <ele>498.20001220703</ele>
        <time>2019-07-08T08:08:13Z</time>
      </trkpt>
      <trkpt lat="44.76393" lon="5.10055">
        <ele>497.20001220703</ele>
        <time>2019-07-08T08:08:14Z</time>
      </trkpt>
      <trkpt lat="44.76397" lon="5.10051">
        <ele>496.39999389648</ele>
        <time>2019-07-08T08:08:15Z</time>
      </trkpt>
      <trkpt lat="44.76402" lon="5.10047">
        <ele>495.39999389648</ele>
        <time>2019-07-08T08:08:16Z</time>
      </trkpt>
      <trkpt lat="44.76407" lon="5.10043">
        <ele>494.60000610352</ele>
        <time>2019-07-08T08:08:17Z</time>
      </trkpt>
      <trkpt lat="44.76413" lon="5.10039">
        <ele>493.60000610352</ele>
        <time>2019-07-08T08:08:18Z</time>
      </trkpt>
      <trkpt lat="44.76418" lon="5.10035">
        <ele>492.79998779297</ele>
        <time>2019-07-08T08:08:19Z</time>
      </trkpt>
      <trkpt lat="44.76434" lon="5.10019">
        <ele>492.39999389648</ele>
        <time>2019-07-08T08:08:22Z</time>
      </trkpt>
      <trkpt lat="44.7644" lon="5.10013">
        <ele>492</ele>
        <time>2019-07-08T08:08:23Z</time>
      </trkpt>
      <trkpt lat="44.76446" lon="5.10007">
        <ele>491.39999389648</ele>
        <time>2019-07-08T08:08:24Z</time>
      </trkpt>
      <trkpt lat="44.76452" lon="5.10002">
        <ele>491</ele>
        <time>2019-07-08T08:08:25Z</time>
      </trkpt>
      <trkpt lat="44.76456" lon="5.09999">
        <ele>490.39999389648</ele>
        <time>2019-07-08T08:08:26Z</time>
      </trkpt>
      <trkpt lat="44.7646" lon="5.09996">
        <ele>490</ele>
        <time>2019-07-08T08:08:27Z</time>
      </trkpt>
      <trkpt lat="44.76464" lon="5.09993">
        <ele>489.39999389648</ele>
        <time>2019-07-08T08:08:28Z</time>
      </trkpt>
      <trkpt lat="44.76468" lon="5.0999">
        <ele>488.79998779297</ele>
        <time>2019-07-08T08:08:29Z</time>
      </trkpt>
      <trkpt lat="44.76472" lon="5.09987">
        <ele>488.20001220703</ele>
        <time>2019-07-08T08:08:30Z</time>
      </trkpt>
      <trkpt lat="44.76476" lon="5.09985">
        <ele>487.60000610352</ele>
        <time>2019-07-08T08:08:31Z</time>
      </trkpt>
      <trkpt lat="44.76481" lon="5.09982">
        <ele>487</ele>
        <time>2019-07-08T08:08:32Z</time>
      </trkpt>
      <trkpt lat="44.76484" lon="5.09979">
        <ele>486.39999389648</ele>
        <time>2019-07-08T08:08:33Z</time>
      </trkpt>
      <trkpt lat="44.76485" lon="5.09976">
        <ele>486</ele>
        <time>2019-07-08T08:08:34Z</time>
      </trkpt>
      <trkpt lat="44.76485" lon="5.09971">
        <ele>485.39999389648</ele>
        <time>2019-07-08T08:08:35Z</time>
      </trkpt>
      <trkpt lat="44.76484" lon="5.09967">
        <ele>485</ele>
        <time>2019-07-08T08:08:36Z</time>
      </trkpt>
      <trkpt lat="44.76482" lon="5.09962">
        <ele>484.39999389648</ele>
        <time>2019-07-08T08:08:37Z</time>
      </trkpt>
      <trkpt lat="44.76479" lon="5.09957">
        <ele>483.79998779297</ele>
        <time>2019-07-08T08:08:38Z</time>
      </trkpt>
      <trkpt lat="44.76476" lon="5.09951">
        <ele>483.20001220703</ele>
        <time>2019-07-08T08:08:39Z</time>
      </trkpt>
      <trkpt lat="44.76471" lon="5.09945">
        <ele>482.60000610352</ele>
        <time>2019-07-08T08:08:40Z</time>
      </trkpt>
      <trkpt lat="44.76467" lon="5.09939">
        <ele>481.79998779297</ele>
        <time>2019-07-08T08:08:41Z</time>
      </trkpt>
      <trkpt lat="44.76462" lon="5.09934">
        <ele>480.79998779297</ele>
        <time>2019-07-08T08:08:42Z</time>
      </trkpt>
      <trkpt lat="44.76457" lon="5.09932">
        <ele>479.79998779297</ele>
        <time>2019-07-08T08:08:43Z</time>
      </trkpt>
      <trkpt lat="44.76451" lon="5.0993">
        <ele>478.60000610352</ele>
        <time>2019-07-08T08:08:44Z</time>
      </trkpt>
      <trkpt lat="44.76445" lon="5.09928">
        <ele>477.60000610352</ele>
        <time>2019-07-08T08:08:45Z</time>
      </trkpt>
      <trkpt lat="44.76439" lon="5.09924">
        <ele>476.60000610352</ele>
        <time>2019-07-08T08:08:46Z</time>
      </trkpt>
      <trkpt lat="44.76433" lon="5.0992">
        <ele>475.39999389648</ele>
        <time>2019-07-08T08:08:47Z</time>
      </trkpt>
      <trkpt lat="44.76426" lon="5.09918">
        <ele>474.39999389648</ele>
        <time>2019-07-08T08:08:48Z</time>
      </trkpt>
      <trkpt lat="44.76419" lon="5.09917">
        <ele>473.39999389648</ele>
        <time>2019-07-08T08:08:49Z</time>
      </trkpt>
      <trkpt lat="44.76413" lon="5.09916">
        <ele>473.39999389648</ele>
        <time>2019-07-08T08:08:50Z</time>
      </trkpt>
      <trkpt lat="44.76408" lon="5.09917">
        <ele>473.39999389648</ele>
        <time>2019-07-08T08:08:51Z</time>
      </trkpt>
      <trkpt lat="44.76391" lon="5.09916">
        <ele>473.39999389648</ele>
        <time>2019-07-08T08:08:55Z</time>
      </trkpt>
      <trkpt lat="44.76379" lon="5.09907">
        <ele>473.39999389648</ele>
        <time>2019-07-08T08:09:00Z</time>
      </trkpt>
      <trkpt lat="44.76369" lon="5.09899">
        <ele>473.79998779297</ele>
        <time>2019-07-08T08:09:05Z</time>
      </trkpt>
      <trkpt lat="44.76367" lon="5.09897">
        <ele>474.20001220703</ele>
        <time>2019-07-08T08:09:06Z</time>
      </trkpt>
      <trkpt lat="44.76366" lon="5.09895">
        <ele>474.60000610352</ele>
        <time>2019-07-08T08:09:07Z</time>
      </trkpt>
      <trkpt lat="44.76364" lon="5.09894">
        <ele>475</ele>
        <time>2019-07-08T08:09:08Z</time>
      </trkpt>
      <trkpt lat="44.76363" lon="5.09893">
        <ele>475.60000610352</ele>
        <time>2019-07-08T08:09:09Z</time>
      </trkpt>
      <trkpt lat="44.76361" lon="5.0989">
        <ele>475.60000610352</ele>
        <time>2019-07-08T08:09:11Z</time>
      </trkpt>
      <trkpt lat="44.76353" lon="5.0988">
        <ele>475.60000610352</ele>
        <time>2019-07-08T08:09:16Z</time>
      </trkpt>
      <trkpt lat="44.76336" lon="5.09864">
        <ele>475.60000610352</ele>
        <time>2019-07-08T08:09:23Z</time>
      </trkpt>
      <trkpt lat="44.76318" lon="5.09854">
        <ele>475.60000610352</ele>
        <time>2019-07-08T08:09:28Z</time>
      </trkpt>
      <trkpt lat="44.76313" lon="5.09853">
        <ele>475.60000610352</ele>
        <time>2019-07-08T08:09:29Z</time>
      </trkpt>
      <trkpt lat="44.7629" lon="5.09851">
        <ele>475.60000610352</ele>
        <time>2019-07-08T08:09:33Z</time>
      </trkpt>
      <trkpt lat="44.76284" lon="5.09853">
        <ele>475.60000610352</ele>
        <time>2019-07-08T08:09:34Z</time>
      </trkpt>
      <trkpt lat="44.76277" lon="5.09855">
        <ele>475</ele>
        <time>2019-07-08T08:09:35Z</time>
      </trkpt>
      <trkpt lat="44.76271" lon="5.09859">
        <ele>474.60000610352</ele>
        <time>2019-07-08T08:09:36Z</time>
      </trkpt>
      <trkpt lat="44.76264" lon="5.09863">
        <ele>474.20001220703</ele>
        <time>2019-07-08T08:09:37Z</time>
      </trkpt>
      <trkpt lat="44.76257" lon="5.09868">
        <ele>473.79998779297</ele>
        <time>2019-07-08T08:09:38Z</time>
      </trkpt>
      <trkpt lat="44.7625" lon="5.09872">
        <ele>473.20001220703</ele>
        <time>2019-07-08T08:09:39Z</time>
      </trkpt>
      <trkpt lat="44.76243" lon="5.09874">
        <ele>472.79998779297</ele>
        <time>2019-07-08T08:09:40Z</time>
      </trkpt>
      <trkpt lat="44.76235" lon="5.09874">
        <ele>472.39999389648</ele>
        <time>2019-07-08T08:09:41Z</time>
      </trkpt>
      <trkpt lat="44.76228" lon="5.09872">
        <ele>472</ele>
        <time>2019-07-08T08:09:42Z</time>
      </trkpt>
      <trkpt lat="44.76222" lon="5.09869">
        <ele>471.60000610352</ele>
        <time>2019-07-08T08:09:43Z</time>
      </trkpt>
      <trkpt lat="44.76217" lon="5.09867">
        <ele>471.20001220703</ele>
        <time>2019-07-08T08:09:44Z</time>
      </trkpt>
      <trkpt lat="44.76212" lon="5.09864">
        <ele>471.20001220703</ele>
        <time>2019-07-08T08:09:45Z</time>
      </trkpt>
      <trkpt lat="44.76192" lon="5.09854">
        <ele>471.20001220703</ele>
        <time>2019-07-08T08:09:49Z</time>
      </trkpt>
      <trkpt lat="44.76186" lon="5.09851">
        <ele>470.79998779297</ele>
        <time>2019-07-08T08:09:50Z</time>
      </trkpt>
      <trkpt lat="44.7618" lon="5.09848">
        <ele>470.39999389648</ele>
        <time>2019-07-08T08:09:51Z</time>
      </trkpt>
      <trkpt lat="44.76174" lon="5.09845">
        <ele>470</ele>
        <time>2019-07-08T08:09:52Z</time>
      </trkpt>
      <trkpt lat="44.76168" lon="5.09842">
        <ele>469.60000610352</ele>
        <time>2019-07-08T08:09:53Z</time>
      </trkpt>
      <trkpt lat="44.76161" lon="5.09839">
        <ele>469.20001220703</ele>
        <time>2019-07-08T08:09:54Z</time>
      </trkpt>
      <trkpt lat="44.76154" lon="5.09835">
        <ele>469.20001220703</ele>
        <time>2019-07-08T08:09:55Z</time>
      </trkpt>
      <trkpt lat="44.7614" lon="5.09826">
        <ele>468.79998779297</ele>
        <time>2019-07-08T08:09:57Z</time>
      </trkpt>
      <trkpt lat="44.76133" lon="5.09823">
        <ele>468.39999389648</ele>
        <time>2019-07-08T08:09:58Z</time>
      </trkpt>
      <trkpt lat="44.76126" lon="5.09819">
        <ele>467.79998779297</ele>
        <time>2019-07-08T08:09:59Z</time>
      </trkpt>
      <trkpt lat="44.76119" lon="5.09815">
        <ele>467.39999389648</ele>
        <time>2019-07-08T08:10:00Z</time>
      </trkpt>
      <trkpt lat="44.76113" lon="5.09812">
        <ele>467</ele>
        <time>2019-07-08T08:10:01Z</time>
      </trkpt>
      <trkpt lat="44.76093" lon="5.09802">
        <ele>467</ele>
        <time>2019-07-08T08:10:05Z</time>
      </trkpt>
      <trkpt lat="44.76071" lon="5.09798">
        <ele>467</ele>
        <time>2019-07-08T08:10:10Z</time>
      </trkpt>
      <trkpt lat="44.76043" lon="5.09798">
        <ele>467</ele>
        <time>2019-07-08T08:10:16Z</time>
      </trkpt>
      <trkpt lat="44.76039" lon="5.09799">
        <ele>467</ele>
        <time>2019-07-08T08:10:17Z</time>
      </trkpt>
      <trkpt lat="44.76023" lon="5.09796">
        <ele>467.39999389648</ele>
        <time>2019-07-08T08:10:21Z</time>
      </trkpt>
      <trkpt lat="44.7602" lon="5.09795">
        <ele>467.79998779297</ele>
        <time>2019-07-08T08:10:22Z</time>
      </trkpt>
      <trkpt lat="44.76018" lon="5.09795">
        <ele>468.20001220703</ele>
        <time>2019-07-08T08:10:23Z</time>
      </trkpt>
      <trkpt lat="44.76016" lon="5.09796">
        <ele>468.60000610352</ele>
        <time>2019-07-08T08:10:24Z</time>
      </trkpt>
      <trkpt lat="44.76014" lon="5.09796">
        <ele>469</ele>
        <time>2019-07-08T08:10:25Z</time>
      </trkpt>
      <trkpt lat="44.76013" lon="5.09797">
        <ele>469</ele>
        <time>2019-07-08T08:10:26Z</time>
      </trkpt>
      <trkpt lat="44.76013" lon="5.09797">
        <ele>469</ele>
        <time>2019-07-08T08:10:32Z</time>
      </trkpt>
      <trkpt lat="44.76012" lon="5.09798">
        <ele>469</ele>
        <time>2019-07-08T08:10:36Z</time>
      </trkpt>
      <trkpt lat="44.76009" lon="5.09798">
        <ele>469</ele>
        <time>2019-07-08T08:10:38Z</time>
      </trkpt>
      <trkpt lat="44.75998" lon="5.09798">
        <ele>469</ele>
        <time>2019-07-08T08:10:42Z</time>
      </trkpt>
      <trkpt lat="44.75986" lon="5.09798">
        <ele>469</ele>
        <time>2019-07-08T08:10:45Z</time>
      </trkpt>
      <trkpt lat="44.75981" lon="5.09799">
        <ele>469</ele>
        <time>2019-07-08T08:10:46Z</time>
      </trkpt>
      <trkpt lat="44.75964" lon="5.09806">
        <ele>468.60000610352</ele>
        <time>2019-07-08T08:10:49Z</time>
      </trkpt>
      <trkpt lat="44.75957" lon="5.09809">
        <ele>468.20001220703</ele>
        <time>2019-07-08T08:10:50Z</time>
      </trkpt>
      <trkpt lat="44.75949" lon="5.09813">
        <ele>467.79998779297</ele>
        <time>2019-07-08T08:10:51Z</time>
      </trkpt>
      <trkpt lat="44.7594" lon="5.09818">
        <ele>467.20001220703</ele>
        <time>2019-07-08T08:10:52Z</time>
      </trkpt>
      <trkpt lat="44.75931" lon="5.09822">
        <ele>466.60000610352</ele>
        <time>2019-07-08T08:10:53Z</time>
      </trkpt>
      <trkpt lat="44.75921" lon="5.09824">
        <ele>465.79998779297</ele>
        <time>2019-07-08T08:10:54Z</time>
      </trkpt>
      <trkpt lat="44.75911" lon="5.09824">
        <ele>465</ele>
        <time>2019-07-08T08:10:55Z</time>
      </trkpt>
      <trkpt lat="44.759" lon="5.09823">
        <ele>464.20001220703</ele>
        <time>2019-07-08T08:10:56Z</time>
      </trkpt>
      <trkpt lat="44.7589" lon="5.09823">
        <ele>463.20001220703</ele>
        <time>2019-07-08T08:10:57Z</time>
      </trkpt>
      <trkpt lat="44.75881" lon="5.09825">
        <ele>462.39999389648</ele>
        <time>2019-07-08T08:10:58Z</time>
      </trkpt>
      <trkpt lat="44.75873" lon="5.09828">
        <ele>461.39999389648</ele>
        <time>2019-07-08T08:10:59Z</time>
      </trkpt>
      <trkpt lat="44.75865" lon="5.09832">
        <ele>460.20001220703</ele>
        <time>2019-07-08T08:11:00Z</time>
      </trkpt>
      <trkpt lat="44.75857" lon="5.09839">
        <ele>459</ele>
        <time>2019-07-08T08:11:01Z</time>
      </trkpt>
      <trkpt lat="44.75849" lon="5.09846">
        <ele>457.79998779297</ele>
        <time>2019-07-08T08:11:02Z</time>
      </trkpt>
      <trkpt lat="44.75841" lon="5.09852">
        <ele>456.79998779297</ele>
        <time>2019-07-08T08:11:03Z</time>
      </trkpt>
      <trkpt lat="44.75833" lon="5.09854">
        <ele>454.79998779297</ele>
        <time>2019-07-08T08:11:04Z</time>
      </trkpt>
      <trkpt lat="44.75823" lon="5.09853">
        <ele>453.79998779297</ele>
        <time>2019-07-08T08:11:05Z</time>
      </trkpt>
      <trkpt lat="44.75813" lon="5.09851">
        <ele>452.79998779297</ele>
        <time>2019-07-08T08:11:06Z</time>
      </trkpt>
      <trkpt lat="44.75803" lon="5.09851">
        <ele>451.60000610352</ele>
        <time>2019-07-08T08:11:07Z</time>
      </trkpt>
      <trkpt lat="44.75793" lon="5.09852">
        <ele>450.39999389648</ele>
        <time>2019-07-08T08:11:08Z</time>
      </trkpt>
      <trkpt lat="44.75784" lon="5.09853">
        <ele>449</ele>
        <time>2019-07-08T08:11:09Z</time>
      </trkpt>
      <trkpt lat="44.75776" lon="5.09853">
        <ele>447.60000610352</ele>
        <time>2019-07-08T08:11:10Z</time>
      </trkpt>
      <trkpt lat="44.75771" lon="5.09851">
        <ele>446.20001220703</ele>
        <time>2019-07-08T08:11:11Z</time>
      </trkpt>
      <trkpt lat="44.75767" lon="5.09847">
        <ele>444.60000610352</ele>
        <time>2019-07-08T08:11:12Z</time>
      </trkpt>
      <trkpt lat="44.75765" lon="5.09842">
        <ele>443.20001220703</ele>
        <time>2019-07-08T08:11:13Z</time>
      </trkpt>
      <trkpt lat="44.75763" lon="5.09837">
        <ele>442.20001220703</ele>
        <time>2019-07-08T08:11:14Z</time>
      </trkpt>
      <trkpt lat="44.75762" lon="5.09832">
        <ele>441</ele>
        <time>2019-07-08T08:11:15Z</time>
      </trkpt>
      <trkpt lat="44.75759" lon="5.09826">
        <ele>440</ele>
        <time>2019-07-08T08:11:16Z</time>
      </trkpt>
      <trkpt lat="44.75757" lon="5.09823">
        <ele>439.20001220703</ele>
        <time>2019-07-08T08:11:17Z</time>
      </trkpt>
      <trkpt lat="44.75755" lon="5.0982">
        <ele>438.39999389648</ele>
        <time>2019-07-08T08:11:18Z</time>
      </trkpt>
      <trkpt lat="44.75753" lon="5.09818">
        <ele>437.39999389648</ele>
        <time>2019-07-08T08:11:19Z</time>
      </trkpt>
      <trkpt lat="44.75752" lon="5.09818">
        <ele>436.60000610352</ele>
        <time>2019-07-08T08:11:20Z</time>
      </trkpt>
      <trkpt lat="44.75751" lon="5.09818">
        <ele>436</ele>
        <time>2019-07-08T08:11:21Z</time>
      </trkpt>
      <trkpt lat="44.75749" lon="5.09819">
        <ele>435.20001220703</ele>
        <time>2019-07-08T08:11:22Z</time>
      </trkpt>
      <trkpt lat="44.75748" lon="5.0982">
        <ele>434.39999389648</ele>
        <time>2019-07-08T08:11:23Z</time>
      </trkpt>
      <trkpt lat="44.75746" lon="5.09821">
        <ele>433.60000610352</ele>
        <time>2019-07-08T08:11:24Z</time>
      </trkpt>
      <trkpt lat="44.75741" lon="5.09828">
        <ele>433.60000610352</ele>
        <time>2019-07-08T08:11:27Z</time>
      </trkpt>
      <trkpt lat="44.7574" lon="5.09832">
        <ele>433.20001220703</ele>
        <time>2019-07-08T08:11:28Z</time>
      </trkpt>
      <trkpt lat="44.75739" lon="5.09835">
        <ele>432.39999389648</ele>
        <time>2019-07-08T08:11:29Z</time>
      </trkpt>
      <trkpt lat="44.75737" lon="5.09837">
        <ele>432</ele>
        <time>2019-07-08T08:11:30Z</time>
      </trkpt>
      <trkpt lat="44.75735" lon="5.09837">
        <ele>431.60000610352</ele>
        <time>2019-07-08T08:11:31Z</time>
      </trkpt>
      <trkpt lat="44.75733" lon="5.09835">
        <ele>431.20001220703</ele>
        <time>2019-07-08T08:11:32Z</time>
      </trkpt>
      <trkpt lat="44.75732" lon="5.09833">
        <ele>430.60000610352</ele>
        <time>2019-07-08T08:11:33Z</time>
      </trkpt>
      <trkpt lat="44.75733" lon="5.09832">
        <ele>430.20001220703</ele>
        <time>2019-07-08T08:11:34Z</time>
      </trkpt>
      <trkpt lat="44.75733" lon="5.0983">
        <ele>429.79998779297</ele>
        <time>2019-07-08T08:11:35Z</time>
      </trkpt>
      <trkpt lat="44.75734" lon="5.09829">
        <ele>429.20001220703</ele>
        <time>2019-07-08T08:11:36Z</time>
      </trkpt>
      <trkpt lat="44.75737" lon="5.09823">
        <ele>429.20001220703</ele>
        <time>2019-07-08T08:11:39Z</time>
      </trkpt>
      <trkpt lat="44.75742" lon="5.09818">
        <ele>429.20001220703</ele>
        <time>2019-07-08T08:11:43Z</time>
      </trkpt>
      <trkpt lat="44.75744" lon="5.09816">
        <ele>429.20001220703</ele>
        <time>2019-07-08T08:11:44Z</time>
      </trkpt>
      <trkpt lat="44.75754" lon="5.09809">
        <ele>429.20001220703</ele>
        <time>2019-07-08T08:11:50Z</time>
      </trkpt>
      <trkpt lat="44.75757" lon="5.09807">
        <ele>429.60000610352</ele>
        <time>2019-07-08T08:11:52Z</time>
      </trkpt>
      <trkpt lat="44.75758" lon="5.09806">
        <ele>430.60000610352</ele>
        <time>2019-07-08T08:11:53Z</time>
      </trkpt>
      <trkpt lat="44.7576" lon="5.09806">
        <ele>431</ele>
        <time>2019-07-08T08:11:54Z</time>
      </trkpt>
      <trkpt lat="44.75761" lon="5.09806">
        <ele>431.39999389648</ele>
        <time>2019-07-08T08:11:55Z</time>
      </trkpt>
      <trkpt lat="44.75773" lon="5.09802">
        <ele>431.39999389648</ele>
        <time>2019-07-08T08:12:01Z</time>
      </trkpt>
      <trkpt lat="44.75782" lon="5.09798">
        <ele>431.79998779297</ele>
        <time>2019-07-08T08:12:05Z</time>
      </trkpt>
      <trkpt lat="44.75784" lon="5.09797">
        <ele>432.20001220703</ele>
        <time>2019-07-08T08:12:06Z</time>
      </trkpt>
      <trkpt lat="44.75786" lon="5.09796">
        <ele>432.60000610352</ele>
        <time>2019-07-08T08:12:07Z</time>
      </trkpt>
      <trkpt lat="44.75788" lon="5.09794">
        <ele>433</ele>
        <time>2019-07-08T08:12:08Z</time>
      </trkpt>
      <trkpt lat="44.7579" lon="5.09792">
        <ele>433.39999389648</ele>
        <time>2019-07-08T08:12:09Z</time>
      </trkpt>
      <trkpt lat="44.758" lon="5.09779">
        <ele>433.39999389648</ele>
        <time>2019-07-08T08:12:15Z</time>
      </trkpt>
      <trkpt lat="44.75803" lon="5.09772">
        <ele>433.79998779297</ele>
        <time>2019-07-08T08:12:18Z</time>
      </trkpt>
      <trkpt lat="44.75805" lon="5.09769">
        <ele>434.20001220703</ele>
        <time>2019-07-08T08:12:19Z</time>
      </trkpt>
      <trkpt lat="44.75806" lon="5.09767">
        <ele>434.60000610352</ele>
        <time>2019-07-08T08:12:20Z</time>
      </trkpt>
      <trkpt lat="44.75807" lon="5.09764">
        <ele>435</ele>
        <time>2019-07-08T08:12:21Z</time>
      </trkpt>
      <trkpt lat="44.75807" lon="5.09761">
        <ele>435.39999389648</ele>
        <time>2019-07-08T08:12:22Z</time>
      </trkpt>
      <trkpt lat="44.75808" lon="5.09759">
        <ele>435.39999389648</ele>
        <time>2019-07-08T08:12:23Z</time>
      </trkpt>
      <trkpt lat="44.75809" lon="5.09754">
        <ele>435.39999389648</ele>
        <time>2019-07-08T08:12:25Z</time>
      </trkpt>
      <trkpt lat="44.75812" lon="5.09747">
        <ele>435.39999389648</ele>
        <time>2019-07-08T08:12:28Z</time>
      </trkpt>
      <trkpt lat="44.75816" lon="5.0974">
        <ele>435.79998779297</ele>
        <time>2019-07-08T08:12:31Z</time>
      </trkpt>
      <trkpt lat="44.75817" lon="5.09738">
        <ele>436.20001220703</ele>
        <time>2019-07-08T08:12:32Z</time>
      </trkpt>
      <trkpt lat="44.75819" lon="5.09736">
        <ele>436.60000610352</ele>
        <time>2019-07-08T08:12:33Z</time>
      </trkpt>
      <trkpt lat="44.7582" lon="5.09733">
        <ele>437</ele>
        <time>2019-07-08T08:12:34Z</time>
      </trkpt>
      <trkpt lat="44.75821" lon="5.09731">
        <ele>437.39999389648</ele>
        <time>2019-07-08T08:12:35Z</time>
      </trkpt>
      <trkpt lat="44.75833" lon="5.09716">
        <ele>437.39999389648</ele>
        <time>2019-07-08T08:12:42Z</time>
      </trkpt>
      <trkpt lat="44.75836" lon="5.09713">
        <ele>438</ele>
        <time>2019-07-08T08:12:44Z</time>
      </trkpt>
      <trkpt lat="44.75838" lon="5.09712">
        <ele>438.39999389648</ele>
        <time>2019-07-08T08:12:45Z</time>
      </trkpt>
      <trkpt lat="44.7584" lon="5.09711">
        <ele>438.79998779297</ele>
        <time>2019-07-08T08:12:46Z</time>
      </trkpt>
      <trkpt lat="44.75842" lon="5.0971">
        <ele>439.20001220703</ele>
        <time>2019-07-08T08:12:47Z</time>
      </trkpt>
      <trkpt lat="44.75844" lon="5.09709">
        <ele>439.60000610352</ele>
        <time>2019-07-08T08:12:48Z</time>
      </trkpt>
      <trkpt lat="44.75859" lon="5.09703">
        <ele>439.60000610352</ele>
        <time>2019-07-08T08:12:55Z</time>
      </trkpt>
      <trkpt lat="44.75861" lon="5.09702">
        <ele>440</ele>
        <time>2019-07-08T08:12:56Z</time>
      </trkpt>
      <trkpt lat="44.75862" lon="5.09701">
        <ele>440.39999389648</ele>
        <time>2019-07-08T08:12:57Z</time>
      </trkpt>
      <trkpt lat="44.75864" lon="5.09701">
        <ele>440.79998779297</ele>
        <time>2019-07-08T08:12:58Z</time>
      </trkpt>
      <trkpt lat="44.75866" lon="5.097">
        <ele>441.20001220703</ele>
        <time>2019-07-08T08:12:59Z</time>
      </trkpt>
      <trkpt lat="44.75868" lon="5.09699">
        <ele>441.60000610352</ele>
        <time>2019-07-08T08:13:00Z</time>
      </trkpt>
      <trkpt lat="44.75872" lon="5.09697">
        <ele>441.60000610352</ele>
        <time>2019-07-08T08:13:02Z</time>
      </trkpt>
      <trkpt lat="44.75881" lon="5.09691">
        <ele>442</ele>
        <time>2019-07-08T08:13:07Z</time>
      </trkpt>
      <trkpt lat="44.75883" lon="5.0969">
        <ele>442.79998779297</ele>
        <time>2019-07-08T08:13:08Z</time>
      </trkpt>
      <trkpt lat="44.75884" lon="5.09689">
        <ele>443.20001220703</ele>
        <time>2019-07-08T08:13:09Z</time>
      </trkpt>
      <trkpt lat="44.75886" lon="5.09687">
        <ele>443.60000610352</ele>
        <time>2019-07-08T08:13:10Z</time>
      </trkpt>
      <trkpt lat="44.75892" lon="5.09681">
        <ele>443.60000610352</ele>
        <time>2019-07-08T08:13:14Z</time>
      </trkpt>
      <trkpt lat="44.75898" lon="5.09675">
        <ele>444</ele>
        <time>2019-07-08T08:13:17Z</time>
      </trkpt>
      <trkpt lat="44.75899" lon="5.09673">
        <ele>444.39999389648</ele>
        <time>2019-07-08T08:13:18Z</time>
      </trkpt>
      <trkpt lat="44.75901" lon="5.09671">
        <ele>444.79998779297</ele>
        <time>2019-07-08T08:13:19Z</time>
      </trkpt>
      <trkpt lat="44.75903" lon="5.09669">
        <ele>445.20001220703</ele>
        <time>2019-07-08T08:13:20Z</time>
      </trkpt>
      <trkpt lat="44.75905" lon="5.09667">
        <ele>445.60000610352</ele>
        <time>2019-07-08T08:13:21Z</time>
      </trkpt>
      <trkpt lat="44.75914" lon="5.09654">
        <ele>445.60000610352</ele>
        <time>2019-07-08T08:13:26Z</time>
      </trkpt>
      <trkpt lat="44.75926" lon="5.09637">
        <ele>445.60000610352</ele>
        <time>2019-07-08T08:13:32Z</time>
      </trkpt>
      <trkpt lat="44.75938" lon="5.0962">
        <ele>445.60000610352</ele>
        <time>2019-07-08T08:13:38Z</time>
      </trkpt>
      <trkpt lat="44.75949" lon="5.09602">
        <ele>445.60000610352</ele>
        <time>2019-07-08T08:13:44Z</time>
      </trkpt>
      <trkpt lat="44.75952" lon="5.09589">
        <ele>445.60000610352</ele>
        <time>2019-07-08T08:13:49Z</time>
      </trkpt>
      <trkpt lat="44.75953" lon="5.09585">
        <ele>445.20001220703</ele>
        <time>2019-07-08T08:13:50Z</time>
      </trkpt>
      <trkpt lat="44.75954" lon="5.09581">
        <ele>444.60000610352</ele>
        <time>2019-07-08T08:13:51Z</time>
      </trkpt>
      <trkpt lat="44.75954" lon="5.09578">
        <ele>444.20001220703</ele>
        <time>2019-07-08T08:13:52Z</time>
      </trkpt>
      <trkpt lat="44.75955" lon="5.09574">
        <ele>443.60000610352</ele>
        <time>2019-07-08T08:13:53Z</time>
      </trkpt>
      <trkpt lat="44.75956" lon="5.09569">
        <ele>442.79998779297</ele>
        <time>2019-07-08T08:13:54Z</time>
      </trkpt>
      <trkpt lat="44.75958" lon="5.09563">
        <ele>442</ele>
        <time>2019-07-08T08:13:55Z</time>
      </trkpt>
      <trkpt lat="44.75959" lon="5.09558">
        <ele>441.20001220703</ele>
        <time>2019-07-08T08:13:56Z</time>
      </trkpt>
      <trkpt lat="44.75961" lon="5.09555">
        <ele>439.39999389648</ele>
        <time>2019-07-08T08:13:57Z</time>
      </trkpt>
      <trkpt lat="44.75962" lon="5.09553">
        <ele>438.79998779297</ele>
        <time>2019-07-08T08:13:58Z</time>
      </trkpt>
      <trkpt lat="44.75964" lon="5.0955">
        <ele>438</ele>
        <time>2019-07-08T08:13:59Z</time>
      </trkpt>
      <trkpt lat="44.75965" lon="5.09547">
        <ele>437.39999389648</ele>
        <time>2019-07-08T08:14:00Z</time>
      </trkpt>
      <trkpt lat="44.75966" lon="5.09545">
        <ele>436.60000610352</ele>
        <time>2019-07-08T08:14:01Z</time>
      </trkpt>
      <trkpt lat="44.75969" lon="5.09541">
        <ele>436</ele>
        <time>2019-07-08T08:14:02Z</time>
      </trkpt>
      <trkpt lat="44.7597" lon="5.09537">
        <ele>435.60000610352</ele>
        <time>2019-07-08T08:14:03Z</time>
      </trkpt>
      <trkpt lat="44.75972" lon="5.09532">
        <ele>435</ele>
        <time>2019-07-08T08:14:04Z</time>
      </trkpt>
      <trkpt lat="44.75974" lon="5.09528">
        <ele>434.60000610352</ele>
        <time>2019-07-08T08:14:05Z</time>
      </trkpt>
      <trkpt lat="44.75975" lon="5.09523">
        <ele>433.79998779297</ele>
        <time>2019-07-08T08:14:06Z</time>
      </trkpt>
      <trkpt lat="44.75975" lon="5.09519">
        <ele>433.20001220703</ele>
        <time>2019-07-08T08:14:07Z</time>
      </trkpt>
      <trkpt lat="44.75975" lon="5.09516">
        <ele>432.60000610352</ele>
        <time>2019-07-08T08:14:08Z</time>
      </trkpt>
      <trkpt lat="44.75974" lon="5.09513">
        <ele>431.79998779297</ele>
        <time>2019-07-08T08:14:09Z</time>
      </trkpt>
      <trkpt lat="44.75973" lon="5.0951">
        <ele>431.20001220703</ele>
        <time>2019-07-08T08:14:10Z</time>
      </trkpt>
      <trkpt lat="44.75973" lon="5.09501">
        <ele>431.20001220703</ele>
        <time>2019-07-08T08:14:12Z</time>
      </trkpt>
      <trkpt lat="44.75974" lon="5.09496">
        <ele>430.79998779297</ele>
        <time>2019-07-08T08:14:13Z</time>
      </trkpt>
      <trkpt lat="44.75976" lon="5.09491">
        <ele>430.39999389648</ele>
        <time>2019-07-08T08:14:14Z</time>
      </trkpt>
      <trkpt lat="44.75979" lon="5.09486">
        <ele>430</ele>
        <time>2019-07-08T08:14:15Z</time>
      </trkpt>
      <trkpt lat="44.75982" lon="5.09481">
        <ele>429.60000610352</ele>
        <time>2019-07-08T08:14:16Z</time>
      </trkpt>
      <trkpt lat="44.75986" lon="5.09476">
        <ele>429</ele>
        <time>2019-07-08T08:14:17Z</time>
      </trkpt>
      <trkpt lat="44.75993" lon="5.09465">
        <ele>428.60000610352</ele>
        <time>2019-07-08T08:14:19Z</time>
      </trkpt>
      <trkpt lat="44.75996" lon="5.09458">
        <ele>428.20001220703</ele>
        <time>2019-07-08T08:14:20Z</time>
      </trkpt>
      <trkpt lat="44.76" lon="5.0945">
        <ele>427.79998779297</ele>
        <time>2019-07-08T08:14:21Z</time>
      </trkpt>
      <trkpt lat="44.76005" lon="5.09442">
        <ele>426.79998779297</ele>
        <time>2019-07-08T08:14:22Z</time>
      </trkpt>
      <trkpt lat="44.7601" lon="5.09434">
        <ele>426.20001220703</ele>
        <time>2019-07-08T08:14:23Z</time>
      </trkpt>
      <trkpt lat="44.76015" lon="5.09425">
        <ele>425.79998779297</ele>
        <time>2019-07-08T08:14:24Z</time>
      </trkpt>
      <trkpt lat="44.76022" lon="5.09416">
        <ele>425.20001220703</ele>
        <time>2019-07-08T08:14:25Z</time>
      </trkpt>
      <trkpt lat="44.76029" lon="5.09408">
        <ele>424.39999389648</ele>
        <time>2019-07-08T08:14:26Z</time>
      </trkpt>
      <trkpt lat="44.76036" lon="5.09399">
        <ele>423.79998779297</ele>
        <time>2019-07-08T08:14:27Z</time>
      </trkpt>
      <trkpt lat="44.76045" lon="5.0939">
        <ele>423</ele>
        <time>2019-07-08T08:14:28Z</time>
      </trkpt>
      <trkpt lat="44.76053" lon="5.0938">
        <ele>422.39999389648</ele>
        <time>2019-07-08T08:14:29Z</time>
      </trkpt>
      <trkpt lat="44.76062" lon="5.09371">
        <ele>421.39999389648</ele>
        <time>2019-07-08T08:14:30Z</time>
      </trkpt>
      <trkpt lat="44.7607" lon="5.09361">
        <ele>420.39999389648</ele>
        <time>2019-07-08T08:14:31Z</time>
      </trkpt>
      <trkpt lat="44.76077" lon="5.09352">
        <ele>419.60000610352</ele>
        <time>2019-07-08T08:14:32Z</time>
      </trkpt>
      <trkpt lat="44.76084" lon="5.09345">
        <ele>418.79998779297</ele>
        <time>2019-07-08T08:14:33Z</time>
      </trkpt>
      <trkpt lat="44.7609" lon="5.09339">
        <ele>418</ele>
        <time>2019-07-08T08:14:34Z</time>
      </trkpt>
      <trkpt lat="44.76093" lon="5.09332">
        <ele>417</ele>
        <time>2019-07-08T08:14:35Z</time>
      </trkpt>
      <trkpt lat="44.76093" lon="5.09323">
        <ele>416</ele>
        <time>2019-07-08T08:14:36Z</time>
      </trkpt>
      <trkpt lat="44.76088" lon="5.09316">
        <ele>415.20001220703</ele>
        <time>2019-07-08T08:14:37Z</time>
      </trkpt>
      <trkpt lat="44.76083" lon="5.09314">
        <ele>414.20001220703</ele>
        <time>2019-07-08T08:14:38Z</time>
      </trkpt>
      <trkpt lat="44.76077" lon="5.09314">
        <ele>413.39999389648</ele>
        <time>2019-07-08T08:14:39Z</time>
      </trkpt>
      <trkpt lat="44.7607" lon="5.09316">
        <ele>412.79998779297</ele>
        <time>2019-07-08T08:14:40Z</time>
      </trkpt>
      <trkpt lat="44.76063" lon="5.09315">
        <ele>411.79998779297</ele>
        <time>2019-07-08T08:14:41Z</time>
      </trkpt>
      <trkpt lat="44.76056" lon="5.09309">
        <ele>411</ele>
        <time>2019-07-08T08:14:42Z</time>
      </trkpt>
      <trkpt lat="44.76051" lon="5.09302">
        <ele>410</ele>
        <time>2019-07-08T08:14:43Z</time>
      </trkpt>
      <trkpt lat="44.76049" lon="5.09294">
        <ele>409</ele>
        <time>2019-07-08T08:14:44Z</time>
      </trkpt>
      <trkpt lat="44.76053" lon="5.09287">
        <ele>408</ele>
        <time>2019-07-08T08:14:45Z</time>
      </trkpt>
      <trkpt lat="44.76059" lon="5.09284">
        <ele>407.20001220703</ele>
        <time>2019-07-08T08:14:46Z</time>
      </trkpt>
      <trkpt lat="44.76065" lon="5.09283">
        <ele>405.20001220703</ele>
        <time>2019-07-08T08:14:47Z</time>
      </trkpt>
      <trkpt lat="44.76072" lon="5.09283">
        <ele>404.20001220703</ele>
        <time>2019-07-08T08:14:48Z</time>
      </trkpt>
      <trkpt lat="44.76078" lon="5.09282">
        <ele>403.60000610352</ele>
        <time>2019-07-08T08:14:49Z</time>
      </trkpt>
      <trkpt lat="44.76084" lon="5.09275">
        <ele>403</ele>
        <time>2019-07-08T08:14:50Z</time>
      </trkpt>
      <trkpt lat="44.76087" lon="5.09266">
        <ele>402.39999389648</ele>
        <time>2019-07-08T08:14:51Z</time>
      </trkpt>
      <trkpt lat="44.76089" lon="5.09255">
        <ele>401.79998779297</ele>
        <time>2019-07-08T08:14:52Z</time>
      </trkpt>
      <trkpt lat="44.76088" lon="5.09244">
        <ele>401.20001220703</ele>
        <time>2019-07-08T08:14:53Z</time>
      </trkpt>
      <trkpt lat="44.76087" lon="5.09235">
        <ele>401.20001220703</ele>
        <time>2019-07-08T08:14:54Z</time>
      </trkpt>
      <trkpt lat="44.76088" lon="5.09194">
        <ele>400.79998779297</ele>
        <time>2019-07-08T08:14:58Z</time>
      </trkpt>
      <trkpt lat="44.76092" lon="5.09185">
        <ele>400.20001220703</ele>
        <time>2019-07-08T08:14:59Z</time>
      </trkpt>
      <trkpt lat="44.76096" lon="5.09176">
        <ele>399.79998779297</ele>
        <time>2019-07-08T08:15:00Z</time>
      </trkpt>
      <trkpt lat="44.761" lon="5.09167">
        <ele>399.39999389648</ele>
        <time>2019-07-08T08:15:01Z</time>
      </trkpt>
      <trkpt lat="44.76105" lon="5.09158">
        <ele>399</ele>
        <time>2019-07-08T08:15:02Z</time>
      </trkpt>
      <trkpt lat="44.76114" lon="5.0914">
        <ele>398.60000610352</ele>
        <time>2019-07-08T08:15:04Z</time>
      </trkpt>
      <trkpt lat="44.76118" lon="5.09131">
        <ele>398.20001220703</ele>
        <time>2019-07-08T08:15:05Z</time>
      </trkpt>
      <trkpt lat="44.76123" lon="5.09122">
        <ele>397.60000610352</ele>
        <time>2019-07-08T08:15:06Z</time>
      </trkpt>
      <trkpt lat="44.76126" lon="5.09112">
        <ele>397.20001220703</ele>
        <time>2019-07-08T08:15:07Z</time>
      </trkpt>
      <trkpt lat="44.76129" lon="5.09101">
        <ele>396.79998779297</ele>
        <time>2019-07-08T08:15:08Z</time>
      </trkpt>
      <trkpt lat="44.7613" lon="5.09089">
        <ele>396.79998779297</ele>
        <time>2019-07-08T08:15:09Z</time>
      </trkpt>
      <trkpt lat="44.76128" lon="5.09065">
        <ele>396.39999389648</ele>
        <time>2019-07-08T08:15:11Z</time>
      </trkpt>
      <trkpt lat="44.76126" lon="5.09053">
        <ele>395.39999389648</ele>
        <time>2019-07-08T08:15:12Z</time>
      </trkpt>
      <trkpt lat="44.76124" lon="5.09041">
        <ele>395</ele>
        <time>2019-07-08T08:15:13Z</time>
      </trkpt>
      <trkpt lat="44.76123" lon="5.09029">
        <ele>394.60000610352</ele>
        <time>2019-07-08T08:15:14Z</time>
      </trkpt>
      <trkpt lat="44.76121" lon="5.09018">
        <ele>394</ele>
        <time>2019-07-08T08:15:15Z</time>
      </trkpt>
      <trkpt lat="44.76119" lon="5.09005">
        <ele>393.60000610352</ele>
        <time>2019-07-08T08:15:16Z</time>
      </trkpt>
      <trkpt lat="44.76117" lon="5.08994">
        <ele>393</ele>
        <time>2019-07-08T08:15:17Z</time>
      </trkpt>
      <trkpt lat="44.76115" lon="5.08983">
        <ele>392.60000610352</ele>
        <time>2019-07-08T08:15:18Z</time>
      </trkpt>
      <trkpt lat="44.76113" lon="5.08972">
        <ele>392.20001220703</ele>
        <time>2019-07-08T08:15:19Z</time>
      </trkpt>
      <trkpt lat="44.76109" lon="5.0895">
        <ele>391.60000610352</ele>
        <time>2019-07-08T08:15:21Z</time>
      </trkpt>
      <trkpt lat="44.76107" lon="5.08941">
        <ele>391.20001220703</ele>
        <time>2019-07-08T08:15:22Z</time>
      </trkpt>
      <trkpt lat="44.76104" lon="5.08932">
        <ele>390.79998779297</ele>
        <time>2019-07-08T08:15:23Z</time>
      </trkpt>
      <trkpt lat="44.761" lon="5.08923">
        <ele>390.39999389648</ele>
        <time>2019-07-08T08:15:24Z</time>
      </trkpt>
      <trkpt lat="44.76095" lon="5.08916">
        <ele>390</ele>
        <time>2019-07-08T08:15:25Z</time>
      </trkpt>
      <trkpt lat="44.76083" lon="5.08904">
        <ele>390</ele>
        <time>2019-07-08T08:15:27Z</time>
      </trkpt>
      <trkpt lat="44.76077" lon="5.08898">
        <ele>389.60000610352</ele>
        <time>2019-07-08T08:15:28Z</time>
      </trkpt>
      <trkpt lat="44.7607" lon="5.08893">
        <ele>389.20001220703</ele>
        <time>2019-07-08T08:15:29Z</time>
      </trkpt>
      <trkpt lat="44.76062" lon="5.08889">
        <ele>388.79998779297</ele>
        <time>2019-07-08T08:15:30Z</time>
      </trkpt>
      <trkpt lat="44.76055" lon="5.08884">
        <ele>388.39999389648</ele>
        <time>2019-07-08T08:15:31Z</time>
      </trkpt>
      <trkpt lat="44.76047" lon="5.08879">
        <ele>388</ele>
        <time>2019-07-08T08:15:32Z</time>
      </trkpt>
      <trkpt lat="44.76036" lon="5.08864">
        <ele>388</ele>
        <time>2019-07-08T08:15:35Z</time>
      </trkpt>
      <trkpt lat="44.76034" lon="5.08859">
        <ele>388</ele>
        <time>2019-07-08T08:15:36Z</time>
      </trkpt>
      <trkpt lat="44.7603" lon="5.08849">
        <ele>388</ele>
        <time>2019-07-08T08:15:38Z</time>
      </trkpt>
      <trkpt lat="44.76022" lon="5.08827">
        <ele>388</ele>
        <time>2019-07-08T08:15:44Z</time>
      </trkpt>
      <trkpt lat="44.76017" lon="5.08812">
        <ele>388</ele>
        <time>2019-07-08T08:15:50Z</time>
      </trkpt>
      <trkpt lat="44.76016" lon="5.08806">
        <ele>388</ele>
        <time>2019-07-08T08:15:53Z</time>
      </trkpt>
      <trkpt lat="44.76019" lon="5.08802">
        <ele>388</ele>
        <time>2019-07-08T08:15:55Z</time>
      </trkpt>
      <trkpt lat="44.76022" lon="5.08799">
        <ele>388.79998779297</ele>
        <time>2019-07-08T08:15:56Z</time>
      </trkpt>
      <trkpt lat="44.76024" lon="5.08798">
        <ele>389.20001220703</ele>
        <time>2019-07-08T08:15:57Z</time>
      </trkpt>
      <trkpt lat="44.76027" lon="5.08796">
        <ele>389.60000610352</ele>
        <time>2019-07-08T08:15:58Z</time>
      </trkpt>
      <trkpt lat="44.76028" lon="5.08795">
        <ele>390</ele>
        <time>2019-07-08T08:15:59Z</time>
      </trkpt>
      <trkpt lat="44.7603" lon="5.08793">
        <ele>390</ele>
        <time>2019-07-08T08:16:00Z</time>
      </trkpt>
      <trkpt lat="44.76043" lon="5.08782">
        <ele>390</ele>
        <time>2019-07-08T08:16:06Z</time>
      </trkpt>
      <trkpt lat="44.76063" lon="5.0877">
        <ele>390</ele>
        <time>2019-07-08T08:16:11Z</time>
      </trkpt>
      <trkpt lat="44.76078" lon="5.08754">
        <ele>390</ele>
        <time>2019-07-08T08:16:15Z</time>
      </trkpt>
      <trkpt lat="44.76084" lon="5.08744">
        <ele>390</ele>
        <time>2019-07-08T08:16:17Z</time>
      </trkpt>
      <trkpt lat="44.76089" lon="5.08734">
        <ele>389.39999389648</ele>
        <time>2019-07-08T08:16:19Z</time>
      </trkpt>
      <trkpt lat="44.76092" lon="5.08729">
        <ele>389</ele>
        <time>2019-07-08T08:16:20Z</time>
      </trkpt>
      <trkpt lat="44.76094" lon="5.08725">
        <ele>388.20001220703</ele>
        <time>2019-07-08T08:16:21Z</time>
      </trkpt>
      <trkpt lat="44.76097" lon="5.0872">
        <ele>387.79998779297</ele>
        <time>2019-07-08T08:16:22Z</time>
      </trkpt>
      <trkpt lat="44.76103" lon="5.08706">
        <ele>387.79998779297</ele>
        <time>2019-07-08T08:16:25Z</time>
      </trkpt>
      <trkpt lat="44.76113" lon="5.08677">
        <ele>387.79998779297</ele>
        <time>2019-07-08T08:16:32Z</time>
      </trkpt>
      <trkpt lat="44.76121" lon="5.08657">
        <ele>387.79998779297</ele>
        <time>2019-07-08T08:16:37Z</time>
      </trkpt>
      <trkpt lat="44.76123" lon="5.08653">
        <ele>387.79998779297</ele>
        <time>2019-07-08T08:16:38Z</time>
      </trkpt>
      <trkpt lat="44.7613" lon="5.08631">
        <ele>387.79998779297</ele>
        <time>2019-07-08T08:16:43Z</time>
      </trkpt>
      <trkpt lat="44.76134" lon="5.08622">
        <ele>387.79998779297</ele>
        <time>2019-07-08T08:16:46Z</time>
      </trkpt>
      <trkpt lat="44.76134" lon="5.08618">
        <ele>387.79998779297</ele>
        <time>2019-07-08T08:16:47Z</time>
      </trkpt>
      <trkpt lat="44.7614" lon="5.08602">
        <ele>387.79998779297</ele>
        <time>2019-07-08T08:16:51Z</time>
      </trkpt>
      <trkpt lat="44.76142" lon="5.08586">
        <ele>388.20001220703</ele>
        <time>2019-07-08T08:16:55Z</time>
      </trkpt>
      <trkpt lat="44.76143" lon="5.08582">
        <ele>388.60000610352</ele>
        <time>2019-07-08T08:16:56Z</time>
      </trkpt>
      <trkpt lat="44.76144" lon="5.08579">
        <ele>389.20001220703</ele>
        <time>2019-07-08T08:16:57Z</time>
      </trkpt>
      <trkpt lat="44.76144" lon="5.08575">
        <ele>389.60000610352</ele>
        <time>2019-07-08T08:16:58Z</time>
      </trkpt>
      <trkpt lat="44.76145" lon="5.08572">
        <ele>390</ele>
        <time>2019-07-08T08:16:59Z</time>
      </trkpt>
      <trkpt lat="44.76147" lon="5.08565">
        <ele>390</ele>
        <time>2019-07-08T08:17:01Z</time>
      </trkpt>
      <trkpt lat="44.76148" lon="5.08549">
        <ele>390</ele>
        <time>2019-07-08T08:17:06Z</time>
      </trkpt>
      <trkpt lat="44.76148" lon="5.08527">
        <ele>390</ele>
        <time>2019-07-08T08:17:11Z</time>
      </trkpt>
      <trkpt lat="44.76147" lon="5.08523">
        <ele>390.39999389648</ele>
        <time>2019-07-08T08:17:12Z</time>
      </trkpt>
      <trkpt lat="44.76147" lon="5.08519">
        <ele>390.79998779297</ele>
        <time>2019-07-08T08:17:13Z</time>
      </trkpt>
      <trkpt lat="44.76146" lon="5.08515">
        <ele>391.20001220703</ele>
        <time>2019-07-08T08:17:14Z</time>
      </trkpt>
      <trkpt lat="44.76145" lon="5.08512">
        <ele>391.60000610352</ele>
        <time>2019-07-08T08:17:15Z</time>
      </trkpt>
      <trkpt lat="44.76144" lon="5.08508">
        <ele>392</ele>
        <time>2019-07-08T08:17:16Z</time>
      </trkpt>
      <trkpt lat="44.76143" lon="5.08505">
        <ele>392</ele>
        <time>2019-07-08T08:17:17Z</time>
      </trkpt>
      <trkpt lat="44.76144" lon="5.08485">
        <ele>392</ele>
        <time>2019-07-08T08:17:23Z</time>
      </trkpt>
      <trkpt lat="44.76149" lon="5.08462">
        <ele>392</ele>
        <time>2019-07-08T08:17:29Z</time>
      </trkpt>
      <trkpt lat="44.7615" lon="5.08459">
        <ele>392.39999389648</ele>
        <time>2019-07-08T08:17:30Z</time>
      </trkpt>
      <trkpt lat="44.7615" lon="5.08455">
        <ele>392.79998779297</ele>
        <time>2019-07-08T08:17:31Z</time>
      </trkpt>
      <trkpt lat="44.76151" lon="5.08452">
        <ele>393.20001220703</ele>
        <time>2019-07-08T08:17:32Z</time>
      </trkpt>
      <trkpt lat="44.76151" lon="5.08448">
        <ele>393.60000610352</ele>
        <time>2019-07-08T08:17:33Z</time>
      </trkpt>
      <trkpt lat="44.76152" lon="5.08446">
        <ele>394</ele>
        <time>2019-07-08T08:17:34Z</time>
      </trkpt>
      <trkpt lat="44.76152" lon="5.08444">
        <ele>394</ele>
        <time>2019-07-08T08:17:35Z</time>
      </trkpt>
      <trkpt lat="44.76151" lon="5.08424">
        <ele>394</ele>
        <time>2019-07-08T08:17:41Z</time>
      </trkpt>
      <trkpt lat="44.76145" lon="5.08415">
        <ele>394</ele>
        <time>2019-07-08T08:17:45Z</time>
      </trkpt>
      <trkpt lat="44.76142" lon="5.08405">
        <ele>393.60000610352</ele>
        <time>2019-07-08T08:17:49Z</time>
      </trkpt>
      <trkpt lat="44.76141" lon="5.08402">
        <ele>393.20001220703</ele>
        <time>2019-07-08T08:17:50Z</time>
      </trkpt>
      <trkpt lat="44.7614" lon="5.08399">
        <ele>392.60000610352</ele>
        <time>2019-07-08T08:17:51Z</time>
      </trkpt>
      <trkpt lat="44.76138" lon="5.08395">
        <ele>392.20001220703</ele>
        <time>2019-07-08T08:17:52Z</time>
      </trkpt>
      <trkpt lat="44.76137" lon="5.08392">
        <ele>391.79998779297</ele>
        <time>2019-07-08T08:17:53Z</time>
      </trkpt>
      <trkpt lat="44.76136" lon="5.08389">
        <ele>391.20001220703</ele>
        <time>2019-07-08T08:17:54Z</time>
      </trkpt>
      <trkpt lat="44.76135" lon="5.08387">
        <ele>390.79998779297</ele>
        <time>2019-07-08T08:17:55Z</time>
      </trkpt>
      <trkpt lat="44.76135" lon="5.08383">
        <ele>390.20001220703</ele>
        <time>2019-07-08T08:17:56Z</time>
      </trkpt>
      <trkpt lat="44.76134" lon="5.08379">
        <ele>389.60000610352</ele>
        <time>2019-07-08T08:17:57Z</time>
      </trkpt>
      <trkpt lat="44.76133" lon="5.08375">
        <ele>389.20001220703</ele>
        <time>2019-07-08T08:17:58Z</time>
      </trkpt>
      <trkpt lat="44.7613" lon="5.08372">
        <ele>388.60000610352</ele>
        <time>2019-07-08T08:17:59Z</time>
      </trkpt>
      <trkpt lat="44.76127" lon="5.0837">
        <ele>387.60000610352</ele>
        <time>2019-07-08T08:18:00Z</time>
      </trkpt>
      <trkpt lat="44.76123" lon="5.08368">
        <ele>387</ele>
        <time>2019-07-08T08:18:01Z</time>
      </trkpt>
      <trkpt lat="44.76119" lon="5.08365">
        <ele>386.60000610352</ele>
        <time>2019-07-08T08:18:02Z</time>
      </trkpt>
      <trkpt lat="44.76116" lon="5.08363">
        <ele>386</ele>
        <time>2019-07-08T08:18:03Z</time>
      </trkpt>
      <trkpt lat="44.76112" lon="5.08359">
        <ele>385.39999389648</ele>
        <time>2019-07-08T08:18:04Z</time>
      </trkpt>
      <trkpt lat="44.76109" lon="5.08355">
        <ele>384.79998779297</ele>
        <time>2019-07-08T08:18:05Z</time>
      </trkpt>
      <trkpt lat="44.76107" lon="5.08351">
        <ele>384.20001220703</ele>
        <time>2019-07-08T08:18:06Z</time>
      </trkpt>
      <trkpt lat="44.76105" lon="5.08347">
        <ele>383.39999389648</ele>
        <time>2019-07-08T08:18:07Z</time>
      </trkpt>
      <trkpt lat="44.76104" lon="5.08342">
        <ele>382.79998779297</ele>
        <time>2019-07-08T08:18:08Z</time>
      </trkpt>
      <trkpt lat="44.76103" lon="5.08338">
        <ele>382.39999389648</ele>
        <time>2019-07-08T08:18:09Z</time>
      </trkpt>
      <trkpt lat="44.76103" lon="5.08335">
        <ele>382</ele>
        <time>2019-07-08T08:18:10Z</time>
      </trkpt>
      <trkpt lat="44.76103" lon="5.08333">
        <ele>381.39999389648</ele>
        <time>2019-07-08T08:18:11Z</time>
      </trkpt>
      <trkpt lat="44.76103" lon="5.0833">
        <ele>381</ele>
        <time>2019-07-08T08:18:12Z</time>
      </trkpt>
      <trkpt lat="44.76103" lon="5.08326">
        <ele>380.39999389648</ele>
        <time>2019-07-08T08:18:13Z</time>
      </trkpt>
      <trkpt lat="44.76104" lon="5.08316">
        <ele>380</ele>
        <time>2019-07-08T08:18:15Z</time>
      </trkpt>
      <trkpt lat="44.76104" lon="5.0831">
        <ele>379.60000610352</ele>
        <time>2019-07-08T08:18:16Z</time>
      </trkpt>
      <trkpt lat="44.76103" lon="5.08305">
        <ele>379.20001220703</ele>
        <time>2019-07-08T08:18:17Z</time>
      </trkpt>
      <trkpt lat="44.761" lon="5.083">
        <ele>378.79998779297</ele>
        <time>2019-07-08T08:18:18Z</time>
      </trkpt>
      <trkpt lat="44.76098" lon="5.08296">
        <ele>378.39999389648</ele>
        <time>2019-07-08T08:18:19Z</time>
      </trkpt>
      <trkpt lat="44.76095" lon="5.08291">
        <ele>377.79998779297</ele>
        <time>2019-07-08T08:18:20Z</time>
      </trkpt>
      <trkpt lat="44.76092" lon="5.08287">
        <ele>377.39999389648</ele>
        <time>2019-07-08T08:18:21Z</time>
      </trkpt>
      <trkpt lat="44.76089" lon="5.08283">
        <ele>377</ele>
        <time>2019-07-08T08:18:22Z</time>
      </trkpt>
      <trkpt lat="44.76086" lon="5.08276">
        <ele>376.39999389648</ele>
        <time>2019-07-08T08:18:23Z</time>
      </trkpt>
      <trkpt lat="44.76081" lon="5.08273">
        <ele>375.39999389648</ele>
        <time>2019-07-08T08:18:24Z</time>
      </trkpt>
      <trkpt lat="44.76079" lon="5.08267">
        <ele>375</ele>
        <time>2019-07-08T08:18:25Z</time>
      </trkpt>
      <trkpt lat="44.76078" lon="5.08262">
        <ele>374.39999389648</ele>
        <time>2019-07-08T08:18:26Z</time>
      </trkpt>
      <trkpt lat="44.76079" lon="5.08258">
        <ele>373.79998779297</ele>
        <time>2019-07-08T08:18:27Z</time>
      </trkpt>
      <trkpt lat="44.76079" lon="5.08253">
        <ele>373.39999389648</ele>
        <time>2019-07-08T08:18:28Z</time>
      </trkpt>
      <trkpt lat="44.7608" lon="5.08247">
        <ele>373</ele>
        <time>2019-07-08T08:18:29Z</time>
      </trkpt>
      <trkpt lat="44.7608" lon="5.08242">
        <ele>372.60000610352</ele>
        <time>2019-07-08T08:18:30Z</time>
      </trkpt>
      <trkpt lat="44.76079" lon="5.08239">
        <ele>372.20001220703</ele>
        <time>2019-07-08T08:18:31Z</time>
      </trkpt>
      <trkpt lat="44.76079" lon="5.08234">
        <ele>371.79998779297</ele>
        <time>2019-07-08T08:18:32Z</time>
      </trkpt>
      <trkpt lat="44.76078" lon="5.08229">
        <ele>371.20001220703</ele>
        <time>2019-07-08T08:18:33Z</time>
      </trkpt>
      <trkpt lat="44.76075" lon="5.08227">
        <ele>370.79998779297</ele>
        <time>2019-07-08T08:18:34Z</time>
      </trkpt>
      <trkpt lat="44.76073" lon="5.08223">
        <ele>370.39999389648</ele>
        <time>2019-07-08T08:18:35Z</time>
      </trkpt>
      <trkpt lat="44.76071" lon="5.08219">
        <ele>369.79998779297</ele>
        <time>2019-07-08T08:18:36Z</time>
      </trkpt>
      <trkpt lat="44.76068" lon="5.08216">
        <ele>369.39999389648</ele>
        <time>2019-07-08T08:18:37Z</time>
      </trkpt>
      <trkpt lat="44.76066" lon="5.08211">
        <ele>369</ele>
        <time>2019-07-08T08:18:38Z</time>
      </trkpt>
      <trkpt lat="44.76063" lon="5.08205">
        <ele>368.39999389648</ele>
        <time>2019-07-08T08:18:39Z</time>
      </trkpt>
      <trkpt lat="44.76059" lon="5.08198">
        <ele>368</ele>
        <time>2019-07-08T08:18:40Z</time>
      </trkpt>
      <trkpt lat="44.76055" lon="5.08193">
        <ele>367.60000610352</ele>
        <time>2019-07-08T08:18:41Z</time>
      </trkpt>
      <trkpt lat="44.76052" lon="5.0819">
        <ele>367.20001220703</ele>
        <time>2019-07-08T08:18:42Z</time>
      </trkpt>
      <trkpt lat="44.76048" lon="5.08184">
        <ele>366.79998779297</ele>
        <time>2019-07-08T08:18:43Z</time>
      </trkpt>
      <trkpt lat="44.76044" lon="5.08178">
        <ele>366.39999389648</ele>
        <time>2019-07-08T08:18:44Z</time>
      </trkpt>
      <trkpt lat="44.76039" lon="5.08172">
        <ele>366</ele>
        <time>2019-07-08T08:18:45Z</time>
      </trkpt>
      <trkpt lat="44.76035" lon="5.08165">
        <ele>365.39999389648</ele>
        <time>2019-07-08T08:18:46Z</time>
      </trkpt>
      <trkpt lat="44.7603" lon="5.08159">
        <ele>364.79998779297</ele>
        <time>2019-07-08T08:18:47Z</time>
      </trkpt>
      <trkpt lat="44.76025" lon="5.08152">
        <ele>364.20001220703</ele>
        <time>2019-07-08T08:18:48Z</time>
      </trkpt>
      <trkpt lat="44.76019" lon="5.08149">
        <ele>363</ele>
        <time>2019-07-08T08:18:49Z</time>
      </trkpt>
      <trkpt lat="44.76014" lon="5.08148">
        <ele>362.39999389648</ele>
        <time>2019-07-08T08:18:50Z</time>
      </trkpt>
      <trkpt lat="44.76011" lon="5.08143">
        <ele>361.79998779297</ele>
        <time>2019-07-08T08:18:51Z</time>
      </trkpt>
      <trkpt lat="44.76007" lon="5.08137">
        <ele>361.20001220703</ele>
        <time>2019-07-08T08:18:52Z</time>
      </trkpt>
      <trkpt lat="44.76006" lon="5.0813">
        <ele>360.60000610352</ele>
        <time>2019-07-08T08:18:53Z</time>
      </trkpt>
      <trkpt lat="44.76" lon="5.08119">
        <ele>360.60000610352</ele>
        <time>2019-07-08T08:18:55Z</time>
      </trkpt>
      <trkpt lat="44.75999" lon="5.08112">
        <ele>360.60000610352</ele>
        <time>2019-07-08T08:18:56Z</time>
      </trkpt>
      <trkpt lat="44.75995" lon="5.08109">
        <ele>360.20001220703</ele>
        <time>2019-07-08T08:18:57Z</time>
      </trkpt>
      <trkpt lat="44.75991" lon="5.08104">
        <ele>359.79998779297</ele>
        <time>2019-07-08T08:18:58Z</time>
      </trkpt>
      <trkpt lat="44.75988" lon="5.08103">
        <ele>359.39999389648</ele>
        <time>2019-07-08T08:18:59Z</time>
      </trkpt>
      <trkpt lat="44.75985" lon="5.08101">
        <ele>358.60000610352</ele>
        <time>2019-07-08T08:19:00Z</time>
      </trkpt>
      <trkpt lat="44.75982" lon="5.08098">
        <ele>358</ele>
        <time>2019-07-08T08:19:01Z</time>
      </trkpt>
      <trkpt lat="44.75979" lon="5.08096">
        <ele>357.39999389648</ele>
        <time>2019-07-08T08:19:02Z</time>
      </trkpt>
      <trkpt lat="44.75976" lon="5.08095">
        <ele>356.79998779297</ele>
        <time>2019-07-08T08:19:03Z</time>
      </trkpt>
      <trkpt lat="44.75973" lon="5.08095">
        <ele>356.20001220703</ele>
        <time>2019-07-08T08:19:04Z</time>
      </trkpt>
      <trkpt lat="44.7597" lon="5.08095">
        <ele>355.79998779297</ele>
        <time>2019-07-08T08:19:05Z</time>
      </trkpt>
      <trkpt lat="44.75967" lon="5.08095">
        <ele>355.20001220703</ele>
        <time>2019-07-08T08:19:06Z</time>
      </trkpt>
      <trkpt lat="44.75965" lon="5.08094">
        <ele>354.79998779297</ele>
        <time>2019-07-08T08:19:07Z</time>
      </trkpt>
      <trkpt lat="44.75962" lon="5.08092">
        <ele>354.39999389648</ele>
        <time>2019-07-08T08:19:08Z</time>
      </trkpt>
      <trkpt lat="44.75961" lon="5.08092">
        <ele>354</ele>
        <time>2019-07-08T08:19:09Z</time>
      </trkpt>
      <trkpt lat="44.75961" lon="5.08092">
        <ele>354</ele>
        <time>2019-07-08T08:19:10Z</time>
      </trkpt>
      <trkpt lat="44.7596" lon="5.08092">
        <ele>354</ele>
        <time>2019-07-08T08:19:17Z</time>
      </trkpt>
      <trkpt lat="44.75959" lon="5.08091">
        <ele>354</ele>
        <time>2019-07-08T08:19:25Z</time>
      </trkpt>
      <trkpt lat="44.75956" lon="5.0809">
        <ele>354</ele>
        <time>2019-07-08T08:19:26Z</time>
      </trkpt>
      <trkpt lat="44.75953" lon="5.08088">
        <ele>353.60000610352</ele>
        <time>2019-07-08T08:19:27Z</time>
      </trkpt>
      <trkpt lat="44.75948" lon="5.08086">
        <ele>353</ele>
        <time>2019-07-08T08:19:28Z</time>
      </trkpt>
      <trkpt lat="44.75943" lon="5.08084">
        <ele>352.60000610352</ele>
        <time>2019-07-08T08:19:29Z</time>
      </trkpt>
      <trkpt lat="44.75937" lon="5.08082">
        <ele>352.20001220703</ele>
        <time>2019-07-08T08:19:30Z</time>
      </trkpt>
      <trkpt lat="44.75931" lon="5.08083">
        <ele>351.60000610352</ele>
        <time>2019-07-08T08:19:31Z</time>
      </trkpt>
      <trkpt lat="44.75926" lon="5.08082">
        <ele>351</ele>
        <time>2019-07-08T08:19:32Z</time>
      </trkpt>
      <trkpt lat="44.75919" lon="5.08083">
        <ele>350.39999389648</ele>
        <time>2019-07-08T08:19:33Z</time>
      </trkpt>
      <trkpt lat="44.75913" lon="5.08085">
        <ele>350</ele>
        <time>2019-07-08T08:19:34Z</time>
      </trkpt>
      <trkpt lat="44.75907" lon="5.08085">
        <ele>349.39999389648</ele>
        <time>2019-07-08T08:19:35Z</time>
      </trkpt>
      <trkpt lat="44.75905" lon="5.08079">
        <ele>348.79998779297</ele>
        <time>2019-07-08T08:19:36Z</time>
      </trkpt>
      <trkpt lat="44.75902" lon="5.08075">
        <ele>348.20001220703</ele>
        <time>2019-07-08T08:19:37Z</time>
      </trkpt>
      <trkpt lat="44.75899" lon="5.08074">
        <ele>346.79998779297</ele>
        <time>2019-07-08T08:19:38Z</time>
      </trkpt>
      <trkpt lat="44.75897" lon="5.08072">
        <ele>346.20001220703</ele>
        <time>2019-07-08T08:19:39Z</time>
      </trkpt>
      <trkpt lat="44.75894" lon="5.08069">
        <ele>345.39999389648</ele>
        <time>2019-07-08T08:19:40Z</time>
      </trkpt>
      <trkpt lat="44.75891" lon="5.08068">
        <ele>344.60000610352</ele>
        <time>2019-07-08T08:19:41Z</time>
      </trkpt>
      <trkpt lat="44.75887" lon="5.08066">
        <ele>343.79998779297</ele>
        <time>2019-07-08T08:19:42Z</time>
      </trkpt>
      <trkpt lat="44.75887" lon="5.08063">
        <ele>343</ele>
        <time>2019-07-08T08:19:43Z</time>
      </trkpt>
      <trkpt lat="44.75887" lon="5.08062">
        <ele>342.20001220703</ele>
        <time>2019-07-08T08:19:44Z</time>
      </trkpt>
      <trkpt lat="44.7589" lon="5.08059">
        <ele>341.60000610352</ele>
        <time>2019-07-08T08:19:45Z</time>
      </trkpt>
      <trkpt lat="44.75891" lon="5.08055">
        <ele>340.79998779297</ele>
        <time>2019-07-08T08:19:46Z</time>
      </trkpt>
      <trkpt lat="44.75892" lon="5.08053">
        <ele>340</ele>
        <time>2019-07-08T08:19:47Z</time>
      </trkpt>
      <trkpt lat="44.75892" lon="5.0805">
        <ele>340</ele>
        <time>2019-07-08T08:19:49Z</time>
      </trkpt>
      <trkpt lat="44.7589" lon="5.08045">
        <ele>340</ele>
        <time>2019-07-08T08:19:53Z</time>
      </trkpt>
      <trkpt lat="44.75889" lon="5.08043">
        <ele>340</ele>
        <time>2019-07-08T08:19:58Z</time>
      </trkpt>
      <trkpt lat="44.7589" lon="5.0804">
        <ele>340</ele>
        <time>2019-07-08T08:20:04Z</time>
      </trkpt>
      <trkpt lat="44.75891" lon="5.08038">
        <ele>340</ele>
        <time>2019-07-08T08:20:05Z</time>
      </trkpt>
      <trkpt lat="44.75893" lon="5.08027">
        <ele>340</ele>
        <time>2019-07-08T08:20:09Z</time>
      </trkpt>
      <trkpt lat="44.75897" lon="5.08015">
        <ele>340</ele>
        <time>2019-07-08T08:20:14Z</time>
      </trkpt>
      <trkpt lat="44.75902" lon="5.08005">
        <ele>340</ele>
        <time>2019-07-08T08:20:18Z</time>
      </trkpt>
      <trkpt lat="44.75902" lon="5.08">
        <ele>340</ele>
        <time>2019-07-08T08:20:19Z</time>
      </trkpt>
      <trkpt lat="44.75904" lon="5.07995">
        <ele>340</ele>
        <time>2019-07-08T08:20:21Z</time>
      </trkpt>
      <trkpt lat="44.75907" lon="5.07986">
        <ele>340</ele>
        <time>2019-07-08T08:20:24Z</time>
      </trkpt>
      <trkpt lat="44.75907" lon="5.07981">
        <ele>340</ele>
        <time>2019-07-08T08:20:26Z</time>
      </trkpt>
      <trkpt lat="44.75907" lon="5.07979">
        <ele>340.39999389648</ele>
        <time>2019-07-08T08:20:27Z</time>
      </trkpt>
      <trkpt lat="44.75908" lon="5.07976">
        <ele>340.79998779297</ele>
        <time>2019-07-08T08:20:28Z</time>
      </trkpt>
      <trkpt lat="44.75909" lon="5.07975">
        <ele>341.20001220703</ele>
        <time>2019-07-08T08:20:29Z</time>
      </trkpt>
      <trkpt lat="44.75911" lon="5.07972">
        <ele>341.60000610352</ele>
        <time>2019-07-08T08:20:30Z</time>
      </trkpt>
      <trkpt lat="44.75912" lon="5.07969">
        <ele>342</ele>
        <time>2019-07-08T08:20:31Z</time>
      </trkpt>
      <trkpt lat="44.75914" lon="5.07962">
        <ele>342</ele>
        <time>2019-07-08T08:20:33Z</time>
      </trkpt>
      <trkpt lat="44.75919" lon="5.07947">
        <ele>342</ele>
        <time>2019-07-08T08:20:37Z</time>
      </trkpt>
      <trkpt lat="44.75911" lon="5.07934">
        <ele>342</ele>
        <time>2019-07-08T08:20:40Z</time>
      </trkpt>
      <trkpt lat="44.75908" lon="5.0793">
        <ele>342</ele>
        <time>2019-07-08T08:20:41Z</time>
      </trkpt>
      <trkpt lat="44.75902" lon="5.07925">
        <ele>341.60000610352</ele>
        <time>2019-07-08T08:20:43Z</time>
      </trkpt>
      <trkpt lat="44.75899" lon="5.07921">
        <ele>341.20001220703</ele>
        <time>2019-07-08T08:20:44Z</time>
      </trkpt>
      <trkpt lat="44.75896" lon="5.07919">
        <ele>340.60000610352</ele>
        <time>2019-07-08T08:20:45Z</time>
      </trkpt>
      <trkpt lat="44.75893" lon="5.07916">
        <ele>340.20001220703</ele>
        <time>2019-07-08T08:20:46Z</time>
      </trkpt>
      <trkpt lat="44.75891" lon="5.07914">
        <ele>339.60000610352</ele>
        <time>2019-07-08T08:20:47Z</time>
      </trkpt>
      <trkpt lat="44.75888" lon="5.0791">
        <ele>339</ele>
        <time>2019-07-08T08:20:48Z</time>
      </trkpt>
      <trkpt lat="44.75882" lon="5.07905">
        <ele>338.39999389648</ele>
        <time>2019-07-08T08:20:49Z</time>
      </trkpt>
      <trkpt lat="44.75878" lon="5.07901">
        <ele>337.79998779297</ele>
        <time>2019-07-08T08:20:50Z</time>
      </trkpt>
      <trkpt lat="44.75872" lon="5.07897">
        <ele>337.20001220703</ele>
        <time>2019-07-08T08:20:51Z</time>
      </trkpt>
      <trkpt lat="44.75867" lon="5.07892">
        <ele>336.20001220703</ele>
        <time>2019-07-08T08:20:52Z</time>
      </trkpt>
      <trkpt lat="44.75863" lon="5.07886">
        <ele>335.60000610352</ele>
        <time>2019-07-08T08:20:53Z</time>
      </trkpt>
      <trkpt lat="44.75859" lon="5.07882">
        <ele>335</ele>
        <time>2019-07-08T08:20:54Z</time>
      </trkpt>
      <trkpt lat="44.75857" lon="5.07876">
        <ele>335</ele>
        <time>2019-07-08T08:20:56Z</time>
      </trkpt>
      <trkpt lat="44.75856" lon="5.07873">
        <ele>335</ele>
        <time>2019-07-08T08:20:57Z</time>
      </trkpt>
      <trkpt lat="44.75854" lon="5.0787">
        <ele>334.39999389648</ele>
        <time>2019-07-08T08:20:58Z</time>
      </trkpt>
      <trkpt lat="44.75853" lon="5.07866">
        <ele>334</ele>
        <time>2019-07-08T08:20:59Z</time>
      </trkpt>
      <trkpt lat="44.7585" lon="5.07862">
        <ele>333.60000610352</ele>
        <time>2019-07-08T08:21:00Z</time>
      </trkpt>
      <trkpt lat="44.75848" lon="5.07857">
        <ele>333</ele>
        <time>2019-07-08T08:21:01Z</time>
      </trkpt>
      <trkpt lat="44.75846" lon="5.07853">
        <ele>332.60000610352</ele>
        <time>2019-07-08T08:21:02Z</time>
      </trkpt>
      <trkpt lat="44.75838" lon="5.07843">
        <ele>332.20001220703</ele>
        <time>2019-07-08T08:21:04Z</time>
      </trkpt>
      <trkpt lat="44.75835" lon="5.07837">
        <ele>331.60000610352</ele>
        <time>2019-07-08T08:21:05Z</time>
      </trkpt>
      <trkpt lat="44.75831" lon="5.0783">
        <ele>331.20001220703</ele>
        <time>2019-07-08T08:21:06Z</time>
      </trkpt>
      <trkpt lat="44.75827" lon="5.07822">
        <ele>330.60000610352</ele>
        <time>2019-07-08T08:21:07Z</time>
      </trkpt>
      <trkpt lat="44.75822" lon="5.07814">
        <ele>330.20001220703</ele>
        <time>2019-07-08T08:21:08Z</time>
      </trkpt>
      <trkpt lat="44.75817" lon="5.07805">
        <ele>329.60000610352</ele>
        <time>2019-07-08T08:21:09Z</time>
      </trkpt>
      <trkpt lat="44.75813" lon="5.07798">
        <ele>329</ele>
        <time>2019-07-08T08:21:10Z</time>
      </trkpt>
      <trkpt lat="44.75809" lon="5.07791">
        <ele>328.39999389648</ele>
        <time>2019-07-08T08:21:11Z</time>
      </trkpt>
      <trkpt lat="44.75805" lon="5.07783">
        <ele>327.60000610352</ele>
        <time>2019-07-08T08:21:12Z</time>
      </trkpt>
      <trkpt lat="44.75801" lon="5.07778">
        <ele>326.79998779297</ele>
        <time>2019-07-08T08:21:13Z</time>
      </trkpt>
      <trkpt lat="44.75796" lon="5.07772">
        <ele>326</ele>
        <time>2019-07-08T08:21:14Z</time>
      </trkpt>
      <trkpt lat="44.75791" lon="5.07768">
        <ele>325.20001220703</ele>
        <time>2019-07-08T08:21:15Z</time>
      </trkpt>
      <trkpt lat="44.75789" lon="5.0776">
        <ele>323.39999389648</ele>
        <time>2019-07-08T08:21:16Z</time>
      </trkpt>
      <trkpt lat="44.7579" lon="5.07751">
        <ele>322.39999389648</ele>
        <time>2019-07-08T08:21:17Z</time>
      </trkpt>
      <trkpt lat="44.75792" lon="5.07741">
        <ele>321.60000610352</ele>
        <time>2019-07-08T08:21:18Z</time>
      </trkpt>
      <trkpt lat="44.75795" lon="5.07732">
        <ele>320.79998779297</ele>
        <time>2019-07-08T08:21:19Z</time>
      </trkpt>
      <trkpt lat="44.75797" lon="5.07721">
        <ele>320</ele>
        <time>2019-07-08T08:21:20Z</time>
      </trkpt>
      <trkpt lat="44.75799" lon="5.0771">
        <ele>319.39999389648</ele>
        <time>2019-07-08T08:21:21Z</time>
      </trkpt>
      <trkpt lat="44.75802" lon="5.07699">
        <ele>318.60000610352</ele>
        <time>2019-07-08T08:21:22Z</time>
      </trkpt>
      <trkpt lat="44.75804" lon="5.07688">
        <ele>318</ele>
        <time>2019-07-08T08:21:23Z</time>
      </trkpt>
      <trkpt lat="44.75806" lon="5.07677">
        <ele>317.39999389648</ele>
        <time>2019-07-08T08:21:24Z</time>
      </trkpt>
      <trkpt lat="44.75807" lon="5.07667">
        <ele>316.60000610352</ele>
        <time>2019-07-08T08:21:25Z</time>
      </trkpt>
      <trkpt lat="44.7581" lon="5.07663">
        <ele>316</ele>
        <time>2019-07-08T08:21:26Z</time>
      </trkpt>
      <trkpt lat="44.75813" lon="5.07661">
        <ele>315.39999389648</ele>
        <time>2019-07-08T08:21:27Z</time>
      </trkpt>
      <trkpt lat="44.75817" lon="5.07663">
        <ele>314.60000610352</ele>
        <time>2019-07-08T08:21:28Z</time>
      </trkpt>
      <trkpt lat="44.75822" lon="5.07665">
        <ele>314.20001220703</ele>
        <time>2019-07-08T08:21:29Z</time>
      </trkpt>
      <trkpt lat="44.75827" lon="5.07666">
        <ele>313.79998779297</ele>
        <time>2019-07-08T08:21:30Z</time>
      </trkpt>
      <trkpt lat="44.75832" lon="5.07667">
        <ele>313.39999389648</ele>
        <time>2019-07-08T08:21:31Z</time>
      </trkpt>
      <trkpt lat="44.75836" lon="5.07668">
        <ele>313</ele>
        <time>2019-07-08T08:21:32Z</time>
      </trkpt>
      <trkpt lat="44.75839" lon="5.07669">
        <ele>312.60000610352</ele>
        <time>2019-07-08T08:21:33Z</time>
      </trkpt>
      <trkpt lat="44.75842" lon="5.0767">
        <ele>312.60000610352</ele>
        <time>2019-07-08T08:21:34Z</time>
      </trkpt>
      <trkpt lat="44.75862" lon="5.07669">
        <ele>312.60000610352</ele>
        <time>2019-07-08T08:21:40Z</time>
      </trkpt>
      <trkpt lat="44.75866" lon="5.07664">
        <ele>312.60000610352</ele>
        <time>2019-07-08T08:21:42Z</time>
      </trkpt>
      <trkpt lat="44.75866" lon="5.0766">
        <ele>312.60000610352</ele>
        <time>2019-07-08T08:21:43Z</time>
      </trkpt>
      <trkpt lat="44.75861" lon="5.07646">
        <ele>312.60000610352</ele>
        <time>2019-07-08T08:21:47Z</time>
      </trkpt>
      <trkpt lat="44.75853" lon="5.07634">
        <ele>312.60000610352</ele>
        <time>2019-07-08T08:21:51Z</time>
      </trkpt>
      <trkpt lat="44.75851" lon="5.0763">
        <ele>312.60000610352</ele>
        <time>2019-07-08T08:21:52Z</time>
      </trkpt>
      <trkpt lat="44.75841" lon="5.07606">
        <ele>312.60000610352</ele>
        <time>2019-07-08T08:21:58Z</time>
      </trkpt>
      <trkpt lat="44.75833" lon="5.07581">
        <ele>312.60000610352</ele>
        <time>2019-07-08T08:22:04Z</time>
      </trkpt>
      <trkpt lat="44.7582" lon="5.07556">
        <ele>312.60000610352</ele>
        <time>2019-07-08T08:22:10Z</time>
      </trkpt>
      <trkpt lat="44.7581" lon="5.07544">
        <ele>313</ele>
        <time>2019-07-08T08:22:14Z</time>
      </trkpt>
      <trkpt lat="44.75808" lon="5.07543">
        <ele>313.39999389648</ele>
        <time>2019-07-08T08:22:15Z</time>
      </trkpt>
      <trkpt lat="44.75807" lon="5.07541">
        <ele>313.79998779297</ele>
        <time>2019-07-08T08:22:16Z</time>
      </trkpt>
      <trkpt lat="44.75806" lon="5.07539">
        <ele>314.39999389648</ele>
        <time>2019-07-08T08:22:17Z</time>
      </trkpt>
      <trkpt lat="44.75804" lon="5.07538">
        <ele>314.79998779297</ele>
        <time>2019-07-08T08:22:18Z</time>
      </trkpt>
      <trkpt lat="44.75794" lon="5.07533">
        <ele>314.79998779297</ele>
        <time>2019-07-08T08:22:21Z</time>
      </trkpt>
      <trkpt lat="44.75776" lon="5.07524">
        <ele>314.79998779297</ele>
        <time>2019-07-08T08:22:26Z</time>
      </trkpt>
      <trkpt lat="44.75738" lon="5.07501">
        <ele>314.79998779297</ele>
        <time>2019-07-08T08:22:35Z</time>
      </trkpt>
      <trkpt lat="44.75711" lon="5.0748">
        <ele>314.79998779297</ele>
        <time>2019-07-08T08:22:41Z</time>
      </trkpt>
      <trkpt lat="44.75682" lon="5.07459">
        <ele>314.39999389648</ele>
        <time>2019-07-08T08:22:47Z</time>
      </trkpt>
      <trkpt lat="44.75677" lon="5.07455">
        <ele>314</ele>
        <time>2019-07-08T08:22:48Z</time>
      </trkpt>
      <trkpt lat="44.75672" lon="5.07451">
        <ele>313.60000610352</ele>
        <time>2019-07-08T08:22:49Z</time>
      </trkpt>
      <trkpt lat="44.75667" lon="5.07447">
        <ele>313.20001220703</ele>
        <time>2019-07-08T08:22:50Z</time>
      </trkpt>
      <trkpt lat="44.75662" lon="5.07443">
        <ele>312.79998779297</ele>
        <time>2019-07-08T08:22:51Z</time>
      </trkpt>
      <trkpt lat="44.75636" lon="5.07426">
        <ele>312.79998779297</ele>
        <time>2019-07-08T08:22:56Z</time>
      </trkpt>
      <trkpt lat="44.75607" lon="5.07402">
        <ele>312.79998779297</ele>
        <time>2019-07-08T08:23:02Z</time>
      </trkpt>
      <trkpt lat="44.75577" lon="5.0738">
        <ele>312.20001220703</ele>
        <time>2019-07-08T08:23:08Z</time>
      </trkpt>
      <trkpt lat="44.75572" lon="5.07376">
        <ele>311.79998779297</ele>
        <time>2019-07-08T08:23:09Z</time>
      </trkpt>
      <trkpt lat="44.75568" lon="5.07371">
        <ele>311.39999389648</ele>
        <time>2019-07-08T08:23:10Z</time>
      </trkpt>
      <trkpt lat="44.75564" lon="5.07367">
        <ele>311</ele>
        <time>2019-07-08T08:23:11Z</time>
      </trkpt>
      <trkpt lat="44.7556" lon="5.07362">
        <ele>310.60000610352</ele>
        <time>2019-07-08T08:23:12Z</time>
      </trkpt>
      <trkpt lat="44.75551" lon="5.07354">
        <ele>310.60000610352</ele>
        <time>2019-07-08T08:23:14Z</time>
      </trkpt>
      <trkpt lat="44.75535" lon="5.07338">
        <ele>310.60000610352</ele>
        <time>2019-07-08T08:23:18Z</time>
      </trkpt>
      <trkpt lat="44.75526" lon="5.07325">
        <ele>310.60000610352</ele>
        <time>2019-07-08T08:23:21Z</time>
      </trkpt>
      <trkpt lat="44.75509" lon="5.07303">
        <ele>310.60000610352</ele>
        <time>2019-07-08T08:23:27Z</time>
      </trkpt>
      <trkpt lat="44.755" lon="5.07293">
        <ele>311</ele>
        <time>2019-07-08T08:23:30Z</time>
      </trkpt>
      <trkpt lat="44.75497" lon="5.07289">
        <ele>311.60000610352</ele>
        <time>2019-07-08T08:23:31Z</time>
      </trkpt>
      <trkpt lat="44.75494" lon="5.07286">
        <ele>312</ele>
        <time>2019-07-08T08:23:32Z</time>
      </trkpt>
      <trkpt lat="44.75491" lon="5.07283">
        <ele>312.39999389648</ele>
        <time>2019-07-08T08:23:33Z</time>
      </trkpt>
      <trkpt lat="44.75488" lon="5.07279">
        <ele>312.79998779297</ele>
        <time>2019-07-08T08:23:34Z</time>
      </trkpt>
      <trkpt lat="44.75468" lon="5.07256">
        <ele>312.79998779297</ele>
        <time>2019-07-08T08:23:41Z</time>
      </trkpt>
      <trkpt lat="44.75448" lon="5.07238">
        <ele>312.79998779297</ele>
        <time>2019-07-08T08:23:47Z</time>
      </trkpt>
      <trkpt lat="44.75429" lon="5.07216">
        <ele>313.20001220703</ele>
        <time>2019-07-08T08:23:53Z</time>
      </trkpt>
      <trkpt lat="44.75427" lon="5.07212">
        <ele>313.60000610352</ele>
        <time>2019-07-08T08:23:54Z</time>
      </trkpt>
      <trkpt lat="44.75424" lon="5.07208">
        <ele>314</ele>
        <time>2019-07-08T08:23:55Z</time>
      </trkpt>
      <trkpt lat="44.75422" lon="5.07204">
        <ele>314.39999389648</ele>
        <time>2019-07-08T08:23:56Z</time>
      </trkpt>
      <trkpt lat="44.75419" lon="5.07201">
        <ele>314.79998779297</ele>
        <time>2019-07-08T08:23:57Z</time>
      </trkpt>
      <trkpt lat="44.75408" lon="5.07184">
        <ele>314.79998779297</ele>
        <time>2019-07-08T08:24:02Z</time>
      </trkpt>
      <trkpt lat="44.754" lon="5.07171">
        <ele>315.20001220703</ele>
        <time>2019-07-08T08:24:07Z</time>
      </trkpt>
      <trkpt lat="44.75398" lon="5.07169">
        <ele>315.60000610352</ele>
        <time>2019-07-08T08:24:08Z</time>
      </trkpt>
      <trkpt lat="44.75396" lon="5.07167">
        <ele>316.39999389648</ele>
        <time>2019-07-08T08:24:09Z</time>
      </trkpt>
      <trkpt lat="44.75395" lon="5.07165">
        <ele>317</ele>
        <time>2019-07-08T08:24:10Z</time>
      </trkpt>
      <trkpt lat="44.75391" lon="5.07162">
        <ele>317</ele>
        <time>2019-07-08T08:24:12Z</time>
      </trkpt>
      <trkpt lat="44.7538" lon="5.07153">
        <ele>317</ele>
        <time>2019-07-08T08:24:18Z</time>
      </trkpt>
      <trkpt lat="44.75371" lon="5.07146">
        <ele>317.39999389648</ele>
        <time>2019-07-08T08:24:21Z</time>
      </trkpt>
      <trkpt lat="44.7537" lon="5.07143">
        <ele>317.79998779297</ele>
        <time>2019-07-08T08:24:22Z</time>
      </trkpt>
      <trkpt lat="44.75367" lon="5.07142">
        <ele>318.20001220703</ele>
        <time>2019-07-08T08:24:23Z</time>
      </trkpt>
      <trkpt lat="44.75364" lon="5.07139">
        <ele>318.60000610352</ele>
        <time>2019-07-08T08:24:24Z</time>
      </trkpt>
      <trkpt lat="44.75361" lon="5.07136">
        <ele>319</ele>
        <time>2019-07-08T08:24:25Z</time>
      </trkpt>
      <trkpt lat="44.75354" lon="5.0713">
        <ele>319</ele>
        <time>2019-07-08T08:24:28Z</time>
      </trkpt>
      <trkpt lat="44.75341" lon="5.07117">
        <ele>319.79998779297</ele>
        <time>2019-07-08T08:24:34Z</time>
      </trkpt>
      <trkpt lat="44.75338" lon="5.07115">
        <ele>320.20001220703</ele>
        <time>2019-07-08T08:24:35Z</time>
      </trkpt>
      <trkpt lat="44.75335" lon="5.07113">
        <ele>320.60000610352</ele>
        <time>2019-07-08T08:24:36Z</time>
      </trkpt>
      <trkpt lat="44.75333" lon="5.07111">
        <ele>321</ele>
        <time>2019-07-08T08:24:37Z</time>
      </trkpt>
      <trkpt lat="44.75318" lon="5.07099">
        <ele>321</ele>
        <time>2019-07-08T08:24:43Z</time>
      </trkpt>
      <trkpt lat="44.75313" lon="5.07094">
        <ele>321</ele>
        <time>2019-07-08T08:24:45Z</time>
      </trkpt>
      <trkpt lat="44.75308" lon="5.07091">
        <ele>321</ele>
        <time>2019-07-08T08:24:48Z</time>
      </trkpt>
      <trkpt lat="44.75301" lon="5.07085">
        <ele>321.39999389648</ele>
        <time>2019-07-08T08:24:52Z</time>
      </trkpt>
      <trkpt lat="44.75299" lon="5.07084">
        <ele>321.79998779297</ele>
        <time>2019-07-08T08:24:53Z</time>
      </trkpt>
      <trkpt lat="44.75298" lon="5.07082">
        <ele>322.20001220703</ele>
        <time>2019-07-08T08:24:54Z</time>
      </trkpt>
      <trkpt lat="44.75296" lon="5.07081">
        <ele>322.60000610352</ele>
        <time>2019-07-08T08:24:55Z</time>
      </trkpt>
      <trkpt lat="44.75295" lon="5.07079">
        <ele>323</ele>
        <time>2019-07-08T08:24:56Z</time>
      </trkpt>
      <trkpt lat="44.75289" lon="5.07073">
        <ele>323</ele>
        <time>2019-07-08T08:24:59Z</time>
      </trkpt>
      <trkpt lat="44.75269" lon="5.0706">
        <ele>323</ele>
        <time>2019-07-08T08:25:06Z</time>
      </trkpt>
      <trkpt lat="44.75253" lon="5.07046">
        <ele>323</ele>
        <time>2019-07-08T08:25:13Z</time>
      </trkpt>
      <trkpt lat="44.75251" lon="5.07044">
        <ele>323.39999389648</ele>
        <time>2019-07-08T08:25:14Z</time>
      </trkpt>
      <trkpt lat="44.75249" lon="5.07042">
        <ele>323.79998779297</ele>
        <time>2019-07-08T08:25:15Z</time>
      </trkpt>
      <trkpt lat="44.75246" lon="5.0704">
        <ele>324.20001220703</ele>
        <time>2019-07-08T08:25:16Z</time>
      </trkpt>
      <trkpt lat="44.75244" lon="5.07039">
        <ele>324.60000610352</ele>
        <time>2019-07-08T08:25:17Z</time>
      </trkpt>
      <trkpt lat="44.75242" lon="5.07037">
        <ele>325</ele>
        <time>2019-07-08T08:25:18Z</time>
      </trkpt>
      <trkpt lat="44.75238" lon="5.07033">
        <ele>325</ele>
        <time>2019-07-08T08:25:20Z</time>
      </trkpt>
      <trkpt lat="44.7523" lon="5.07027">
        <ele>325</ele>
        <time>2019-07-08T08:25:25Z</time>
      </trkpt>
      <trkpt lat="44.7523" lon="5.07027">
        <ele>325</ele>
        <time>2019-07-08T08:25:32Z</time>
      </trkpt>
      <trkpt lat="44.75228" lon="5.07027">
        <ele>325</ele>
        <time>2019-07-08T08:25:39Z</time>
      </trkpt>
      <trkpt lat="44.75225" lon="5.07023">
        <ele>325</ele>
        <time>2019-07-08T08:25:48Z</time>
      </trkpt>
      <trkpt lat="44.75215" lon="5.07014">
        <ele>325</ele>
        <time>2019-07-08T08:25:53Z</time>
      </trkpt>
      <trkpt lat="44.75204" lon="5.07005">
        <ele>325.39999389648</ele>
        <time>2019-07-08T08:25:58Z</time>
      </trkpt>
      <trkpt lat="44.75201" lon="5.07003">
        <ele>325.79998779297</ele>
        <time>2019-07-08T08:25:59Z</time>
      </trkpt>
      <trkpt lat="44.75198" lon="5.07002">
        <ele>326.39999389648</ele>
        <time>2019-07-08T08:26:00Z</time>
      </trkpt>
      <trkpt lat="44.75196" lon="5.07001">
        <ele>326.79998779297</ele>
        <time>2019-07-08T08:26:01Z</time>
      </trkpt>
      <trkpt lat="44.75194" lon="5.06999">
        <ele>327.20001220703</ele>
        <time>2019-07-08T08:26:02Z</time>
      </trkpt>
      <trkpt lat="44.75189" lon="5.06995">
        <ele>327.20001220703</ele>
        <time>2019-07-08T08:26:04Z</time>
      </trkpt>
      <trkpt lat="44.75179" lon="5.06981">
        <ele>327.20001220703</ele>
        <time>2019-07-08T08:26:09Z</time>
      </trkpt>
      <trkpt lat="44.75178" lon="5.0697">
        <ele>327.20001220703</ele>
        <time>2019-07-08T08:26:12Z</time>
      </trkpt>
      <trkpt lat="44.7518" lon="5.06965">
        <ele>327.20001220703</ele>
        <time>2019-07-08T08:26:14Z</time>
      </trkpt>
      <trkpt lat="44.75184" lon="5.06961">
        <ele>327.20001220703</ele>
        <time>2019-07-08T08:26:16Z</time>
      </trkpt>
      <trkpt lat="44.75194" lon="5.06949">
        <ele>327.20001220703</ele>
        <time>2019-07-08T08:26:20Z</time>
      </trkpt>
      <trkpt lat="44.75208" lon="5.06931">
        <ele>327.20001220703</ele>
        <time>2019-07-08T08:26:26Z</time>
      </trkpt>
      <trkpt lat="44.75225" lon="5.0691">
        <ele>327.60000610352</ele>
        <time>2019-07-08T08:26:33Z</time>
      </trkpt>
      <trkpt lat="44.75227" lon="5.06907">
        <ele>328</ele>
        <time>2019-07-08T08:26:34Z</time>
      </trkpt>
      <trkpt lat="44.7523" lon="5.06903">
        <ele>328.39999389648</ele>
        <time>2019-07-08T08:26:35Z</time>
      </trkpt>
      <trkpt lat="44.75231" lon="5.06899">
        <ele>328.79998779297</ele>
        <time>2019-07-08T08:26:36Z</time>
      </trkpt>
      <trkpt lat="44.75233" lon="5.06895">
        <ele>329.20001220703</ele>
        <time>2019-07-08T08:26:37Z</time>
      </trkpt>
      <trkpt lat="44.75236" lon="5.06888">
        <ele>329.20001220703</ele>
        <time>2019-07-08T08:26:39Z</time>
      </trkpt>
      <trkpt lat="44.7525" lon="5.06869">
        <ele>329.20001220703</ele>
        <time>2019-07-08T08:26:45Z</time>
      </trkpt>
      <trkpt lat="44.75261" lon="5.0685">
        <ele>329.20001220703</ele>
        <time>2019-07-08T08:26:50Z</time>
      </trkpt>
      <trkpt lat="44.75273" lon="5.06831">
        <ele>329.20001220703</ele>
        <time>2019-07-08T08:26:55Z</time>
      </trkpt>
      <trkpt lat="44.75278" lon="5.06824">
        <ele>329.60000610352</ele>
        <time>2019-07-08T08:26:57Z</time>
      </trkpt>
      <trkpt lat="44.7528" lon="5.0682">
        <ele>330</ele>
        <time>2019-07-08T08:26:58Z</time>
      </trkpt>
      <trkpt lat="44.75282" lon="5.06817">
        <ele>330.39999389648</ele>
        <time>2019-07-08T08:26:59Z</time>
      </trkpt>
      <trkpt lat="44.75285" lon="5.06814">
        <ele>330.79998779297</ele>
        <time>2019-07-08T08:27:00Z</time>
      </trkpt>
      <trkpt lat="44.75288" lon="5.06811">
        <ele>331.20001220703</ele>
        <time>2019-07-08T08:27:01Z</time>
      </trkpt>
      <trkpt lat="44.75296" lon="5.06799">
        <ele>331.20001220703</ele>
        <time>2019-07-08T08:27:04Z</time>
      </trkpt>
      <trkpt lat="44.75303" lon="5.06774">
        <ele>331.20001220703</ele>
        <time>2019-07-08T08:27:09Z</time>
      </trkpt>
      <trkpt lat="44.75299" lon="5.06767">
        <ele>331.20001220703</ele>
        <time>2019-07-08T08:27:12Z</time>
      </trkpt>
      <trkpt lat="44.75288" lon="5.06764">
        <ele>331.20001220703</ele>
        <time>2019-07-08T08:27:16Z</time>
      </trkpt>
      <trkpt lat="44.75278" lon="5.06762">
        <ele>331.60000610352</ele>
        <time>2019-07-08T08:27:20Z</time>
      </trkpt>
      <trkpt lat="44.75277" lon="5.06762">
        <ele>332</ele>
        <time>2019-07-08T08:27:21Z</time>
      </trkpt>
      <trkpt lat="44.75277" lon="5.06763">
        <ele>332.39999389648</ele>
        <time>2019-07-08T08:27:22Z</time>
      </trkpt>
      <trkpt lat="44.75275" lon="5.06764">
        <ele>332.79998779297</ele>
        <time>2019-07-08T08:27:23Z</time>
      </trkpt>
      <trkpt lat="44.75272" lon="5.06765">
        <ele>333.20001220703</ele>
        <time>2019-07-08T08:27:24Z</time>
      </trkpt>
      <trkpt lat="44.75266" lon="5.06767">
        <ele>333.20001220703</ele>
        <time>2019-07-08T08:27:26Z</time>
      </trkpt>
      <trkpt lat="44.75252" lon="5.06772">
        <ele>333.20001220703</ele>
        <time>2019-07-08T08:27:31Z</time>
      </trkpt>
      <trkpt lat="44.75229" lon="5.06778">
        <ele>333.20001220703</ele>
        <time>2019-07-08T08:27:37Z</time>
      </trkpt>
      <trkpt lat="44.75212" lon="5.06785">
        <ele>333.20001220703</ele>
        <time>2019-07-08T08:27:42Z</time>
      </trkpt>
      <trkpt lat="44.7519" lon="5.06789">
        <ele>333.60000610352</ele>
        <time>2019-07-08T08:27:47Z</time>
      </trkpt>
      <trkpt lat="44.75184" lon="5.0679">
        <ele>334</ele>
        <time>2019-07-08T08:27:48Z</time>
      </trkpt>
      <trkpt lat="44.7518" lon="5.0679">
        <ele>334.39999389648</ele>
        <time>2019-07-08T08:27:49Z</time>
      </trkpt>
      <trkpt lat="44.75175" lon="5.06791">
        <ele>334.79998779297</ele>
        <time>2019-07-08T08:27:50Z</time>
      </trkpt>
      <trkpt lat="44.75169" lon="5.06793">
        <ele>335.20001220703</ele>
        <time>2019-07-08T08:27:51Z</time>
      </trkpt>
      <trkpt lat="44.75164" lon="5.06795">
        <ele>335.20001220703</ele>
        <time>2019-07-08T08:27:52Z</time>
      </trkpt>
      <trkpt lat="44.75148" lon="5.06798">
        <ele>335.20001220703</ele>
        <time>2019-07-08T08:27:55Z</time>
      </trkpt>
      <trkpt lat="44.75121" lon="5.06798">
        <ele>335.20001220703</ele>
        <time>2019-07-08T08:28:01Z</time>
      </trkpt>
      <trkpt lat="44.75099" lon="5.06785">
        <ele>335.20001220703</ele>
        <time>2019-07-08T08:28:07Z</time>
      </trkpt>
      <trkpt lat="44.75089" lon="5.06766">
        <ele>335.20001220703</ele>
        <time>2019-07-08T08:28:12Z</time>
      </trkpt>
      <trkpt lat="44.75086" lon="5.06752">
        <ele>335.60000610352</ele>
        <time>2019-07-08T08:28:15Z</time>
      </trkpt>
      <trkpt lat="44.75084" lon="5.06748">
        <ele>336.39999389648</ele>
        <time>2019-07-08T08:28:16Z</time>
      </trkpt>
      <trkpt lat="44.75083" lon="5.06743">
        <ele>336.79998779297</ele>
        <time>2019-07-08T08:28:17Z</time>
      </trkpt>
      <trkpt lat="44.75083" lon="5.06738">
        <ele>337.20001220703</ele>
        <time>2019-07-08T08:28:18Z</time>
      </trkpt>
      <trkpt lat="44.75082" lon="5.06733">
        <ele>337.20001220703</ele>
        <time>2019-07-08T08:28:19Z</time>
      </trkpt>
      <trkpt lat="44.75084" lon="5.06686">
        <ele>337.20001220703</ele>
        <time>2019-07-08T08:28:28Z</time>
      </trkpt>
      <trkpt lat="44.75081" lon="5.06661">
        <ele>337.20001220703</ele>
        <time>2019-07-08T08:28:33Z</time>
      </trkpt>
      <trkpt lat="44.75072" lon="5.06642">
        <ele>337.20001220703</ele>
        <time>2019-07-08T08:28:38Z</time>
      </trkpt>
      <trkpt lat="44.75053" lon="5.0663">
        <ele>337.20001220703</ele>
        <time>2019-07-08T08:28:43Z</time>
      </trkpt>
      <trkpt lat="44.75045" lon="5.06628">
        <ele>337.60000610352</ele>
        <time>2019-07-08T08:28:45Z</time>
      </trkpt>
      <trkpt lat="44.75041" lon="5.06627">
        <ele>338.20001220703</ele>
        <time>2019-07-08T08:28:46Z</time>
      </trkpt>
      <trkpt lat="44.75037" lon="5.06626">
        <ele>338.60000610352</ele>
        <time>2019-07-08T08:28:47Z</time>
      </trkpt>
      <trkpt lat="44.75033" lon="5.06625">
        <ele>339</ele>
        <time>2019-07-08T08:28:48Z</time>
      </trkpt>
      <trkpt lat="44.75028" lon="5.06624">
        <ele>339.39999389648</ele>
        <time>2019-07-08T08:28:49Z</time>
      </trkpt>
      <trkpt lat="44.75002" lon="5.06621">
        <ele>339.39999389648</ele>
        <time>2019-07-08T08:28:56Z</time>
      </trkpt>
      <trkpt lat="44.74972" lon="5.0662">
        <ele>339.39999389648</ele>
        <time>2019-07-08T08:29:04Z</time>
      </trkpt>
      <trkpt lat="44.74953" lon="5.06618">
        <ele>339.39999389648</ele>
        <time>2019-07-08T08:29:09Z</time>
      </trkpt>
      <trkpt lat="44.74942" lon="5.06615">
        <ele>339.79998779297</ele>
        <time>2019-07-08T08:29:12Z</time>
      </trkpt>
      <trkpt lat="44.74939" lon="5.06613">
        <ele>340.20001220703</ele>
        <time>2019-07-08T08:29:13Z</time>
      </trkpt>
      <trkpt lat="44.74936" lon="5.06611">
        <ele>340.60000610352</ele>
        <time>2019-07-08T08:29:14Z</time>
      </trkpt>
      <trkpt lat="44.74933" lon="5.06608">
        <ele>341</ele>
        <time>2019-07-08T08:29:15Z</time>
      </trkpt>
      <trkpt lat="44.7493" lon="5.06606">
        <ele>341.39999389648</ele>
        <time>2019-07-08T08:29:16Z</time>
      </trkpt>
      <trkpt lat="44.74911" lon="5.06587">
        <ele>341.39999389648</ele>
        <time>2019-07-08T08:29:23Z</time>
      </trkpt>
      <trkpt lat="44.74893" lon="5.0656">
        <ele>341.39999389648</ele>
        <time>2019-07-08T08:29:30Z</time>
      </trkpt>
      <trkpt lat="44.74874" lon="5.06527">
        <ele>341.39999389648</ele>
        <time>2019-07-08T08:29:38Z</time>
      </trkpt>
      <trkpt lat="44.74868" lon="5.06516">
        <ele>341.79998779297</ele>
        <time>2019-07-08T08:29:41Z</time>
      </trkpt>
      <trkpt lat="44.74865" lon="5.06512">
        <ele>342.20001220703</ele>
        <time>2019-07-08T08:29:42Z</time>
      </trkpt>
      <trkpt lat="44.74864" lon="5.06507">
        <ele>342.60000610352</ele>
        <time>2019-07-08T08:29:43Z</time>
      </trkpt>
      <trkpt lat="44.74862" lon="5.06503">
        <ele>343</ele>
        <time>2019-07-08T08:29:44Z</time>
      </trkpt>
      <trkpt lat="44.7486" lon="5.06499">
        <ele>343.39999389648</ele>
        <time>2019-07-08T08:29:45Z</time>
      </trkpt>
      <trkpt lat="44.74848" lon="5.06474">
        <ele>343.39999389648</ele>
        <time>2019-07-08T08:29:51Z</time>
      </trkpt>
      <trkpt lat="44.74836" lon="5.06454">
        <ele>343.39999389648</ele>
        <time>2019-07-08T08:29:56Z</time>
      </trkpt>
      <trkpt lat="44.74822" lon="5.06439">
        <ele>343.39999389648</ele>
        <time>2019-07-08T08:30:01Z</time>
      </trkpt>
      <trkpt lat="44.74802" lon="5.0643">
        <ele>343.39999389648</ele>
        <time>2019-07-08T08:30:07Z</time>
      </trkpt>
      <trkpt lat="44.74783" lon="5.06419">
        <ele>343.39999389648</ele>
        <time>2019-07-08T08:30:13Z</time>
      </trkpt>
      <trkpt lat="44.74769" lon="5.06411">
        <ele>343.39999389648</ele>
        <time>2019-07-08T08:30:18Z</time>
      </trkpt>
      <trkpt lat="44.74754" lon="5.06397">
        <ele>343.39999389648</ele>
        <time>2019-07-08T08:30:24Z</time>
      </trkpt>
      <trkpt lat="44.74742" lon="5.06395">
        <ele>343.39999389648</ele>
        <time>2019-07-08T08:30:29Z</time>
      </trkpt>
      <trkpt lat="44.74725" lon="5.0639">
        <ele>343.39999389648</ele>
        <time>2019-07-08T08:30:34Z</time>
      </trkpt>
      <trkpt lat="44.74711" lon="5.06389">
        <ele>343.39999389648</ele>
        <time>2019-07-08T08:30:39Z</time>
      </trkpt>
      <trkpt lat="44.7471" lon="5.06389">
        <ele>343.39999389648</ele>
        <time>2019-07-08T08:30:43Z</time>
      </trkpt>
      <trkpt lat="44.74714" lon="5.0639">
        <ele>343.39999389648</ele>
        <time>2019-07-08T08:30:48Z</time>
      </trkpt>
      <trkpt lat="44.74724" lon="5.0639">
        <ele>343.39999389648</ele>
        <time>2019-07-08T08:30:56Z</time>
      </trkpt>
      <trkpt lat="44.74725" lon="5.06387">
        <ele>343.39999389648</ele>
        <time>2019-07-08T08:30:57Z</time>
      </trkpt>
      <trkpt lat="44.74724" lon="5.06384">
        <ele>343.39999389648</ele>
        <time>2019-07-08T08:31:00Z</time>
      </trkpt>
      <trkpt lat="44.74722" lon="5.06382">
        <ele>343.39999389648</ele>
        <time>2019-07-08T08:31:06Z</time>
      </trkpt>
      <trkpt lat="44.74722" lon="5.0638">
        <ele>343.39999389648</ele>
        <time>2019-07-08T08:31:10Z</time>
      </trkpt>
      <trkpt lat="44.74722" lon="5.0638">
        <ele>343.39999389648</ele>
        <time>2019-07-08T08:31:17Z</time>
      </trkpt>
      <trkpt lat="44.74721" lon="5.06378">
        <ele>343.39999389648</ele>
        <time>2019-07-08T08:31:24Z</time>
      </trkpt>
      <trkpt lat="44.7472" lon="5.06376">
        <ele>343.39999389648</ele>
        <time>2019-07-08T08:31:25Z</time>
      </trkpt>
      <trkpt lat="44.74718" lon="5.06371">
        <ele>343.39999389648</ele>
        <time>2019-07-08T08:31:28Z</time>
      </trkpt>
      <trkpt lat="44.74716" lon="5.0637">
        <ele>343.39999389648</ele>
        <time>2019-07-08T08:31:30Z</time>
      </trkpt>
      <trkpt lat="44.74715" lon="5.06365">
        <ele>343.39999389648</ele>
        <time>2019-07-08T08:31:34Z</time>
      </trkpt>
      <trkpt lat="44.74714" lon="5.06362">
        <ele>343</ele>
        <time>2019-07-08T08:31:35Z</time>
      </trkpt>
      <trkpt lat="44.74713" lon="5.0636">
        <ele>342.60000610352</ele>
        <time>2019-07-08T08:31:36Z</time>
      </trkpt>
      <trkpt lat="44.7471" lon="5.0636">
        <ele>342</ele>
        <time>2019-07-08T08:31:37Z</time>
      </trkpt>
      <trkpt lat="44.74707" lon="5.06358">
        <ele>341.60000610352</ele>
        <time>2019-07-08T08:31:38Z</time>
      </trkpt>
      <trkpt lat="44.74704" lon="5.06355">
        <ele>341.20001220703</ele>
        <time>2019-07-08T08:31:39Z</time>
      </trkpt>
      <trkpt lat="44.74702" lon="5.06351">
        <ele>340.79998779297</ele>
        <time>2019-07-08T08:31:40Z</time>
      </trkpt>
      <trkpt lat="44.747" lon="5.06348">
        <ele>340.39999389648</ele>
        <time>2019-07-08T08:31:41Z</time>
      </trkpt>
      <trkpt lat="44.74696" lon="5.06345">
        <ele>340</ele>
        <time>2019-07-08T08:31:42Z</time>
      </trkpt>
      <trkpt lat="44.74692" lon="5.06341">
        <ele>339.60000610352</ele>
        <time>2019-07-08T08:31:43Z</time>
      </trkpt>
      <trkpt lat="44.74687" lon="5.06339">
        <ele>339</ele>
        <time>2019-07-08T08:31:44Z</time>
      </trkpt>
      <trkpt lat="44.74684" lon="5.06338">
        <ele>338.60000610352</ele>
        <time>2019-07-08T08:31:45Z</time>
      </trkpt>
      <trkpt lat="44.7468" lon="5.06338">
        <ele>338</ele>
        <time>2019-07-08T08:31:46Z</time>
      </trkpt>
      <trkpt lat="44.74677" lon="5.06337">
        <ele>337.60000610352</ele>
        <time>2019-07-08T08:31:47Z</time>
      </trkpt>
      <trkpt lat="44.74673" lon="5.06335">
        <ele>337</ele>
        <time>2019-07-08T08:31:48Z</time>
      </trkpt>
      <trkpt lat="44.74671" lon="5.0633">
        <ele>337</ele>
        <time>2019-07-08T08:31:49Z</time>
      </trkpt>
      <trkpt lat="44.74669" lon="5.06327">
        <ele>336.60000610352</ele>
        <time>2019-07-08T08:31:50Z</time>
      </trkpt>
      <trkpt lat="44.74665" lon="5.06323">
        <ele>336.20001220703</ele>
        <time>2019-07-08T08:31:51Z</time>
      </trkpt>
      <trkpt lat="44.74662" lon="5.06319">
        <ele>335.79998779297</ele>
        <time>2019-07-08T08:31:52Z</time>
      </trkpt>
      <trkpt lat="44.74659" lon="5.06315">
        <ele>335.39999389648</ele>
        <time>2019-07-08T08:31:53Z</time>
      </trkpt>
      <trkpt lat="44.74657" lon="5.06313">
        <ele>334.79998779297</ele>
        <time>2019-07-08T08:31:54Z</time>
      </trkpt>
      <trkpt lat="44.74654" lon="5.06308">
        <ele>334.20001220703</ele>
        <time>2019-07-08T08:31:55Z</time>
      </trkpt>
      <trkpt lat="44.74652" lon="5.06305">
        <ele>333.60000610352</ele>
        <time>2019-07-08T08:31:56Z</time>
      </trkpt>
      <trkpt lat="44.74649" lon="5.06302">
        <ele>333</ele>
        <time>2019-07-08T08:31:57Z</time>
      </trkpt>
      <trkpt lat="44.74646" lon="5.06299">
        <ele>332.20001220703</ele>
        <time>2019-07-08T08:31:58Z</time>
      </trkpt>
      <trkpt lat="44.74643" lon="5.06297">
        <ele>331.79998779297</ele>
        <time>2019-07-08T08:31:59Z</time>
      </trkpt>
      <trkpt lat="44.74639" lon="5.06294">
        <ele>331.39999389648</ele>
        <time>2019-07-08T08:32:00Z</time>
      </trkpt>
      <trkpt lat="44.74636" lon="5.06291">
        <ele>331</ele>
        <time>2019-07-08T08:32:01Z</time>
      </trkpt>
      <trkpt lat="44.74633" lon="5.06287">
        <ele>330.39999389648</ele>
        <time>2019-07-08T08:32:02Z</time>
      </trkpt>
      <trkpt lat="44.74629" lon="5.06284">
        <ele>330</ele>
        <time>2019-07-08T08:32:03Z</time>
      </trkpt>
      <trkpt lat="44.74624" lon="5.0628">
        <ele>329.39999389648</ele>
        <time>2019-07-08T08:32:04Z</time>
      </trkpt>
      <trkpt lat="44.7462" lon="5.06276">
        <ele>328.79998779297</ele>
        <time>2019-07-08T08:32:05Z</time>
      </trkpt>
      <trkpt lat="44.74617" lon="5.06272">
        <ele>328.39999389648</ele>
        <time>2019-07-08T08:32:06Z</time>
      </trkpt>
      <trkpt lat="44.74613" lon="5.0627">
        <ele>327.79998779297</ele>
        <time>2019-07-08T08:32:07Z</time>
      </trkpt>
      <trkpt lat="44.74611" lon="5.06267">
        <ele>327.39999389648</ele>
        <time>2019-07-08T08:32:08Z</time>
      </trkpt>
      <trkpt lat="44.74609" lon="5.06264">
        <ele>326.79998779297</ele>
        <time>2019-07-08T08:32:09Z</time>
      </trkpt>
      <trkpt lat="44.74606" lon="5.0626">
        <ele>326.39999389648</ele>
        <time>2019-07-08T08:32:10Z</time>
      </trkpt>
      <trkpt lat="44.74603" lon="5.06257">
        <ele>325.79998779297</ele>
        <time>2019-07-08T08:32:11Z</time>
      </trkpt>
      <trkpt lat="44.74601" lon="5.06254">
        <ele>325.39999389648</ele>
        <time>2019-07-08T08:32:12Z</time>
      </trkpt>
      <trkpt lat="44.74597" lon="5.06251">
        <ele>325</ele>
        <time>2019-07-08T08:32:13Z</time>
      </trkpt>
      <trkpt lat="44.74588" lon="5.06247">
        <ele>324.39999389648</ele>
        <time>2019-07-08T08:32:14Z</time>
      </trkpt>
      <trkpt lat="44.74586" lon="5.06246">
        <ele>324</ele>
        <time>2019-07-08T08:32:15Z</time>
      </trkpt>
      <trkpt lat="44.74585" lon="5.06244">
        <ele>323.60000610352</ele>
        <time>2019-07-08T08:32:16Z</time>
      </trkpt>
      <trkpt lat="44.74581" lon="5.06239">
        <ele>323.20001220703</ele>
        <time>2019-07-08T08:32:18Z</time>
      </trkpt>
      <trkpt lat="44.7458" lon="5.06236">
        <ele>322.79998779297</ele>
        <time>2019-07-08T08:32:19Z</time>
      </trkpt>
      <trkpt lat="44.74579" lon="5.06234">
        <ele>322.39999389648</ele>
        <time>2019-07-08T08:32:20Z</time>
      </trkpt>
      <trkpt lat="44.74578" lon="5.0623">
        <ele>322</ele>
        <time>2019-07-08T08:32:21Z</time>
      </trkpt>
      <trkpt lat="44.74575" lon="5.06228">
        <ele>321.60000610352</ele>
        <time>2019-07-08T08:32:22Z</time>
      </trkpt>
      <trkpt lat="44.74571" lon="5.06224">
        <ele>320.60000610352</ele>
        <time>2019-07-08T08:32:23Z</time>
      </trkpt>
      <trkpt lat="44.74569" lon="5.06222">
        <ele>320.20001220703</ele>
        <time>2019-07-08T08:32:24Z</time>
      </trkpt>
      <trkpt lat="44.74569" lon="5.06219">
        <ele>319.79998779297</ele>
        <time>2019-07-08T08:32:25Z</time>
      </trkpt>
      <trkpt lat="44.74569" lon="5.06217">
        <ele>319.20001220703</ele>
        <time>2019-07-08T08:32:26Z</time>
      </trkpt>
      <trkpt lat="44.74568" lon="5.06215">
        <ele>318.60000610352</ele>
        <time>2019-07-08T08:32:27Z</time>
      </trkpt>
      <trkpt lat="44.74566" lon="5.06212">
        <ele>318.20001220703</ele>
        <time>2019-07-08T08:32:28Z</time>
      </trkpt>
      <trkpt lat="44.74564" lon="5.06207">
        <ele>317.60000610352</ele>
        <time>2019-07-08T08:32:29Z</time>
      </trkpt>
      <trkpt lat="44.74563" lon="5.06203">
        <ele>317</ele>
        <time>2019-07-08T08:32:30Z</time>
      </trkpt>
      <trkpt lat="44.74559" lon="5.062">
        <ele>316.60000610352</ele>
        <time>2019-07-08T08:32:31Z</time>
      </trkpt>
      <trkpt lat="44.74554" lon="5.06197">
        <ele>316.20001220703</ele>
        <time>2019-07-08T08:32:32Z</time>
      </trkpt>
      <trkpt lat="44.74551" lon="5.06194">
        <ele>315.79998779297</ele>
        <time>2019-07-08T08:32:33Z</time>
      </trkpt>
      <trkpt lat="44.74549" lon="5.06193">
        <ele>315.39999389648</ele>
        <time>2019-07-08T08:32:34Z</time>
      </trkpt>
      <trkpt lat="44.74547" lon="5.06189">
        <ele>315</ele>
        <time>2019-07-08T08:32:35Z</time>
      </trkpt>
      <trkpt lat="44.74544" lon="5.06187">
        <ele>314.60000610352</ele>
        <time>2019-07-08T08:32:36Z</time>
      </trkpt>
      <trkpt lat="44.74543" lon="5.06183">
        <ele>314.20001220703</ele>
        <time>2019-07-08T08:32:37Z</time>
      </trkpt>
      <trkpt lat="44.74539" lon="5.0618">
        <ele>313.79998779297</ele>
        <time>2019-07-08T08:32:38Z</time>
      </trkpt>
      <trkpt lat="44.74535" lon="5.06177">
        <ele>313.39999389648</ele>
        <time>2019-07-08T08:32:39Z</time>
      </trkpt>
      <trkpt lat="44.7453" lon="5.06176">
        <ele>313</ele>
        <time>2019-07-08T08:32:40Z</time>
      </trkpt>
      <trkpt lat="44.74528" lon="5.06176">
        <ele>313</ele>
        <time>2019-07-08T08:32:41Z</time>
      </trkpt>
      <trkpt lat="44.7452" lon="5.06176">
        <ele>313</ele>
        <time>2019-07-08T08:32:48Z</time>
      </trkpt>
      <trkpt lat="44.74518" lon="5.06171">
        <ele>312.60000610352</ele>
        <time>2019-07-08T08:32:53Z</time>
      </trkpt>
      <trkpt lat="44.74513" lon="5.0617">
        <ele>312</ele>
        <time>2019-07-08T08:32:54Z</time>
      </trkpt>
      <trkpt lat="44.7451" lon="5.06167">
        <ele>311.60000610352</ele>
        <time>2019-07-08T08:32:55Z</time>
      </trkpt>
      <trkpt lat="44.74509" lon="5.06164">
        <ele>311.20001220703</ele>
        <time>2019-07-08T08:32:56Z</time>
      </trkpt>
      <trkpt lat="44.74507" lon="5.06161">
        <ele>310.79998779297</ele>
        <time>2019-07-08T08:32:57Z</time>
      </trkpt>
      <trkpt lat="44.74504" lon="5.06157">
        <ele>310.79998779297</ele>
        <time>2019-07-08T08:32:59Z</time>
      </trkpt>
      <trkpt lat="44.74503" lon="5.06155">
        <ele>310.79998779297</ele>
        <time>2019-07-08T08:33:00Z</time>
      </trkpt>
      <trkpt lat="44.74502" lon="5.06152">
        <ele>310.39999389648</ele>
        <time>2019-07-08T08:33:01Z</time>
      </trkpt>
      <trkpt lat="44.745" lon="5.06149">
        <ele>309.79998779297</ele>
        <time>2019-07-08T08:33:02Z</time>
      </trkpt>
      <trkpt lat="44.74497" lon="5.06145">
        <ele>309.39999389648</ele>
        <time>2019-07-08T08:33:03Z</time>
      </trkpt>
      <trkpt lat="44.74494" lon="5.0614">
        <ele>308.79998779297</ele>
        <time>2019-07-08T08:33:04Z</time>
      </trkpt>
      <trkpt lat="44.7449" lon="5.06136">
        <ele>308.39999389648</ele>
        <time>2019-07-08T08:33:05Z</time>
      </trkpt>
      <trkpt lat="44.74487" lon="5.06131">
        <ele>308</ele>
        <time>2019-07-08T08:33:06Z</time>
      </trkpt>
      <trkpt lat="44.74485" lon="5.06127">
        <ele>307.39999389648</ele>
        <time>2019-07-08T08:33:07Z</time>
      </trkpt>
      <trkpt lat="44.74481" lon="5.06122">
        <ele>307</ele>
        <time>2019-07-08T08:33:08Z</time>
      </trkpt>
      <trkpt lat="44.74478" lon="5.06119">
        <ele>306.60000610352</ele>
        <time>2019-07-08T08:33:09Z</time>
      </trkpt>
      <trkpt lat="44.74474" lon="5.06117">
        <ele>306</ele>
        <time>2019-07-08T08:33:10Z</time>
      </trkpt>
      <trkpt lat="44.74467" lon="5.06111">
        <ele>305.20001220703</ele>
        <time>2019-07-08T08:33:12Z</time>
      </trkpt>
      <trkpt lat="44.74464" lon="5.06111">
        <ele>304.79998779297</ele>
        <time>2019-07-08T08:33:13Z</time>
      </trkpt>
      <trkpt lat="44.7446" lon="5.0611">
        <ele>304.39999389648</ele>
        <time>2019-07-08T08:33:14Z</time>
      </trkpt>
      <trkpt lat="44.74457" lon="5.06108">
        <ele>303.60000610352</ele>
        <time>2019-07-08T08:33:15Z</time>
      </trkpt>
      <trkpt lat="44.74455" lon="5.06106">
        <ele>303</ele>
        <time>2019-07-08T08:33:16Z</time>
      </trkpt>
      <trkpt lat="44.74454" lon="5.06106">
        <ele>302.39999389648</ele>
        <time>2019-07-08T08:33:17Z</time>
      </trkpt>
      <trkpt lat="44.74454" lon="5.06106">
        <ele>301.79998779297</ele>
        <time>2019-07-08T08:33:18Z</time>
      </trkpt>
      <trkpt lat="44.74454" lon="5.06105">
        <ele>301.20001220703</ele>
        <time>2019-07-08T08:33:19Z</time>
      </trkpt>
      <trkpt lat="44.74453" lon="5.06103">
        <ele>300.60000610352</ele>
        <time>2019-07-08T08:33:20Z</time>
      </trkpt>
      <trkpt lat="44.74452" lon="5.061">
        <ele>300</ele>
        <time>2019-07-08T08:33:21Z</time>
      </trkpt>
      <trkpt lat="44.74452" lon="5.06097">
        <ele>299.39999389648</ele>
        <time>2019-07-08T08:33:22Z</time>
      </trkpt>
      <trkpt lat="44.7445" lon="5.06094">
        <ele>298.60000610352</ele>
        <time>2019-07-08T08:33:23Z</time>
      </trkpt>
      <trkpt lat="44.74448" lon="5.06091">
        <ele>298.60000610352</ele>
        <time>2019-07-08T08:33:24Z</time>
      </trkpt>
      <trkpt lat="44.74439" lon="5.06083">
        <ele>298.60000610352</ele>
        <time>2019-07-08T08:33:27Z</time>
      </trkpt>
      <trkpt lat="44.74437" lon="5.06078">
        <ele>298.60000610352</ele>
        <time>2019-07-08T08:33:29Z</time>
      </trkpt>
      <trkpt lat="44.74432" lon="5.0607">
        <ele>298.60000610352</ele>
        <time>2019-07-08T08:33:32Z</time>
      </trkpt>
      <trkpt lat="44.74431" lon="5.06068">
        <ele>298.20001220703</ele>
        <time>2019-07-08T08:33:33Z</time>
      </trkpt>
      <trkpt lat="44.74429" lon="5.06066">
        <ele>297.79998779297</ele>
        <time>2019-07-08T08:33:34Z</time>
      </trkpt>
      <trkpt lat="44.74427" lon="5.06063">
        <ele>297.39999389648</ele>
        <time>2019-07-08T08:33:35Z</time>
      </trkpt>
      <trkpt lat="44.74425" lon="5.0606">
        <ele>297</ele>
        <time>2019-07-08T08:33:36Z</time>
      </trkpt>
      <trkpt lat="44.74425" lon="5.06058">
        <ele>296.60000610352</ele>
        <time>2019-07-08T08:33:37Z</time>
      </trkpt>
      <trkpt lat="44.74422" lon="5.06053">
        <ele>296.60000610352</ele>
        <time>2019-07-08T08:33:40Z</time>
      </trkpt>
      <trkpt lat="44.7442" lon="5.06054">
        <ele>296.60000610352</ele>
        <time>2019-07-08T08:33:44Z</time>
      </trkpt>
      <trkpt lat="44.7442" lon="5.06054">
        <ele>296.60000610352</ele>
        <time>2019-07-08T08:33:51Z</time>
      </trkpt>
      <trkpt lat="44.74418" lon="5.06052">
        <ele>296.60000610352</ele>
        <time>2019-07-08T08:33:55Z</time>
      </trkpt>
      <trkpt lat="44.74403" lon="5.06037">
        <ele>296.60000610352</ele>
        <time>2019-07-08T08:34:00Z</time>
      </trkpt>
      <trkpt lat="44.744" lon="5.06031">
        <ele>295.60000610352</ele>
        <time>2019-07-08T08:34:01Z</time>
      </trkpt>
      <trkpt lat="44.74397" lon="5.06025">
        <ele>295.20001220703</ele>
        <time>2019-07-08T08:34:02Z</time>
      </trkpt>
      <trkpt lat="44.74393" lon="5.06018">
        <ele>294.79998779297</ele>
        <time>2019-07-08T08:34:03Z</time>
      </trkpt>
      <trkpt lat="44.7439" lon="5.06012">
        <ele>294.39999389648</ele>
        <time>2019-07-08T08:34:04Z</time>
      </trkpt>
      <trkpt lat="44.74387" lon="5.06006">
        <ele>294.39999389648</ele>
        <time>2019-07-08T08:34:05Z</time>
      </trkpt>
      <trkpt lat="44.74373" lon="5.05993">
        <ele>293.79998779297</ele>
        <time>2019-07-08T08:34:07Z</time>
      </trkpt>
      <trkpt lat="44.74366" lon="5.05987">
        <ele>293.39999389648</ele>
        <time>2019-07-08T08:34:08Z</time>
      </trkpt>
      <trkpt lat="44.74359" lon="5.05981">
        <ele>293</ele>
        <time>2019-07-08T08:34:09Z</time>
      </trkpt>
      <trkpt lat="44.74352" lon="5.05976">
        <ele>292.39999389648</ele>
        <time>2019-07-08T08:34:10Z</time>
      </trkpt>
      <trkpt lat="44.74345" lon="5.05971">
        <ele>292</ele>
        <time>2019-07-08T08:34:11Z</time>
      </trkpt>
      <trkpt lat="44.74322" lon="5.05953">
        <ele>291.39999389648</ele>
        <time>2019-07-08T08:34:14Z</time>
      </trkpt>
      <trkpt lat="44.74314" lon="5.05947">
        <ele>291</ele>
        <time>2019-07-08T08:34:15Z</time>
      </trkpt>
      <trkpt lat="44.74304" lon="5.05942">
        <ele>290.60000610352</ele>
        <time>2019-07-08T08:34:16Z</time>
      </trkpt>
      <trkpt lat="44.74294" lon="5.05939">
        <ele>290</ele>
        <time>2019-07-08T08:34:17Z</time>
      </trkpt>
      <trkpt lat="44.74285" lon="5.05935">
        <ele>289.39999389648</ele>
        <time>2019-07-08T08:34:18Z</time>
      </trkpt>
      <trkpt lat="44.74277" lon="5.05932">
        <ele>288.79998779297</ele>
        <time>2019-07-08T08:34:19Z</time>
      </trkpt>
      <trkpt lat="44.7427" lon="5.05927">
        <ele>288.20001220703</ele>
        <time>2019-07-08T08:34:20Z</time>
      </trkpt>
      <trkpt lat="44.74263" lon="5.0592">
        <ele>287.60000610352</ele>
        <time>2019-07-08T08:34:21Z</time>
      </trkpt>
      <trkpt lat="44.74257" lon="5.05913">
        <ele>287.60000610352</ele>
        <time>2019-07-08T08:34:22Z</time>
      </trkpt>
      <trkpt lat="44.7425" lon="5.05906">
        <ele>287.20001220703</ele>
        <time>2019-07-08T08:34:23Z</time>
      </trkpt>
      <trkpt lat="44.74242" lon="5.05898">
        <ele>286.60000610352</ele>
        <time>2019-07-08T08:34:24Z</time>
      </trkpt>
      <trkpt lat="44.74233" lon="5.05892">
        <ele>286.20001220703</ele>
        <time>2019-07-08T08:34:25Z</time>
      </trkpt>
      <trkpt lat="44.74225" lon="5.05886">
        <ele>285.60000610352</ele>
        <time>2019-07-08T08:34:26Z</time>
      </trkpt>
      <trkpt lat="44.74217" lon="5.05881">
        <ele>284.60000610352</ele>
        <time>2019-07-08T08:34:27Z</time>
      </trkpt>
      <trkpt lat="44.74209" lon="5.05875">
        <ele>283.79998779297</ele>
        <time>2019-07-08T08:34:28Z</time>
      </trkpt>
      <trkpt lat="44.74201" lon="5.0587">
        <ele>283</ele>
        <time>2019-07-08T08:34:29Z</time>
      </trkpt>
      <trkpt lat="44.74194" lon="5.05864">
        <ele>282.39999389648</ele>
        <time>2019-07-08T08:34:30Z</time>
      </trkpt>
      <trkpt lat="44.74186" lon="5.05859">
        <ele>281.60000610352</ele>
        <time>2019-07-08T08:34:31Z</time>
      </trkpt>
      <trkpt lat="44.74178" lon="5.05854">
        <ele>281</ele>
        <time>2019-07-08T08:34:32Z</time>
      </trkpt>
      <trkpt lat="44.74169" lon="5.05849">
        <ele>280.39999389648</ele>
        <time>2019-07-08T08:34:33Z</time>
      </trkpt>
      <trkpt lat="44.74162" lon="5.05841">
        <ele>280</ele>
        <time>2019-07-08T08:34:34Z</time>
      </trkpt>
      <trkpt lat="44.74157" lon="5.05831">
        <ele>279.39999389648</ele>
        <time>2019-07-08T08:34:35Z</time>
      </trkpt>
      <trkpt lat="44.74154" lon="5.05821">
        <ele>278.60000610352</ele>
        <time>2019-07-08T08:34:36Z</time>
      </trkpt>
      <trkpt lat="44.74151" lon="5.0581">
        <ele>277.79998779297</ele>
        <time>2019-07-08T08:34:37Z</time>
      </trkpt>
      <trkpt lat="44.74148" lon="5.05799">
        <ele>277</ele>
        <time>2019-07-08T08:34:38Z</time>
      </trkpt>
      <trkpt lat="44.74147" lon="5.05789">
        <ele>276.20001220703</ele>
        <time>2019-07-08T08:34:39Z</time>
      </trkpt>
      <trkpt lat="44.74147" lon="5.0578">
        <ele>275.39999389648</ele>
        <time>2019-07-08T08:34:40Z</time>
      </trkpt>
      <trkpt lat="44.74148" lon="5.05757">
        <ele>275.39999389648</ele>
        <time>2019-07-08T08:34:43Z</time>
      </trkpt>
      <trkpt lat="44.74144" lon="5.05741">
        <ele>275.39999389648</ele>
        <time>2019-07-08T08:34:47Z</time>
      </trkpt>
      <trkpt lat="44.74139" lon="5.05729">
        <ele>275.39999389648</ele>
        <time>2019-07-08T08:34:51Z</time>
      </trkpt>
      <trkpt lat="44.74136" lon="5.05719">
        <ele>275.39999389648</ele>
        <time>2019-07-08T08:34:55Z</time>
      </trkpt>
      <trkpt lat="44.74135" lon="5.05718">
        <ele>275.39999389648</ele>
        <time>2019-07-08T08:35:01Z</time>
      </trkpt>
      <trkpt lat="44.74135" lon="5.05717">
        <ele>275.39999389648</ele>
        <time>2019-07-08T08:35:10Z</time>
      </trkpt>
      <trkpt lat="44.74132" lon="5.05713">
        <ele>275.39999389648</ele>
        <time>2019-07-08T08:35:15Z</time>
      </trkpt>
      <trkpt lat="44.74128" lon="5.05698">
        <ele>275.39999389648</ele>
        <time>2019-07-08T08:35:20Z</time>
      </trkpt>
      <trkpt lat="44.74126" lon="5.05694">
        <ele>275.39999389648</ele>
        <time>2019-07-08T08:35:21Z</time>
      </trkpt>
      <trkpt lat="44.74118" lon="5.05675">
        <ele>275.39999389648</ele>
        <time>2019-07-08T08:35:25Z</time>
      </trkpt>
      <trkpt lat="44.74112" lon="5.05663">
        <ele>275.39999389648</ele>
        <time>2019-07-08T08:35:27Z</time>
      </trkpt>
      <trkpt lat="44.74108" lon="5.05648">
        <ele>275.39999389648</ele>
        <time>2019-07-08T08:35:29Z</time>
      </trkpt>
      <trkpt lat="44.74106" lon="5.05642">
        <ele>275</ele>
        <time>2019-07-08T08:35:30Z</time>
      </trkpt>
      <trkpt lat="44.74103" lon="5.05636">
        <ele>274.60000610352</ele>
        <time>2019-07-08T08:35:31Z</time>
      </trkpt>
      <trkpt lat="44.741" lon="5.05632">
        <ele>274.20001220703</ele>
        <time>2019-07-08T08:35:32Z</time>
      </trkpt>
      <trkpt lat="44.74095" lon="5.05628">
        <ele>273.79998779297</ele>
        <time>2019-07-08T08:35:33Z</time>
      </trkpt>
      <trkpt lat="44.7409" lon="5.05626">
        <ele>273.39999389648</ele>
        <time>2019-07-08T08:35:34Z</time>
      </trkpt>
      <trkpt lat="44.74082" lon="5.05625">
        <ele>273.39999389648</ele>
        <time>2019-07-08T08:35:36Z</time>
      </trkpt>
      <trkpt lat="44.74078" lon="5.05625">
        <ele>273.39999389648</ele>
        <time>2019-07-08T08:35:37Z</time>
      </trkpt>
      <trkpt lat="44.7405" lon="5.05623">
        <ele>273.39999389648</ele>
        <time>2019-07-08T08:35:44Z</time>
      </trkpt>
      <trkpt lat="44.74044" lon="5.0562">
        <ele>273.79998779297</ele>
        <time>2019-07-08T08:35:46Z</time>
      </trkpt>
      <trkpt lat="44.74042" lon="5.05619">
        <ele>274.20001220703</ele>
        <time>2019-07-08T08:35:47Z</time>
      </trkpt>
      <trkpt lat="44.74039" lon="5.05618">
        <ele>274.60000610352</ele>
        <time>2019-07-08T08:35:48Z</time>
      </trkpt>
      <trkpt lat="44.74037" lon="5.05617">
        <ele>275</ele>
        <time>2019-07-08T08:35:49Z</time>
      </trkpt>
      <trkpt lat="44.74035" lon="5.05617">
        <ele>275.39999389648</ele>
        <time>2019-07-08T08:35:50Z</time>
      </trkpt>
      <trkpt lat="44.74024" lon="5.0561">
        <ele>275.39999389648</ele>
        <time>2019-07-08T08:35:55Z</time>
      </trkpt>
      <trkpt lat="44.74017" lon="5.05605">
        <ele>275.79998779297</ele>
        <time>2019-07-08T08:35:58Z</time>
      </trkpt>
      <trkpt lat="44.74015" lon="5.05604">
        <ele>276.20001220703</ele>
        <time>2019-07-08T08:35:59Z</time>
      </trkpt>
      <trkpt lat="44.74013" lon="5.05603">
        <ele>276.60000610352</ele>
        <time>2019-07-08T08:36:00Z</time>
      </trkpt>
      <trkpt lat="44.7401" lon="5.05601">
        <ele>277</ele>
        <time>2019-07-08T08:36:01Z</time>
      </trkpt>
      <trkpt lat="44.74007" lon="5.056">
        <ele>277.39999389648</ele>
        <time>2019-07-08T08:36:02Z</time>
      </trkpt>
      <trkpt lat="44.73986" lon="5.05585">
        <ele>277.39999389648</ele>
        <time>2019-07-08T08:36:08Z</time>
      </trkpt>
      <trkpt lat="44.73956" lon="5.05562">
        <ele>277.39999389648</ele>
        <time>2019-07-08T08:36:14Z</time>
      </trkpt>
      <trkpt lat="44.7393" lon="5.0554">
        <ele>277.39999389648</ele>
        <time>2019-07-08T08:36:20Z</time>
      </trkpt>
      <trkpt lat="44.73901" lon="5.05517">
        <ele>277</ele>
        <time>2019-07-08T08:36:26Z</time>
      </trkpt>
      <trkpt lat="44.73896" lon="5.05513">
        <ele>276.60000610352</ele>
        <time>2019-07-08T08:36:27Z</time>
      </trkpt>
      <trkpt lat="44.73891" lon="5.05509">
        <ele>276.20001220703</ele>
        <time>2019-07-08T08:36:28Z</time>
      </trkpt>
      <trkpt lat="44.73886" lon="5.05505">
        <ele>275.39999389648</ele>
        <time>2019-07-08T08:36:29Z</time>
      </trkpt>
      <trkpt lat="44.73863" lon="5.05482">
        <ele>275</ele>
        <time>2019-07-08T08:36:34Z</time>
      </trkpt>
      <trkpt lat="44.73858" lon="5.05478">
        <ele>274.60000610352</ele>
        <time>2019-07-08T08:36:35Z</time>
      </trkpt>
      <trkpt lat="44.73852" lon="5.05474">
        <ele>274</ele>
        <time>2019-07-08T08:36:36Z</time>
      </trkpt>
      <trkpt lat="44.73847" lon="5.05471">
        <ele>273.60000610352</ele>
        <time>2019-07-08T08:36:37Z</time>
      </trkpt>
      <trkpt lat="44.73841" lon="5.05467">
        <ele>273.20001220703</ele>
        <time>2019-07-08T08:36:38Z</time>
      </trkpt>
      <trkpt lat="44.73816" lon="5.05452">
        <ele>272.79998779297</ele>
        <time>2019-07-08T08:36:42Z</time>
      </trkpt>
      <trkpt lat="44.73809" lon="5.05449">
        <ele>272.39999389648</ele>
        <time>2019-07-08T08:36:43Z</time>
      </trkpt>
      <trkpt lat="44.73802" lon="5.05445">
        <ele>272</ele>
        <time>2019-07-08T08:36:44Z</time>
      </trkpt>
      <trkpt lat="44.73794" lon="5.05441">
        <ele>271.60000610352</ele>
        <time>2019-07-08T08:36:45Z</time>
      </trkpt>
      <trkpt lat="44.73787" lon="5.05437">
        <ele>271.20001220703</ele>
        <time>2019-07-08T08:36:46Z</time>
      </trkpt>
      <trkpt lat="44.73779" lon="5.05432">
        <ele>270.60000610352</ele>
        <time>2019-07-08T08:36:47Z</time>
      </trkpt>
      <trkpt lat="44.73772" lon="5.05427">
        <ele>270</ele>
        <time>2019-07-08T08:36:48Z</time>
      </trkpt>
      <trkpt lat="44.73764" lon="5.0542">
        <ele>269.60000610352</ele>
        <time>2019-07-08T08:36:49Z</time>
      </trkpt>
      <trkpt lat="44.73756" lon="5.05414">
        <ele>269</ele>
        <time>2019-07-08T08:36:50Z</time>
      </trkpt>
      <trkpt lat="44.73748" lon="5.05408">
        <ele>268.39999389648</ele>
        <time>2019-07-08T08:36:51Z</time>
      </trkpt>
      <trkpt lat="44.7374" lon="5.05401">
        <ele>268</ele>
        <time>2019-07-08T08:36:52Z</time>
      </trkpt>
      <trkpt lat="44.73731" lon="5.05395">
        <ele>266.60000610352</ele>
        <time>2019-07-08T08:36:53Z</time>
      </trkpt>
      <trkpt lat="44.73723" lon="5.05389">
        <ele>266</ele>
        <time>2019-07-08T08:36:54Z</time>
      </trkpt>
      <trkpt lat="44.73713" lon="5.05384">
        <ele>265.39999389648</ele>
        <time>2019-07-08T08:36:55Z</time>
      </trkpt>
      <trkpt lat="44.73704" lon="5.05379">
        <ele>264.60000610352</ele>
        <time>2019-07-08T08:36:56Z</time>
      </trkpt>
      <trkpt lat="44.73694" lon="5.05374">
        <ele>264</ele>
        <time>2019-07-08T08:36:57Z</time>
      </trkpt>
      <trkpt lat="44.73685" lon="5.05368">
        <ele>263.39999389648</ele>
        <time>2019-07-08T08:36:58Z</time>
      </trkpt>
      <trkpt lat="44.73675" lon="5.05361">
        <ele>262.79998779297</ele>
        <time>2019-07-08T08:36:59Z</time>
      </trkpt>
      <trkpt lat="44.73666" lon="5.05354">
        <ele>262.20001220703</ele>
        <time>2019-07-08T08:37:00Z</time>
      </trkpt>
      <trkpt lat="44.73656" lon="5.05346">
        <ele>261.60000610352</ele>
        <time>2019-07-08T08:37:01Z</time>
      </trkpt>
      <trkpt lat="44.73648" lon="5.05338">
        <ele>261</ele>
        <time>2019-07-08T08:37:02Z</time>
      </trkpt>
      <trkpt lat="44.7364" lon="5.05329">
        <ele>260.39999389648</ele>
        <time>2019-07-08T08:37:03Z</time>
      </trkpt>
      <trkpt lat="44.73632" lon="5.05321">
        <ele>259.79998779297</ele>
        <time>2019-07-08T08:37:04Z</time>
      </trkpt>
      <trkpt lat="44.73625" lon="5.05312">
        <ele>259.20001220703</ele>
        <time>2019-07-08T08:37:05Z</time>
      </trkpt>
      <trkpt lat="44.73618" lon="5.05304">
        <ele>258.60000610352</ele>
        <time>2019-07-08T08:37:06Z</time>
      </trkpt>
      <trkpt lat="44.73611" lon="5.05295">
        <ele>258</ele>
        <time>2019-07-08T08:37:07Z</time>
      </trkpt>
      <trkpt lat="44.73604" lon="5.05287">
        <ele>257.20001220703</ele>
        <time>2019-07-08T08:37:08Z</time>
      </trkpt>
      <trkpt lat="44.73587" lon="5.05264">
        <ele>256.79998779297</ele>
        <time>2019-07-08T08:37:11Z</time>
      </trkpt>
      <trkpt lat="44.73582" lon="5.05257">
        <ele>256.39999389648</ele>
        <time>2019-07-08T08:37:12Z</time>
      </trkpt>
      <trkpt lat="44.73577" lon="5.0525">
        <ele>256</ele>
        <time>2019-07-08T08:37:13Z</time>
      </trkpt>
      <trkpt lat="44.73571" lon="5.05243">
        <ele>255.60000610352</ele>
        <time>2019-07-08T08:37:14Z</time>
      </trkpt>
      <trkpt lat="44.73567" lon="5.05236">
        <ele>255.19999694824</ele>
        <time>2019-07-08T08:37:15Z</time>
      </trkpt>
      <trkpt lat="44.73554" lon="5.05214">
        <ele>255.19999694824</ele>
        <time>2019-07-08T08:37:18Z</time>
      </trkpt>
      <trkpt lat="44.73551" lon="5.05206">
        <ele>255.19999694824</ele>
        <time>2019-07-08T08:37:19Z</time>
      </trkpt>
      <trkpt lat="44.73548" lon="5.05199">
        <ele>255.19999694824</ele>
        <time>2019-07-08T08:37:20Z</time>
      </trkpt>
      <trkpt lat="44.73541" lon="5.05179">
        <ele>255.19999694824</ele>
        <time>2019-07-08T08:37:23Z</time>
      </trkpt>
      <trkpt lat="44.7354" lon="5.05171">
        <ele>255.19999694824</ele>
        <time>2019-07-08T08:37:24Z</time>
      </trkpt>
      <trkpt lat="44.73537" lon="5.05156">
        <ele>255.19999694824</ele>
        <time>2019-07-08T08:37:26Z</time>
      </trkpt>
      <trkpt lat="44.73536" lon="5.0514">
        <ele>255.19999694824</ele>
        <time>2019-07-08T08:37:28Z</time>
      </trkpt>
      <trkpt lat="44.73532" lon="5.05098">
        <ele>254.80000305176</ele>
        <time>2019-07-08T08:37:33Z</time>
      </trkpt>
      <trkpt lat="44.7353" lon="5.05089">
        <ele>254.39999389648</ele>
        <time>2019-07-08T08:37:34Z</time>
      </trkpt>
      <trkpt lat="44.73528" lon="5.0508">
        <ele>254</ele>
        <time>2019-07-08T08:37:35Z</time>
      </trkpt>
      <trkpt lat="44.73527" lon="5.05071">
        <ele>253.60000610352</ele>
        <time>2019-07-08T08:37:36Z</time>
      </trkpt>
      <trkpt lat="44.73526" lon="5.05061">
        <ele>253.19999694824</ele>
        <time>2019-07-08T08:37:37Z</time>
      </trkpt>
      <trkpt lat="44.73523" lon="5.05035">
        <ele>253.19999694824</ele>
        <time>2019-07-08T08:37:40Z</time>
      </trkpt>
      <trkpt lat="44.73514" lon="5.04989">
        <ele>253.19999694824</ele>
        <time>2019-07-08T08:37:46Z</time>
      </trkpt>
      <trkpt lat="44.73507" lon="5.04966">
        <ele>252.80000305176</ele>
        <time>2019-07-08T08:37:49Z</time>
      </trkpt>
      <trkpt lat="44.73504" lon="5.04958">
        <ele>252.39999389648</ele>
        <time>2019-07-08T08:37:50Z</time>
      </trkpt>
      <trkpt lat="44.73501" lon="5.04949">
        <ele>252</ele>
        <time>2019-07-08T08:37:51Z</time>
      </trkpt>
      <trkpt lat="44.73498" lon="5.04941">
        <ele>251.60000610352</ele>
        <time>2019-07-08T08:37:52Z</time>
      </trkpt>
      <trkpt lat="44.73494" lon="5.04934">
        <ele>251.19999694824</ele>
        <time>2019-07-08T08:37:53Z</time>
      </trkpt>
      <trkpt lat="44.73474" lon="5.04898">
        <ele>250.60000610352</ele>
        <time>2019-07-08T08:37:58Z</time>
      </trkpt>
      <trkpt lat="44.7347" lon="5.0489">
        <ele>250.19999694824</ele>
        <time>2019-07-08T08:37:59Z</time>
      </trkpt>
      <trkpt lat="44.73466" lon="5.04882">
        <ele>249.80000305176</ele>
        <time>2019-07-08T08:38:00Z</time>
      </trkpt>
      <trkpt lat="44.73462" lon="5.04875">
        <ele>249.39999389648</ele>
        <time>2019-07-08T08:38:01Z</time>
      </trkpt>
      <trkpt lat="44.73459" lon="5.04868">
        <ele>249</ele>
        <time>2019-07-08T08:38:02Z</time>
      </trkpt>
      <trkpt lat="44.73444" lon="5.04838">
        <ele>248.60000610352</ele>
        <time>2019-07-08T08:38:06Z</time>
      </trkpt>
      <trkpt lat="44.7344" lon="5.04832">
        <ele>248.19999694824</ele>
        <time>2019-07-08T08:38:07Z</time>
      </trkpt>
      <trkpt lat="44.73436" lon="5.04825">
        <ele>247.39999389648</ele>
        <time>2019-07-08T08:38:08Z</time>
      </trkpt>
      <trkpt lat="44.73432" lon="5.04817">
        <ele>247</ele>
        <time>2019-07-08T08:38:09Z</time>
      </trkpt>
      <trkpt lat="44.73428" lon="5.04809">
        <ele>247</ele>
        <time>2019-07-08T08:38:10Z</time>
      </trkpt>
      <trkpt lat="44.73421" lon="5.04794">
        <ele>247</ele>
        <time>2019-07-08T08:38:12Z</time>
      </trkpt>
      <trkpt lat="44.73414" lon="5.0478">
        <ele>247</ele>
        <time>2019-07-08T08:38:14Z</time>
      </trkpt>
      <trkpt lat="44.73411" lon="5.04774">
        <ele>246.60000610352</ele>
        <time>2019-07-08T08:38:15Z</time>
      </trkpt>
      <trkpt lat="44.73407" lon="5.04767">
        <ele>246.19999694824</ele>
        <time>2019-07-08T08:38:16Z</time>
      </trkpt>
      <trkpt lat="44.73404" lon="5.04761">
        <ele>245.80000305176</ele>
        <time>2019-07-08T08:38:17Z</time>
      </trkpt>
      <trkpt lat="44.734" lon="5.04753">
        <ele>245.39999389648</ele>
        <time>2019-07-08T08:38:18Z</time>
      </trkpt>
      <trkpt lat="44.73396" lon="5.04747">
        <ele>245</ele>
        <time>2019-07-08T08:38:19Z</time>
      </trkpt>
      <trkpt lat="44.73387" lon="5.04735">
        <ele>245</ele>
        <time>2019-07-08T08:38:21Z</time>
      </trkpt>
      <trkpt lat="44.73382" lon="5.0473">
        <ele>245</ele>
        <time>2019-07-08T08:38:22Z</time>
      </trkpt>
      <trkpt lat="44.73372" lon="5.04719">
        <ele>245</ele>
        <time>2019-07-08T08:38:24Z</time>
      </trkpt>
      <trkpt lat="44.73362" lon="5.04711">
        <ele>245</ele>
        <time>2019-07-08T08:38:26Z</time>
      </trkpt>
      <trkpt lat="44.73353" lon="5.04704">
        <ele>245</ele>
        <time>2019-07-08T08:38:28Z</time>
      </trkpt>
      <trkpt lat="44.73349" lon="5.047">
        <ele>244.60000610352</ele>
        <time>2019-07-08T08:38:29Z</time>
      </trkpt>
      <trkpt lat="44.73345" lon="5.04696">
        <ele>244.19999694824</ele>
        <time>2019-07-08T08:38:30Z</time>
      </trkpt>
      <trkpt lat="44.73341" lon="5.04691">
        <ele>243.80000305176</ele>
        <time>2019-07-08T08:38:31Z</time>
      </trkpt>
      <trkpt lat="44.73337" lon="5.04685">
        <ele>242.80000305176</ele>
        <time>2019-07-08T08:38:32Z</time>
      </trkpt>
      <trkpt lat="44.73329" lon="5.04673">
        <ele>242.80000305176</ele>
        <time>2019-07-08T08:38:34Z</time>
      </trkpt>
      <trkpt lat="44.73322" lon="5.04658">
        <ele>242.80000305176</ele>
        <time>2019-07-08T08:38:36Z</time>
      </trkpt>
      <trkpt lat="44.73309" lon="5.04617">
        <ele>242.39999389648</ele>
        <time>2019-07-08T08:38:41Z</time>
      </trkpt>
      <trkpt lat="44.73307" lon="5.04608">
        <ele>242</ele>
        <time>2019-07-08T08:38:42Z</time>
      </trkpt>
      <trkpt lat="44.73305" lon="5.046">
        <ele>241.60000610352</ele>
        <time>2019-07-08T08:38:43Z</time>
      </trkpt>
      <trkpt lat="44.73304" lon="5.04592">
        <ele>241.19999694824</ele>
        <time>2019-07-08T08:38:44Z</time>
      </trkpt>
      <trkpt lat="44.73302" lon="5.04584">
        <ele>240.80000305176</ele>
        <time>2019-07-08T08:38:45Z</time>
      </trkpt>
      <trkpt lat="44.73299" lon="5.0456">
        <ele>240.80000305176</ele>
        <time>2019-07-08T08:38:48Z</time>
      </trkpt>
      <trkpt lat="44.73295" lon="5.04517">
        <ele>240.80000305176</ele>
        <time>2019-07-08T08:38:54Z</time>
      </trkpt>
      <trkpt lat="44.73287" lon="5.0446">
        <ele>240.80000305176</ele>
        <time>2019-07-08T08:39:02Z</time>
      </trkpt>
      <trkpt lat="44.73279" lon="5.04409">
        <ele>240.80000305176</ele>
        <time>2019-07-08T08:39:09Z</time>
      </trkpt>
      <trkpt lat="44.73268" lon="5.04358">
        <ele>240.80000305176</ele>
        <time>2019-07-08T08:39:16Z</time>
      </trkpt>
      <trkpt lat="44.73256" lon="5.04322">
        <ele>240.80000305176</ele>
        <time>2019-07-08T08:39:21Z</time>
      </trkpt>
      <trkpt lat="44.73247" lon="5.04298">
        <ele>240.80000305176</ele>
        <time>2019-07-08T08:39:24Z</time>
      </trkpt>
      <trkpt lat="44.73241" lon="5.04281">
        <ele>240.39999389648</ele>
        <time>2019-07-08T08:39:26Z</time>
      </trkpt>
      <trkpt lat="44.73237" lon="5.04272">
        <ele>240</ele>
        <time>2019-07-08T08:39:27Z</time>
      </trkpt>
      <trkpt lat="44.73232" lon="5.04264">
        <ele>239.60000610352</ele>
        <time>2019-07-08T08:39:28Z</time>
      </trkpt>
      <trkpt lat="44.73228" lon="5.04255">
        <ele>239.19999694824</ele>
        <time>2019-07-08T08:39:29Z</time>
      </trkpt>
      <trkpt lat="44.73222" lon="5.04247">
        <ele>238.80000305176</ele>
        <time>2019-07-08T08:39:30Z</time>
      </trkpt>
      <trkpt lat="44.73217" lon="5.04239">
        <ele>238.80000305176</ele>
        <time>2019-07-08T08:39:31Z</time>
      </trkpt>
      <trkpt lat="44.73204" lon="5.04224">
        <ele>238.19999694824</ele>
        <time>2019-07-08T08:39:33Z</time>
      </trkpt>
      <trkpt lat="44.73196" lon="5.04216">
        <ele>237.80000305176</ele>
        <time>2019-07-08T08:39:34Z</time>
      </trkpt>
      <trkpt lat="44.73189" lon="5.04209">
        <ele>237.39999389648</ele>
        <time>2019-07-08T08:39:35Z</time>
      </trkpt>
      <trkpt lat="44.73181" lon="5.04203">
        <ele>237</ele>
        <time>2019-07-08T08:39:36Z</time>
      </trkpt>
      <trkpt lat="44.73173" lon="5.04196">
        <ele>236.39999389648</ele>
        <time>2019-07-08T08:39:37Z</time>
      </trkpt>
      <trkpt lat="44.73164" lon="5.0419">
        <ele>236</ele>
        <time>2019-07-08T08:39:38Z</time>
      </trkpt>
      <trkpt lat="44.73156" lon="5.04183">
        <ele>235.39999389648</ele>
        <time>2019-07-08T08:39:39Z</time>
      </trkpt>
      <trkpt lat="44.73147" lon="5.04177">
        <ele>234.80000305176</ele>
        <time>2019-07-08T08:39:40Z</time>
      </trkpt>
      <trkpt lat="44.73139" lon="5.0417">
        <ele>234</ele>
        <time>2019-07-08T08:39:41Z</time>
      </trkpt>
      <trkpt lat="44.73129" lon="5.04163">
        <ele>233.39999389648</ele>
        <time>2019-07-08T08:39:42Z</time>
      </trkpt>
      <trkpt lat="44.73121" lon="5.04156">
        <ele>232.80000305176</ele>
        <time>2019-07-08T08:39:43Z</time>
      </trkpt>
      <trkpt lat="44.73112" lon="5.04149">
        <ele>232.19999694824</ele>
        <time>2019-07-08T08:39:44Z</time>
      </trkpt>
      <trkpt lat="44.73103" lon="5.04143">
        <ele>231.60000610352</ele>
        <time>2019-07-08T08:39:45Z</time>
      </trkpt>
      <trkpt lat="44.73094" lon="5.04137">
        <ele>230.39999389648</ele>
        <time>2019-07-08T08:39:46Z</time>
      </trkpt>
      <trkpt lat="44.73084" lon="5.04132">
        <ele>229.80000305176</ele>
        <time>2019-07-08T08:39:47Z</time>
      </trkpt>
      <trkpt lat="44.73075" lon="5.04127">
        <ele>229.19999694824</ele>
        <time>2019-07-08T08:39:48Z</time>
      </trkpt>
      <trkpt lat="44.73066" lon="5.04122">
        <ele>228.39999389648</ele>
        <time>2019-07-08T08:39:49Z</time>
      </trkpt>
      <trkpt lat="44.73057" lon="5.04117">
        <ele>228</ele>
        <time>2019-07-08T08:39:50Z</time>
      </trkpt>
      <trkpt lat="44.73049" lon="5.04112">
        <ele>227.39999389648</ele>
        <time>2019-07-08T08:39:51Z</time>
      </trkpt>
      <trkpt lat="44.73041" lon="5.04107">
        <ele>226.80000305176</ele>
        <time>2019-07-08T08:39:52Z</time>
      </trkpt>
      <trkpt lat="44.73033" lon="5.04102">
        <ele>226.19999694824</ele>
        <time>2019-07-08T08:39:53Z</time>
      </trkpt>
      <trkpt lat="44.73025" lon="5.04098">
        <ele>225.80000305176</ele>
        <time>2019-07-08T08:39:54Z</time>
      </trkpt>
      <trkpt lat="44.72985" lon="5.04082">
        <ele>225.39999389648</ele>
        <time>2019-07-08T08:39:59Z</time>
      </trkpt>
      <trkpt lat="44.72978" lon="5.0408">
        <ele>225</ele>
        <time>2019-07-08T08:40:00Z</time>
      </trkpt>
      <trkpt lat="44.72971" lon="5.04078">
        <ele>224.60000610352</ele>
        <time>2019-07-08T08:40:01Z</time>
      </trkpt>
      <trkpt lat="44.72964" lon="5.04077">
        <ele>224.19999694824</ele>
        <time>2019-07-08T08:40:02Z</time>
      </trkpt>
      <trkpt lat="44.72956" lon="5.04075">
        <ele>223.80000305176</ele>
        <time>2019-07-08T08:40:03Z</time>
      </trkpt>
      <trkpt lat="44.72942" lon="5.0407">
        <ele>223.80000305176</ele>
        <time>2019-07-08T08:40:05Z</time>
      </trkpt>
      <trkpt lat="44.72928" lon="5.04061">
        <ele>223.80000305176</ele>
        <time>2019-07-08T08:40:08Z</time>
      </trkpt>
      <trkpt lat="44.72923" lon="5.04057">
        <ele>223.80000305176</ele>
        <time>2019-07-08T08:40:09Z</time>
      </trkpt>
      <trkpt lat="44.7292" lon="5.04053">
        <ele>223.80000305176</ele>
        <time>2019-07-08T08:40:10Z</time>
      </trkpt>
      <trkpt lat="44.72908" lon="5.04034">
        <ele>223.80000305176</ele>
        <time>2019-07-08T08:40:14Z</time>
      </trkpt>
      <trkpt lat="44.72898" lon="5.04016">
        <ele>223.80000305176</ele>
        <time>2019-07-08T08:40:18Z</time>
      </trkpt>
      <trkpt lat="44.72892" lon="5.04008">
        <ele>223.80000305176</ele>
        <time>2019-07-08T08:40:20Z</time>
      </trkpt>
      <trkpt lat="44.72886" lon="5.03999">
        <ele>223.80000305176</ele>
        <time>2019-07-08T08:40:22Z</time>
      </trkpt>
      <trkpt lat="44.72881" lon="5.03991">
        <ele>224.19999694824</ele>
        <time>2019-07-08T08:40:24Z</time>
      </trkpt>
      <trkpt lat="44.72879" lon="5.03987">
        <ele>224.60000610352</ele>
        <time>2019-07-08T08:40:25Z</time>
      </trkpt>
      <trkpt lat="44.72876" lon="5.03982">
        <ele>225</ele>
        <time>2019-07-08T08:40:26Z</time>
      </trkpt>
      <trkpt lat="44.72874" lon="5.03978">
        <ele>225.39999389648</ele>
        <time>2019-07-08T08:40:27Z</time>
      </trkpt>
      <trkpt lat="44.72871" lon="5.03974">
        <ele>225.80000305176</ele>
        <time>2019-07-08T08:40:28Z</time>
      </trkpt>
      <trkpt lat="44.72864" lon="5.03961">
        <ele>225.80000305176</ele>
        <time>2019-07-08T08:40:31Z</time>
      </trkpt>
      <trkpt lat="44.72855" lon="5.03937">
        <ele>226.19999694824</ele>
        <time>2019-07-08T08:40:36Z</time>
      </trkpt>
      <trkpt lat="44.72853" lon="5.03932">
        <ele>226.60000610352</ele>
        <time>2019-07-08T08:40:37Z</time>
      </trkpt>
      <trkpt lat="44.72851" lon="5.03927">
        <ele>227</ele>
        <time>2019-07-08T08:40:38Z</time>
      </trkpt>
      <trkpt lat="44.72849" lon="5.03922">
        <ele>227.39999389648</ele>
        <time>2019-07-08T08:40:39Z</time>
      </trkpt>
      <trkpt lat="44.72848" lon="5.03918">
        <ele>228</ele>
        <time>2019-07-08T08:40:40Z</time>
      </trkpt>
      <trkpt lat="44.72845" lon="5.03904">
        <ele>228</ele>
        <time>2019-07-08T08:40:43Z</time>
      </trkpt>
      <trkpt lat="44.72841" lon="5.03881">
        <ele>228</ele>
        <time>2019-07-08T08:40:48Z</time>
      </trkpt>
      <trkpt lat="44.7284" lon="5.03859">
        <ele>228.39999389648</ele>
        <time>2019-07-08T08:40:52Z</time>
      </trkpt>
      <trkpt lat="44.7284" lon="5.03853">
        <ele>228.80000305176</ele>
        <time>2019-07-08T08:40:53Z</time>
      </trkpt>
      <trkpt lat="44.7284" lon="5.03848">
        <ele>229.19999694824</ele>
        <time>2019-07-08T08:40:54Z</time>
      </trkpt>
      <trkpt lat="44.72841" lon="5.03843">
        <ele>229.60000610352</ele>
        <time>2019-07-08T08:40:55Z</time>
      </trkpt>
      <trkpt lat="44.72841" lon="5.03838">
        <ele>230</ele>
        <time>2019-07-08T08:40:56Z</time>
      </trkpt>
      <trkpt lat="44.72845" lon="5.038">
        <ele>230</ele>
        <time>2019-07-08T08:41:03Z</time>
      </trkpt>
      <trkpt lat="44.72851" lon="5.03773">
        <ele>230</ele>
        <time>2019-07-08T08:41:09Z</time>
      </trkpt>
      <trkpt lat="44.72852" lon="5.0376">
        <ele>230.39999389648</ele>
        <time>2019-07-08T08:41:12Z</time>
      </trkpt>
      <trkpt lat="44.72852" lon="5.03756">
        <ele>230.80000305176</ele>
        <time>2019-07-08T08:41:13Z</time>
      </trkpt>
      <trkpt lat="44.72853" lon="5.03752">
        <ele>231.19999694824</ele>
        <time>2019-07-08T08:41:14Z</time>
      </trkpt>
      <trkpt lat="44.72854" lon="5.03748">
        <ele>231.60000610352</ele>
        <time>2019-07-08T08:41:15Z</time>
      </trkpt>
      <trkpt lat="44.72855" lon="5.03744">
        <ele>232</ele>
        <time>2019-07-08T08:41:16Z</time>
      </trkpt>
      <trkpt lat="44.7286" lon="5.03724">
        <ele>232</ele>
        <time>2019-07-08T08:41:21Z</time>
      </trkpt>
      <trkpt lat="44.72864" lon="5.03701">
        <ele>232</ele>
        <time>2019-07-08T08:41:27Z</time>
      </trkpt>
      <trkpt lat="44.72868" lon="5.03678">
        <ele>232</ele>
        <time>2019-07-08T08:41:33Z</time>
      </trkpt>
      <trkpt lat="44.72873" lon="5.03649">
        <ele>232</ele>
        <time>2019-07-08T08:41:39Z</time>
      </trkpt>
      <trkpt lat="44.72881" lon="5.03608">
        <ele>232</ele>
        <time>2019-07-08T08:41:45Z</time>
      </trkpt>
      <trkpt lat="44.72885" lon="5.03594">
        <ele>232</ele>
        <time>2019-07-08T08:41:47Z</time>
      </trkpt>
      <trkpt lat="44.72888" lon="5.03578">
        <ele>231.60000610352</ele>
        <time>2019-07-08T08:41:49Z</time>
      </trkpt>
      <trkpt lat="44.72889" lon="5.0357">
        <ele>230.60000610352</ele>
        <time>2019-07-08T08:41:50Z</time>
      </trkpt>
      <trkpt lat="44.7289" lon="5.03561">
        <ele>230.19999694824</ele>
        <time>2019-07-08T08:41:51Z</time>
      </trkpt>
      <trkpt lat="44.72892" lon="5.03551">
        <ele>229.80000305176</ele>
        <time>2019-07-08T08:41:52Z</time>
      </trkpt>
      <trkpt lat="44.72894" lon="5.03531">
        <ele>229.39999389648</ele>
        <time>2019-07-08T08:41:54Z</time>
      </trkpt>
      <trkpt lat="44.72896" lon="5.03521">
        <ele>229</ele>
        <time>2019-07-08T08:41:55Z</time>
      </trkpt>
      <trkpt lat="44.72898" lon="5.03512">
        <ele>228.60000610352</ele>
        <time>2019-07-08T08:41:56Z</time>
      </trkpt>
      <trkpt lat="44.72901" lon="5.03504">
        <ele>228.19999694824</ele>
        <time>2019-07-08T08:41:57Z</time>
      </trkpt>
      <trkpt lat="44.72903" lon="5.03497">
        <ele>227.60000610352</ele>
        <time>2019-07-08T08:41:58Z</time>
      </trkpt>
      <trkpt lat="44.72905" lon="5.03491">
        <ele>227.19999694824</ele>
        <time>2019-07-08T08:41:59Z</time>
      </trkpt>
      <trkpt lat="44.72907" lon="5.03486">
        <ele>226.80000305176</ele>
        <time>2019-07-08T08:42:00Z</time>
      </trkpt>
      <trkpt lat="44.72909" lon="5.0348">
        <ele>226.19999694824</ele>
        <time>2019-07-08T08:42:01Z</time>
      </trkpt>
      <trkpt lat="44.7291" lon="5.03474">
        <ele>225.80000305176</ele>
        <time>2019-07-08T08:42:02Z</time>
      </trkpt>
      <trkpt lat="44.72911" lon="5.03467">
        <ele>225.39999389648</ele>
        <time>2019-07-08T08:42:03Z</time>
      </trkpt>
      <trkpt lat="44.72912" lon="5.0346">
        <ele>225.39999389648</ele>
        <time>2019-07-08T08:42:04Z</time>
      </trkpt>
      <trkpt lat="44.72914" lon="5.03443">
        <ele>225</ele>
        <time>2019-07-08T08:42:06Z</time>
      </trkpt>
      <trkpt lat="44.72914" lon="5.03434">
        <ele>224.60000610352</ele>
        <time>2019-07-08T08:42:07Z</time>
      </trkpt>
      <trkpt lat="44.72914" lon="5.03423">
        <ele>224.19999694824</ele>
        <time>2019-07-08T08:42:08Z</time>
      </trkpt>
      <trkpt lat="44.72913" lon="5.03413">
        <ele>223.80000305176</ele>
        <time>2019-07-08T08:42:09Z</time>
      </trkpt>
      <trkpt lat="44.72912" lon="5.03403">
        <ele>223.39999389648</ele>
        <time>2019-07-08T08:42:10Z</time>
      </trkpt>
      <trkpt lat="44.72911" lon="5.03391">
        <ele>222.80000305176</ele>
        <time>2019-07-08T08:42:11Z</time>
      </trkpt>
      <trkpt lat="44.7291" lon="5.0338">
        <ele>222.39999389648</ele>
        <time>2019-07-08T08:42:12Z</time>
      </trkpt>
      <trkpt lat="44.72908" lon="5.03367">
        <ele>222</ele>
        <time>2019-07-08T08:42:13Z</time>
      </trkpt>
      <trkpt lat="44.72905" lon="5.03355">
        <ele>221.39999389648</ele>
        <time>2019-07-08T08:42:14Z</time>
      </trkpt>
      <trkpt lat="44.72903" lon="5.03342">
        <ele>220.39999389648</ele>
        <time>2019-07-08T08:42:15Z</time>
      </trkpt>
      <trkpt lat="44.72901" lon="5.03328">
        <ele>219.80000305176</ele>
        <time>2019-07-08T08:42:16Z</time>
      </trkpt>
      <trkpt lat="44.72899" lon="5.03314">
        <ele>219</ele>
        <time>2019-07-08T08:42:17Z</time>
      </trkpt>
      <trkpt lat="44.72898" lon="5.03301">
        <ele>218.39999389648</ele>
        <time>2019-07-08T08:42:18Z</time>
      </trkpt>
      <trkpt lat="44.72897" lon="5.03287">
        <ele>217.80000305176</ele>
        <time>2019-07-08T08:42:19Z</time>
      </trkpt>
      <trkpt lat="44.72896" lon="5.03273">
        <ele>217</ele>
        <time>2019-07-08T08:42:20Z</time>
      </trkpt>
      <trkpt lat="44.72894" lon="5.03259">
        <ele>216.39999389648</ele>
        <time>2019-07-08T08:42:21Z</time>
      </trkpt>
      <trkpt lat="44.72893" lon="5.03246">
        <ele>215.80000305176</ele>
        <time>2019-07-08T08:42:22Z</time>
      </trkpt>
      <trkpt lat="44.72892" lon="5.03233">
        <ele>215.19999694824</ele>
        <time>2019-07-08T08:42:23Z</time>
      </trkpt>
      <trkpt lat="44.72891" lon="5.03219">
        <ele>214.60000610352</ele>
        <time>2019-07-08T08:42:24Z</time>
      </trkpt>
      <trkpt lat="44.7289" lon="5.03206">
        <ele>214.19999694824</ele>
        <time>2019-07-08T08:42:25Z</time>
      </trkpt>
      <trkpt lat="44.72889" lon="5.03193">
        <ele>213.60000610352</ele>
        <time>2019-07-08T08:42:26Z</time>
      </trkpt>
      <trkpt lat="44.72887" lon="5.03179">
        <ele>213</ele>
        <time>2019-07-08T08:42:27Z</time>
      </trkpt>
      <trkpt lat="44.72886" lon="5.03167">
        <ele>212.39999389648</ele>
        <time>2019-07-08T08:42:28Z</time>
      </trkpt>
      <trkpt lat="44.72885" lon="5.03154">
        <ele>212</ele>
        <time>2019-07-08T08:42:29Z</time>
      </trkpt>
      <trkpt lat="44.72882" lon="5.03129">
        <ele>211.39999389648</ele>
        <time>2019-07-08T08:42:31Z</time>
      </trkpt>
      <trkpt lat="44.72881" lon="5.03117">
        <ele>211</ele>
        <time>2019-07-08T08:42:32Z</time>
      </trkpt>
      <trkpt lat="44.7288" lon="5.03105">
        <ele>210.60000610352</ele>
        <time>2019-07-08T08:42:33Z</time>
      </trkpt>
      <trkpt lat="44.72879" lon="5.03093">
        <ele>210.19999694824</ele>
        <time>2019-07-08T08:42:34Z</time>
      </trkpt>
      <trkpt lat="44.72878" lon="5.03082">
        <ele>209.60000610352</ele>
        <time>2019-07-08T08:42:35Z</time>
      </trkpt>
      <trkpt lat="44.72875" lon="5.03048">
        <ele>209.19999694824</ele>
        <time>2019-07-08T08:42:38Z</time>
      </trkpt>
      <trkpt lat="44.72874" lon="5.03037">
        <ele>208.80000305176</ele>
        <time>2019-07-08T08:42:39Z</time>
      </trkpt>
      <trkpt lat="44.72873" lon="5.03027">
        <ele>207.80000305176</ele>
        <time>2019-07-08T08:42:40Z</time>
      </trkpt>
      <trkpt lat="44.72872" lon="5.03016">
        <ele>207.39999389648</ele>
        <time>2019-07-08T08:42:41Z</time>
      </trkpt>
      <trkpt lat="44.72864" lon="5.02968">
        <ele>207</ele>
        <time>2019-07-08T08:42:46Z</time>
      </trkpt>
      <trkpt lat="44.72861" lon="5.02959">
        <ele>206.60000610352</ele>
        <time>2019-07-08T08:42:47Z</time>
      </trkpt>
      <trkpt lat="44.72857" lon="5.0295">
        <ele>206</ele>
        <time>2019-07-08T08:42:48Z</time>
      </trkpt>
      <trkpt lat="44.72853" lon="5.02943">
        <ele>205.60000610352</ele>
        <time>2019-07-08T08:42:49Z</time>
      </trkpt>
      <trkpt lat="44.72848" lon="5.02936">
        <ele>205.19999694824</ele>
        <time>2019-07-08T08:42:50Z</time>
      </trkpt>
      <trkpt lat="44.72831" lon="5.02906">
        <ele>204.80000305176</ele>
        <time>2019-07-08T08:42:54Z</time>
      </trkpt>
      <trkpt lat="44.72827" lon="5.02899">
        <ele>204.39999389648</ele>
        <time>2019-07-08T08:42:55Z</time>
      </trkpt>
      <trkpt lat="44.72823" lon="5.02892">
        <ele>204</ele>
        <time>2019-07-08T08:42:56Z</time>
      </trkpt>
      <trkpt lat="44.7282" lon="5.02885">
        <ele>203.60000610352</ele>
        <time>2019-07-08T08:42:57Z</time>
      </trkpt>
      <trkpt lat="44.72816" lon="5.02879">
        <ele>203.19999694824</ele>
        <time>2019-07-08T08:42:58Z</time>
      </trkpt>
      <trkpt lat="44.72809" lon="5.02868">
        <ele>203.19999694824</ele>
        <time>2019-07-08T08:43:01Z</time>
      </trkpt>
      <trkpt lat="44.72803" lon="5.02857">
        <ele>203.19999694824</ele>
        <time>2019-07-08T08:43:04Z</time>
      </trkpt>
      <trkpt lat="44.728" lon="5.02854">
        <ele>203.19999694824</ele>
        <time>2019-07-08T08:43:05Z</time>
      </trkpt>
      <trkpt lat="44.72794" lon="5.02844">
        <ele>202.80000305176</ele>
        <time>2019-07-08T08:43:07Z</time>
      </trkpt>
      <trkpt lat="44.72792" lon="5.0284">
        <ele>202.39999389648</ele>
        <time>2019-07-08T08:43:08Z</time>
      </trkpt>
      <trkpt lat="44.72789" lon="5.02836">
        <ele>202</ele>
        <time>2019-07-08T08:43:09Z</time>
      </trkpt>
      <trkpt lat="44.72787" lon="5.0283">
        <ele>201.60000610352</ele>
        <time>2019-07-08T08:43:10Z</time>
      </trkpt>
      <trkpt lat="44.72784" lon="5.02825">
        <ele>201.19999694824</ele>
        <time>2019-07-08T08:43:11Z</time>
      </trkpt>
      <trkpt lat="44.72775" lon="5.02809">
        <ele>201.19999694824</ele>
        <time>2019-07-08T08:43:14Z</time>
      </trkpt>
      <trkpt lat="44.72756" lon="5.02778">
        <ele>201.19999694824</ele>
        <time>2019-07-08T08:43:20Z</time>
      </trkpt>
      <trkpt lat="44.7275" lon="5.02768">
        <ele>201.19999694824</ele>
        <time>2019-07-08T08:43:22Z</time>
      </trkpt>
      <trkpt lat="44.72743" lon="5.02757">
        <ele>201.19999694824</ele>
        <time>2019-07-08T08:43:25Z</time>
      </trkpt>
      <trkpt lat="44.72724" lon="5.02721">
        <ele>201.19999694824</ele>
        <time>2019-07-08T08:43:33Z</time>
      </trkpt>
      <trkpt lat="44.72718" lon="5.0271">
        <ele>201.19999694824</ele>
        <time>2019-07-08T08:43:35Z</time>
      </trkpt>
      <trkpt lat="44.72706" lon="5.0269">
        <ele>201.19999694824</ele>
        <time>2019-07-08T08:43:39Z</time>
      </trkpt>
      <trkpt lat="44.7269" lon="5.02666">
        <ele>200.80000305176</ele>
        <time>2019-07-08T08:43:44Z</time>
      </trkpt>
      <trkpt lat="44.72687" lon="5.02662">
        <ele>200.39999389648</ele>
        <time>2019-07-08T08:43:45Z</time>
      </trkpt>
      <trkpt lat="44.72685" lon="5.02658">
        <ele>200</ele>
        <time>2019-07-08T08:43:46Z</time>
      </trkpt>
      <trkpt lat="44.72682" lon="5.02654">
        <ele>199.60000610352</ele>
        <time>2019-07-08T08:43:47Z</time>
      </trkpt>
      <trkpt lat="44.7268" lon="5.02651">
        <ele>199</ele>
        <time>2019-07-08T08:43:48Z</time>
      </trkpt>
      <trkpt lat="44.72675" lon="5.02641">
        <ele>199</ele>
        <time>2019-07-08T08:43:52Z</time>
      </trkpt>
      <trkpt lat="44.72664" lon="5.02624">
        <ele>199</ele>
        <time>2019-07-08T08:43:57Z</time>
      </trkpt>
      <trkpt lat="44.72661" lon="5.02622">
        <ele>199</ele>
        <time>2019-07-08T08:43:58Z</time>
      </trkpt>
      <trkpt lat="44.72651" lon="5.02611">
        <ele>199</ele>
        <time>2019-07-08T08:44:01Z</time>
      </trkpt>
      <trkpt lat="44.72642" lon="5.02593">
        <ele>199</ele>
        <time>2019-07-08T08:44:06Z</time>
      </trkpt>
      <trkpt lat="44.72635" lon="5.02584">
        <ele>199</ele>
        <time>2019-07-08T08:44:11Z</time>
      </trkpt>
      <trkpt lat="44.72631" lon="5.0258">
        <ele>199</ele>
        <time>2019-07-08T08:44:16Z</time>
      </trkpt>
      <trkpt lat="44.72631" lon="5.02578">
        <ele>199</ele>
        <time>2019-07-08T08:44:21Z</time>
      </trkpt>
      <trkpt lat="44.72631" lon="5.02578">
        <ele>199</ele>
        <time>2019-07-08T08:44:29Z</time>
      </trkpt>
      <trkpt lat="44.72631" lon="5.02578">
        <ele>199</ele>
        <time>2019-07-08T08:44:32Z</time>
      </trkpt>
      <trkpt lat="44.72631" lon="5.02578">
        <ele>199</ele>
        <time>2019-07-08T08:44:44Z</time>
      </trkpt>
      <trkpt lat="44.72631" lon="5.02578">
        <ele>199</ele>
        <time>2019-07-08T08:44:52Z</time>
      </trkpt>
      <trkpt lat="44.72631" lon="5.02577">
        <ele>199</ele>
        <time>2019-07-08T08:45:05Z</time>
      </trkpt>
      <trkpt lat="44.72631" lon="5.02577">
        <ele>199</ele>
        <time>2019-07-08T08:45:16Z</time>
      </trkpt>
      <trkpt lat="44.72631" lon="5.02577">
        <ele>199</ele>
        <time>2019-07-08T08:45:27Z</time>
      </trkpt>
      <trkpt lat="44.72631" lon="5.02577">
        <ele>199</ele>
        <time>2019-07-08T08:45:40Z</time>
      </trkpt>
      <trkpt lat="44.72631" lon="5.02577">
        <ele>199</ele>
        <time>2019-07-08T08:45:53Z</time>
      </trkpt>
      <trkpt lat="44.72631" lon="5.02577">
        <ele>199</ele>
        <time>2019-07-08T08:46:07Z</time>
      </trkpt>
      <trkpt lat="44.72632" lon="5.02576">
        <ele>199</ele>
        <time>2019-07-08T08:46:21Z</time>
      </trkpt>
      <trkpt lat="44.72632" lon="5.02576">
        <ele>199</ele>
        <time>2019-07-08T08:46:35Z</time>
      </trkpt>
      <trkpt lat="44.72632" lon="5.02576">
        <ele>199</ele>
        <time>2019-07-08T08:46:47Z</time>
      </trkpt>
      <trkpt lat="44.72632" lon="5.02576">
        <ele>199</ele>
        <time>2019-07-08T08:46:59Z</time>
      </trkpt>
      <trkpt lat="44.72632" lon="5.02576">
        <ele>199</ele>
        <time>2019-07-08T08:47:10Z</time>
      </trkpt>
      <trkpt lat="44.72632" lon="5.02576">
        <ele>199</ele>
        <time>2019-07-08T08:47:22Z</time>
      </trkpt>
      <trkpt lat="44.72632" lon="5.02576">
        <ele>199</ele>
        <time>2019-07-08T08:47:34Z</time>
      </trkpt>
      <trkpt lat="44.72632" lon="5.02576">
        <ele>199</ele>
        <time>2019-07-08T08:47:48Z</time>
      </trkpt>
      <trkpt lat="44.72632" lon="5.02576">
        <ele>199</ele>
        <time>2019-07-08T08:47:59Z</time>
      </trkpt>
      <trkpt lat="44.72632" lon="5.02576">
        <ele>199</ele>
        <time>2019-07-08T08:48:15Z</time>
      </trkpt>
      <trkpt lat="44.72633" lon="5.02576">
        <ele>199</ele>
        <time>2019-07-08T08:48:30Z</time>
      </trkpt>
      <trkpt lat="44.72633" lon="5.02576">
        <ele>199</ele>
        <time>2019-07-08T08:48:46Z</time>
      </trkpt>
      <trkpt lat="44.72633" lon="5.02576">
        <ele>199</ele>
        <time>2019-07-08T08:49:02Z</time>
      </trkpt>
      <trkpt lat="44.72633" lon="5.02576">
        <ele>199</ele>
        <time>2019-07-08T08:49:16Z</time>
      </trkpt>
      <trkpt lat="44.72633" lon="5.02576">
        <ele>199</ele>
        <time>2019-07-08T08:49:30Z</time>
      </trkpt>
      <trkpt lat="44.72633" lon="5.02575">
        <ele>199</ele>
        <time>2019-07-08T08:49:45Z</time>
      </trkpt>
      <trkpt lat="44.72633" lon="5.02575">
        <ele>199</ele>
        <time>2019-07-08T08:49:51Z</time>
      </trkpt>
      <trkpt lat="44.72633" lon="5.02575">
        <ele>199</ele>
        <time>2019-07-08T08:49:58Z</time>
      </trkpt>
      <trkpt lat="44.72633" lon="5.02575">
        <ele>199</ele>
        <time>2019-07-08T08:50:09Z</time>
      </trkpt>
      <trkpt lat="44.72633" lon="5.02575">
        <ele>199</ele>
        <time>2019-07-08T08:50:22Z</time>
      </trkpt>
      <trkpt lat="44.72633" lon="5.02575">
        <ele>198.60000610352</ele>
        <time>2019-07-08T08:50:28Z</time>
      </trkpt>
      <trkpt lat="44.72633" lon="5.02575">
        <ele>198.19999694824</ele>
        <time>2019-07-08T08:50:29Z</time>
      </trkpt>
      <trkpt lat="44.72633" lon="5.02575">
        <ele>197.80000305176</ele>
        <time>2019-07-08T08:50:30Z</time>
      </trkpt>
      <trkpt lat="44.72633" lon="5.02575">
        <ele>197.39999389648</ele>
        <time>2019-07-08T08:50:31Z</time>
      </trkpt>
      <trkpt lat="44.72633" lon="5.02575">
        <ele>197</ele>
        <time>2019-07-08T08:50:32Z</time>
      </trkpt>
      <trkpt lat="44.72633" lon="5.02575">
        <ele>197</ele>
        <time>2019-07-08T08:50:34Z</time>
      </trkpt>
      <trkpt lat="44.72633" lon="5.02575">
        <ele>197</ele>
        <time>2019-07-08T08:50:47Z</time>
      </trkpt>
      <trkpt lat="44.72633" lon="5.02574">
        <ele>197</ele>
        <time>2019-07-08T08:51:01Z</time>
      </trkpt>
      <trkpt lat="44.72633" lon="5.02574">
        <ele>197</ele>
        <time>2019-07-08T08:51:17Z</time>
      </trkpt>
      <trkpt lat="44.72633" lon="5.02574">
        <ele>197</ele>
        <time>2019-07-08T08:51:33Z</time>
      </trkpt>
      <trkpt lat="44.72633" lon="5.02574">
        <ele>197</ele>
        <time>2019-07-08T08:51:49Z</time>
      </trkpt>
      <trkpt lat="44.72633" lon="5.02574">
        <ele>197</ele>
        <time>2019-07-08T08:52:00Z</time>
      </trkpt>
      <trkpt lat="44.72633" lon="5.02574">
        <ele>197</ele>
        <time>2019-07-08T08:52:11Z</time>
      </trkpt>
      <trkpt lat="44.72633" lon="5.02573">
        <ele>197</ele>
        <time>2019-07-08T08:52:24Z</time>
      </trkpt>
      <trkpt lat="44.72633" lon="5.02573">
        <ele>197</ele>
        <time>2019-07-08T08:52:35Z</time>
      </trkpt>
      <trkpt lat="44.72633" lon="5.02573">
        <ele>197</ele>
        <time>2019-07-08T08:52:49Z</time>
      </trkpt>
      <trkpt lat="44.72633" lon="5.02573">
        <ele>197</ele>
        <time>2019-07-08T08:53:03Z</time>
      </trkpt>
      <trkpt lat="44.72633" lon="5.02573">
        <ele>197</ele>
        <time>2019-07-08T08:53:17Z</time>
      </trkpt>
      <trkpt lat="44.72633" lon="5.02573">
        <ele>197</ele>
        <time>2019-07-08T08:53:29Z</time>
      </trkpt>
      <trkpt lat="44.72633" lon="5.02572">
        <ele>197</ele>
        <time>2019-07-08T08:53:43Z</time>
      </trkpt>
      <trkpt lat="44.72633" lon="5.02572">
        <ele>197</ele>
        <time>2019-07-08T08:53:55Z</time>
      </trkpt>
      <trkpt lat="44.72633" lon="5.02572">
        <ele>197</ele>
        <time>2019-07-08T08:54:05Z</time>
      </trkpt>
      <trkpt lat="44.72633" lon="5.02572">
        <ele>197</ele>
        <time>2019-07-08T08:54:17Z</time>
      </trkpt>
      <trkpt lat="44.72634" lon="5.02572">
        <ele>197</ele>
        <time>2019-07-08T08:54:29Z</time>
      </trkpt>
      <trkpt lat="44.72634" lon="5.02572">
        <ele>197</ele>
        <time>2019-07-08T08:54:37Z</time>
      </trkpt>
      <trkpt lat="44.72634" lon="5.02569">
        <ele>197</ele>
        <time>2019-07-08T08:54:41Z</time>
      </trkpt>
      <trkpt lat="44.72637" lon="5.02552">
        <ele>197</ele>
        <time>2019-07-08T08:54:46Z</time>
      </trkpt>
      <trkpt lat="44.72638" lon="5.02542">
        <ele>197</ele>
        <time>2019-07-08T08:54:50Z</time>
      </trkpt>
      <trkpt lat="44.72638" lon="5.02536">
        <ele>197</ele>
        <time>2019-07-08T08:54:52Z</time>
      </trkpt>
      <trkpt lat="44.72639" lon="5.0252">
        <ele>197</ele>
        <time>2019-07-08T08:54:57Z</time>
      </trkpt>
      <trkpt lat="44.72643" lon="5.02498">
        <ele>197</ele>
        <time>2019-07-08T08:55:04Z</time>
      </trkpt>
      <trkpt lat="44.72648" lon="5.02468">
        <ele>197</ele>
        <time>2019-07-08T08:55:14Z</time>
      </trkpt>
      <trkpt lat="44.72652" lon="5.02455">
        <ele>197</ele>
        <time>2019-07-08T08:55:18Z</time>
      </trkpt>
      <trkpt lat="44.72658" lon="5.0243">
        <ele>197</ele>
        <time>2019-07-08T08:55:24Z</time>
      </trkpt>
      <trkpt lat="44.72663" lon="5.02418">
        <ele>197</ele>
        <time>2019-07-08T08:55:27Z</time>
      </trkpt>
      <trkpt lat="44.72665" lon="5.02415">
        <ele>197</ele>
        <time>2019-07-08T08:55:28Z</time>
      </trkpt>
      <trkpt lat="44.72675" lon="5.02396">
        <ele>197</ele>
        <time>2019-07-08T08:55:33Z</time>
      </trkpt>
      <trkpt lat="44.7268" lon="5.02371">
        <ele>197</ele>
        <time>2019-07-08T08:55:39Z</time>
      </trkpt>
      <trkpt lat="44.72686" lon="5.02357">
        <ele>197</ele>
        <time>2019-07-08T08:55:44Z</time>
      </trkpt>
      <trkpt lat="44.72693" lon="5.02339">
        <ele>197</ele>
        <time>2019-07-08T08:55:51Z</time>
      </trkpt>
      <trkpt lat="44.72698" lon="5.02318">
        <ele>197</ele>
        <time>2019-07-08T08:55:57Z</time>
      </trkpt>
      <trkpt lat="44.72704" lon="5.02298">
        <ele>197</ele>
        <time>2019-07-08T08:56:02Z</time>
      </trkpt>
      <trkpt lat="44.72707" lon="5.02292">
        <ele>197</ele>
        <time>2019-07-08T08:56:04Z</time>
      </trkpt>
      <trkpt lat="44.72711" lon="5.02288">
        <ele>197</ele>
        <time>2019-07-08T08:56:06Z</time>
      </trkpt>
      <trkpt lat="44.72712" lon="5.02286">
        <ele>197</ele>
        <time>2019-07-08T08:56:07Z</time>
      </trkpt>
      <trkpt lat="44.72715" lon="5.02282">
        <ele>197</ele>
        <time>2019-07-08T08:56:10Z</time>
      </trkpt>
      <trkpt lat="44.72715" lon="5.02281">
        <ele>197</ele>
        <time>2019-07-08T08:56:17Z</time>
      </trkpt>
      <trkpt lat="44.72715" lon="5.02281">
        <ele>197</ele>
        <time>2019-07-08T08:56:30Z</time>
      </trkpt>
      <trkpt lat="44.72716" lon="5.0228">
        <ele>197</ele>
        <time>2019-07-08T08:56:43Z</time>
      </trkpt>
      <trkpt lat="44.7272" lon="5.0227">
        <ele>197</ele>
        <time>2019-07-08T08:56:47Z</time>
      </trkpt>
      <trkpt lat="44.72726" lon="5.02243">
        <ele>197</ele>
        <time>2019-07-08T08:56:53Z</time>
      </trkpt>
      <trkpt lat="44.7273" lon="5.02229">
        <ele>197</ele>
        <time>2019-07-08T08:56:57Z</time>
      </trkpt>
      <trkpt lat="44.72735" lon="5.02213">
        <ele>197</ele>
        <time>2019-07-08T08:57:01Z</time>
      </trkpt>
      <trkpt lat="44.72739" lon="5.02201">
        <ele>197</ele>
        <time>2019-07-08T08:57:05Z</time>
      </trkpt>
      <trkpt lat="44.72741" lon="5.02186">
        <ele>197</ele>
        <time>2019-07-08T08:57:10Z</time>
      </trkpt>
      <trkpt lat="44.72744" lon="5.0217">
        <ele>197</ele>
        <time>2019-07-08T08:57:15Z</time>
      </trkpt>
      <trkpt lat="44.72744" lon="5.02165">
        <ele>197</ele>
        <time>2019-07-08T08:57:17Z</time>
      </trkpt>
      <trkpt lat="44.72745" lon="5.02149">
        <ele>197</ele>
        <time>2019-07-08T08:57:21Z</time>
      </trkpt>
      <trkpt lat="44.72747" lon="5.02146">
        <ele>197</ele>
        <time>2019-07-08T08:57:22Z</time>
      </trkpt>
      <trkpt lat="44.72751" lon="5.02131">
        <ele>197</ele>
        <time>2019-07-08T08:57:25Z</time>
      </trkpt>
      <trkpt lat="44.72753" lon="5.02125">
        <ele>197</ele>
        <time>2019-07-08T08:57:26Z</time>
      </trkpt>
      <trkpt lat="44.7276" lon="5.02092">
        <ele>197</ele>
        <time>2019-07-08T08:57:32Z</time>
      </trkpt>
      <trkpt lat="44.72768" lon="5.02058">
        <ele>197</ele>
        <time>2019-07-08T08:57:39Z</time>
      </trkpt>
      <trkpt lat="44.72773" lon="5.02037">
        <ele>196.60000610352</ele>
        <time>2019-07-08T08:57:43Z</time>
      </trkpt>
      <trkpt lat="44.72774" lon="5.02032">
        <ele>196.19999694824</ele>
        <time>2019-07-08T08:57:44Z</time>
      </trkpt>
      <trkpt lat="44.72775" lon="5.02026">
        <ele>195.80000305176</ele>
        <time>2019-07-08T08:57:45Z</time>
      </trkpt>
      <trkpt lat="44.72777" lon="5.02021">
        <ele>195.39999389648</ele>
        <time>2019-07-08T08:57:46Z</time>
      </trkpt>
      <trkpt lat="44.72778" lon="5.02015">
        <ele>195</ele>
        <time>2019-07-08T08:57:47Z</time>
      </trkpt>
      <trkpt lat="44.72781" lon="5.02003">
        <ele>195</ele>
        <time>2019-07-08T08:57:49Z</time>
      </trkpt>
      <trkpt lat="44.72782" lon="5.01997">
        <ele>195</ele>
        <time>2019-07-08T08:57:50Z</time>
      </trkpt>
      <trkpt lat="44.72789" lon="5.01963">
        <ele>195</ele>
        <time>2019-07-08T08:57:56Z</time>
      </trkpt>
      <trkpt lat="44.72795" lon="5.01931">
        <ele>195</ele>
        <time>2019-07-08T08:58:02Z</time>
      </trkpt>
      <trkpt lat="44.72799" lon="5.01907">
        <ele>195</ele>
        <time>2019-07-08T08:58:07Z</time>
      </trkpt>
      <trkpt lat="44.72807" lon="5.01872">
        <ele>195</ele>
        <time>2019-07-08T08:58:14Z</time>
      </trkpt>
      <trkpt lat="44.72811" lon="5.01857">
        <ele>195</ele>
        <time>2019-07-08T08:58:19Z</time>
      </trkpt>
      <trkpt lat="44.72811" lon="5.01856">
        <ele>195</ele>
        <time>2019-07-08T08:58:25Z</time>
      </trkpt>
      <trkpt lat="44.72812" lon="5.01852">
        <ele>195</ele>
        <time>2019-07-08T08:58:26Z</time>
      </trkpt>
      <trkpt lat="44.72813" lon="5.01834">
        <ele>195</ele>
        <time>2019-07-08T08:58:29Z</time>
      </trkpt>
      <trkpt lat="44.72816" lon="5.01805">
        <ele>195</ele>
        <time>2019-07-08T08:58:35Z</time>
      </trkpt>
      <trkpt lat="44.7282" lon="5.01777">
        <ele>195</ele>
        <time>2019-07-08T08:58:41Z</time>
      </trkpt>
      <trkpt lat="44.72824" lon="5.01754">
        <ele>195</ele>
        <time>2019-07-08T08:58:46Z</time>
      </trkpt>
      <trkpt lat="44.72827" lon="5.01724">
        <ele>195</ele>
        <time>2019-07-08T08:58:52Z</time>
      </trkpt>
      <trkpt lat="44.7283" lon="5.01692">
        <ele>195</ele>
        <time>2019-07-08T08:58:57Z</time>
      </trkpt>
      <trkpt lat="44.7283" lon="5.01686">
        <ele>195</ele>
        <time>2019-07-08T08:58:58Z</time>
      </trkpt>
      <trkpt lat="44.72834" lon="5.01652">
        <ele>194.60000610352</ele>
        <time>2019-07-08T08:59:03Z</time>
      </trkpt>
      <trkpt lat="44.72835" lon="5.01646">
        <ele>194.19999694824</ele>
        <time>2019-07-08T08:59:04Z</time>
      </trkpt>
      <trkpt lat="44.72836" lon="5.01639">
        <ele>193.60000610352</ele>
        <time>2019-07-08T08:59:05Z</time>
      </trkpt>
      <trkpt lat="44.72837" lon="5.01633">
        <ele>193.19999694824</ele>
        <time>2019-07-08T08:59:06Z</time>
      </trkpt>
      <trkpt lat="44.72838" lon="5.01627">
        <ele>192.80000305176</ele>
        <time>2019-07-08T08:59:07Z</time>
      </trkpt>
      <trkpt lat="44.72841" lon="5.01598">
        <ele>192.80000305176</ele>
        <time>2019-07-08T08:59:12Z</time>
      </trkpt>
      <trkpt lat="44.72847" lon="5.01561">
        <ele>192.80000305176</ele>
        <time>2019-07-08T08:59:19Z</time>
      </trkpt>
      <trkpt lat="44.72854" lon="5.0152">
        <ele>192.80000305176</ele>
        <time>2019-07-08T08:59:27Z</time>
      </trkpt>
      <trkpt lat="44.72855" lon="5.01515">
        <ele>192.80000305176</ele>
        <time>2019-07-08T08:59:28Z</time>
      </trkpt>
      <trkpt lat="44.72858" lon="5.01491">
        <ele>192.80000305176</ele>
        <time>2019-07-08T08:59:32Z</time>
      </trkpt>
      <trkpt lat="44.72865" lon="5.01443">
        <ele>192.80000305176</ele>
        <time>2019-07-08T08:59:40Z</time>
      </trkpt>
      <trkpt lat="44.72871" lon="5.01398">
        <ele>192.80000305176</ele>
        <time>2019-07-08T08:59:47Z</time>
      </trkpt>
      <trkpt lat="44.72876" lon="5.01364">
        <ele>192.80000305176</ele>
        <time>2019-07-08T08:59:52Z</time>
      </trkpt>
      <trkpt lat="44.72877" lon="5.01357">
        <ele>192.80000305176</ele>
        <time>2019-07-08T08:59:53Z</time>
      </trkpt>
      <trkpt lat="44.72881" lon="5.01319">
        <ele>192.80000305176</ele>
        <time>2019-07-08T08:59:59Z</time>
      </trkpt>
      <trkpt lat="44.72882" lon="5.01306">
        <ele>192.80000305176</ele>
        <time>2019-07-08T09:00:01Z</time>
      </trkpt>
      <trkpt lat="44.72884" lon="5.01289">
        <ele>192.80000305176</ele>
        <time>2019-07-08T09:00:04Z</time>
      </trkpt>
      <trkpt lat="44.72883" lon="5.01283">
        <ele>192.80000305176</ele>
        <time>2019-07-08T09:00:05Z</time>
      </trkpt>
      <trkpt lat="44.72875" lon="5.01264">
        <ele>192.80000305176</ele>
        <time>2019-07-08T09:00:09Z</time>
      </trkpt>
      <trkpt lat="44.72876" lon="5.01246">
        <ele>192.80000305176</ele>
        <time>2019-07-08T09:00:12Z</time>
      </trkpt>
      <trkpt lat="44.72877" lon="5.01241">
        <ele>192.80000305176</ele>
        <time>2019-07-08T09:00:13Z</time>
      </trkpt>
      <trkpt lat="44.72886" lon="5.01218">
        <ele>192.80000305176</ele>
        <time>2019-07-08T09:00:18Z</time>
      </trkpt>
      <trkpt lat="44.72891" lon="5.01189">
        <ele>192.80000305176</ele>
        <time>2019-07-08T09:00:23Z</time>
      </trkpt>
      <trkpt lat="44.72893" lon="5.0117">
        <ele>192.80000305176</ele>
        <time>2019-07-08T09:00:26Z</time>
      </trkpt>
      <trkpt lat="44.72893" lon="5.01149">
        <ele>192.80000305176</ele>
        <time>2019-07-08T09:00:29Z</time>
      </trkpt>
      <trkpt lat="44.72899" lon="5.01099">
        <ele>192.80000305176</ele>
        <time>2019-07-08T09:00:36Z</time>
      </trkpt>
      <trkpt lat="44.729" lon="5.01092">
        <ele>192.80000305176</ele>
        <time>2019-07-08T09:00:37Z</time>
      </trkpt>
      <trkpt lat="44.72905" lon="5.01066">
        <ele>192.80000305176</ele>
        <time>2019-07-08T09:00:41Z</time>
      </trkpt>
      <trkpt lat="44.72912" lon="5.01033">
        <ele>192.39999389648</ele>
        <time>2019-07-08T09:00:46Z</time>
      </trkpt>
      <trkpt lat="44.72913" lon="5.01025">
        <ele>192</ele>
        <time>2019-07-08T09:00:47Z</time>
      </trkpt>
      <trkpt lat="44.72915" lon="5.01018">
        <ele>191.60000610352</ele>
        <time>2019-07-08T09:00:48Z</time>
      </trkpt>
      <trkpt lat="44.72916" lon="5.01011">
        <ele>191.19999694824</ele>
        <time>2019-07-08T09:00:49Z</time>
      </trkpt>
      <trkpt lat="44.72917" lon="5.01004">
        <ele>190.80000305176</ele>
        <time>2019-07-08T09:00:50Z</time>
      </trkpt>
      <trkpt lat="44.72921" lon="5.00968">
        <ele>190.80000305176</ele>
        <time>2019-07-08T09:00:55Z</time>
      </trkpt>
      <trkpt lat="44.7293" lon="5.00902">
        <ele>190.80000305176</ele>
        <time>2019-07-08T09:01:04Z</time>
      </trkpt>
      <trkpt lat="44.72934" lon="5.00858">
        <ele>190.80000305176</ele>
        <time>2019-07-08T09:01:10Z</time>
      </trkpt>
      <trkpt lat="44.72936" lon="5.00852">
        <ele>190.80000305176</ele>
        <time>2019-07-08T09:01:11Z</time>
      </trkpt>
      <trkpt lat="44.72944" lon="5.00809">
        <ele>190.80000305176</ele>
        <time>2019-07-08T09:01:17Z</time>
      </trkpt>
      <trkpt lat="44.72946" lon="5.0079">
        <ele>190.80000305176</ele>
        <time>2019-07-08T09:01:20Z</time>
      </trkpt>
      <trkpt lat="44.72947" lon="5.00771">
        <ele>190.80000305176</ele>
        <time>2019-07-08T09:01:23Z</time>
      </trkpt>
      <trkpt lat="44.72948" lon="5.00758">
        <ele>190.80000305176</ele>
        <time>2019-07-08T09:01:25Z</time>
      </trkpt>
      <trkpt lat="44.72952" lon="5.00748">
        <ele>190.80000305176</ele>
        <time>2019-07-08T09:01:27Z</time>
      </trkpt>
      <trkpt lat="44.72954" lon="5.00726">
        <ele>190.80000305176</ele>
        <time>2019-07-08T09:01:31Z</time>
      </trkpt>
      <trkpt lat="44.72954" lon="5.0072">
        <ele>190.80000305176</ele>
        <time>2019-07-08T09:01:32Z</time>
      </trkpt>
      <trkpt lat="44.72958" lon="5.00698">
        <ele>190.80000305176</ele>
        <time>2019-07-08T09:01:36Z</time>
      </trkpt>
      <trkpt lat="44.72961" lon="5.00687">
        <ele>190.80000305176</ele>
        <time>2019-07-08T09:01:38Z</time>
      </trkpt>
      <trkpt lat="44.72965" lon="5.00675">
        <ele>190.80000305176</ele>
        <time>2019-07-08T09:01:41Z</time>
      </trkpt>
      <trkpt lat="44.72968" lon="5.00652">
        <ele>190.80000305176</ele>
        <time>2019-07-08T09:01:47Z</time>
      </trkpt>
      <trkpt lat="44.72971" lon="5.00635">
        <ele>190.80000305176</ele>
        <time>2019-07-08T09:01:52Z</time>
      </trkpt>
      <trkpt lat="44.72973" lon="5.00631">
        <ele>190.80000305176</ele>
        <time>2019-07-08T09:01:57Z</time>
      </trkpt>
      <trkpt lat="44.72973" lon="5.00631">
        <ele>190.19999694824</ele>
        <time>2019-07-08T09:02:10Z</time>
      </trkpt>
      <trkpt lat="44.72973" lon="5.00631">
        <ele>189.80000305176</ele>
        <time>2019-07-08T09:02:11Z</time>
      </trkpt>
      <trkpt lat="44.72973" lon="5.00631">
        <ele>189.39999389648</ele>
        <time>2019-07-08T09:02:12Z</time>
      </trkpt>
      <trkpt lat="44.72973" lon="5.00631">
        <ele>188.80000305176</ele>
        <time>2019-07-08T09:02:13Z</time>
      </trkpt>
      <trkpt lat="44.72973" lon="5.00631">
        <ele>188.39999389648</ele>
        <time>2019-07-08T09:02:14Z</time>
      </trkpt>
      <trkpt lat="44.72973" lon="5.00631">
        <ele>188.39999389648</ele>
        <time>2019-07-08T09:02:28Z</time>
      </trkpt>
      <trkpt lat="44.72973" lon="5.00631">
        <ele>188.39999389648</ele>
        <time>2019-07-08T09:02:42Z</time>
      </trkpt>
      <trkpt lat="44.72972" lon="5.00632">
        <ele>188.39999389648</ele>
        <time>2019-07-08T09:02:53Z</time>
      </trkpt>
      <trkpt lat="44.72971" lon="5.00633">
        <ele>188.39999389648</ele>
        <time>2019-07-08T09:02:54Z</time>
      </trkpt>
      <trkpt lat="44.7297" lon="5.00631">
        <ele>188.39999389648</ele>
        <time>2019-07-08T09:02:56Z</time>
      </trkpt>
      <trkpt lat="44.72969" lon="5.00628">
        <ele>188.39999389648</ele>
        <time>2019-07-08T09:02:57Z</time>
      </trkpt>
      <trkpt lat="44.72972" lon="5.00614">
        <ele>188.39999389648</ele>
        <time>2019-07-08T09:03:01Z</time>
      </trkpt>
      <trkpt lat="44.72973" lon="5.0061">
        <ele>188.39999389648</ele>
        <time>2019-07-08T09:03:02Z</time>
      </trkpt>
      <trkpt lat="44.72975" lon="5.00583">
        <ele>188.39999389648</ele>
        <time>2019-07-08T09:03:08Z</time>
      </trkpt>
      <trkpt lat="44.7298" lon="5.00555">
        <ele>188.39999389648</ele>
        <time>2019-07-08T09:03:14Z</time>
      </trkpt>
      <trkpt lat="44.72986" lon="5.00531">
        <ele>188.39999389648</ele>
        <time>2019-07-08T09:03:19Z</time>
      </trkpt>
      <trkpt lat="44.72998" lon="5.00489">
        <ele>188.39999389648</ele>
        <time>2019-07-08T09:03:26Z</time>
      </trkpt>
      <trkpt lat="44.73007" lon="5.00454">
        <ele>188.39999389648</ele>
        <time>2019-07-08T09:03:32Z</time>
      </trkpt>
      <trkpt lat="44.73013" lon="5.00429">
        <ele>188.39999389648</ele>
        <time>2019-07-08T09:03:36Z</time>
      </trkpt>
      <trkpt lat="44.73014" lon="5.00423">
        <ele>188.39999389648</ele>
        <time>2019-07-08T09:03:37Z</time>
      </trkpt>
      <trkpt lat="44.73014" lon="5.0041">
        <ele>188.39999389648</ele>
        <time>2019-07-08T09:03:39Z</time>
      </trkpt>
      <trkpt lat="44.73015" lon="5.00397">
        <ele>188.39999389648</ele>
        <time>2019-07-08T09:03:41Z</time>
      </trkpt>
      <trkpt lat="44.73016" lon="5.00384">
        <ele>188.39999389648</ele>
        <time>2019-07-08T09:03:43Z</time>
      </trkpt>
      <trkpt lat="44.73021" lon="5.00329">
        <ele>188.39999389648</ele>
        <time>2019-07-08T09:03:51Z</time>
      </trkpt>
      <trkpt lat="44.73028" lon="5.00283">
        <ele>188.39999389648</ele>
        <time>2019-07-08T09:03:58Z</time>
      </trkpt>
      <trkpt lat="44.73029" lon="5.00261">
        <ele>188.39999389648</ele>
        <time>2019-07-08T09:04:02Z</time>
      </trkpt>
      <trkpt lat="44.73029" lon="5.00251">
        <ele>188.39999389648</ele>
        <time>2019-07-08T09:04:04Z</time>
      </trkpt>
      <trkpt lat="44.7303" lon="5.00237">
        <ele>188.39999389648</ele>
        <time>2019-07-08T09:04:09Z</time>
      </trkpt>
      <trkpt lat="44.7303" lon="5.00228">
        <ele>188.39999389648</ele>
        <time>2019-07-08T09:04:15Z</time>
      </trkpt>
      <trkpt lat="44.7303" lon="5.00225">
        <ele>188.39999389648</ele>
        <time>2019-07-08T09:04:16Z</time>
      </trkpt>
      <trkpt lat="44.73033" lon="5.00203">
        <ele>188.39999389648</ele>
        <time>2019-07-08T09:04:22Z</time>
      </trkpt>
      <trkpt lat="44.73038" lon="5.00189">
        <ele>188.39999389648</ele>
        <time>2019-07-08T09:04:26Z</time>
      </trkpt>
      <trkpt lat="44.73042" lon="5.00166">
        <ele>188.39999389648</ele>
        <time>2019-07-08T09:04:31Z</time>
      </trkpt>
      <trkpt lat="44.73049" lon="5.0013">
        <ele>188.39999389648</ele>
        <time>2019-07-08T09:04:37Z</time>
      </trkpt>
      <trkpt lat="44.7305" lon="5.00123">
        <ele>188.39999389648</ele>
        <time>2019-07-08T09:04:38Z</time>
      </trkpt>
      <trkpt lat="44.73051" lon="5.00103">
        <ele>188.39999389648</ele>
        <time>2019-07-08T09:04:41Z</time>
      </trkpt>
      <trkpt lat="44.73056" lon="5.00069">
        <ele>188.39999389648</ele>
        <time>2019-07-08T09:04:46Z</time>
      </trkpt>
      <trkpt lat="44.73056" lon="5.00062">
        <ele>188.39999389648</ele>
        <time>2019-07-08T09:04:47Z</time>
      </trkpt>
      <trkpt lat="44.73064" lon="5.00018">
        <ele>188.39999389648</ele>
        <time>2019-07-08T09:04:54Z</time>
      </trkpt>
      <trkpt lat="44.73069" lon="4.99989">
        <ele>188.39999389648</ele>
        <time>2019-07-08T09:05:00Z</time>
      </trkpt>
      <trkpt lat="44.73073" lon="4.99963">
        <ele>188.39999389648</ele>
        <time>2019-07-08T09:05:05Z</time>
      </trkpt>
      <trkpt lat="44.73075" lon="4.99952">
        <ele>188.39999389648</ele>
        <time>2019-07-08T09:05:07Z</time>
      </trkpt>
      <trkpt lat="44.73077" lon="4.9994">
        <ele>188.39999389648</ele>
        <time>2019-07-08T09:05:09Z</time>
      </trkpt>
      <trkpt lat="44.73079" lon="4.99921">
        <ele>188.39999389648</ele>
        <time>2019-07-08T09:05:12Z</time>
      </trkpt>
      <trkpt lat="44.73083" lon="4.99897">
        <ele>188.39999389648</ele>
        <time>2019-07-08T09:05:16Z</time>
      </trkpt>
      <trkpt lat="44.73086" lon="4.99873">
        <ele>188.39999389648</ele>
        <time>2019-07-08T09:05:20Z</time>
      </trkpt>
      <trkpt lat="44.73091" lon="4.9984">
        <ele>188.39999389648</ele>
        <time>2019-07-08T09:05:26Z</time>
      </trkpt>
      <trkpt lat="44.73096" lon="4.99811">
        <ele>188.39999389648</ele>
        <time>2019-07-08T09:05:32Z</time>
      </trkpt>
      <trkpt lat="44.73101" lon="4.99786">
        <ele>188.39999389648</ele>
        <time>2019-07-08T09:05:38Z</time>
      </trkpt>
      <trkpt lat="44.73102" lon="4.99759">
        <ele>188.39999389648</ele>
        <time>2019-07-08T09:05:44Z</time>
      </trkpt>
      <trkpt lat="44.73104" lon="4.99737">
        <ele>188.39999389648</ele>
        <time>2019-07-08T09:05:49Z</time>
      </trkpt>
      <trkpt lat="44.73108" lon="4.99708">
        <ele>188.39999389648</ele>
        <time>2019-07-08T09:05:54Z</time>
      </trkpt>
      <trkpt lat="44.7311" lon="4.99682">
        <ele>188.39999389648</ele>
        <time>2019-07-08T09:05:58Z</time>
      </trkpt>
      <trkpt lat="44.73112" lon="4.99668">
        <ele>188.39999389648</ele>
        <time>2019-07-08T09:06:00Z</time>
      </trkpt>
      <trkpt lat="44.73117" lon="4.99629">
        <ele>188.39999389648</ele>
        <time>2019-07-08T09:06:06Z</time>
      </trkpt>
      <trkpt lat="44.73121" lon="4.99575">
        <ele>188.39999389648</ele>
        <time>2019-07-08T09:06:13Z</time>
      </trkpt>
      <trkpt lat="44.73125" lon="4.99539">
        <ele>188.39999389648</ele>
        <time>2019-07-08T09:06:18Z</time>
      </trkpt>
      <trkpt lat="44.73125" lon="4.99531">
        <ele>188.39999389648</ele>
        <time>2019-07-08T09:06:19Z</time>
      </trkpt>
      <trkpt lat="44.73131" lon="4.99486">
        <ele>188.39999389648</ele>
        <time>2019-07-08T09:06:25Z</time>
      </trkpt>
      <trkpt lat="44.73136" lon="4.9944">
        <ele>188.39999389648</ele>
        <time>2019-07-08T09:06:31Z</time>
      </trkpt>
      <trkpt lat="44.73137" lon="4.99432">
        <ele>188</ele>
        <time>2019-07-08T09:06:32Z</time>
      </trkpt>
      <trkpt lat="44.73138" lon="4.99424">
        <ele>187.60000610352</ele>
        <time>2019-07-08T09:06:33Z</time>
      </trkpt>
      <trkpt lat="44.73139" lon="4.99416">
        <ele>187.19999694824</ele>
        <time>2019-07-08T09:06:34Z</time>
      </trkpt>
      <trkpt lat="44.7314" lon="4.99407">
        <ele>186.80000305176</ele>
        <time>2019-07-08T09:06:35Z</time>
      </trkpt>
      <trkpt lat="44.73141" lon="4.99399">
        <ele>186.39999389648</ele>
        <time>2019-07-08T09:06:36Z</time>
      </trkpt>
      <trkpt lat="44.73144" lon="4.99374">
        <ele>186.39999389648</ele>
        <time>2019-07-08T09:06:39Z</time>
      </trkpt>
      <trkpt lat="44.73149" lon="4.99326">
        <ele>186.39999389648</ele>
        <time>2019-07-08T09:06:45Z</time>
      </trkpt>
      <trkpt lat="44.7315" lon="4.9931">
        <ele>186.39999389648</ele>
        <time>2019-07-08T09:06:47Z</time>
      </trkpt>
      <trkpt lat="44.73153" lon="4.99285">
        <ele>186.39999389648</ele>
        <time>2019-07-08T09:06:50Z</time>
      </trkpt>
      <trkpt lat="44.73154" lon="4.99276">
        <ele>186.39999389648</ele>
        <time>2019-07-08T09:06:51Z</time>
      </trkpt>
      <trkpt lat="44.73161" lon="4.99218">
        <ele>186.39999389648</ele>
        <time>2019-07-08T09:06:58Z</time>
      </trkpt>
      <trkpt lat="44.73166" lon="4.99176">
        <ele>186.39999389648</ele>
        <time>2019-07-08T09:07:03Z</time>
      </trkpt>
      <trkpt lat="44.73167" lon="4.99169">
        <ele>186.39999389648</ele>
        <time>2019-07-08T09:07:04Z</time>
      </trkpt>
      <trkpt lat="44.73171" lon="4.99131">
        <ele>186.39999389648</ele>
        <time>2019-07-08T09:07:09Z</time>
      </trkpt>
      <trkpt lat="44.73178" lon="4.9908">
        <ele>186.39999389648</ele>
        <time>2019-07-08T09:07:16Z</time>
      </trkpt>
      <trkpt lat="44.73183" lon="4.99042">
        <ele>186.39999389648</ele>
        <time>2019-07-08T09:07:22Z</time>
      </trkpt>
      <trkpt lat="44.73187" lon="4.99023">
        <ele>186.39999389648</ele>
        <time>2019-07-08T09:07:25Z</time>
      </trkpt>
      <trkpt lat="44.73188" lon="4.99011">
        <ele>186.39999389648</ele>
        <time>2019-07-08T09:07:27Z</time>
      </trkpt>
      <trkpt lat="44.73191" lon="4.98979">
        <ele>186.39999389648</ele>
        <time>2019-07-08T09:07:32Z</time>
      </trkpt>
      <trkpt lat="44.73192" lon="4.98973">
        <ele>186.39999389648</ele>
        <time>2019-07-08T09:07:33Z</time>
      </trkpt>
      <trkpt lat="44.73196" lon="4.98947">
        <ele>186.39999389648</ele>
        <time>2019-07-08T09:07:37Z</time>
      </trkpt>
      <trkpt lat="44.732" lon="4.98907">
        <ele>186.39999389648</ele>
        <time>2019-07-08T09:07:43Z</time>
      </trkpt>
      <trkpt lat="44.73203" lon="4.98887">
        <ele>186</ele>
        <time>2019-07-08T09:07:46Z</time>
      </trkpt>
      <trkpt lat="44.73203" lon="4.98881">
        <ele>185.39999389648</ele>
        <time>2019-07-08T09:07:47Z</time>
      </trkpt>
      <trkpt lat="44.73204" lon="4.98874">
        <ele>185</ele>
        <time>2019-07-08T09:07:48Z</time>
      </trkpt>
      <trkpt lat="44.73205" lon="4.98868">
        <ele>184.60000610352</ele>
        <time>2019-07-08T09:07:49Z</time>
      </trkpt>
      <trkpt lat="44.73205" lon="4.98862">
        <ele>184.19999694824</ele>
        <time>2019-07-08T09:07:50Z</time>
      </trkpt>
      <trkpt lat="44.73207" lon="4.98848">
        <ele>184.19999694824</ele>
        <time>2019-07-08T09:07:52Z</time>
      </trkpt>
      <trkpt lat="44.73208" lon="4.98835">
        <ele>184.19999694824</ele>
        <time>2019-07-08T09:07:54Z</time>
      </trkpt>
      <trkpt lat="44.7321" lon="4.98823">
        <ele>184.19999694824</ele>
        <time>2019-07-08T09:07:56Z</time>
      </trkpt>
      <trkpt lat="44.73211" lon="4.98805">
        <ele>184.19999694824</ele>
        <time>2019-07-08T09:07:59Z</time>
      </trkpt>
      <trkpt lat="44.73216" lon="4.98773">
        <ele>184.19999694824</ele>
        <time>2019-07-08T09:08:04Z</time>
      </trkpt>
      <trkpt lat="44.73217" lon="4.98745">
        <ele>184.19999694824</ele>
        <time>2019-07-08T09:08:08Z</time>
      </trkpt>
      <trkpt lat="44.73218" lon="4.98737">
        <ele>184.19999694824</ele>
        <time>2019-07-08T09:08:09Z</time>
      </trkpt>
      <trkpt lat="44.7322" lon="4.9872">
        <ele>183.80000305176</ele>
        <time>2019-07-08T09:08:11Z</time>
      </trkpt>
      <trkpt lat="44.73221" lon="4.98712">
        <ele>183.39999389648</ele>
        <time>2019-07-08T09:08:12Z</time>
      </trkpt>
      <trkpt lat="44.73222" lon="4.98704">
        <ele>182.80000305176</ele>
        <time>2019-07-08T09:08:13Z</time>
      </trkpt>
      <trkpt lat="44.73223" lon="4.98697">
        <ele>182.39999389648</ele>
        <time>2019-07-08T09:08:14Z</time>
      </trkpt>
      <trkpt lat="44.73224" lon="4.9869">
        <ele>182</ele>
        <time>2019-07-08T09:08:15Z</time>
      </trkpt>
      <trkpt lat="44.73226" lon="4.98666">
        <ele>182</ele>
        <time>2019-07-08T09:08:19Z</time>
      </trkpt>
      <trkpt lat="44.7323" lon="4.98633">
        <ele>182</ele>
        <time>2019-07-08T09:08:25Z</time>
      </trkpt>
      <trkpt lat="44.73233" lon="4.98616">
        <ele>182</ele>
        <time>2019-07-08T09:08:28Z</time>
      </trkpt>
      <trkpt lat="44.73234" lon="4.98597">
        <ele>182</ele>
        <time>2019-07-08T09:08:31Z</time>
      </trkpt>
      <trkpt lat="44.7324" lon="4.9856">
        <ele>182</ele>
        <time>2019-07-08T09:08:37Z</time>
      </trkpt>
      <trkpt lat="44.73241" lon="4.98548">
        <ele>182</ele>
        <time>2019-07-08T09:08:39Z</time>
      </trkpt>
      <trkpt lat="44.73244" lon="4.9852">
        <ele>182</ele>
        <time>2019-07-08T09:08:43Z</time>
      </trkpt>
      <trkpt lat="44.73248" lon="4.98479">
        <ele>182</ele>
        <time>2019-07-08T09:08:49Z</time>
      </trkpt>
      <trkpt lat="44.73255" lon="4.98426">
        <ele>182</ele>
        <time>2019-07-08T09:08:57Z</time>
      </trkpt>
      <trkpt lat="44.73261" lon="4.98383">
        <ele>182</ele>
        <time>2019-07-08T09:09:03Z</time>
      </trkpt>
      <trkpt lat="44.73262" lon="4.98376">
        <ele>182</ele>
        <time>2019-07-08T09:09:04Z</time>
      </trkpt>
      <trkpt lat="44.73263" lon="4.9836">
        <ele>182</ele>
        <time>2019-07-08T09:09:06Z</time>
      </trkpt>
      <trkpt lat="44.73267" lon="4.98338">
        <ele>182</ele>
        <time>2019-07-08T09:09:09Z</time>
      </trkpt>
      <trkpt lat="44.73273" lon="4.98309">
        <ele>182</ele>
        <time>2019-07-08T09:09:13Z</time>
      </trkpt>
      <trkpt lat="44.73273" lon="4.98302">
        <ele>182</ele>
        <time>2019-07-08T09:09:14Z</time>
      </trkpt>
      <trkpt lat="44.73277" lon="4.98248">
        <ele>182</ele>
        <time>2019-07-08T09:09:21Z</time>
      </trkpt>
      <trkpt lat="44.73279" lon="4.98233">
        <ele>182</ele>
        <time>2019-07-08T09:09:23Z</time>
      </trkpt>
      <trkpt lat="44.73281" lon="4.9821">
        <ele>182</ele>
        <time>2019-07-08T09:09:26Z</time>
      </trkpt>
      <trkpt lat="44.73283" lon="4.98173">
        <ele>182</ele>
        <time>2019-07-08T09:09:31Z</time>
      </trkpt>
      <trkpt lat="44.73284" lon="4.98166">
        <ele>182</ele>
        <time>2019-07-08T09:09:32Z</time>
      </trkpt>
      <trkpt lat="44.7329" lon="4.98129">
        <ele>182</ele>
        <time>2019-07-08T09:09:38Z</time>
      </trkpt>
      <trkpt lat="44.73293" lon="4.9811">
        <ele>182</ele>
        <time>2019-07-08T09:09:43Z</time>
      </trkpt>
      <trkpt lat="44.73296" lon="4.98087">
        <ele>182</ele>
        <time>2019-07-08T09:09:49Z</time>
      </trkpt>
      <trkpt lat="44.733" lon="4.98052">
        <ele>182</ele>
        <time>2019-07-08T09:09:54Z</time>
      </trkpt>
      <trkpt lat="44.73306" lon="4.98004">
        <ele>182</ele>
        <time>2019-07-08T09:10:01Z</time>
      </trkpt>
      <trkpt lat="44.73306" lon="4.97998">
        <ele>182</ele>
        <time>2019-07-08T09:10:02Z</time>
      </trkpt>
      <trkpt lat="44.73311" lon="4.97963">
        <ele>182</ele>
        <time>2019-07-08T09:10:08Z</time>
      </trkpt>
      <trkpt lat="44.73311" lon="4.97958">
        <ele>181.19999694824</ele>
        <time>2019-07-08T09:10:09Z</time>
      </trkpt>
      <trkpt lat="44.73312" lon="4.97952">
        <ele>180.80000305176</ele>
        <time>2019-07-08T09:10:10Z</time>
      </trkpt>
      <trkpt lat="44.73312" lon="4.97947">
        <ele>180.39999389648</ele>
        <time>2019-07-08T09:10:11Z</time>
      </trkpt>
      <trkpt lat="44.73312" lon="4.97943">
        <ele>180</ele>
        <time>2019-07-08T09:10:12Z</time>
      </trkpt>
      <trkpt lat="44.73313" lon="4.97934">
        <ele>180</ele>
        <time>2019-07-08T09:10:14Z</time>
      </trkpt>
      <trkpt lat="44.73317" lon="4.97903">
        <ele>180</ele>
        <time>2019-07-08T09:10:20Z</time>
      </trkpt>
      <trkpt lat="44.73322" lon="4.97877">
        <ele>180</ele>
        <time>2019-07-08T09:10:26Z</time>
      </trkpt>
      <trkpt lat="44.73325" lon="4.9785">
        <ele>180</ele>
        <time>2019-07-08T09:10:31Z</time>
      </trkpt>
      <trkpt lat="44.7333" lon="4.97825">
        <ele>180</ele>
        <time>2019-07-08T09:10:35Z</time>
      </trkpt>
      <trkpt lat="44.73332" lon="4.97812">
        <ele>180</ele>
        <time>2019-07-08T09:10:37Z</time>
      </trkpt>
      <trkpt lat="44.73335" lon="4.978">
        <ele>180</ele>
        <time>2019-07-08T09:10:39Z</time>
      </trkpt>
      <trkpt lat="44.73339" lon="4.97779">
        <ele>180</ele>
        <time>2019-07-08T09:10:42Z</time>
      </trkpt>
      <trkpt lat="44.73347" lon="4.97741">
        <ele>180</ele>
        <time>2019-07-08T09:10:48Z</time>
      </trkpt>
      <trkpt lat="44.73356" lon="4.97708">
        <ele>180</ele>
        <time>2019-07-08T09:10:54Z</time>
      </trkpt>
      <trkpt lat="44.73361" lon="4.97692">
        <ele>180</ele>
        <time>2019-07-08T09:10:57Z</time>
      </trkpt>
      <trkpt lat="44.73361" lon="4.9768">
        <ele>180</ele>
        <time>2019-07-08T09:10:59Z</time>
      </trkpt>
      <trkpt lat="44.73358" lon="4.9767">
        <ele>180</ele>
        <time>2019-07-08T09:11:01Z</time>
      </trkpt>
      <trkpt lat="44.73358" lon="4.97665">
        <ele>179.39999389648</ele>
        <time>2019-07-08T09:11:02Z</time>
      </trkpt>
      <trkpt lat="44.73358" lon="4.97662">
        <ele>179</ele>
        <time>2019-07-08T09:11:03Z</time>
      </trkpt>
      <trkpt lat="44.73358" lon="4.97659">
        <ele>178.60000610352</ele>
        <time>2019-07-08T09:11:04Z</time>
      </trkpt>
      <trkpt lat="44.73358" lon="4.97655">
        <ele>178</ele>
        <time>2019-07-08T09:11:05Z</time>
      </trkpt>
      <trkpt lat="44.73359" lon="4.9765">
        <ele>177.60000610352</ele>
        <time>2019-07-08T09:11:06Z</time>
      </trkpt>
      <trkpt lat="44.7336" lon="4.97646">
        <ele>177.60000610352</ele>
        <time>2019-07-08T09:11:07Z</time>
      </trkpt>
      <trkpt lat="44.7336" lon="4.97632">
        <ele>177.60000610352</ele>
        <time>2019-07-08T09:11:10Z</time>
      </trkpt>
      <trkpt lat="44.7336" lon="4.97624">
        <ele>177.60000610352</ele>
        <time>2019-07-08T09:11:12Z</time>
      </trkpt>
      <trkpt lat="44.73356" lon="4.97608">
        <ele>177.60000610352</ele>
        <time>2019-07-08T09:11:17Z</time>
      </trkpt>
      <trkpt lat="44.73355" lon="4.97597">
        <ele>177.60000610352</ele>
        <time>2019-07-08T09:11:19Z</time>
      </trkpt>
      <trkpt lat="44.73359" lon="4.97583">
        <ele>177.19999694824</ele>
        <time>2019-07-08T09:11:21Z</time>
      </trkpt>
      <trkpt lat="44.7336" lon="4.97577">
        <ele>176.80000305176</ele>
        <time>2019-07-08T09:11:22Z</time>
      </trkpt>
      <trkpt lat="44.73363" lon="4.97568">
        <ele>176</ele>
        <time>2019-07-08T09:11:23Z</time>
      </trkpt>
      <trkpt lat="44.73364" lon="4.9756">
        <ele>175.60000610352</ele>
        <time>2019-07-08T09:11:24Z</time>
      </trkpt>
      <trkpt lat="44.73368" lon="4.97551">
        <ele>175.60000610352</ele>
        <time>2019-07-08T09:11:26Z</time>
      </trkpt>
      <trkpt lat="44.73375" lon="4.97544">
        <ele>175.60000610352</ele>
        <time>2019-07-08T09:11:30Z</time>
      </trkpt>
      <trkpt lat="44.73376" lon="4.97543">
        <ele>175.60000610352</ele>
        <time>2019-07-08T09:11:31Z</time>
      </trkpt>
      <trkpt lat="44.73378" lon="4.97542">
        <ele>175.60000610352</ele>
        <time>2019-07-08T09:11:32Z</time>
      </trkpt>
      <trkpt lat="44.73385" lon="4.97543">
        <ele>175.60000610352</ele>
        <time>2019-07-08T09:11:35Z</time>
      </trkpt>
      <trkpt lat="44.73389" lon="4.97543">
        <ele>175.60000610352</ele>
        <time>2019-07-08T09:11:36Z</time>
      </trkpt>
      <trkpt lat="44.73399" lon="4.97537">
        <ele>175.60000610352</ele>
        <time>2019-07-08T09:11:39Z</time>
      </trkpt>
      <trkpt lat="44.73404" lon="4.97529">
        <ele>175.60000610352</ele>
        <time>2019-07-08T09:11:41Z</time>
      </trkpt>
      <trkpt lat="44.73407" lon="4.97518">
        <ele>175.60000610352</ele>
        <time>2019-07-08T09:11:43Z</time>
      </trkpt>
      <trkpt lat="44.7341" lon="4.97495">
        <ele>175.60000610352</ele>
        <time>2019-07-08T09:11:47Z</time>
      </trkpt>
      <trkpt lat="44.73413" lon="4.97472">
        <ele>175.60000610352</ele>
        <time>2019-07-08T09:11:51Z</time>
      </trkpt>
      <trkpt lat="44.73418" lon="4.9745">
        <ele>175.60000610352</ele>
        <time>2019-07-08T09:11:55Z</time>
      </trkpt>
      <trkpt lat="44.73429" lon="4.9744">
        <ele>175.60000610352</ele>
        <time>2019-07-08T09:11:59Z</time>
      </trkpt>
      <trkpt lat="44.7343" lon="4.97436">
        <ele>175.60000610352</ele>
        <time>2019-07-08T09:12:00Z</time>
      </trkpt>
      <trkpt lat="44.73434" lon="4.97428">
        <ele>175.60000610352</ele>
        <time>2019-07-08T09:12:02Z</time>
      </trkpt>
      <trkpt lat="44.73439" lon="4.97407">
        <ele>175.60000610352</ele>
        <time>2019-07-08T09:12:06Z</time>
      </trkpt>
      <trkpt lat="44.7344" lon="4.97388">
        <ele>175.60000610352</ele>
        <time>2019-07-08T09:12:09Z</time>
      </trkpt>
      <trkpt lat="44.73441" lon="4.97375">
        <ele>175.60000610352</ele>
        <time>2019-07-08T09:12:11Z</time>
      </trkpt>
      <trkpt lat="44.73449" lon="4.97348">
        <ele>175.60000610352</ele>
        <time>2019-07-08T09:12:15Z</time>
      </trkpt>
      <trkpt lat="44.73454" lon="4.97319">
        <ele>175.60000610352</ele>
        <time>2019-07-08T09:12:20Z</time>
      </trkpt>
      <trkpt lat="44.73456" lon="4.97307">
        <ele>175.60000610352</ele>
        <time>2019-07-08T09:12:22Z</time>
      </trkpt>
      <trkpt lat="44.73455" lon="4.97296">
        <ele>175.60000610352</ele>
        <time>2019-07-08T09:12:24Z</time>
      </trkpt>
      <trkpt lat="44.73452" lon="4.9729">
        <ele>175.60000610352</ele>
        <time>2019-07-08T09:12:25Z</time>
      </trkpt>
      <trkpt lat="44.7345" lon="4.97277">
        <ele>175.60000610352</ele>
        <time>2019-07-08T09:12:27Z</time>
      </trkpt>
      <trkpt lat="44.73452" lon="4.97257">
        <ele>175.60000610352</ele>
        <time>2019-07-08T09:12:31Z</time>
      </trkpt>
      <trkpt lat="44.7346" lon="4.97239">
        <ele>175.60000610352</ele>
        <time>2019-07-08T09:12:35Z</time>
      </trkpt>
      <trkpt lat="44.73463" lon="4.97235">
        <ele>175.60000610352</ele>
        <time>2019-07-08T09:12:36Z</time>
      </trkpt>
      <trkpt lat="44.73468" lon="4.97223">
        <ele>175.60000610352</ele>
        <time>2019-07-08T09:12:39Z</time>
      </trkpt>
      <trkpt lat="44.73475" lon="4.97214">
        <ele>175.60000610352</ele>
        <time>2019-07-08T09:12:43Z</time>
      </trkpt>
      <trkpt lat="44.73477" lon="4.97211">
        <ele>175.60000610352</ele>
        <time>2019-07-08T09:12:44Z</time>
      </trkpt>
      <trkpt lat="44.7348" lon="4.97187">
        <ele>175.60000610352</ele>
        <time>2019-07-08T09:12:48Z</time>
      </trkpt>
      <trkpt lat="44.7349" lon="4.97157">
        <ele>175.60000610352</ele>
        <time>2019-07-08T09:12:53Z</time>
      </trkpt>
      <trkpt lat="44.73494" lon="4.97145">
        <ele>175.60000610352</ele>
        <time>2019-07-08T09:12:55Z</time>
      </trkpt>
      <trkpt lat="44.73495" lon="4.97132">
        <ele>175.60000610352</ele>
        <time>2019-07-08T09:12:57Z</time>
      </trkpt>
      <trkpt lat="44.73494" lon="4.97111">
        <ele>175.60000610352</ele>
        <time>2019-07-08T09:13:00Z</time>
      </trkpt>
      <trkpt lat="44.73495" lon="4.97097">
        <ele>175.60000610352</ele>
        <time>2019-07-08T09:13:02Z</time>
      </trkpt>
      <trkpt lat="44.73496" lon="4.9709">
        <ele>175.60000610352</ele>
        <time>2019-07-08T09:13:03Z</time>
      </trkpt>
      <trkpt lat="44.73504" lon="4.97057">
        <ele>175.60000610352</ele>
        <time>2019-07-08T09:13:08Z</time>
      </trkpt>
      <trkpt lat="44.73505" lon="4.97051">
        <ele>175.60000610352</ele>
        <time>2019-07-08T09:13:09Z</time>
      </trkpt>
      <trkpt lat="44.73508" lon="4.97045">
        <ele>175.60000610352</ele>
        <time>2019-07-08T09:13:10Z</time>
      </trkpt>
      <trkpt lat="44.73515" lon="4.9702">
        <ele>175.60000610352</ele>
        <time>2019-07-08T09:13:14Z</time>
      </trkpt>
      <trkpt lat="44.73522" lon="4.96974">
        <ele>175.60000610352</ele>
        <time>2019-07-08T09:13:21Z</time>
      </trkpt>
      <trkpt lat="44.73523" lon="4.96959">
        <ele>175.19999694824</ele>
        <time>2019-07-08T09:13:23Z</time>
      </trkpt>
      <trkpt lat="44.73524" lon="4.96952">
        <ele>174.80000305176</ele>
        <time>2019-07-08T09:13:24Z</time>
      </trkpt>
      <trkpt lat="44.73525" lon="4.96945">
        <ele>174.39999389648</ele>
        <time>2019-07-08T09:13:25Z</time>
      </trkpt>
      <trkpt lat="44.73526" lon="4.96938">
        <ele>174</ele>
        <time>2019-07-08T09:13:26Z</time>
      </trkpt>
      <trkpt lat="44.73526" lon="4.96931">
        <ele>173.60000610352</ele>
        <time>2019-07-08T09:13:27Z</time>
      </trkpt>
      <trkpt lat="44.73526" lon="4.96924">
        <ele>173.60000610352</ele>
        <time>2019-07-08T09:13:28Z</time>
      </trkpt>
      <trkpt lat="44.73518" lon="4.96899">
        <ele>173.60000610352</ele>
        <time>2019-07-08T09:13:32Z</time>
      </trkpt>
      <trkpt lat="44.73515" lon="4.96894">
        <ele>173.60000610352</ele>
        <time>2019-07-08T09:13:33Z</time>
      </trkpt>
      <trkpt lat="44.73504" lon="4.96881">
        <ele>173.60000610352</ele>
        <time>2019-07-08T09:13:36Z</time>
      </trkpt>
      <trkpt lat="44.73501" lon="4.96878">
        <ele>173.60000610352</ele>
        <time>2019-07-08T09:13:37Z</time>
      </trkpt>
      <trkpt lat="44.73487" lon="4.96868">
        <ele>173.60000610352</ele>
        <time>2019-07-08T09:13:41Z</time>
      </trkpt>
      <trkpt lat="44.73487" lon="4.96864">
        <ele>173.60000610352</ele>
        <time>2019-07-08T09:13:42Z</time>
      </trkpt>
      <trkpt lat="44.73496" lon="4.96863">
        <ele>173.60000610352</ele>
        <time>2019-07-08T09:13:45Z</time>
      </trkpt>
      <trkpt lat="44.73514" lon="4.9686">
        <ele>173.60000610352</ele>
        <time>2019-07-08T09:13:50Z</time>
      </trkpt>
      <trkpt lat="44.73518" lon="4.96859">
        <ele>173.60000610352</ele>
        <time>2019-07-08T09:13:51Z</time>
      </trkpt>
      <trkpt lat="44.73538" lon="4.96853">
        <ele>173.60000610352</ele>
        <time>2019-07-08T09:13:56Z</time>
      </trkpt>
      <trkpt lat="44.73561" lon="4.96849">
        <ele>173.60000610352</ele>
        <time>2019-07-08T09:14:01Z</time>
      </trkpt>
      <trkpt lat="44.73565" lon="4.96848">
        <ele>173.60000610352</ele>
        <time>2019-07-08T09:14:02Z</time>
      </trkpt>
      <trkpt lat="44.73569" lon="4.96847">
        <ele>173.60000610352</ele>
        <time>2019-07-08T09:14:03Z</time>
      </trkpt>
      <trkpt lat="44.73582" lon="4.96851">
        <ele>173.60000610352</ele>
        <time>2019-07-08T09:14:06Z</time>
      </trkpt>
      <trkpt lat="44.73601" lon="4.96847">
        <ele>173.60000610352</ele>
        <time>2019-07-08T09:14:10Z</time>
      </trkpt>
      <trkpt lat="44.73619" lon="4.96841">
        <ele>173.60000610352</ele>
        <time>2019-07-08T09:14:14Z</time>
      </trkpt>
      <trkpt lat="44.73628" lon="4.96841">
        <ele>173.60000610352</ele>
        <time>2019-07-08T09:14:16Z</time>
      </trkpt>
      <trkpt lat="44.73644" lon="4.96832">
        <ele>173.60000610352</ele>
        <time>2019-07-08T09:14:20Z</time>
      </trkpt>
      <trkpt lat="44.73648" lon="4.9683">
        <ele>173.60000610352</ele>
        <time>2019-07-08T09:14:21Z</time>
      </trkpt>
      <trkpt lat="44.7366" lon="4.96816">
        <ele>173.60000610352</ele>
        <time>2019-07-08T09:14:24Z</time>
      </trkpt>
      <trkpt lat="44.73668" lon="4.96808">
        <ele>173.60000610352</ele>
        <time>2019-07-08T09:14:26Z</time>
      </trkpt>
      <trkpt lat="44.73669" lon="4.96802">
        <ele>173.60000610352</ele>
        <time>2019-07-08T09:14:27Z</time>
      </trkpt>
      <trkpt lat="44.73669" lon="4.96796">
        <ele>173.60000610352</ele>
        <time>2019-07-08T09:14:28Z</time>
      </trkpt>
      <trkpt lat="44.73675" lon="4.96784">
        <ele>173.60000610352</ele>
        <time>2019-07-08T09:14:31Z</time>
      </trkpt>
      <trkpt lat="44.73678" lon="4.96781">
        <ele>173.60000610352</ele>
        <time>2019-07-08T09:14:32Z</time>
      </trkpt>
      <trkpt lat="44.73679" lon="4.96775">
        <ele>173.60000610352</ele>
        <time>2019-07-08T09:14:34Z</time>
      </trkpt>
      <trkpt lat="44.73678" lon="4.96772">
        <ele>173.60000610352</ele>
        <time>2019-07-08T09:14:35Z</time>
      </trkpt>
      <trkpt lat="44.73669" lon="4.96749">
        <ele>173.60000610352</ele>
        <time>2019-07-08T09:14:40Z</time>
      </trkpt>
      <trkpt lat="44.73653" lon="4.96707">
        <ele>173.60000610352</ele>
        <time>2019-07-08T09:14:47Z</time>
      </trkpt>
      <trkpt lat="44.73651" lon="4.967">
        <ele>173.60000610352</ele>
        <time>2019-07-08T09:14:48Z</time>
      </trkpt>
      <trkpt lat="44.73644" lon="4.9668">
        <ele>173.60000610352</ele>
        <time>2019-07-08T09:14:51Z</time>
      </trkpt>
      <trkpt lat="44.73642" lon="4.96673">
        <ele>173.60000610352</ele>
        <time>2019-07-08T09:14:52Z</time>
      </trkpt>
      <trkpt lat="44.73629" lon="4.96637">
        <ele>173.19999694824</ele>
        <time>2019-07-08T09:14:57Z</time>
      </trkpt>
      <trkpt lat="44.73627" lon="4.9663">
        <ele>172.80000305176</ele>
        <time>2019-07-08T09:14:58Z</time>
      </trkpt>
      <trkpt lat="44.73624" lon="4.96623">
        <ele>172.19999694824</ele>
        <time>2019-07-08T09:14:59Z</time>
      </trkpt>
      <trkpt lat="44.73621" lon="4.96616">
        <ele>171.80000305176</ele>
        <time>2019-07-08T09:15:00Z</time>
      </trkpt>
      <trkpt lat="44.73619" lon="4.96608">
        <ele>171.39999389648</ele>
        <time>2019-07-08T09:15:01Z</time>
      </trkpt>
      <trkpt lat="44.73604" lon="4.96569">
        <ele>171.39999389648</ele>
        <time>2019-07-08T09:15:06Z</time>
      </trkpt>
      <trkpt lat="44.73591" lon="4.96534">
        <ele>171.39999389648</ele>
        <time>2019-07-08T09:15:11Z</time>
      </trkpt>
      <trkpt lat="44.73589" lon="4.96528">
        <ele>171.39999389648</ele>
        <time>2019-07-08T09:15:12Z</time>
      </trkpt>
      <trkpt lat="44.73585" lon="4.96514">
        <ele>171.39999389648</ele>
        <time>2019-07-08T09:15:15Z</time>
      </trkpt>
      <trkpt lat="44.73589" lon="4.96505">
        <ele>171.39999389648</ele>
        <time>2019-07-08T09:15:19Z</time>
      </trkpt>
      <trkpt lat="44.73595" lon="4.9649">
        <ele>171.39999389648</ele>
        <time>2019-07-08T09:15:23Z</time>
      </trkpt>
      <trkpt lat="44.73602" lon="4.96478">
        <ele>171.39999389648</ele>
        <time>2019-07-08T09:15:26Z</time>
      </trkpt>
      <trkpt lat="44.73604" lon="4.96475">
        <ele>171.39999389648</ele>
        <time>2019-07-08T09:15:27Z</time>
      </trkpt>
      <trkpt lat="44.73608" lon="4.96453">
        <ele>171.39999389648</ele>
        <time>2019-07-08T09:15:30Z</time>
      </trkpt>
      <trkpt lat="44.73617" lon="4.96421">
        <ele>171</ele>
        <time>2019-07-08T09:15:35Z</time>
      </trkpt>
      <trkpt lat="44.7362" lon="4.9642">
        <ele>170.60000610352</ele>
        <time>2019-07-08T09:15:36Z</time>
      </trkpt>
      <trkpt lat="44.73623" lon="4.96418">
        <ele>170.19999694824</ele>
        <time>2019-07-08T09:15:37Z</time>
      </trkpt>
      <trkpt lat="44.73627" lon="4.96419">
        <ele>169.80000305176</ele>
        <time>2019-07-08T09:15:38Z</time>
      </trkpt>
      <trkpt lat="44.73631" lon="4.96421">
        <ele>169.39999389648</ele>
        <time>2019-07-08T09:15:39Z</time>
      </trkpt>
      <trkpt lat="44.73649" lon="4.9642">
        <ele>169.39999389648</ele>
        <time>2019-07-08T09:15:44Z</time>
      </trkpt>
      <trkpt lat="44.73651" lon="4.96401">
        <ele>169.39999389648</ele>
        <time>2019-07-08T09:15:47Z</time>
      </trkpt>
      <trkpt lat="44.7365" lon="4.96394">
        <ele>169.39999389648</ele>
        <time>2019-07-08T09:15:48Z</time>
      </trkpt>
      <trkpt lat="44.7365" lon="4.96386">
        <ele>169.39999389648</ele>
        <time>2019-07-08T09:15:49Z</time>
      </trkpt>
      <trkpt lat="44.73651" lon="4.96376">
        <ele>169.39999389648</ele>
        <time>2019-07-08T09:15:51Z</time>
      </trkpt>
      <trkpt lat="44.73653" lon="4.96372">
        <ele>169.39999389648</ele>
        <time>2019-07-08T09:15:53Z</time>
      </trkpt>
      <trkpt lat="44.73653" lon="4.96372">
        <ele>169.39999389648</ele>
        <time>2019-07-08T09:15:54Z</time>
      </trkpt>
      <trkpt lat="44.73653" lon="4.96372">
        <ele>169.39999389648</ele>
        <time>2019-07-08T09:16:04Z</time>
      </trkpt>
      <trkpt lat="44.73656" lon="4.96367">
        <ele>169.39999389648</ele>
        <time>2019-07-08T09:16:15Z</time>
      </trkpt>
      <trkpt lat="44.73664" lon="4.96354">
        <ele>169.39999389648</ele>
        <time>2019-07-08T09:16:20Z</time>
      </trkpt>
      <trkpt lat="44.73668" lon="4.9634">
        <ele>169.39999389648</ele>
        <time>2019-07-08T09:16:26Z</time>
      </trkpt>
      <trkpt lat="44.73677" lon="4.96324">
        <ele>169.39999389648</ele>
        <time>2019-07-08T09:16:31Z</time>
      </trkpt>
      <trkpt lat="44.73683" lon="4.96295">
        <ele>169.39999389648</ele>
        <time>2019-07-08T09:16:36Z</time>
      </trkpt>
      <trkpt lat="44.7368" lon="4.96284">
        <ele>169.39999389648</ele>
        <time>2019-07-08T09:16:38Z</time>
      </trkpt>
      <trkpt lat="44.73677" lon="4.96272">
        <ele>169.39999389648</ele>
        <time>2019-07-08T09:16:40Z</time>
      </trkpt>
      <trkpt lat="44.73677" lon="4.96265">
        <ele>169.39999389648</ele>
        <time>2019-07-08T09:16:41Z</time>
      </trkpt>
      <trkpt lat="44.7368" lon="4.96252">
        <ele>169.39999389648</ele>
        <time>2019-07-08T09:16:43Z</time>
      </trkpt>
      <trkpt lat="44.73685" lon="4.96237">
        <ele>169.39999389648</ele>
        <time>2019-07-08T09:16:46Z</time>
      </trkpt>
      <trkpt lat="44.73688" lon="4.96221">
        <ele>169.39999389648</ele>
        <time>2019-07-08T09:16:49Z</time>
      </trkpt>
      <trkpt lat="44.73693" lon="4.96201">
        <ele>169.39999389648</ele>
        <time>2019-07-08T09:16:53Z</time>
      </trkpt>
      <trkpt lat="44.73691" lon="4.96184">
        <ele>169.39999389648</ele>
        <time>2019-07-08T09:16:56Z</time>
      </trkpt>
      <trkpt lat="44.73692" lon="4.96182">
        <ele>169.39999389648</ele>
        <time>2019-07-08T09:16:57Z</time>
      </trkpt>
      <trkpt lat="44.73692" lon="4.9618">
        <ele>169.39999389648</ele>
        <time>2019-07-08T09:16:58Z</time>
      </trkpt>
      <trkpt lat="44.73692" lon="4.96178">
        <ele>169.39999389648</ele>
        <time>2019-07-08T09:16:59Z</time>
      </trkpt>
      <trkpt lat="44.73692" lon="4.96159">
        <ele>169.39999389648</ele>
        <time>2019-07-08T09:17:03Z</time>
      </trkpt>
      <trkpt lat="44.737" lon="4.96141">
        <ele>169.39999389648</ele>
        <time>2019-07-08T09:17:08Z</time>
      </trkpt>
      <trkpt lat="44.73709" lon="4.96131">
        <ele>169</ele>
        <time>2019-07-08T09:17:12Z</time>
      </trkpt>
      <trkpt lat="44.73712" lon="4.96128">
        <ele>168.60000610352</ele>
        <time>2019-07-08T09:17:13Z</time>
      </trkpt>
      <trkpt lat="44.73715" lon="4.96124">
        <ele>168.19999694824</ele>
        <time>2019-07-08T09:17:14Z</time>
      </trkpt>
      <trkpt lat="44.73718" lon="4.96121">
        <ele>167.80000305176</ele>
        <time>2019-07-08T09:17:15Z</time>
      </trkpt>
      <trkpt lat="44.7372" lon="4.96116">
        <ele>167.39999389648</ele>
        <time>2019-07-08T09:17:16Z</time>
      </trkpt>
      <trkpt lat="44.73727" lon="4.96105">
        <ele>167.39999389648</ele>
        <time>2019-07-08T09:17:19Z</time>
      </trkpt>
      <trkpt lat="44.73737" lon="4.96083">
        <ele>167.39999389648</ele>
        <time>2019-07-08T09:17:24Z</time>
      </trkpt>
      <trkpt lat="44.7374" lon="4.96066">
        <ele>167.39999389648</ele>
        <time>2019-07-08T09:17:28Z</time>
      </trkpt>
      <trkpt lat="44.73739" lon="4.96063">
        <ele>167.39999389648</ele>
        <time>2019-07-08T09:17:29Z</time>
      </trkpt>
      <trkpt lat="44.73742" lon="4.96052">
        <ele>167.39999389648</ele>
        <time>2019-07-08T09:17:32Z</time>
      </trkpt>
      <trkpt lat="44.73754" lon="4.96039">
        <ele>167.39999389648</ele>
        <time>2019-07-08T09:17:36Z</time>
      </trkpt>
      <trkpt lat="44.73766" lon="4.96028">
        <ele>167.39999389648</ele>
        <time>2019-07-08T09:17:41Z</time>
      </trkpt>
      <trkpt lat="44.73768" lon="4.96025">
        <ele>167.39999389648</ele>
        <time>2019-07-08T09:17:46Z</time>
      </trkpt>
      <trkpt lat="44.73769" lon="4.96023">
        <ele>167.39999389648</ele>
        <time>2019-07-08T09:17:48Z</time>
      </trkpt>
      <trkpt lat="44.73772" lon="4.96019">
        <ele>167.39999389648</ele>
        <time>2019-07-08T09:17:52Z</time>
      </trkpt>
      <trkpt lat="44.73778" lon="4.96014">
        <ele>167.39999389648</ele>
        <time>2019-07-08T09:17:56Z</time>
      </trkpt>
      <trkpt lat="44.73783" lon="4.96017">
        <ele>167.39999389648</ele>
        <time>2019-07-08T09:18:00Z</time>
      </trkpt>
      <trkpt lat="44.73787" lon="4.96031">
        <ele>167.39999389648</ele>
        <time>2019-07-08T09:18:06Z</time>
      </trkpt>
      <trkpt lat="44.73787" lon="4.9605">
        <ele>167.39999389648</ele>
        <time>2019-07-08T09:18:11Z</time>
      </trkpt>
      <trkpt lat="44.73793" lon="4.96069">
        <ele>167.39999389648</ele>
        <time>2019-07-08T09:18:16Z</time>
      </trkpt>
      <trkpt lat="44.73803" lon="4.96071">
        <ele>167.39999389648</ele>
        <time>2019-07-08T09:18:20Z</time>
      </trkpt>
      <trkpt lat="44.73809" lon="4.96067">
        <ele>167.39999389648</ele>
        <time>2019-07-08T09:18:24Z</time>
      </trkpt>
      <trkpt lat="44.7381" lon="4.96066">
        <ele>167.39999389648</ele>
        <time>2019-07-08T09:18:25Z</time>
      </trkpt>
      <trkpt lat="44.73811" lon="4.96066">
        <ele>167.39999389648</ele>
        <time>2019-07-08T09:18:26Z</time>
      </trkpt>
      <trkpt lat="44.73814" lon="4.96056">
        <ele>167.39999389648</ele>
        <time>2019-07-08T09:18:29Z</time>
      </trkpt>
      <trkpt lat="44.73811" lon="4.96047">
        <ele>167.39999389648</ele>
        <time>2019-07-08T09:18:33Z</time>
      </trkpt>
      <trkpt lat="44.73811" lon="4.96047">
        <ele>167.39999389648</ele>
        <time>2019-07-08T09:18:38Z</time>
      </trkpt>
      <trkpt lat="44.73811" lon="4.96043">
        <ele>167.39999389648</ele>
        <time>2019-07-08T09:18:46Z</time>
      </trkpt>
      <trkpt lat="44.73808" lon="4.96027">
        <ele>167.39999389648</ele>
        <time>2019-07-08T09:18:51Z</time>
      </trkpt>
      <trkpt lat="44.73804" lon="4.96012">
        <ele>167.39999389648</ele>
        <time>2019-07-08T09:18:55Z</time>
      </trkpt>
      <trkpt lat="44.73802" lon="4.95994">
        <ele>167.39999389648</ele>
        <time>2019-07-08T09:18:59Z</time>
      </trkpt>
      <trkpt lat="44.738" lon="4.95984">
        <ele>167.39999389648</ele>
        <time>2019-07-08T09:19:01Z</time>
      </trkpt>
      <trkpt lat="44.73797" lon="4.95966">
        <ele>167.39999389648</ele>
        <time>2019-07-08T09:19:06Z</time>
      </trkpt>
      <trkpt lat="44.73797" lon="4.95966">
        <ele>167.39999389648</ele>
        <time>2019-07-08T09:19:10Z</time>
      </trkpt>
      <trkpt lat="44.73797" lon="4.95968">
        <ele>167.39999389648</ele>
        <time>2019-07-08T09:19:20Z</time>
      </trkpt>
      <trkpt lat="44.73799" lon="4.95976">
        <ele>167.39999389648</ele>
        <time>2019-07-08T09:19:24Z</time>
      </trkpt>
      <trkpt lat="44.73802" lon="4.96">
        <ele>167.39999389648</ele>
        <time>2019-07-08T09:19:29Z</time>
      </trkpt>
      <trkpt lat="44.73809" lon="4.9603">
        <ele>167.39999389648</ele>
        <time>2019-07-08T09:19:35Z</time>
      </trkpt>
      <trkpt lat="44.73814" lon="4.9605">
        <ele>167.39999389648</ele>
        <time>2019-07-08T09:19:41Z</time>
      </trkpt>
      <trkpt lat="44.73816" lon="4.96049">
        <ele>167.39999389648</ele>
        <time>2019-07-08T09:19:43Z</time>
      </trkpt>
      <trkpt lat="44.73817" lon="4.96043">
        <ele>167.39999389648</ele>
        <time>2019-07-08T09:19:45Z</time>
      </trkpt>
      <trkpt lat="44.73817" lon="4.96041">
        <ele>167.39999389648</ele>
        <time>2019-07-08T09:19:49Z</time>
      </trkpt>
      <trkpt lat="44.73817" lon="4.96043">
        <ele>167.39999389648</ele>
        <time>2019-07-08T09:19:51Z</time>
      </trkpt>
      <trkpt lat="44.73818" lon="4.96043">
        <ele>167.39999389648</ele>
        <time>2019-07-08T09:19:54Z</time>
      </trkpt>
      <trkpt lat="44.73818" lon="4.96044">
        <ele>167.39999389648</ele>
        <time>2019-07-08T09:19:55Z</time>
      </trkpt>
      <trkpt lat="44.73817" lon="4.96048">
        <ele>167.39999389648</ele>
        <time>2019-07-08T09:19:58Z</time>
      </trkpt>
      <trkpt lat="44.73813" lon="4.96046">
        <ele>167.39999389648</ele>
        <time>2019-07-08T09:20:03Z</time>
      </trkpt>
      <trkpt lat="44.73812" lon="4.96045">
        <ele>167.39999389648</ele>
        <time>2019-07-08T09:20:04Z</time>
      </trkpt>
      <trkpt lat="44.73812" lon="4.96045">
        <ele>167.39999389648</ele>
        <time>2019-07-08T09:20:05Z</time>
      </trkpt>
      <trkpt lat="44.73812" lon="4.96044">
        <ele>167.39999389648</ele>
        <time>2019-07-08T09:20:10Z</time>
      </trkpt>
      <trkpt lat="44.7381" lon="4.96035">
        <ele>167.39999389648</ele>
        <time>2019-07-08T09:20:15Z</time>
      </trkpt>
      <trkpt lat="44.73806" lon="4.96014">
        <ele>167.39999389648</ele>
        <time>2019-07-08T09:20:21Z</time>
      </trkpt>
      <trkpt lat="44.73802" lon="4.95991">
        <ele>167.39999389648</ele>
        <time>2019-07-08T09:20:26Z</time>
      </trkpt>
      <trkpt lat="44.73799" lon="4.95969">
        <ele>167.39999389648</ele>
        <time>2019-07-08T09:20:30Z</time>
      </trkpt>
      <trkpt lat="44.73798" lon="4.95962">
        <ele>167.39999389648</ele>
        <time>2019-07-08T09:20:31Z</time>
      </trkpt>
      <trkpt lat="44.73787" lon="4.95903">
        <ele>167.39999389648</ele>
        <time>2019-07-08T09:20:40Z</time>
      </trkpt>
      <trkpt lat="44.73777" lon="4.95855">
        <ele>167.39999389648</ele>
        <time>2019-07-08T09:20:47Z</time>
      </trkpt>
      <trkpt lat="44.73776" lon="4.95838">
        <ele>167.39999389648</ele>
        <time>2019-07-08T09:20:50Z</time>
      </trkpt>
      <trkpt lat="44.73778" lon="4.95833">
        <ele>167.39999389648</ele>
        <time>2019-07-08T09:20:51Z</time>
      </trkpt>
      <trkpt lat="44.73793" lon="4.95835">
        <ele>167.39999389648</ele>
        <time>2019-07-08T09:20:54Z</time>
      </trkpt>
      <trkpt lat="44.73799" lon="4.95837">
        <ele>167.39999389648</ele>
        <time>2019-07-08T09:20:55Z</time>
      </trkpt>
      <trkpt lat="44.73809" lon="4.9584">
        <ele>167.39999389648</ele>
        <time>2019-07-08T09:20:57Z</time>
      </trkpt>
      <trkpt lat="44.73819" lon="4.95843">
        <ele>167.39999389648</ele>
        <time>2019-07-08T09:20:59Z</time>
      </trkpt>
      <trkpt lat="44.73832" lon="4.95847">
        <ele>167</ele>
        <time>2019-07-08T09:21:02Z</time>
      </trkpt>
      <trkpt lat="44.73837" lon="4.95849">
        <ele>166.60000610352</ele>
        <time>2019-07-08T09:21:03Z</time>
      </trkpt>
      <trkpt lat="44.73841" lon="4.9585">
        <ele>166.19999694824</ele>
        <time>2019-07-08T09:21:04Z</time>
      </trkpt>
      <trkpt lat="44.73845" lon="4.95851">
        <ele>165.80000305176</ele>
        <time>2019-07-08T09:21:05Z</time>
      </trkpt>
      <trkpt lat="44.73849" lon="4.95851">
        <ele>165.39999389648</ele>
        <time>2019-07-08T09:21:06Z</time>
      </trkpt>
      <trkpt lat="44.73861" lon="4.95855">
        <ele>165.39999389648</ele>
        <time>2019-07-08T09:21:10Z</time>
      </trkpt>
      <trkpt lat="44.73866" lon="4.95855">
        <ele>165.39999389648</ele>
        <time>2019-07-08T09:21:12Z</time>
      </trkpt>
      <trkpt lat="44.73869" lon="4.95849">
        <ele>165.39999389648</ele>
        <time>2019-07-08T09:21:15Z</time>
      </trkpt>
      <trkpt lat="44.73868" lon="4.95833">
        <ele>165.39999389648</ele>
        <time>2019-07-08T09:21:19Z</time>
      </trkpt>
      <trkpt lat="44.73872" lon="4.95817">
        <ele>165.39999389648</ele>
        <time>2019-07-08T09:21:22Z</time>
      </trkpt>
      <trkpt lat="44.73872" lon="4.95807">
        <ele>165.39999389648</ele>
        <time>2019-07-08T09:21:24Z</time>
      </trkpt>
      <trkpt lat="44.73871" lon="4.95797">
        <ele>165.39999389648</ele>
        <time>2019-07-08T09:21:28Z</time>
      </trkpt>
      <trkpt lat="44.73871" lon="4.95797">
        <ele>165.39999389648</ele>
        <time>2019-07-08T09:21:35Z</time>
      </trkpt>
      <trkpt lat="44.73871" lon="4.95797">
        <ele>165.39999389648</ele>
        <time>2019-07-08T09:21:46Z</time>
      </trkpt>
      <trkpt lat="44.73872" lon="4.95799">
        <ele>165.39999389648</ele>
        <time>2019-07-08T09:21:49Z</time>
      </trkpt>
      <trkpt lat="44.73873" lon="4.958">
        <ele>165.39999389648</ele>
        <time>2019-07-08T09:21:51Z</time>
      </trkpt>
      <trkpt lat="44.73874" lon="4.95808">
        <ele>165.39999389648</ele>
        <time>2019-07-08T09:21:55Z</time>
      </trkpt>
      <trkpt lat="44.73869" lon="4.9582">
        <ele>165.39999389648</ele>
        <time>2019-07-08T09:21:59Z</time>
      </trkpt>
      <trkpt lat="44.73868" lon="4.95838">
        <ele>165.39999389648</ele>
        <time>2019-07-08T09:22:04Z</time>
      </trkpt>
      <trkpt lat="44.7387" lon="4.95849">
        <ele>165.39999389648</ele>
        <time>2019-07-08T09:22:07Z</time>
      </trkpt>
      <trkpt lat="44.73873" lon="4.9585">
        <ele>165.39999389648</ele>
        <time>2019-07-08T09:22:08Z</time>
      </trkpt>
      <trkpt lat="44.7388" lon="4.95853">
        <ele>165.39999389648</ele>
        <time>2019-07-08T09:22:14Z</time>
      </trkpt>
      <trkpt lat="44.7388" lon="4.95853">
        <ele>165.39999389648</ele>
        <time>2019-07-08T09:22:17Z</time>
      </trkpt>
      <trkpt lat="44.7388" lon="4.95854">
        <ele>165.39999389648</ele>
        <time>2019-07-08T09:22:26Z</time>
      </trkpt>
      <trkpt lat="44.73887" lon="4.95857">
        <ele>165.39999389648</ele>
        <time>2019-07-08T09:22:30Z</time>
      </trkpt>
      <trkpt lat="44.73901" lon="4.95861">
        <ele>165.39999389648</ele>
        <time>2019-07-08T09:22:36Z</time>
      </trkpt>
      <trkpt lat="44.7392" lon="4.95866">
        <ele>165.39999389648</ele>
        <time>2019-07-08T09:22:41Z</time>
      </trkpt>
      <trkpt lat="44.73928" lon="4.95871">
        <ele>165.39999389648</ele>
        <time>2019-07-08T09:22:43Z</time>
      </trkpt>
      <trkpt lat="44.73941" lon="4.95876">
        <ele>165.39999389648</ele>
        <time>2019-07-08T09:22:46Z</time>
      </trkpt>
      <trkpt lat="44.73979" lon="4.95884">
        <ele>165.39999389648</ele>
        <time>2019-07-08T09:22:53Z</time>
      </trkpt>
      <trkpt lat="44.74016" lon="4.95894">
        <ele>165.39999389648</ele>
        <time>2019-07-08T09:23:00Z</time>
      </trkpt>
      <trkpt lat="44.74031" lon="4.959">
        <ele>165.39999389648</ele>
        <time>2019-07-08T09:23:03Z</time>
      </trkpt>
      <trkpt lat="44.74041" lon="4.95904">
        <ele>165.39999389648</ele>
        <time>2019-07-08T09:23:05Z</time>
      </trkpt>
      <trkpt lat="44.74045" lon="4.95905">
        <ele>165.39999389648</ele>
        <time>2019-07-08T09:23:06Z</time>
      </trkpt>
      <trkpt lat="44.74059" lon="4.95898">
        <ele>165.39999389648</ele>
        <time>2019-07-08T09:23:10Z</time>
      </trkpt>
      <trkpt lat="44.7407" lon="4.95881">
        <ele>165.39999389648</ele>
        <time>2019-07-08T09:23:14Z</time>
      </trkpt>
      <trkpt lat="44.74073" lon="4.95876">
        <ele>165.39999389648</ele>
        <time>2019-07-08T09:23:15Z</time>
      </trkpt>
      <trkpt lat="44.74083" lon="4.95847">
        <ele>165.39999389648</ele>
        <time>2019-07-08T09:23:20Z</time>
      </trkpt>
      <trkpt lat="44.74097" lon="4.9581">
        <ele>165.39999389648</ele>
        <time>2019-07-08T09:23:26Z</time>
      </trkpt>
      <trkpt lat="44.74105" lon="4.95784">
        <ele>165.39999389648</ele>
        <time>2019-07-08T09:23:30Z</time>
      </trkpt>
      <trkpt lat="44.74107" lon="4.95771">
        <ele>165.39999389648</ele>
        <time>2019-07-08T09:23:32Z</time>
      </trkpt>
      <trkpt lat="44.74115" lon="4.9573">
        <ele>165.39999389648</ele>
        <time>2019-07-08T09:23:38Z</time>
      </trkpt>
      <trkpt lat="44.74118" lon="4.95724">
        <ele>165.39999389648</ele>
        <time>2019-07-08T09:23:39Z</time>
      </trkpt>
      <trkpt lat="44.74127" lon="4.95707">
        <ele>165.39999389648</ele>
        <time>2019-07-08T09:23:42Z</time>
      </trkpt>
      <trkpt lat="44.74136" lon="4.95691">
        <ele>165.39999389648</ele>
        <time>2019-07-08T09:23:45Z</time>
      </trkpt>
      <trkpt lat="44.74155" lon="4.95658">
        <ele>165.39999389648</ele>
        <time>2019-07-08T09:23:51Z</time>
      </trkpt>
      <trkpt lat="44.74172" lon="4.95633">
        <ele>165.39999389648</ele>
        <time>2019-07-08T09:23:56Z</time>
      </trkpt>
      <trkpt lat="44.74175" lon="4.95628">
        <ele>165.39999389648</ele>
        <time>2019-07-08T09:23:57Z</time>
      </trkpt>
      <trkpt lat="44.74189" lon="4.95623">
        <ele>165.39999389648</ele>
        <time>2019-07-08T09:24:01Z</time>
      </trkpt>
      <trkpt lat="44.74192" lon="4.95624">
        <ele>165.39999389648</ele>
        <time>2019-07-08T09:24:05Z</time>
      </trkpt>
      <trkpt lat="44.74192" lon="4.95624">
        <ele>165.39999389648</ele>
        <time>2019-07-08T09:24:19Z</time>
      </trkpt>
      <trkpt lat="44.74193" lon="4.95621">
        <ele>165.39999389648</ele>
        <time>2019-07-08T09:24:21Z</time>
      </trkpt>
      <trkpt lat="44.74194" lon="4.95615">
        <ele>165.39999389648</ele>
        <time>2019-07-08T09:24:24Z</time>
      </trkpt>
      <trkpt lat="44.74202" lon="4.95598">
        <ele>165.39999389648</ele>
        <time>2019-07-08T09:24:29Z</time>
      </trkpt>
      <trkpt lat="44.74209" lon="4.95573">
        <ele>165.39999389648</ele>
        <time>2019-07-08T09:24:34Z</time>
      </trkpt>
      <trkpt lat="44.74212" lon="4.95555">
        <ele>165.39999389648</ele>
        <time>2019-07-08T09:24:37Z</time>
      </trkpt>
      <trkpt lat="44.7421" lon="4.95551">
        <ele>165.39999389648</ele>
        <time>2019-07-08T09:24:38Z</time>
      </trkpt>
      <trkpt lat="44.74203" lon="4.95546">
        <ele>165.39999389648</ele>
        <time>2019-07-08T09:24:41Z</time>
      </trkpt>
      <trkpt lat="44.74203" lon="4.95543">
        <ele>165.39999389648</ele>
        <time>2019-07-08T09:24:42Z</time>
      </trkpt>
      <trkpt lat="44.74204" lon="4.95539">
        <ele>165.39999389648</ele>
        <time>2019-07-08T09:24:44Z</time>
      </trkpt>
      <trkpt lat="44.74207" lon="4.95533">
        <ele>165.39999389648</ele>
        <time>2019-07-08T09:24:46Z</time>
      </trkpt>
      <trkpt lat="44.7421" lon="4.95522">
        <ele>165.39999389648</ele>
        <time>2019-07-08T09:24:49Z</time>
      </trkpt>
      <trkpt lat="44.74208" lon="4.95516">
        <ele>165.39999389648</ele>
        <time>2019-07-08T09:24:52Z</time>
      </trkpt>
      <trkpt lat="44.74205" lon="4.95513">
        <ele>165.39999389648</ele>
        <time>2019-07-08T09:24:53Z</time>
      </trkpt>
      <trkpt lat="44.74181" lon="4.95494">
        <ele>165.39999389648</ele>
        <time>2019-07-08T09:25:00Z</time>
      </trkpt>
      <trkpt lat="44.7416" lon="4.95478">
        <ele>165.39999389648</ele>
        <time>2019-07-08T09:25:06Z</time>
      </trkpt>
      <trkpt lat="44.74155" lon="4.95473">
        <ele>165.39999389648</ele>
        <time>2019-07-08T09:25:10Z</time>
      </trkpt>
      <trkpt lat="44.74151" lon="4.9547">
        <ele>165.39999389648</ele>
        <time>2019-07-08T09:25:17Z</time>
      </trkpt>
      <trkpt lat="44.74148" lon="4.9547">
        <ele>165.39999389648</ele>
        <time>2019-07-08T09:25:22Z</time>
      </trkpt>
      <trkpt lat="44.74138" lon="4.95464">
        <ele>165.39999389648</ele>
        <time>2019-07-08T09:25:27Z</time>
      </trkpt>
      <trkpt lat="44.74136" lon="4.95461">
        <ele>165.39999389648</ele>
        <time>2019-07-08T09:25:28Z</time>
      </trkpt>
      <trkpt lat="44.74139" lon="4.95452">
        <ele>165.39999389648</ele>
        <time>2019-07-08T09:25:30Z</time>
      </trkpt>
      <trkpt lat="44.74142" lon="4.95446">
        <ele>165.39999389648</ele>
        <time>2019-07-08T09:25:32Z</time>
      </trkpt>
      <trkpt lat="44.74144" lon="4.95443">
        <ele>165.39999389648</ele>
        <time>2019-07-08T09:25:33Z</time>
      </trkpt>
      <trkpt lat="44.74157" lon="4.95432">
        <ele>165.39999389648</ele>
        <time>2019-07-08T09:25:38Z</time>
      </trkpt>
      <trkpt lat="44.74168" lon="4.9543">
        <ele>165.39999389648</ele>
        <time>2019-07-08T09:25:41Z</time>
      </trkpt>
      <trkpt lat="44.74186" lon="4.95413">
        <ele>165.39999389648</ele>
        <time>2019-07-08T09:25:46Z</time>
      </trkpt>
      <trkpt lat="44.74194" lon="4.95401">
        <ele>165</ele>
        <time>2019-07-08T09:25:49Z</time>
      </trkpt>
      <trkpt lat="44.74198" lon="4.95397">
        <ele>164.19999694824</ele>
        <time>2019-07-08T09:25:50Z</time>
      </trkpt>
      <trkpt lat="44.74201" lon="4.95392">
        <ele>163.80000305176</ele>
        <time>2019-07-08T09:25:51Z</time>
      </trkpt>
      <trkpt lat="44.74204" lon="4.95387">
        <ele>163.39999389648</ele>
        <time>2019-07-08T09:25:52Z</time>
      </trkpt>
      <trkpt lat="44.74206" lon="4.95382">
        <ele>163.39999389648</ele>
        <time>2019-07-08T09:25:53Z</time>
      </trkpt>
      <trkpt lat="44.74217" lon="4.9536">
        <ele>163.39999389648</ele>
        <time>2019-07-08T09:25:57Z</time>
      </trkpt>
      <trkpt lat="44.74231" lon="4.95346">
        <ele>163.39999389648</ele>
        <time>2019-07-08T09:26:01Z</time>
      </trkpt>
      <trkpt lat="44.74234" lon="4.95346">
        <ele>163.39999389648</ele>
        <time>2019-07-08T09:26:02Z</time>
      </trkpt>
      <trkpt lat="44.74242" lon="4.95347">
        <ele>163.39999389648</ele>
        <time>2019-07-08T09:26:04Z</time>
      </trkpt>
      <trkpt lat="44.74263" lon="4.95344">
        <ele>163.39999389648</ele>
        <time>2019-07-08T09:26:09Z</time>
      </trkpt>
      <trkpt lat="44.7428" lon="4.95338">
        <ele>163.39999389648</ele>
        <time>2019-07-08T09:26:13Z</time>
      </trkpt>
      <trkpt lat="44.74288" lon="4.95331">
        <ele>163.39999389648</ele>
        <time>2019-07-08T09:26:15Z</time>
      </trkpt>
      <trkpt lat="44.74291" lon="4.95326">
        <ele>163.39999389648</ele>
        <time>2019-07-08T09:26:16Z</time>
      </trkpt>
      <trkpt lat="44.74292" lon="4.9532">
        <ele>163.39999389648</ele>
        <time>2019-07-08T09:26:17Z</time>
      </trkpt>
      <trkpt lat="44.74287" lon="4.95302">
        <ele>163.39999389648</ele>
        <time>2019-07-08T09:26:20Z</time>
      </trkpt>
      <trkpt lat="44.74276" lon="4.95284">
        <ele>163.39999389648</ele>
        <time>2019-07-08T09:26:24Z</time>
      </trkpt>
      <trkpt lat="44.74274" lon="4.9528">
        <ele>163.39999389648</ele>
        <time>2019-07-08T09:26:25Z</time>
      </trkpt>
      <trkpt lat="44.74272" lon="4.95269">
        <ele>163.39999389648</ele>
        <time>2019-07-08T09:26:27Z</time>
      </trkpt>
      <trkpt lat="44.74273" lon="4.95262">
        <ele>163.39999389648</ele>
        <time>2019-07-08T09:26:28Z</time>
      </trkpt>
      <trkpt lat="44.74274" lon="4.95236">
        <ele>163.39999389648</ele>
        <time>2019-07-08T09:26:32Z</time>
      </trkpt>
      <trkpt lat="44.74274" lon="4.95229">
        <ele>163.39999389648</ele>
        <time>2019-07-08T09:26:33Z</time>
      </trkpt>
      <trkpt lat="44.74277" lon="4.95223">
        <ele>163.39999389648</ele>
        <time>2019-07-08T09:26:34Z</time>
      </trkpt>
      <trkpt lat="44.74281" lon="4.9521">
        <ele>163.39999389648</ele>
        <time>2019-07-08T09:26:36Z</time>
      </trkpt>
      <trkpt lat="44.74287" lon="4.95199">
        <ele>163.39999389648</ele>
        <time>2019-07-08T09:26:38Z</time>
      </trkpt>
      <trkpt lat="44.74295" lon="4.95189">
        <ele>163.39999389648</ele>
        <time>2019-07-08T09:26:40Z</time>
      </trkpt>
      <trkpt lat="44.74308" lon="4.95174">
        <ele>163.39999389648</ele>
        <time>2019-07-08T09:26:43Z</time>
      </trkpt>
      <trkpt lat="44.74318" lon="4.95169">
        <ele>163.39999389648</ele>
        <time>2019-07-08T09:26:45Z</time>
      </trkpt>
      <trkpt lat="44.74322" lon="4.95164">
        <ele>163.39999389648</ele>
        <time>2019-07-08T09:26:46Z</time>
      </trkpt>
      <trkpt lat="44.74325" lon="4.95158">
        <ele>163.39999389648</ele>
        <time>2019-07-08T09:26:47Z</time>
      </trkpt>
      <trkpt lat="44.74329" lon="4.95134">
        <ele>163.39999389648</ele>
        <time>2019-07-08T09:26:50Z</time>
      </trkpt>
      <trkpt lat="44.7433" lon="4.95127">
        <ele>163.39999389648</ele>
        <time>2019-07-08T09:26:51Z</time>
      </trkpt>
      <trkpt lat="44.74335" lon="4.95104">
        <ele>163.39999389648</ele>
        <time>2019-07-08T09:26:54Z</time>
      </trkpt>
      <trkpt lat="44.74338" lon="4.95097">
        <ele>163.39999389648</ele>
        <time>2019-07-08T09:26:55Z</time>
      </trkpt>
      <trkpt lat="44.74346" lon="4.95067">
        <ele>163.39999389648</ele>
        <time>2019-07-08T09:26:59Z</time>
      </trkpt>
      <trkpt lat="44.74345" lon="4.9506">
        <ele>163.39999389648</ele>
        <time>2019-07-08T09:27:00Z</time>
      </trkpt>
      <trkpt lat="44.74349" lon="4.95036">
        <ele>163.39999389648</ele>
        <time>2019-07-08T09:27:03Z</time>
      </trkpt>
      <trkpt lat="44.74349" lon="4.95028">
        <ele>163.39999389648</ele>
        <time>2019-07-08T09:27:04Z</time>
      </trkpt>
      <trkpt lat="44.74346" lon="4.95021">
        <ele>163.39999389648</ele>
        <time>2019-07-08T09:27:05Z</time>
      </trkpt>
      <trkpt lat="44.74346" lon="4.95004">
        <ele>163.39999389648</ele>
        <time>2019-07-08T09:27:07Z</time>
      </trkpt>
      <trkpt lat="44.74349" lon="4.94981">
        <ele>163.39999389648</ele>
        <time>2019-07-08T09:27:10Z</time>
      </trkpt>
      <trkpt lat="44.74359" lon="4.94962">
        <ele>163.39999389648</ele>
        <time>2019-07-08T09:27:13Z</time>
      </trkpt>
      <trkpt lat="44.74359" lon="4.94935">
        <ele>163.39999389648</ele>
        <time>2019-07-08T09:27:17Z</time>
      </trkpt>
      <trkpt lat="44.74361" lon="4.94914">
        <ele>163</ele>
        <time>2019-07-08T09:27:20Z</time>
      </trkpt>
      <trkpt lat="44.74363" lon="4.94907">
        <ele>162.60000610352</ele>
        <time>2019-07-08T09:27:21Z</time>
      </trkpt>
      <trkpt lat="44.74364" lon="4.949">
        <ele>162.19999694824</ele>
        <time>2019-07-08T09:27:22Z</time>
      </trkpt>
      <trkpt lat="44.74365" lon="4.94892">
        <ele>161.60000610352</ele>
        <time>2019-07-08T09:27:23Z</time>
      </trkpt>
      <trkpt lat="44.74367" lon="4.94885">
        <ele>161.19999694824</ele>
        <time>2019-07-08T09:27:24Z</time>
      </trkpt>
      <trkpt lat="44.74368" lon="4.94877">
        <ele>161.19999694824</ele>
        <time>2019-07-08T09:27:25Z</time>
      </trkpt>
      <trkpt lat="44.74369" lon="4.94869">
        <ele>161.19999694824</ele>
        <time>2019-07-08T09:27:26Z</time>
      </trkpt>
      <trkpt lat="44.74371" lon="4.94862">
        <ele>161.19999694824</ele>
        <time>2019-07-08T09:27:27Z</time>
      </trkpt>
      <trkpt lat="44.74375" lon="4.94846">
        <ele>161.19999694824</ele>
        <time>2019-07-08T09:27:29Z</time>
      </trkpt>
      <trkpt lat="44.74374" lon="4.94836">
        <ele>161.19999694824</ele>
        <time>2019-07-08T09:27:31Z</time>
      </trkpt>
      <trkpt lat="44.74372" lon="4.94832">
        <ele>161.19999694824</ele>
        <time>2019-07-08T09:27:32Z</time>
      </trkpt>
      <trkpt lat="44.74371" lon="4.94823">
        <ele>161.19999694824</ele>
        <time>2019-07-08T09:27:35Z</time>
      </trkpt>
      <trkpt lat="44.7437" lon="4.94814">
        <ele>161.19999694824</ele>
        <time>2019-07-08T09:27:37Z</time>
      </trkpt>
      <trkpt lat="44.74368" lon="4.94806">
        <ele>161.19999694824</ele>
        <time>2019-07-08T09:27:39Z</time>
      </trkpt>
      <trkpt lat="44.74365" lon="4.94803">
        <ele>161.19999694824</ele>
        <time>2019-07-08T09:27:40Z</time>
      </trkpt>
      <trkpt lat="44.74366" lon="4.94793">
        <ele>161.19999694824</ele>
        <time>2019-07-08T09:27:43Z</time>
      </trkpt>
      <trkpt lat="44.74365" lon="4.94791">
        <ele>161.19999694824</ele>
        <time>2019-07-08T09:27:44Z</time>
      </trkpt>
      <trkpt lat="44.74364" lon="4.94787">
        <ele>161.19999694824</ele>
        <time>2019-07-08T09:27:45Z</time>
      </trkpt>
      <trkpt lat="44.74364" lon="4.94784">
        <ele>161.19999694824</ele>
        <time>2019-07-08T09:27:46Z</time>
      </trkpt>
      <trkpt lat="44.74362" lon="4.94766">
        <ele>161.19999694824</ele>
        <time>2019-07-08T09:27:50Z</time>
      </trkpt>
      <trkpt lat="44.7436" lon="4.94748">
        <ele>161.19999694824</ele>
        <time>2019-07-08T09:27:54Z</time>
      </trkpt>
      <trkpt lat="44.74356" lon="4.94729">
        <ele>161.19999694824</ele>
        <time>2019-07-08T09:27:59Z</time>
      </trkpt>
      <trkpt lat="44.74354" lon="4.94715">
        <ele>161.19999694824</ele>
        <time>2019-07-08T09:28:03Z</time>
      </trkpt>
      <trkpt lat="44.74351" lon="4.94697">
        <ele>161.19999694824</ele>
        <time>2019-07-08T09:28:09Z</time>
      </trkpt>
      <trkpt lat="44.74345" lon="4.94671">
        <ele>161.19999694824</ele>
        <time>2019-07-08T09:28:15Z</time>
      </trkpt>
      <trkpt lat="44.74343" lon="4.94664">
        <ele>161.60000610352</ele>
        <time>2019-07-08T09:28:17Z</time>
      </trkpt>
      <trkpt lat="44.74341" lon="4.94661">
        <ele>162.19999694824</ele>
        <time>2019-07-08T09:28:18Z</time>
      </trkpt>
      <trkpt lat="44.74337" lon="4.94659">
        <ele>163</ele>
        <time>2019-07-08T09:28:19Z</time>
      </trkpt>
      <trkpt lat="44.74336" lon="4.94658">
        <ele>163.39999389648</ele>
        <time>2019-07-08T09:28:20Z</time>
      </trkpt>
      <trkpt lat="44.74336" lon="4.94656">
        <ele>163.39999389648</ele>
        <time>2019-07-08T09:28:22Z</time>
      </trkpt>
      <trkpt lat="44.74336" lon="4.94656">
        <ele>163.39999389648</ele>
        <time>2019-07-08T09:28:32Z</time>
      </trkpt>
      <trkpt lat="44.74336" lon="4.94656">
        <ele>163.39999389648</ele>
        <time>2019-07-08T09:28:42Z</time>
      </trkpt>
      <trkpt lat="44.74336" lon="4.94656">
        <ele>163.39999389648</ele>
        <time>2019-07-08T09:28:53Z</time>
      </trkpt>
      <trkpt lat="44.74336" lon="4.94656">
        <ele>163.39999389648</ele>
        <time>2019-07-08T09:29:00Z</time>
      </trkpt>
      <trkpt lat="44.74333" lon="4.94652">
        <ele>163.39999389648</ele>
        <time>2019-07-08T09:29:06Z</time>
      </trkpt>
      <trkpt lat="44.74333" lon="4.94652">
        <ele>163.39999389648</ele>
        <time>2019-07-08T09:29:21Z</time>
      </trkpt>
      <trkpt lat="44.74333" lon="4.94652">
        <ele>163.39999389648</ele>
        <time>2019-07-08T09:29:36Z</time>
      </trkpt>
      <trkpt lat="44.74333" lon="4.94652">
        <ele>163.39999389648</ele>
        <time>2019-07-08T09:29:49Z</time>
      </trkpt>
      <trkpt lat="44.74333" lon="4.94652">
        <ele>163.39999389648</ele>
        <time>2019-07-08T09:29:55Z</time>
      </trkpt>
      <trkpt lat="44.74333" lon="4.94652">
        <ele>163.39999389648</ele>
        <time>2019-07-08T09:30:11Z</time>
      </trkpt>
      <trkpt lat="44.74333" lon="4.9465">
        <ele>163.39999389648</ele>
        <time>2019-07-08T09:30:23Z</time>
      </trkpt>
      <trkpt lat="44.74332" lon="4.94648">
        <ele>163.39999389648</ele>
        <time>2019-07-08T09:30:30Z</time>
      </trkpt>
      <trkpt lat="44.74326" lon="4.94641">
        <ele>163.39999389648</ele>
        <time>2019-07-08T09:30:34Z</time>
      </trkpt>
      <trkpt lat="44.74325" lon="4.9464">
        <ele>163.39999389648</ele>
        <time>2019-07-08T09:30:35Z</time>
      </trkpt>
      <trkpt lat="44.74316" lon="4.94628">
        <ele>163.39999389648</ele>
        <time>2019-07-08T09:30:40Z</time>
      </trkpt>
      <trkpt lat="44.74305" lon="4.94616">
        <ele>163.39999389648</ele>
        <time>2019-07-08T09:30:45Z</time>
      </trkpt>
      <trkpt lat="44.74288" lon="4.94596">
        <ele>163.39999389648</ele>
        <time>2019-07-08T09:30:51Z</time>
      </trkpt>
      <trkpt lat="44.74265" lon="4.94569">
        <ele>163.39999389648</ele>
        <time>2019-07-08T09:30:58Z</time>
      </trkpt>
      <trkpt lat="44.7425" lon="4.94548">
        <ele>163.39999389648</ele>
        <time>2019-07-08T09:31:04Z</time>
      </trkpt>
      <trkpt lat="44.74236" lon="4.94532">
        <ele>163.39999389648</ele>
        <time>2019-07-08T09:31:10Z</time>
      </trkpt>
      <trkpt lat="44.74232" lon="4.94526">
        <ele>163.39999389648</ele>
        <time>2019-07-08T09:31:14Z</time>
      </trkpt>
      <trkpt lat="44.74229" lon="4.94524">
        <ele>163.39999389648</ele>
        <time>2019-07-08T09:31:20Z</time>
      </trkpt>
      <trkpt lat="44.74229" lon="4.94524">
        <ele>163.39999389648</ele>
        <time>2019-07-08T09:31:36Z</time>
      </trkpt>
      <trkpt lat="44.7423" lon="4.94524">
        <ele>163.39999389648</ele>
        <time>2019-07-08T09:31:41Z</time>
      </trkpt>
      <trkpt lat="44.74229" lon="4.94524">
        <ele>163.39999389648</ele>
        <time>2019-07-08T09:31:43Z</time>
      </trkpt>
      <trkpt lat="44.74222" lon="4.94516">
        <ele>163.39999389648</ele>
        <time>2019-07-08T09:31:48Z</time>
      </trkpt>
      <trkpt lat="44.74213" lon="4.945">
        <ele>163.39999389648</ele>
        <time>2019-07-08T09:31:53Z</time>
      </trkpt>
      <trkpt lat="44.74203" lon="4.9448">
        <ele>163.39999389648</ele>
        <time>2019-07-08T09:31:58Z</time>
      </trkpt>
      <trkpt lat="44.74199" lon="4.94469">
        <ele>163.39999389648</ele>
        <time>2019-07-08T09:32:00Z</time>
      </trkpt>
      <trkpt lat="44.74197" lon="4.94457">
        <ele>163.39999389648</ele>
        <time>2019-07-08T09:32:02Z</time>
      </trkpt>
      <trkpt lat="44.74195" lon="4.94438">
        <ele>163.39999389648</ele>
        <time>2019-07-08T09:32:06Z</time>
      </trkpt>
      <trkpt lat="44.74199" lon="4.94425">
        <ele>163.39999389648</ele>
        <time>2019-07-08T09:32:11Z</time>
      </trkpt>
      <trkpt lat="44.74199" lon="4.94411">
        <ele>163.39999389648</ele>
        <time>2019-07-08T09:32:15Z</time>
      </trkpt>
      <trkpt lat="44.742" lon="4.94406">
        <ele>163.39999389648</ele>
        <time>2019-07-08T09:32:16Z</time>
      </trkpt>
      <trkpt lat="44.74202" lon="4.94386">
        <ele>163.39999389648</ele>
        <time>2019-07-08T09:32:21Z</time>
      </trkpt>
      <trkpt lat="44.74208" lon="4.94358">
        <ele>163.39999389648</ele>
        <time>2019-07-08T09:32:27Z</time>
      </trkpt>
      <trkpt lat="44.74213" lon="4.94335">
        <ele>163.39999389648</ele>
        <time>2019-07-08T09:32:31Z</time>
      </trkpt>
      <trkpt lat="44.74223" lon="4.94293">
        <ele>163.39999389648</ele>
        <time>2019-07-08T09:32:38Z</time>
      </trkpt>
      <trkpt lat="44.74228" lon="4.94267">
        <ele>163.39999389648</ele>
        <time>2019-07-08T09:32:43Z</time>
      </trkpt>
      <trkpt lat="44.74237" lon="4.94237">
        <ele>163.39999389648</ele>
        <time>2019-07-08T09:32:49Z</time>
      </trkpt>
      <trkpt lat="44.74244" lon="4.94206">
        <ele>163.39999389648</ele>
        <time>2019-07-08T09:32:55Z</time>
      </trkpt>
      <trkpt lat="44.74251" lon="4.94186">
        <ele>163.39999389648</ele>
        <time>2019-07-08T09:32:59Z</time>
      </trkpt>
      <trkpt lat="44.74257" lon="4.94164">
        <ele>163.39999389648</ele>
        <time>2019-07-08T09:33:03Z</time>
      </trkpt>
      <trkpt lat="44.74266" lon="4.94135">
        <ele>163.39999389648</ele>
        <time>2019-07-08T09:33:08Z</time>
      </trkpt>
      <trkpt lat="44.74275" lon="4.94099">
        <ele>163.39999389648</ele>
        <time>2019-07-08T09:33:14Z</time>
      </trkpt>
      <trkpt lat="44.74285" lon="4.94062">
        <ele>163.39999389648</ele>
        <time>2019-07-08T09:33:20Z</time>
      </trkpt>
      <trkpt lat="44.74286" lon="4.94056">
        <ele>163.39999389648</ele>
        <time>2019-07-08T09:33:21Z</time>
      </trkpt>
      <trkpt lat="44.74294" lon="4.94021">
        <ele>163.39999389648</ele>
        <time>2019-07-08T09:33:26Z</time>
      </trkpt>
      <trkpt lat="44.74301" lon="4.93993">
        <ele>163.39999389648</ele>
        <time>2019-07-08T09:33:30Z</time>
      </trkpt>
      <trkpt lat="44.74305" lon="4.93978">
        <ele>163.39999389648</ele>
        <time>2019-07-08T09:33:32Z</time>
      </trkpt>
      <trkpt lat="44.74315" lon="4.93937">
        <ele>163.39999389648</ele>
        <time>2019-07-08T09:33:38Z</time>
      </trkpt>
      <trkpt lat="44.74319" lon="4.93924">
        <ele>163.39999389648</ele>
        <time>2019-07-08T09:33:40Z</time>
      </trkpt>
      <trkpt lat="44.74325" lon="4.93905">
        <ele>163.39999389648</ele>
        <time>2019-07-08T09:33:43Z</time>
      </trkpt>
      <trkpt lat="44.74336" lon="4.9386">
        <ele>163.39999389648</ele>
        <time>2019-07-08T09:33:49Z</time>
      </trkpt>
      <trkpt lat="44.74346" lon="4.9382">
        <ele>163.39999389648</ele>
        <time>2019-07-08T09:33:54Z</time>
      </trkpt>
      <trkpt lat="44.74348" lon="4.93813">
        <ele>163.39999389648</ele>
        <time>2019-07-08T09:33:55Z</time>
      </trkpt>
      <trkpt lat="44.74357" lon="4.93775">
        <ele>163.39999389648</ele>
        <time>2019-07-08T09:34:00Z</time>
      </trkpt>
      <trkpt lat="44.74368" lon="4.93733">
        <ele>163.39999389648</ele>
        <time>2019-07-08T09:34:06Z</time>
      </trkpt>
      <trkpt lat="44.74374" lon="4.93705">
        <ele>163.39999389648</ele>
        <time>2019-07-08T09:34:11Z</time>
      </trkpt>
      <trkpt lat="44.74378" lon="4.93689">
        <ele>163.39999389648</ele>
        <time>2019-07-08T09:34:14Z</time>
      </trkpt>
      <trkpt lat="44.7438" lon="4.93683">
        <ele>163.39999389648</ele>
        <time>2019-07-08T09:34:15Z</time>
      </trkpt>
      <trkpt lat="44.74385" lon="4.93657">
        <ele>163.39999389648</ele>
        <time>2019-07-08T09:34:19Z</time>
      </trkpt>
      <trkpt lat="44.74389" lon="4.93642">
        <ele>163.39999389648</ele>
        <time>2019-07-08T09:34:21Z</time>
      </trkpt>
      <trkpt lat="44.74394" lon="4.93627">
        <ele>163.39999389648</ele>
        <time>2019-07-08T09:34:23Z</time>
      </trkpt>
      <trkpt lat="44.74401" lon="4.93603">
        <ele>163.39999389648</ele>
        <time>2019-07-08T09:34:26Z</time>
      </trkpt>
      <trkpt lat="44.74406" lon="4.93578">
        <ele>163.39999389648</ele>
        <time>2019-07-08T09:34:29Z</time>
      </trkpt>
      <trkpt lat="44.74408" lon="4.9357">
        <ele>163.39999389648</ele>
        <time>2019-07-08T09:34:30Z</time>
      </trkpt>
      <trkpt lat="44.74416" lon="4.93537">
        <ele>163.39999389648</ele>
        <time>2019-07-08T09:34:34Z</time>
      </trkpt>
      <trkpt lat="44.7442" lon="4.93522">
        <ele>163.39999389648</ele>
        <time>2019-07-08T09:34:36Z</time>
      </trkpt>
      <trkpt lat="44.74426" lon="4.93492">
        <ele>163.39999389648</ele>
        <time>2019-07-08T09:34:40Z</time>
      </trkpt>
      <trkpt lat="44.74428" lon="4.93485">
        <ele>163.39999389648</ele>
        <time>2019-07-08T09:34:41Z</time>
      </trkpt>
      <trkpt lat="44.74436" lon="4.93457">
        <ele>163.39999389648</ele>
        <time>2019-07-08T09:34:45Z</time>
      </trkpt>
      <trkpt lat="44.74437" lon="4.93449">
        <ele>163.39999389648</ele>
        <time>2019-07-08T09:34:46Z</time>
      </trkpt>
      <trkpt lat="44.74445" lon="4.93419">
        <ele>163.39999389648</ele>
        <time>2019-07-08T09:34:50Z</time>
      </trkpt>
      <trkpt lat="44.74455" lon="4.93374">
        <ele>163.39999389648</ele>
        <time>2019-07-08T09:34:56Z</time>
      </trkpt>
      <trkpt lat="44.74464" lon="4.93346">
        <ele>163.39999389648</ele>
        <time>2019-07-08T09:35:00Z</time>
      </trkpt>
      <trkpt lat="44.74467" lon="4.93331">
        <ele>163.39999389648</ele>
        <time>2019-07-08T09:35:02Z</time>
      </trkpt>
      <trkpt lat="44.74474" lon="4.93302">
        <ele>163.39999389648</ele>
        <time>2019-07-08T09:35:06Z</time>
      </trkpt>
      <trkpt lat="44.74476" lon="4.93295">
        <ele>163.39999389648</ele>
        <time>2019-07-08T09:35:07Z</time>
      </trkpt>
      <trkpt lat="44.74489" lon="4.93243">
        <ele>163.39999389648</ele>
        <time>2019-07-08T09:35:14Z</time>
      </trkpt>
      <trkpt lat="44.745" lon="4.93197">
        <ele>163.39999389648</ele>
        <time>2019-07-08T09:35:20Z</time>
      </trkpt>
      <trkpt lat="44.74515" lon="4.9314">
        <ele>163.39999389648</ele>
        <time>2019-07-08T09:35:27Z</time>
      </trkpt>
      <trkpt lat="44.74529" lon="4.93091">
        <ele>163.39999389648</ele>
        <time>2019-07-08T09:35:33Z</time>
      </trkpt>
      <trkpt lat="44.74531" lon="4.93083">
        <ele>163</ele>
        <time>2019-07-08T09:35:34Z</time>
      </trkpt>
      <trkpt lat="44.74533" lon="4.93074">
        <ele>162.60000610352</ele>
        <time>2019-07-08T09:35:35Z</time>
      </trkpt>
      <trkpt lat="44.74535" lon="4.93066">
        <ele>162.19999694824</ele>
        <time>2019-07-08T09:35:36Z</time>
      </trkpt>
      <trkpt lat="44.74537" lon="4.93057">
        <ele>161.80000305176</ele>
        <time>2019-07-08T09:35:37Z</time>
      </trkpt>
      <trkpt lat="44.74539" lon="4.93049">
        <ele>161.39999389648</ele>
        <time>2019-07-08T09:35:38Z</time>
      </trkpt>
      <trkpt lat="44.74544" lon="4.93031">
        <ele>161.39999389648</ele>
        <time>2019-07-08T09:35:40Z</time>
      </trkpt>
      <trkpt lat="44.74557" lon="4.92982">
        <ele>161.39999389648</ele>
        <time>2019-07-08T09:35:46Z</time>
      </trkpt>
      <trkpt lat="44.7457" lon="4.92933">
        <ele>161.39999389648</ele>
        <time>2019-07-08T09:35:52Z</time>
      </trkpt>
      <trkpt lat="44.7458" lon="4.92892">
        <ele>161.39999389648</ele>
        <time>2019-07-08T09:35:57Z</time>
      </trkpt>
      <trkpt lat="44.74595" lon="4.92826">
        <ele>161.39999389648</ele>
        <time>2019-07-08T09:36:05Z</time>
      </trkpt>
      <trkpt lat="44.746" lon="4.9281">
        <ele>161.39999389648</ele>
        <time>2019-07-08T09:36:07Z</time>
      </trkpt>
      <trkpt lat="44.74609" lon="4.92777">
        <ele>161.39999389648</ele>
        <time>2019-07-08T09:36:11Z</time>
      </trkpt>
      <trkpt lat="44.74619" lon="4.92737">
        <ele>161.39999389648</ele>
        <time>2019-07-08T09:36:16Z</time>
      </trkpt>
      <trkpt lat="44.74625" lon="4.92713">
        <ele>161.39999389648</ele>
        <time>2019-07-08T09:36:19Z</time>
      </trkpt>
      <trkpt lat="44.7463" lon="4.92698">
        <ele>161.39999389648</ele>
        <time>2019-07-08T09:36:21Z</time>
      </trkpt>
      <trkpt lat="44.74631" lon="4.9269">
        <ele>161.39999389648</ele>
        <time>2019-07-08T09:36:22Z</time>
      </trkpt>
      <trkpt lat="44.7464" lon="4.92656">
        <ele>161.39999389648</ele>
        <time>2019-07-08T09:36:26Z</time>
      </trkpt>
      <trkpt lat="44.74643" lon="4.92639">
        <ele>161.39999389648</ele>
        <time>2019-07-08T09:36:28Z</time>
      </trkpt>
      <trkpt lat="44.7465" lon="4.92613">
        <ele>161.39999389648</ele>
        <time>2019-07-08T09:36:31Z</time>
      </trkpt>
      <trkpt lat="44.74655" lon="4.92597">
        <ele>161</ele>
        <time>2019-07-08T09:36:33Z</time>
      </trkpt>
      <trkpt lat="44.74656" lon="4.92589">
        <ele>160.60000610352</ele>
        <time>2019-07-08T09:36:34Z</time>
      </trkpt>
      <trkpt lat="44.74658" lon="4.92581">
        <ele>160.19999694824</ele>
        <time>2019-07-08T09:36:35Z</time>
      </trkpt>
      <trkpt lat="44.7466" lon="4.92574">
        <ele>159.80000305176</ele>
        <time>2019-07-08T09:36:36Z</time>
      </trkpt>
      <trkpt lat="44.74662" lon="4.92566">
        <ele>159.39999389648</ele>
        <time>2019-07-08T09:36:37Z</time>
      </trkpt>
      <trkpt lat="44.74668" lon="4.92542">
        <ele>159.39999389648</ele>
        <time>2019-07-08T09:36:40Z</time>
      </trkpt>
      <trkpt lat="44.7467" lon="4.92533">
        <ele>159.39999389648</ele>
        <time>2019-07-08T09:36:41Z</time>
      </trkpt>
      <trkpt lat="44.74685" lon="4.92475">
        <ele>159.39999389648</ele>
        <time>2019-07-08T09:36:48Z</time>
      </trkpt>
      <trkpt lat="44.74698" lon="4.92426">
        <ele>159.39999389648</ele>
        <time>2019-07-08T09:36:54Z</time>
      </trkpt>
      <trkpt lat="44.74711" lon="4.92375">
        <ele>159.39999389648</ele>
        <time>2019-07-08T09:37:00Z</time>
      </trkpt>
      <trkpt lat="44.74725" lon="4.92323">
        <ele>159.39999389648</ele>
        <time>2019-07-08T09:37:06Z</time>
      </trkpt>
      <trkpt lat="44.74735" lon="4.92278">
        <ele>159.39999389648</ele>
        <time>2019-07-08T09:37:11Z</time>
      </trkpt>
      <trkpt lat="44.74749" lon="4.92225">
        <ele>159.39999389648</ele>
        <time>2019-07-08T09:37:17Z</time>
      </trkpt>
      <trkpt lat="44.74762" lon="4.92174">
        <ele>159.39999389648</ele>
        <time>2019-07-08T09:37:23Z</time>
      </trkpt>
      <trkpt lat="44.74772" lon="4.92144">
        <ele>159.39999389648</ele>
        <time>2019-07-08T09:37:27Z</time>
      </trkpt>
      <trkpt lat="44.74774" lon="4.92137">
        <ele>159.39999389648</ele>
        <time>2019-07-08T09:37:28Z</time>
      </trkpt>
      <trkpt lat="44.74784" lon="4.92098">
        <ele>159.39999389648</ele>
        <time>2019-07-08T09:37:33Z</time>
      </trkpt>
      <trkpt lat="44.74798" lon="4.92043">
        <ele>159.39999389648</ele>
        <time>2019-07-08T09:37:40Z</time>
      </trkpt>
      <trkpt lat="44.74803" lon="4.92018">
        <ele>159.39999389648</ele>
        <time>2019-07-08T09:37:44Z</time>
      </trkpt>
      <trkpt lat="44.74808" lon="4.92009">
        <ele>159.39999389648</ele>
        <time>2019-07-08T09:37:48Z</time>
      </trkpt>
      <trkpt lat="44.74817" lon="4.92001">
        <ele>159.39999389648</ele>
        <time>2019-07-08T09:37:53Z</time>
      </trkpt>
      <trkpt lat="44.7482" lon="4.91995">
        <ele>159.39999389648</ele>
        <time>2019-07-08T09:37:56Z</time>
      </trkpt>
      <trkpt lat="44.74819" lon="4.91991">
        <ele>159.39999389648</ele>
        <time>2019-07-08T09:37:58Z</time>
      </trkpt>
      <trkpt lat="44.74811" lon="4.91995">
        <ele>159.39999389648</ele>
        <time>2019-07-08T09:38:01Z</time>
      </trkpt>
      <trkpt lat="44.74807" lon="4.91996">
        <ele>159.39999389648</ele>
        <time>2019-07-08T09:38:02Z</time>
      </trkpt>
      <trkpt lat="44.74803" lon="4.91995">
        <ele>159</ele>
        <time>2019-07-08T09:38:03Z</time>
      </trkpt>
      <trkpt lat="44.74802" lon="4.91992">
        <ele>158.39999389648</ele>
        <time>2019-07-08T09:38:04Z</time>
      </trkpt>
      <trkpt lat="44.74802" lon="4.91986">
        <ele>158</ele>
        <time>2019-07-08T09:38:05Z</time>
      </trkpt>
      <trkpt lat="44.74802" lon="4.9198">
        <ele>157.39999389648</ele>
        <time>2019-07-08T09:38:06Z</time>
      </trkpt>
      <trkpt lat="44.74803" lon="4.91974">
        <ele>157</ele>
        <time>2019-07-08T09:38:07Z</time>
      </trkpt>
      <trkpt lat="44.74805" lon="4.91967">
        <ele>156.60000610352</ele>
        <time>2019-07-08T09:38:08Z</time>
      </trkpt>
      <trkpt lat="44.74806" lon="4.91961">
        <ele>156</ele>
        <time>2019-07-08T09:38:09Z</time>
      </trkpt>
      <trkpt lat="44.74808" lon="4.91955">
        <ele>155.60000610352</ele>
        <time>2019-07-08T09:38:10Z</time>
      </trkpt>
      <trkpt lat="44.74809" lon="4.9195">
        <ele>154.60000610352</ele>
        <time>2019-07-08T09:38:11Z</time>
      </trkpt>
      <trkpt lat="44.7481" lon="4.91947">
        <ele>154.60000610352</ele>
        <time>2019-07-08T09:38:12Z</time>
      </trkpt>
      <trkpt lat="44.7481" lon="4.91942">
        <ele>154.19999694824</ele>
        <time>2019-07-08T09:38:16Z</time>
      </trkpt>
      <trkpt lat="44.7481" lon="4.91942">
        <ele>153.80000305176</ele>
        <time>2019-07-08T09:38:17Z</time>
      </trkpt>
      <trkpt lat="44.7481" lon="4.91942">
        <ele>153.39999389648</ele>
        <time>2019-07-08T09:38:18Z</time>
      </trkpt>
      <trkpt lat="44.7481" lon="4.91942">
        <ele>152.80000305176</ele>
        <time>2019-07-08T09:38:19Z</time>
      </trkpt>
      <trkpt lat="44.7481" lon="4.91942">
        <ele>152.39999389648</ele>
        <time>2019-07-08T09:38:20Z</time>
      </trkpt>
      <trkpt lat="44.74809" lon="4.91944">
        <ele>152.39999389648</ele>
        <time>2019-07-08T09:38:24Z</time>
      </trkpt>
      <trkpt lat="44.74809" lon="4.91945">
        <ele>152.39999389648</ele>
        <time>2019-07-08T09:38:29Z</time>
      </trkpt>
      <trkpt lat="44.74806" lon="4.91955">
        <ele>152.39999389648</ele>
        <time>2019-07-08T09:38:33Z</time>
      </trkpt>
      <trkpt lat="44.74806" lon="4.91958">
        <ele>152.39999389648</ele>
        <time>2019-07-08T09:38:34Z</time>
      </trkpt>
      <trkpt lat="44.74805" lon="4.9197">
        <ele>152.39999389648</ele>
        <time>2019-07-08T09:38:39Z</time>
      </trkpt>
      <trkpt lat="44.74803" lon="4.91982">
        <ele>152.39999389648</ele>
        <time>2019-07-08T09:38:44Z</time>
      </trkpt>
      <trkpt lat="44.74803" lon="4.91985">
        <ele>153</ele>
        <time>2019-07-08T09:38:45Z</time>
      </trkpt>
      <trkpt lat="44.74803" lon="4.91986">
        <ele>153.39999389648</ele>
        <time>2019-07-08T09:38:46Z</time>
      </trkpt>
      <trkpt lat="44.74804" lon="4.91988">
        <ele>153.80000305176</ele>
        <time>2019-07-08T09:38:47Z</time>
      </trkpt>
      <trkpt lat="44.74805" lon="4.9199">
        <ele>154.19999694824</ele>
        <time>2019-07-08T09:38:48Z</time>
      </trkpt>
      <trkpt lat="44.74806" lon="4.91991">
        <ele>154.60000610352</ele>
        <time>2019-07-08T09:38:49Z</time>
      </trkpt>
      <trkpt lat="44.74816" lon="4.91988">
        <ele>155</ele>
        <time>2019-07-08T09:38:55Z</time>
      </trkpt>
      <trkpt lat="44.74817" lon="4.91987">
        <ele>155.39999389648</ele>
        <time>2019-07-08T09:38:56Z</time>
      </trkpt>
      <trkpt lat="44.74818" lon="4.91985">
        <ele>156</ele>
        <time>2019-07-08T09:38:57Z</time>
      </trkpt>
      <trkpt lat="44.74819" lon="4.91983">
        <ele>156.39999389648</ele>
        <time>2019-07-08T09:38:58Z</time>
      </trkpt>
      <trkpt lat="44.74819" lon="4.9198">
        <ele>156.80000305176</ele>
        <time>2019-07-08T09:38:59Z</time>
      </trkpt>
      <trkpt lat="44.7482" lon="4.91978">
        <ele>156.80000305176</ele>
        <time>2019-07-08T09:39:00Z</time>
      </trkpt>
      <trkpt lat="44.74825" lon="4.91974">
        <ele>156.80000305176</ele>
        <time>2019-07-08T09:39:03Z</time>
      </trkpt>
      <trkpt lat="44.74827" lon="4.91967">
        <ele>156.80000305176</ele>
        <time>2019-07-08T09:39:06Z</time>
      </trkpt>
      <trkpt lat="44.74824" lon="4.91953">
        <ele>157.19999694824</ele>
        <time>2019-07-08T09:39:10Z</time>
      </trkpt>
      <trkpt lat="44.74824" lon="4.9195">
        <ele>157.60000610352</ele>
        <time>2019-07-08T09:39:11Z</time>
      </trkpt>
      <trkpt lat="44.74825" lon="4.91947">
        <ele>158</ele>
        <time>2019-07-08T09:39:12Z</time>
      </trkpt>
      <trkpt lat="44.74826" lon="4.91944">
        <ele>158.39999389648</ele>
        <time>2019-07-08T09:39:13Z</time>
      </trkpt>
      <trkpt lat="44.74827" lon="4.91938">
        <ele>158.80000305176</ele>
        <time>2019-07-08T09:39:14Z</time>
      </trkpt>
      <trkpt lat="44.7483" lon="4.91931">
        <ele>158.80000305176</ele>
        <time>2019-07-08T09:39:15Z</time>
      </trkpt>
      <trkpt lat="44.74833" lon="4.91923">
        <ele>158.80000305176</ele>
        <time>2019-07-08T09:39:16Z</time>
      </trkpt>
      <trkpt lat="44.74837" lon="4.91914">
        <ele>158.39999389648</ele>
        <time>2019-07-08T09:39:17Z</time>
      </trkpt>
      <trkpt lat="44.7484" lon="4.91905">
        <ele>158</ele>
        <time>2019-07-08T09:39:18Z</time>
      </trkpt>
      <trkpt lat="44.74844" lon="4.91895">
        <ele>157.60000610352</ele>
        <time>2019-07-08T09:39:19Z</time>
      </trkpt>
      <trkpt lat="44.74847" lon="4.91886">
        <ele>157.19999694824</ele>
        <time>2019-07-08T09:39:20Z</time>
      </trkpt>
      <trkpt lat="44.74848" lon="4.91877">
        <ele>156.60000610352</ele>
        <time>2019-07-08T09:39:21Z</time>
      </trkpt>
      <trkpt lat="44.74849" lon="4.91867">
        <ele>156.19999694824</ele>
        <time>2019-07-08T09:39:22Z</time>
      </trkpt>
      <trkpt lat="44.74847" lon="4.91859">
        <ele>155.60000610352</ele>
        <time>2019-07-08T09:39:23Z</time>
      </trkpt>
      <trkpt lat="44.74847" lon="4.91854">
        <ele>155.19999694824</ele>
        <time>2019-07-08T09:39:24Z</time>
      </trkpt>
      <trkpt lat="44.74847" lon="4.9185">
        <ele>154.80000305176</ele>
        <time>2019-07-08T09:39:25Z</time>
      </trkpt>
      <trkpt lat="44.74849" lon="4.91835">
        <ele>154.80000305176</ele>
        <time>2019-07-08T09:39:30Z</time>
      </trkpt>
      <trkpt lat="44.74854" lon="4.91813">
        <ele>154.80000305176</ele>
        <time>2019-07-08T09:39:35Z</time>
      </trkpt>
      <trkpt lat="44.7486" lon="4.91784">
        <ele>154.80000305176</ele>
        <time>2019-07-08T09:39:41Z</time>
      </trkpt>
      <trkpt lat="44.74867" lon="4.91758">
        <ele>154.80000305176</ele>
        <time>2019-07-08T09:39:46Z</time>
      </trkpt>
      <trkpt lat="44.74873" lon="4.91735">
        <ele>154.80000305176</ele>
        <time>2019-07-08T09:39:50Z</time>
      </trkpt>
      <trkpt lat="44.74875" lon="4.91729">
        <ele>154.80000305176</ele>
        <time>2019-07-08T09:39:51Z</time>
      </trkpt>
      <trkpt lat="44.74882" lon="4.91701">
        <ele>154.80000305176</ele>
        <time>2019-07-08T09:39:55Z</time>
      </trkpt>
      <trkpt lat="44.74886" lon="4.91686">
        <ele>154.80000305176</ele>
        <time>2019-07-08T09:39:57Z</time>
      </trkpt>
      <trkpt lat="44.74896" lon="4.91648">
        <ele>154.80000305176</ele>
        <time>2019-07-08T09:40:02Z</time>
      </trkpt>
      <trkpt lat="44.74905" lon="4.91618">
        <ele>154.80000305176</ele>
        <time>2019-07-08T09:40:06Z</time>
      </trkpt>
      <trkpt lat="44.7491" lon="4.91604">
        <ele>154.80000305176</ele>
        <time>2019-07-08T09:40:08Z</time>
      </trkpt>
      <trkpt lat="44.7492" lon="4.91563">
        <ele>154.80000305176</ele>
        <time>2019-07-08T09:40:13Z</time>
      </trkpt>
      <trkpt lat="44.74935" lon="4.91504">
        <ele>154.80000305176</ele>
        <time>2019-07-08T09:40:20Z</time>
      </trkpt>
      <trkpt lat="44.74936" lon="4.91496">
        <ele>154.80000305176</ele>
        <time>2019-07-08T09:40:21Z</time>
      </trkpt>
      <trkpt lat="44.74942" lon="4.91472">
        <ele>154.80000305176</ele>
        <time>2019-07-08T09:40:24Z</time>
      </trkpt>
      <trkpt lat="44.74951" lon="4.91439">
        <ele>154.80000305176</ele>
        <time>2019-07-08T09:40:28Z</time>
      </trkpt>
      <trkpt lat="44.74953" lon="4.91431">
        <ele>154.80000305176</ele>
        <time>2019-07-08T09:40:29Z</time>
      </trkpt>
      <trkpt lat="44.74959" lon="4.91406">
        <ele>154.80000305176</ele>
        <time>2019-07-08T09:40:32Z</time>
      </trkpt>
      <trkpt lat="44.74962" lon="4.91398">
        <ele>154.80000305176</ele>
        <time>2019-07-08T09:40:33Z</time>
      </trkpt>
      <trkpt lat="44.74963" lon="4.9139">
        <ele>154.80000305176</ele>
        <time>2019-07-08T09:40:34Z</time>
      </trkpt>
      <trkpt lat="44.74969" lon="4.91364">
        <ele>154.80000305176</ele>
        <time>2019-07-08T09:40:37Z</time>
      </trkpt>
      <trkpt lat="44.74982" lon="4.91315">
        <ele>154.80000305176</ele>
        <time>2019-07-08T09:40:43Z</time>
      </trkpt>
      <trkpt lat="44.74984" lon="4.91307">
        <ele>154.80000305176</ele>
        <time>2019-07-08T09:40:44Z</time>
      </trkpt>
      <trkpt lat="44.74988" lon="4.91291">
        <ele>154.80000305176</ele>
        <time>2019-07-08T09:40:46Z</time>
      </trkpt>
      <trkpt lat="44.74994" lon="4.9127">
        <ele>154.80000305176</ele>
        <time>2019-07-08T09:40:49Z</time>
      </trkpt>
      <trkpt lat="44.75005" lon="4.91232">
        <ele>154.80000305176</ele>
        <time>2019-07-08T09:40:54Z</time>
      </trkpt>
      <trkpt lat="44.75007" lon="4.91224">
        <ele>154.80000305176</ele>
        <time>2019-07-08T09:40:55Z</time>
      </trkpt>
      <trkpt lat="44.75015" lon="4.91189">
        <ele>154.80000305176</ele>
        <time>2019-07-08T09:41:00Z</time>
      </trkpt>
      <trkpt lat="44.75019" lon="4.9117">
        <ele>154.80000305176</ele>
        <time>2019-07-08T09:41:03Z</time>
      </trkpt>
      <trkpt lat="44.75023" lon="4.91151">
        <ele>154.80000305176</ele>
        <time>2019-07-08T09:41:06Z</time>
      </trkpt>
      <trkpt lat="44.75024" lon="4.91144">
        <ele>154.19999694824</ele>
        <time>2019-07-08T09:41:07Z</time>
      </trkpt>
      <trkpt lat="44.75025" lon="4.91139">
        <ele>153.80000305176</ele>
        <time>2019-07-08T09:41:08Z</time>
      </trkpt>
      <trkpt lat="44.75025" lon="4.91137">
        <ele>153.39999389648</ele>
        <time>2019-07-08T09:41:09Z</time>
      </trkpt>
      <trkpt lat="44.75025" lon="4.91136">
        <ele>152.80000305176</ele>
        <time>2019-07-08T09:41:10Z</time>
      </trkpt>
      <trkpt lat="44.75025" lon="4.91135">
        <ele>152.39999389648</ele>
        <time>2019-07-08T09:41:11Z</time>
      </trkpt>
      <trkpt lat="44.75026" lon="4.91134">
        <ele>152.39999389648</ele>
        <time>2019-07-08T09:41:14Z</time>
      </trkpt>
      <trkpt lat="44.75027" lon="4.91133">
        <ele>152.39999389648</ele>
        <time>2019-07-08T09:41:16Z</time>
      </trkpt>
      <trkpt lat="44.75029" lon="4.9113">
        <ele>152.39999389648</ele>
        <time>2019-07-08T09:41:19Z</time>
      </trkpt>
      <trkpt lat="44.75028" lon="4.91128">
        <ele>152.39999389648</ele>
        <time>2019-07-08T09:41:21Z</time>
      </trkpt>
      <trkpt lat="44.75028" lon="4.91128">
        <ele>152.39999389648</ele>
        <time>2019-07-08T09:41:27Z</time>
      </trkpt>
      <trkpt lat="44.75029" lon="4.91125">
        <ele>152.39999389648</ele>
        <time>2019-07-08T09:41:28Z</time>
      </trkpt>
      <trkpt lat="44.7503" lon="4.91118">
        <ele>152.39999389648</ele>
        <time>2019-07-08T09:41:31Z</time>
      </trkpt>
      <trkpt lat="44.75031" lon="4.91108">
        <ele>152.39999389648</ele>
        <time>2019-07-08T09:41:33Z</time>
      </trkpt>
      <trkpt lat="44.75032" lon="4.91104">
        <ele>152.39999389648</ele>
        <time>2019-07-08T09:41:34Z</time>
      </trkpt>
      <trkpt lat="44.75036" lon="4.91093">
        <ele>152.39999389648</ele>
        <time>2019-07-08T09:41:37Z</time>
      </trkpt>
      <trkpt lat="44.75039" lon="4.91083">
        <ele>152.39999389648</ele>
        <time>2019-07-08T09:41:39Z</time>
      </trkpt>
      <trkpt lat="44.75046" lon="4.9106">
        <ele>152.39999389648</ele>
        <time>2019-07-08T09:41:43Z</time>
      </trkpt>
      <trkpt lat="44.75047" lon="4.91054">
        <ele>152.39999389648</ele>
        <time>2019-07-08T09:41:44Z</time>
      </trkpt>
      <trkpt lat="44.75055" lon="4.91028">
        <ele>152.39999389648</ele>
        <time>2019-07-08T09:41:48Z</time>
      </trkpt>
      <trkpt lat="44.75057" lon="4.91021">
        <ele>152.39999389648</ele>
        <time>2019-07-08T09:41:49Z</time>
      </trkpt>
      <trkpt lat="44.75064" lon="4.90985">
        <ele>152.39999389648</ele>
        <time>2019-07-08T09:41:54Z</time>
      </trkpt>
      <trkpt lat="44.75067" lon="4.90973">
        <ele>152.39999389648</ele>
        <time>2019-07-08T09:41:56Z</time>
      </trkpt>
      <trkpt lat="44.75072" lon="4.90956">
        <ele>152.39999389648</ele>
        <time>2019-07-08T09:41:59Z</time>
      </trkpt>
      <trkpt lat="44.7508" lon="4.90928">
        <ele>152.39999389648</ele>
        <time>2019-07-08T09:42:03Z</time>
      </trkpt>
      <trkpt lat="44.75082" lon="4.9092">
        <ele>152.39999389648</ele>
        <time>2019-07-08T09:42:04Z</time>
      </trkpt>
      <trkpt lat="44.75087" lon="4.90892">
        <ele>152.39999389648</ele>
        <time>2019-07-08T09:42:08Z</time>
      </trkpt>
      <trkpt lat="44.75091" lon="4.90879">
        <ele>152.39999389648</ele>
        <time>2019-07-08T09:42:10Z</time>
      </trkpt>
      <trkpt lat="44.75096" lon="4.90858">
        <ele>152.39999389648</ele>
        <time>2019-07-08T09:42:13Z</time>
      </trkpt>
      <trkpt lat="44.75105" lon="4.90821">
        <ele>152.39999389648</ele>
        <time>2019-07-08T09:42:18Z</time>
      </trkpt>
      <trkpt lat="44.75107" lon="4.90813">
        <ele>152.39999389648</ele>
        <time>2019-07-08T09:42:19Z</time>
      </trkpt>
      <trkpt lat="44.75116" lon="4.90781">
        <ele>152.39999389648</ele>
        <time>2019-07-08T09:42:23Z</time>
      </trkpt>
      <trkpt lat="44.7512" lon="4.90765">
        <ele>152.39999389648</ele>
        <time>2019-07-08T09:42:25Z</time>
      </trkpt>
      <trkpt lat="44.75126" lon="4.90741">
        <ele>152.39999389648</ele>
        <time>2019-07-08T09:42:28Z</time>
      </trkpt>
      <trkpt lat="44.75129" lon="4.90733">
        <ele>152.39999389648</ele>
        <time>2019-07-08T09:42:29Z</time>
      </trkpt>
      <trkpt lat="44.75136" lon="4.9071">
        <ele>152.39999389648</ele>
        <time>2019-07-08T09:42:32Z</time>
      </trkpt>
      <trkpt lat="44.75144" lon="4.90677">
        <ele>152.39999389648</ele>
        <time>2019-07-08T09:42:36Z</time>
      </trkpt>
      <trkpt lat="44.75146" lon="4.9067">
        <ele>152.39999389648</ele>
        <time>2019-07-08T09:42:37Z</time>
      </trkpt>
      <trkpt lat="44.75157" lon="4.90628">
        <ele>152.39999389648</ele>
        <time>2019-07-08T09:42:42Z</time>
      </trkpt>
      <trkpt lat="44.75161" lon="4.90611">
        <ele>152.39999389648</ele>
        <time>2019-07-08T09:42:44Z</time>
      </trkpt>
      <trkpt lat="44.75168" lon="4.90586">
        <ele>152.39999389648</ele>
        <time>2019-07-08T09:42:47Z</time>
      </trkpt>
      <trkpt lat="44.75181" lon="4.90537">
        <ele>152.39999389648</ele>
        <time>2019-07-08T09:42:53Z</time>
      </trkpt>
      <trkpt lat="44.75194" lon="4.90484">
        <ele>152.39999389648</ele>
        <time>2019-07-08T09:42:59Z</time>
      </trkpt>
      <trkpt lat="44.75202" lon="4.90452">
        <ele>152.39999389648</ele>
        <time>2019-07-08T09:43:03Z</time>
      </trkpt>
      <trkpt lat="44.75206" lon="4.90436">
        <ele>152.39999389648</ele>
        <time>2019-07-08T09:43:05Z</time>
      </trkpt>
      <trkpt lat="44.75211" lon="4.90409">
        <ele>152.39999389648</ele>
        <time>2019-07-08T09:43:08Z</time>
      </trkpt>
      <trkpt lat="44.75226" lon="4.90352">
        <ele>152.39999389648</ele>
        <time>2019-07-08T09:43:15Z</time>
      </trkpt>
      <trkpt lat="44.75231" lon="4.90329">
        <ele>152.39999389648</ele>
        <time>2019-07-08T09:43:18Z</time>
      </trkpt>
      <trkpt lat="44.75237" lon="4.90307">
        <ele>152.39999389648</ele>
        <time>2019-07-08T09:43:21Z</time>
      </trkpt>
      <trkpt lat="44.75242" lon="4.90292">
        <ele>152</ele>
        <time>2019-07-08T09:43:23Z</time>
      </trkpt>
      <trkpt lat="44.75243" lon="4.90285">
        <ele>151.60000610352</ele>
        <time>2019-07-08T09:43:24Z</time>
      </trkpt>
      <trkpt lat="44.75245" lon="4.90277">
        <ele>151.19999694824</ele>
        <time>2019-07-08T09:43:25Z</time>
      </trkpt>
      <trkpt lat="44.75247" lon="4.9027">
        <ele>150.80000305176</ele>
        <time>2019-07-08T09:43:26Z</time>
      </trkpt>
      <trkpt lat="44.75249" lon="4.90263">
        <ele>150.19999694824</ele>
        <time>2019-07-08T09:43:27Z</time>
      </trkpt>
      <trkpt lat="44.75253" lon="4.90248">
        <ele>150.19999694824</ele>
        <time>2019-07-08T09:43:29Z</time>
      </trkpt>
      <trkpt lat="44.75255" lon="4.9024">
        <ele>150.19999694824</ele>
        <time>2019-07-08T09:43:30Z</time>
      </trkpt>
      <trkpt lat="44.75258" lon="4.90224">
        <ele>150.19999694824</ele>
        <time>2019-07-08T09:43:32Z</time>
      </trkpt>
      <trkpt lat="44.75263" lon="4.90202">
        <ele>150.19999694824</ele>
        <time>2019-07-08T09:43:35Z</time>
      </trkpt>
      <trkpt lat="44.75265" lon="4.90195">
        <ele>150.19999694824</ele>
        <time>2019-07-08T09:43:36Z</time>
      </trkpt>
      <trkpt lat="44.7527" lon="4.90174">
        <ele>150.19999694824</ele>
        <time>2019-07-08T09:43:39Z</time>
      </trkpt>
      <trkpt lat="44.75279" lon="4.90144">
        <ele>150.19999694824</ele>
        <time>2019-07-08T09:43:43Z</time>
      </trkpt>
      <trkpt lat="44.75283" lon="4.90128">
        <ele>150.19999694824</ele>
        <time>2019-07-08T09:43:45Z</time>
      </trkpt>
      <trkpt lat="44.75289" lon="4.90103">
        <ele>150.19999694824</ele>
        <time>2019-07-08T09:43:48Z</time>
      </trkpt>
      <trkpt lat="44.75297" lon="4.9007">
        <ele>150.19999694824</ele>
        <time>2019-07-08T09:43:52Z</time>
      </trkpt>
      <trkpt lat="44.753" lon="4.90063">
        <ele>150.19999694824</ele>
        <time>2019-07-08T09:43:53Z</time>
      </trkpt>
      <trkpt lat="44.75301" lon="4.90055">
        <ele>150.19999694824</ele>
        <time>2019-07-08T09:43:54Z</time>
      </trkpt>
      <trkpt lat="44.75305" lon="4.9004">
        <ele>150.19999694824</ele>
        <time>2019-07-08T09:43:56Z</time>
      </trkpt>
      <trkpt lat="44.75307" lon="4.90031">
        <ele>150.19999694824</ele>
        <time>2019-07-08T09:43:57Z</time>
      </trkpt>
      <trkpt lat="44.75314" lon="4.90008">
        <ele>150.19999694824</ele>
        <time>2019-07-08T09:44:00Z</time>
      </trkpt>
      <trkpt lat="44.75315" lon="4.90001">
        <ele>150.19999694824</ele>
        <time>2019-07-08T09:44:01Z</time>
      </trkpt>
      <trkpt lat="44.75317" lon="4.89992">
        <ele>150.19999694824</ele>
        <time>2019-07-08T09:44:02Z</time>
      </trkpt>
      <trkpt lat="44.75323" lon="4.89968">
        <ele>150.19999694824</ele>
        <time>2019-07-08T09:44:05Z</time>
      </trkpt>
      <trkpt lat="44.75326" lon="4.89955">
        <ele>149.80000305176</ele>
        <time>2019-07-08T09:44:07Z</time>
      </trkpt>
      <trkpt lat="44.75328" lon="4.89948">
        <ele>149.39999389648</ele>
        <time>2019-07-08T09:44:08Z</time>
      </trkpt>
      <trkpt lat="44.7533" lon="4.89941">
        <ele>149</ele>
        <time>2019-07-08T09:44:09Z</time>
      </trkpt>
      <trkpt lat="44.75331" lon="4.89934">
        <ele>148.60000610352</ele>
        <time>2019-07-08T09:44:10Z</time>
      </trkpt>
      <trkpt lat="44.75333" lon="4.89927">
        <ele>148.19999694824</ele>
        <time>2019-07-08T09:44:11Z</time>
      </trkpt>
      <trkpt lat="44.75337" lon="4.89915">
        <ele>148.19999694824</ele>
        <time>2019-07-08T09:44:13Z</time>
      </trkpt>
      <trkpt lat="44.75344" lon="4.89892">
        <ele>148.19999694824</ele>
        <time>2019-07-08T09:44:16Z</time>
      </trkpt>
      <trkpt lat="44.7535" lon="4.89862">
        <ele>148.19999694824</ele>
        <time>2019-07-08T09:44:20Z</time>
      </trkpt>
      <trkpt lat="44.75354" lon="4.89847">
        <ele>148.19999694824</ele>
        <time>2019-07-08T09:44:22Z</time>
      </trkpt>
      <trkpt lat="44.75359" lon="4.89827">
        <ele>148.19999694824</ele>
        <time>2019-07-08T09:44:25Z</time>
      </trkpt>
      <trkpt lat="44.75361" lon="4.89821">
        <ele>148.19999694824</ele>
        <time>2019-07-08T09:44:26Z</time>
      </trkpt>
      <trkpt lat="44.75368" lon="4.89792">
        <ele>148.19999694824</ele>
        <time>2019-07-08T09:44:31Z</time>
      </trkpt>
      <trkpt lat="44.75373" lon="4.8977">
        <ele>148.19999694824</ele>
        <time>2019-07-08T09:44:35Z</time>
      </trkpt>
      <trkpt lat="44.7538" lon="4.89743">
        <ele>148.19999694824</ele>
        <time>2019-07-08T09:44:39Z</time>
      </trkpt>
      <trkpt lat="44.75387" lon="4.89711">
        <ele>148.19999694824</ele>
        <time>2019-07-08T09:44:43Z</time>
      </trkpt>
      <trkpt lat="44.75389" lon="4.89704">
        <ele>148.19999694824</ele>
        <time>2019-07-08T09:44:44Z</time>
      </trkpt>
      <trkpt lat="44.75397" lon="4.89677">
        <ele>148.19999694824</ele>
        <time>2019-07-08T09:44:48Z</time>
      </trkpt>
      <trkpt lat="44.754" lon="4.89661">
        <ele>148.19999694824</ele>
        <time>2019-07-08T09:44:50Z</time>
      </trkpt>
      <trkpt lat="44.7541" lon="4.89622">
        <ele>148.19999694824</ele>
        <time>2019-07-08T09:44:55Z</time>
      </trkpt>
      <trkpt lat="44.75417" lon="4.89592">
        <ele>148.19999694824</ele>
        <time>2019-07-08T09:44:59Z</time>
      </trkpt>
      <trkpt lat="44.7542" lon="4.89585">
        <ele>148.19999694824</ele>
        <time>2019-07-08T09:45:00Z</time>
      </trkpt>
      <trkpt lat="44.75427" lon="4.89556">
        <ele>148.19999694824</ele>
        <time>2019-07-08T09:45:04Z</time>
      </trkpt>
      <trkpt lat="44.75428" lon="4.89549">
        <ele>148.19999694824</ele>
        <time>2019-07-08T09:45:05Z</time>
      </trkpt>
      <trkpt lat="44.75432" lon="4.89536">
        <ele>148.19999694824</ele>
        <time>2019-07-08T09:45:07Z</time>
      </trkpt>
      <trkpt lat="44.75435" lon="4.89522">
        <ele>148.19999694824</ele>
        <time>2019-07-08T09:45:09Z</time>
      </trkpt>
      <trkpt lat="44.75437" lon="4.89515">
        <ele>148.19999694824</ele>
        <time>2019-07-08T09:45:10Z</time>
      </trkpt>
      <trkpt lat="44.75438" lon="4.89508">
        <ele>147.80000305176</ele>
        <time>2019-07-08T09:45:11Z</time>
      </trkpt>
      <trkpt lat="44.75439" lon="4.89502">
        <ele>147.39999389648</ele>
        <time>2019-07-08T09:45:12Z</time>
      </trkpt>
      <trkpt lat="44.7544" lon="4.89497">
        <ele>147</ele>
        <time>2019-07-08T09:45:13Z</time>
      </trkpt>
      <trkpt lat="44.75442" lon="4.89492">
        <ele>146.60000610352</ele>
        <time>2019-07-08T09:45:14Z</time>
      </trkpt>
      <trkpt lat="44.75445" lon="4.89486">
        <ele>146.19999694824</ele>
        <time>2019-07-08T09:45:15Z</time>
      </trkpt>
      <trkpt lat="44.75448" lon="4.8947">
        <ele>146.19999694824</ele>
        <time>2019-07-08T09:45:18Z</time>
      </trkpt>
      <trkpt lat="44.75452" lon="4.89454">
        <ele>146.19999694824</ele>
        <time>2019-07-08T09:45:22Z</time>
      </trkpt>
      <trkpt lat="44.75453" lon="4.89449">
        <ele>146.19999694824</ele>
        <time>2019-07-08T09:45:26Z</time>
      </trkpt>
      <trkpt lat="44.75453" lon="4.89449">
        <ele>146.19999694824</ele>
        <time>2019-07-08T09:45:37Z</time>
      </trkpt>
      <trkpt lat="44.75453" lon="4.89449">
        <ele>146.19999694824</ele>
        <time>2019-07-08T09:45:53Z</time>
      </trkpt>
      <trkpt lat="44.75454" lon="4.89445">
        <ele>146.19999694824</ele>
        <time>2019-07-08T09:46:02Z</time>
      </trkpt>
      <trkpt lat="44.75457" lon="4.89429">
        <ele>146.19999694824</ele>
        <time>2019-07-08T09:46:06Z</time>
      </trkpt>
      <trkpt lat="44.75463" lon="4.89412">
        <ele>146.19999694824</ele>
        <time>2019-07-08T09:46:10Z</time>
      </trkpt>
      <trkpt lat="44.75466" lon="4.89397">
        <ele>146.19999694824</ele>
        <time>2019-07-08T09:46:13Z</time>
      </trkpt>
      <trkpt lat="44.75467" lon="4.89392">
        <ele>146.19999694824</ele>
        <time>2019-07-08T09:46:14Z</time>
      </trkpt>
      <trkpt lat="44.75476" lon="4.89366">
        <ele>146.19999694824</ele>
        <time>2019-07-08T09:46:19Z</time>
      </trkpt>
      <trkpt lat="44.75477" lon="4.8936">
        <ele>146.19999694824</ele>
        <time>2019-07-08T09:46:20Z</time>
      </trkpt>
      <trkpt lat="44.75482" lon="4.89339">
        <ele>146.19999694824</ele>
        <time>2019-07-08T09:46:23Z</time>
      </trkpt>
      <trkpt lat="44.75487" lon="4.89308">
        <ele>146.19999694824</ele>
        <time>2019-07-08T09:46:27Z</time>
      </trkpt>
      <trkpt lat="44.75491" lon="4.89293">
        <ele>146.19999694824</ele>
        <time>2019-07-08T09:46:29Z</time>
      </trkpt>
      <trkpt lat="44.75495" lon="4.89276">
        <ele>146.19999694824</ele>
        <time>2019-07-08T09:46:31Z</time>
      </trkpt>
      <trkpt lat="44.75498" lon="4.89268">
        <ele>146.19999694824</ele>
        <time>2019-07-08T09:46:32Z</time>
      </trkpt>
      <trkpt lat="44.75504" lon="4.89243">
        <ele>146.19999694824</ele>
        <time>2019-07-08T09:46:35Z</time>
      </trkpt>
      <trkpt lat="44.75508" lon="4.89226">
        <ele>146.19999694824</ele>
        <time>2019-07-08T09:46:37Z</time>
      </trkpt>
      <trkpt lat="44.75512" lon="4.8921">
        <ele>146.19999694824</ele>
        <time>2019-07-08T09:46:39Z</time>
      </trkpt>
      <trkpt lat="44.75518" lon="4.89185">
        <ele>146.19999694824</ele>
        <time>2019-07-08T09:46:42Z</time>
      </trkpt>
      <trkpt lat="44.75527" lon="4.8915">
        <ele>146.19999694824</ele>
        <time>2019-07-08T09:46:46Z</time>
      </trkpt>
      <trkpt lat="44.75532" lon="4.89133">
        <ele>146.19999694824</ele>
        <time>2019-07-08T09:46:48Z</time>
      </trkpt>
      <trkpt lat="44.75535" lon="4.89125">
        <ele>145.80000305176</ele>
        <time>2019-07-08T09:46:49Z</time>
      </trkpt>
      <trkpt lat="44.75537" lon="4.89117">
        <ele>145</ele>
        <time>2019-07-08T09:46:50Z</time>
      </trkpt>
      <trkpt lat="44.75539" lon="4.89109">
        <ele>144.60000610352</ele>
        <time>2019-07-08T09:46:51Z</time>
      </trkpt>
      <trkpt lat="44.7554" lon="4.891">
        <ele>144.19999694824</ele>
        <time>2019-07-08T09:46:52Z</time>
      </trkpt>
      <trkpt lat="44.75546" lon="4.89077">
        <ele>144.19999694824</ele>
        <time>2019-07-08T09:46:55Z</time>
      </trkpt>
      <trkpt lat="44.75556" lon="4.89037">
        <ele>144.19999694824</ele>
        <time>2019-07-08T09:47:00Z</time>
      </trkpt>
      <trkpt lat="44.75561" lon="4.89022">
        <ele>144.19999694824</ele>
        <time>2019-07-08T09:47:02Z</time>
      </trkpt>
      <trkpt lat="44.75567" lon="4.89008">
        <ele>144.19999694824</ele>
        <time>2019-07-08T09:47:04Z</time>
      </trkpt>
      <trkpt lat="44.75571" lon="4.88992">
        <ele>144.19999694824</ele>
        <time>2019-07-08T09:47:06Z</time>
      </trkpt>
      <trkpt lat="44.75576" lon="4.88967">
        <ele>144.19999694824</ele>
        <time>2019-07-08T09:47:09Z</time>
      </trkpt>
      <trkpt lat="44.75581" lon="4.88943">
        <ele>144.19999694824</ele>
        <time>2019-07-08T09:47:12Z</time>
      </trkpt>
      <trkpt lat="44.75586" lon="4.88927">
        <ele>144.19999694824</ele>
        <time>2019-07-08T09:47:14Z</time>
      </trkpt>
      <trkpt lat="44.75595" lon="4.88895">
        <ele>144.19999694824</ele>
        <time>2019-07-08T09:47:18Z</time>
      </trkpt>
      <trkpt lat="44.75598" lon="4.88879">
        <ele>144.19999694824</ele>
        <time>2019-07-08T09:47:20Z</time>
      </trkpt>
      <trkpt lat="44.75605" lon="4.88853">
        <ele>144.19999694824</ele>
        <time>2019-07-08T09:47:23Z</time>
      </trkpt>
      <trkpt lat="44.7561" lon="4.88836">
        <ele>144.19999694824</ele>
        <time>2019-07-08T09:47:25Z</time>
      </trkpt>
      <trkpt lat="44.75616" lon="4.8881">
        <ele>144.19999694824</ele>
        <time>2019-07-08T09:47:28Z</time>
      </trkpt>
      <trkpt lat="44.7563" lon="4.88772">
        <ele>143.80000305176</ele>
        <time>2019-07-08T09:47:33Z</time>
      </trkpt>
      <trkpt lat="44.75635" lon="4.88767">
        <ele>143.39999389648</ele>
        <time>2019-07-08T09:47:34Z</time>
      </trkpt>
      <trkpt lat="44.7564" lon="4.88763">
        <ele>143</ele>
        <time>2019-07-08T09:47:35Z</time>
      </trkpt>
      <trkpt lat="44.75645" lon="4.88759">
        <ele>142.60000610352</ele>
        <time>2019-07-08T09:47:36Z</time>
      </trkpt>
      <trkpt lat="44.75651" lon="4.88755">
        <ele>142.19999694824</ele>
        <time>2019-07-08T09:47:37Z</time>
      </trkpt>
      <trkpt lat="44.75656" lon="4.88751">
        <ele>142.19999694824</ele>
        <time>2019-07-08T09:47:38Z</time>
      </trkpt>
      <trkpt lat="44.75661" lon="4.88747">
        <ele>142.19999694824</ele>
        <time>2019-07-08T09:47:39Z</time>
      </trkpt>
      <trkpt lat="44.75666" lon="4.88742">
        <ele>142.19999694824</ele>
        <time>2019-07-08T09:47:40Z</time>
      </trkpt>
      <trkpt lat="44.75682" lon="4.88716">
        <ele>142.19999694824</ele>
        <time>2019-07-08T09:47:44Z</time>
      </trkpt>
      <trkpt lat="44.75707" lon="4.88676">
        <ele>142.19999694824</ele>
        <time>2019-07-08T09:47:50Z</time>
      </trkpt>
      <trkpt lat="44.75732" lon="4.88634">
        <ele>142.19999694824</ele>
        <time>2019-07-08T09:47:56Z</time>
      </trkpt>
      <trkpt lat="44.75753" lon="4.886">
        <ele>142.19999694824</ele>
        <time>2019-07-08T09:48:01Z</time>
      </trkpt>
      <trkpt lat="44.75773" lon="4.88566">
        <ele>142.19999694824</ele>
        <time>2019-07-08T09:48:06Z</time>
      </trkpt>
      <trkpt lat="44.75792" lon="4.88533">
        <ele>141.80000305176</ele>
        <time>2019-07-08T09:48:11Z</time>
      </trkpt>
      <trkpt lat="44.75795" lon="4.88527">
        <ele>141.39999389648</ele>
        <time>2019-07-08T09:48:12Z</time>
      </trkpt>
      <trkpt lat="44.75799" lon="4.88521">
        <ele>140.80000305176</ele>
        <time>2019-07-08T09:48:13Z</time>
      </trkpt>
      <trkpt lat="44.75803" lon="4.88514">
        <ele>140.39999389648</ele>
        <time>2019-07-08T09:48:14Z</time>
      </trkpt>
      <trkpt lat="44.75807" lon="4.88508">
        <ele>140</ele>
        <time>2019-07-08T09:48:15Z</time>
      </trkpt>
      <trkpt lat="44.75816" lon="4.88495">
        <ele>140</ele>
        <time>2019-07-08T09:48:17Z</time>
      </trkpt>
      <trkpt lat="44.75832" lon="4.88463">
        <ele>140</ele>
        <time>2019-07-08T09:48:21Z</time>
      </trkpt>
      <trkpt lat="44.75835" lon="4.88455">
        <ele>140</ele>
        <time>2019-07-08T09:48:22Z</time>
      </trkpt>
      <trkpt lat="44.75839" lon="4.88438">
        <ele>140</ele>
        <time>2019-07-08T09:48:24Z</time>
      </trkpt>
      <trkpt lat="44.75843" lon="4.88409">
        <ele>140</ele>
        <time>2019-07-08T09:48:27Z</time>
      </trkpt>
      <trkpt lat="44.75845" lon="4.88356">
        <ele>140</ele>
        <time>2019-07-08T09:48:33Z</time>
      </trkpt>
      <trkpt lat="44.75846" lon="4.8835">
        <ele>140</ele>
        <time>2019-07-08T09:48:34Z</time>
      </trkpt>
      <trkpt lat="44.75847" lon="4.88341">
        <ele>140</ele>
        <time>2019-07-08T09:48:36Z</time>
      </trkpt>
      <trkpt lat="44.75845" lon="4.88329">
        <ele>140</ele>
        <time>2019-07-08T09:48:39Z</time>
      </trkpt>
      <trkpt lat="44.75845" lon="4.88321">
        <ele>139.60000610352</ele>
        <time>2019-07-08T09:48:41Z</time>
      </trkpt>
      <trkpt lat="44.75845" lon="4.88316">
        <ele>139.19999694824</ele>
        <time>2019-07-08T09:48:42Z</time>
      </trkpt>
      <trkpt lat="44.75845" lon="4.88312">
        <ele>138.80000305176</ele>
        <time>2019-07-08T09:48:43Z</time>
      </trkpt>
      <trkpt lat="44.75846" lon="4.88306">
        <ele>138.39999389648</ele>
        <time>2019-07-08T09:48:44Z</time>
      </trkpt>
      <trkpt lat="44.75846" lon="4.88301">
        <ele>138</ele>
        <time>2019-07-08T09:48:45Z</time>
      </trkpt>
      <trkpt lat="44.75849" lon="4.88288">
        <ele>138</ele>
        <time>2019-07-08T09:48:48Z</time>
      </trkpt>
      <trkpt lat="44.75848" lon="4.88283">
        <ele>138</ele>
        <time>2019-07-08T09:48:49Z</time>
      </trkpt>
      <trkpt lat="44.75849" lon="4.88271">
        <ele>138</ele>
        <time>2019-07-08T09:48:51Z</time>
      </trkpt>
      <trkpt lat="44.7585" lon="4.88258">
        <ele>138</ele>
        <time>2019-07-08T09:48:53Z</time>
      </trkpt>
      <trkpt lat="44.75853" lon="4.88245">
        <ele>138</ele>
        <time>2019-07-08T09:48:55Z</time>
      </trkpt>
      <trkpt lat="44.75855" lon="4.88238">
        <ele>138</ele>
        <time>2019-07-08T09:48:56Z</time>
      </trkpt>
      <trkpt lat="44.75855" lon="4.88231">
        <ele>138</ele>
        <time>2019-07-08T09:48:57Z</time>
      </trkpt>
      <trkpt lat="44.7586" lon="4.88211">
        <ele>138</ele>
        <time>2019-07-08T09:49:00Z</time>
      </trkpt>
      <trkpt lat="44.75863" lon="4.88203">
        <ele>138</ele>
        <time>2019-07-08T09:49:01Z</time>
      </trkpt>
      <trkpt lat="44.75866" lon="4.88197">
        <ele>138</ele>
        <time>2019-07-08T09:49:02Z</time>
      </trkpt>
      <trkpt lat="44.75873" lon="4.88185">
        <ele>138</ele>
        <time>2019-07-08T09:49:04Z</time>
      </trkpt>
      <trkpt lat="44.75876" lon="4.88179">
        <ele>138</ele>
        <time>2019-07-08T09:49:05Z</time>
      </trkpt>
      <trkpt lat="44.75886" lon="4.8816">
        <ele>138</ele>
        <time>2019-07-08T09:49:08Z</time>
      </trkpt>
      <trkpt lat="44.75898" lon="4.88131">
        <ele>138</ele>
        <time>2019-07-08T09:49:12Z</time>
      </trkpt>
      <trkpt lat="44.75905" lon="4.88117">
        <ele>138</ele>
        <time>2019-07-08T09:49:14Z</time>
      </trkpt>
      <trkpt lat="44.75914" lon="4.88095">
        <ele>138</ele>
        <time>2019-07-08T09:49:17Z</time>
      </trkpt>
      <trkpt lat="44.75918" lon="4.88088">
        <ele>138</ele>
        <time>2019-07-08T09:49:18Z</time>
      </trkpt>
      <trkpt lat="44.75932" lon="4.88057">
        <ele>138</ele>
        <time>2019-07-08T09:49:22Z</time>
      </trkpt>
      <trkpt lat="44.75946" lon="4.88027">
        <ele>137.60000610352</ele>
        <time>2019-07-08T09:49:26Z</time>
      </trkpt>
      <trkpt lat="44.7595" lon="4.88019">
        <ele>137.19999694824</ele>
        <time>2019-07-08T09:49:27Z</time>
      </trkpt>
      <trkpt lat="44.75953" lon="4.88012">
        <ele>136.80000305176</ele>
        <time>2019-07-08T09:49:28Z</time>
      </trkpt>
      <trkpt lat="44.75957" lon="4.88005">
        <ele>136.39999389648</ele>
        <time>2019-07-08T09:49:29Z</time>
      </trkpt>
      <trkpt lat="44.75961" lon="4.87998">
        <ele>135.80000305176</ele>
        <time>2019-07-08T09:49:30Z</time>
      </trkpt>
      <trkpt lat="44.75976" lon="4.87981">
        <ele>135.80000305176</ele>
        <time>2019-07-08T09:49:33Z</time>
      </trkpt>
      <trkpt lat="44.75984" lon="4.87971">
        <ele>135.80000305176</ele>
        <time>2019-07-08T09:49:35Z</time>
      </trkpt>
      <trkpt lat="44.75993" lon="4.87957">
        <ele>135.80000305176</ele>
        <time>2019-07-08T09:49:38Z</time>
      </trkpt>
      <trkpt lat="44.76004" lon="4.87943">
        <ele>135.80000305176</ele>
        <time>2019-07-08T09:49:43Z</time>
      </trkpt>
      <trkpt lat="44.76009" lon="4.87935">
        <ele>135.80000305176</ele>
        <time>2019-07-08T09:49:47Z</time>
      </trkpt>
      <trkpt lat="44.76011" lon="4.87931">
        <ele>135.80000305176</ele>
        <time>2019-07-08T09:49:56Z</time>
      </trkpt>
      <trkpt lat="44.76011" lon="4.87928">
        <ele>135.80000305176</ele>
        <time>2019-07-08T09:49:57Z</time>
      </trkpt>
      <trkpt lat="44.76015" lon="4.87913">
        <ele>135.80000305176</ele>
        <time>2019-07-08T09:50:02Z</time>
      </trkpt>
      <trkpt lat="44.76023" lon="4.87898">
        <ele>135.80000305176</ele>
        <time>2019-07-08T09:50:06Z</time>
      </trkpt>
      <trkpt lat="44.7603" lon="4.87886">
        <ele>135.80000305176</ele>
        <time>2019-07-08T09:50:09Z</time>
      </trkpt>
      <trkpt lat="44.76033" lon="4.87878">
        <ele>135.80000305176</ele>
        <time>2019-07-08T09:50:11Z</time>
      </trkpt>
      <trkpt lat="44.76033" lon="4.87873">
        <ele>135.80000305176</ele>
        <time>2019-07-08T09:50:12Z</time>
      </trkpt>
      <trkpt lat="44.76034" lon="4.87869">
        <ele>135.80000305176</ele>
        <time>2019-07-08T09:50:13Z</time>
      </trkpt>
      <trkpt lat="44.76036" lon="4.87865">
        <ele>135.39999389648</ele>
        <time>2019-07-08T09:50:15Z</time>
      </trkpt>
      <trkpt lat="44.76037" lon="4.87862">
        <ele>135</ele>
        <time>2019-07-08T09:50:16Z</time>
      </trkpt>
      <trkpt lat="44.76037" lon="4.87859">
        <ele>134.60000610352</ele>
        <time>2019-07-08T09:50:17Z</time>
      </trkpt>
      <trkpt lat="44.76037" lon="4.87855">
        <ele>134.19999694824</ele>
        <time>2019-07-08T09:50:18Z</time>
      </trkpt>
      <trkpt lat="44.76037" lon="4.87851">
        <ele>133.80000305176</ele>
        <time>2019-07-08T09:50:19Z</time>
      </trkpt>
      <trkpt lat="44.76038" lon="4.87842">
        <ele>133.80000305176</ele>
        <time>2019-07-08T09:50:21Z</time>
      </trkpt>
      <trkpt lat="44.76036" lon="4.87829">
        <ele>133.80000305176</ele>
        <time>2019-07-08T09:50:23Z</time>
      </trkpt>
      <trkpt lat="44.76034" lon="4.87823">
        <ele>133.80000305176</ele>
        <time>2019-07-08T09:50:24Z</time>
      </trkpt>
      <trkpt lat="44.76034" lon="4.87818">
        <ele>133.80000305176</ele>
        <time>2019-07-08T09:50:25Z</time>
      </trkpt>
      <trkpt lat="44.76038" lon="4.87808">
        <ele>133.80000305176</ele>
        <time>2019-07-08T09:50:27Z</time>
      </trkpt>
      <trkpt lat="44.7604" lon="4.87791">
        <ele>133.80000305176</ele>
        <time>2019-07-08T09:50:30Z</time>
      </trkpt>
      <trkpt lat="44.76044" lon="4.87754">
        <ele>133.80000305176</ele>
        <time>2019-07-08T09:50:35Z</time>
      </trkpt>
      <trkpt lat="44.76045" lon="4.87747">
        <ele>133.80000305176</ele>
        <time>2019-07-08T09:50:36Z</time>
      </trkpt>
      <trkpt lat="44.76054" lon="4.87728">
        <ele>133.80000305176</ele>
        <time>2019-07-08T09:50:39Z</time>
      </trkpt>
      <trkpt lat="44.76055" lon="4.87721">
        <ele>133.80000305176</ele>
        <time>2019-07-08T09:50:40Z</time>
      </trkpt>
      <trkpt lat="44.76059" lon="4.87707">
        <ele>133.80000305176</ele>
        <time>2019-07-08T09:50:42Z</time>
      </trkpt>
      <trkpt lat="44.76061" lon="4.877">
        <ele>133.80000305176</ele>
        <time>2019-07-08T09:50:43Z</time>
      </trkpt>
      <trkpt lat="44.76068" lon="4.87659">
        <ele>133.80000305176</ele>
        <time>2019-07-08T09:50:47Z</time>
      </trkpt>
      <trkpt lat="44.76067" lon="4.87649">
        <ele>133.80000305176</ele>
        <time>2019-07-08T09:50:48Z</time>
      </trkpt>
      <trkpt lat="44.76076" lon="4.87625">
        <ele>133.80000305176</ele>
        <time>2019-07-08T09:50:51Z</time>
      </trkpt>
      <trkpt lat="44.76081" lon="4.87604">
        <ele>133.80000305176</ele>
        <time>2019-07-08T09:50:54Z</time>
      </trkpt>
      <trkpt lat="44.76082" lon="4.87597">
        <ele>133.80000305176</ele>
        <time>2019-07-08T09:50:55Z</time>
      </trkpt>
      <trkpt lat="44.76094" lon="4.87563">
        <ele>133.80000305176</ele>
        <time>2019-07-08T09:51:00Z</time>
      </trkpt>
      <trkpt lat="44.76099" lon="4.87535">
        <ele>133.80000305176</ele>
        <time>2019-07-08T09:51:05Z</time>
      </trkpt>
      <trkpt lat="44.76099" lon="4.87528">
        <ele>133.80000305176</ele>
        <time>2019-07-08T09:51:07Z</time>
      </trkpt>
      <trkpt lat="44.76101" lon="4.87512">
        <ele>133.80000305176</ele>
        <time>2019-07-08T09:51:10Z</time>
      </trkpt>
      <trkpt lat="44.76103" lon="4.87495">
        <ele>133.39999389648</ele>
        <time>2019-07-08T09:51:13Z</time>
      </trkpt>
      <trkpt lat="44.76102" lon="4.8749">
        <ele>133</ele>
        <time>2019-07-08T09:51:14Z</time>
      </trkpt>
      <trkpt lat="44.76102" lon="4.87485">
        <ele>132.60000610352</ele>
        <time>2019-07-08T09:51:15Z</time>
      </trkpt>
      <trkpt lat="44.76103" lon="4.87479">
        <ele>132.19999694824</ele>
        <time>2019-07-08T09:51:16Z</time>
      </trkpt>
      <trkpt lat="44.76103" lon="4.87473">
        <ele>131.80000305176</ele>
        <time>2019-07-08T09:51:17Z</time>
      </trkpt>
      <trkpt lat="44.76101" lon="4.87461">
        <ele>131.80000305176</ele>
        <time>2019-07-08T09:51:19Z</time>
      </trkpt>
      <trkpt lat="44.76097" lon="4.87443">
        <ele>131.80000305176</ele>
        <time>2019-07-08T09:51:22Z</time>
      </trkpt>
      <trkpt lat="44.76093" lon="4.87429">
        <ele>131.80000305176</ele>
        <time>2019-07-08T09:51:24Z</time>
      </trkpt>
      <trkpt lat="44.76077" lon="4.87417">
        <ele>131.80000305176</ele>
        <time>2019-07-08T09:51:28Z</time>
      </trkpt>
      <trkpt lat="44.76069" lon="4.87408">
        <ele>131.80000305176</ele>
        <time>2019-07-08T09:51:31Z</time>
      </trkpt>
      <trkpt lat="44.76064" lon="4.87401">
        <ele>131.80000305176</ele>
        <time>2019-07-08T09:51:33Z</time>
      </trkpt>
      <trkpt lat="44.76061" lon="4.87393">
        <ele>131.80000305176</ele>
        <time>2019-07-08T09:51:35Z</time>
      </trkpt>
      <trkpt lat="44.76054" lon="4.87381">
        <ele>131.80000305176</ele>
        <time>2019-07-08T09:51:38Z</time>
      </trkpt>
      <trkpt lat="44.76055" lon="4.87372">
        <ele>131.80000305176</ele>
        <time>2019-07-08T09:51:41Z</time>
      </trkpt>
      <trkpt lat="44.76057" lon="4.87367">
        <ele>131.80000305176</ele>
        <time>2019-07-08T09:51:43Z</time>
      </trkpt>
      <trkpt lat="44.76058" lon="4.87364">
        <ele>131.80000305176</ele>
        <time>2019-07-08T09:51:45Z</time>
      </trkpt>
      <trkpt lat="44.76059" lon="4.87364">
        <ele>131.80000305176</ele>
        <time>2019-07-08T09:51:46Z</time>
      </trkpt>
      <trkpt lat="44.7606" lon="4.87361">
        <ele>131.80000305176</ele>
        <time>2019-07-08T09:51:52Z</time>
      </trkpt>
      <trkpt lat="44.76066" lon="4.87361">
        <ele>131.80000305176</ele>
        <time>2019-07-08T09:51:56Z</time>
      </trkpt>
      <trkpt lat="44.7607" lon="4.87351">
        <ele>131.80000305176</ele>
        <time>2019-07-08T09:51:59Z</time>
      </trkpt>
      <trkpt lat="44.76075" lon="4.87339">
        <ele>131.80000305176</ele>
        <time>2019-07-08T09:52:02Z</time>
      </trkpt>
      <trkpt lat="44.76075" lon="4.87333">
        <ele>131.80000305176</ele>
        <time>2019-07-08T09:52:03Z</time>
      </trkpt>
      <trkpt lat="44.76076" lon="4.87321">
        <ele>131.80000305176</ele>
        <time>2019-07-08T09:52:05Z</time>
      </trkpt>
      <trkpt lat="44.76077" lon="4.87308">
        <ele>131.80000305176</ele>
        <time>2019-07-08T09:52:07Z</time>
      </trkpt>
      <trkpt lat="44.76078" lon="4.87294">
        <ele>131.80000305176</ele>
        <time>2019-07-08T09:52:09Z</time>
      </trkpt>
      <trkpt lat="44.76084" lon="4.87276">
        <ele>131.80000305176</ele>
        <time>2019-07-08T09:52:12Z</time>
      </trkpt>
      <trkpt lat="44.76087" lon="4.8726">
        <ele>131.80000305176</ele>
        <time>2019-07-08T09:52:15Z</time>
      </trkpt>
      <trkpt lat="44.76087" lon="4.87248">
        <ele>131.80000305176</ele>
        <time>2019-07-08T09:52:19Z</time>
      </trkpt>
      <trkpt lat="44.76082" lon="4.87243">
        <ele>131.80000305176</ele>
        <time>2019-07-08T09:52:24Z</time>
      </trkpt>
      <trkpt lat="44.76073" lon="4.87235">
        <ele>131.80000305176</ele>
        <time>2019-07-08T09:52:28Z</time>
      </trkpt>
      <trkpt lat="44.76069" lon="4.87229">
        <ele>131.80000305176</ele>
        <time>2019-07-08T09:52:30Z</time>
      </trkpt>
      <trkpt lat="44.76065" lon="4.87221">
        <ele>131.80000305176</ele>
        <time>2019-07-08T09:52:32Z</time>
      </trkpt>
      <trkpt lat="44.76054" lon="4.87209">
        <ele>131.80000305176</ele>
        <time>2019-07-08T09:52:36Z</time>
      </trkpt>
      <trkpt lat="44.76051" lon="4.87206">
        <ele>131.80000305176</ele>
        <time>2019-07-08T09:52:37Z</time>
      </trkpt>
      <trkpt lat="44.76047" lon="4.87195">
        <ele>131.80000305176</ele>
        <time>2019-07-08T09:52:40Z</time>
      </trkpt>
      <trkpt lat="44.76046" lon="4.8719">
        <ele>131.80000305176</ele>
        <time>2019-07-08T09:52:41Z</time>
      </trkpt>
      <trkpt lat="44.76041" lon="4.87182">
        <ele>131.80000305176</ele>
        <time>2019-07-08T09:52:44Z</time>
      </trkpt>
      <trkpt lat="44.76042" lon="4.87172">
        <ele>131.39999389648</ele>
        <time>2019-07-08T09:52:46Z</time>
      </trkpt>
      <trkpt lat="44.76045" lon="4.87167">
        <ele>131</ele>
        <time>2019-07-08T09:52:47Z</time>
      </trkpt>
      <trkpt lat="44.76048" lon="4.87162">
        <ele>130.60000610352</ele>
        <time>2019-07-08T09:52:48Z</time>
      </trkpt>
      <trkpt lat="44.7605" lon="4.87157">
        <ele>130</ele>
        <time>2019-07-08T09:52:49Z</time>
      </trkpt>
      <trkpt lat="44.76052" lon="4.87153">
        <ele>129.60000610352</ele>
        <time>2019-07-08T09:52:50Z</time>
      </trkpt>
      <trkpt lat="44.76055" lon="4.87149">
        <ele>129.60000610352</ele>
        <time>2019-07-08T09:52:52Z</time>
      </trkpt>
      <trkpt lat="44.76066" lon="4.87138">
        <ele>129.60000610352</ele>
        <time>2019-07-08T09:52:58Z</time>
      </trkpt>
      <trkpt lat="44.76082" lon="4.87121">
        <ele>129.60000610352</ele>
        <time>2019-07-08T09:53:03Z</time>
      </trkpt>
      <trkpt lat="44.7609" lon="4.87104">
        <ele>129.60000610352</ele>
        <time>2019-07-08T09:53:07Z</time>
      </trkpt>
      <trkpt lat="44.76089" lon="4.87094">
        <ele>129.60000610352</ele>
        <time>2019-07-08T09:53:10Z</time>
      </trkpt>
      <trkpt lat="44.76092" lon="4.87089">
        <ele>129.60000610352</ele>
        <time>2019-07-08T09:53:12Z</time>
      </trkpt>
      <trkpt lat="44.76093" lon="4.8708">
        <ele>129.60000610352</ele>
        <time>2019-07-08T09:53:14Z</time>
      </trkpt>
      <trkpt lat="44.76091" lon="4.87051">
        <ele>129.60000610352</ele>
        <time>2019-07-08T09:53:20Z</time>
      </trkpt>
      <trkpt lat="44.7609" lon="4.87048">
        <ele>129.60000610352</ele>
        <time>2019-07-08T09:53:21Z</time>
      </trkpt>
      <trkpt lat="44.76087" lon="4.87046">
        <ele>129.60000610352</ele>
        <time>2019-07-08T09:53:23Z</time>
      </trkpt>
      <trkpt lat="44.76075" lon="4.87039">
        <ele>129.60000610352</ele>
        <time>2019-07-08T09:53:28Z</time>
      </trkpt>
      <trkpt lat="44.76063" lon="4.8703">
        <ele>129.60000610352</ele>
        <time>2019-07-08T09:53:32Z</time>
      </trkpt>
      <trkpt lat="44.76061" lon="4.87029">
        <ele>129.60000610352</ele>
        <time>2019-07-08T09:53:33Z</time>
      </trkpt>
      <trkpt lat="44.76058" lon="4.8703">
        <ele>129.60000610352</ele>
        <time>2019-07-08T09:53:35Z</time>
      </trkpt>
      <trkpt lat="44.76055" lon="4.87028">
        <ele>129.60000610352</ele>
        <time>2019-07-08T09:53:39Z</time>
      </trkpt>
      <trkpt lat="44.76056" lon="4.87026">
        <ele>129.60000610352</ele>
        <time>2019-07-08T09:53:40Z</time>
      </trkpt>
      <trkpt lat="44.7606" lon="4.87016">
        <ele>129.60000610352</ele>
        <time>2019-07-08T09:53:43Z</time>
      </trkpt>
      <trkpt lat="44.7606" lon="4.87014">
        <ele>129.60000610352</ele>
        <time>2019-07-08T09:53:44Z</time>
      </trkpt>
      <trkpt lat="44.7606" lon="4.87008">
        <ele>129.60000610352</ele>
        <time>2019-07-08T09:53:46Z</time>
      </trkpt>
      <trkpt lat="44.76051" lon="4.86994">
        <ele>129.60000610352</ele>
        <time>2019-07-08T09:53:49Z</time>
      </trkpt>
      <trkpt lat="44.7605" lon="4.86992">
        <ele>129.60000610352</ele>
        <time>2019-07-08T09:53:50Z</time>
      </trkpt>
      <trkpt lat="44.76045" lon="4.86982">
        <ele>129.60000610352</ele>
        <time>2019-07-08T09:53:54Z</time>
      </trkpt>
      <trkpt lat="44.76048" lon="4.86965">
        <ele>129.60000610352</ele>
        <time>2019-07-08T09:53:59Z</time>
      </trkpt>
      <trkpt lat="44.76049" lon="4.86944">
        <ele>129.60000610352</ele>
        <time>2019-07-08T09:54:03Z</time>
      </trkpt>
      <trkpt lat="44.76055" lon="4.86913">
        <ele>129.60000610352</ele>
        <time>2019-07-08T09:54:09Z</time>
      </trkpt>
      <trkpt lat="44.76063" lon="4.86885">
        <ele>129.60000610352</ele>
        <time>2019-07-08T09:54:15Z</time>
      </trkpt>
      <trkpt lat="44.76067" lon="4.86868">
        <ele>129.60000610352</ele>
        <time>2019-07-08T09:54:19Z</time>
      </trkpt>
      <trkpt lat="44.76068" lon="4.86867">
        <ele>129.60000610352</ele>
        <time>2019-07-08T09:54:22Z</time>
      </trkpt>
      <trkpt lat="44.76068" lon="4.86867">
        <ele>129.19999694824</ele>
        <time>2019-07-08T09:54:34Z</time>
      </trkpt>
      <trkpt lat="44.76068" lon="4.86867">
        <ele>128.80000305176</ele>
        <time>2019-07-08T09:54:35Z</time>
      </trkpt>
      <trkpt lat="44.76068" lon="4.86867">
        <ele>128.19999694824</ele>
        <time>2019-07-08T09:54:36Z</time>
      </trkpt>
      <trkpt lat="44.76068" lon="4.86867">
        <ele>127.80000305176</ele>
        <time>2019-07-08T09:54:37Z</time>
      </trkpt>
      <trkpt lat="44.76068" lon="4.86867">
        <ele>127.40000152588</ele>
        <time>2019-07-08T09:54:38Z</time>
      </trkpt>
      <trkpt lat="44.76071" lon="4.8686">
        <ele>127.40000152588</ele>
        <time>2019-07-08T09:54:40Z</time>
      </trkpt>
      <trkpt lat="44.76077" lon="4.8684">
        <ele>127.40000152588</ele>
        <time>2019-07-08T09:54:45Z</time>
      </trkpt>
      <trkpt lat="44.76088" lon="4.86808">
        <ele>127.40000152588</ele>
        <time>2019-07-08T09:54:51Z</time>
      </trkpt>
      <trkpt lat="44.76094" lon="4.86796">
        <ele>127.40000152588</ele>
        <time>2019-07-08T09:54:53Z</time>
      </trkpt>
      <trkpt lat="44.761" lon="4.86783">
        <ele>127.40000152588</ele>
        <time>2019-07-08T09:54:55Z</time>
      </trkpt>
      <trkpt lat="44.76106" lon="4.86764">
        <ele>127.40000152588</ele>
        <time>2019-07-08T09:54:58Z</time>
      </trkpt>
      <trkpt lat="44.76109" lon="4.86759">
        <ele>127.40000152588</ele>
        <time>2019-07-08T09:54:59Z</time>
      </trkpt>
      <trkpt lat="44.76122" lon="4.86731">
        <ele>127.40000152588</ele>
        <time>2019-07-08T09:55:04Z</time>
      </trkpt>
      <trkpt lat="44.76132" lon="4.86702">
        <ele>127.40000152588</ele>
        <time>2019-07-08T09:55:09Z</time>
      </trkpt>
      <trkpt lat="44.76134" lon="4.86695">
        <ele>127.40000152588</ele>
        <time>2019-07-08T09:55:10Z</time>
      </trkpt>
      <trkpt lat="44.76133" lon="4.86688">
        <ele>127.40000152588</ele>
        <time>2019-07-08T09:55:11Z</time>
      </trkpt>
      <trkpt lat="44.76136" lon="4.86668">
        <ele>127.40000152588</ele>
        <time>2019-07-08T09:55:14Z</time>
      </trkpt>
      <trkpt lat="44.76138" lon="4.86654">
        <ele>127.40000152588</ele>
        <time>2019-07-08T09:55:17Z</time>
      </trkpt>
      <trkpt lat="44.76139" lon="4.8665">
        <ele>127.40000152588</ele>
        <time>2019-07-08T09:55:18Z</time>
      </trkpt>
      <trkpt lat="44.76144" lon="4.86627">
        <ele>127.40000152588</ele>
        <time>2019-07-08T09:55:23Z</time>
      </trkpt>
      <trkpt lat="44.76153" lon="4.86592">
        <ele>127.40000152588</ele>
        <time>2019-07-08T09:55:29Z</time>
      </trkpt>
      <trkpt lat="44.76156" lon="4.86571">
        <ele>127.40000152588</ele>
        <time>2019-07-08T09:55:33Z</time>
      </trkpt>
      <trkpt lat="44.76156" lon="4.86563">
        <ele>127.40000152588</ele>
        <time>2019-07-08T09:55:35Z</time>
      </trkpt>
      <trkpt lat="44.76157" lon="4.86552">
        <ele>127.40000152588</ele>
        <time>2019-07-08T09:55:37Z</time>
      </trkpt>
      <trkpt lat="44.76159" lon="4.86535">
        <ele>127.40000152588</ele>
        <time>2019-07-08T09:55:41Z</time>
      </trkpt>
      <trkpt lat="44.76162" lon="4.86513">
        <ele>127.40000152588</ele>
        <time>2019-07-08T09:55:45Z</time>
      </trkpt>
      <trkpt lat="44.76164" lon="4.86488">
        <ele>127.40000152588</ele>
        <time>2019-07-08T09:55:50Z</time>
      </trkpt>
      <trkpt lat="44.76168" lon="4.86456">
        <ele>127.40000152588</ele>
        <time>2019-07-08T09:55:55Z</time>
      </trkpt>
      <trkpt lat="44.76172" lon="4.86424">
        <ele>127.40000152588</ele>
        <time>2019-07-08T09:56:00Z</time>
      </trkpt>
      <trkpt lat="44.76172" lon="4.86398">
        <ele>127.40000152588</ele>
        <time>2019-07-08T09:56:04Z</time>
      </trkpt>
      <trkpt lat="44.76176" lon="4.86375">
        <ele>127.40000152588</ele>
        <time>2019-07-08T09:56:09Z</time>
      </trkpt>
      <trkpt lat="44.76179" lon="4.8635">
        <ele>127.40000152588</ele>
        <time>2019-07-08T09:56:14Z</time>
      </trkpt>
      <trkpt lat="44.76178" lon="4.86318">
        <ele>127.40000152588</ele>
        <time>2019-07-08T09:56:19Z</time>
      </trkpt>
      <trkpt lat="44.76181" lon="4.86273">
        <ele>127.40000152588</ele>
        <time>2019-07-08T09:56:26Z</time>
      </trkpt>
      <trkpt lat="44.76184" lon="4.86255">
        <ele>127.40000152588</ele>
        <time>2019-07-08T09:56:29Z</time>
      </trkpt>
      <trkpt lat="44.76186" lon="4.86237">
        <ele>127.40000152588</ele>
        <time>2019-07-08T09:56:32Z</time>
      </trkpt>
      <trkpt lat="44.76192" lon="4.86196">
        <ele>127.40000152588</ele>
        <time>2019-07-08T09:56:38Z</time>
      </trkpt>
      <trkpt lat="44.76191" lon="4.86189">
        <ele>127.40000152588</ele>
        <time>2019-07-08T09:56:39Z</time>
      </trkpt>
      <trkpt lat="44.76186" lon="4.86161">
        <ele>127.40000152588</ele>
        <time>2019-07-08T09:56:43Z</time>
      </trkpt>
      <trkpt lat="44.76186" lon="4.86147">
        <ele>127.40000152588</ele>
        <time>2019-07-08T09:56:45Z</time>
      </trkpt>
      <trkpt lat="44.76188" lon="4.8612">
        <ele>127.40000152588</ele>
        <time>2019-07-08T09:56:49Z</time>
      </trkpt>
      <trkpt lat="44.762" lon="4.86106">
        <ele>127.40000152588</ele>
        <time>2019-07-08T09:56:52Z</time>
      </trkpt>
      <trkpt lat="44.76209" lon="4.86107">
        <ele>127</ele>
        <time>2019-07-08T09:56:54Z</time>
      </trkpt>
      <trkpt lat="44.76213" lon="4.86108">
        <ele>126.59999847412</ele>
        <time>2019-07-08T09:56:55Z</time>
      </trkpt>
      <trkpt lat="44.76218" lon="4.86108">
        <ele>126</ele>
        <time>2019-07-08T09:56:56Z</time>
      </trkpt>
      <trkpt lat="44.76223" lon="4.86109">
        <ele>125.59999847412</ele>
        <time>2019-07-08T09:56:57Z</time>
      </trkpt>
      <trkpt lat="44.76228" lon="4.8611">
        <ele>125.19999694824</ele>
        <time>2019-07-08T09:56:58Z</time>
      </trkpt>
      <trkpt lat="44.76246" lon="4.86113">
        <ele>125.19999694824</ele>
        <time>2019-07-08T09:57:02Z</time>
      </trkpt>
      <trkpt lat="44.76265" lon="4.86117">
        <ele>125.19999694824</ele>
        <time>2019-07-08T09:57:07Z</time>
      </trkpt>
      <trkpt lat="44.76275" lon="4.86111">
        <ele>125.19999694824</ele>
        <time>2019-07-08T09:57:10Z</time>
      </trkpt>
      <trkpt lat="44.76274" lon="4.86108">
        <ele>125.19999694824</ele>
        <time>2019-07-08T09:57:11Z</time>
      </trkpt>
      <trkpt lat="44.76273" lon="4.86106">
        <ele>125.80000305176</ele>
        <time>2019-07-08T09:57:12Z</time>
      </trkpt>
      <trkpt lat="44.76273" lon="4.86103">
        <ele>126.19999694824</ele>
        <time>2019-07-08T09:57:13Z</time>
      </trkpt>
      <trkpt lat="44.76272" lon="4.861">
        <ele>126.59999847412</ele>
        <time>2019-07-08T09:57:14Z</time>
      </trkpt>
      <trkpt lat="44.76272" lon="4.86096">
        <ele>127</ele>
        <time>2019-07-08T09:57:15Z</time>
      </trkpt>
      <trkpt lat="44.76271" lon="4.86092">
        <ele>127.40000152588</ele>
        <time>2019-07-08T09:57:16Z</time>
      </trkpt>
      <trkpt lat="44.76264" lon="4.86072">
        <ele>127.40000152588</ele>
        <time>2019-07-08T09:57:21Z</time>
      </trkpt>
      <trkpt lat="44.76253" lon="4.86058">
        <ele>127.40000152588</ele>
        <time>2019-07-08T09:57:25Z</time>
      </trkpt>
      <trkpt lat="44.76247" lon="4.8605">
        <ele>127.40000152588</ele>
        <time>2019-07-08T09:57:28Z</time>
      </trkpt>
      <trkpt lat="44.76247" lon="4.86047">
        <ele>127.40000152588</ele>
        <time>2019-07-08T09:57:29Z</time>
      </trkpt>
      <trkpt lat="44.76247" lon="4.86036">
        <ele>127.40000152588</ele>
        <time>2019-07-08T09:57:34Z</time>
      </trkpt>
      <trkpt lat="44.76245" lon="4.86028">
        <ele>127.40000152588</ele>
        <time>2019-07-08T09:57:38Z</time>
      </trkpt>
      <trkpt lat="44.76243" lon="4.86022">
        <ele>127.40000152588</ele>
        <time>2019-07-08T09:57:40Z</time>
      </trkpt>
      <trkpt lat="44.76243" lon="4.86014">
        <ele>127.40000152588</ele>
        <time>2019-07-08T09:57:42Z</time>
      </trkpt>
      <trkpt lat="44.76242" lon="4.86008">
        <ele>127.40000152588</ele>
        <time>2019-07-08T09:57:44Z</time>
      </trkpt>
      <trkpt lat="44.76234" lon="4.85981">
        <ele>127.40000152588</ele>
        <time>2019-07-08T09:57:50Z</time>
      </trkpt>
      <trkpt lat="44.76234" lon="4.85976">
        <ele>127.40000152588</ele>
        <time>2019-07-08T09:57:51Z</time>
      </trkpt>
      <trkpt lat="44.7623" lon="4.85963">
        <ele>127.40000152588</ele>
        <time>2019-07-08T09:57:54Z</time>
      </trkpt>
      <trkpt lat="44.76229" lon="4.85956">
        <ele>127.40000152588</ele>
        <time>2019-07-08T09:57:55Z</time>
      </trkpt>
      <trkpt lat="44.76225" lon="4.85924">
        <ele>127.40000152588</ele>
        <time>2019-07-08T09:58:00Z</time>
      </trkpt>
      <trkpt lat="44.76224" lon="4.85902">
        <ele>127.40000152588</ele>
        <time>2019-07-08T09:58:03Z</time>
      </trkpt>
      <trkpt lat="44.76223" lon="4.85895">
        <ele>127.40000152588</ele>
        <time>2019-07-08T09:58:04Z</time>
      </trkpt>
      <trkpt lat="44.76223" lon="4.85873">
        <ele>127.40000152588</ele>
        <time>2019-07-08T09:58:07Z</time>
      </trkpt>
      <trkpt lat="44.76223" lon="4.85867">
        <ele>127</ele>
        <time>2019-07-08T09:58:08Z</time>
      </trkpt>
      <trkpt lat="44.76222" lon="4.85861">
        <ele>126.59999847412</ele>
        <time>2019-07-08T09:58:09Z</time>
      </trkpt>
      <trkpt lat="44.76221" lon="4.85855">
        <ele>126.19999694824</ele>
        <time>2019-07-08T09:58:10Z</time>
      </trkpt>
      <trkpt lat="44.7622" lon="4.85849">
        <ele>125.80000305176</ele>
        <time>2019-07-08T09:58:11Z</time>
      </trkpt>
      <trkpt lat="44.7622" lon="4.85843">
        <ele>125.40000152588</ele>
        <time>2019-07-08T09:58:12Z</time>
      </trkpt>
      <trkpt lat="44.76221" lon="4.85837">
        <ele>125.40000152588</ele>
        <time>2019-07-08T09:58:13Z</time>
      </trkpt>
      <trkpt lat="44.76221" lon="4.85831">
        <ele>125.40000152588</ele>
        <time>2019-07-08T09:58:14Z</time>
      </trkpt>
      <trkpt lat="44.76223" lon="4.85812">
        <ele>125.40000152588</ele>
        <time>2019-07-08T09:58:17Z</time>
      </trkpt>
      <trkpt lat="44.76226" lon="4.85796">
        <ele>125.40000152588</ele>
        <time>2019-07-08T09:58:21Z</time>
      </trkpt>
      <trkpt lat="44.76222" lon="4.85774">
        <ele>125.40000152588</ele>
        <time>2019-07-08T09:58:26Z</time>
      </trkpt>
      <trkpt lat="44.76221" lon="4.85769">
        <ele>125.40000152588</ele>
        <time>2019-07-08T09:58:27Z</time>
      </trkpt>
      <trkpt lat="44.76221" lon="4.85737">
        <ele>125.40000152588</ele>
        <time>2019-07-08T09:58:32Z</time>
      </trkpt>
      <trkpt lat="44.76214" lon="4.85691">
        <ele>125.40000152588</ele>
        <time>2019-07-08T09:58:39Z</time>
      </trkpt>
      <trkpt lat="44.76205" lon="4.85651">
        <ele>125.40000152588</ele>
        <time>2019-07-08T09:58:44Z</time>
      </trkpt>
      <trkpt lat="44.76202" lon="4.85637">
        <ele>125.40000152588</ele>
        <time>2019-07-08T09:58:46Z</time>
      </trkpt>
      <trkpt lat="44.76199" lon="4.85615">
        <ele>125.40000152588</ele>
        <time>2019-07-08T09:58:49Z</time>
      </trkpt>
      <trkpt lat="44.76198" lon="4.85608">
        <ele>125.40000152588</ele>
        <time>2019-07-08T09:58:50Z</time>
      </trkpt>
      <trkpt lat="44.76194" lon="4.85577">
        <ele>125.40000152588</ele>
        <time>2019-07-08T09:58:54Z</time>
      </trkpt>
      <trkpt lat="44.76191" lon="4.8554">
        <ele>125.40000152588</ele>
        <time>2019-07-08T09:58:59Z</time>
      </trkpt>
      <trkpt lat="44.76186" lon="4.85497">
        <ele>125.40000152588</ele>
        <time>2019-07-08T09:59:05Z</time>
      </trkpt>
      <trkpt lat="44.76186" lon="4.85483">
        <ele>125.40000152588</ele>
        <time>2019-07-08T09:59:07Z</time>
      </trkpt>
      <trkpt lat="44.76184" lon="4.85467">
        <ele>125.40000152588</ele>
        <time>2019-07-08T09:59:09Z</time>
      </trkpt>
      <trkpt lat="44.7618" lon="4.85425">
        <ele>125.40000152588</ele>
        <time>2019-07-08T09:59:14Z</time>
      </trkpt>
      <trkpt lat="44.76179" lon="4.8541">
        <ele>125.40000152588</ele>
        <time>2019-07-08T09:59:16Z</time>
      </trkpt>
      <trkpt lat="44.76176" lon="4.85385">
        <ele>125.40000152588</ele>
        <time>2019-07-08T09:59:19Z</time>
      </trkpt>
      <trkpt lat="44.76173" lon="4.85337">
        <ele>125.40000152588</ele>
        <time>2019-07-08T09:59:25Z</time>
      </trkpt>
      <trkpt lat="44.76178" lon="4.85294">
        <ele>125.40000152588</ele>
        <time>2019-07-08T09:59:30Z</time>
      </trkpt>
      <trkpt lat="44.76182" lon="4.85272">
        <ele>125.40000152588</ele>
        <time>2019-07-08T09:59:33Z</time>
      </trkpt>
      <trkpt lat="44.76184" lon="4.85256">
        <ele>125.40000152588</ele>
        <time>2019-07-08T09:59:35Z</time>
      </trkpt>
      <trkpt lat="44.76193" lon="4.85209">
        <ele>125.40000152588</ele>
        <time>2019-07-08T09:59:41Z</time>
      </trkpt>
      <trkpt lat="44.76195" lon="4.85193">
        <ele>125.40000152588</ele>
        <time>2019-07-08T09:59:43Z</time>
      </trkpt>
      <trkpt lat="44.76199" lon="4.8517">
        <ele>125.40000152588</ele>
        <time>2019-07-08T09:59:46Z</time>
      </trkpt>
      <trkpt lat="44.76201" lon="4.85156">
        <ele>125.40000152588</ele>
        <time>2019-07-08T09:59:48Z</time>
      </trkpt>
      <trkpt lat="44.76198" lon="4.85138">
        <ele>125.40000152588</ele>
        <time>2019-07-08T09:59:50Z</time>
      </trkpt>
      <trkpt lat="44.76192" lon="4.8512">
        <ele>124.80000305176</ele>
        <time>2019-07-08T09:59:52Z</time>
      </trkpt>
      <trkpt lat="44.76191" lon="4.8511">
        <ele>124.40000152588</ele>
        <time>2019-07-08T09:59:53Z</time>
      </trkpt>
      <trkpt lat="44.76192" lon="4.85103">
        <ele>124</ele>
        <time>2019-07-08T09:59:54Z</time>
      </trkpt>
      <trkpt lat="44.76193" lon="4.85095">
        <ele>123.59999847412</ele>
        <time>2019-07-08T09:59:55Z</time>
      </trkpt>
      <trkpt lat="44.76195" lon="4.85087">
        <ele>123.19999694824</ele>
        <time>2019-07-08T09:59:56Z</time>
      </trkpt>
      <trkpt lat="44.76198" lon="4.85053">
        <ele>123.19999694824</ele>
        <time>2019-07-08T10:00:01Z</time>
      </trkpt>
      <trkpt lat="44.76199" lon="4.85032">
        <ele>123.19999694824</ele>
        <time>2019-07-08T10:00:04Z</time>
      </trkpt>
      <trkpt lat="44.76199" lon="4.85016">
        <ele>123.19999694824</ele>
        <time>2019-07-08T10:00:06Z</time>
      </trkpt>
      <trkpt lat="44.76202" lon="4.84994">
        <ele>123.19999694824</ele>
        <time>2019-07-08T10:00:09Z</time>
      </trkpt>
      <trkpt lat="44.76203" lon="4.84986">
        <ele>123.19999694824</ele>
        <time>2019-07-08T10:00:10Z</time>
      </trkpt>
      <trkpt lat="44.76207" lon="4.84961">
        <ele>123.19999694824</ele>
        <time>2019-07-08T10:00:13Z</time>
      </trkpt>
      <trkpt lat="44.76212" lon="4.84944">
        <ele>123.19999694824</ele>
        <time>2019-07-08T10:00:15Z</time>
      </trkpt>
      <trkpt lat="44.76215" lon="4.84936">
        <ele>123.19999694824</ele>
        <time>2019-07-08T10:00:16Z</time>
      </trkpt>
      <trkpt lat="44.76222" lon="4.84913">
        <ele>123.19999694824</ele>
        <time>2019-07-08T10:00:19Z</time>
      </trkpt>
      <trkpt lat="44.76223" lon="4.84905">
        <ele>123.19999694824</ele>
        <time>2019-07-08T10:00:20Z</time>
      </trkpt>
      <trkpt lat="44.76226" lon="4.84892">
        <ele>123.19999694824</ele>
        <time>2019-07-08T10:00:22Z</time>
      </trkpt>
      <trkpt lat="44.76231" lon="4.84877">
        <ele>123.19999694824</ele>
        <time>2019-07-08T10:00:25Z</time>
      </trkpt>
      <trkpt lat="44.76237" lon="4.8486">
        <ele>123.19999694824</ele>
        <time>2019-07-08T10:00:28Z</time>
      </trkpt>
      <trkpt lat="44.76239" lon="4.84855">
        <ele>123.19999694824</ele>
        <time>2019-07-08T10:00:29Z</time>
      </trkpt>
      <trkpt lat="44.76241" lon="4.8485">
        <ele>122.80000305176</ele>
        <time>2019-07-08T10:00:30Z</time>
      </trkpt>
      <trkpt lat="44.76243" lon="4.84846">
        <ele>122.40000152588</ele>
        <time>2019-07-08T10:00:31Z</time>
      </trkpt>
      <trkpt lat="44.76245" lon="4.84841">
        <ele>122</ele>
        <time>2019-07-08T10:00:32Z</time>
      </trkpt>
      <trkpt lat="44.76246" lon="4.84835">
        <ele>121.40000152588</ele>
        <time>2019-07-08T10:00:33Z</time>
      </trkpt>
      <trkpt lat="44.76249" lon="4.84831">
        <ele>121</ele>
        <time>2019-07-08T10:00:34Z</time>
      </trkpt>
      <trkpt lat="44.76253" lon="4.84814">
        <ele>121</ele>
        <time>2019-07-08T10:00:37Z</time>
      </trkpt>
      <trkpt lat="44.76252" lon="4.84809">
        <ele>121</ele>
        <time>2019-07-08T10:00:38Z</time>
      </trkpt>
      <trkpt lat="44.76256" lon="4.84788">
        <ele>121</ele>
        <time>2019-07-08T10:00:42Z</time>
      </trkpt>
      <trkpt lat="44.76258" lon="4.84782">
        <ele>121</ele>
        <time>2019-07-08T10:00:43Z</time>
      </trkpt>
      <trkpt lat="44.76261" lon="4.84776">
        <ele>121</ele>
        <time>2019-07-08T10:00:44Z</time>
      </trkpt>
      <trkpt lat="44.7627" lon="4.84757">
        <ele>121</ele>
        <time>2019-07-08T10:00:47Z</time>
      </trkpt>
      <trkpt lat="44.76272" lon="4.8475">
        <ele>121</ele>
        <time>2019-07-08T10:00:48Z</time>
      </trkpt>
      <trkpt lat="44.76279" lon="4.84729">
        <ele>121</ele>
        <time>2019-07-08T10:00:51Z</time>
      </trkpt>
      <trkpt lat="44.76286" lon="4.84718">
        <ele>121</ele>
        <time>2019-07-08T10:00:53Z</time>
      </trkpt>
      <trkpt lat="44.76288" lon="4.84713">
        <ele>121</ele>
        <time>2019-07-08T10:00:54Z</time>
      </trkpt>
      <trkpt lat="44.7629" lon="4.84706">
        <ele>121</ele>
        <time>2019-07-08T10:00:55Z</time>
      </trkpt>
      <trkpt lat="44.763" lon="4.84694">
        <ele>121</ele>
        <time>2019-07-08T10:00:58Z</time>
      </trkpt>
      <trkpt lat="44.76304" lon="4.84691">
        <ele>121</ele>
        <time>2019-07-08T10:00:59Z</time>
      </trkpt>
      <trkpt lat="44.76325" lon="4.84679">
        <ele>121</ele>
        <time>2019-07-08T10:01:04Z</time>
      </trkpt>
      <trkpt lat="44.76332" lon="4.84668">
        <ele>121</ele>
        <time>2019-07-08T10:01:07Z</time>
      </trkpt>
      <trkpt lat="44.76348" lon="4.84646">
        <ele>121</ele>
        <time>2019-07-08T10:01:13Z</time>
      </trkpt>
      <trkpt lat="44.76358" lon="4.84635">
        <ele>121</ele>
        <time>2019-07-08T10:01:18Z</time>
      </trkpt>
      <trkpt lat="44.76373" lon="4.84616">
        <ele>121</ele>
        <time>2019-07-08T10:01:24Z</time>
      </trkpt>
      <trkpt lat="44.76391" lon="4.84605">
        <ele>121</ele>
        <time>2019-07-08T10:01:29Z</time>
      </trkpt>
      <trkpt lat="44.76412" lon="4.84595">
        <ele>121</ele>
        <time>2019-07-08T10:01:35Z</time>
      </trkpt>
      <trkpt lat="44.76432" lon="4.84577">
        <ele>121</ele>
        <time>2019-07-08T10:01:41Z</time>
      </trkpt>
      <trkpt lat="44.76444" lon="4.84566">
        <ele>121</ele>
        <time>2019-07-08T10:01:46Z</time>
      </trkpt>
      <trkpt lat="44.76457" lon="4.84547">
        <ele>121</ele>
        <time>2019-07-08T10:01:51Z</time>
      </trkpt>
      <trkpt lat="44.76473" lon="4.84521">
        <ele>121</ele>
        <time>2019-07-08T10:01:57Z</time>
      </trkpt>
      <trkpt lat="44.76481" lon="4.84509">
        <ele>121</ele>
        <time>2019-07-08T10:01:59Z</time>
      </trkpt>
      <trkpt lat="44.76485" lon="4.84506">
        <ele>121</ele>
        <time>2019-07-08T10:02:00Z</time>
      </trkpt>
      <trkpt lat="44.76502" lon="4.84503">
        <ele>121</ele>
        <time>2019-07-08T10:02:03Z</time>
      </trkpt>
      <trkpt lat="44.76507" lon="4.84504">
        <ele>121</ele>
        <time>2019-07-08T10:02:04Z</time>
      </trkpt>
      <trkpt lat="44.76526" lon="4.84499">
        <ele>121</ele>
        <time>2019-07-08T10:02:07Z</time>
      </trkpt>
      <trkpt lat="44.76531" lon="4.84497">
        <ele>121</ele>
        <time>2019-07-08T10:02:08Z</time>
      </trkpt>
      <trkpt lat="44.76535" lon="4.8449">
        <ele>121</ele>
        <time>2019-07-08T10:02:10Z</time>
      </trkpt>
      <trkpt lat="44.76546" lon="4.8446">
        <ele>121</ele>
        <time>2019-07-08T10:02:15Z</time>
      </trkpt>
      <trkpt lat="44.76552" lon="4.84436">
        <ele>121</ele>
        <time>2019-07-08T10:02:18Z</time>
      </trkpt>
      <trkpt lat="44.76555" lon="4.84431">
        <ele>121</ele>
        <time>2019-07-08T10:02:19Z</time>
      </trkpt>
      <trkpt lat="44.76561" lon="4.84418">
        <ele>121</ele>
        <time>2019-07-08T10:02:22Z</time>
      </trkpt>
      <trkpt lat="44.76568" lon="4.84403">
        <ele>121</ele>
        <time>2019-07-08T10:02:25Z</time>
      </trkpt>
      <trkpt lat="44.76573" lon="4.84392">
        <ele>121</ele>
        <time>2019-07-08T10:02:27Z</time>
      </trkpt>
      <trkpt lat="44.76575" lon="4.84373">
        <ele>121</ele>
        <time>2019-07-08T10:02:30Z</time>
      </trkpt>
      <trkpt lat="44.76581" lon="4.84362">
        <ele>121</ele>
        <time>2019-07-08T10:02:32Z</time>
      </trkpt>
      <trkpt lat="44.76585" lon="4.84346">
        <ele>121</ele>
        <time>2019-07-08T10:02:34Z</time>
      </trkpt>
      <trkpt lat="44.76587" lon="4.8433">
        <ele>121</ele>
        <time>2019-07-08T10:02:36Z</time>
      </trkpt>
      <trkpt lat="44.76593" lon="4.843">
        <ele>121</ele>
        <time>2019-07-08T10:02:40Z</time>
      </trkpt>
      <trkpt lat="44.76595" lon="4.84265">
        <ele>121</ele>
        <time>2019-07-08T10:02:45Z</time>
      </trkpt>
      <trkpt lat="44.76597" lon="4.8426">
        <ele>121</ele>
        <time>2019-07-08T10:02:46Z</time>
      </trkpt>
      <trkpt lat="44.76596" lon="4.84247">
        <ele>121</ele>
        <time>2019-07-08T10:02:48Z</time>
      </trkpt>
      <trkpt lat="44.76595" lon="4.84224">
        <ele>121</ele>
        <time>2019-07-08T10:02:51Z</time>
      </trkpt>
      <trkpt lat="44.76596" lon="4.84217">
        <ele>121</ele>
        <time>2019-07-08T10:02:52Z</time>
      </trkpt>
      <trkpt lat="44.76596" lon="4.84202">
        <ele>121</ele>
        <time>2019-07-08T10:02:54Z</time>
      </trkpt>
      <trkpt lat="44.76596" lon="4.84183">
        <ele>121</ele>
        <time>2019-07-08T10:02:57Z</time>
      </trkpt>
      <trkpt lat="44.76598" lon="4.84159">
        <ele>121</ele>
        <time>2019-07-08T10:03:01Z</time>
      </trkpt>
      <trkpt lat="44.76599" lon="4.84145">
        <ele>121</ele>
        <time>2019-07-08T10:03:03Z</time>
      </trkpt>
      <trkpt lat="44.76602" lon="4.84126">
        <ele>121</ele>
        <time>2019-07-08T10:03:06Z</time>
      </trkpt>
      <trkpt lat="44.76602" lon="4.84113">
        <ele>121</ele>
        <time>2019-07-08T10:03:09Z</time>
      </trkpt>
      <trkpt lat="44.76602" lon="4.84092">
        <ele>121</ele>
        <time>2019-07-08T10:03:12Z</time>
      </trkpt>
      <trkpt lat="44.76605" lon="4.84072">
        <ele>121</ele>
        <time>2019-07-08T10:03:16Z</time>
      </trkpt>
      <trkpt lat="44.76607" lon="4.84059">
        <ele>121</ele>
        <time>2019-07-08T10:03:19Z</time>
      </trkpt>
      <trkpt lat="44.76608" lon="4.84053">
        <ele>121</ele>
        <time>2019-07-08T10:03:21Z</time>
      </trkpt>
      <trkpt lat="44.76609" lon="4.8405">
        <ele>121.59999847412</ele>
        <time>2019-07-08T10:03:22Z</time>
      </trkpt>
      <trkpt lat="44.7661" lon="4.84047">
        <ele>122</ele>
        <time>2019-07-08T10:03:23Z</time>
      </trkpt>
      <trkpt lat="44.76611" lon="4.84045">
        <ele>122.40000152588</ele>
        <time>2019-07-08T10:03:24Z</time>
      </trkpt>
      <trkpt lat="44.76612" lon="4.84043">
        <ele>122.80000305176</ele>
        <time>2019-07-08T10:03:25Z</time>
      </trkpt>
      <trkpt lat="44.76614" lon="4.84042">
        <ele>123.19999694824</ele>
        <time>2019-07-08T10:03:26Z</time>
      </trkpt>
      <trkpt lat="44.76615" lon="4.8404">
        <ele>123.19999694824</ele>
        <time>2019-07-08T10:03:27Z</time>
      </trkpt>
      <trkpt lat="44.76623" lon="4.84038">
        <ele>123.80000305176</ele>
        <time>2019-07-08T10:03:31Z</time>
      </trkpt>
      <trkpt lat="44.76624" lon="4.84037">
        <ele>124.19999694824</ele>
        <time>2019-07-08T10:03:32Z</time>
      </trkpt>
      <trkpt lat="44.76626" lon="4.84037">
        <ele>124.59999847412</ele>
        <time>2019-07-08T10:03:33Z</time>
      </trkpt>
      <trkpt lat="44.76627" lon="4.84036">
        <ele>125</ele>
        <time>2019-07-08T10:03:34Z</time>
      </trkpt>
      <trkpt lat="44.76628" lon="4.84035">
        <ele>125.40000152588</ele>
        <time>2019-07-08T10:03:35Z</time>
      </trkpt>
      <trkpt lat="44.7663" lon="4.84031">
        <ele>125.40000152588</ele>
        <time>2019-07-08T10:03:38Z</time>
      </trkpt>
      <trkpt lat="44.76631" lon="4.84029">
        <ele>125.40000152588</ele>
        <time>2019-07-08T10:03:43Z</time>
      </trkpt>
      <trkpt lat="44.76631" lon="4.84029">
        <ele>125.40000152588</ele>
        <time>2019-07-08T10:03:51Z</time>
      </trkpt>
      <trkpt lat="44.76631" lon="4.84029">
        <ele>125.40000152588</ele>
        <time>2019-07-08T10:04:01Z</time>
      </trkpt>
      <trkpt lat="44.76631" lon="4.84028">
        <ele>125.40000152588</ele>
        <time>2019-07-08T10:04:04Z</time>
      </trkpt>
      <trkpt lat="44.76631" lon="4.84028">
        <ele>125.40000152588</ele>
        <time>2019-07-08T10:04:06Z</time>
      </trkpt>
      <trkpt lat="44.76631" lon="4.84028">
        <ele>125.40000152588</ele>
        <time>2019-07-08T10:04:21Z</time>
      </trkpt>
      <trkpt lat="44.76631" lon="4.84028">
        <ele>125.40000152588</ele>
        <time>2019-07-08T10:04:38Z</time>
      </trkpt>
      <trkpt lat="44.76631" lon="4.84027">
        <ele>125.40000152588</ele>
        <time>2019-07-08T10:04:55Z</time>
      </trkpt>
      <trkpt lat="44.76631" lon="4.84027">
        <ele>125.40000152588</ele>
        <time>2019-07-08T10:05:15Z</time>
      </trkpt>
      <trkpt lat="44.76631" lon="4.84028">
        <ele>125</ele>
        <time>2019-07-08T10:05:30Z</time>
      </trkpt>
      <trkpt lat="44.76631" lon="4.84028">
        <ele>124.59999847412</ele>
        <time>2019-07-08T10:05:31Z</time>
      </trkpt>
      <trkpt lat="44.76631" lon="4.84028">
        <ele>124.19999694824</ele>
        <time>2019-07-08T10:05:32Z</time>
      </trkpt>
      <trkpt lat="44.76631" lon="4.84028">
        <ele>123.80000305176</ele>
        <time>2019-07-08T10:05:33Z</time>
      </trkpt>
      <trkpt lat="44.76631" lon="4.84028">
        <ele>123.40000152588</ele>
        <time>2019-07-08T10:05:34Z</time>
      </trkpt>
      <trkpt lat="44.76631" lon="4.84028">
        <ele>123.40000152588</ele>
        <time>2019-07-08T10:05:35Z</time>
      </trkpt>
      <trkpt lat="44.76631" lon="4.84028">
        <ele>123.40000152588</ele>
        <time>2019-07-08T10:05:54Z</time>
      </trkpt>
      <trkpt lat="44.76632" lon="4.84028">
        <ele>123.40000152588</ele>
        <time>2019-07-08T10:06:14Z</time>
      </trkpt>
      <trkpt lat="44.76632" lon="4.84028">
        <ele>123.40000152588</ele>
        <time>2019-07-08T10:06:32Z</time>
      </trkpt>
      <trkpt lat="44.76632" lon="4.84028">
        <ele>123.40000152588</ele>
        <time>2019-07-08T10:06:33Z</time>
      </trkpt>
      <trkpt lat="44.76632" lon="4.84028">
        <ele>123.40000152588</ele>
        <time>2019-07-08T10:06:51Z</time>
      </trkpt>
      <trkpt lat="44.76632" lon="4.84028">
        <ele>123.40000152588</ele>
        <time>2019-07-08T10:07:07Z</time>
      </trkpt>
      <trkpt lat="44.76632" lon="4.84028">
        <ele>123.40000152588</ele>
        <time>2019-07-08T10:07:24Z</time>
      </trkpt>
      <trkpt lat="44.76633" lon="4.84028">
        <ele>123.40000152588</ele>
        <time>2019-07-08T10:07:41Z</time>
      </trkpt>
      <trkpt lat="44.76633" lon="4.84028">
        <ele>123</ele>
        <time>2019-07-08T10:07:53Z</time>
      </trkpt>
      <trkpt lat="44.76633" lon="4.84028">
        <ele>122.59999847412</ele>
        <time>2019-07-08T10:07:54Z</time>
      </trkpt>
      <trkpt lat="44.76633" lon="4.84028">
        <ele>122.19999694824</ele>
        <time>2019-07-08T10:07:55Z</time>
      </trkpt>
      <trkpt lat="44.76633" lon="4.84028">
        <ele>121.80000305176</ele>
        <time>2019-07-08T10:07:56Z</time>
      </trkpt>
      <trkpt lat="44.76633" lon="4.84028">
        <ele>121.40000152588</ele>
        <time>2019-07-08T10:07:57Z</time>
      </trkpt>
      <trkpt lat="44.76633" lon="4.84028">
        <ele>121.40000152588</ele>
        <time>2019-07-08T10:07:58Z</time>
      </trkpt>
      <trkpt lat="44.76633" lon="4.84028">
        <ele>121.40000152588</ele>
        <time>2019-07-08T10:08:12Z</time>
      </trkpt>
      <trkpt lat="44.76633" lon="4.84028">
        <ele>121.40000152588</ele>
        <time>2019-07-08T10:08:31Z</time>
      </trkpt>
      <trkpt lat="44.76633" lon="4.84027">
        <ele>121.40000152588</ele>
        <time>2019-07-08T10:08:51Z</time>
      </trkpt>
      <trkpt lat="44.76633" lon="4.84027">
        <ele>121.40000152588</ele>
        <time>2019-07-08T10:09:08Z</time>
      </trkpt>
      <trkpt lat="44.76633" lon="4.84027">
        <ele>121.40000152588</ele>
        <time>2019-07-08T10:09:27Z</time>
      </trkpt>
      <trkpt lat="44.76633" lon="4.84027">
        <ele>121.40000152588</ele>
        <time>2019-07-08T10:09:43Z</time>
      </trkpt>
      <trkpt lat="44.76633" lon="4.84027">
        <ele>121.40000152588</ele>
        <time>2019-07-08T10:09:52Z</time>
      </trkpt>
      <trkpt lat="44.76633" lon="4.84027">
        <ele>121.40000152588</ele>
        <time>2019-07-08T10:10:01Z</time>
      </trkpt>
      <trkpt lat="44.76633" lon="4.84027">
        <ele>121.40000152588</ele>
        <time>2019-07-08T10:10:16Z</time>
      </trkpt>
      <trkpt lat="44.76633" lon="4.84027">
        <ele>121.40000152588</ele>
        <time>2019-07-08T10:10:35Z</time>
      </trkpt>
      <trkpt lat="44.76634" lon="4.84027">
        <ele>121.40000152588</ele>
        <time>2019-07-08T10:10:51Z</time>
      </trkpt>
      <trkpt lat="44.76634" lon="4.84027">
        <ele>120.59999847412</ele>
        <time>2019-07-08T10:11:06Z</time>
      </trkpt>
      <trkpt lat="44.76634" lon="4.84027">
        <ele>120.19999694824</ele>
        <time>2019-07-08T10:11:07Z</time>
      </trkpt>
      <trkpt lat="44.76634" lon="4.84027">
        <ele>119.80000305176</ele>
        <time>2019-07-08T10:11:08Z</time>
      </trkpt>
      <trkpt lat="44.76634" lon="4.84027">
        <ele>119.40000152588</ele>
        <time>2019-07-08T10:11:09Z</time>
      </trkpt>
      <trkpt lat="44.76634" lon="4.84027">
        <ele>119.40000152588</ele>
        <time>2019-07-08T10:11:27Z</time>
      </trkpt>
      <trkpt lat="44.76634" lon="4.84027">
        <ele>119.40000152588</ele>
        <time>2019-07-08T10:11:46Z</time>
      </trkpt>
      <trkpt lat="44.76634" lon="4.84027">
        <ele>119.40000152588</ele>
        <time>2019-07-08T10:12:00Z</time>
      </trkpt>
      <trkpt lat="44.76634" lon="4.84027">
        <ele>119.40000152588</ele>
        <time>2019-07-08T10:12:19Z</time>
      </trkpt>
      <trkpt lat="44.76634" lon="4.84027">
        <ele>119.40000152588</ele>
        <time>2019-07-08T10:12:35Z</time>
      </trkpt>
      <trkpt lat="44.76635" lon="4.84027">
        <ele>119.40000152588</ele>
        <time>2019-07-08T10:12:47Z</time>
      </trkpt>
      <trkpt lat="44.76634" lon="4.84026">
        <ele>119.40000152588</ele>
        <time>2019-07-08T10:12:51Z</time>
      </trkpt>
      <trkpt lat="44.76634" lon="4.84026">
        <ele>119.40000152588</ele>
        <time>2019-07-08T10:13:05Z</time>
      </trkpt>
      <trkpt lat="44.76635" lon="4.84026">
        <ele>119.40000152588</ele>
        <time>2019-07-08T10:13:10Z</time>
      </trkpt>
      <trkpt lat="44.76634" lon="4.84026">
        <ele>119.40000152588</ele>
        <time>2019-07-08T10:13:18Z</time>
      </trkpt>
      <trkpt lat="44.76635" lon="4.84026">
        <ele>119.40000152588</ele>
        <time>2019-07-08T10:13:25Z</time>
      </trkpt>
      <trkpt lat="44.76635" lon="4.84026">
        <ele>119.40000152588</ele>
        <time>2019-07-08T10:13:32Z</time>
      </trkpt>
      <trkpt lat="44.76635" lon="4.84025">
        <ele>119.40000152588</ele>
        <time>2019-07-08T10:13:42Z</time>
      </trkpt>
      <trkpt lat="44.76636" lon="4.84026">
        <ele>119.40000152588</ele>
        <time>2019-07-08T10:13:50Z</time>
      </trkpt>
      <trkpt lat="44.76637" lon="4.84026">
        <ele>119.40000152588</ele>
        <time>2019-07-08T10:13:55Z</time>
      </trkpt>
      <trkpt lat="44.76639" lon="4.84022">
        <ele>119.40000152588</ele>
        <time>2019-07-08T10:14:02Z</time>
      </trkpt>
      <trkpt lat="44.76639" lon="4.84022">
        <ele>119.40000152588</ele>
        <time>2019-07-08T10:14:09Z</time>
      </trkpt>
      <trkpt lat="44.76639" lon="4.84022">
        <ele>118.80000305176</ele>
        <time>2019-07-08T10:14:10Z</time>
      </trkpt>
      <trkpt lat="44.76639" lon="4.84022">
        <ele>118.19999694824</ele>
        <time>2019-07-08T10:14:11Z</time>
      </trkpt>
      <trkpt lat="44.76639" lon="4.84022">
        <ele>118.40000152588</ele>
        <time>2019-07-08T10:14:12Z</time>
      </trkpt>
      <trkpt lat="44.76639" lon="4.84022">
        <ele>119</ele>
        <time>2019-07-08T10:14:13Z</time>
      </trkpt>
      <trkpt lat="44.76639" lon="4.84022">
        <ele>119.59999847412</ele>
        <time>2019-07-08T10:14:14Z</time>
      </trkpt>
      <trkpt lat="44.76639" lon="4.84022">
        <ele>119.59999847412</ele>
        <time>2019-07-08T10:14:15Z</time>
      </trkpt>
      <trkpt lat="44.76639" lon="4.84022">
        <ele>119.59999847412</ele>
        <time>2019-07-08T10:14:16Z</time>
      </trkpt>
      <trkpt lat="44.76639" lon="4.84022">
        <ele>119.40000152588</ele>
        <time>2019-07-08T10:14:17Z</time>
      </trkpt>
      <trkpt lat="44.76639" lon="4.84022">
        <ele>119.40000152588</ele>
        <time>2019-07-08T10:14:18Z</time>
      </trkpt>
      <trkpt lat="44.76639" lon="4.84022">
        <ele>119.40000152588</ele>
        <time>2019-07-08T10:14:19Z</time>
      </trkpt>
      <trkpt lat="44.7664" lon="4.84023">
        <ele>119.40000152588</ele>
        <time>2019-07-08T10:14:27Z</time>
      </trkpt>
      <trkpt lat="44.76645" lon="4.84021">
        <ele>119.40000152588</ele>
        <time>2019-07-08T10:14:31Z</time>
      </trkpt>
      <trkpt lat="44.76645" lon="4.84021">
        <ele>119.40000152588</ele>
        <time>2019-07-08T10:14:41Z</time>
      </trkpt>
      <trkpt lat="44.76648" lon="4.84021">
        <ele>119.40000152588</ele>
        <time>2019-07-08T10:14:49Z</time>
      </trkpt>
      <trkpt lat="44.76648" lon="4.84021">
        <ele>119.40000152588</ele>
        <time>2019-07-08T10:15:02Z</time>
      </trkpt>
      <trkpt lat="44.76648" lon="4.84021">
        <ele>119.40000152588</ele>
        <time>2019-07-08T10:15:12Z</time>
      </trkpt>
      <trkpt lat="44.76648" lon="4.84021">
        <ele>119.40000152588</ele>
        <time>2019-07-08T10:15:27Z</time>
      </trkpt>
      <trkpt lat="44.76648" lon="4.84021">
        <ele>119.40000152588</ele>
        <time>2019-07-08T10:15:38Z</time>
      </trkpt>
      <trkpt lat="44.76648" lon="4.84021">
        <ele>119.40000152588</ele>
        <time>2019-07-08T10:15:49Z</time>
      </trkpt>
      <trkpt lat="44.76648" lon="4.84021">
        <ele>119.40000152588</ele>
        <time>2019-07-08T10:16:03Z</time>
      </trkpt>
      <trkpt lat="44.76651" lon="4.84021">
        <ele>119.40000152588</ele>
        <time>2019-07-08T10:16:14Z</time>
      </trkpt>
      <trkpt lat="44.76666" lon="4.84027">
        <ele>119.40000152588</ele>
        <time>2019-07-08T10:16:20Z</time>
      </trkpt>
      <trkpt lat="44.76675" lon="4.84033">
        <ele>119.40000152588</ele>
        <time>2019-07-08T10:16:23Z</time>
      </trkpt>
      <trkpt lat="44.76679" lon="4.84034">
        <ele>119.40000152588</ele>
        <time>2019-07-08T10:16:24Z</time>
      </trkpt>
      <trkpt lat="44.76696" lon="4.8404">
        <ele>119.40000152588</ele>
        <time>2019-07-08T10:16:29Z</time>
      </trkpt>
      <trkpt lat="44.767" lon="4.84041">
        <ele>119.40000152588</ele>
        <time>2019-07-08T10:16:30Z</time>
      </trkpt>
      <trkpt lat="44.76721" lon="4.84049">
        <ele>119.40000152588</ele>
        <time>2019-07-08T10:16:35Z</time>
      </trkpt>
      <trkpt lat="44.76734" lon="4.84054">
        <ele>119</ele>
        <time>2019-07-08T10:16:38Z</time>
      </trkpt>
      <trkpt lat="44.76739" lon="4.84056">
        <ele>118.40000152588</ele>
        <time>2019-07-08T10:16:39Z</time>
      </trkpt>
      <trkpt lat="44.76744" lon="4.84058">
        <ele>118</ele>
        <time>2019-07-08T10:16:40Z</time>
      </trkpt>
      <trkpt lat="44.76748" lon="4.84059">
        <ele>117.59999847412</ele>
        <time>2019-07-08T10:16:41Z</time>
      </trkpt>
      <trkpt lat="44.76752" lon="4.8406">
        <ele>117.19999694824</ele>
        <time>2019-07-08T10:16:42Z</time>
      </trkpt>
      <trkpt lat="44.76758" lon="4.84063">
        <ele>117.19999694824</ele>
        <time>2019-07-08T10:16:44Z</time>
      </trkpt>
      <trkpt lat="44.7676" lon="4.84065">
        <ele>117.19999694824</ele>
        <time>2019-07-08T10:16:45Z</time>
      </trkpt>
      <trkpt lat="44.76763" lon="4.8407">
        <ele>117.19999694824</ele>
        <time>2019-07-08T10:16:50Z</time>
      </trkpt>
      <trkpt lat="44.76763" lon="4.8407">
        <ele>117.19999694824</ele>
        <time>2019-07-08T10:16:52Z</time>
      </trkpt>
      <trkpt lat="44.76768" lon="4.84074">
        <ele>117.19999694824</ele>
        <time>2019-07-08T10:16:55Z</time>
      </trkpt>
      <trkpt lat="44.7677" lon="4.84075">
        <ele>117.19999694824</ele>
        <time>2019-07-08T10:16:56Z</time>
      </trkpt>
      <trkpt lat="44.76775" lon="4.84076">
        <ele>117.19999694824</ele>
        <time>2019-07-08T10:16:58Z</time>
      </trkpt>
      <trkpt lat="44.76779" lon="4.84075">
        <ele>117.19999694824</ele>
        <time>2019-07-08T10:17:00Z</time>
      </trkpt>
      <trkpt lat="44.76783" lon="4.84074">
        <ele>117.19999694824</ele>
        <time>2019-07-08T10:17:02Z</time>
      </trkpt>
      <trkpt lat="44.76789" lon="4.84076">
        <ele>117.19999694824</ele>
        <time>2019-07-08T10:17:04Z</time>
      </trkpt>
      <trkpt lat="44.76799" lon="4.84082">
        <ele>117.19999694824</ele>
        <time>2019-07-08T10:17:08Z</time>
      </trkpt>
      <trkpt lat="44.76806" lon="4.84083">
        <ele>116.80000305176</ele>
        <time>2019-07-08T10:17:10Z</time>
      </trkpt>
      <trkpt lat="44.76809" lon="4.84084">
        <ele>116.40000152588</ele>
        <time>2019-07-08T10:17:11Z</time>
      </trkpt>
      <trkpt lat="44.76811" lon="4.84085">
        <ele>116</ele>
        <time>2019-07-08T10:17:12Z</time>
      </trkpt>
      <trkpt lat="44.76814" lon="4.84086">
        <ele>115.59999847412</ele>
        <time>2019-07-08T10:17:13Z</time>
      </trkpt>
      <trkpt lat="44.76817" lon="4.84087">
        <ele>115.19999694824</ele>
        <time>2019-07-08T10:17:14Z</time>
      </trkpt>
      <trkpt lat="44.7683" lon="4.84088">
        <ele>115.19999694824</ele>
        <time>2019-07-08T10:17:18Z</time>
      </trkpt>
      <trkpt lat="44.76845" lon="4.84093">
        <ele>115.19999694824</ele>
        <time>2019-07-08T10:17:23Z</time>
      </trkpt>
      <trkpt lat="44.76858" lon="4.84096">
        <ele>115.19999694824</ele>
        <time>2019-07-08T10:17:28Z</time>
      </trkpt>
      <trkpt lat="44.7687" lon="4.84097">
        <ele>115.19999694824</ele>
        <time>2019-07-08T10:17:33Z</time>
      </trkpt>
      <trkpt lat="44.76887" lon="4.84101">
        <ele>115.19999694824</ele>
        <time>2019-07-08T10:17:39Z</time>
      </trkpt>
      <trkpt lat="44.76903" lon="4.84106">
        <ele>115.19999694824</ele>
        <time>2019-07-08T10:17:45Z</time>
      </trkpt>
      <trkpt lat="44.76923" lon="4.84113">
        <ele>115.19999694824</ele>
        <time>2019-07-08T10:17:51Z</time>
      </trkpt>
      <trkpt lat="44.76938" lon="4.84117">
        <ele>115.19999694824</ele>
        <time>2019-07-08T10:17:56Z</time>
      </trkpt>
      <trkpt lat="44.76957" lon="4.84123">
        <ele>115.19999694824</ele>
        <time>2019-07-08T10:18:02Z</time>
      </trkpt>
      <trkpt lat="44.76969" lon="4.84124">
        <ele>115.19999694824</ele>
        <time>2019-07-08T10:18:08Z</time>
      </trkpt>
      <trkpt lat="44.76977" lon="4.84127">
        <ele>115.19999694824</ele>
        <time>2019-07-08T10:18:12Z</time>
      </trkpt>
      <trkpt lat="44.76983" lon="4.84131">
        <ele>115.19999694824</ele>
        <time>2019-07-08T10:18:15Z</time>
      </trkpt>
      <trkpt lat="44.76995" lon="4.84138">
        <ele>115.19999694824</ele>
        <time>2019-07-08T10:18:20Z</time>
      </trkpt>
      <trkpt lat="44.76998" lon="4.84142">
        <ele>115.19999694824</ele>
        <time>2019-07-08T10:18:24Z</time>
      </trkpt>
      <trkpt lat="44.77003" lon="4.84146">
        <ele>115.19999694824</ele>
        <time>2019-07-08T10:18:34Z</time>
      </trkpt>
      <trkpt lat="44.77016" lon="4.84149">
        <ele>115.19999694824</ele>
        <time>2019-07-08T10:18:38Z</time>
      </trkpt>
      <trkpt lat="44.77036" lon="4.84154">
        <ele>115.19999694824</ele>
        <time>2019-07-08T10:18:43Z</time>
      </trkpt>
      <trkpt lat="44.77054" lon="4.8416">
        <ele>115.19999694824</ele>
        <time>2019-07-08T10:18:48Z</time>
      </trkpt>
      <trkpt lat="44.77067" lon="4.84165">
        <ele>115.19999694824</ele>
        <time>2019-07-08T10:18:52Z</time>
      </trkpt>
      <trkpt lat="44.77085" lon="4.8417">
        <ele>115.19999694824</ele>
        <time>2019-07-08T10:18:58Z</time>
      </trkpt>
      <trkpt lat="44.77094" lon="4.8417">
        <ele>115.19999694824</ele>
        <time>2019-07-08T10:19:02Z</time>
      </trkpt>
      <trkpt lat="44.77095" lon="4.84172">
        <ele>115.19999694824</ele>
        <time>2019-07-08T10:19:06Z</time>
      </trkpt>
      <trkpt lat="44.77097" lon="4.84171">
        <ele>115.19999694824</ele>
        <time>2019-07-08T10:19:09Z</time>
      </trkpt>
      <trkpt lat="44.77103" lon="4.84171">
        <ele>115.19999694824</ele>
        <time>2019-07-08T10:19:11Z</time>
      </trkpt>
      <trkpt lat="44.77106" lon="4.84174">
        <ele>115.19999694824</ele>
        <time>2019-07-08T10:19:12Z</time>
      </trkpt>
      <trkpt lat="44.77114" lon="4.8418">
        <ele>115.19999694824</ele>
        <time>2019-07-08T10:19:14Z</time>
      </trkpt>
      <trkpt lat="44.77128" lon="4.84188">
        <ele>115.19999694824</ele>
        <time>2019-07-08T10:19:19Z</time>
      </trkpt>
      <trkpt lat="44.77152" lon="4.84199">
        <ele>115.19999694824</ele>
        <time>2019-07-08T10:19:25Z</time>
      </trkpt>
      <trkpt lat="44.77176" lon="4.8421">
        <ele>115.19999694824</ele>
        <time>2019-07-08T10:19:32Z</time>
      </trkpt>
      <trkpt lat="44.77184" lon="4.8421">
        <ele>115.19999694824</ele>
        <time>2019-07-08T10:19:36Z</time>
      </trkpt>
      <trkpt lat="44.77183" lon="4.8421">
        <ele>115.19999694824</ele>
        <time>2019-07-08T10:19:41Z</time>
      </trkpt>
      <trkpt lat="44.77183" lon="4.8421">
        <ele>115.19999694824</ele>
        <time>2019-07-08T10:19:50Z</time>
      </trkpt>
      <trkpt lat="44.77183" lon="4.8421">
        <ele>115.59999847412</ele>
        <time>2019-07-08T10:19:58Z</time>
      </trkpt>
      <trkpt lat="44.77183" lon="4.8421">
        <ele>116</ele>
        <time>2019-07-08T10:19:59Z</time>
      </trkpt>
      <trkpt lat="44.77183" lon="4.8421">
        <ele>116.40000152588</ele>
        <time>2019-07-08T10:20:00Z</time>
      </trkpt>
      <trkpt lat="44.77183" lon="4.8421">
        <ele>116.80000305176</ele>
        <time>2019-07-08T10:20:01Z</time>
      </trkpt>
      <trkpt lat="44.77183" lon="4.8421">
        <ele>117.19999694824</ele>
        <time>2019-07-08T10:20:02Z</time>
      </trkpt>
      <trkpt lat="44.77183" lon="4.84212">
        <ele>117.19999694824</ele>
        <time>2019-07-08T10:20:09Z</time>
      </trkpt>
      <trkpt lat="44.77182" lon="4.84216">
        <ele>117.19999694824</ele>
        <time>2019-07-08T10:20:15Z</time>
      </trkpt>
      <trkpt lat="44.77182" lon="4.84217">
        <ele>117.19999694824</ele>
        <time>2019-07-08T10:20:23Z</time>
      </trkpt>
      <trkpt lat="44.77182" lon="4.8422">
        <ele>117.19999694824</ele>
        <time>2019-07-08T10:20:26Z</time>
      </trkpt>
      <trkpt lat="44.77182" lon="4.84223">
        <ele>117.19999694824</ele>
        <time>2019-07-08T10:20:28Z</time>
      </trkpt>
      <trkpt lat="44.77182" lon="4.84224">
        <ele>117.19999694824</ele>
        <time>2019-07-08T10:20:29Z</time>
      </trkpt>
      <trkpt lat="44.77181" lon="4.84231">
        <ele>117.19999694824</ele>
        <time>2019-07-08T10:20:33Z</time>
      </trkpt>
      <trkpt lat="44.77181" lon="4.84233">
        <ele>117.19999694824</ele>
        <time>2019-07-08T10:20:34Z</time>
      </trkpt>
      <trkpt lat="44.77181" lon="4.84242">
        <ele>117.19999694824</ele>
        <time>2019-07-08T10:20:40Z</time>
      </trkpt>
      <trkpt lat="44.77183" lon="4.84244">
        <ele>117.19999694824</ele>
        <time>2019-07-08T10:20:48Z</time>
      </trkpt>
      <trkpt lat="44.77183" lon="4.84244">
        <ele>117.19999694824</ele>
        <time>2019-07-08T10:20:58Z</time>
      </trkpt>
      <trkpt lat="44.77183" lon="4.84244">
        <ele>117.19999694824</ele>
        <time>2019-07-08T10:21:12Z</time>
      </trkpt>
      <trkpt lat="44.77183" lon="4.84244">
        <ele>117.19999694824</ele>
        <time>2019-07-08T10:21:30Z</time>
      </trkpt>
      <trkpt lat="44.77183" lon="4.84244">
        <ele>117.19999694824</ele>
        <time>2019-07-08T10:21:45Z</time>
      </trkpt>
      <trkpt lat="44.77183" lon="4.84244">
        <ele>117.19999694824</ele>
        <time>2019-07-08T10:22:00Z</time>
      </trkpt>
      <trkpt lat="44.77184" lon="4.84245">
        <ele>117.19999694824</ele>
        <time>2019-07-08T10:22:12Z</time>
      </trkpt>
      <trkpt lat="44.77184" lon="4.84245">
        <ele>117.19999694824</ele>
        <time>2019-07-08T10:22:23Z</time>
      </trkpt>
      <trkpt lat="44.77184" lon="4.84245">
        <ele>117.19999694824</ele>
        <time>2019-07-08T10:22:37Z</time>
      </trkpt>
      <trkpt lat="44.77184" lon="4.84245">
        <ele>117.19999694824</ele>
        <time>2019-07-08T10:22:50Z</time>
      </trkpt>
      <trkpt lat="44.77184" lon="4.84245">
        <ele>117.19999694824</ele>
        <time>2019-07-08T10:23:02Z</time>
      </trkpt>
      <trkpt lat="44.77184" lon="4.84245">
        <ele>117.19999694824</ele>
        <time>2019-07-08T10:23:17Z</time>
      </trkpt>
      <trkpt lat="44.77184" lon="4.84245">
        <ele>117.19999694824</ele>
        <time>2019-07-08T10:23:29Z</time>
      </trkpt>
      <trkpt lat="44.77184" lon="4.84246">
        <ele>117.19999694824</ele>
        <time>2019-07-08T10:23:43Z</time>
      </trkpt>
      <trkpt lat="44.77184" lon="4.84246">
        <ele>117.19999694824</ele>
        <time>2019-07-08T10:23:53Z</time>
      </trkpt>
      <trkpt lat="44.77184" lon="4.84246">
        <ele>117.19999694824</ele>
        <time>2019-07-08T10:24:08Z</time>
      </trkpt>
      <trkpt lat="44.77184" lon="4.84246">
        <ele>117.19999694824</ele>
        <time>2019-07-08T10:24:23Z</time>
      </trkpt>
      <trkpt lat="44.77184" lon="4.84246">
        <ele>117.19999694824</ele>
        <time>2019-07-08T10:24:37Z</time>
      </trkpt>
      <trkpt lat="44.77184" lon="4.84246">
        <ele>117.19999694824</ele>
        <time>2019-07-08T10:24:50Z</time>
      </trkpt>
      <trkpt lat="44.77185" lon="4.84246">
        <ele>117.19999694824</ele>
        <time>2019-07-08T10:25:05Z</time>
      </trkpt>
      <trkpt lat="44.77187" lon="4.84245">
        <ele>117.59999847412</ele>
        <time>2019-07-08T10:25:08Z</time>
      </trkpt>
      <trkpt lat="44.77187" lon="4.84244">
        <ele>118</ele>
        <time>2019-07-08T10:25:09Z</time>
      </trkpt>
      <trkpt lat="44.77187" lon="4.84244">
        <ele>118.40000152588</ele>
        <time>2019-07-08T10:25:10Z</time>
      </trkpt>
      <trkpt lat="44.77187" lon="4.84244">
        <ele>118.80000305176</ele>
        <time>2019-07-08T10:25:11Z</time>
      </trkpt>
      <trkpt lat="44.77187" lon="4.84244">
        <ele>119.19999694824</ele>
        <time>2019-07-08T10:25:12Z</time>
      </trkpt>
      <trkpt lat="44.77187" lon="4.84244">
        <ele>119.19999694824</ele>
        <time>2019-07-08T10:25:15Z</time>
      </trkpt>
      <trkpt lat="44.77187" lon="4.84244">
        <ele>119.19999694824</ele>
        <time>2019-07-08T10:25:30Z</time>
      </trkpt>
      <trkpt lat="44.77187" lon="4.84244">
        <ele>119.19999694824</ele>
        <time>2019-07-08T10:25:42Z</time>
      </trkpt>
      <trkpt lat="44.77188" lon="4.84244">
        <ele>119.19999694824</ele>
        <time>2019-07-08T10:25:58Z</time>
      </trkpt>
      <trkpt lat="44.77188" lon="4.84244">
        <ele>119.19999694824</ele>
        <time>2019-07-08T10:26:10Z</time>
      </trkpt>
      <trkpt lat="44.77188" lon="4.84244">
        <ele>119.19999694824</ele>
        <time>2019-07-08T10:26:19Z</time>
      </trkpt>
      <trkpt lat="44.77188" lon="4.84244">
        <ele>119.19999694824</ele>
        <time>2019-07-08T10:26:29Z</time>
      </trkpt>
      <trkpt lat="44.77188" lon="4.84244">
        <ele>119.19999694824</ele>
        <time>2019-07-08T10:26:42Z</time>
      </trkpt>
      <trkpt lat="44.77188" lon="4.84244">
        <ele>119.19999694824</ele>
        <time>2019-07-08T10:26:53Z</time>
      </trkpt>
      <trkpt lat="44.77189" lon="4.84243">
        <ele>119.19999694824</ele>
        <time>2019-07-08T10:27:07Z</time>
      </trkpt>
      <trkpt lat="44.77189" lon="4.84243">
        <ele>119.19999694824</ele>
        <time>2019-07-08T10:27:23Z</time>
      </trkpt>
      <trkpt lat="44.77189" lon="4.84243">
        <ele>119.19999694824</ele>
        <time>2019-07-08T10:27:34Z</time>
      </trkpt>
      <trkpt lat="44.77189" lon="4.84243">
        <ele>119.19999694824</ele>
        <time>2019-07-08T10:27:45Z</time>
      </trkpt>
      <trkpt lat="44.77189" lon="4.84243">
        <ele>119.19999694824</ele>
        <time>2019-07-08T10:27:47Z</time>
      </trkpt>
      <trkpt lat="44.77189" lon="4.84243">
        <ele>119.19999694824</ele>
        <time>2019-07-08T10:27:52Z</time>
      </trkpt>
      <trkpt lat="44.77189" lon="4.84243">
        <ele>119.19999694824</ele>
        <time>2019-07-08T10:28:07Z</time>
      </trkpt>
      <trkpt lat="44.77188" lon="4.84244">
        <ele>119.19999694824</ele>
        <time>2019-07-08T10:28:18Z</time>
      </trkpt>
      <trkpt lat="44.77188" lon="4.84244">
        <ele>119.19999694824</ele>
        <time>2019-07-08T10:28:31Z</time>
      </trkpt>
      <trkpt lat="44.77188" lon="4.84244">
        <ele>119.19999694824</ele>
        <time>2019-07-08T10:28:40Z</time>
      </trkpt>
      <trkpt lat="44.77189" lon="4.84243">
        <ele>119.19999694824</ele>
        <time>2019-07-08T10:28:56Z</time>
      </trkpt>
      <trkpt lat="44.77189" lon="4.84243">
        <ele>119.19999694824</ele>
        <time>2019-07-08T10:29:08Z</time>
      </trkpt>
      <trkpt lat="44.77189" lon="4.84243">
        <ele>119.19999694824</ele>
        <time>2019-07-08T10:29:20Z</time>
      </trkpt>
      <trkpt lat="44.77189" lon="4.84242">
        <ele>119.19999694824</ele>
        <time>2019-07-08T10:29:29Z</time>
      </trkpt>
      <trkpt lat="44.77189" lon="4.84242">
        <ele>119.19999694824</ele>
        <time>2019-07-08T10:29:42Z</time>
      </trkpt>
      <trkpt lat="44.77189" lon="4.84242">
        <ele>119.19999694824</ele>
        <time>2019-07-08T10:29:56Z</time>
      </trkpt>
      <trkpt lat="44.77189" lon="4.84242">
        <ele>119.19999694824</ele>
        <time>2019-07-08T10:30:11Z</time>
      </trkpt>
      <trkpt lat="44.77189" lon="4.84242">
        <ele>119.19999694824</ele>
        <time>2019-07-08T10:30:27Z</time>
      </trkpt>
      <trkpt lat="44.77189" lon="4.84242">
        <ele>119.19999694824</ele>
        <time>2019-07-08T10:30:42Z</time>
      </trkpt>
      <trkpt lat="44.77189" lon="4.84242">
        <ele>119.19999694824</ele>
        <time>2019-07-08T10:30:51Z</time>
      </trkpt>
      <trkpt lat="44.77189" lon="4.84242">
        <ele>119.19999694824</ele>
        <time>2019-07-08T10:31:04Z</time>
      </trkpt>
      <trkpt lat="44.77189" lon="4.84242">
        <ele>119.19999694824</ele>
        <time>2019-07-08T10:31:19Z</time>
      </trkpt>
      <trkpt lat="44.77189" lon="4.84242">
        <ele>119.19999694824</ele>
        <time>2019-07-08T10:31:34Z</time>
      </trkpt>
      <trkpt lat="44.77189" lon="4.84242">
        <ele>119.19999694824</ele>
        <time>2019-07-08T10:31:48Z</time>
      </trkpt>
      <trkpt lat="44.77189" lon="4.84243">
        <ele>119.19999694824</ele>
        <time>2019-07-08T10:32:05Z</time>
      </trkpt>
      <trkpt lat="44.77189" lon="4.84243">
        <ele>119.19999694824</ele>
        <time>2019-07-08T10:32:15Z</time>
      </trkpt>
      <trkpt lat="44.77189" lon="4.84243">
        <ele>119.19999694824</ele>
        <time>2019-07-08T10:32:26Z</time>
      </trkpt>
      <trkpt lat="44.77189" lon="4.84243">
        <ele>119.19999694824</ele>
        <time>2019-07-08T10:32:38Z</time>
      </trkpt>
      <trkpt lat="44.77188" lon="4.84243">
        <ele>119.19999694824</ele>
        <time>2019-07-08T10:32:51Z</time>
      </trkpt>
      <trkpt lat="44.77188" lon="4.84243">
        <ele>119.19999694824</ele>
        <time>2019-07-08T10:33:01Z</time>
      </trkpt>
      <trkpt lat="44.77188" lon="4.84243">
        <ele>119.19999694824</ele>
        <time>2019-07-08T10:33:14Z</time>
      </trkpt>
      <trkpt lat="44.77188" lon="4.84243">
        <ele>119.19999694824</ele>
        <time>2019-07-08T10:33:28Z</time>
      </trkpt>
      <trkpt lat="44.77188" lon="4.84243">
        <ele>119.19999694824</ele>
        <time>2019-07-08T10:33:37Z</time>
      </trkpt>
      <trkpt lat="44.77188" lon="4.84243">
        <ele>119.19999694824</ele>
        <time>2019-07-08T10:33:43Z</time>
      </trkpt>
      <trkpt lat="44.77188" lon="4.84243">
        <ele>119.19999694824</ele>
        <time>2019-07-08T10:33:48Z</time>
      </trkpt>
      <trkpt lat="44.77188" lon="4.84243">
        <ele>119.19999694824</ele>
        <time>2019-07-08T10:33:59Z</time>
      </trkpt>
      <trkpt lat="44.77188" lon="4.84243">
        <ele>119.19999694824</ele>
        <time>2019-07-08T10:34:08Z</time>
      </trkpt>
      <trkpt lat="44.77188" lon="4.84243">
        <ele>119.19999694824</ele>
        <time>2019-07-08T10:34:20Z</time>
      </trkpt>
      <trkpt lat="44.77188" lon="4.84243">
        <ele>119.19999694824</ele>
        <time>2019-07-08T10:34:30Z</time>
      </trkpt>
      <trkpt lat="44.77187" lon="4.84244">
        <ele>119.19999694824</ele>
        <time>2019-07-08T10:34:42Z</time>
      </trkpt>
      <trkpt lat="44.77187" lon="4.84244">
        <ele>119.19999694824</ele>
        <time>2019-07-08T10:34:54Z</time>
      </trkpt>
      <trkpt lat="44.77187" lon="4.84244">
        <ele>119.19999694824</ele>
        <time>2019-07-08T10:35:05Z</time>
      </trkpt>
      <trkpt lat="44.77187" lon="4.84244">
        <ele>119.19999694824</ele>
        <time>2019-07-08T10:35:11Z</time>
      </trkpt>
      <trkpt lat="44.77187" lon="4.84244">
        <ele>119.19999694824</ele>
        <time>2019-07-08T10:35:21Z</time>
      </trkpt>
      <trkpt lat="44.77187" lon="4.84244">
        <ele>119.19999694824</ele>
        <time>2019-07-08T10:35:31Z</time>
      </trkpt>
      <trkpt lat="44.77187" lon="4.84244">
        <ele>119.19999694824</ele>
        <time>2019-07-08T10:35:42Z</time>
      </trkpt>
      <trkpt lat="44.77186" lon="4.84244">
        <ele>119.19999694824</ele>
        <time>2019-07-08T10:35:47Z</time>
      </trkpt>
      <trkpt lat="44.77187" lon="4.84245">
        <ele>119.19999694824</ele>
        <time>2019-07-08T10:35:53Z</time>
      </trkpt>
      <trkpt lat="44.77184" lon="4.84238">
        <ele>119.19999694824</ele>
        <time>2019-07-08T10:36:00Z</time>
      </trkpt>
      <trkpt lat="44.77177" lon="4.84229">
        <ele>119.19999694824</ele>
        <time>2019-07-08T10:36:04Z</time>
      </trkpt>
      <trkpt lat="44.77171" lon="4.84225">
        <ele>119.19999694824</ele>
        <time>2019-07-08T10:36:06Z</time>
      </trkpt>
      <trkpt lat="44.77161" lon="4.84209">
        <ele>119.19999694824</ele>
        <time>2019-07-08T10:36:10Z</time>
      </trkpt>
      <trkpt lat="44.77151" lon="4.84201">
        <ele>119.19999694824</ele>
        <time>2019-07-08T10:36:13Z</time>
      </trkpt>
      <trkpt lat="44.77146" lon="4.84199">
        <ele>119.19999694824</ele>
        <time>2019-07-08T10:36:14Z</time>
      </trkpt>
      <trkpt lat="44.77111" lon="4.84189">
        <ele>119.19999694824</ele>
        <time>2019-07-08T10:36:21Z</time>
      </trkpt>
      <trkpt lat="44.77077" lon="4.84175">
        <ele>119.19999694824</ele>
        <time>2019-07-08T10:36:28Z</time>
      </trkpt>
      <trkpt lat="44.77039" lon="4.8416">
        <ele>119.19999694824</ele>
        <time>2019-07-08T10:36:35Z</time>
      </trkpt>
      <trkpt lat="44.76981" lon="4.84138">
        <ele>119.19999694824</ele>
        <time>2019-07-08T10:36:45Z</time>
      </trkpt>
      <trkpt lat="44.76929" lon="4.84118">
        <ele>119.19999694824</ele>
        <time>2019-07-08T10:36:54Z</time>
      </trkpt>
      <trkpt lat="44.76875" lon="4.84099">
        <ele>119.19999694824</ele>
        <time>2019-07-08T10:37:03Z</time>
      </trkpt>
      <trkpt lat="44.76838" lon="4.84085">
        <ele>119.19999694824</ele>
        <time>2019-07-08T10:37:09Z</time>
      </trkpt>
      <trkpt lat="44.768" lon="4.84069">
        <ele>119.19999694824</ele>
        <time>2019-07-08T10:37:16Z</time>
      </trkpt>
      <trkpt lat="44.76762" lon="4.84056">
        <ele>119.19999694824</ele>
        <time>2019-07-08T10:37:24Z</time>
      </trkpt>
      <trkpt lat="44.76754" lon="4.84051">
        <ele>119.19999694824</ele>
        <time>2019-07-08T10:37:26Z</time>
      </trkpt>
      <trkpt lat="44.76749" lon="4.84049">
        <ele>119.59999847412</ele>
        <time>2019-07-08T10:37:27Z</time>
      </trkpt>
      <trkpt lat="44.76745" lon="4.84047">
        <ele>120.40000152588</ele>
        <time>2019-07-08T10:37:28Z</time>
      </trkpt>
      <trkpt lat="44.7674" lon="4.84045">
        <ele>121</ele>
        <time>2019-07-08T10:37:29Z</time>
      </trkpt>
      <trkpt lat="44.76735" lon="4.84044">
        <ele>121.40000152588</ele>
        <time>2019-07-08T10:37:30Z</time>
      </trkpt>
      <trkpt lat="44.76731" lon="4.84042">
        <ele>121.40000152588</ele>
        <time>2019-07-08T10:37:31Z</time>
      </trkpt>
      <trkpt lat="44.767" lon="4.8403">
        <ele>121.40000152588</ele>
        <time>2019-07-08T10:37:38Z</time>
      </trkpt>
      <trkpt lat="44.76678" lon="4.84023">
        <ele>121.80000305176</ele>
        <time>2019-07-08T10:37:43Z</time>
      </trkpt>
      <trkpt lat="44.76674" lon="4.84021">
        <ele>122.19999694824</ele>
        <time>2019-07-08T10:37:44Z</time>
      </trkpt>
      <trkpt lat="44.7667" lon="4.8402">
        <ele>122.59999847412</ele>
        <time>2019-07-08T10:37:45Z</time>
      </trkpt>
      <trkpt lat="44.76665" lon="4.84018">
        <ele>123</ele>
        <time>2019-07-08T10:37:46Z</time>
      </trkpt>
      <trkpt lat="44.76661" lon="4.84017">
        <ele>123.40000152588</ele>
        <time>2019-07-08T10:37:47Z</time>
      </trkpt>
      <trkpt lat="44.76626" lon="4.84004">
        <ele>123.40000152588</ele>
        <time>2019-07-08T10:37:55Z</time>
      </trkpt>
      <trkpt lat="44.76617" lon="4.84001">
        <ele>123.80000305176</ele>
        <time>2019-07-08T10:37:57Z</time>
      </trkpt>
      <trkpt lat="44.76612" lon="4.83999">
        <ele>124.40000152588</ele>
        <time>2019-07-08T10:37:58Z</time>
      </trkpt>
      <trkpt lat="44.76608" lon="4.83998">
        <ele>124.80000305176</ele>
        <time>2019-07-08T10:37:59Z</time>
      </trkpt>
      <trkpt lat="44.76603" lon="4.83996">
        <ele>125.19999694824</ele>
        <time>2019-07-08T10:38:00Z</time>
      </trkpt>
      <trkpt lat="44.76599" lon="4.83994">
        <ele>125.59999847412</ele>
        <time>2019-07-08T10:38:01Z</time>
      </trkpt>
      <trkpt lat="44.76584" lon="4.83989">
        <ele>125.59999847412</ele>
        <time>2019-07-08T10:38:04Z</time>
      </trkpt>
      <trkpt lat="44.76547" lon="4.83974">
        <ele>125.59999847412</ele>
        <time>2019-07-08T10:38:11Z</time>
      </trkpt>
      <trkpt lat="44.765" lon="4.83954">
        <ele>125.59999847412</ele>
        <time>2019-07-08T10:38:19Z</time>
      </trkpt>
      <trkpt lat="44.76487" lon="4.83949">
        <ele>125.59999847412</ele>
        <time>2019-07-08T10:38:21Z</time>
      </trkpt>
      <trkpt lat="44.76454" lon="4.83934">
        <ele>125.59999847412</ele>
        <time>2019-07-08T10:38:26Z</time>
      </trkpt>
      <trkpt lat="44.76447" lon="4.83932">
        <ele>125.19999694824</ele>
        <time>2019-07-08T10:38:27Z</time>
      </trkpt>
      <trkpt lat="44.7644" lon="4.83929">
        <ele>124.80000305176</ele>
        <time>2019-07-08T10:38:28Z</time>
      </trkpt>
      <trkpt lat="44.76433" lon="4.83926">
        <ele>124.40000152588</ele>
        <time>2019-07-08T10:38:29Z</time>
      </trkpt>
      <trkpt lat="44.76426" lon="4.83924">
        <ele>123.80000305176</ele>
        <time>2019-07-08T10:38:30Z</time>
      </trkpt>
      <trkpt lat="44.7642" lon="4.83922">
        <ele>123.40000152588</ele>
        <time>2019-07-08T10:38:31Z</time>
      </trkpt>
      <trkpt lat="44.76414" lon="4.83919">
        <ele>123.40000152588</ele>
        <time>2019-07-08T10:38:32Z</time>
      </trkpt>
      <trkpt lat="44.76403" lon="4.83916">
        <ele>123</ele>
        <time>2019-07-08T10:38:34Z</time>
      </trkpt>
      <trkpt lat="44.76399" lon="4.83915">
        <ele>122.59999847412</ele>
        <time>2019-07-08T10:38:35Z</time>
      </trkpt>
      <trkpt lat="44.76396" lon="4.83913">
        <ele>122.19999694824</ele>
        <time>2019-07-08T10:38:36Z</time>
      </trkpt>
      <trkpt lat="44.76395" lon="4.83909">
        <ele>121.80000305176</ele>
        <time>2019-07-08T10:38:37Z</time>
      </trkpt>
      <trkpt lat="44.76398" lon="4.83904">
        <ele>121.40000152588</ele>
        <time>2019-07-08T10:38:38Z</time>
      </trkpt>
      <trkpt lat="44.76406" lon="4.83904">
        <ele>121.40000152588</ele>
        <time>2019-07-08T10:38:40Z</time>
      </trkpt>
      <trkpt lat="44.76411" lon="4.83906">
        <ele>121</ele>
        <time>2019-07-08T10:38:41Z</time>
      </trkpt>
      <trkpt lat="44.76416" lon="4.83908">
        <ele>120</ele>
        <time>2019-07-08T10:38:42Z</time>
      </trkpt>
      <trkpt lat="44.7642" lon="4.8391">
        <ele>119.59999847412</ele>
        <time>2019-07-08T10:38:43Z</time>
      </trkpt>
      <trkpt lat="44.76425" lon="4.83911">
        <ele>119.19999694824</ele>
        <time>2019-07-08T10:38:44Z</time>
      </trkpt>
      <trkpt lat="44.7643" lon="4.83912">
        <ele>119.19999694824</ele>
        <time>2019-07-08T10:38:45Z</time>
      </trkpt>
      <trkpt lat="44.76435" lon="4.83913">
        <ele>119.19999694824</ele>
        <time>2019-07-08T10:38:46Z</time>
      </trkpt>
      <trkpt lat="44.76457" lon="4.8392">
        <ele>119.19999694824</ele>
        <time>2019-07-08T10:38:51Z</time>
      </trkpt>
      <trkpt lat="44.76484" lon="4.83927">
        <ele>119.19999694824</ele>
        <time>2019-07-08T10:38:57Z</time>
      </trkpt>
      <trkpt lat="44.76512" lon="4.83934">
        <ele>119.19999694824</ele>
        <time>2019-07-08T10:39:03Z</time>
      </trkpt>
      <trkpt lat="44.7653" lon="4.83935">
        <ele>119.19999694824</ele>
        <time>2019-07-08T10:39:07Z</time>
      </trkpt>
      <trkpt lat="44.76536" lon="4.83928">
        <ele>119.19999694824</ele>
        <time>2019-07-08T10:39:09Z</time>
      </trkpt>
      <trkpt lat="44.76537" lon="4.83918">
        <ele>119.19999694824</ele>
        <time>2019-07-08T10:39:11Z</time>
      </trkpt>
      <trkpt lat="44.76538" lon="4.83912">
        <ele>119.19999694824</ele>
        <time>2019-07-08T10:39:12Z</time>
      </trkpt>
      <trkpt lat="44.76543" lon="4.83879">
        <ele>119.19999694824</ele>
        <time>2019-07-08T10:39:19Z</time>
      </trkpt>
      <trkpt lat="44.76537" lon="4.83844">
        <ele>119.19999694824</ele>
        <time>2019-07-08T10:39:26Z</time>
      </trkpt>
      <trkpt lat="44.76535" lon="4.83822">
        <ele>118.80000305176</ele>
        <time>2019-07-08T10:39:30Z</time>
      </trkpt>
      <trkpt lat="44.76534" lon="4.83816">
        <ele>118</ele>
        <time>2019-07-08T10:39:31Z</time>
      </trkpt>
      <trkpt lat="44.76533" lon="4.8381">
        <ele>117.59999847412</ele>
        <time>2019-07-08T10:39:32Z</time>
      </trkpt>
      <trkpt lat="44.76531" lon="4.83804">
        <ele>117</ele>
        <time>2019-07-08T10:39:33Z</time>
      </trkpt>
      <trkpt lat="44.76529" lon="4.83798">
        <ele>117</ele>
        <time>2019-07-08T10:39:34Z</time>
      </trkpt>
      <trkpt lat="44.76523" lon="4.83781">
        <ele>117</ele>
        <time>2019-07-08T10:39:37Z</time>
      </trkpt>
      <trkpt lat="44.76506" lon="4.83736">
        <ele>117</ele>
        <time>2019-07-08T10:39:44Z</time>
      </trkpt>
      <trkpt lat="44.76493" lon="4.83693">
        <ele>117</ele>
        <time>2019-07-08T10:39:50Z</time>
      </trkpt>
      <trkpt lat="44.76486" lon="4.83674">
        <ele>117</ele>
        <time>2019-07-08T10:39:53Z</time>
      </trkpt>
      <trkpt lat="44.76481" lon="4.83655">
        <ele>117</ele>
        <time>2019-07-08T10:39:56Z</time>
      </trkpt>
      <trkpt lat="44.76474" lon="4.83632">
        <ele>117</ele>
        <time>2019-07-08T10:40:00Z</time>
      </trkpt>
      <trkpt lat="44.76471" lon="4.8362">
        <ele>117</ele>
        <time>2019-07-08T10:40:02Z</time>
      </trkpt>
      <trkpt lat="44.76469" lon="4.83608">
        <ele>117</ele>
        <time>2019-07-08T10:40:04Z</time>
      </trkpt>
      <trkpt lat="44.76466" lon="4.83595">
        <ele>117</ele>
        <time>2019-07-08T10:40:06Z</time>
      </trkpt>
      <trkpt lat="44.76463" lon="4.8357">
        <ele>117</ele>
        <time>2019-07-08T10:40:10Z</time>
      </trkpt>
      <trkpt lat="44.76462" lon="4.83554">
        <ele>117</ele>
        <time>2019-07-08T10:40:12Z</time>
      </trkpt>
      <trkpt lat="44.76461" lon="4.83518">
        <ele>117</ele>
        <time>2019-07-08T10:40:17Z</time>
      </trkpt>
      <trkpt lat="44.76461" lon="4.8351">
        <ele>117</ele>
        <time>2019-07-08T10:40:18Z</time>
      </trkpt>
      <trkpt lat="44.76461" lon="4.83463">
        <ele>117</ele>
        <time>2019-07-08T10:40:24Z</time>
      </trkpt>
      <trkpt lat="44.76463" lon="4.83423">
        <ele>117</ele>
        <time>2019-07-08T10:40:29Z</time>
      </trkpt>
      <trkpt lat="44.76464" lon="4.83407">
        <ele>117</ele>
        <time>2019-07-08T10:40:31Z</time>
      </trkpt>
      <trkpt lat="44.76469" lon="4.8338">
        <ele>117</ele>
        <time>2019-07-08T10:40:35Z</time>
      </trkpt>
      <trkpt lat="44.76473" lon="4.8336">
        <ele>117</ele>
        <time>2019-07-08T10:40:40Z</time>
      </trkpt>
      <trkpt lat="44.76472" lon="4.83355">
        <ele>117</ele>
        <time>2019-07-08T10:40:42Z</time>
      </trkpt>
      <trkpt lat="44.76469" lon="4.83357">
        <ele>117</ele>
        <time>2019-07-08T10:40:44Z</time>
      </trkpt>
      <trkpt lat="44.76467" lon="4.83371">
        <ele>117</ele>
        <time>2019-07-08T10:40:49Z</time>
      </trkpt>
      <trkpt lat="44.76477" lon="4.8338">
        <ele>117</ele>
        <time>2019-07-08T10:40:53Z</time>
      </trkpt>
      <trkpt lat="44.76489" lon="4.8339">
        <ele>117</ele>
        <time>2019-07-08T10:40:56Z</time>
      </trkpt>
      <trkpt lat="44.76493" lon="4.83392">
        <ele>117</ele>
        <time>2019-07-08T10:40:57Z</time>
      </trkpt>
      <trkpt lat="44.765" lon="4.83395">
        <ele>117</ele>
        <time>2019-07-08T10:41:00Z</time>
      </trkpt>
      <trkpt lat="44.76502" lon="4.83395">
        <ele>117</ele>
        <time>2019-07-08T10:41:01Z</time>
      </trkpt>
      <trkpt lat="44.76503" lon="4.83395">
        <ele>117</ele>
        <time>2019-07-08T10:41:05Z</time>
      </trkpt>
      <trkpt lat="44.76505" lon="4.83393">
        <ele>117</ele>
        <time>2019-07-08T10:41:11Z</time>
      </trkpt>
      <trkpt lat="44.76506" lon="4.83393">
        <ele>117</ele>
        <time>2019-07-08T10:41:17Z</time>
      </trkpt>
      <trkpt lat="44.76512" lon="4.83392">
        <ele>117</ele>
        <time>2019-07-08T10:41:24Z</time>
      </trkpt>
      <trkpt lat="44.76514" lon="4.83391">
        <ele>117</ele>
        <time>2019-07-08T10:41:31Z</time>
      </trkpt>
      <trkpt lat="44.76515" lon="4.8339">
        <ele>117</ele>
        <time>2019-07-08T10:41:34Z</time>
      </trkpt>
      <trkpt lat="44.76516" lon="4.83385">
        <ele>117</ele>
        <time>2019-07-08T10:41:37Z</time>
      </trkpt>
      <trkpt lat="44.76518" lon="4.83381">
        <ele>117</ele>
        <time>2019-07-08T10:41:39Z</time>
      </trkpt>
      <trkpt lat="44.7652" lon="4.83372">
        <ele>117</ele>
        <time>2019-07-08T10:41:41Z</time>
      </trkpt>
      <trkpt lat="44.76528" lon="4.83337">
        <ele>117</ele>
        <time>2019-07-08T10:41:49Z</time>
      </trkpt>
      <trkpt lat="44.76537" lon="4.833">
        <ele>117</ele>
        <time>2019-07-08T10:41:56Z</time>
      </trkpt>
      <trkpt lat="44.76544" lon="4.83265">
        <ele>117</ele>
        <time>2019-07-08T10:42:03Z</time>
      </trkpt>
      <trkpt lat="44.76552" lon="4.83229">
        <ele>117</ele>
        <time>2019-07-08T10:42:10Z</time>
      </trkpt>
      <trkpt lat="44.76559" lon="4.83204">
        <ele>117</ele>
        <time>2019-07-08T10:42:16Z</time>
      </trkpt>
      <trkpt lat="44.76567" lon="4.83166">
        <ele>117</ele>
        <time>2019-07-08T10:42:23Z</time>
      </trkpt>
      <trkpt lat="44.76573" lon="4.83137">
        <ele>117</ele>
        <time>2019-07-08T10:42:29Z</time>
      </trkpt>
      <trkpt lat="44.76576" lon="4.83126">
        <ele>117</ele>
        <time>2019-07-08T10:42:31Z</time>
      </trkpt>
      <trkpt lat="44.76579" lon="4.83108">
        <ele>117</ele>
        <time>2019-07-08T10:42:34Z</time>
      </trkpt>
      <trkpt lat="44.76582" lon="4.83097">
        <ele>117</ele>
        <time>2019-07-08T10:42:36Z</time>
      </trkpt>
      <trkpt lat="44.76589" lon="4.83075">
        <ele>117</ele>
        <time>2019-07-08T10:42:40Z</time>
      </trkpt>
      <trkpt lat="44.76606" lon="4.83034">
        <ele>117</ele>
        <time>2019-07-08T10:42:48Z</time>
      </trkpt>
      <trkpt lat="44.76629" lon="4.82995">
        <ele>117</ele>
        <time>2019-07-08T10:42:56Z</time>
      </trkpt>
      <trkpt lat="44.76632" lon="4.8299">
        <ele>117</ele>
        <time>2019-07-08T10:42:57Z</time>
      </trkpt>
      <trkpt lat="44.76648" lon="4.82968">
        <ele>117</ele>
        <time>2019-07-08T10:43:03Z</time>
      </trkpt>
      <trkpt lat="44.76651" lon="4.82964">
        <ele>117</ele>
        <time>2019-07-08T10:43:04Z</time>
      </trkpt>
      <trkpt lat="44.76667" lon="4.82944">
        <ele>117</ele>
        <time>2019-07-08T10:43:09Z</time>
      </trkpt>
      <trkpt lat="44.76692" lon="4.82913">
        <ele>117</ele>
        <time>2019-07-08T10:43:16Z</time>
      </trkpt>
      <trkpt lat="44.76696" lon="4.82909">
        <ele>117</ele>
        <time>2019-07-08T10:43:17Z</time>
      </trkpt>
      <trkpt lat="44.76714" lon="4.82878">
        <ele>117</ele>
        <time>2019-07-08T10:43:23Z</time>
      </trkpt>
      <trkpt lat="44.76717" lon="4.82872">
        <ele>117</ele>
        <time>2019-07-08T10:43:24Z</time>
      </trkpt>
      <trkpt lat="44.76735" lon="4.82837">
        <ele>117</ele>
        <time>2019-07-08T10:43:31Z</time>
      </trkpt>
      <trkpt lat="44.7674" lon="4.82828">
        <ele>117</ele>
        <time>2019-07-08T10:43:33Z</time>
      </trkpt>
      <trkpt lat="44.76749" lon="4.82801">
        <ele>117</ele>
        <time>2019-07-08T10:43:38Z</time>
      </trkpt>
      <trkpt lat="44.76763" lon="4.82756">
        <ele>117</ele>
        <time>2019-07-08T10:43:46Z</time>
      </trkpt>
      <trkpt lat="44.76779" lon="4.82707">
        <ele>117</ele>
        <time>2019-07-08T10:43:54Z</time>
      </trkpt>
      <trkpt lat="44.76793" lon="4.82662">
        <ele>117</ele>
        <time>2019-07-08T10:44:01Z</time>
      </trkpt>
      <trkpt lat="44.76809" lon="4.82609">
        <ele>117</ele>
        <time>2019-07-08T10:44:09Z</time>
      </trkpt>
      <trkpt lat="44.76828" lon="4.82548">
        <ele>117</ele>
        <time>2019-07-08T10:44:18Z</time>
      </trkpt>
      <trkpt lat="44.76848" lon="4.82486">
        <ele>117</ele>
        <time>2019-07-08T10:44:27Z</time>
      </trkpt>
      <trkpt lat="44.76867" lon="4.82427">
        <ele>117</ele>
        <time>2019-07-08T10:44:36Z</time>
      </trkpt>
      <trkpt lat="44.76872" lon="4.82406">
        <ele>117</ele>
        <time>2019-07-08T10:44:39Z</time>
      </trkpt>
      <trkpt lat="44.76874" lon="4.82399">
        <ele>116.59999847412</ele>
        <time>2019-07-08T10:44:40Z</time>
      </trkpt>
      <trkpt lat="44.76876" lon="4.82393">
        <ele>116.19999694824</ele>
        <time>2019-07-08T10:44:41Z</time>
      </trkpt>
      <trkpt lat="44.76877" lon="4.82388">
        <ele>115.80000305176</ele>
        <time>2019-07-08T10:44:42Z</time>
      </trkpt>
      <trkpt lat="44.76878" lon="4.82384">
        <ele>115.19999694824</ele>
        <time>2019-07-08T10:44:43Z</time>
      </trkpt>
      <trkpt lat="44.76878" lon="4.8238">
        <ele>114.80000305176</ele>
        <time>2019-07-08T10:44:44Z</time>
      </trkpt>
      <trkpt lat="44.76879" lon="4.82376">
        <ele>114.80000305176</ele>
        <time>2019-07-08T10:44:45Z</time>
      </trkpt>
      <trkpt lat="44.7688" lon="4.82365">
        <ele>114.80000305176</ele>
        <time>2019-07-08T10:44:50Z</time>
      </trkpt>
      <trkpt lat="44.7688" lon="4.82365">
        <ele>114.80000305176</ele>
        <time>2019-07-08T10:44:51Z</time>
      </trkpt>
      <trkpt lat="44.76878" lon="4.82367">
        <ele>114.80000305176</ele>
        <time>2019-07-08T10:44:54Z</time>
      </trkpt>
      <trkpt lat="44.76879" lon="4.82369">
        <ele>114.80000305176</ele>
        <time>2019-07-08T10:44:59Z</time>
      </trkpt>
      <trkpt lat="44.76879" lon="4.82369">
        <ele>114.80000305176</ele>
        <time>2019-07-08T10:45:03Z</time>
      </trkpt>
      <trkpt lat="44.76877" lon="4.82369">
        <ele>114.80000305176</ele>
        <time>2019-07-08T10:45:14Z</time>
      </trkpt>
      <trkpt lat="44.76877" lon="4.82368">
        <ele>114.80000305176</ele>
        <time>2019-07-08T10:45:19Z</time>
      </trkpt>
      <trkpt lat="44.76874" lon="4.82364">
        <ele>114.80000305176</ele>
        <time>2019-07-08T10:45:26Z</time>
      </trkpt>
      <trkpt lat="44.76864" lon="4.82352">
        <ele>114.80000305176</ele>
        <time>2019-07-08T10:45:29Z</time>
      </trkpt>
      <trkpt lat="44.76858" lon="4.82345">
        <ele>114.40000152588</ele>
        <time>2019-07-08T10:45:31Z</time>
      </trkpt>
      <trkpt lat="44.76854" lon="4.82342">
        <ele>114</ele>
        <time>2019-07-08T10:45:32Z</time>
      </trkpt>
      <trkpt lat="44.76851" lon="4.82338">
        <ele>113.59999847412</ele>
        <time>2019-07-08T10:45:33Z</time>
      </trkpt>
      <trkpt lat="44.76849" lon="4.82335">
        <ele>113.19999694824</ele>
        <time>2019-07-08T10:45:34Z</time>
      </trkpt>
      <trkpt lat="44.76845" lon="4.82333">
        <ele>112.80000305176</ele>
        <time>2019-07-08T10:45:35Z</time>
      </trkpt>
      <trkpt lat="44.76822" lon="4.82317">
        <ele>112.80000305176</ele>
        <time>2019-07-08T10:45:42Z</time>
      </trkpt>
      <trkpt lat="44.76793" lon="4.82289">
        <ele>112.80000305176</ele>
        <time>2019-07-08T10:45:50Z</time>
      </trkpt>
      <trkpt lat="44.76777" lon="4.82274">
        <ele>112.80000305176</ele>
        <time>2019-07-08T10:45:54Z</time>
      </trkpt>
      <trkpt lat="44.76768" lon="4.82269">
        <ele>112.80000305176</ele>
        <time>2019-07-08T10:45:56Z</time>
      </trkpt>
      <trkpt lat="44.76759" lon="4.82265">
        <ele>112.80000305176</ele>
        <time>2019-07-08T10:45:58Z</time>
      </trkpt>
      <trkpt lat="44.76745" lon="4.82261">
        <ele>112.80000305176</ele>
        <time>2019-07-08T10:46:01Z</time>
      </trkpt>
      <trkpt lat="44.76733" lon="4.82254">
        <ele>112.80000305176</ele>
        <time>2019-07-08T10:46:04Z</time>
      </trkpt>
      <trkpt lat="44.76725" lon="4.8225">
        <ele>112.80000305176</ele>
        <time>2019-07-08T10:46:06Z</time>
      </trkpt>
      <trkpt lat="44.76709" lon="4.82243">
        <ele>112.80000305176</ele>
        <time>2019-07-08T10:46:11Z</time>
      </trkpt>
      <trkpt lat="44.76692" lon="4.82236">
        <ele>112.80000305176</ele>
        <time>2019-07-08T10:46:17Z</time>
      </trkpt>
      <trkpt lat="44.76668" lon="4.82226">
        <ele>112.80000305176</ele>
        <time>2019-07-08T10:46:25Z</time>
      </trkpt>
      <trkpt lat="44.76635" lon="4.82213">
        <ele>112.80000305176</ele>
        <time>2019-07-08T10:46:34Z</time>
      </trkpt>
      <trkpt lat="44.76613" lon="4.82207">
        <ele>112.80000305176</ele>
        <time>2019-07-08T10:46:40Z</time>
      </trkpt>
      <trkpt lat="44.76606" lon="4.82201">
        <ele>112.80000305176</ele>
        <time>2019-07-08T10:46:42Z</time>
      </trkpt>
      <trkpt lat="44.76604" lon="4.82196">
        <ele>112.80000305176</ele>
        <time>2019-07-08T10:46:43Z</time>
      </trkpt>
      <trkpt lat="44.76602" lon="4.82184">
        <ele>112.80000305176</ele>
        <time>2019-07-08T10:46:46Z</time>
      </trkpt>
      <trkpt lat="44.76603" lon="4.82179">
        <ele>112.80000305176</ele>
        <time>2019-07-08T10:46:47Z</time>
      </trkpt>
      <trkpt lat="44.76602" lon="4.82169">
        <ele>112.80000305176</ele>
        <time>2019-07-08T10:46:49Z</time>
      </trkpt>
      <trkpt lat="44.76602" lon="4.82157">
        <ele>112.80000305176</ele>
        <time>2019-07-08T10:46:51Z</time>
      </trkpt>
      <trkpt lat="44.76602" lon="4.82151">
        <ele>112.80000305176</ele>
        <time>2019-07-08T10:46:52Z</time>
      </trkpt>
      <trkpt lat="44.766" lon="4.82101">
        <ele>112.80000305176</ele>
        <time>2019-07-08T10:46:59Z</time>
      </trkpt>
      <trkpt lat="44.76594" lon="4.8204">
        <ele>112.80000305176</ele>
        <time>2019-07-08T10:47:08Z</time>
      </trkpt>
      <trkpt lat="44.76591" lon="4.81999">
        <ele>112.80000305176</ele>
        <time>2019-07-08T10:47:14Z</time>
      </trkpt>
      <trkpt lat="44.7659" lon="4.81993">
        <ele>112.80000305176</ele>
        <time>2019-07-08T10:47:15Z</time>
      </trkpt>
      <trkpt lat="44.76588" lon="4.81979">
        <ele>112.80000305176</ele>
        <time>2019-07-08T10:47:17Z</time>
      </trkpt>
      <trkpt lat="44.76579" lon="4.81947">
        <ele>112.80000305176</ele>
        <time>2019-07-08T10:47:22Z</time>
      </trkpt>
      <trkpt lat="44.76568" lon="4.81912">
        <ele>112.80000305176</ele>
        <time>2019-07-08T10:47:27Z</time>
      </trkpt>
      <trkpt lat="44.76561" lon="4.81891">
        <ele>112.80000305176</ele>
        <time>2019-07-08T10:47:30Z</time>
      </trkpt>
      <trkpt lat="44.76548" lon="4.81829">
        <ele>112.80000305176</ele>
        <time>2019-07-08T10:47:38Z</time>
      </trkpt>
      <trkpt lat="44.76546" lon="4.81777">
        <ele>112.80000305176</ele>
        <time>2019-07-08T10:47:44Z</time>
      </trkpt>
      <trkpt lat="44.76552" lon="4.81709">
        <ele>112.80000305176</ele>
        <time>2019-07-08T10:47:52Z</time>
      </trkpt>
      <trkpt lat="44.76562" lon="4.81642">
        <ele>112.80000305176</ele>
        <time>2019-07-08T10:48:00Z</time>
      </trkpt>
      <trkpt lat="44.76565" lon="4.8161">
        <ele>112.80000305176</ele>
        <time>2019-07-08T10:48:04Z</time>
      </trkpt>
      <trkpt lat="44.76564" lon="4.81601">
        <ele>112.80000305176</ele>
        <time>2019-07-08T10:48:05Z</time>
      </trkpt>
      <trkpt lat="44.76554" lon="4.8158">
        <ele>112.80000305176</ele>
        <time>2019-07-08T10:48:08Z</time>
      </trkpt>
      <trkpt lat="44.76549" lon="4.81574">
        <ele>112.40000152588</ele>
        <time>2019-07-08T10:48:09Z</time>
      </trkpt>
      <trkpt lat="44.76544" lon="4.81569">
        <ele>112</ele>
        <time>2019-07-08T10:48:10Z</time>
      </trkpt>
      <trkpt lat="44.76539" lon="4.81565">
        <ele>111.19999694824</ele>
        <time>2019-07-08T10:48:11Z</time>
      </trkpt>
      <trkpt lat="44.76534" lon="4.81561">
        <ele>110.80000305176</ele>
        <time>2019-07-08T10:48:12Z</time>
      </trkpt>
      <trkpt lat="44.76498" lon="4.81533">
        <ele>110.80000305176</ele>
        <time>2019-07-08T10:48:19Z</time>
      </trkpt>
      <trkpt lat="44.76461" lon="4.81506">
        <ele>110.80000305176</ele>
        <time>2019-07-08T10:48:26Z</time>
      </trkpt>
      <trkpt lat="44.76451" lon="4.81498">
        <ele>110.80000305176</ele>
        <time>2019-07-08T10:48:28Z</time>
      </trkpt>
      <trkpt lat="44.76444" lon="4.81486">
        <ele>110.80000305176</ele>
        <time>2019-07-08T10:48:30Z</time>
      </trkpt>
      <trkpt lat="44.7644" lon="4.81472">
        <ele>110.80000305176</ele>
        <time>2019-07-08T10:48:32Z</time>
      </trkpt>
      <trkpt lat="44.76436" lon="4.81459">
        <ele>110.80000305176</ele>
        <time>2019-07-08T10:48:34Z</time>
      </trkpt>
      <trkpt lat="44.76425" lon="4.81414">
        <ele>110.80000305176</ele>
        <time>2019-07-08T10:48:41Z</time>
      </trkpt>
      <trkpt lat="44.76415" lon="4.81371">
        <ele>110.80000305176</ele>
        <time>2019-07-08T10:48:47Z</time>
      </trkpt>
      <trkpt lat="44.76405" lon="4.81332">
        <ele>110.80000305176</ele>
        <time>2019-07-08T10:48:52Z</time>
      </trkpt>
      <trkpt lat="44.76401" lon="4.81287">
        <ele>110.80000305176</ele>
        <time>2019-07-08T10:48:58Z</time>
      </trkpt>
      <trkpt lat="44.76405" lon="4.81237">
        <ele>110.80000305176</ele>
        <time>2019-07-08T10:49:04Z</time>
      </trkpt>
      <trkpt lat="44.76407" lon="4.8121">
        <ele>110.80000305176</ele>
        <time>2019-07-08T10:49:07Z</time>
      </trkpt>
      <trkpt lat="44.76413" lon="4.81185">
        <ele>110.80000305176</ele>
        <time>2019-07-08T10:49:10Z</time>
      </trkpt>
      <trkpt lat="44.76429" lon="4.81129">
        <ele>110.80000305176</ele>
        <time>2019-07-08T10:49:17Z</time>
      </trkpt>
      <trkpt lat="44.76441" lon="4.81083">
        <ele>110.80000305176</ele>
        <time>2019-07-08T10:49:23Z</time>
      </trkpt>
      <trkpt lat="44.76446" lon="4.81063">
        <ele>110.40000152588</ele>
        <time>2019-07-08T10:49:26Z</time>
      </trkpt>
      <trkpt lat="44.76448" lon="4.81056">
        <ele>110</ele>
        <time>2019-07-08T10:49:27Z</time>
      </trkpt>
      <trkpt lat="44.76449" lon="4.8105">
        <ele>109.59999847412</ele>
        <time>2019-07-08T10:49:28Z</time>
      </trkpt>
      <trkpt lat="44.76451" lon="4.81044">
        <ele>109.19999694824</ele>
        <time>2019-07-08T10:49:29Z</time>
      </trkpt>
      <trkpt lat="44.76452" lon="4.81039">
        <ele>108.80000305176</ele>
        <time>2019-07-08T10:49:30Z</time>
      </trkpt>
      <trkpt lat="44.76453" lon="4.81033">
        <ele>108.80000305176</ele>
        <time>2019-07-08T10:49:31Z</time>
      </trkpt>
      <trkpt lat="44.76464" lon="4.80992">
        <ele>108.80000305176</ele>
        <time>2019-07-08T10:49:38Z</time>
      </trkpt>
      <trkpt lat="44.76478" lon="4.80952">
        <ele>108.80000305176</ele>
        <time>2019-07-08T10:49:45Z</time>
      </trkpt>
      <trkpt lat="44.76497" lon="4.80902">
        <ele>108.80000305176</ele>
        <time>2019-07-08T10:49:53Z</time>
      </trkpt>
      <trkpt lat="44.76519" lon="4.80843">
        <ele>108.80000305176</ele>
        <time>2019-07-08T10:50:02Z</time>
      </trkpt>
      <trkpt lat="44.76538" lon="4.80785">
        <ele>108.80000305176</ele>
        <time>2019-07-08T10:50:11Z</time>
      </trkpt>
      <trkpt lat="44.76541" lon="4.80772">
        <ele>108.80000305176</ele>
        <time>2019-07-08T10:50:13Z</time>
      </trkpt>
      <trkpt lat="44.76539" lon="4.80758">
        <ele>108.80000305176</ele>
        <time>2019-07-08T10:50:15Z</time>
      </trkpt>
      <trkpt lat="44.76528" lon="4.80742">
        <ele>108.80000305176</ele>
        <time>2019-07-08T10:50:18Z</time>
      </trkpt>
      <trkpt lat="44.76524" lon="4.80738">
        <ele>108.80000305176</ele>
        <time>2019-07-08T10:50:19Z</time>
      </trkpt>
      <trkpt lat="44.76505" lon="4.80721">
        <ele>108.80000305176</ele>
        <time>2019-07-08T10:50:23Z</time>
      </trkpt>
      <trkpt lat="44.76473" lon="4.8069">
        <ele>108.80000305176</ele>
        <time>2019-07-08T10:50:30Z</time>
      </trkpt>
      <trkpt lat="44.76457" lon="4.80668">
        <ele>108.80000305176</ele>
        <time>2019-07-08T10:50:34Z</time>
      </trkpt>
      <trkpt lat="44.7645" lon="4.80655">
        <ele>108.80000305176</ele>
        <time>2019-07-08T10:50:36Z</time>
      </trkpt>
      <trkpt lat="44.76429" lon="4.80608">
        <ele>108.80000305176</ele>
        <time>2019-07-08T10:50:43Z</time>
      </trkpt>
      <trkpt lat="44.76407" lon="4.80548">
        <ele>108.80000305176</ele>
        <time>2019-07-08T10:50:51Z</time>
      </trkpt>
      <trkpt lat="44.76393" lon="4.80521">
        <ele>108.80000305176</ele>
        <time>2019-07-08T10:50:55Z</time>
      </trkpt>
      <trkpt lat="44.76385" lon="4.80509">
        <ele>108.80000305176</ele>
        <time>2019-07-08T10:50:57Z</time>
      </trkpt>
      <trkpt lat="44.76354" lon="4.80473">
        <ele>108.80000305176</ele>
        <time>2019-07-08T10:51:04Z</time>
      </trkpt>
      <trkpt lat="44.76321" lon="4.80435">
        <ele>108.80000305176</ele>
        <time>2019-07-08T10:51:11Z</time>
      </trkpt>
      <trkpt lat="44.76289" lon="4.80408">
        <ele>108.80000305176</ele>
        <time>2019-07-08T10:51:17Z</time>
      </trkpt>
      <trkpt lat="44.76249" lon="4.8037">
        <ele>108.80000305176</ele>
        <time>2019-07-08T10:51:25Z</time>
      </trkpt>
      <trkpt lat="44.76211" lon="4.80335">
        <ele>108.80000305176</ele>
        <time>2019-07-08T10:51:33Z</time>
      </trkpt>
      <trkpt lat="44.76202" lon="4.80327">
        <ele>108.80000305176</ele>
        <time>2019-07-08T10:51:35Z</time>
      </trkpt>
      <trkpt lat="44.76194" lon="4.80317">
        <ele>108.80000305176</ele>
        <time>2019-07-08T10:51:37Z</time>
      </trkpt>
      <trkpt lat="44.76192" lon="4.80311">
        <ele>108.80000305176</ele>
        <time>2019-07-08T10:51:38Z</time>
      </trkpt>
      <trkpt lat="44.76191" lon="4.80304">
        <ele>108.40000152588</ele>
        <time>2019-07-08T10:51:39Z</time>
      </trkpt>
      <trkpt lat="44.76192" lon="4.80297">
        <ele>108</ele>
        <time>2019-07-08T10:51:40Z</time>
      </trkpt>
      <trkpt lat="44.76194" lon="4.80291">
        <ele>107.40000152588</ele>
        <time>2019-07-08T10:51:41Z</time>
      </trkpt>
      <trkpt lat="44.76196" lon="4.80285">
        <ele>107</ele>
        <time>2019-07-08T10:51:42Z</time>
      </trkpt>
      <trkpt lat="44.76199" lon="4.80278">
        <ele>106.59999847412</ele>
        <time>2019-07-08T10:51:43Z</time>
      </trkpt>
      <trkpt lat="44.76208" lon="4.80251">
        <ele>106.59999847412</ele>
        <time>2019-07-08T10:51:47Z</time>
      </trkpt>
      <trkpt lat="44.76228" lon="4.80187">
        <ele>106.59999847412</ele>
        <time>2019-07-08T10:51:56Z</time>
      </trkpt>
      <trkpt lat="44.76247" lon="4.80137">
        <ele>106.59999847412</ele>
        <time>2019-07-08T10:52:03Z</time>
      </trkpt>
      <trkpt lat="44.76265" lon="4.80086">
        <ele>106.59999847412</ele>
        <time>2019-07-08T10:52:10Z</time>
      </trkpt>
      <trkpt lat="44.76282" lon="4.8004">
        <ele>106.59999847412</ele>
        <time>2019-07-08T10:52:16Z</time>
      </trkpt>
      <trkpt lat="44.76308" lon="4.79981">
        <ele>106.59999847412</ele>
        <time>2019-07-08T10:52:24Z</time>
      </trkpt>
      <trkpt lat="44.76331" lon="4.79932">
        <ele>106.59999847412</ele>
        <time>2019-07-08T10:52:31Z</time>
      </trkpt>
      <trkpt lat="44.76358" lon="4.79875">
        <ele>106.59999847412</ele>
        <time>2019-07-08T10:52:39Z</time>
      </trkpt>
      <trkpt lat="44.76382" lon="4.79826">
        <ele>106.59999847412</ele>
        <time>2019-07-08T10:52:46Z</time>
      </trkpt>
      <trkpt lat="44.76407" lon="4.79767">
        <ele>106.59999847412</ele>
        <time>2019-07-08T10:52:54Z</time>
      </trkpt>
      <trkpt lat="44.76428" lon="4.79719">
        <ele>106.59999847412</ele>
        <time>2019-07-08T10:53:00Z</time>
      </trkpt>
      <trkpt lat="44.76454" lon="4.79654">
        <ele>106.59999847412</ele>
        <time>2019-07-08T10:53:08Z</time>
      </trkpt>
      <trkpt lat="44.76478" lon="4.79585">
        <ele>106.59999847412</ele>
        <time>2019-07-08T10:53:16Z</time>
      </trkpt>
      <trkpt lat="44.76497" lon="4.79522">
        <ele>106.59999847412</ele>
        <time>2019-07-08T10:53:23Z</time>
      </trkpt>
      <trkpt lat="44.76509" lon="4.79458">
        <ele>106.59999847412</ele>
        <time>2019-07-08T10:53:30Z</time>
      </trkpt>
      <trkpt lat="44.76509" lon="4.79439">
        <ele>105.80000305176</ele>
        <time>2019-07-08T10:53:32Z</time>
      </trkpt>
      <trkpt lat="44.7651" lon="4.79429">
        <ele>105.40000152588</ele>
        <time>2019-07-08T10:53:33Z</time>
      </trkpt>
      <trkpt lat="44.76509" lon="4.7942">
        <ele>105</ele>
        <time>2019-07-08T10:53:34Z</time>
      </trkpt>
      <trkpt lat="44.76509" lon="4.79411">
        <ele>104.59999847412</ele>
        <time>2019-07-08T10:53:35Z</time>
      </trkpt>
      <trkpt lat="44.76509" lon="4.79392">
        <ele>104.59999847412</ele>
        <time>2019-07-08T10:53:37Z</time>
      </trkpt>
      <trkpt lat="44.76507" lon="4.79316">
        <ele>104.59999847412</ele>
        <time>2019-07-08T10:53:45Z</time>
      </trkpt>
      <trkpt lat="44.76497" lon="4.79268">
        <ele>104.59999847412</ele>
        <time>2019-07-08T10:53:50Z</time>
      </trkpt>
      <trkpt lat="44.76492" lon="4.79241">
        <ele>104.59999847412</ele>
        <time>2019-07-08T10:53:53Z</time>
      </trkpt>
      <trkpt lat="44.76489" lon="4.79223">
        <ele>104.59999847412</ele>
        <time>2019-07-08T10:53:55Z</time>
      </trkpt>
      <trkpt lat="44.76482" lon="4.79167">
        <ele>104.59999847412</ele>
        <time>2019-07-08T10:54:01Z</time>
      </trkpt>
      <trkpt lat="44.76477" lon="4.7911">
        <ele>104.59999847412</ele>
        <time>2019-07-08T10:54:07Z</time>
      </trkpt>
      <trkpt lat="44.76468" lon="4.79036">
        <ele>104.59999847412</ele>
        <time>2019-07-08T10:54:15Z</time>
      </trkpt>
      <trkpt lat="44.76463" lon="4.78986">
        <ele>104.59999847412</ele>
        <time>2019-07-08T10:54:21Z</time>
      </trkpt>
      <trkpt lat="44.76464" lon="4.78936">
        <ele>104.59999847412</ele>
        <time>2019-07-08T10:54:27Z</time>
      </trkpt>
      <trkpt lat="44.76469" lon="4.78868">
        <ele>104.59999847412</ele>
        <time>2019-07-08T10:54:35Z</time>
      </trkpt>
      <trkpt lat="44.76474" lon="4.78806">
        <ele>104.59999847412</ele>
        <time>2019-07-08T10:54:42Z</time>
      </trkpt>
      <trkpt lat="44.7648" lon="4.78736">
        <ele>104.59999847412</ele>
        <time>2019-07-08T10:54:50Z</time>
      </trkpt>
      <trkpt lat="44.76488" lon="4.78684">
        <ele>104.59999847412</ele>
        <time>2019-07-08T10:54:56Z</time>
      </trkpt>
      <trkpt lat="44.76499" lon="4.78631">
        <ele>104.59999847412</ele>
        <time>2019-07-08T10:55:02Z</time>
      </trkpt>
      <trkpt lat="44.76489" lon="4.78608">
        <ele>104.59999847412</ele>
        <time>2019-07-08T10:55:05Z</time>
      </trkpt>
      <trkpt lat="44.76477" lon="4.78598">
        <ele>104.59999847412</ele>
        <time>2019-07-08T10:55:07Z</time>
      </trkpt>
      <trkpt lat="44.76461" lon="4.78583">
        <ele>104.59999847412</ele>
        <time>2019-07-08T10:55:10Z</time>
      </trkpt>
      <trkpt lat="44.76427" lon="4.7855">
        <ele>104.59999847412</ele>
        <time>2019-07-08T10:55:17Z</time>
      </trkpt>
      <trkpt lat="44.76402" lon="4.78535">
        <ele>104.19999694824</ele>
        <time>2019-07-08T10:55:22Z</time>
      </trkpt>
      <trkpt lat="44.76398" lon="4.78532">
        <ele>103.80000305176</ele>
        <time>2019-07-08T10:55:23Z</time>
      </trkpt>
      <trkpt lat="44.76393" lon="4.78529">
        <ele>103.40000152588</ele>
        <time>2019-07-08T10:55:24Z</time>
      </trkpt>
      <trkpt lat="44.76389" lon="4.78525">
        <ele>103</ele>
        <time>2019-07-08T10:55:25Z</time>
      </trkpt>
      <trkpt lat="44.76387" lon="4.78521">
        <ele>102.59999847412</ele>
        <time>2019-07-08T10:55:26Z</time>
      </trkpt>
      <trkpt lat="44.76385" lon="4.78516">
        <ele>102.59999847412</ele>
        <time>2019-07-08T10:55:27Z</time>
      </trkpt>
      <trkpt lat="44.76383" lon="4.78502">
        <ele>102.59999847412</ele>
        <time>2019-07-08T10:55:29Z</time>
      </trkpt>
      <trkpt lat="44.76382" lon="4.78495">
        <ele>102.59999847412</ele>
        <time>2019-07-08T10:55:30Z</time>
      </trkpt>
      <trkpt lat="44.76379" lon="4.78489">
        <ele>102.59999847412</ele>
        <time>2019-07-08T10:55:31Z</time>
      </trkpt>
      <trkpt lat="44.76359" lon="4.78458">
        <ele>102.59999847412</ele>
        <time>2019-07-08T10:55:36Z</time>
      </trkpt>
      <trkpt lat="44.76325" lon="4.78401">
        <ele>102.59999847412</ele>
        <time>2019-07-08T10:55:44Z</time>
      </trkpt>
      <trkpt lat="44.76305" lon="4.78368">
        <ele>102.59999847412</ele>
        <time>2019-07-08T10:55:49Z</time>
      </trkpt>
      <trkpt lat="44.76278" lon="4.78328">
        <ele>102.59999847412</ele>
        <time>2019-07-08T10:55:56Z</time>
      </trkpt>
      <trkpt lat="44.7625" lon="4.78294">
        <ele>102.59999847412</ele>
        <time>2019-07-08T10:56:02Z</time>
      </trkpt>
      <trkpt lat="44.76208" lon="4.78252">
        <ele>102.59999847412</ele>
        <time>2019-07-08T10:56:10Z</time>
      </trkpt>
      <trkpt lat="44.76161" lon="4.78199">
        <ele>102.59999847412</ele>
        <time>2019-07-08T10:56:19Z</time>
      </trkpt>
      <trkpt lat="44.7615" lon="4.78188">
        <ele>102.59999847412</ele>
        <time>2019-07-08T10:56:21Z</time>
      </trkpt>
      <trkpt lat="44.76138" lon="4.78185">
        <ele>102.59999847412</ele>
        <time>2019-07-08T10:56:23Z</time>
      </trkpt>
      <trkpt lat="44.76123" lon="4.782">
        <ele>102.59999847412</ele>
        <time>2019-07-08T10:56:26Z</time>
      </trkpt>
      <trkpt lat="44.76116" lon="4.78216">
        <ele>102.59999847412</ele>
        <time>2019-07-08T10:56:28Z</time>
      </trkpt>
      <trkpt lat="44.7611" lon="4.78231">
        <ele>102.59999847412</ele>
        <time>2019-07-08T10:56:30Z</time>
      </trkpt>
      <trkpt lat="44.76092" lon="4.78285">
        <ele>102.59999847412</ele>
        <time>2019-07-08T10:56:37Z</time>
      </trkpt>
      <trkpt lat="44.76076" lon="4.78329">
        <ele>102.59999847412</ele>
        <time>2019-07-08T10:56:44Z</time>
      </trkpt>
      <trkpt lat="44.76071" lon="4.78332">
        <ele>102.59999847412</ele>
        <time>2019-07-08T10:56:46Z</time>
      </trkpt>
      <trkpt lat="44.76069" lon="4.78329">
        <ele>102.59999847412</ele>
        <time>2019-07-08T10:56:47Z</time>
      </trkpt>
      <trkpt lat="44.76066" lon="4.78307">
        <ele>102.59999847412</ele>
        <time>2019-07-08T10:56:51Z</time>
      </trkpt>
      <trkpt lat="44.76064" lon="4.78295">
        <ele>102.59999847412</ele>
        <time>2019-07-08T10:56:53Z</time>
      </trkpt>
      <trkpt lat="44.76055" lon="4.78268">
        <ele>102.59999847412</ele>
        <time>2019-07-08T10:56:57Z</time>
      </trkpt>
      <trkpt lat="44.76037" lon="4.78247">
        <ele>102.59999847412</ele>
        <time>2019-07-08T10:57:01Z</time>
      </trkpt>
      <trkpt lat="44.75994" lon="4.78208">
        <ele>102.19999694824</ele>
        <time>2019-07-08T10:57:09Z</time>
      </trkpt>
      <trkpt lat="44.75988" lon="4.78203">
        <ele>101.59999847412</ele>
        <time>2019-07-08T10:57:10Z</time>
      </trkpt>
      <trkpt lat="44.75982" lon="4.78198">
        <ele>101.19999694824</ele>
        <time>2019-07-08T10:57:11Z</time>
      </trkpt>
      <trkpt lat="44.75977" lon="4.78193">
        <ele>100.80000305176</ele>
        <time>2019-07-08T10:57:12Z</time>
      </trkpt>
      <trkpt lat="44.75971" lon="4.78187">
        <ele>100.40000152588</ele>
        <time>2019-07-08T10:57:13Z</time>
      </trkpt>
      <trkpt lat="44.75956" lon="4.78168">
        <ele>100.40000152588</ele>
        <time>2019-07-08T10:57:16Z</time>
      </trkpt>
      <trkpt lat="44.75928" lon="4.78127">
        <ele>100.40000152588</ele>
        <time>2019-07-08T10:57:22Z</time>
      </trkpt>
      <trkpt lat="44.75901" lon="4.78086">
        <ele>100.40000152588</ele>
        <time>2019-07-08T10:57:28Z</time>
      </trkpt>
      <trkpt lat="44.75868" lon="4.7803">
        <ele>100.40000152588</ele>
        <time>2019-07-08T10:57:36Z</time>
      </trkpt>
      <trkpt lat="44.75833" lon="4.77963">
        <ele>100.40000152588</ele>
        <time>2019-07-08T10:57:45Z</time>
      </trkpt>
      <trkpt lat="44.75824" lon="4.77939">
        <ele>100.40000152588</ele>
        <time>2019-07-08T10:57:48Z</time>
      </trkpt>
      <trkpt lat="44.75824" lon="4.77921">
        <ele>100.40000152588</ele>
        <time>2019-07-08T10:57:50Z</time>
      </trkpt>
      <trkpt lat="44.7583" lon="4.77906">
        <ele>100.40000152588</ele>
        <time>2019-07-08T10:57:52Z</time>
      </trkpt>
      <trkpt lat="44.75835" lon="4.77889">
        <ele>100.40000152588</ele>
        <time>2019-07-08T10:57:54Z</time>
      </trkpt>
      <trkpt lat="44.75853" lon="4.7783">
        <ele>100.40000152588</ele>
        <time>2019-07-08T10:58:01Z</time>
      </trkpt>
      <trkpt lat="44.75859" lon="4.77804">
        <ele>100.40000152588</ele>
        <time>2019-07-08T10:58:04Z</time>
      </trkpt>
      <trkpt lat="44.7586" lon="4.77778">
        <ele>100.40000152588</ele>
        <time>2019-07-08T10:58:07Z</time>
      </trkpt>
      <trkpt lat="44.75856" lon="4.77751">
        <ele>100.40000152588</ele>
        <time>2019-07-08T10:58:10Z</time>
      </trkpt>
      <trkpt lat="44.75853" lon="4.77734">
        <ele>100.40000152588</ele>
        <time>2019-07-08T10:58:12Z</time>
      </trkpt>
      <trkpt lat="44.7585" lon="4.7769">
        <ele>100.40000152588</ele>
        <time>2019-07-08T10:58:17Z</time>
      </trkpt>
      <trkpt lat="44.7585" lon="4.77681">
        <ele>100.40000152588</ele>
        <time>2019-07-08T10:58:18Z</time>
      </trkpt>
      <trkpt lat="44.75858" lon="4.77619">
        <ele>100.40000152588</ele>
        <time>2019-07-08T10:58:25Z</time>
      </trkpt>
      <trkpt lat="44.75868" lon="4.77539">
        <ele>100.40000152588</ele>
        <time>2019-07-08T10:58:34Z</time>
      </trkpt>
      <trkpt lat="44.75869" lon="4.7753">
        <ele>100.40000152588</ele>
        <time>2019-07-08T10:58:35Z</time>
      </trkpt>
      <trkpt lat="44.75877" lon="4.77447">
        <ele>100.40000152588</ele>
        <time>2019-07-08T10:58:44Z</time>
      </trkpt>
      <trkpt lat="44.75884" lon="4.77364">
        <ele>100.40000152588</ele>
        <time>2019-07-08T10:58:53Z</time>
      </trkpt>
      <trkpt lat="44.75889" lon="4.7731">
        <ele>100</ele>
        <time>2019-07-08T10:58:59Z</time>
      </trkpt>
      <trkpt lat="44.7589" lon="4.77301">
        <ele>99.599998474121</ele>
        <time>2019-07-08T10:59:00Z</time>
      </trkpt>
      <trkpt lat="44.75891" lon="4.77292">
        <ele>99.199996948242</ele>
        <time>2019-07-08T10:59:01Z</time>
      </trkpt>
      <trkpt lat="44.75892" lon="4.77283">
        <ele>98.800003051758</ele>
        <time>2019-07-08T10:59:02Z</time>
      </trkpt>
      <trkpt lat="44.75893" lon="4.77274">
        <ele>98.400001525879</ele>
        <time>2019-07-08T10:59:03Z</time>
      </trkpt>
      <trkpt lat="44.75896" lon="4.77239">
        <ele>98.400001525879</ele>
        <time>2019-07-08T10:59:07Z</time>
      </trkpt>
      <trkpt lat="44.75895" lon="4.77176">
        <ele>98.400001525879</ele>
        <time>2019-07-08T10:59:14Z</time>
      </trkpt>
      <trkpt lat="44.75897" lon="4.77102">
        <ele>98.400001525879</ele>
        <time>2019-07-08T10:59:22Z</time>
      </trkpt>
      <trkpt lat="44.759" lon="4.77049">
        <ele>98.400001525879</ele>
        <time>2019-07-08T10:59:28Z</time>
      </trkpt>
      <trkpt lat="44.75902" lon="4.76997">
        <ele>98.400001525879</ele>
        <time>2019-07-08T10:59:35Z</time>
      </trkpt>
      <trkpt lat="44.75891" lon="4.76991">
        <ele>98.400001525879</ele>
        <time>2019-07-08T10:59:38Z</time>
      </trkpt>
      <trkpt lat="44.75882" lon="4.76992">
        <ele>98.400001525879</ele>
        <time>2019-07-08T10:59:40Z</time>
      </trkpt>
      <trkpt lat="44.75862" lon="4.76994">
        <ele>98.400001525879</ele>
        <time>2019-07-08T10:59:44Z</time>
      </trkpt>
      <trkpt lat="44.7583" lon="4.76995">
        <ele>98.400001525879</ele>
        <time>2019-07-08T10:59:50Z</time>
      </trkpt>
      <trkpt lat="44.75791" lon="4.7699">
        <ele>98.400001525879</ele>
        <time>2019-07-08T10:59:57Z</time>
      </trkpt>
      <trkpt lat="44.75753" lon="4.76978">
        <ele>98.400001525879</ele>
        <time>2019-07-08T11:00:03Z</time>
      </trkpt>
      <trkpt lat="44.75716" lon="4.76956">
        <ele>98.400001525879</ele>
        <time>2019-07-08T11:00:09Z</time>
      </trkpt>
      <trkpt lat="44.75682" lon="4.76932">
        <ele>98.400001525879</ele>
        <time>2019-07-08T11:00:15Z</time>
      </trkpt>
      <trkpt lat="44.75638" lon="4.76898">
        <ele>98.400001525879</ele>
        <time>2019-07-08T11:00:23Z</time>
      </trkpt>
      <trkpt lat="44.75607" lon="4.76877">
        <ele>98.400001525879</ele>
        <time>2019-07-08T11:00:29Z</time>
      </trkpt>
      <trkpt lat="44.75601" lon="4.76869">
        <ele>98.400001525879</ele>
        <time>2019-07-08T11:00:32Z</time>
      </trkpt>
      <trkpt lat="44.75601" lon="4.76851">
        <ele>98.400001525879</ele>
        <time>2019-07-08T11:00:36Z</time>
      </trkpt>
      <trkpt lat="44.75601" lon="4.76813">
        <ele>98.400001525879</ele>
        <time>2019-07-08T11:00:41Z</time>
      </trkpt>
      <trkpt lat="44.75603" lon="4.76736">
        <ele>98.400001525879</ele>
        <time>2019-07-08T11:00:50Z</time>
      </trkpt>
      <trkpt lat="44.75604" lon="4.76727">
        <ele>98.400001525879</ele>
        <time>2019-07-08T11:00:51Z</time>
      </trkpt>
      <trkpt lat="44.75604" lon="4.76653">
        <ele>98.400001525879</ele>
        <time>2019-07-08T11:00:59Z</time>
      </trkpt>
      <trkpt lat="44.75606" lon="4.76575">
        <ele>98.400001525879</ele>
        <time>2019-07-08T11:01:07Z</time>
      </trkpt>
      <trkpt lat="44.75609" lon="4.76495">
        <ele>98.400001525879</ele>
        <time>2019-07-08T11:01:15Z</time>
      </trkpt>
      <trkpt lat="44.75609" lon="4.76486">
        <ele>98.400001525879</ele>
        <time>2019-07-08T11:01:16Z</time>
      </trkpt>
      <trkpt lat="44.75611" lon="4.76405">
        <ele>98.400001525879</ele>
        <time>2019-07-08T11:01:24Z</time>
      </trkpt>
      <trkpt lat="44.75613" lon="4.76325">
        <ele>98.400001525879</ele>
        <time>2019-07-08T11:01:32Z</time>
      </trkpt>
      <trkpt lat="44.75614" lon="4.76305">
        <ele>98.400001525879</ele>
        <time>2019-07-08T11:01:34Z</time>
      </trkpt>
      <trkpt lat="44.75617" lon="4.76227">
        <ele>98.400001525879</ele>
        <time>2019-07-08T11:01:42Z</time>
      </trkpt>
      <trkpt lat="44.75617" lon="4.76208">
        <ele>98.400001525879</ele>
        <time>2019-07-08T11:01:44Z</time>
      </trkpt>
      <trkpt lat="44.7562" lon="4.76143">
        <ele>98.400001525879</ele>
        <time>2019-07-08T11:01:51Z</time>
      </trkpt>
      <trkpt lat="44.75626" lon="4.76098">
        <ele>98.400001525879</ele>
        <time>2019-07-08T11:01:56Z</time>
      </trkpt>
      <trkpt lat="44.75631" lon="4.76082">
        <ele>98.400001525879</ele>
        <time>2019-07-08T11:01:58Z</time>
      </trkpt>
      <trkpt lat="44.75633" lon="4.76055">
        <ele>98.400001525879</ele>
        <time>2019-07-08T11:02:01Z</time>
      </trkpt>
      <trkpt lat="44.75624" lon="4.76031">
        <ele>98.400001525879</ele>
        <time>2019-07-08T11:02:04Z</time>
      </trkpt>
      <trkpt lat="44.75622" lon="4.76003">
        <ele>98.400001525879</ele>
        <time>2019-07-08T11:02:07Z</time>
      </trkpt>
      <trkpt lat="44.75622" lon="4.75994">
        <ele>98.400001525879</ele>
        <time>2019-07-08T11:02:08Z</time>
      </trkpt>
      <trkpt lat="44.75623" lon="4.75925">
        <ele>98.400001525879</ele>
        <time>2019-07-08T11:02:15Z</time>
      </trkpt>
      <trkpt lat="44.75624" lon="4.75844">
        <ele>98.400001525879</ele>
        <time>2019-07-08T11:02:23Z</time>
      </trkpt>
      <trkpt lat="44.75625" lon="4.75834">
        <ele>98.400001525879</ele>
        <time>2019-07-08T11:02:24Z</time>
      </trkpt>
      <trkpt lat="44.75627" lon="4.75773">
        <ele>98.400001525879</ele>
        <time>2019-07-08T11:02:30Z</time>
      </trkpt>
      <trkpt lat="44.75631" lon="4.75706">
        <ele>98.400001525879</ele>
        <time>2019-07-08T11:02:37Z</time>
      </trkpt>
      <trkpt lat="44.75633" lon="4.75643">
        <ele>98.400001525879</ele>
        <time>2019-07-08T11:02:44Z</time>
      </trkpt>
      <trkpt lat="44.75633" lon="4.7563">
        <ele>98.400001525879</ele>
        <time>2019-07-08T11:02:46Z</time>
      </trkpt>
      <trkpt lat="44.75632" lon="4.75625">
        <ele>98.400001525879</ele>
        <time>2019-07-08T11:02:47Z</time>
      </trkpt>
      <trkpt lat="44.75627" lon="4.75615">
        <ele>98.400001525879</ele>
        <time>2019-07-08T11:02:50Z</time>
      </trkpt>
      <trkpt lat="44.75629" lon="4.75591">
        <ele>98.400001525879</ele>
        <time>2019-07-08T11:02:54Z</time>
      </trkpt>
      <trkpt lat="44.75628" lon="4.75543">
        <ele>98.400001525879</ele>
        <time>2019-07-08T11:03:01Z</time>
      </trkpt>
      <trkpt lat="44.75627" lon="4.75536">
        <ele>98.400001525879</ele>
        <time>2019-07-08T11:03:02Z</time>
      </trkpt>
      <trkpt lat="44.7562" lon="4.75523">
        <ele>98.400001525879</ele>
        <time>2019-07-08T11:03:04Z</time>
      </trkpt>
      <trkpt lat="44.75615" lon="4.75513">
        <ele>98.400001525879</ele>
        <time>2019-07-08T11:03:07Z</time>
      </trkpt>
      <trkpt lat="44.75614" lon="4.7551">
        <ele>98.800003051758</ele>
        <time>2019-07-08T11:03:08Z</time>
      </trkpt>
      <trkpt lat="44.75613" lon="4.75506">
        <ele>99.400001525879</ele>
        <time>2019-07-08T11:03:09Z</time>
      </trkpt>
      <trkpt lat="44.75611" lon="4.75503">
        <ele>99.800003051758</ele>
        <time>2019-07-08T11:03:10Z</time>
      </trkpt>
      <trkpt lat="44.75611" lon="4.75499">
        <ele>100.40000152588</ele>
        <time>2019-07-08T11:03:11Z</time>
      </trkpt>
      <trkpt lat="44.75612" lon="4.75495">
        <ele>100.80000305176</ele>
        <time>2019-07-08T11:03:12Z</time>
      </trkpt>
      <trkpt lat="44.75616" lon="4.75489">
        <ele>100.80000305176</ele>
        <time>2019-07-08T11:03:14Z</time>
      </trkpt>
      <trkpt lat="44.75618" lon="4.75485">
        <ele>100.80000305176</ele>
        <time>2019-07-08T11:03:15Z</time>
      </trkpt>
      <trkpt lat="44.75628" lon="4.75468">
        <ele>100.80000305176</ele>
        <time>2019-07-08T11:03:20Z</time>
      </trkpt>
      <trkpt lat="44.75629" lon="4.75464">
        <ele>100.80000305176</ele>
        <time>2019-07-08T11:03:21Z</time>
      </trkpt>
      <trkpt lat="44.75628" lon="4.75455">
        <ele>100.80000305176</ele>
        <time>2019-07-08T11:03:23Z</time>
      </trkpt>
      <trkpt lat="44.75627" lon="4.75444">
        <ele>100.80000305176</ele>
        <time>2019-07-08T11:03:25Z</time>
      </trkpt>
      <trkpt lat="44.75624" lon="4.75429">
        <ele>100.80000305176</ele>
        <time>2019-07-08T11:03:28Z</time>
      </trkpt>
      <trkpt lat="44.75621" lon="4.75407">
        <ele>100.80000305176</ele>
        <time>2019-07-08T11:03:32Z</time>
      </trkpt>
      <trkpt lat="44.7562" lon="4.75396">
        <ele>101.19999694824</ele>
        <time>2019-07-08T11:03:34Z</time>
      </trkpt>
      <trkpt lat="44.7562" lon="4.7539">
        <ele>101.59999847412</ele>
        <time>2019-07-08T11:03:35Z</time>
      </trkpt>
      <trkpt lat="44.75619" lon="4.75385">
        <ele>102.19999694824</ele>
        <time>2019-07-08T11:03:36Z</time>
      </trkpt>
      <trkpt lat="44.75619" lon="4.75379">
        <ele>102.59999847412</ele>
        <time>2019-07-08T11:03:37Z</time>
      </trkpt>
      <trkpt lat="44.75618" lon="4.75374">
        <ele>103</ele>
        <time>2019-07-08T11:03:38Z</time>
      </trkpt>
      <trkpt lat="44.75615" lon="4.75347">
        <ele>103</ele>
        <time>2019-07-08T11:03:43Z</time>
      </trkpt>
      <trkpt lat="44.75614" lon="4.75336">
        <ele>103.40000152588</ele>
        <time>2019-07-08T11:03:45Z</time>
      </trkpt>
      <trkpt lat="44.75613" lon="4.7533">
        <ele>103.80000305176</ele>
        <time>2019-07-08T11:03:46Z</time>
      </trkpt>
      <trkpt lat="44.75613" lon="4.75325">
        <ele>104.40000152588</ele>
        <time>2019-07-08T11:03:47Z</time>
      </trkpt>
      <trkpt lat="44.75613" lon="4.7532">
        <ele>104.80000305176</ele>
        <time>2019-07-08T11:03:48Z</time>
      </trkpt>
      <trkpt lat="44.75612" lon="4.75314">
        <ele>105.19999694824</ele>
        <time>2019-07-08T11:03:49Z</time>
      </trkpt>
      <trkpt lat="44.75608" lon="4.7528">
        <ele>105.19999694824</ele>
        <time>2019-07-08T11:03:55Z</time>
      </trkpt>
      <trkpt lat="44.75602" lon="4.75235">
        <ele>105.19999694824</ele>
        <time>2019-07-08T11:04:02Z</time>
      </trkpt>
      <trkpt lat="44.75601" lon="4.75229">
        <ele>105.19999694824</ele>
        <time>2019-07-08T11:04:03Z</time>
      </trkpt>
      <trkpt lat="44.75599" lon="4.75203">
        <ele>105.19999694824</ele>
        <time>2019-07-08T11:04:07Z</time>
      </trkpt>
      <trkpt lat="44.75593" lon="4.7516">
        <ele>105.19999694824</ele>
        <time>2019-07-08T11:04:12Z</time>
      </trkpt>
      <trkpt lat="44.75586" lon="4.75099">
        <ele>104.80000305176</ele>
        <time>2019-07-08T11:04:18Z</time>
      </trkpt>
      <trkpt lat="44.75585" lon="4.75091">
        <ele>104.19999694824</ele>
        <time>2019-07-08T11:04:19Z</time>
      </trkpt>
      <trkpt lat="44.75585" lon="4.75084">
        <ele>103.80000305176</ele>
        <time>2019-07-08T11:04:20Z</time>
      </trkpt>
      <trkpt lat="44.75583" lon="4.75079">
        <ele>103.19999694824</ele>
        <time>2019-07-08T11:04:21Z</time>
      </trkpt>
      <trkpt lat="44.75582" lon="4.75075">
        <ele>102.80000305176</ele>
        <time>2019-07-08T11:04:22Z</time>
      </trkpt>
      <trkpt lat="44.75582" lon="4.75051">
        <ele>102.40000152588</ele>
        <time>2019-07-08T11:04:26Z</time>
      </trkpt>
      <trkpt lat="44.75584" lon="4.75045">
        <ele>102</ele>
        <time>2019-07-08T11:04:27Z</time>
      </trkpt>
      <trkpt lat="44.75586" lon="4.75039">
        <ele>101.59999847412</ele>
        <time>2019-07-08T11:04:28Z</time>
      </trkpt>
      <trkpt lat="44.75586" lon="4.75033">
        <ele>101.19999694824</ele>
        <time>2019-07-08T11:04:29Z</time>
      </trkpt>
      <trkpt lat="44.75586" lon="4.75028">
        <ele>100.80000305176</ele>
        <time>2019-07-08T11:04:30Z</time>
      </trkpt>
      <trkpt lat="44.75586" lon="4.75025">
        <ele>100.80000305176</ele>
        <time>2019-07-08T11:04:31Z</time>
      </trkpt>
      <trkpt lat="44.75585" lon="4.75011">
        <ele>100.80000305176</ele>
        <time>2019-07-08T11:04:34Z</time>
      </trkpt>
      <trkpt lat="44.75581" lon="4.74979">
        <ele>100.80000305176</ele>
        <time>2019-07-08T11:04:41Z</time>
      </trkpt>
      <trkpt lat="44.75572" lon="4.74978">
        <ele>100.80000305176</ele>
        <time>2019-07-08T11:04:45Z</time>
      </trkpt>
      <trkpt lat="44.75568" lon="4.74977">
        <ele>100.80000305176</ele>
        <time>2019-07-08T11:04:47Z</time>
      </trkpt>
      <trkpt lat="44.75559" lon="4.74974">
        <ele>100.80000305176</ele>
        <time>2019-07-08T11:04:50Z</time>
      </trkpt>
      <trkpt lat="44.75536" lon="4.74966">
        <ele>100.80000305176</ele>
        <time>2019-07-08T11:04:57Z</time>
      </trkpt>
      <trkpt lat="44.75528" lon="4.74959">
        <ele>100.80000305176</ele>
        <time>2019-07-08T11:05:00Z</time>
      </trkpt>
      <trkpt lat="44.75528" lon="4.74957">
        <ele>100.80000305176</ele>
        <time>2019-07-08T11:05:01Z</time>
      </trkpt>
      <trkpt lat="44.75528" lon="4.74939">
        <ele>100.80000305176</ele>
        <time>2019-07-08T11:05:05Z</time>
      </trkpt>
      <trkpt lat="44.75526" lon="4.74913">
        <ele>100.80000305176</ele>
        <time>2019-07-08T11:05:09Z</time>
      </trkpt>
      <trkpt lat="44.75526" lon="4.74906">
        <ele>100.40000152588</ele>
        <time>2019-07-08T11:05:10Z</time>
      </trkpt>
      <trkpt lat="44.75526" lon="4.74898">
        <ele>100</ele>
        <time>2019-07-08T11:05:11Z</time>
      </trkpt>
      <trkpt lat="44.75525" lon="4.74891">
        <ele>99.599998474121</ele>
        <time>2019-07-08T11:05:12Z</time>
      </trkpt>
      <trkpt lat="44.75523" lon="4.74886">
        <ele>99.199996948242</ele>
        <time>2019-07-08T11:05:13Z</time>
      </trkpt>
      <trkpt lat="44.7552" lon="4.7488">
        <ele>98.800003051758</ele>
        <time>2019-07-08T11:05:14Z</time>
      </trkpt>
      <trkpt lat="44.75522" lon="4.7486">
        <ele>98.800003051758</ele>
        <time>2019-07-08T11:05:18Z</time>
      </trkpt>
      <trkpt lat="44.75514" lon="4.74849">
        <ele>98.800003051758</ele>
        <time>2019-07-08T11:05:21Z</time>
      </trkpt>
      <trkpt lat="44.75498" lon="4.74843">
        <ele>98.800003051758</ele>
        <time>2019-07-08T11:05:25Z</time>
      </trkpt>
      <trkpt lat="44.7549" lon="4.74853">
        <ele>98.800003051758</ele>
        <time>2019-07-08T11:05:28Z</time>
      </trkpt>
      <trkpt lat="44.75487" lon="4.74856">
        <ele>98.800003051758</ele>
        <time>2019-07-08T11:05:29Z</time>
      </trkpt>
      <trkpt lat="44.75482" lon="4.74859">
        <ele>98.800003051758</ele>
        <time>2019-07-08T11:05:31Z</time>
      </trkpt>
      <trkpt lat="44.75481" lon="4.74857">
        <ele>98.800003051758</ele>
        <time>2019-07-08T11:05:32Z</time>
      </trkpt>
      <trkpt lat="44.75488" lon="4.74849">
        <ele>98.800003051758</ele>
        <time>2019-07-08T11:05:35Z</time>
      </trkpt>
      <trkpt lat="44.75491" lon="4.74847">
        <ele>98.800003051758</ele>
        <time>2019-07-08T11:05:36Z</time>
      </trkpt>
      <trkpt lat="44.75496" lon="4.74839">
        <ele>98.800003051758</ele>
        <time>2019-07-08T11:05:39Z</time>
      </trkpt>
      <trkpt lat="44.75494" lon="4.74838">
        <ele>98.800003051758</ele>
        <time>2019-07-08T11:05:40Z</time>
      </trkpt>
      <trkpt lat="44.75487" lon="4.74845">
        <ele>98.800003051758</ele>
        <time>2019-07-08T11:05:43Z</time>
      </trkpt>
      <trkpt lat="44.7547" lon="4.74859">
        <ele>98.800003051758</ele>
        <time>2019-07-08T11:05:50Z</time>
      </trkpt>
      <trkpt lat="44.75464" lon="4.74849">
        <ele>99.199996948242</ele>
        <time>2019-07-08T11:05:53Z</time>
      </trkpt>
      <trkpt lat="44.75461" lon="4.74846">
        <ele>99.599998474121</ele>
        <time>2019-07-08T11:05:54Z</time>
      </trkpt>
      <trkpt lat="44.75459" lon="4.74842">
        <ele>100.40000152588</ele>
        <time>2019-07-08T11:05:55Z</time>
      </trkpt>
      <trkpt lat="44.75456" lon="4.74839">
        <ele>100.80000305176</ele>
        <time>2019-07-08T11:05:56Z</time>
      </trkpt>
      <trkpt lat="44.75448" lon="4.74828">
        <ele>100.80000305176</ele>
        <time>2019-07-08T11:06:00Z</time>
      </trkpt>
      <trkpt lat="44.7544" lon="4.74814">
        <ele>100.80000305176</ele>
        <time>2019-07-08T11:06:05Z</time>
      </trkpt>
      <trkpt lat="44.75448" lon="4.74804">
        <ele>100.80000305176</ele>
        <time>2019-07-08T11:06:10Z</time>
      </trkpt>
      <trkpt lat="44.75448" lon="4.74798">
        <ele>100.80000305176</ele>
        <time>2019-07-08T11:06:11Z</time>
      </trkpt>
      <trkpt lat="44.75449" lon="4.74798">
        <ele>100.80000305176</ele>
        <time>2019-07-08T11:06:12Z</time>
      </trkpt>
      <trkpt lat="44.75449" lon="4.74799">
        <ele>100.40000152588</ele>
        <time>2019-07-08T11:06:13Z</time>
      </trkpt>
      <trkpt lat="44.75448" lon="4.74801">
        <ele>99.800003051758</ele>
        <time>2019-07-08T11:06:14Z</time>
      </trkpt>
      <trkpt lat="44.75446" lon="4.74803">
        <ele>99.400001525879</ele>
        <time>2019-07-08T11:06:15Z</time>
      </trkpt>
      <trkpt lat="44.75444" lon="4.74805">
        <ele>99</ele>
        <time>2019-07-08T11:06:16Z</time>
      </trkpt>
      <trkpt lat="44.75442" lon="4.74805">
        <ele>98.599998474121</ele>
        <time>2019-07-08T11:06:17Z</time>
      </trkpt>
      <trkpt lat="44.75435" lon="4.74802">
        <ele>98.599998474121</ele>
        <time>2019-07-08T11:06:20Z</time>
      </trkpt>
      <trkpt lat="44.75424" lon="4.748">
        <ele>98.599998474121</ele>
        <time>2019-07-08T11:06:26Z</time>
      </trkpt>
      <trkpt lat="44.7542" lon="4.74799">
        <ele>98.599998474121</ele>
        <time>2019-07-08T11:06:35Z</time>
      </trkpt>
      <trkpt lat="44.75406" lon="4.74798">
        <ele>98.599998474121</ele>
        <time>2019-07-08T11:06:40Z</time>
      </trkpt>
      <trkpt lat="44.75392" lon="4.74795">
        <ele>98.599998474121</ele>
        <time>2019-07-08T11:06:46Z</time>
      </trkpt>
      <trkpt lat="44.75373" lon="4.74792">
        <ele>98.599998474121</ele>
        <time>2019-07-08T11:06:51Z</time>
      </trkpt>
      <trkpt lat="44.75348" lon="4.74789">
        <ele>98.599998474121</ele>
        <time>2019-07-08T11:06:56Z</time>
      </trkpt>
      <trkpt lat="44.75324" lon="4.74781">
        <ele>98.599998474121</ele>
        <time>2019-07-08T11:07:01Z</time>
      </trkpt>
      <trkpt lat="44.753" lon="4.74774">
        <ele>98.599998474121</ele>
        <time>2019-07-08T11:07:06Z</time>
      </trkpt>
      <trkpt lat="44.75289" lon="4.74768">
        <ele>98.599998474121</ele>
        <time>2019-07-08T11:07:09Z</time>
      </trkpt>
      <trkpt lat="44.75277" lon="4.74766">
        <ele>98.599998474121</ele>
        <time>2019-07-08T11:07:12Z</time>
      </trkpt>
      <trkpt lat="44.75264" lon="4.74764">
        <ele>98.599998474121</ele>
        <time>2019-07-08T11:07:15Z</time>
      </trkpt>
      <trkpt lat="44.75251" lon="4.74758">
        <ele>98.599998474121</ele>
        <time>2019-07-08T11:07:18Z</time>
      </trkpt>
      <trkpt lat="44.75231" lon="4.74753">
        <ele>98.599998474121</ele>
        <time>2019-07-08T11:07:22Z</time>
      </trkpt>
      <trkpt lat="44.75212" lon="4.74745">
        <ele>98.599998474121</ele>
        <time>2019-07-08T11:07:27Z</time>
      </trkpt>
      <trkpt lat="44.75208" lon="4.74744">
        <ele>98.599998474121</ele>
        <time>2019-07-08T11:07:28Z</time>
      </trkpt>
      <trkpt lat="44.75195" lon="4.7474">
        <ele>98.599998474121</ele>
        <time>2019-07-08T11:07:31Z</time>
      </trkpt>
      <trkpt lat="44.75176" lon="4.74738">
        <ele>98.599998474121</ele>
        <time>2019-07-08T11:07:36Z</time>
      </trkpt>
      <trkpt lat="44.75151" lon="4.74733">
        <ele>98.599998474121</ele>
        <time>2019-07-08T11:07:42Z</time>
      </trkpt>
      <trkpt lat="44.75135" lon="4.74729">
        <ele>98.599998474121</ele>
        <time>2019-07-08T11:07:46Z</time>
      </trkpt>
      <trkpt lat="44.75131" lon="4.74729">
        <ele>98.599998474121</ele>
        <time>2019-07-08T11:07:47Z</time>
      </trkpt>
      <trkpt lat="44.75115" lon="4.74724">
        <ele>98.599998474121</ele>
        <time>2019-07-08T11:07:52Z</time>
      </trkpt>
      <trkpt lat="44.75095" lon="4.74723">
        <ele>98.599998474121</ele>
        <time>2019-07-08T11:07:57Z</time>
      </trkpt>
      <trkpt lat="44.75076" lon="4.74724">
        <ele>98.599998474121</ele>
        <time>2019-07-08T11:08:01Z</time>
      </trkpt>
      <trkpt lat="44.75062" lon="4.74718">
        <ele>98.599998474121</ele>
        <time>2019-07-08T11:08:04Z</time>
      </trkpt>
      <trkpt lat="44.75057" lon="4.74716">
        <ele>98.599998474121</ele>
        <time>2019-07-08T11:08:05Z</time>
      </trkpt>
      <trkpt lat="44.75035" lon="4.7471">
        <ele>98.599998474121</ele>
        <time>2019-07-08T11:08:09Z</time>
      </trkpt>
      <trkpt lat="44.74996" lon="4.7469">
        <ele>98.599998474121</ele>
        <time>2019-07-08T11:08:16Z</time>
      </trkpt>
      <trkpt lat="44.74961" lon="4.74674">
        <ele>98.599998474121</ele>
        <time>2019-07-08T11:08:22Z</time>
      </trkpt>
      <trkpt lat="44.74921" lon="4.74655">
        <ele>98.599998474121</ele>
        <time>2019-07-08T11:08:29Z</time>
      </trkpt>
      <trkpt lat="44.74874" lon="4.7463">
        <ele>98.599998474121</ele>
        <time>2019-07-08T11:08:37Z</time>
      </trkpt>
      <trkpt lat="44.7484" lon="4.74612">
        <ele>98.599998474121</ele>
        <time>2019-07-08T11:08:43Z</time>
      </trkpt>
      <trkpt lat="44.74816" lon="4.74598">
        <ele>98.599998474121</ele>
        <time>2019-07-08T11:08:48Z</time>
      </trkpt>
      <trkpt lat="44.74812" lon="4.74595">
        <ele>98.599998474121</ele>
        <time>2019-07-08T11:08:49Z</time>
      </trkpt>
      <trkpt lat="44.74787" lon="4.74578">
        <ele>98.599998474121</ele>
        <time>2019-07-08T11:08:55Z</time>
      </trkpt>
      <trkpt lat="44.7478" lon="4.74571">
        <ele>98.599998474121</ele>
        <time>2019-07-08T11:08:57Z</time>
      </trkpt>
      <trkpt lat="44.74767" lon="4.74548">
        <ele>98.599998474121</ele>
        <time>2019-07-08T11:09:02Z</time>
      </trkpt>
      <trkpt lat="44.74756" lon="4.74537">
        <ele>98.599998474121</ele>
        <time>2019-07-08T11:09:06Z</time>
      </trkpt>
      <trkpt lat="44.74749" lon="4.74534">
        <ele>98.599998474121</ele>
        <time>2019-07-08T11:09:08Z</time>
      </trkpt>
      <trkpt lat="44.74738" lon="4.74531">
        <ele>98.599998474121</ele>
        <time>2019-07-08T11:09:11Z</time>
      </trkpt>
      <trkpt lat="44.74731" lon="4.7452">
        <ele>98.599998474121</ele>
        <time>2019-07-08T11:09:14Z</time>
      </trkpt>
      <trkpt lat="44.74722" lon="4.74508">
        <ele>98.599998474121</ele>
        <time>2019-07-08T11:09:17Z</time>
      </trkpt>
      <trkpt lat="44.7471" lon="4.74493">
        <ele>98.599998474121</ele>
        <time>2019-07-08T11:09:21Z</time>
      </trkpt>
      <trkpt lat="44.74693" lon="4.74475">
        <ele>98.599998474121</ele>
        <time>2019-07-08T11:09:26Z</time>
      </trkpt>
      <trkpt lat="44.74673" lon="4.74458">
        <ele>98.599998474121</ele>
        <time>2019-07-08T11:09:31Z</time>
      </trkpt>
      <trkpt lat="44.74669" lon="4.74455">
        <ele>98.599998474121</ele>
        <time>2019-07-08T11:09:32Z</time>
      </trkpt>
      <trkpt lat="44.74665" lon="4.74452">
        <ele>98.599998474121</ele>
        <time>2019-07-08T11:09:33Z</time>
      </trkpt>
      <trkpt lat="44.74648" lon="4.74439">
        <ele>98.599998474121</ele>
        <time>2019-07-08T11:09:37Z</time>
      </trkpt>
      <trkpt lat="44.74627" lon="4.74427">
        <ele>98.599998474121</ele>
        <time>2019-07-08T11:09:42Z</time>
      </trkpt>
      <trkpt lat="44.74623" lon="4.74425">
        <ele>98.599998474121</ele>
        <time>2019-07-08T11:09:43Z</time>
      </trkpt>
      <trkpt lat="44.74597" lon="4.74413">
        <ele>98.599998474121</ele>
        <time>2019-07-08T11:09:49Z</time>
      </trkpt>
      <trkpt lat="44.74578" lon="4.74405">
        <ele>98.599998474121</ele>
        <time>2019-07-08T11:09:53Z</time>
      </trkpt>
      <trkpt lat="44.74546" lon="4.74397">
        <ele>98.599998474121</ele>
        <time>2019-07-08T11:09:59Z</time>
      </trkpt>
      <trkpt lat="44.74519" lon="4.74394">
        <ele>98.599998474121</ele>
        <time>2019-07-08T11:10:04Z</time>
      </trkpt>
      <trkpt lat="44.74482" lon="4.74392">
        <ele>98.599998474121</ele>
        <time>2019-07-08T11:10:11Z</time>
      </trkpt>
      <trkpt lat="44.74457" lon="4.74389">
        <ele>98.599998474121</ele>
        <time>2019-07-08T11:10:17Z</time>
      </trkpt>
      <trkpt lat="44.74436" lon="4.74388">
        <ele>98.599998474121</ele>
        <time>2019-07-08T11:10:21Z</time>
      </trkpt>
      <trkpt lat="44.74431" lon="4.74388">
        <ele>98.599998474121</ele>
        <time>2019-07-08T11:10:22Z</time>
      </trkpt>
      <trkpt lat="44.74401" lon="4.74388">
        <ele>98.599998474121</ele>
        <time>2019-07-08T11:10:28Z</time>
      </trkpt>
      <trkpt lat="44.74386" lon="4.74386">
        <ele>98.599998474121</ele>
        <time>2019-07-08T11:10:31Z</time>
      </trkpt>
      <trkpt lat="44.74375" lon="4.74382">
        <ele>98.599998474121</ele>
        <time>2019-07-08T11:10:33Z</time>
      </trkpt>
      <trkpt lat="44.7436" lon="4.74382">
        <ele>98.599998474121</ele>
        <time>2019-07-08T11:10:36Z</time>
      </trkpt>
      <trkpt lat="44.7435" lon="4.74379">
        <ele>98.599998474121</ele>
        <time>2019-07-08T11:10:38Z</time>
      </trkpt>
      <trkpt lat="44.74317" lon="4.7437">
        <ele>98.599998474121</ele>
        <time>2019-07-08T11:10:45Z</time>
      </trkpt>
      <trkpt lat="44.74279" lon="4.74357">
        <ele>98.599998474121</ele>
        <time>2019-07-08T11:10:53Z</time>
      </trkpt>
      <trkpt lat="44.74247" lon="4.74339">
        <ele>98.599998474121</ele>
        <time>2019-07-08T11:11:00Z</time>
      </trkpt>
      <trkpt lat="44.74244" lon="4.74333">
        <ele>98.599998474121</ele>
        <time>2019-07-08T11:11:01Z</time>
      </trkpt>
      <trkpt lat="44.74236" lon="4.74323">
        <ele>98.599998474121</ele>
        <time>2019-07-08T11:11:03Z</time>
      </trkpt>
      <trkpt lat="44.74212" lon="4.74302">
        <ele>98.599998474121</ele>
        <time>2019-07-08T11:11:08Z</time>
      </trkpt>
      <trkpt lat="44.74191" lon="4.74284">
        <ele>98.599998474121</ele>
        <time>2019-07-08T11:11:13Z</time>
      </trkpt>
      <trkpt lat="44.74183" lon="4.74276">
        <ele>98.599998474121</ele>
        <time>2019-07-08T11:11:15Z</time>
      </trkpt>
      <trkpt lat="44.74174" lon="4.74266">
        <ele>99</ele>
        <time>2019-07-08T11:11:18Z</time>
      </trkpt>
      <trkpt lat="44.74171" lon="4.74262">
        <ele>99.400001525879</ele>
        <time>2019-07-08T11:11:19Z</time>
      </trkpt>
      <trkpt lat="44.74168" lon="4.74258">
        <ele>99.800003051758</ele>
        <time>2019-07-08T11:11:20Z</time>
      </trkpt>
      <trkpt lat="44.74165" lon="4.74254">
        <ele>100.19999694824</ele>
        <time>2019-07-08T11:11:21Z</time>
      </trkpt>
      <trkpt lat="44.74162" lon="4.74251">
        <ele>100.59999847412</ele>
        <time>2019-07-08T11:11:22Z</time>
      </trkpt>
      <trkpt lat="44.74152" lon="4.74239">
        <ele>100.59999847412</ele>
        <time>2019-07-08T11:11:25Z</time>
      </trkpt>
      <trkpt lat="44.74127" lon="4.74214">
        <ele>100.59999847412</ele>
        <time>2019-07-08T11:11:32Z</time>
      </trkpt>
      <trkpt lat="44.74096" lon="4.74187">
        <ele>100.59999847412</ele>
        <time>2019-07-08T11:11:40Z</time>
      </trkpt>
      <trkpt lat="44.74079" lon="4.74175">
        <ele>101</ele>
        <time>2019-07-08T11:11:44Z</time>
      </trkpt>
      <trkpt lat="44.74075" lon="4.74172">
        <ele>101.40000152588</ele>
        <time>2019-07-08T11:11:45Z</time>
      </trkpt>
      <trkpt lat="44.7407" lon="4.74169">
        <ele>101.80000305176</ele>
        <time>2019-07-08T11:11:46Z</time>
      </trkpt>
      <trkpt lat="44.74066" lon="4.74166">
        <ele>102.19999694824</ele>
        <time>2019-07-08T11:11:47Z</time>
      </trkpt>
      <trkpt lat="44.74062" lon="4.74163">
        <ele>102.59999847412</ele>
        <time>2019-07-08T11:11:48Z</time>
      </trkpt>
      <trkpt lat="44.74027" lon="4.74145">
        <ele>102.59999847412</ele>
        <time>2019-07-08T11:11:56Z</time>
      </trkpt>
      <trkpt lat="44.73996" lon="4.74132">
        <ele>102.59999847412</ele>
        <time>2019-07-08T11:12:03Z</time>
      </trkpt>
      <trkpt lat="44.73975" lon="4.74125">
        <ele>102.59999847412</ele>
        <time>2019-07-08T11:12:08Z</time>
      </trkpt>
      <trkpt lat="44.73971" lon="4.74123">
        <ele>102.59999847412</ele>
        <time>2019-07-08T11:12:09Z</time>
      </trkpt>
      <trkpt lat="44.73953" lon="4.74119">
        <ele>103</ele>
        <time>2019-07-08T11:12:13Z</time>
      </trkpt>
      <trkpt lat="44.73948" lon="4.7412">
        <ele>103.40000152588</ele>
        <time>2019-07-08T11:12:14Z</time>
      </trkpt>
      <trkpt lat="44.73943" lon="4.7412">
        <ele>103.80000305176</ele>
        <time>2019-07-08T11:12:15Z</time>
      </trkpt>
      <trkpt lat="44.73938" lon="4.74119">
        <ele>104.19999694824</ele>
        <time>2019-07-08T11:12:16Z</time>
      </trkpt>
      <trkpt lat="44.73933" lon="4.74119">
        <ele>104.59999847412</ele>
        <time>2019-07-08T11:12:17Z</time>
      </trkpt>
      <trkpt lat="44.73923" lon="4.74117">
        <ele>104.59999847412</ele>
        <time>2019-07-08T11:12:19Z</time>
      </trkpt>
      <trkpt lat="44.7391" lon="4.74114">
        <ele>104.59999847412</ele>
        <time>2019-07-08T11:12:22Z</time>
      </trkpt>
      <trkpt lat="44.73906" lon="4.74115">
        <ele>104.59999847412</ele>
        <time>2019-07-08T11:12:23Z</time>
      </trkpt>
      <trkpt lat="44.73872" lon="4.74113">
        <ele>104.59999847412</ele>
        <time>2019-07-08T11:12:30Z</time>
      </trkpt>
      <trkpt lat="44.73842" lon="4.74114">
        <ele>104.59999847412</ele>
        <time>2019-07-08T11:12:36Z</time>
      </trkpt>
      <trkpt lat="44.73806" lon="4.74115">
        <ele>104.59999847412</ele>
        <time>2019-07-08T11:12:42Z</time>
      </trkpt>
      <trkpt lat="44.73783" lon="4.74114">
        <ele>105.19999694824</ele>
        <time>2019-07-08T11:12:46Z</time>
      </trkpt>
      <trkpt lat="44.73777" lon="4.74114">
        <ele>105.59999847412</ele>
        <time>2019-07-08T11:12:47Z</time>
      </trkpt>
      <trkpt lat="44.73771" lon="4.74113">
        <ele>106</ele>
        <time>2019-07-08T11:12:48Z</time>
      </trkpt>
      <trkpt lat="44.73764" lon="4.74112">
        <ele>106.40000152588</ele>
        <time>2019-07-08T11:12:49Z</time>
      </trkpt>
      <trkpt lat="44.73758" lon="4.74112">
        <ele>106.80000305176</ele>
        <time>2019-07-08T11:12:50Z</time>
      </trkpt>
      <trkpt lat="44.73732" lon="4.7411">
        <ele>106.80000305176</ele>
        <time>2019-07-08T11:12:54Z</time>
      </trkpt>
      <trkpt lat="44.73691" lon="4.74104">
        <ele>106.80000305176</ele>
        <time>2019-07-08T11:13:00Z</time>
      </trkpt>
      <trkpt lat="44.73637" lon="4.7409">
        <ele>106.80000305176</ele>
        <time>2019-07-08T11:13:08Z</time>
      </trkpt>
      <trkpt lat="44.73625" lon="4.74086">
        <ele>107.19999694824</ele>
        <time>2019-07-08T11:13:10Z</time>
      </trkpt>
      <trkpt lat="44.73619" lon="4.74084">
        <ele>107.59999847412</ele>
        <time>2019-07-08T11:13:11Z</time>
      </trkpt>
      <trkpt lat="44.73613" lon="4.74082">
        <ele>108.19999694824</ele>
        <time>2019-07-08T11:13:12Z</time>
      </trkpt>
      <trkpt lat="44.73608" lon="4.74079">
        <ele>108.59999847412</ele>
        <time>2019-07-08T11:13:13Z</time>
      </trkpt>
      <trkpt lat="44.73602" lon="4.74077">
        <ele>109</ele>
        <time>2019-07-08T11:13:14Z</time>
      </trkpt>
      <trkpt lat="44.73596" lon="4.74074">
        <ele>109</ele>
        <time>2019-07-08T11:13:15Z</time>
      </trkpt>
      <trkpt lat="44.73585" lon="4.74068">
        <ele>109</ele>
        <time>2019-07-08T11:13:17Z</time>
      </trkpt>
      <trkpt lat="44.7357" lon="4.74061">
        <ele>109</ele>
        <time>2019-07-08T11:13:20Z</time>
      </trkpt>
      <trkpt lat="44.73538" lon="4.74043">
        <ele>109</ele>
        <time>2019-07-08T11:13:27Z</time>
      </trkpt>
      <trkpt lat="44.73516" lon="4.74029">
        <ele>109.40000152588</ele>
        <time>2019-07-08T11:13:32Z</time>
      </trkpt>
      <trkpt lat="44.73512" lon="4.74026">
        <ele>109.80000305176</ele>
        <time>2019-07-08T11:13:33Z</time>
      </trkpt>
      <trkpt lat="44.73508" lon="4.74022">
        <ele>110.19999694824</ele>
        <time>2019-07-08T11:13:34Z</time>
      </trkpt>
      <trkpt lat="44.73504" lon="4.74019">
        <ele>110.59999847412</ele>
        <time>2019-07-08T11:13:35Z</time>
      </trkpt>
      <trkpt lat="44.73499" lon="4.74016">
        <ele>111</ele>
        <time>2019-07-08T11:13:36Z</time>
      </trkpt>
      <trkpt lat="44.73478" lon="4.73997">
        <ele>111</ele>
        <time>2019-07-08T11:13:41Z</time>
      </trkpt>
      <trkpt lat="44.73446" lon="4.73968">
        <ele>111</ele>
        <time>2019-07-08T11:13:49Z</time>
      </trkpt>
      <trkpt lat="44.73411" lon="4.73935">
        <ele>111</ele>
        <time>2019-07-08T11:13:58Z</time>
      </trkpt>
      <trkpt lat="44.73407" lon="4.73931">
        <ele>111</ele>
        <time>2019-07-08T11:13:59Z</time>
      </trkpt>
      <trkpt lat="44.73391" lon="4.73918">
        <ele>111</ele>
        <time>2019-07-08T11:14:03Z</time>
      </trkpt>
      <trkpt lat="44.73387" lon="4.73914">
        <ele>111.40000152588</ele>
        <time>2019-07-08T11:14:04Z</time>
      </trkpt>
      <trkpt lat="44.73383" lon="4.73911">
        <ele>111.80000305176</ele>
        <time>2019-07-08T11:14:05Z</time>
      </trkpt>
      <trkpt lat="44.73379" lon="4.73907">
        <ele>112.19999694824</ele>
        <time>2019-07-08T11:14:06Z</time>
      </trkpt>
      <trkpt lat="44.73375" lon="4.73904">
        <ele>112.59999847412</ele>
        <time>2019-07-08T11:14:07Z</time>
      </trkpt>
      <trkpt lat="44.73371" lon="4.73901">
        <ele>113</ele>
        <time>2019-07-08T11:14:08Z</time>
      </trkpt>
      <trkpt lat="44.73362" lon="4.73894">
        <ele>113</ele>
        <time>2019-07-08T11:14:10Z</time>
      </trkpt>
      <trkpt lat="44.73337" lon="4.73875">
        <ele>113</ele>
        <time>2019-07-08T11:14:16Z</time>
      </trkpt>
      <trkpt lat="44.73333" lon="4.73871">
        <ele>113</ele>
        <time>2019-07-08T11:14:17Z</time>
      </trkpt>
      <trkpt lat="44.73315" lon="4.73859">
        <ele>113</ele>
        <time>2019-07-08T11:14:21Z</time>
      </trkpt>
      <trkpt lat="44.73306" lon="4.73853">
        <ele>113.40000152588</ele>
        <time>2019-07-08T11:14:23Z</time>
      </trkpt>
      <trkpt lat="44.73302" lon="4.7385">
        <ele>114</ele>
        <time>2019-07-08T11:14:24Z</time>
      </trkpt>
      <trkpt lat="44.73297" lon="4.73847">
        <ele>114.40000152588</ele>
        <time>2019-07-08T11:14:25Z</time>
      </trkpt>
      <trkpt lat="44.73292" lon="4.73844">
        <ele>114.80000305176</ele>
        <time>2019-07-08T11:14:26Z</time>
      </trkpt>
      <trkpt lat="44.73288" lon="4.73841">
        <ele>115.19999694824</ele>
        <time>2019-07-08T11:14:27Z</time>
      </trkpt>
      <trkpt lat="44.7327" lon="4.73831">
        <ele>115.19999694824</ele>
        <time>2019-07-08T11:14:31Z</time>
      </trkpt>
      <trkpt lat="44.7324" lon="4.73813">
        <ele>115.19999694824</ele>
        <time>2019-07-08T11:14:38Z</time>
      </trkpt>
      <trkpt lat="44.73203" lon="4.73795">
        <ele>115.19999694824</ele>
        <time>2019-07-08T11:14:46Z</time>
      </trkpt>
      <trkpt lat="44.73166" lon="4.7378">
        <ele>115.19999694824</ele>
        <time>2019-07-08T11:14:54Z</time>
      </trkpt>
      <trkpt lat="44.73158" lon="4.73777">
        <ele>115.59999847412</ele>
        <time>2019-07-08T11:14:56Z</time>
      </trkpt>
      <trkpt lat="44.73153" lon="4.73775">
        <ele>116</ele>
        <time>2019-07-08T11:14:57Z</time>
      </trkpt>
      <trkpt lat="44.73148" lon="4.73773">
        <ele>116.40000152588</ele>
        <time>2019-07-08T11:14:58Z</time>
      </trkpt>
      <trkpt lat="44.73143" lon="4.73771">
        <ele>117.19999694824</ele>
        <time>2019-07-08T11:14:59Z</time>
      </trkpt>
      <trkpt lat="44.73133" lon="4.73768">
        <ele>117.19999694824</ele>
        <time>2019-07-08T11:15:01Z</time>
      </trkpt>
      <trkpt lat="44.73099" lon="4.73758">
        <ele>117.19999694824</ele>
        <time>2019-07-08T11:15:08Z</time>
      </trkpt>
      <trkpt lat="44.73066" lon="4.73752">
        <ele>117.19999694824</ele>
        <time>2019-07-08T11:15:15Z</time>
      </trkpt>
      <trkpt lat="44.73036" lon="4.73747">
        <ele>117.19999694824</ele>
        <time>2019-07-08T11:15:21Z</time>
      </trkpt>
      <trkpt lat="44.73008" lon="4.73744">
        <ele>117.59999847412</ele>
        <time>2019-07-08T11:15:27Z</time>
      </trkpt>
      <trkpt lat="44.73003" lon="4.73744">
        <ele>118.19999694824</ele>
        <time>2019-07-08T11:15:28Z</time>
      </trkpt>
      <trkpt lat="44.72998" lon="4.73744">
        <ele>118.59999847412</ele>
        <time>2019-07-08T11:15:29Z</time>
      </trkpt>
      <trkpt lat="44.72993" lon="4.73743">
        <ele>119</ele>
        <time>2019-07-08T11:15:30Z</time>
      </trkpt>
      <trkpt lat="44.72988" lon="4.73742">
        <ele>119.40000152588</ele>
        <time>2019-07-08T11:15:31Z</time>
      </trkpt>
      <trkpt lat="44.72974" lon="4.73741">
        <ele>119.40000152588</ele>
        <time>2019-07-08T11:15:34Z</time>
      </trkpt>
      <trkpt lat="44.72965" lon="4.73741">
        <ele>119.40000152588</ele>
        <time>2019-07-08T11:15:36Z</time>
      </trkpt>
      <trkpt lat="44.72954" lon="4.7374">
        <ele>119.40000152588</ele>
        <time>2019-07-08T11:15:39Z</time>
      </trkpt>
      <trkpt lat="44.72923" lon="4.73736">
        <ele>119.40000152588</ele>
        <time>2019-07-08T11:15:46Z</time>
      </trkpt>
      <trkpt lat="44.72915" lon="4.73736">
        <ele>119.40000152588</ele>
        <time>2019-07-08T11:15:48Z</time>
      </trkpt>
      <trkpt lat="44.72905" lon="4.73736">
        <ele>119.80000305176</ele>
        <time>2019-07-08T11:15:50Z</time>
      </trkpt>
      <trkpt lat="44.72901" lon="4.73736">
        <ele>120.19999694824</ele>
        <time>2019-07-08T11:15:51Z</time>
      </trkpt>
      <trkpt lat="44.72897" lon="4.73735">
        <ele>120.59999847412</ele>
        <time>2019-07-08T11:15:52Z</time>
      </trkpt>
      <trkpt lat="44.72893" lon="4.73735">
        <ele>121</ele>
        <time>2019-07-08T11:15:53Z</time>
      </trkpt>
      <trkpt lat="44.72889" lon="4.73735">
        <ele>121.40000152588</ele>
        <time>2019-07-08T11:15:54Z</time>
      </trkpt>
      <trkpt lat="44.72871" lon="4.73736">
        <ele>121.40000152588</ele>
        <time>2019-07-08T11:15:58Z</time>
      </trkpt>
      <trkpt lat="44.72838" lon="4.73739">
        <ele>121.40000152588</ele>
        <time>2019-07-08T11:16:05Z</time>
      </trkpt>
      <trkpt lat="44.72804" lon="4.73738">
        <ele>121.40000152588</ele>
        <time>2019-07-08T11:16:12Z</time>
      </trkpt>
      <trkpt lat="44.72789" lon="4.73739">
        <ele>121.80000305176</ele>
        <time>2019-07-08T11:16:15Z</time>
      </trkpt>
      <trkpt lat="44.72783" lon="4.73739">
        <ele>122.19999694824</ele>
        <time>2019-07-08T11:16:16Z</time>
      </trkpt>
      <trkpt lat="44.72777" lon="4.73739">
        <ele>122.59999847412</ele>
        <time>2019-07-08T11:16:17Z</time>
      </trkpt>
      <trkpt lat="44.72772" lon="4.73739">
        <ele>123</ele>
        <time>2019-07-08T11:16:18Z</time>
      </trkpt>
      <trkpt lat="44.72767" lon="4.73738">
        <ele>123.59999847412</ele>
        <time>2019-07-08T11:16:19Z</time>
      </trkpt>
      <trkpt lat="44.72748" lon="4.73735">
        <ele>123.59999847412</ele>
        <time>2019-07-08T11:16:23Z</time>
      </trkpt>
      <trkpt lat="44.72738" lon="4.73732">
        <ele>123.59999847412</ele>
        <time>2019-07-08T11:16:25Z</time>
      </trkpt>
      <trkpt lat="44.72705" lon="4.73722">
        <ele>123.59999847412</ele>
        <time>2019-07-08T11:16:31Z</time>
      </trkpt>
      <trkpt lat="44.727" lon="4.73719">
        <ele>123.59999847412</ele>
        <time>2019-07-08T11:16:32Z</time>
      </trkpt>
      <trkpt lat="44.72685" lon="4.73711">
        <ele>123.59999847412</ele>
        <time>2019-07-08T11:16:35Z</time>
      </trkpt>
      <trkpt lat="44.72676" lon="4.73707">
        <ele>124</ele>
        <time>2019-07-08T11:16:37Z</time>
      </trkpt>
      <trkpt lat="44.72671" lon="4.73704">
        <ele>124.40000152588</ele>
        <time>2019-07-08T11:16:38Z</time>
      </trkpt>
      <trkpt lat="44.72666" lon="4.73702">
        <ele>124.80000305176</ele>
        <time>2019-07-08T11:16:39Z</time>
      </trkpt>
      <trkpt lat="44.72661" lon="4.737">
        <ele>125.19999694824</ele>
        <time>2019-07-08T11:16:40Z</time>
      </trkpt>
      <trkpt lat="44.72656" lon="4.73697">
        <ele>125.59999847412</ele>
        <time>2019-07-08T11:16:41Z</time>
      </trkpt>
      <trkpt lat="44.72652" lon="4.73694">
        <ele>125.59999847412</ele>
        <time>2019-07-08T11:16:42Z</time>
      </trkpt>
      <trkpt lat="44.72612" lon="4.73673">
        <ele>125.59999847412</ele>
        <time>2019-07-08T11:16:50Z</time>
      </trkpt>
      <trkpt lat="44.72577" lon="4.73648">
        <ele>125.59999847412</ele>
        <time>2019-07-08T11:16:58Z</time>
      </trkpt>
      <trkpt lat="44.72549" lon="4.7362">
        <ele>125.59999847412</ele>
        <time>2019-07-08T11:17:05Z</time>
      </trkpt>
      <trkpt lat="44.72545" lon="4.73616">
        <ele>126</ele>
        <time>2019-07-08T11:17:06Z</time>
      </trkpt>
      <trkpt lat="44.7254" lon="4.73612">
        <ele>126.40000152588</ele>
        <time>2019-07-08T11:17:07Z</time>
      </trkpt>
      <trkpt lat="44.72536" lon="4.73608">
        <ele>126.80000305176</ele>
        <time>2019-07-08T11:17:08Z</time>
      </trkpt>
      <trkpt lat="44.72532" lon="4.73604">
        <ele>127.19999694824</ele>
        <time>2019-07-08T11:17:09Z</time>
      </trkpt>
      <trkpt lat="44.72528" lon="4.73601">
        <ele>127.59999847412</ele>
        <time>2019-07-08T11:17:10Z</time>
      </trkpt>
      <trkpt lat="44.72524" lon="4.73596">
        <ele>127.59999847412</ele>
        <time>2019-07-08T11:17:11Z</time>
      </trkpt>
      <trkpt lat="44.72517" lon="4.73589">
        <ele>127.59999847412</ele>
        <time>2019-07-08T11:17:13Z</time>
      </trkpt>
      <trkpt lat="44.72492" lon="4.73566">
        <ele>127.59999847412</ele>
        <time>2019-07-08T11:17:19Z</time>
      </trkpt>
      <trkpt lat="44.72469" lon="4.73544">
        <ele>127.59999847412</ele>
        <time>2019-07-08T11:17:25Z</time>
      </trkpt>
      <trkpt lat="44.72439" lon="4.73515">
        <ele>127.59999847412</ele>
        <time>2019-07-08T11:17:33Z</time>
      </trkpt>
      <trkpt lat="44.72418" lon="4.73499">
        <ele>128</ele>
        <time>2019-07-08T11:17:38Z</time>
      </trkpt>
      <trkpt lat="44.72414" lon="4.73496">
        <ele>128.80000305176</ele>
        <time>2019-07-08T11:17:39Z</time>
      </trkpt>
      <trkpt lat="44.7241" lon="4.73493">
        <ele>129.19999694824</ele>
        <time>2019-07-08T11:17:40Z</time>
      </trkpt>
      <trkpt lat="44.72406" lon="4.7349">
        <ele>129.80000305176</ele>
        <time>2019-07-08T11:17:41Z</time>
      </trkpt>
      <trkpt lat="44.72384" lon="4.73477">
        <ele>129.80000305176</ele>
        <time>2019-07-08T11:17:46Z</time>
      </trkpt>
      <trkpt lat="44.72379" lon="4.73473">
        <ele>129.80000305176</ele>
        <time>2019-07-08T11:17:47Z</time>
      </trkpt>
      <trkpt lat="44.72357" lon="4.7346">
        <ele>129.80000305176</ele>
        <time>2019-07-08T11:17:52Z</time>
      </trkpt>
      <trkpt lat="44.72325" lon="4.7344">
        <ele>129.80000305176</ele>
        <time>2019-07-08T11:17:59Z</time>
      </trkpt>
      <trkpt lat="44.72304" lon="4.73426">
        <ele>130.60000610352</ele>
        <time>2019-07-08T11:18:04Z</time>
      </trkpt>
      <trkpt lat="44.72299" lon="4.73424">
        <ele>131</ele>
        <time>2019-07-08T11:18:05Z</time>
      </trkpt>
      <trkpt lat="44.72295" lon="4.73421">
        <ele>131.39999389648</ele>
        <time>2019-07-08T11:18:06Z</time>
      </trkpt>
      <trkpt lat="44.7229" lon="4.73418">
        <ele>131.80000305176</ele>
        <time>2019-07-08T11:18:07Z</time>
      </trkpt>
      <trkpt lat="44.72263" lon="4.73403">
        <ele>131.80000305176</ele>
        <time>2019-07-08T11:18:13Z</time>
      </trkpt>
      <trkpt lat="44.72225" lon="4.73389">
        <ele>131.80000305176</ele>
        <time>2019-07-08T11:18:21Z</time>
      </trkpt>
      <trkpt lat="44.72192" lon="4.7338">
        <ele>131.80000305176</ele>
        <time>2019-07-08T11:18:28Z</time>
      </trkpt>
      <trkpt lat="44.72182" lon="4.73378">
        <ele>132.19999694824</ele>
        <time>2019-07-08T11:18:30Z</time>
      </trkpt>
      <trkpt lat="44.72177" lon="4.73377">
        <ele>132.60000610352</ele>
        <time>2019-07-08T11:18:31Z</time>
      </trkpt>
      <trkpt lat="44.72172" lon="4.73376">
        <ele>133</ele>
        <time>2019-07-08T11:18:32Z</time>
      </trkpt>
      <trkpt lat="44.72167" lon="4.73376">
        <ele>133.39999389648</ele>
        <time>2019-07-08T11:18:33Z</time>
      </trkpt>
      <trkpt lat="44.72162" lon="4.73375">
        <ele>133.80000305176</ele>
        <time>2019-07-08T11:18:34Z</time>
      </trkpt>
      <trkpt lat="44.72152" lon="4.73374">
        <ele>133.80000305176</ele>
        <time>2019-07-08T11:18:36Z</time>
      </trkpt>
      <trkpt lat="44.72117" lon="4.73369">
        <ele>133.80000305176</ele>
        <time>2019-07-08T11:18:43Z</time>
      </trkpt>
      <trkpt lat="44.72087" lon="4.73366">
        <ele>133.80000305176</ele>
        <time>2019-07-08T11:18:49Z</time>
      </trkpt>
      <trkpt lat="44.72054" lon="4.73361">
        <ele>133.80000305176</ele>
        <time>2019-07-08T11:18:56Z</time>
      </trkpt>
      <trkpt lat="44.7205" lon="4.7336">
        <ele>134.19999694824</ele>
        <time>2019-07-08T11:18:57Z</time>
      </trkpt>
      <trkpt lat="44.72045" lon="4.73359">
        <ele>134.60000610352</ele>
        <time>2019-07-08T11:18:58Z</time>
      </trkpt>
      <trkpt lat="44.7204" lon="4.73357">
        <ele>135</ele>
        <time>2019-07-08T11:18:59Z</time>
      </trkpt>
      <trkpt lat="44.72035" lon="4.73356">
        <ele>135.39999389648</ele>
        <time>2019-07-08T11:19:00Z</time>
      </trkpt>
      <trkpt lat="44.7203" lon="4.73355">
        <ele>135.80000305176</ele>
        <time>2019-07-08T11:19:01Z</time>
      </trkpt>
      <trkpt lat="44.7202" lon="4.73351">
        <ele>135.80000305176</ele>
        <time>2019-07-08T11:19:03Z</time>
      </trkpt>
      <trkpt lat="44.71982" lon="4.73336">
        <ele>135.80000305176</ele>
        <time>2019-07-08T11:19:11Z</time>
      </trkpt>
      <trkpt lat="44.71948" lon="4.73318">
        <ele>135.80000305176</ele>
        <time>2019-07-08T11:19:18Z</time>
      </trkpt>
      <trkpt lat="44.71912" lon="4.73293">
        <ele>135.80000305176</ele>
        <time>2019-07-08T11:19:26Z</time>
      </trkpt>
      <trkpt lat="44.71898" lon="4.73284">
        <ele>136.19999694824</ele>
        <time>2019-07-08T11:19:29Z</time>
      </trkpt>
      <trkpt lat="44.71894" lon="4.7328">
        <ele>136.60000610352</ele>
        <time>2019-07-08T11:19:30Z</time>
      </trkpt>
      <trkpt lat="44.7189" lon="4.73276">
        <ele>137.19999694824</ele>
        <time>2019-07-08T11:19:31Z</time>
      </trkpt>
      <trkpt lat="44.71886" lon="4.73273">
        <ele>137.60000610352</ele>
        <time>2019-07-08T11:19:32Z</time>
      </trkpt>
      <trkpt lat="44.71881" lon="4.73268">
        <ele>138</ele>
        <time>2019-07-08T11:19:33Z</time>
      </trkpt>
      <trkpt lat="44.71873" lon="4.7326">
        <ele>138</ele>
        <time>2019-07-08T11:19:35Z</time>
      </trkpt>
      <trkpt lat="44.71869" lon="4.73257">
        <ele>138</ele>
        <time>2019-07-08T11:19:36Z</time>
      </trkpt>
      <trkpt lat="44.71851" lon="4.73242">
        <ele>138</ele>
        <time>2019-07-08T11:19:40Z</time>
      </trkpt>
      <trkpt lat="44.71817" lon="4.73211">
        <ele>138</ele>
        <time>2019-07-08T11:19:48Z</time>
      </trkpt>
      <trkpt lat="44.71784" lon="4.73179">
        <ele>138</ele>
        <time>2019-07-08T11:19:56Z</time>
      </trkpt>
      <trkpt lat="44.71758" lon="4.73155">
        <ele>138</ele>
        <time>2019-07-08T11:20:01Z</time>
      </trkpt>
      <trkpt lat="44.71729" lon="4.73137">
        <ele>138</ele>
        <time>2019-07-08T11:20:06Z</time>
      </trkpt>
      <trkpt lat="44.71718" lon="4.7313">
        <ele>138</ele>
        <time>2019-07-08T11:20:08Z</time>
      </trkpt>
      <trkpt lat="44.71709" lon="4.73121">
        <ele>138</ele>
        <time>2019-07-08T11:20:10Z</time>
      </trkpt>
      <trkpt lat="44.71706" lon="4.73117">
        <ele>138</ele>
        <time>2019-07-08T11:20:11Z</time>
      </trkpt>
      <trkpt lat="44.71694" lon="4.73106">
        <ele>138</ele>
        <time>2019-07-08T11:20:15Z</time>
      </trkpt>
      <trkpt lat="44.71688" lon="4.73112">
        <ele>138</ele>
        <time>2019-07-08T11:20:18Z</time>
      </trkpt>
      <trkpt lat="44.71682" lon="4.73123">
        <ele>138</ele>
        <time>2019-07-08T11:20:20Z</time>
      </trkpt>
      <trkpt lat="44.71676" lon="4.73136">
        <ele>138</ele>
        <time>2019-07-08T11:20:22Z</time>
      </trkpt>
      <trkpt lat="44.71671" lon="4.73143">
        <ele>137.60000610352</ele>
        <time>2019-07-08T11:20:23Z</time>
      </trkpt>
      <trkpt lat="44.71667" lon="4.73149">
        <ele>137</ele>
        <time>2019-07-08T11:20:24Z</time>
      </trkpt>
      <trkpt lat="44.71662" lon="4.73155">
        <ele>136.60000610352</ele>
        <time>2019-07-08T11:20:25Z</time>
      </trkpt>
      <trkpt lat="44.71656" lon="4.73157">
        <ele>136.19999694824</ele>
        <time>2019-07-08T11:20:26Z</time>
      </trkpt>
      <trkpt lat="44.71652" lon="4.73152">
        <ele>135.80000305176</ele>
        <time>2019-07-08T11:20:27Z</time>
      </trkpt>
      <trkpt lat="44.71648" lon="4.73146">
        <ele>135.80000305176</ele>
        <time>2019-07-08T11:20:28Z</time>
      </trkpt>
      <trkpt lat="44.71639" lon="4.73125">
        <ele>135.80000305176</ele>
        <time>2019-07-08T11:20:32Z</time>
      </trkpt>
      <trkpt lat="44.71634" lon="4.73117">
        <ele>135.80000305176</ele>
        <time>2019-07-08T11:20:34Z</time>
      </trkpt>
      <trkpt lat="44.71622" lon="4.73096">
        <ele>135.80000305176</ele>
        <time>2019-07-08T11:20:39Z</time>
      </trkpt>
      <trkpt lat="44.71615" lon="4.73082">
        <ele>136.19999694824</ele>
        <time>2019-07-08T11:20:42Z</time>
      </trkpt>
      <trkpt lat="44.71613" lon="4.73078">
        <ele>136.60000610352</ele>
        <time>2019-07-08T11:20:43Z</time>
      </trkpt>
      <trkpt lat="44.7161" lon="4.73073">
        <ele>137</ele>
        <time>2019-07-08T11:20:44Z</time>
      </trkpt>
      <trkpt lat="44.71608" lon="4.73069">
        <ele>137.39999389648</ele>
        <time>2019-07-08T11:20:45Z</time>
      </trkpt>
      <trkpt lat="44.71605" lon="4.73064">
        <ele>137.80000305176</ele>
        <time>2019-07-08T11:20:46Z</time>
      </trkpt>
      <trkpt lat="44.71602" lon="4.7306">
        <ele>137.80000305176</ele>
        <time>2019-07-08T11:20:47Z</time>
      </trkpt>
      <trkpt lat="44.71578" lon="4.73019">
        <ele>137.80000305176</ele>
        <time>2019-07-08T11:20:56Z</time>
      </trkpt>
      <trkpt lat="44.71575" lon="4.73014">
        <ele>138.19999694824</ele>
        <time>2019-07-08T11:20:57Z</time>
      </trkpt>
      <trkpt lat="44.71572" lon="4.7301">
        <ele>138.60000610352</ele>
        <time>2019-07-08T11:20:58Z</time>
      </trkpt>
      <trkpt lat="44.7157" lon="4.73006">
        <ele>139</ele>
        <time>2019-07-08T11:20:59Z</time>
      </trkpt>
      <trkpt lat="44.71567" lon="4.73002">
        <ele>139.39999389648</ele>
        <time>2019-07-08T11:21:00Z</time>
      </trkpt>
      <trkpt lat="44.71564" lon="4.72998">
        <ele>140</ele>
        <time>2019-07-08T11:21:01Z</time>
      </trkpt>
      <trkpt lat="44.71549" lon="4.72978">
        <ele>140</ele>
        <time>2019-07-08T11:21:06Z</time>
      </trkpt>
      <trkpt lat="44.71546" lon="4.72975">
        <ele>140.39999389648</ele>
        <time>2019-07-08T11:21:07Z</time>
      </trkpt>
      <trkpt lat="44.71543" lon="4.72971">
        <ele>140.80000305176</ele>
        <time>2019-07-08T11:21:08Z</time>
      </trkpt>
      <trkpt lat="44.7154" lon="4.72968">
        <ele>141.19999694824</ele>
        <time>2019-07-08T11:21:09Z</time>
      </trkpt>
      <trkpt lat="44.71537" lon="4.72964">
        <ele>141.60000610352</ele>
        <time>2019-07-08T11:21:10Z</time>
      </trkpt>
      <trkpt lat="44.71533" lon="4.7296">
        <ele>142</ele>
        <time>2019-07-08T11:21:11Z</time>
      </trkpt>
      <trkpt lat="44.71526" lon="4.72953">
        <ele>142</ele>
        <time>2019-07-08T11:21:13Z</time>
      </trkpt>
      <trkpt lat="44.71499" lon="4.72926">
        <ele>142</ele>
        <time>2019-07-08T11:21:21Z</time>
      </trkpt>
      <trkpt lat="44.71495" lon="4.72922">
        <ele>142.39999389648</ele>
        <time>2019-07-08T11:21:22Z</time>
      </trkpt>
      <trkpt lat="44.71492" lon="4.72919">
        <ele>142.80000305176</ele>
        <time>2019-07-08T11:21:23Z</time>
      </trkpt>
      <trkpt lat="44.71488" lon="4.72916">
        <ele>143.19999694824</ele>
        <time>2019-07-08T11:21:24Z</time>
      </trkpt>
      <trkpt lat="44.71484" lon="4.72913">
        <ele>143.60000610352</ele>
        <time>2019-07-08T11:21:25Z</time>
      </trkpt>
      <trkpt lat="44.71481" lon="4.72909">
        <ele>144</ele>
        <time>2019-07-08T11:21:26Z</time>
      </trkpt>
      <trkpt lat="44.71469" lon="4.72898">
        <ele>144</ele>
        <time>2019-07-08T11:21:29Z</time>
      </trkpt>
      <trkpt lat="44.71438" lon="4.72869">
        <ele>144</ele>
        <time>2019-07-08T11:21:37Z</time>
      </trkpt>
      <trkpt lat="44.71417" lon="4.7285">
        <ele>144</ele>
        <time>2019-07-08T11:21:42Z</time>
      </trkpt>
      <trkpt lat="44.71413" lon="4.72845">
        <ele>144</ele>
        <time>2019-07-08T11:21:43Z</time>
      </trkpt>
      <trkpt lat="44.71401" lon="4.72835">
        <ele>144.39999389648</ele>
        <time>2019-07-08T11:21:46Z</time>
      </trkpt>
      <trkpt lat="44.71396" lon="4.72831">
        <ele>144.80000305176</ele>
        <time>2019-07-08T11:21:47Z</time>
      </trkpt>
      <trkpt lat="44.71392" lon="4.72828">
        <ele>145.19999694824</ele>
        <time>2019-07-08T11:21:48Z</time>
      </trkpt>
      <trkpt lat="44.71388" lon="4.72825">
        <ele>145.80000305176</ele>
        <time>2019-07-08T11:21:49Z</time>
      </trkpt>
      <trkpt lat="44.71383" lon="4.72821">
        <ele>146.19999694824</ele>
        <time>2019-07-08T11:21:50Z</time>
      </trkpt>
      <trkpt lat="44.71355" lon="4.72796">
        <ele>146.19999694824</ele>
        <time>2019-07-08T11:21:57Z</time>
      </trkpt>
      <trkpt lat="44.71328" lon="4.72772">
        <ele>146.19999694824</ele>
        <time>2019-07-08T11:22:04Z</time>
      </trkpt>
      <trkpt lat="44.71316" lon="4.72762">
        <ele>146.60000610352</ele>
        <time>2019-07-08T11:22:07Z</time>
      </trkpt>
      <trkpt lat="44.71312" lon="4.72758">
        <ele>147</ele>
        <time>2019-07-08T11:22:08Z</time>
      </trkpt>
      <trkpt lat="44.71308" lon="4.72754">
        <ele>147.39999389648</ele>
        <time>2019-07-08T11:22:09Z</time>
      </trkpt>
      <trkpt lat="44.71304" lon="4.7275">
        <ele>147.80000305176</ele>
        <time>2019-07-08T11:22:10Z</time>
      </trkpt>
      <trkpt lat="44.713" lon="4.72747">
        <ele>148.19999694824</ele>
        <time>2019-07-08T11:22:11Z</time>
      </trkpt>
      <trkpt lat="44.7128" lon="4.72728">
        <ele>148.19999694824</ele>
        <time>2019-07-08T11:22:16Z</time>
      </trkpt>
      <trkpt lat="44.71252" lon="4.72702">
        <ele>148.19999694824</ele>
        <time>2019-07-08T11:22:23Z</time>
      </trkpt>
      <trkpt lat="44.71228" lon="4.7268">
        <ele>148.19999694824</ele>
        <time>2019-07-08T11:22:29Z</time>
      </trkpt>
      <trkpt lat="44.71216" lon="4.7267">
        <ele>148.60000610352</ele>
        <time>2019-07-08T11:22:32Z</time>
      </trkpt>
      <trkpt lat="44.71212" lon="4.72666">
        <ele>149</ele>
        <time>2019-07-08T11:22:33Z</time>
      </trkpt>
      <trkpt lat="44.71208" lon="4.72663">
        <ele>149.39999389648</ele>
        <time>2019-07-08T11:22:34Z</time>
      </trkpt>
      <trkpt lat="44.71203" lon="4.72659">
        <ele>149.80000305176</ele>
        <time>2019-07-08T11:22:35Z</time>
      </trkpt>
      <trkpt lat="44.71199" lon="4.72655">
        <ele>150.19999694824</ele>
        <time>2019-07-08T11:22:36Z</time>
      </trkpt>
      <trkpt lat="44.71187" lon="4.72644">
        <ele>150.19999694824</ele>
        <time>2019-07-08T11:22:39Z</time>
      </trkpt>
      <trkpt lat="44.71171" lon="4.72627">
        <ele>150.19999694824</ele>
        <time>2019-07-08T11:22:43Z</time>
      </trkpt>
      <trkpt lat="44.71163" lon="4.72619">
        <ele>150.19999694824</ele>
        <time>2019-07-08T11:22:45Z</time>
      </trkpt>
      <trkpt lat="44.71145" lon="4.72605">
        <ele>150.19999694824</ele>
        <time>2019-07-08T11:22:49Z</time>
      </trkpt>
      <trkpt lat="44.71141" lon="4.72601">
        <ele>150.19999694824</ele>
        <time>2019-07-08T11:22:50Z</time>
      </trkpt>
      <trkpt lat="44.71127" lon="4.72591">
        <ele>150.19999694824</ele>
        <time>2019-07-08T11:22:53Z</time>
      </trkpt>
      <trkpt lat="44.71124" lon="4.72586">
        <ele>150.19999694824</ele>
        <time>2019-07-08T11:22:54Z</time>
      </trkpt>
      <trkpt lat="44.71099" lon="4.72564">
        <ele>150.19999694824</ele>
        <time>2019-07-08T11:23:00Z</time>
      </trkpt>
      <trkpt lat="44.71095" lon="4.7256">
        <ele>150.60000610352</ele>
        <time>2019-07-08T11:23:01Z</time>
      </trkpt>
      <trkpt lat="44.71091" lon="4.72556">
        <ele>151</ele>
        <time>2019-07-08T11:23:02Z</time>
      </trkpt>
      <trkpt lat="44.71087" lon="4.72553">
        <ele>151.39999389648</ele>
        <time>2019-07-08T11:23:03Z</time>
      </trkpt>
      <trkpt lat="44.71083" lon="4.72549">
        <ele>151.80000305176</ele>
        <time>2019-07-08T11:23:04Z</time>
      </trkpt>
      <trkpt lat="44.71079" lon="4.72546">
        <ele>152.19999694824</ele>
        <time>2019-07-08T11:23:05Z</time>
      </trkpt>
      <trkpt lat="44.71072" lon="4.72539">
        <ele>152.19999694824</ele>
        <time>2019-07-08T11:23:07Z</time>
      </trkpt>
      <trkpt lat="44.71063" lon="4.7253">
        <ele>152.19999694824</ele>
        <time>2019-07-08T11:23:09Z</time>
      </trkpt>
      <trkpt lat="44.71033" lon="4.72504">
        <ele>152.19999694824</ele>
        <time>2019-07-08T11:23:16Z</time>
      </trkpt>
      <trkpt lat="44.71007" lon="4.7248">
        <ele>152.19999694824</ele>
        <time>2019-07-08T11:23:22Z</time>
      </trkpt>
      <trkpt lat="44.71002" lon="4.72476">
        <ele>152.19999694824</ele>
        <time>2019-07-08T11:23:23Z</time>
      </trkpt>
      <trkpt lat="44.70985" lon="4.7246">
        <ele>152.19999694824</ele>
        <time>2019-07-08T11:23:27Z</time>
      </trkpt>
      <trkpt lat="44.70966" lon="4.72443">
        <ele>152.60000610352</ele>
        <time>2019-07-08T11:23:32Z</time>
      </trkpt>
      <trkpt lat="44.70963" lon="4.7244">
        <ele>153</ele>
        <time>2019-07-08T11:23:33Z</time>
      </trkpt>
      <trkpt lat="44.70959" lon="4.72437">
        <ele>153.39999389648</ele>
        <time>2019-07-08T11:23:34Z</time>
      </trkpt>
      <trkpt lat="44.70956" lon="4.72434">
        <ele>153.80000305176</ele>
        <time>2019-07-08T11:23:35Z</time>
      </trkpt>
      <trkpt lat="44.70952" lon="4.72431">
        <ele>154.19999694824</ele>
        <time>2019-07-08T11:23:36Z</time>
      </trkpt>
      <trkpt lat="44.70945" lon="4.72424">
        <ele>154.19999694824</ele>
        <time>2019-07-08T11:23:38Z</time>
      </trkpt>
      <trkpt lat="44.70934" lon="4.72415">
        <ele>154.19999694824</ele>
        <time>2019-07-08T11:23:41Z</time>
      </trkpt>
      <trkpt lat="44.7091" lon="4.72395">
        <ele>154.19999694824</ele>
        <time>2019-07-08T11:23:47Z</time>
      </trkpt>
      <trkpt lat="44.70881" lon="4.72369">
        <ele>154.19999694824</ele>
        <time>2019-07-08T11:23:54Z</time>
      </trkpt>
      <trkpt lat="44.70845" lon="4.72336">
        <ele>154.19999694824</ele>
        <time>2019-07-08T11:24:02Z</time>
      </trkpt>
      <trkpt lat="44.70808" lon="4.72303">
        <ele>154.19999694824</ele>
        <time>2019-07-08T11:24:10Z</time>
      </trkpt>
      <trkpt lat="44.70794" lon="4.7229">
        <ele>154.60000610352</ele>
        <time>2019-07-08T11:24:13Z</time>
      </trkpt>
      <trkpt lat="44.7079" lon="4.72286">
        <ele>155</ele>
        <time>2019-07-08T11:24:14Z</time>
      </trkpt>
      <trkpt lat="44.70785" lon="4.72282">
        <ele>155.80000305176</ele>
        <time>2019-07-08T11:24:15Z</time>
      </trkpt>
      <trkpt lat="44.70781" lon="4.72278">
        <ele>156.39999389648</ele>
        <time>2019-07-08T11:24:16Z</time>
      </trkpt>
      <trkpt lat="44.70776" lon="4.72275">
        <ele>156.39999389648</ele>
        <time>2019-07-08T11:24:17Z</time>
      </trkpt>
      <trkpt lat="44.70744" lon="4.72248">
        <ele>156.39999389648</ele>
        <time>2019-07-08T11:24:25Z</time>
      </trkpt>
      <trkpt lat="44.70706" lon="4.72218">
        <ele>156.39999389648</ele>
        <time>2019-07-08T11:24:33Z</time>
      </trkpt>
      <trkpt lat="44.70666" lon="4.72192">
        <ele>156.39999389648</ele>
        <time>2019-07-08T11:24:41Z</time>
      </trkpt>
      <trkpt lat="44.70626" lon="4.72168">
        <ele>156.39999389648</ele>
        <time>2019-07-08T11:24:49Z</time>
      </trkpt>
      <trkpt lat="44.70589" lon="4.72149">
        <ele>156.80000305176</ele>
        <time>2019-07-08T11:24:56Z</time>
      </trkpt>
      <trkpt lat="44.70584" lon="4.72147">
        <ele>157.19999694824</ele>
        <time>2019-07-08T11:24:57Z</time>
      </trkpt>
      <trkpt lat="44.70578" lon="4.72145">
        <ele>157.60000610352</ele>
        <time>2019-07-08T11:24:58Z</time>
      </trkpt>
      <trkpt lat="44.70573" lon="4.72142">
        <ele>158</ele>
        <time>2019-07-08T11:24:59Z</time>
      </trkpt>
      <trkpt lat="44.70568" lon="4.7214">
        <ele>158.39999389648</ele>
        <time>2019-07-08T11:25:00Z</time>
      </trkpt>
      <trkpt lat="44.70546" lon="4.72132">
        <ele>158.39999389648</ele>
        <time>2019-07-08T11:25:04Z</time>
      </trkpt>
      <trkpt lat="44.70516" lon="4.7212">
        <ele>158.39999389648</ele>
        <time>2019-07-08T11:25:10Z</time>
      </trkpt>
      <trkpt lat="44.70512" lon="4.72118">
        <ele>158.39999389648</ele>
        <time>2019-07-08T11:25:11Z</time>
      </trkpt>
      <trkpt lat="44.70504" lon="4.72114">
        <ele>158.39999389648</ele>
        <time>2019-07-08T11:25:13Z</time>
      </trkpt>
      <trkpt lat="44.70485" lon="4.72108">
        <ele>158.39999389648</ele>
        <time>2019-07-08T11:25:17Z</time>
      </trkpt>
      <trkpt lat="44.70449" lon="4.72099">
        <ele>158.39999389648</ele>
        <time>2019-07-08T11:25:24Z</time>
      </trkpt>
      <trkpt lat="44.70398" lon="4.72089">
        <ele>158.39999389648</ele>
        <time>2019-07-08T11:25:33Z</time>
      </trkpt>
      <trkpt lat="44.70387" lon="4.72088">
        <ele>158.80000305176</ele>
        <time>2019-07-08T11:25:35Z</time>
      </trkpt>
      <trkpt lat="44.70381" lon="4.72087">
        <ele>159.19999694824</ele>
        <time>2019-07-08T11:25:36Z</time>
      </trkpt>
      <trkpt lat="44.70375" lon="4.72086">
        <ele>159.60000610352</ele>
        <time>2019-07-08T11:25:37Z</time>
      </trkpt>
      <trkpt lat="44.70369" lon="4.72086">
        <ele>160</ele>
        <time>2019-07-08T11:25:38Z</time>
      </trkpt>
      <trkpt lat="44.70364" lon="4.72085">
        <ele>160.39999389648</ele>
        <time>2019-07-08T11:25:39Z</time>
      </trkpt>
      <trkpt lat="44.70352" lon="4.72084">
        <ele>160.39999389648</ele>
        <time>2019-07-08T11:25:41Z</time>
      </trkpt>
      <trkpt lat="44.70297" lon="4.7208">
        <ele>160.39999389648</ele>
        <time>2019-07-08T11:25:51Z</time>
      </trkpt>
      <trkpt lat="44.70266" lon="4.72076">
        <ele>160.39999389648</ele>
        <time>2019-07-08T11:25:57Z</time>
      </trkpt>
      <trkpt lat="44.70243" lon="4.72075">
        <ele>160.39999389648</ele>
        <time>2019-07-08T11:26:02Z</time>
      </trkpt>
      <trkpt lat="44.70224" lon="4.72075">
        <ele>160.39999389648</ele>
        <time>2019-07-08T11:26:06Z</time>
      </trkpt>
      <trkpt lat="44.70214" lon="4.72075">
        <ele>160.39999389648</ele>
        <time>2019-07-08T11:26:08Z</time>
      </trkpt>
      <trkpt lat="44.70177" lon="4.7207">
        <ele>160.39999389648</ele>
        <time>2019-07-08T11:26:15Z</time>
      </trkpt>
      <trkpt lat="44.70172" lon="4.7207">
        <ele>160.80000305176</ele>
        <time>2019-07-08T11:26:16Z</time>
      </trkpt>
      <trkpt lat="44.70167" lon="4.72069">
        <ele>161.39999389648</ele>
        <time>2019-07-08T11:26:17Z</time>
      </trkpt>
      <trkpt lat="44.70162" lon="4.72068">
        <ele>161.80000305176</ele>
        <time>2019-07-08T11:26:18Z</time>
      </trkpt>
      <trkpt lat="44.70156" lon="4.72067">
        <ele>162.60000610352</ele>
        <time>2019-07-08T11:26:19Z</time>
      </trkpt>
      <trkpt lat="44.7015" lon="4.72067">
        <ele>162.60000610352</ele>
        <time>2019-07-08T11:26:20Z</time>
      </trkpt>
      <trkpt lat="44.70119" lon="4.72062">
        <ele>162.60000610352</ele>
        <time>2019-07-08T11:26:26Z</time>
      </trkpt>
      <trkpt lat="44.70083" lon="4.72056">
        <ele>162.60000610352</ele>
        <time>2019-07-08T11:26:33Z</time>
      </trkpt>
      <trkpt lat="44.70047" lon="4.72053">
        <ele>162.60000610352</ele>
        <time>2019-07-08T11:26:39Z</time>
      </trkpt>
      <trkpt lat="44.70041" lon="4.72053">
        <ele>162.60000610352</ele>
        <time>2019-07-08T11:26:40Z</time>
      </trkpt>
      <trkpt lat="44.7002" lon="4.72052">
        <ele>162.60000610352</ele>
        <time>2019-07-08T11:26:44Z</time>
      </trkpt>
      <trkpt lat="44.70016" lon="4.72052">
        <ele>162.60000610352</ele>
        <time>2019-07-08T11:26:45Z</time>
      </trkpt>
      <trkpt lat="44.70005" lon="4.72054">
        <ele>162.60000610352</ele>
        <time>2019-07-08T11:26:48Z</time>
      </trkpt>
      <trkpt lat="44.69989" lon="4.72051">
        <ele>162.60000610352</ele>
        <time>2019-07-08T11:26:52Z</time>
      </trkpt>
      <trkpt lat="44.69975" lon="4.72051">
        <ele>162.60000610352</ele>
        <time>2019-07-08T11:26:55Z</time>
      </trkpt>
      <trkpt lat="44.69961" lon="4.72049">
        <ele>162.60000610352</ele>
        <time>2019-07-08T11:26:58Z</time>
      </trkpt>
      <trkpt lat="44.69951" lon="4.72047">
        <ele>163</ele>
        <time>2019-07-08T11:27:00Z</time>
      </trkpt>
      <trkpt lat="44.69946" lon="4.72046">
        <ele>163.39999389648</ele>
        <time>2019-07-08T11:27:01Z</time>
      </trkpt>
      <trkpt lat="44.69941" lon="4.72045">
        <ele>163.80000305176</ele>
        <time>2019-07-08T11:27:02Z</time>
      </trkpt>
      <trkpt lat="44.69936" lon="4.72044">
        <ele>164.19999694824</ele>
        <time>2019-07-08T11:27:03Z</time>
      </trkpt>
      <trkpt lat="44.69931" lon="4.72043">
        <ele>164.60000610352</ele>
        <time>2019-07-08T11:27:04Z</time>
      </trkpt>
      <trkpt lat="44.69925" lon="4.72042">
        <ele>164.60000610352</ele>
        <time>2019-07-08T11:27:05Z</time>
      </trkpt>
      <trkpt lat="44.699" lon="4.72035">
        <ele>164.60000610352</ele>
        <time>2019-07-08T11:27:10Z</time>
      </trkpt>
      <trkpt lat="44.69862" lon="4.72021">
        <ele>164.60000610352</ele>
        <time>2019-07-08T11:27:17Z</time>
      </trkpt>
      <trkpt lat="44.69826" lon="4.72003">
        <ele>164.60000610352</ele>
        <time>2019-07-08T11:27:24Z</time>
      </trkpt>
      <trkpt lat="44.69787" lon="4.71977">
        <ele>164.60000610352</ele>
        <time>2019-07-08T11:27:32Z</time>
      </trkpt>
      <trkpt lat="44.69744" lon="4.71941">
        <ele>164.60000610352</ele>
        <time>2019-07-08T11:27:41Z</time>
      </trkpt>
      <trkpt lat="44.69709" lon="4.71901">
        <ele>164.60000610352</ele>
        <time>2019-07-08T11:27:49Z</time>
      </trkpt>
      <trkpt lat="44.69676" lon="4.71856">
        <ele>164.60000610352</ele>
        <time>2019-07-08T11:27:57Z</time>
      </trkpt>
      <trkpt lat="44.69652" lon="4.71817">
        <ele>164.60000610352</ele>
        <time>2019-07-08T11:28:04Z</time>
      </trkpt>
      <trkpt lat="44.69642" lon="4.71799">
        <ele>165</ele>
        <time>2019-07-08T11:28:07Z</time>
      </trkpt>
      <trkpt lat="44.69639" lon="4.71793">
        <ele>165.39999389648</ele>
        <time>2019-07-08T11:28:08Z</time>
      </trkpt>
      <trkpt lat="44.69636" lon="4.71787">
        <ele>165.80000305176</ele>
        <time>2019-07-08T11:28:09Z</time>
      </trkpt>
      <trkpt lat="44.69634" lon="4.71781">
        <ele>166.19999694824</ele>
        <time>2019-07-08T11:28:10Z</time>
      </trkpt>
      <trkpt lat="44.69631" lon="4.71775">
        <ele>166.60000610352</ele>
        <time>2019-07-08T11:28:11Z</time>
      </trkpt>
      <trkpt lat="44.69611" lon="4.71731">
        <ele>166.60000610352</ele>
        <time>2019-07-08T11:28:18Z</time>
      </trkpt>
      <trkpt lat="44.69594" lon="4.71683">
        <ele>166.60000610352</ele>
        <time>2019-07-08T11:28:25Z</time>
      </trkpt>
      <trkpt lat="44.6958" lon="4.7164">
        <ele>166.60000610352</ele>
        <time>2019-07-08T11:28:31Z</time>
      </trkpt>
      <trkpt lat="44.69568" lon="4.71586">
        <ele>166.60000610352</ele>
        <time>2019-07-08T11:28:38Z</time>
      </trkpt>
      <trkpt lat="44.69562" lon="4.71548">
        <ele>166.60000610352</ele>
        <time>2019-07-08T11:28:43Z</time>
      </trkpt>
      <trkpt lat="44.69561" lon="4.7154">
        <ele>167</ele>
        <time>2019-07-08T11:28:44Z</time>
      </trkpt>
      <trkpt lat="44.6956" lon="4.71533">
        <ele>167.39999389648</ele>
        <time>2019-07-08T11:28:45Z</time>
      </trkpt>
      <trkpt lat="44.69559" lon="4.71526">
        <ele>167.80000305176</ele>
        <time>2019-07-08T11:28:46Z</time>
      </trkpt>
      <trkpt lat="44.69558" lon="4.71518">
        <ele>168.80000305176</ele>
        <time>2019-07-08T11:28:47Z</time>
      </trkpt>
      <trkpt lat="44.69557" lon="4.71504">
        <ele>168.80000305176</ele>
        <time>2019-07-08T11:28:49Z</time>
      </trkpt>
      <trkpt lat="44.69555" lon="4.71461">
        <ele>168.80000305176</ele>
        <time>2019-07-08T11:28:55Z</time>
      </trkpt>
      <trkpt lat="44.69553" lon="4.71414">
        <ele>168.80000305176</ele>
        <time>2019-07-08T11:29:01Z</time>
      </trkpt>
      <trkpt lat="44.69555" lon="4.71359">
        <ele>168.80000305176</ele>
        <time>2019-07-08T11:29:08Z</time>
      </trkpt>
      <trkpt lat="44.69556" lon="4.71352">
        <ele>169.19999694824</ele>
        <time>2019-07-08T11:29:09Z</time>
      </trkpt>
      <trkpt lat="44.69556" lon="4.71344">
        <ele>169.60000610352</ele>
        <time>2019-07-08T11:29:10Z</time>
      </trkpt>
      <trkpt lat="44.69557" lon="4.71336">
        <ele>170</ele>
        <time>2019-07-08T11:29:11Z</time>
      </trkpt>
      <trkpt lat="44.69558" lon="4.71329">
        <ele>170.80000305176</ele>
        <time>2019-07-08T11:29:12Z</time>
      </trkpt>
      <trkpt lat="44.69561" lon="4.71306">
        <ele>170.80000305176</ele>
        <time>2019-07-08T11:29:15Z</time>
      </trkpt>
      <trkpt lat="44.6957" lon="4.71255">
        <ele>170.80000305176</ele>
        <time>2019-07-08T11:29:22Z</time>
      </trkpt>
      <trkpt lat="44.69581" lon="4.71204">
        <ele>170.80000305176</ele>
        <time>2019-07-08T11:29:29Z</time>
      </trkpt>
      <trkpt lat="44.69596" lon="4.71156">
        <ele>171.19999694824</ele>
        <time>2019-07-08T11:29:36Z</time>
      </trkpt>
      <trkpt lat="44.69598" lon="4.71149">
        <ele>172</ele>
        <time>2019-07-08T11:29:37Z</time>
      </trkpt>
      <trkpt lat="44.696" lon="4.71142">
        <ele>172.39999389648</ele>
        <time>2019-07-08T11:29:38Z</time>
      </trkpt>
      <trkpt lat="44.69603" lon="4.71135">
        <ele>172.80000305176</ele>
        <time>2019-07-08T11:29:39Z</time>
      </trkpt>
      <trkpt lat="44.69619" lon="4.71095">
        <ele>172.80000305176</ele>
        <time>2019-07-08T11:29:45Z</time>
      </trkpt>
      <trkpt lat="44.69631" lon="4.7107">
        <ele>172.80000305176</ele>
        <time>2019-07-08T11:29:49Z</time>
      </trkpt>
      <trkpt lat="44.69643" lon="4.71045">
        <ele>172.80000305176</ele>
        <time>2019-07-08T11:29:53Z</time>
      </trkpt>
      <trkpt lat="44.69656" lon="4.7102">
        <ele>173.19999694824</ele>
        <time>2019-07-08T11:29:57Z</time>
      </trkpt>
      <trkpt lat="44.6966" lon="4.71014">
        <ele>173.60000610352</ele>
        <time>2019-07-08T11:29:58Z</time>
      </trkpt>
      <trkpt lat="44.69663" lon="4.71008">
        <ele>174</ele>
        <time>2019-07-08T11:29:59Z</time>
      </trkpt>
      <trkpt lat="44.69667" lon="4.71002">
        <ele>174.39999389648</ele>
        <time>2019-07-08T11:30:00Z</time>
      </trkpt>
      <trkpt lat="44.6967" lon="4.70996">
        <ele>174.80000305176</ele>
        <time>2019-07-08T11:30:01Z</time>
      </trkpt>
      <trkpt lat="44.69692" lon="4.70959">
        <ele>174.80000305176</ele>
        <time>2019-07-08T11:30:07Z</time>
      </trkpt>
      <trkpt lat="44.69718" lon="4.70918">
        <ele>174.80000305176</ele>
        <time>2019-07-08T11:30:14Z</time>
      </trkpt>
      <trkpt lat="44.69743" lon="4.70874">
        <ele>174.80000305176</ele>
        <time>2019-07-08T11:30:21Z</time>
      </trkpt>
      <trkpt lat="44.6975" lon="4.70862">
        <ele>175.19999694824</ele>
        <time>2019-07-08T11:30:23Z</time>
      </trkpt>
      <trkpt lat="44.69754" lon="4.70855">
        <ele>175.60000610352</ele>
        <time>2019-07-08T11:30:24Z</time>
      </trkpt>
      <trkpt lat="44.69757" lon="4.70849">
        <ele>176</ele>
        <time>2019-07-08T11:30:25Z</time>
      </trkpt>
      <trkpt lat="44.69761" lon="4.70843">
        <ele>176.80000305176</ele>
        <time>2019-07-08T11:30:26Z</time>
      </trkpt>
      <trkpt lat="44.69768" lon="4.70831">
        <ele>176.80000305176</ele>
        <time>2019-07-08T11:30:28Z</time>
      </trkpt>
      <trkpt lat="44.69789" lon="4.70795">
        <ele>176.80000305176</ele>
        <time>2019-07-08T11:30:34Z</time>
      </trkpt>
      <trkpt lat="44.69813" lon="4.70752">
        <ele>176.80000305176</ele>
        <time>2019-07-08T11:30:41Z</time>
      </trkpt>
      <trkpt lat="44.6983" lon="4.7072">
        <ele>176.80000305176</ele>
        <time>2019-07-08T11:30:46Z</time>
      </trkpt>
      <trkpt lat="44.69832" lon="4.70713">
        <ele>177.19999694824</ele>
        <time>2019-07-08T11:30:47Z</time>
      </trkpt>
      <trkpt lat="44.69833" lon="4.70706">
        <ele>177.60000610352</ele>
        <time>2019-07-08T11:30:48Z</time>
      </trkpt>
      <trkpt lat="44.69834" lon="4.70698">
        <ele>178</ele>
        <time>2019-07-08T11:30:49Z</time>
      </trkpt>
      <trkpt lat="44.69837" lon="4.70691">
        <ele>178.39999389648</ele>
        <time>2019-07-08T11:30:50Z</time>
      </trkpt>
      <trkpt lat="44.69841" lon="4.70685">
        <ele>179</ele>
        <time>2019-07-08T11:30:51Z</time>
      </trkpt>
      <trkpt lat="44.69846" lon="4.70681">
        <ele>179</ele>
        <time>2019-07-08T11:30:52Z</time>
      </trkpt>
      <trkpt lat="44.69856" lon="4.70672">
        <ele>179</ele>
        <time>2019-07-08T11:30:54Z</time>
      </trkpt>
      <trkpt lat="44.69861" lon="4.70666">
        <ele>179</ele>
        <time>2019-07-08T11:30:55Z</time>
      </trkpt>
      <trkpt lat="44.6987" lon="4.70653">
        <ele>179</ele>
        <time>2019-07-08T11:30:57Z</time>
      </trkpt>
      <trkpt lat="44.69878" lon="4.70639">
        <ele>179</ele>
        <time>2019-07-08T11:30:59Z</time>
      </trkpt>
      <trkpt lat="44.6989" lon="4.70618">
        <ele>179</ele>
        <time>2019-07-08T11:31:02Z</time>
      </trkpt>
      <trkpt lat="44.69918" lon="4.70565">
        <ele>179</ele>
        <time>2019-07-08T11:31:09Z</time>
      </trkpt>
      <trkpt lat="44.69942" lon="4.70516">
        <ele>179.39999389648</ele>
        <time>2019-07-08T11:31:15Z</time>
      </trkpt>
      <trkpt lat="44.69945" lon="4.70508">
        <ele>179.80000305176</ele>
        <time>2019-07-08T11:31:16Z</time>
      </trkpt>
      <trkpt lat="44.69949" lon="4.70499">
        <ele>180.19999694824</ele>
        <time>2019-07-08T11:31:17Z</time>
      </trkpt>
      <trkpt lat="44.69953" lon="4.7049">
        <ele>180.60000610352</ele>
        <time>2019-07-08T11:31:18Z</time>
      </trkpt>
      <trkpt lat="44.69956" lon="4.70481">
        <ele>181</ele>
        <time>2019-07-08T11:31:19Z</time>
      </trkpt>
      <trkpt lat="44.69969" lon="4.70446">
        <ele>181</ele>
        <time>2019-07-08T11:31:23Z</time>
      </trkpt>
      <trkpt lat="44.69989" lon="4.70382">
        <ele>181</ele>
        <time>2019-07-08T11:31:30Z</time>
      </trkpt>
      <trkpt lat="44.70004" lon="4.70326">
        <ele>181</ele>
        <time>2019-07-08T11:31:36Z</time>
      </trkpt>
      <trkpt lat="44.70016" lon="4.70256">
        <ele>181</ele>
        <time>2019-07-08T11:31:43Z</time>
      </trkpt>
      <trkpt lat="44.70021" lon="4.70227">
        <ele>181.39999389648</ele>
        <time>2019-07-08T11:31:46Z</time>
      </trkpt>
      <trkpt lat="44.70022" lon="4.70216">
        <ele>181.80000305176</ele>
        <time>2019-07-08T11:31:47Z</time>
      </trkpt>
      <trkpt lat="44.70023" lon="4.70206">
        <ele>182.19999694824</ele>
        <time>2019-07-08T11:31:48Z</time>
      </trkpt>
      <trkpt lat="44.70024" lon="4.70196">
        <ele>182.60000610352</ele>
        <time>2019-07-08T11:31:49Z</time>
      </trkpt>
      <trkpt lat="44.70025" lon="4.70186">
        <ele>183</ele>
        <time>2019-07-08T11:31:50Z</time>
      </trkpt>
      <trkpt lat="44.70031" lon="4.70112">
        <ele>183</ele>
        <time>2019-07-08T11:31:57Z</time>
      </trkpt>
      <trkpt lat="44.70039" lon="4.70038">
        <ele>183</ele>
        <time>2019-07-08T11:32:04Z</time>
      </trkpt>
      <trkpt lat="44.70043" lon="4.69975">
        <ele>183</ele>
        <time>2019-07-08T11:32:10Z</time>
      </trkpt>
      <trkpt lat="44.70046" lon="4.69947">
        <ele>183.39999389648</ele>
        <time>2019-07-08T11:32:13Z</time>
      </trkpt>
      <trkpt lat="44.70047" lon="4.69938">
        <ele>184</ele>
        <time>2019-07-08T11:32:14Z</time>
      </trkpt>
      <trkpt lat="44.70047" lon="4.69929">
        <ele>184.39999389648</ele>
        <time>2019-07-08T11:32:15Z</time>
      </trkpt>
      <trkpt lat="44.70048" lon="4.6992">
        <ele>184.80000305176</ele>
        <time>2019-07-08T11:32:16Z</time>
      </trkpt>
      <trkpt lat="44.70048" lon="4.69911">
        <ele>185.19999694824</ele>
        <time>2019-07-08T11:32:17Z</time>
      </trkpt>
      <trkpt lat="44.70052" lon="4.69878">
        <ele>185.19999694824</ele>
        <time>2019-07-08T11:32:21Z</time>
      </trkpt>
      <trkpt lat="44.70053" lon="4.69853">
        <ele>185.19999694824</ele>
        <time>2019-07-08T11:32:24Z</time>
      </trkpt>
      <trkpt lat="44.70055" lon="4.69836">
        <ele>185.19999694824</ele>
        <time>2019-07-08T11:32:26Z</time>
      </trkpt>
      <trkpt lat="44.70057" lon="4.69797">
        <ele>185.19999694824</ele>
        <time>2019-07-08T11:32:31Z</time>
      </trkpt>
      <trkpt lat="44.70058" lon="4.69782">
        <ele>185.19999694824</ele>
        <time>2019-07-08T11:32:33Z</time>
      </trkpt>
      <trkpt lat="44.70061" lon="4.69739">
        <ele>185.19999694824</ele>
        <time>2019-07-08T11:32:39Z</time>
      </trkpt>
      <trkpt lat="44.70063" lon="4.69719">
        <ele>185.19999694824</ele>
        <time>2019-07-08T11:32:42Z</time>
      </trkpt>
      <trkpt lat="44.70066" lon="4.69693">
        <ele>185.19999694824</ele>
        <time>2019-07-08T11:32:46Z</time>
      </trkpt>
      <trkpt lat="44.70073" lon="4.69635">
        <ele>185.19999694824</ele>
        <time>2019-07-08T11:32:55Z</time>
      </trkpt>
      <trkpt lat="44.70078" lon="4.6958">
        <ele>185.19999694824</ele>
        <time>2019-07-08T11:33:03Z</time>
      </trkpt>
      <trkpt lat="44.7008" lon="4.69565">
        <ele>185.60000610352</ele>
        <time>2019-07-08T11:33:05Z</time>
      </trkpt>
      <trkpt lat="44.70081" lon="4.69558">
        <ele>186</ele>
        <time>2019-07-08T11:33:06Z</time>
      </trkpt>
      <trkpt lat="44.70081" lon="4.69551">
        <ele>186.39999389648</ele>
        <time>2019-07-08T11:33:07Z</time>
      </trkpt>
      <trkpt lat="44.70082" lon="4.69544">
        <ele>186.80000305176</ele>
        <time>2019-07-08T11:33:08Z</time>
      </trkpt>
      <trkpt lat="44.70082" lon="4.69536">
        <ele>187.19999694824</ele>
        <time>2019-07-08T11:33:09Z</time>
      </trkpt>
      <trkpt lat="44.70084" lon="4.69522">
        <ele>187.19999694824</ele>
        <time>2019-07-08T11:33:11Z</time>
      </trkpt>
      <trkpt lat="44.70088" lon="4.69469">
        <ele>187.19999694824</ele>
        <time>2019-07-08T11:33:18Z</time>
      </trkpt>
      <trkpt lat="44.70093" lon="4.69408">
        <ele>187.19999694824</ele>
        <time>2019-07-08T11:33:26Z</time>
      </trkpt>
      <trkpt lat="44.70098" lon="4.69366">
        <ele>187.19999694824</ele>
        <time>2019-07-08T11:33:32Z</time>
      </trkpt>
      <trkpt lat="44.701" lon="4.69345">
        <ele>187.60000610352</ele>
        <time>2019-07-08T11:33:35Z</time>
      </trkpt>
      <trkpt lat="44.701" lon="4.69337">
        <ele>188</ele>
        <time>2019-07-08T11:33:36Z</time>
      </trkpt>
      <trkpt lat="44.70101" lon="4.6933">
        <ele>188.39999389648</ele>
        <time>2019-07-08T11:33:37Z</time>
      </trkpt>
      <trkpt lat="44.70101" lon="4.69323">
        <ele>188.80000305176</ele>
        <time>2019-07-08T11:33:38Z</time>
      </trkpt>
      <trkpt lat="44.70102" lon="4.69315">
        <ele>189.19999694824</ele>
        <time>2019-07-08T11:33:39Z</time>
      </trkpt>
      <trkpt lat="44.70117" lon="4.69132">
        <ele>191.19999694824</ele>
        <time>2019-07-08T11:34:02Z</time>
      </trkpt>
      <trkpt lat="44.70122" lon="4.69065">
        <ele>191.19999694824</ele>
        <time>2019-07-08T11:34:10Z</time>
      </trkpt>
      <trkpt lat="44.70124" lon="4.69041">
        <ele>191.60000610352</ele>
        <time>2019-07-08T11:34:13Z</time>
      </trkpt>
      <trkpt lat="44.70125" lon="4.69034">
        <ele>192</ele>
        <time>2019-07-08T11:34:14Z</time>
      </trkpt>
      <trkpt lat="44.70126" lon="4.69028">
        <ele>192.39999389648</ele>
        <time>2019-07-08T11:34:15Z</time>
      </trkpt>
      <trkpt lat="44.70126" lon="4.69021">
        <ele>192.80000305176</ele>
        <time>2019-07-08T11:34:16Z</time>
      </trkpt>
      <trkpt lat="44.70127" lon="4.69014">
        <ele>193.19999694824</ele>
        <time>2019-07-08T11:34:17Z</time>
      </trkpt>
      <trkpt lat="44.70131" lon="4.68972">
        <ele>193.19999694824</ele>
        <time>2019-07-08T11:34:23Z</time>
      </trkpt>
      <trkpt lat="44.70134" lon="4.68923">
        <ele>193.19999694824</ele>
        <time>2019-07-08T11:34:29Z</time>
      </trkpt>
      <trkpt lat="44.70136" lon="4.68885">
        <ele>193.19999694824</ele>
        <time>2019-07-08T11:34:34Z</time>
      </trkpt>
      <trkpt lat="44.7014" lon="4.68831">
        <ele>193.19999694824</ele>
        <time>2019-07-08T11:34:41Z</time>
      </trkpt>
      <trkpt lat="44.70144" lon="4.68793">
        <ele>193.19999694824</ele>
        <time>2019-07-08T11:34:46Z</time>
      </trkpt>
      <trkpt lat="44.70146" lon="4.68742">
        <ele>193.19999694824</ele>
        <time>2019-07-08T11:34:52Z</time>
      </trkpt>
      <trkpt lat="44.70146" lon="4.68717">
        <ele>193.60000610352</ele>
        <time>2019-07-08T11:34:55Z</time>
      </trkpt>
      <trkpt lat="44.70146" lon="4.6871">
        <ele>194</ele>
        <time>2019-07-08T11:34:56Z</time>
      </trkpt>
      <trkpt lat="44.70147" lon="4.68702">
        <ele>194.39999389648</ele>
        <time>2019-07-08T11:34:57Z</time>
      </trkpt>
      <trkpt lat="44.70146" lon="4.68694">
        <ele>195.19999694824</ele>
        <time>2019-07-08T11:34:58Z</time>
      </trkpt>
      <trkpt lat="44.70144" lon="4.6863">
        <ele>195.19999694824</ele>
        <time>2019-07-08T11:35:06Z</time>
      </trkpt>
      <trkpt lat="44.70139" lon="4.68577">
        <ele>195.19999694824</ele>
        <time>2019-07-08T11:35:13Z</time>
      </trkpt>
      <trkpt lat="44.70138" lon="4.6857">
        <ele>195.60000610352</ele>
        <time>2019-07-08T11:35:14Z</time>
      </trkpt>
      <trkpt lat="44.70137" lon="4.68561">
        <ele>196.19999694824</ele>
        <time>2019-07-08T11:35:15Z</time>
      </trkpt>
      <trkpt lat="44.70136" lon="4.68553">
        <ele>196.60000610352</ele>
        <time>2019-07-08T11:35:16Z</time>
      </trkpt>
      <trkpt lat="44.70135" lon="4.68545">
        <ele>197</ele>
        <time>2019-07-08T11:35:17Z</time>
      </trkpt>
      <trkpt lat="44.70134" lon="4.68537">
        <ele>197.39999389648</ele>
        <time>2019-07-08T11:35:18Z</time>
      </trkpt>
      <trkpt lat="44.7013" lon="4.68512">
        <ele>197.39999389648</ele>
        <time>2019-07-08T11:35:21Z</time>
      </trkpt>
      <trkpt lat="44.70115" lon="4.68451">
        <ele>197.39999389648</ele>
        <time>2019-07-08T11:35:29Z</time>
      </trkpt>
      <trkpt lat="44.70101" lon="4.68402">
        <ele>197.80000305176</ele>
        <time>2019-07-08T11:35:36Z</time>
      </trkpt>
      <trkpt lat="44.70099" lon="4.68397">
        <ele>198.19999694824</ele>
        <time>2019-07-08T11:35:37Z</time>
      </trkpt>
      <trkpt lat="44.70096" lon="4.68392">
        <ele>198.60000610352</ele>
        <time>2019-07-08T11:35:38Z</time>
      </trkpt>
      <trkpt lat="44.70094" lon="4.68387">
        <ele>199</ele>
        <time>2019-07-08T11:35:39Z</time>
      </trkpt>
      <trkpt lat="44.70092" lon="4.68382">
        <ele>199.39999389648</ele>
        <time>2019-07-08T11:35:40Z</time>
      </trkpt>
      <trkpt lat="44.7009" lon="4.68377">
        <ele>199.39999389648</ele>
        <time>2019-07-08T11:35:41Z</time>
      </trkpt>
      <trkpt lat="44.70088" lon="4.68367">
        <ele>199.39999389648</ele>
        <time>2019-07-08T11:35:43Z</time>
      </trkpt>
      <trkpt lat="44.70091" lon="4.6836">
        <ele>199.39999389648</ele>
        <time>2019-07-08T11:35:45Z</time>
      </trkpt>
      <trkpt lat="44.70102" lon="4.68347">
        <ele>199.39999389648</ele>
        <time>2019-07-08T11:35:49Z</time>
      </trkpt>
      <trkpt lat="44.70111" lon="4.68329">
        <ele>199.39999389648</ele>
        <time>2019-07-08T11:35:52Z</time>
      </trkpt>
      <trkpt lat="44.70115" lon="4.68322">
        <ele>199</ele>
        <time>2019-07-08T11:35:53Z</time>
      </trkpt>
      <trkpt lat="44.70118" lon="4.68315">
        <ele>198.60000610352</ele>
        <time>2019-07-08T11:35:54Z</time>
      </trkpt>
      <trkpt lat="44.70123" lon="4.68307">
        <ele>198</ele>
        <time>2019-07-08T11:35:55Z</time>
      </trkpt>
      <trkpt lat="44.70127" lon="4.68299">
        <ele>197.60000610352</ele>
        <time>2019-07-08T11:35:56Z</time>
      </trkpt>
      <trkpt lat="44.70132" lon="4.68291">
        <ele>197.19999694824</ele>
        <time>2019-07-08T11:35:57Z</time>
      </trkpt>
      <trkpt lat="44.70137" lon="4.68282">
        <ele>197.19999694824</ele>
        <time>2019-07-08T11:35:58Z</time>
      </trkpt>
      <trkpt lat="44.70141" lon="4.68274">
        <ele>196.60000610352</ele>
        <time>2019-07-08T11:35:59Z</time>
      </trkpt>
      <trkpt lat="44.70146" lon="4.68265">
        <ele>196.19999694824</ele>
        <time>2019-07-08T11:36:00Z</time>
      </trkpt>
      <trkpt lat="44.70151" lon="4.68256">
        <ele>195.60000610352</ele>
        <time>2019-07-08T11:36:01Z</time>
      </trkpt>
      <trkpt lat="44.70157" lon="4.68247">
        <ele>195.19999694824</ele>
        <time>2019-07-08T11:36:02Z</time>
      </trkpt>
      <trkpt lat="44.70162" lon="4.68239">
        <ele>194.60000610352</ele>
        <time>2019-07-08T11:36:03Z</time>
      </trkpt>
      <trkpt lat="44.70168" lon="4.68229">
        <ele>194.19999694824</ele>
        <time>2019-07-08T11:36:04Z</time>
      </trkpt>
      <trkpt lat="44.70174" lon="4.6822">
        <ele>193.80000305176</ele>
        <time>2019-07-08T11:36:05Z</time>
      </trkpt>
      <trkpt lat="44.70179" lon="4.6821">
        <ele>193.39999389648</ele>
        <time>2019-07-08T11:36:06Z</time>
      </trkpt>
      <trkpt lat="44.70184" lon="4.68199">
        <ele>193</ele>
        <time>2019-07-08T11:36:07Z</time>
      </trkpt>
      <trkpt lat="44.70188" lon="4.68188">
        <ele>192.60000610352</ele>
        <time>2019-07-08T11:36:08Z</time>
      </trkpt>
      <trkpt lat="44.70193" lon="4.68175">
        <ele>192</ele>
        <time>2019-07-08T11:36:09Z</time>
      </trkpt>
      <trkpt lat="44.70195" lon="4.68161">
        <ele>191.60000610352</ele>
        <time>2019-07-08T11:36:10Z</time>
      </trkpt>
      <trkpt lat="44.70194" lon="4.68146">
        <ele>191.19999694824</ele>
        <time>2019-07-08T11:36:11Z</time>
      </trkpt>
      <trkpt lat="44.70189" lon="4.68132">
        <ele>189.80000305176</ele>
        <time>2019-07-08T11:36:12Z</time>
      </trkpt>
      <trkpt lat="44.70186" lon="4.68118">
        <ele>189.19999694824</ele>
        <time>2019-07-08T11:36:13Z</time>
      </trkpt>
      <trkpt lat="44.70185" lon="4.68104">
        <ele>188.39999389648</ele>
        <time>2019-07-08T11:36:14Z</time>
      </trkpt>
      <trkpt lat="44.70186" lon="4.68088">
        <ele>187.39999389648</ele>
        <time>2019-07-08T11:36:15Z</time>
      </trkpt>
      <trkpt lat="44.70188" lon="4.68071">
        <ele>186.60000610352</ele>
        <time>2019-07-08T11:36:16Z</time>
      </trkpt>
      <trkpt lat="44.70191" lon="4.68054">
        <ele>185.80000305176</ele>
        <time>2019-07-08T11:36:17Z</time>
      </trkpt>
      <trkpt lat="44.70195" lon="4.68039">
        <ele>185</ele>
        <time>2019-07-08T11:36:18Z</time>
      </trkpt>
      <trkpt lat="44.70199" lon="4.68025">
        <ele>184.39999389648</ele>
        <time>2019-07-08T11:36:19Z</time>
      </trkpt>
      <trkpt lat="44.70204" lon="4.68011">
        <ele>183.60000610352</ele>
        <time>2019-07-08T11:36:20Z</time>
      </trkpt>
      <trkpt lat="44.70208" lon="4.67997">
        <ele>183</ele>
        <time>2019-07-08T11:36:21Z</time>
      </trkpt>
      <trkpt lat="44.7021" lon="4.67984">
        <ele>182.19999694824</ele>
        <time>2019-07-08T11:36:22Z</time>
      </trkpt>
      <trkpt lat="44.70211" lon="4.67971">
        <ele>182.19999694824</ele>
        <time>2019-07-08T11:36:23Z</time>
      </trkpt>
      <trkpt lat="44.70206" lon="4.67931">
        <ele>181.80000305176</ele>
        <time>2019-07-08T11:36:26Z</time>
      </trkpt>
      <trkpt lat="44.70202" lon="4.67918">
        <ele>181.19999694824</ele>
        <time>2019-07-08T11:36:27Z</time>
      </trkpt>
      <trkpt lat="44.70198" lon="4.67906">
        <ele>180.80000305176</ele>
        <time>2019-07-08T11:36:28Z</time>
      </trkpt>
      <trkpt lat="44.70194" lon="4.67894">
        <ele>180.19999694824</ele>
        <time>2019-07-08T11:36:29Z</time>
      </trkpt>
      <trkpt lat="44.70189" lon="4.67882">
        <ele>179.60000610352</ele>
        <time>2019-07-08T11:36:30Z</time>
      </trkpt>
      <trkpt lat="44.70186" lon="4.6787">
        <ele>179</ele>
        <time>2019-07-08T11:36:31Z</time>
      </trkpt>
      <trkpt lat="44.70182" lon="4.67859">
        <ele>178.39999389648</ele>
        <time>2019-07-08T11:36:32Z</time>
      </trkpt>
      <trkpt lat="44.70179" lon="4.67849">
        <ele>177.80000305176</ele>
        <time>2019-07-08T11:36:33Z</time>
      </trkpt>
      <trkpt lat="44.70175" lon="4.67838">
        <ele>177.19999694824</ele>
        <time>2019-07-08T11:36:34Z</time>
      </trkpt>
      <trkpt lat="44.70171" lon="4.67827">
        <ele>177.19999694824</ele>
        <time>2019-07-08T11:36:35Z</time>
      </trkpt>
      <trkpt lat="44.7016" lon="4.67796">
        <ele>176.80000305176</ele>
        <time>2019-07-08T11:36:38Z</time>
      </trkpt>
      <trkpt lat="44.70155" lon="4.67786">
        <ele>176.39999389648</ele>
        <time>2019-07-08T11:36:39Z</time>
      </trkpt>
      <trkpt lat="44.70152" lon="4.67775">
        <ele>176</ele>
        <time>2019-07-08T11:36:40Z</time>
      </trkpt>
      <trkpt lat="44.70152" lon="4.67763">
        <ele>175.60000610352</ele>
        <time>2019-07-08T11:36:41Z</time>
      </trkpt>
      <trkpt lat="44.70154" lon="4.67752">
        <ele>175.19999694824</ele>
        <time>2019-07-08T11:36:42Z</time>
      </trkpt>
      <trkpt lat="44.70158" lon="4.67742">
        <ele>175.19999694824</ele>
        <time>2019-07-08T11:36:43Z</time>
      </trkpt>
      <trkpt lat="44.70162" lon="4.67732">
        <ele>174.80000305176</ele>
        <time>2019-07-08T11:36:44Z</time>
      </trkpt>
      <trkpt lat="44.70165" lon="4.67722">
        <ele>174.39999389648</ele>
        <time>2019-07-08T11:36:45Z</time>
      </trkpt>
      <trkpt lat="44.70168" lon="4.67712">
        <ele>174</ele>
        <time>2019-07-08T11:36:46Z</time>
      </trkpt>
      <trkpt lat="44.7017" lon="4.67702">
        <ele>173.60000610352</ele>
        <time>2019-07-08T11:36:47Z</time>
      </trkpt>
      <trkpt lat="44.70171" lon="4.67692">
        <ele>173.19999694824</ele>
        <time>2019-07-08T11:36:48Z</time>
      </trkpt>
      <trkpt lat="44.7017" lon="4.67664">
        <ele>173.19999694824</ele>
        <time>2019-07-08T11:36:51Z</time>
      </trkpt>
      <trkpt lat="44.7017" lon="4.67656">
        <ele>173.19999694824</ele>
        <time>2019-07-08T11:36:52Z</time>
      </trkpt>
      <trkpt lat="44.70181" lon="4.67641">
        <ele>173.19999694824</ele>
        <time>2019-07-08T11:36:55Z</time>
      </trkpt>
      <trkpt lat="44.70186" lon="4.6764">
        <ele>173.60000610352</ele>
        <time>2019-07-08T11:36:56Z</time>
      </trkpt>
      <trkpt lat="44.7019" lon="4.67638">
        <ele>174</ele>
        <time>2019-07-08T11:36:57Z</time>
      </trkpt>
      <trkpt lat="44.70194" lon="4.67636">
        <ele>174.39999389648</ele>
        <time>2019-07-08T11:36:58Z</time>
      </trkpt>
      <trkpt lat="44.70198" lon="4.67633">
        <ele>174.80000305176</ele>
        <time>2019-07-08T11:36:59Z</time>
      </trkpt>
      <trkpt lat="44.70203" lon="4.6763">
        <ele>175.19999694824</ele>
        <time>2019-07-08T11:37:00Z</time>
      </trkpt>
      <trkpt lat="44.70207" lon="4.67624">
        <ele>175.19999694824</ele>
        <time>2019-07-08T11:37:01Z</time>
      </trkpt>
      <trkpt lat="44.70208" lon="4.67615">
        <ele>175.19999694824</ele>
        <time>2019-07-08T11:37:02Z</time>
      </trkpt>
      <trkpt lat="44.70205" lon="4.67589">
        <ele>175.19999694824</ele>
        <time>2019-07-08T11:37:05Z</time>
      </trkpt>
      <trkpt lat="44.70205" lon="4.6758">
        <ele>174.80000305176</ele>
        <time>2019-07-08T11:37:06Z</time>
      </trkpt>
      <trkpt lat="44.70207" lon="4.67571">
        <ele>174.19999694824</ele>
        <time>2019-07-08T11:37:07Z</time>
      </trkpt>
      <trkpt lat="44.7021" lon="4.67563">
        <ele>173.80000305176</ele>
        <time>2019-07-08T11:37:08Z</time>
      </trkpt>
      <trkpt lat="44.70213" lon="4.67556">
        <ele>173.39999389648</ele>
        <time>2019-07-08T11:37:09Z</time>
      </trkpt>
      <trkpt lat="44.70216" lon="4.67549">
        <ele>173</ele>
        <time>2019-07-08T11:37:10Z</time>
      </trkpt>
      <trkpt lat="44.70227" lon="4.67532">
        <ele>173</ele>
        <time>2019-07-08T11:37:13Z</time>
      </trkpt>
      <trkpt lat="44.70233" lon="4.67523">
        <ele>173</ele>
        <time>2019-07-08T11:37:15Z</time>
      </trkpt>
      <trkpt lat="44.70241" lon="4.67515">
        <ele>173</ele>
        <time>2019-07-08T11:37:17Z</time>
      </trkpt>
      <trkpt lat="44.70265" lon="4.6749">
        <ele>173</ele>
        <time>2019-07-08T11:37:23Z</time>
      </trkpt>
      <trkpt lat="44.70276" lon="4.67478">
        <ele>173</ele>
        <time>2019-07-08T11:37:26Z</time>
      </trkpt>
      <trkpt lat="44.70286" lon="4.67468">
        <ele>173</ele>
        <time>2019-07-08T11:37:29Z</time>
      </trkpt>
      <trkpt lat="44.70307" lon="4.67447">
        <ele>173</ele>
        <time>2019-07-08T11:37:35Z</time>
      </trkpt>
      <trkpt lat="44.70318" lon="4.67427">
        <ele>173</ele>
        <time>2019-07-08T11:37:39Z</time>
      </trkpt>
      <trkpt lat="44.70341" lon="4.67387">
        <ele>173</ele>
        <time>2019-07-08T11:37:47Z</time>
      </trkpt>
      <trkpt lat="44.70365" lon="4.67345">
        <ele>173</ele>
        <time>2019-07-08T11:37:55Z</time>
      </trkpt>
      <trkpt lat="44.70371" lon="4.67336">
        <ele>173.39999389648</ele>
        <time>2019-07-08T11:37:57Z</time>
      </trkpt>
      <trkpt lat="44.70374" lon="4.67331">
        <ele>173.80000305176</ele>
        <time>2019-07-08T11:37:58Z</time>
      </trkpt>
      <trkpt lat="44.70377" lon="4.67325">
        <ele>174.19999694824</ele>
        <time>2019-07-08T11:37:59Z</time>
      </trkpt>
      <trkpt lat="44.7038" lon="4.6732">
        <ele>174.60000610352</ele>
        <time>2019-07-08T11:38:00Z</time>
      </trkpt>
      <trkpt lat="44.70382" lon="4.67314">
        <ele>175</ele>
        <time>2019-07-08T11:38:01Z</time>
      </trkpt>
      <trkpt lat="44.70385" lon="4.67308">
        <ele>175</ele>
        <time>2019-07-08T11:38:02Z</time>
      </trkpt>
      <trkpt lat="44.704" lon="4.67265">
        <ele>175</ele>
        <time>2019-07-08T11:38:09Z</time>
      </trkpt>
      <trkpt lat="44.70415" lon="4.67221">
        <ele>175</ele>
        <time>2019-07-08T11:38:16Z</time>
      </trkpt>
      <trkpt lat="44.70429" lon="4.67176">
        <ele>175</ele>
        <time>2019-07-08T11:38:23Z</time>
      </trkpt>
      <trkpt lat="44.70431" lon="4.67169">
        <ele>175.39999389648</ele>
        <time>2019-07-08T11:38:24Z</time>
      </trkpt>
      <trkpt lat="44.70432" lon="4.67163">
        <ele>175.80000305176</ele>
        <time>2019-07-08T11:38:25Z</time>
      </trkpt>
      <trkpt lat="44.70433" lon="4.67156">
        <ele>176.19999694824</ele>
        <time>2019-07-08T11:38:26Z</time>
      </trkpt>
      <trkpt lat="44.70433" lon="4.6715">
        <ele>176.80000305176</ele>
        <time>2019-07-08T11:38:27Z</time>
      </trkpt>
      <trkpt lat="44.70433" lon="4.67143">
        <ele>177.19999694824</ele>
        <time>2019-07-08T11:38:28Z</time>
      </trkpt>
      <trkpt lat="44.70434" lon="4.6713">
        <ele>177.19999694824</ele>
        <time>2019-07-08T11:38:30Z</time>
      </trkpt>
      <trkpt lat="44.70435" lon="4.6707">
        <ele>177.19999694824</ele>
        <time>2019-07-08T11:38:39Z</time>
      </trkpt>
      <trkpt lat="44.70434" lon="4.67063">
        <ele>177.60000610352</ele>
        <time>2019-07-08T11:38:40Z</time>
      </trkpt>
      <trkpt lat="44.70435" lon="4.67056">
        <ele>178.39999389648</ele>
        <time>2019-07-08T11:38:41Z</time>
      </trkpt>
      <trkpt lat="44.70435" lon="4.67049">
        <ele>178.80000305176</ele>
        <time>2019-07-08T11:38:42Z</time>
      </trkpt>
      <trkpt lat="44.70434" lon="4.67042">
        <ele>179.19999694824</ele>
        <time>2019-07-08T11:38:43Z</time>
      </trkpt>
      <trkpt lat="44.70433" lon="4.67022">
        <ele>179.19999694824</ele>
        <time>2019-07-08T11:38:46Z</time>
      </trkpt>
      <trkpt lat="44.70429" lon="4.66967">
        <ele>179.19999694824</ele>
        <time>2019-07-08T11:38:54Z</time>
      </trkpt>
      <trkpt lat="44.70428" lon="4.66954">
        <ele>179.60000610352</ele>
        <time>2019-07-08T11:38:56Z</time>
      </trkpt>
      <trkpt lat="44.70427" lon="4.66948">
        <ele>180</ele>
        <time>2019-07-08T11:38:57Z</time>
      </trkpt>
      <trkpt lat="44.70426" lon="4.66942">
        <ele>180.39999389648</ele>
        <time>2019-07-08T11:38:58Z</time>
      </trkpt>
      <trkpt lat="44.70424" lon="4.66936">
        <ele>181</ele>
        <time>2019-07-08T11:38:59Z</time>
      </trkpt>
      <trkpt lat="44.70423" lon="4.6693">
        <ele>181.39999389648</ele>
        <time>2019-07-08T11:39:00Z</time>
      </trkpt>
      <trkpt lat="44.70419" lon="4.6692">
        <ele>181.39999389648</ele>
        <time>2019-07-08T11:39:02Z</time>
      </trkpt>
      <trkpt lat="44.70414" lon="4.66905">
        <ele>181.80000305176</ele>
        <time>2019-07-08T11:39:05Z</time>
      </trkpt>
      <trkpt lat="44.70412" lon="4.669">
        <ele>182.19999694824</ele>
        <time>2019-07-08T11:39:06Z</time>
      </trkpt>
      <trkpt lat="44.70411" lon="4.66896">
        <ele>182.60000610352</ele>
        <time>2019-07-08T11:39:07Z</time>
      </trkpt>
      <trkpt lat="44.7041" lon="4.66892">
        <ele>183</ele>
        <time>2019-07-08T11:39:08Z</time>
      </trkpt>
      <trkpt lat="44.70408" lon="4.66887">
        <ele>183.39999389648</ele>
        <time>2019-07-08T11:39:09Z</time>
      </trkpt>
      <trkpt lat="44.70404" lon="4.66878">
        <ele>183.39999389648</ele>
        <time>2019-07-08T11:39:11Z</time>
      </trkpt>
      <trkpt lat="44.70397" lon="4.66863">
        <ele>183.80000305176</ele>
        <time>2019-07-08T11:39:14Z</time>
      </trkpt>
      <trkpt lat="44.70395" lon="4.66858">
        <ele>184.19999694824</ele>
        <time>2019-07-08T11:39:15Z</time>
      </trkpt>
      <trkpt lat="44.70393" lon="4.66852">
        <ele>184.60000610352</ele>
        <time>2019-07-08T11:39:16Z</time>
      </trkpt>
      <trkpt lat="44.70392" lon="4.66845">
        <ele>185.19999694824</ele>
        <time>2019-07-08T11:39:17Z</time>
      </trkpt>
      <trkpt lat="44.70391" lon="4.66839">
        <ele>185.60000610352</ele>
        <time>2019-07-08T11:39:18Z</time>
      </trkpt>
      <trkpt lat="44.7039" lon="4.66826">
        <ele>185.60000610352</ele>
        <time>2019-07-08T11:39:20Z</time>
      </trkpt>
      <trkpt lat="44.70389" lon="4.66814">
        <ele>185.60000610352</ele>
        <time>2019-07-08T11:39:22Z</time>
      </trkpt>
      <trkpt lat="44.70385" lon="4.66778">
        <ele>185.60000610352</ele>
        <time>2019-07-08T11:39:28Z</time>
      </trkpt>
      <trkpt lat="44.70382" lon="4.66768">
        <ele>185.60000610352</ele>
        <time>2019-07-08T11:39:30Z</time>
      </trkpt>
      <trkpt lat="44.70377" lon="4.66758">
        <ele>185.60000610352</ele>
        <time>2019-07-08T11:39:32Z</time>
      </trkpt>
      <trkpt lat="44.70367" lon="4.66736">
        <ele>185.60000610352</ele>
        <time>2019-07-08T11:39:36Z</time>
      </trkpt>
      <trkpt lat="44.70363" lon="4.66716">
        <ele>185.60000610352</ele>
        <time>2019-07-08T11:39:39Z</time>
      </trkpt>
      <trkpt lat="44.70363" lon="4.66703">
        <ele>185.60000610352</ele>
        <time>2019-07-08T11:39:41Z</time>
      </trkpt>
      <trkpt lat="44.70363" lon="4.66677">
        <ele>186</ele>
        <time>2019-07-08T11:39:45Z</time>
      </trkpt>
      <trkpt lat="44.70363" lon="4.6667">
        <ele>186.39999389648</ele>
        <time>2019-07-08T11:39:46Z</time>
      </trkpt>
      <trkpt lat="44.70363" lon="4.66664">
        <ele>186.80000305176</ele>
        <time>2019-07-08T11:39:47Z</time>
      </trkpt>
      <trkpt lat="44.70364" lon="4.66658">
        <ele>187.19999694824</ele>
        <time>2019-07-08T11:39:48Z</time>
      </trkpt>
      <trkpt lat="44.70365" lon="4.66652">
        <ele>187.60000610352</ele>
        <time>2019-07-08T11:39:49Z</time>
      </trkpt>
      <trkpt lat="44.70368" lon="4.66619">
        <ele>187.60000610352</ele>
        <time>2019-07-08T11:39:54Z</time>
      </trkpt>
      <trkpt lat="44.70375" lon="4.66574">
        <ele>187.60000610352</ele>
        <time>2019-07-08T11:40:01Z</time>
      </trkpt>
      <trkpt lat="44.70376" lon="4.66568">
        <ele>187.60000610352</ele>
        <time>2019-07-08T11:40:02Z</time>
      </trkpt>
      <trkpt lat="44.70385" lon="4.66545">
        <ele>187.60000610352</ele>
        <time>2019-07-08T11:40:06Z</time>
      </trkpt>
      <trkpt lat="44.70401" lon="4.66501">
        <ele>187.60000610352</ele>
        <time>2019-07-08T11:40:14Z</time>
      </trkpt>
      <trkpt lat="44.70402" lon="4.66496">
        <ele>188</ele>
        <time>2019-07-08T11:40:15Z</time>
      </trkpt>
      <trkpt lat="44.70402" lon="4.6649">
        <ele>188.39999389648</ele>
        <time>2019-07-08T11:40:16Z</time>
      </trkpt>
      <trkpt lat="44.70403" lon="4.66485">
        <ele>188.80000305176</ele>
        <time>2019-07-08T11:40:17Z</time>
      </trkpt>
      <trkpt lat="44.70403" lon="4.66479">
        <ele>189.19999694824</ele>
        <time>2019-07-08T11:40:18Z</time>
      </trkpt>
      <trkpt lat="44.70403" lon="4.66474">
        <ele>189.60000610352</ele>
        <time>2019-07-08T11:40:19Z</time>
      </trkpt>
      <trkpt lat="44.70406" lon="4.66438">
        <ele>190</ele>
        <time>2019-07-08T11:40:26Z</time>
      </trkpt>
      <trkpt lat="44.70406" lon="4.66433">
        <ele>190.39999389648</ele>
        <time>2019-07-08T11:40:27Z</time>
      </trkpt>
      <trkpt lat="44.70406" lon="4.66428">
        <ele>190.80000305176</ele>
        <time>2019-07-08T11:40:28Z</time>
      </trkpt>
      <trkpt lat="44.70407" lon="4.66423">
        <ele>191.19999694824</ele>
        <time>2019-07-08T11:40:29Z</time>
      </trkpt>
      <trkpt lat="44.70407" lon="4.66418">
        <ele>191.80000305176</ele>
        <time>2019-07-08T11:40:30Z</time>
      </trkpt>
      <trkpt lat="44.70407" lon="4.66391">
        <ele>191.80000305176</ele>
        <time>2019-07-08T11:40:35Z</time>
      </trkpt>
      <trkpt lat="44.70406" lon="4.66379">
        <ele>191.80000305176</ele>
        <time>2019-07-08T11:40:37Z</time>
      </trkpt>
      <trkpt lat="44.70406" lon="4.66341">
        <ele>192.60000610352</ele>
        <time>2019-07-08T11:40:44Z</time>
      </trkpt>
      <trkpt lat="44.70406" lon="4.66336">
        <ele>193</ele>
        <time>2019-07-08T11:40:45Z</time>
      </trkpt>
      <trkpt lat="44.70407" lon="4.66332">
        <ele>193.39999389648</ele>
        <time>2019-07-08T11:40:46Z</time>
      </trkpt>
      <trkpt lat="44.70408" lon="4.66327">
        <ele>193.80000305176</ele>
        <time>2019-07-08T11:40:47Z</time>
      </trkpt>
      <trkpt lat="44.70409" lon="4.66311">
        <ele>193.80000305176</ele>
        <time>2019-07-08T11:40:51Z</time>
      </trkpt>
      <trkpt lat="44.70409" lon="4.66302">
        <ele>194.19999694824</ele>
        <time>2019-07-08T11:40:53Z</time>
      </trkpt>
      <trkpt lat="44.70408" lon="4.66298">
        <ele>194.60000610352</ele>
        <time>2019-07-08T11:40:54Z</time>
      </trkpt>
      <trkpt lat="44.70409" lon="4.66293">
        <ele>195</ele>
        <time>2019-07-08T11:40:55Z</time>
      </trkpt>
      <trkpt lat="44.70409" lon="4.66289">
        <ele>195.39999389648</ele>
        <time>2019-07-08T11:40:56Z</time>
      </trkpt>
      <trkpt lat="44.70409" lon="4.66285">
        <ele>195.80000305176</ele>
        <time>2019-07-08T11:40:57Z</time>
      </trkpt>
      <trkpt lat="44.70409" lon="4.66281">
        <ele>195.80000305176</ele>
        <time>2019-07-08T11:40:58Z</time>
      </trkpt>
      <trkpt lat="44.70409" lon="4.66252">
        <ele>195.80000305176</ele>
        <time>2019-07-08T11:41:04Z</time>
      </trkpt>
      <trkpt lat="44.70404" lon="4.66229">
        <ele>195.80000305176</ele>
        <time>2019-07-08T11:41:10Z</time>
      </trkpt>
      <trkpt lat="44.70391" lon="4.6623">
        <ele>195.80000305176</ele>
        <time>2019-07-08T11:41:13Z</time>
      </trkpt>
      <trkpt lat="44.70382" lon="4.66231">
        <ele>195.80000305176</ele>
        <time>2019-07-08T11:41:15Z</time>
      </trkpt>
      <trkpt lat="44.70362" lon="4.66234">
        <ele>195.80000305176</ele>
        <time>2019-07-08T11:41:19Z</time>
      </trkpt>
      <trkpt lat="44.70315" lon="4.66238">
        <ele>195.80000305176</ele>
        <time>2019-07-08T11:41:28Z</time>
      </trkpt>
      <trkpt lat="44.70281" lon="4.66237">
        <ele>195.80000305176</ele>
        <time>2019-07-08T11:41:35Z</time>
      </trkpt>
      <trkpt lat="44.7025" lon="4.66231">
        <ele>195.80000305176</ele>
        <time>2019-07-08T11:41:42Z</time>
      </trkpt>
      <trkpt lat="44.70212" lon="4.6622">
        <ele>195.80000305176</ele>
        <time>2019-07-08T11:41:50Z</time>
      </trkpt>
      <trkpt lat="44.70174" lon="4.66212">
        <ele>195.80000305176</ele>
        <time>2019-07-08T11:41:57Z</time>
      </trkpt>
      <trkpt lat="44.70169" lon="4.66211">
        <ele>195.80000305176</ele>
        <time>2019-07-08T11:41:58Z</time>
      </trkpt>
      <trkpt lat="44.70145" lon="4.66205">
        <ele>195.80000305176</ele>
        <time>2019-07-08T11:42:03Z</time>
      </trkpt>
      <trkpt lat="44.70141" lon="4.66187">
        <ele>195.80000305176</ele>
        <time>2019-07-08T11:42:06Z</time>
      </trkpt>
      <trkpt lat="44.70143" lon="4.66174">
        <ele>195.80000305176</ele>
        <time>2019-07-08T11:42:08Z</time>
      </trkpt>
      <trkpt lat="44.70143" lon="4.66154">
        <ele>195.80000305176</ele>
        <time>2019-07-08T11:42:11Z</time>
      </trkpt>
      <trkpt lat="44.70143" lon="4.66115">
        <ele>196.19999694824</ele>
        <time>2019-07-08T11:42:17Z</time>
      </trkpt>
      <trkpt lat="44.70143" lon="4.66109">
        <ele>196.60000610352</ele>
        <time>2019-07-08T11:42:18Z</time>
      </trkpt>
      <trkpt lat="44.70143" lon="4.66103">
        <ele>197</ele>
        <time>2019-07-08T11:42:19Z</time>
      </trkpt>
      <trkpt lat="44.70143" lon="4.66096">
        <ele>197.39999389648</ele>
        <time>2019-07-08T11:42:20Z</time>
      </trkpt>
      <trkpt lat="44.70143" lon="4.6609">
        <ele>197.80000305176</ele>
        <time>2019-07-08T11:42:21Z</time>
      </trkpt>
      <trkpt lat="44.70143" lon="4.66065">
        <ele>197.80000305176</ele>
        <time>2019-07-08T11:42:25Z</time>
      </trkpt>
      <trkpt lat="44.70142" lon="4.66052">
        <ele>197.80000305176</ele>
        <time>2019-07-08T11:42:27Z</time>
      </trkpt>
      <trkpt lat="44.70133" lon="4.66022">
        <ele>197.80000305176</ele>
        <time>2019-07-08T11:42:32Z</time>
      </trkpt>
      <trkpt lat="44.70119" lon="4.65984">
        <ele>198.19999694824</ele>
        <time>2019-07-08T11:42:38Z</time>
      </trkpt>
      <trkpt lat="44.70116" lon="4.65978">
        <ele>198.60000610352</ele>
        <time>2019-07-08T11:42:39Z</time>
      </trkpt>
      <trkpt lat="44.70114" lon="4.65972">
        <ele>199</ele>
        <time>2019-07-08T11:42:40Z</time>
      </trkpt>
      <trkpt lat="44.70112" lon="4.65966">
        <ele>199.39999389648</ele>
        <time>2019-07-08T11:42:41Z</time>
      </trkpt>
      <trkpt lat="44.70109" lon="4.6596">
        <ele>199.80000305176</ele>
        <time>2019-07-08T11:42:42Z</time>
      </trkpt>
      <trkpt lat="44.70095" lon="4.65926">
        <ele>199.80000305176</ele>
        <time>2019-07-08T11:42:48Z</time>
      </trkpt>
      <trkpt lat="44.70092" lon="4.65915">
        <ele>200.19999694824</ele>
        <time>2019-07-08T11:42:50Z</time>
      </trkpt>
      <trkpt lat="44.7009" lon="4.6591">
        <ele>200.60000610352</ele>
        <time>2019-07-08T11:42:51Z</time>
      </trkpt>
      <trkpt lat="44.70088" lon="4.65904">
        <ele>201</ele>
        <time>2019-07-08T11:42:52Z</time>
      </trkpt>
      <trkpt lat="44.70085" lon="4.65899">
        <ele>201.39999389648</ele>
        <time>2019-07-08T11:42:53Z</time>
      </trkpt>
      <trkpt lat="44.70083" lon="4.65894">
        <ele>201.80000305176</ele>
        <time>2019-07-08T11:42:54Z</time>
      </trkpt>
      <trkpt lat="44.70079" lon="4.65883">
        <ele>201.80000305176</ele>
        <time>2019-07-08T11:42:56Z</time>
      </trkpt>
      <trkpt lat="44.70059" lon="4.65835">
        <ele>201.80000305176</ele>
        <time>2019-07-08T11:43:05Z</time>
      </trkpt>
      <trkpt lat="44.70053" lon="4.65818">
        <ele>202.19999694824</ele>
        <time>2019-07-08T11:43:08Z</time>
      </trkpt>
      <trkpt lat="44.7005" lon="4.65813">
        <ele>202.60000610352</ele>
        <time>2019-07-08T11:43:09Z</time>
      </trkpt>
      <trkpt lat="44.70048" lon="4.65807">
        <ele>203</ele>
        <time>2019-07-08T11:43:10Z</time>
      </trkpt>
      <trkpt lat="44.70046" lon="4.65802">
        <ele>203.80000305176</ele>
        <time>2019-07-08T11:43:11Z</time>
      </trkpt>
      <trkpt lat="44.70045" lon="4.65796">
        <ele>203.80000305176</ele>
        <time>2019-07-08T11:43:12Z</time>
      </trkpt>
      <trkpt lat="44.70033" lon="4.6576">
        <ele>204.39999389648</ele>
        <time>2019-07-08T11:43:18Z</time>
      </trkpt>
      <trkpt lat="44.70031" lon="4.65755">
        <ele>204.80000305176</ele>
        <time>2019-07-08T11:43:19Z</time>
      </trkpt>
      <trkpt lat="44.70028" lon="4.6575">
        <ele>205.19999694824</ele>
        <time>2019-07-08T11:43:20Z</time>
      </trkpt>
      <trkpt lat="44.70026" lon="4.65745">
        <ele>205.60000610352</ele>
        <time>2019-07-08T11:43:21Z</time>
      </trkpt>
      <trkpt lat="44.70024" lon="4.65739">
        <ele>206</ele>
        <time>2019-07-08T11:43:22Z</time>
      </trkpt>
      <trkpt lat="44.70016" lon="4.65724">
        <ele>206</ele>
        <time>2019-07-08T11:43:25Z</time>
      </trkpt>
      <trkpt lat="44.70014" lon="4.65718">
        <ele>206</ele>
        <time>2019-07-08T11:43:26Z</time>
      </trkpt>
      <trkpt lat="44.69999" lon="4.65686">
        <ele>206</ele>
        <time>2019-07-08T11:43:32Z</time>
      </trkpt>
      <trkpt lat="44.69988" lon="4.65667">
        <ele>206.39999389648</ele>
        <time>2019-07-08T11:43:36Z</time>
      </trkpt>
      <trkpt lat="44.69985" lon="4.65662">
        <ele>206.80000305176</ele>
        <time>2019-07-08T11:43:37Z</time>
      </trkpt>
      <trkpt lat="44.69981" lon="4.65659">
        <ele>207.19999694824</ele>
        <time>2019-07-08T11:43:38Z</time>
      </trkpt>
      <trkpt lat="44.69978" lon="4.65655">
        <ele>207.60000610352</ele>
        <time>2019-07-08T11:43:39Z</time>
      </trkpt>
      <trkpt lat="44.69975" lon="4.65651">
        <ele>208</ele>
        <time>2019-07-08T11:43:40Z</time>
      </trkpt>
      <trkpt lat="44.6996" lon="4.65635">
        <ele>208</ele>
        <time>2019-07-08T11:43:44Z</time>
      </trkpt>
      <trkpt lat="44.69939" lon="4.65611">
        <ele>208</ele>
        <time>2019-07-08T11:43:50Z</time>
      </trkpt>
      <trkpt lat="44.69913" lon="4.65583">
        <ele>208</ele>
        <time>2019-07-08T11:43:57Z</time>
      </trkpt>
      <trkpt lat="44.6991" lon="4.65579">
        <ele>208</ele>
        <time>2019-07-08T11:43:58Z</time>
      </trkpt>
      <trkpt lat="44.69904" lon="4.65563">
        <ele>208</ele>
        <time>2019-07-08T11:44:01Z</time>
      </trkpt>
      <trkpt lat="44.69898" lon="4.65553">
        <ele>208</ele>
        <time>2019-07-08T11:44:03Z</time>
      </trkpt>
      <trkpt lat="44.69894" lon="4.65547">
        <ele>208</ele>
        <time>2019-07-08T11:44:04Z</time>
      </trkpt>
      <trkpt lat="44.69876" lon="4.65517">
        <ele>208</ele>
        <time>2019-07-08T11:44:09Z</time>
      </trkpt>
      <trkpt lat="44.69875" lon="4.65509">
        <ele>208</ele>
        <time>2019-07-08T11:44:10Z</time>
      </trkpt>
      <trkpt lat="44.69881" lon="4.65485">
        <ele>208</ele>
        <time>2019-07-08T11:44:13Z</time>
      </trkpt>
      <trkpt lat="44.6989" lon="4.65478">
        <ele>208</ele>
        <time>2019-07-08T11:44:15Z</time>
      </trkpt>
      <trkpt lat="44.69894" lon="4.65475">
        <ele>208</ele>
        <time>2019-07-08T11:44:16Z</time>
      </trkpt>
      <trkpt lat="44.69898" lon="4.65472">
        <ele>208</ele>
        <time>2019-07-08T11:44:17Z</time>
      </trkpt>
      <trkpt lat="44.69914" lon="4.65459">
        <ele>208</ele>
        <time>2019-07-08T11:44:21Z</time>
      </trkpt>
      <trkpt lat="44.69947" lon="4.65427">
        <ele>208</ele>
        <time>2019-07-08T11:44:30Z</time>
      </trkpt>
      <trkpt lat="44.69972" lon="4.65403">
        <ele>208</ele>
        <time>2019-07-08T11:44:36Z</time>
      </trkpt>
      <trkpt lat="44.69976" lon="4.654">
        <ele>208</ele>
        <time>2019-07-08T11:44:37Z</time>
      </trkpt>
      <trkpt lat="44.69995" lon="4.65381">
        <ele>208</ele>
        <time>2019-07-08T11:44:42Z</time>
      </trkpt>
      <trkpt lat="44.70003" lon="4.65378">
        <ele>208</ele>
        <time>2019-07-08T11:44:44Z</time>
      </trkpt>
      <trkpt lat="44.70016" lon="4.65386">
        <ele>208</ele>
        <time>2019-07-08T11:44:47Z</time>
      </trkpt>
      <trkpt lat="44.7002" lon="4.65389">
        <ele>208</ele>
        <time>2019-07-08T11:44:48Z</time>
      </trkpt>
      <trkpt lat="44.70032" lon="4.65399">
        <ele>208</ele>
        <time>2019-07-08T11:44:51Z</time>
      </trkpt>
      <trkpt lat="44.70041" lon="4.65404">
        <ele>208</ele>
        <time>2019-07-08T11:44:53Z</time>
      </trkpt>
      <trkpt lat="44.70059" lon="4.65409">
        <ele>208</ele>
        <time>2019-07-08T11:44:57Z</time>
      </trkpt>
      <trkpt lat="44.70064" lon="4.65408">
        <ele>208</ele>
        <time>2019-07-08T11:44:58Z</time>
      </trkpt>
      <trkpt lat="44.70079" lon="4.65403">
        <ele>208</ele>
        <time>2019-07-08T11:45:01Z</time>
      </trkpt>
      <trkpt lat="44.70088" lon="4.654">
        <ele>208</ele>
        <time>2019-07-08T11:45:03Z</time>
      </trkpt>
      <trkpt lat="44.70107" lon="4.65395">
        <ele>208.39999389648</ele>
        <time>2019-07-08T11:45:07Z</time>
      </trkpt>
      <trkpt lat="44.70112" lon="4.65393">
        <ele>208.80000305176</ele>
        <time>2019-07-08T11:45:08Z</time>
      </trkpt>
      <trkpt lat="44.70116" lon="4.65391">
        <ele>209.19999694824</ele>
        <time>2019-07-08T11:45:09Z</time>
      </trkpt>
      <trkpt lat="44.70121" lon="4.65389">
        <ele>209.60000610352</ele>
        <time>2019-07-08T11:45:10Z</time>
      </trkpt>
      <trkpt lat="44.70125" lon="4.65388">
        <ele>210</ele>
        <time>2019-07-08T11:45:11Z</time>
      </trkpt>
      <trkpt lat="44.70129" lon="4.65387">
        <ele>210</ele>
        <time>2019-07-08T11:45:12Z</time>
      </trkpt>
      <trkpt lat="44.70143" lon="4.65388">
        <ele>210</ele>
        <time>2019-07-08T11:45:15Z</time>
      </trkpt>
      <trkpt lat="44.70151" lon="4.6539">
        <ele>210.39999389648</ele>
        <time>2019-07-08T11:45:17Z</time>
      </trkpt>
      <trkpt lat="44.70155" lon="4.65392">
        <ele>210.80000305176</ele>
        <time>2019-07-08T11:45:18Z</time>
      </trkpt>
      <trkpt lat="44.70159" lon="4.65394">
        <ele>211.19999694824</ele>
        <time>2019-07-08T11:45:19Z</time>
      </trkpt>
      <trkpt lat="44.70163" lon="4.65396">
        <ele>211.80000305176</ele>
        <time>2019-07-08T11:45:20Z</time>
      </trkpt>
      <trkpt lat="44.70167" lon="4.65398">
        <ele>212.19999694824</ele>
        <time>2019-07-08T11:45:21Z</time>
      </trkpt>
      <trkpt lat="44.70182" lon="4.65407">
        <ele>212.60000610352</ele>
        <time>2019-07-08T11:45:25Z</time>
      </trkpt>
      <trkpt lat="44.70186" lon="4.65409">
        <ele>213</ele>
        <time>2019-07-08T11:45:26Z</time>
      </trkpt>
      <trkpt lat="44.7019" lon="4.65412">
        <ele>213.39999389648</ele>
        <time>2019-07-08T11:45:27Z</time>
      </trkpt>
      <trkpt lat="44.70194" lon="4.65416">
        <ele>213.80000305176</ele>
        <time>2019-07-08T11:45:28Z</time>
      </trkpt>
      <trkpt lat="44.70198" lon="4.65419">
        <ele>214.19999694824</ele>
        <time>2019-07-08T11:45:29Z</time>
      </trkpt>
      <trkpt lat="44.70201" lon="4.65423">
        <ele>214.19999694824</ele>
        <time>2019-07-08T11:45:30Z</time>
      </trkpt>
      <trkpt lat="44.70207" lon="4.65431">
        <ele>214.19999694824</ele>
        <time>2019-07-08T11:45:32Z</time>
      </trkpt>
      <trkpt lat="44.70223" lon="4.65455">
        <ele>214.19999694824</ele>
        <time>2019-07-08T11:45:37Z</time>
      </trkpt>
      <trkpt lat="44.70245" lon="4.65492">
        <ele>214.60000610352</ele>
        <time>2019-07-08T11:45:44Z</time>
      </trkpt>
      <trkpt lat="44.70248" lon="4.65496">
        <ele>215</ele>
        <time>2019-07-08T11:45:45Z</time>
      </trkpt>
      <trkpt lat="44.70251" lon="4.65502">
        <ele>215.39999389648</ele>
        <time>2019-07-08T11:45:46Z</time>
      </trkpt>
      <trkpt lat="44.70255" lon="4.65507">
        <ele>215.80000305176</ele>
        <time>2019-07-08T11:45:47Z</time>
      </trkpt>
      <trkpt lat="44.70259" lon="4.65512">
        <ele>216.19999694824</ele>
        <time>2019-07-08T11:45:48Z</time>
      </trkpt>
      <trkpt lat="44.70263" lon="4.65517">
        <ele>216.19999694824</ele>
        <time>2019-07-08T11:45:49Z</time>
      </trkpt>
      <trkpt lat="44.70266" lon="4.65522">
        <ele>216.19999694824</ele>
        <time>2019-07-08T11:45:50Z</time>
      </trkpt>
      <trkpt lat="44.70277" lon="4.65536">
        <ele>216.19999694824</ele>
        <time>2019-07-08T11:45:53Z</time>
      </trkpt>
      <trkpt lat="44.7028" lon="4.65542">
        <ele>216.19999694824</ele>
        <time>2019-07-08T11:45:54Z</time>
      </trkpt>
      <trkpt lat="44.70298" lon="4.65577">
        <ele>216.19999694824</ele>
        <time>2019-07-08T11:46:02Z</time>
      </trkpt>
      <trkpt lat="44.70304" lon="4.6558">
        <ele>216.19999694824</ele>
        <time>2019-07-08T11:46:04Z</time>
      </trkpt>
      <trkpt lat="44.70306" lon="4.65578">
        <ele>216.19999694824</ele>
        <time>2019-07-08T11:46:05Z</time>
      </trkpt>
      <trkpt lat="44.7032" lon="4.65556">
        <ele>216.19999694824</ele>
        <time>2019-07-08T11:46:11Z</time>
      </trkpt>
      <trkpt lat="44.70339" lon="4.65525">
        <ele>216.19999694824</ele>
        <time>2019-07-08T11:46:18Z</time>
      </trkpt>
      <trkpt lat="44.7036" lon="4.6549">
        <ele>216.19999694824</ele>
        <time>2019-07-08T11:46:26Z</time>
      </trkpt>
      <trkpt lat="44.70368" lon="4.65468">
        <ele>216.19999694824</ele>
        <time>2019-07-08T11:46:31Z</time>
      </trkpt>
      <trkpt lat="44.70376" lon="4.65446">
        <ele>216.60000610352</ele>
        <time>2019-07-08T11:46:38Z</time>
      </trkpt>
      <trkpt lat="44.70377" lon="4.65443">
        <ele>217</ele>
        <time>2019-07-08T11:46:39Z</time>
      </trkpt>
      <trkpt lat="44.70378" lon="4.65439">
        <ele>217.39999389648</ele>
        <time>2019-07-08T11:46:40Z</time>
      </trkpt>
      <trkpt lat="44.70379" lon="4.65436">
        <ele>217.80000305176</ele>
        <time>2019-07-08T11:46:41Z</time>
      </trkpt>
      <trkpt lat="44.70381" lon="4.65432">
        <ele>218.19999694824</ele>
        <time>2019-07-08T11:46:42Z</time>
      </trkpt>
      <trkpt lat="44.70384" lon="4.65419">
        <ele>218.19999694824</ele>
        <time>2019-07-08T11:46:46Z</time>
      </trkpt>
      <trkpt lat="44.70383" lon="4.6541">
        <ele>218.19999694824</ele>
        <time>2019-07-08T11:46:51Z</time>
      </trkpt>
      <trkpt lat="44.70383" lon="4.6541">
        <ele>218.19999694824</ele>
        <time>2019-07-08T11:46:52Z</time>
      </trkpt>
    </trkseg>
  </trk>
</gpx>